<?xml version="1.0" encoding="UTF-8" standalone="no" ?>
<gpx xmlns="http://www.topografix.com/GPX/1/1" xmlns:xsi="http://www.w3.org/2001/XMLSchema-instance" xsi:schemaLocation="http://www.topografix.com/GPX/1/1 http://www.topografix.com/GPX/1/1/gpx.xsd" version="1.1" creator="VisuGPX - https://www.visugpx.com">
  <metadata>
    <name>2016-09-10 Bike ride-Georges de Reneins O</name>
    <desc><![CDATA[2016-09-10 Bike ride-Georges de Reneins O]]></desc>
  </metadata>
  <wpt lat="45.92436" lon="4.73719">
    <ele>174</ele>
    <name><![CDATA[2016-09-10 10:39 (Start)]]></name>
  </wpt>
  <wpt lat="45.9246" lon="4.73709">
    <ele>174</ele>
    <name><![CDATA[2016-09-10 10:39 (End)]]></name>
    <desc><![CDATA[Created by Google My Tracks on Android  Name: 2016-09-10 10:39 Activity type: biking Description: - Total distance: 49.66 km (30.9 mi) Total time: 2:24:52 Moving time: 2:19:49 Average speed: 20.57 km/h (12.8 mi/h) Average moving speed: 21.31 km/h (13.2 mi/h) Max speed: 40.04 km/h (24.9 mi/h) Average pace: 2:55 min/km (4:42 min/mi) Average moving pace: 2:49 min/km (4:32 min/mi) Fastest pace: 1:30 min/km (2:25 min/mi) Max elevation: 249 m (815 ft) Min elevation: 166 m (545 ft) Elevation gain: 793 m (2600 ft) Max grade: 18 % Min grade: -79 % Recorded: 10/09/2016 10:39]]></desc>
  </wpt>
  <trk>
    <name><![CDATA[2016-09-10 10:39]]></name>
    <trkseg>
      <trkpt lat="45.92436" lon="4.73719">
        <ele>174</ele>
        <time>2016-09-10T08:39:00.912Z</time>
      </trkpt>
      <trkpt lat="45.92439" lon="4.73719">
        <ele>174</ele>
        <time>2016-09-10T08:39:32Z</time>
      </trkpt>
      <trkpt lat="45.92445" lon="4.7371">
        <ele>174</ele>
        <time>2016-09-10T08:39:33Z</time>
      </trkpt>
      <trkpt lat="45.9245" lon="4.73711">
        <ele>174</ele>
        <time>2016-09-10T08:39:52Z</time>
      </trkpt>
      <trkpt lat="45.92459" lon="4.73714">
        <ele>174</ele>
        <time>2016-09-10T08:39:53Z</time>
      </trkpt>
      <trkpt lat="45.92465" lon="4.73705">
        <ele>174</ele>
        <time>2016-09-10T08:41:31Z</time>
      </trkpt>
      <trkpt lat="45.92466" lon="4.73703">
        <ele>174</ele>
        <time>2016-09-10T08:41:32Z</time>
      </trkpt>
      <trkpt lat="45.92468" lon="4.73692">
        <ele>174</ele>
        <time>2016-09-10T08:41:36Z</time>
      </trkpt>
      <trkpt lat="45.92468" lon="4.73688">
        <ele>174</ele>
        <time>2016-09-10T08:41:37Z</time>
      </trkpt>
      <trkpt lat="45.92468" lon="4.73677">
        <ele>174</ele>
        <time>2016-09-10T08:41:40Z</time>
      </trkpt>
      <trkpt lat="45.92468" lon="4.73672">
        <ele>174</ele>
        <time>2016-09-10T08:41:41Z</time>
      </trkpt>
      <trkpt lat="45.92469" lon="4.73662">
        <ele>174</ele>
        <time>2016-09-10T08:41:43Z</time>
      </trkpt>
      <trkpt lat="45.9247" lon="4.73656">
        <ele>174</ele>
        <time>2016-09-10T08:41:44Z</time>
      </trkpt>
      <trkpt lat="45.92473" lon="4.73646">
        <ele>174</ele>
        <time>2016-09-10T08:41:46Z</time>
      </trkpt>
      <trkpt lat="45.92476" lon="4.73643">
        <ele>174</ele>
        <time>2016-09-10T08:41:47Z</time>
      </trkpt>
      <trkpt lat="45.9248" lon="4.73641">
        <ele>174</ele>
        <time>2016-09-10T08:41:48Z</time>
      </trkpt>
      <trkpt lat="45.92486" lon="4.73642">
        <ele>174</ele>
        <time>2016-09-10T08:41:49Z</time>
      </trkpt>
      <trkpt lat="45.9249" lon="4.73642">
        <ele>174</ele>
        <time>2016-09-10T08:41:50Z</time>
      </trkpt>
      <trkpt lat="45.92495" lon="4.73643">
        <ele>174</ele>
        <time>2016-09-10T08:41:51Z</time>
      </trkpt>
      <trkpt lat="45.925" lon="4.73643">
        <ele>174</ele>
        <time>2016-09-10T08:41:52Z</time>
      </trkpt>
      <trkpt lat="45.92505" lon="4.73643">
        <ele>174</ele>
        <time>2016-09-10T08:41:53Z</time>
      </trkpt>
      <trkpt lat="45.92511" lon="4.73643">
        <ele>174</ele>
        <time>2016-09-10T08:41:54Z</time>
      </trkpt>
      <trkpt lat="45.92516" lon="4.73643">
        <ele>174</ele>
        <time>2016-09-10T08:41:55Z</time>
      </trkpt>
      <trkpt lat="45.92522" lon="4.73643">
        <ele>173</ele>
        <time>2016-09-10T08:41:56Z</time>
      </trkpt>
      <trkpt lat="45.92528" lon="4.73643">
        <ele>173</ele>
        <time>2016-09-10T08:41:57Z</time>
      </trkpt>
      <trkpt lat="45.92534" lon="4.73643">
        <ele>173</ele>
        <time>2016-09-10T08:41:58Z</time>
      </trkpt>
      <trkpt lat="45.92539" lon="4.73643">
        <ele>173</ele>
        <time>2016-09-10T08:41:59Z</time>
      </trkpt>
      <trkpt lat="45.92544" lon="4.73641">
        <ele>173</ele>
        <time>2016-09-10T08:42:00Z</time>
      </trkpt>
      <trkpt lat="45.9255" lon="4.7364">
        <ele>173</ele>
        <time>2016-09-10T08:42:01Z</time>
      </trkpt>
      <trkpt lat="45.92555" lon="4.73638">
        <ele>173</ele>
        <time>2016-09-10T08:42:02Z</time>
      </trkpt>
      <trkpt lat="45.92561" lon="4.73637">
        <ele>173</ele>
        <time>2016-09-10T08:42:03Z</time>
      </trkpt>
      <trkpt lat="45.92566" lon="4.73636">
        <ele>173</ele>
        <time>2016-09-10T08:42:04Z</time>
      </trkpt>
      <trkpt lat="45.92572" lon="4.73634">
        <ele>173</ele>
        <time>2016-09-10T08:42:05Z</time>
      </trkpt>
      <trkpt lat="45.92577" lon="4.73633">
        <ele>173</ele>
        <time>2016-09-10T08:42:06Z</time>
      </trkpt>
      <trkpt lat="45.92583" lon="4.73632">
        <ele>173</ele>
        <time>2016-09-10T08:42:07Z</time>
      </trkpt>
      <trkpt lat="45.92589" lon="4.73631">
        <ele>172</ele>
        <time>2016-09-10T08:42:08Z</time>
      </trkpt>
      <trkpt lat="45.92594" lon="4.7363">
        <ele>172</ele>
        <time>2016-09-10T08:42:09Z</time>
      </trkpt>
      <trkpt lat="45.92599" lon="4.73628">
        <ele>172</ele>
        <time>2016-09-10T08:42:10Z</time>
      </trkpt>
      <trkpt lat="45.92604" lon="4.73628">
        <ele>173</ele>
        <time>2016-09-10T08:42:11Z</time>
      </trkpt>
      <trkpt lat="45.92609" lon="4.73629">
        <ele>173</ele>
        <time>2016-09-10T08:42:12Z</time>
      </trkpt>
      <trkpt lat="45.92616" lon="4.73635">
        <ele>173</ele>
        <time>2016-09-10T08:42:13Z</time>
      </trkpt>
      <trkpt lat="45.92621" lon="4.73641">
        <ele>173</ele>
        <time>2016-09-10T08:42:14Z</time>
      </trkpt>
      <trkpt lat="45.92625" lon="4.73647">
        <ele>173</ele>
        <time>2016-09-10T08:42:15Z</time>
      </trkpt>
      <trkpt lat="45.92628" lon="4.73654">
        <ele>173</ele>
        <time>2016-09-10T08:42:16Z</time>
      </trkpt>
      <trkpt lat="45.92631" lon="4.73661">
        <ele>173</ele>
        <time>2016-09-10T08:42:17Z</time>
      </trkpt>
      <trkpt lat="45.92634" lon="4.73667">
        <ele>173</ele>
        <time>2016-09-10T08:42:18Z</time>
      </trkpt>
      <trkpt lat="45.92637" lon="4.73674">
        <ele>173</ele>
        <time>2016-09-10T08:42:19Z</time>
      </trkpt>
      <trkpt lat="45.92641" lon="4.7368">
        <ele>173</ele>
        <time>2016-09-10T08:42:20Z</time>
      </trkpt>
      <trkpt lat="45.92645" lon="4.73687">
        <ele>173</ele>
        <time>2016-09-10T08:42:21Z</time>
      </trkpt>
      <trkpt lat="45.9265" lon="4.73693">
        <ele>173</ele>
        <time>2016-09-10T08:42:22Z</time>
      </trkpt>
      <trkpt lat="45.92655" lon="4.73698">
        <ele>173</ele>
        <time>2016-09-10T08:42:23Z</time>
      </trkpt>
      <trkpt lat="45.92661" lon="4.73703">
        <ele>173</ele>
        <time>2016-09-10T08:42:24Z</time>
      </trkpt>
      <trkpt lat="45.92667" lon="4.73706">
        <ele>174</ele>
        <time>2016-09-10T08:42:25Z</time>
      </trkpt>
      <trkpt lat="45.92673" lon="4.73708">
        <ele>174</ele>
        <time>2016-09-10T08:42:26Z</time>
      </trkpt>
      <trkpt lat="45.92679" lon="4.7371">
        <ele>173</ele>
        <time>2016-09-10T08:42:27Z</time>
      </trkpt>
      <trkpt lat="45.92684" lon="4.73712">
        <ele>173</ele>
        <time>2016-09-10T08:42:28Z</time>
      </trkpt>
      <trkpt lat="45.9269" lon="4.73714">
        <ele>173</ele>
        <time>2016-09-10T08:42:29Z</time>
      </trkpt>
      <trkpt lat="45.92695" lon="4.73715">
        <ele>173</ele>
        <time>2016-09-10T08:42:30Z</time>
      </trkpt>
      <trkpt lat="45.927" lon="4.73717">
        <ele>173</ele>
        <time>2016-09-10T08:42:31Z</time>
      </trkpt>
      <trkpt lat="45.92707" lon="4.73719">
        <ele>173</ele>
        <time>2016-09-10T08:42:32Z</time>
      </trkpt>
      <trkpt lat="45.92713" lon="4.73721">
        <ele>173</ele>
        <time>2016-09-10T08:42:33Z</time>
      </trkpt>
      <trkpt lat="45.92718" lon="4.73723">
        <ele>173</ele>
        <time>2016-09-10T08:42:34Z</time>
      </trkpt>
      <trkpt lat="45.92724" lon="4.73724">
        <ele>173</ele>
        <time>2016-09-10T08:42:35Z</time>
      </trkpt>
      <trkpt lat="45.92729" lon="4.73724">
        <ele>173</ele>
        <time>2016-09-10T08:42:36Z</time>
      </trkpt>
      <trkpt lat="45.92734" lon="4.73725">
        <ele>173</ele>
        <time>2016-09-10T08:42:37Z</time>
      </trkpt>
      <trkpt lat="45.9274" lon="4.73726">
        <ele>173</ele>
        <time>2016-09-10T08:42:38Z</time>
      </trkpt>
      <trkpt lat="45.92745" lon="4.73726">
        <ele>173</ele>
        <time>2016-09-10T08:42:39Z</time>
      </trkpt>
      <trkpt lat="45.92753" lon="4.73728">
        <ele>172</ele>
        <time>2016-09-10T08:42:41Z</time>
      </trkpt>
      <trkpt lat="45.92757" lon="4.73728">
        <ele>172</ele>
        <time>2016-09-10T08:42:42Z</time>
      </trkpt>
      <trkpt lat="45.92765" lon="4.73731">
        <ele>172</ele>
        <time>2016-09-10T08:42:44Z</time>
      </trkpt>
      <trkpt lat="45.92769" lon="4.73732">
        <ele>172</ele>
        <time>2016-09-10T08:42:45Z</time>
      </trkpt>
      <trkpt lat="45.92777" lon="4.73737">
        <ele>172</ele>
        <time>2016-09-10T08:42:46Z</time>
      </trkpt>
      <trkpt lat="45.9278" lon="4.73737">
        <ele>172</ele>
        <time>2016-09-10T08:42:47Z</time>
      </trkpt>
      <trkpt lat="45.92786" lon="4.73728">
        <ele>172</ele>
        <time>2016-09-10T08:42:49Z</time>
      </trkpt>
      <trkpt lat="45.92787" lon="4.73721">
        <ele>172</ele>
        <time>2016-09-10T08:42:50Z</time>
      </trkpt>
      <trkpt lat="45.92789" lon="4.73712">
        <ele>172</ele>
        <time>2016-09-10T08:42:51Z</time>
      </trkpt>
      <trkpt lat="45.9279" lon="4.73705">
        <ele>172</ele>
        <time>2016-09-10T08:42:52Z</time>
      </trkpt>
      <trkpt lat="45.92791" lon="4.73697">
        <ele>172</ele>
        <time>2016-09-10T08:42:53Z</time>
      </trkpt>
      <trkpt lat="45.92793" lon="4.7369">
        <ele>172</ele>
        <time>2016-09-10T08:42:54Z</time>
      </trkpt>
      <trkpt lat="45.92795" lon="4.73682">
        <ele>172</ele>
        <time>2016-09-10T08:42:55Z</time>
      </trkpt>
      <trkpt lat="45.92797" lon="4.73675">
        <ele>172</ele>
        <time>2016-09-10T08:42:56Z</time>
      </trkpt>
      <trkpt lat="45.92798" lon="4.73667">
        <ele>172</ele>
        <time>2016-09-10T08:42:57Z</time>
      </trkpt>
      <trkpt lat="45.928" lon="4.73659">
        <ele>172</ele>
        <time>2016-09-10T08:42:58Z</time>
      </trkpt>
      <trkpt lat="45.92803" lon="4.73651">
        <ele>172</ele>
        <time>2016-09-10T08:42:59Z</time>
      </trkpt>
      <trkpt lat="45.92806" lon="4.73645">
        <ele>172</ele>
        <time>2016-09-10T08:43:00Z</time>
      </trkpt>
      <trkpt lat="45.92809" lon="4.7364">
        <ele>172</ele>
        <time>2016-09-10T08:43:01Z</time>
      </trkpt>
      <trkpt lat="45.92813" lon="4.73636">
        <ele>172</ele>
        <time>2016-09-10T08:43:02Z</time>
      </trkpt>
      <trkpt lat="45.92819" lon="4.73628">
        <ele>172</ele>
        <time>2016-09-10T08:43:04Z</time>
      </trkpt>
      <trkpt lat="45.92821" lon="4.73622">
        <ele>172</ele>
        <time>2016-09-10T08:43:05Z</time>
      </trkpt>
      <trkpt lat="45.92822" lon="4.73615">
        <ele>172</ele>
        <time>2016-09-10T08:43:06Z</time>
      </trkpt>
      <trkpt lat="45.92822" lon="4.73607">
        <ele>171</ele>
        <time>2016-09-10T08:43:07Z</time>
      </trkpt>
      <trkpt lat="45.92822" lon="4.73599">
        <ele>171</ele>
        <time>2016-09-10T08:43:08Z</time>
      </trkpt>
      <trkpt lat="45.92822" lon="4.73591">
        <ele>171</ele>
        <time>2016-09-10T08:43:09Z</time>
      </trkpt>
      <trkpt lat="45.92822" lon="4.73583">
        <ele>171</ele>
        <time>2016-09-10T08:43:10Z</time>
      </trkpt>
      <trkpt lat="45.92823" lon="4.73574">
        <ele>171</ele>
        <time>2016-09-10T08:43:11Z</time>
      </trkpt>
      <trkpt lat="45.92823" lon="4.73565">
        <ele>171</ele>
        <time>2016-09-10T08:43:12Z</time>
      </trkpt>
      <trkpt lat="45.92823" lon="4.73555">
        <ele>171</ele>
        <time>2016-09-10T08:43:13Z</time>
      </trkpt>
      <trkpt lat="45.92824" lon="4.73546">
        <ele>171</ele>
        <time>2016-09-10T08:43:14Z</time>
      </trkpt>
      <trkpt lat="45.92825" lon="4.73537">
        <ele>172</ele>
        <time>2016-09-10T08:43:15Z</time>
      </trkpt>
      <trkpt lat="45.92826" lon="4.73528">
        <ele>172</ele>
        <time>2016-09-10T08:43:16Z</time>
      </trkpt>
      <trkpt lat="45.92827" lon="4.73519">
        <ele>172</ele>
        <time>2016-09-10T08:43:17Z</time>
      </trkpt>
      <trkpt lat="45.92828" lon="4.73509">
        <ele>172</ele>
        <time>2016-09-10T08:43:18Z</time>
      </trkpt>
      <trkpt lat="45.92829" lon="4.735">
        <ele>172</ele>
        <time>2016-09-10T08:43:19Z</time>
      </trkpt>
      <trkpt lat="45.92829" lon="4.73491">
        <ele>172</ele>
        <time>2016-09-10T08:43:20Z</time>
      </trkpt>
      <trkpt lat="45.9283" lon="4.73481">
        <ele>172</ele>
        <time>2016-09-10T08:43:21Z</time>
      </trkpt>
      <trkpt lat="45.92831" lon="4.73472">
        <ele>172</ele>
        <time>2016-09-10T08:43:22Z</time>
      </trkpt>
      <trkpt lat="45.92832" lon="4.73462">
        <ele>172</ele>
        <time>2016-09-10T08:43:23Z</time>
      </trkpt>
      <trkpt lat="45.92833" lon="4.73454">
        <ele>172</ele>
        <time>2016-09-10T08:43:24Z</time>
      </trkpt>
      <trkpt lat="45.92834" lon="4.73445">
        <ele>172</ele>
        <time>2016-09-10T08:43:25Z</time>
      </trkpt>
      <trkpt lat="45.92835" lon="4.73436">
        <ele>172</ele>
        <time>2016-09-10T08:43:26Z</time>
      </trkpt>
      <trkpt lat="45.92836" lon="4.73427">
        <ele>172</ele>
        <time>2016-09-10T08:43:27Z</time>
      </trkpt>
      <trkpt lat="45.92838" lon="4.73418">
        <ele>172</ele>
        <time>2016-09-10T08:43:28Z</time>
      </trkpt>
      <trkpt lat="45.92839" lon="4.73409">
        <ele>172</ele>
        <time>2016-09-10T08:43:29Z</time>
      </trkpt>
      <trkpt lat="45.9284" lon="4.73399">
        <ele>172</ele>
        <time>2016-09-10T08:43:30Z</time>
      </trkpt>
      <trkpt lat="45.92841" lon="4.7339">
        <ele>172</ele>
        <time>2016-09-10T08:43:31Z</time>
      </trkpt>
      <trkpt lat="45.92843" lon="4.73381">
        <ele>172</ele>
        <time>2016-09-10T08:43:32Z</time>
      </trkpt>
      <trkpt lat="45.92844" lon="4.73372">
        <ele>171</ele>
        <time>2016-09-10T08:43:33Z</time>
      </trkpt>
      <trkpt lat="45.92845" lon="4.73363">
        <ele>171</ele>
        <time>2016-09-10T08:43:34Z</time>
      </trkpt>
      <trkpt lat="45.92846" lon="4.73354">
        <ele>171</ele>
        <time>2016-09-10T08:43:35Z</time>
      </trkpt>
      <trkpt lat="45.92847" lon="4.73344">
        <ele>171</ele>
        <time>2016-09-10T08:43:36Z</time>
      </trkpt>
      <trkpt lat="45.92848" lon="4.73335">
        <ele>171</ele>
        <time>2016-09-10T08:43:37Z</time>
      </trkpt>
      <trkpt lat="45.92849" lon="4.73325">
        <ele>171</ele>
        <time>2016-09-10T08:43:38Z</time>
      </trkpt>
      <trkpt lat="45.92851" lon="4.73316">
        <ele>171</ele>
        <time>2016-09-10T08:43:39Z</time>
      </trkpt>
      <trkpt lat="45.92852" lon="4.73306">
        <ele>171</ele>
        <time>2016-09-10T08:43:40Z</time>
      </trkpt>
      <trkpt lat="45.92853" lon="4.73296">
        <ele>171</ele>
        <time>2016-09-10T08:43:41Z</time>
      </trkpt>
      <trkpt lat="45.92854" lon="4.73286">
        <ele>171</ele>
        <time>2016-09-10T08:43:42Z</time>
      </trkpt>
      <trkpt lat="45.92856" lon="4.73276">
        <ele>171</ele>
        <time>2016-09-10T08:43:43Z</time>
      </trkpt>
      <trkpt lat="45.92857" lon="4.73266">
        <ele>171</ele>
        <time>2016-09-10T08:43:44Z</time>
      </trkpt>
      <trkpt lat="45.92858" lon="4.73257">
        <ele>171</ele>
        <time>2016-09-10T08:43:45Z</time>
      </trkpt>
      <trkpt lat="45.92858" lon="4.73247">
        <ele>171</ele>
        <time>2016-09-10T08:43:46Z</time>
      </trkpt>
      <trkpt lat="45.9286" lon="4.73237">
        <ele>171</ele>
        <time>2016-09-10T08:43:47Z</time>
      </trkpt>
      <trkpt lat="45.92861" lon="4.73227">
        <ele>171</ele>
        <time>2016-09-10T08:43:48Z</time>
      </trkpt>
      <trkpt lat="45.92863" lon="4.73218">
        <ele>171</ele>
        <time>2016-09-10T08:43:49Z</time>
      </trkpt>
      <trkpt lat="45.92864" lon="4.73208">
        <ele>171</ele>
        <time>2016-09-10T08:43:50Z</time>
      </trkpt>
      <trkpt lat="45.92865" lon="4.73199">
        <ele>171</ele>
        <time>2016-09-10T08:43:51Z</time>
      </trkpt>
      <trkpt lat="45.92866" lon="4.73189">
        <ele>171</ele>
        <time>2016-09-10T08:43:52Z</time>
      </trkpt>
      <trkpt lat="45.92867" lon="4.7318">
        <ele>171</ele>
        <time>2016-09-10T08:43:53Z</time>
      </trkpt>
      <trkpt lat="45.92868" lon="4.7317">
        <ele>171</ele>
        <time>2016-09-10T08:43:54Z</time>
      </trkpt>
      <trkpt lat="45.9287" lon="4.7316">
        <ele>171</ele>
        <time>2016-09-10T08:43:55Z</time>
      </trkpt>
      <trkpt lat="45.92871" lon="4.73151">
        <ele>171</ele>
        <time>2016-09-10T08:43:56Z</time>
      </trkpt>
      <trkpt lat="45.92872" lon="4.73141">
        <ele>171</ele>
        <time>2016-09-10T08:43:57Z</time>
      </trkpt>
      <trkpt lat="45.92874" lon="4.73131">
        <ele>171</ele>
        <time>2016-09-10T08:43:58Z</time>
      </trkpt>
      <trkpt lat="45.92875" lon="4.73121">
        <ele>172</ele>
        <time>2016-09-10T08:43:59Z</time>
      </trkpt>
      <trkpt lat="45.92878" lon="4.73111">
        <ele>172</ele>
        <time>2016-09-10T08:44:00Z</time>
      </trkpt>
      <trkpt lat="45.9288" lon="4.73102">
        <ele>172</ele>
        <time>2016-09-10T08:44:01Z</time>
      </trkpt>
      <trkpt lat="45.92883" lon="4.73092">
        <ele>172</ele>
        <time>2016-09-10T08:44:02Z</time>
      </trkpt>
      <trkpt lat="45.92886" lon="4.73084">
        <ele>172</ele>
        <time>2016-09-10T08:44:03Z</time>
      </trkpt>
      <trkpt lat="45.92889" lon="4.73076">
        <ele>172</ele>
        <time>2016-09-10T08:44:04Z</time>
      </trkpt>
      <trkpt lat="45.92893" lon="4.73068">
        <ele>172</ele>
        <time>2016-09-10T08:44:05Z</time>
      </trkpt>
      <trkpt lat="45.92898" lon="4.73061">
        <ele>172</ele>
        <time>2016-09-10T08:44:06Z</time>
      </trkpt>
      <trkpt lat="45.92902" lon="4.73053">
        <ele>172</ele>
        <time>2016-09-10T08:44:07Z</time>
      </trkpt>
      <trkpt lat="45.92907" lon="4.73046">
        <ele>172</ele>
        <time>2016-09-10T08:44:08Z</time>
      </trkpt>
      <trkpt lat="45.92912" lon="4.73039">
        <ele>172</ele>
        <time>2016-09-10T08:44:09Z</time>
      </trkpt>
      <trkpt lat="45.92918" lon="4.73032">
        <ele>172</ele>
        <time>2016-09-10T08:44:10Z</time>
      </trkpt>
      <trkpt lat="45.92923" lon="4.73024">
        <ele>171</ele>
        <time>2016-09-10T08:44:11Z</time>
      </trkpt>
      <trkpt lat="45.92929" lon="4.73017">
        <ele>171</ele>
        <time>2016-09-10T08:44:12Z</time>
      </trkpt>
      <trkpt lat="45.92934" lon="4.7301">
        <ele>171</ele>
        <time>2016-09-10T08:44:13Z</time>
      </trkpt>
      <trkpt lat="45.92939" lon="4.73003">
        <ele>171</ele>
        <time>2016-09-10T08:44:14Z</time>
      </trkpt>
      <trkpt lat="45.92945" lon="4.72997">
        <ele>171</ele>
        <time>2016-09-10T08:44:15Z</time>
      </trkpt>
      <trkpt lat="45.9295" lon="4.7299">
        <ele>171</ele>
        <time>2016-09-10T08:44:16Z</time>
      </trkpt>
      <trkpt lat="45.92956" lon="4.72983">
        <ele>171</ele>
        <time>2016-09-10T08:44:17Z</time>
      </trkpt>
      <trkpt lat="45.92961" lon="4.72977">
        <ele>171</ele>
        <time>2016-09-10T08:44:18Z</time>
      </trkpt>
      <trkpt lat="45.92967" lon="4.72971">
        <ele>171</ele>
        <time>2016-09-10T08:44:19Z</time>
      </trkpt>
      <trkpt lat="45.92972" lon="4.72964">
        <ele>171</ele>
        <time>2016-09-10T08:44:20Z</time>
      </trkpt>
      <trkpt lat="45.92978" lon="4.72958">
        <ele>171</ele>
        <time>2016-09-10T08:44:21Z</time>
      </trkpt>
      <trkpt lat="45.92983" lon="4.72951">
        <ele>171</ele>
        <time>2016-09-10T08:44:22Z</time>
      </trkpt>
      <trkpt lat="45.92988" lon="4.72945">
        <ele>171</ele>
        <time>2016-09-10T08:44:23Z</time>
      </trkpt>
      <trkpt lat="45.92994" lon="4.72938">
        <ele>171</ele>
        <time>2016-09-10T08:44:24Z</time>
      </trkpt>
      <trkpt lat="45.92999" lon="4.72932">
        <ele>171</ele>
        <time>2016-09-10T08:44:25Z</time>
      </trkpt>
      <trkpt lat="45.93005" lon="4.72925">
        <ele>170</ele>
        <time>2016-09-10T08:44:26Z</time>
      </trkpt>
      <trkpt lat="45.93011" lon="4.72919">
        <ele>170</ele>
        <time>2016-09-10T08:44:27Z</time>
      </trkpt>
      <trkpt lat="45.93017" lon="4.72911">
        <ele>171</ele>
        <time>2016-09-10T08:44:28Z</time>
      </trkpt>
      <trkpt lat="45.93023" lon="4.72905">
        <ele>172</ele>
        <time>2016-09-10T08:44:29Z</time>
      </trkpt>
      <trkpt lat="45.93029" lon="4.72898">
        <ele>172</ele>
        <time>2016-09-10T08:44:30Z</time>
      </trkpt>
      <trkpt lat="45.93034" lon="4.72892">
        <ele>172</ele>
        <time>2016-09-10T08:44:31Z</time>
      </trkpt>
      <trkpt lat="45.9304" lon="4.72885">
        <ele>172</ele>
        <time>2016-09-10T08:44:32Z</time>
      </trkpt>
      <trkpt lat="45.93045" lon="4.72878">
        <ele>172</ele>
        <time>2016-09-10T08:44:33Z</time>
      </trkpt>
      <trkpt lat="45.93051" lon="4.72871">
        <ele>172</ele>
        <time>2016-09-10T08:44:34Z</time>
      </trkpt>
      <trkpt lat="45.93057" lon="4.72865">
        <ele>172</ele>
        <time>2016-09-10T08:44:35Z</time>
      </trkpt>
      <trkpt lat="45.93063" lon="4.72858">
        <ele>172</ele>
        <time>2016-09-10T08:44:36Z</time>
      </trkpt>
      <trkpt lat="45.93068" lon="4.72852">
        <ele>172</ele>
        <time>2016-09-10T08:44:37Z</time>
      </trkpt>
      <trkpt lat="45.93073" lon="4.72846">
        <ele>173</ele>
        <time>2016-09-10T08:44:38Z</time>
      </trkpt>
      <trkpt lat="45.93078" lon="4.7284">
        <ele>173</ele>
        <time>2016-09-10T08:44:39Z</time>
      </trkpt>
      <trkpt lat="45.93084" lon="4.72834">
        <ele>173</ele>
        <time>2016-09-10T08:44:40Z</time>
      </trkpt>
      <trkpt lat="45.93089" lon="4.72829">
        <ele>172</ele>
        <time>2016-09-10T08:44:41Z</time>
      </trkpt>
      <trkpt lat="45.93094" lon="4.72823">
        <ele>172</ele>
        <time>2016-09-10T08:44:42Z</time>
      </trkpt>
      <trkpt lat="45.931" lon="4.72818">
        <ele>172</ele>
        <time>2016-09-10T08:44:43Z</time>
      </trkpt>
      <trkpt lat="45.93106" lon="4.72813">
        <ele>172</ele>
        <time>2016-09-10T08:44:44Z</time>
      </trkpt>
      <trkpt lat="45.93112" lon="4.72806">
        <ele>171</ele>
        <time>2016-09-10T08:44:45Z</time>
      </trkpt>
      <trkpt lat="45.93119" lon="4.72798">
        <ele>171</ele>
        <time>2016-09-10T08:44:46Z</time>
      </trkpt>
      <trkpt lat="45.93125" lon="4.72792">
        <ele>171</ele>
        <time>2016-09-10T08:44:47Z</time>
      </trkpt>
      <trkpt lat="45.93131" lon="4.72786">
        <ele>171</ele>
        <time>2016-09-10T08:44:48Z</time>
      </trkpt>
      <trkpt lat="45.93136" lon="4.7278">
        <ele>171</ele>
        <time>2016-09-10T08:44:49Z</time>
      </trkpt>
      <trkpt lat="45.93141" lon="4.72773">
        <ele>171</ele>
        <time>2016-09-10T08:44:50Z</time>
      </trkpt>
      <trkpt lat="45.93146" lon="4.72767">
        <ele>171</ele>
        <time>2016-09-10T08:44:51Z</time>
      </trkpt>
      <trkpt lat="45.93151" lon="4.72761">
        <ele>170</ele>
        <time>2016-09-10T08:44:52Z</time>
      </trkpt>
      <trkpt lat="45.93156" lon="4.72755">
        <ele>170</ele>
        <time>2016-09-10T08:44:53Z</time>
      </trkpt>
      <trkpt lat="45.93161" lon="4.72748">
        <ele>170</ele>
        <time>2016-09-10T08:44:54Z</time>
      </trkpt>
      <trkpt lat="45.93166" lon="4.72742">
        <ele>170</ele>
        <time>2016-09-10T08:44:55Z</time>
      </trkpt>
      <trkpt lat="45.93171" lon="4.72735">
        <ele>170</ele>
        <time>2016-09-10T08:44:56Z</time>
      </trkpt>
      <trkpt lat="45.93176" lon="4.72729">
        <ele>170</ele>
        <time>2016-09-10T08:44:57Z</time>
      </trkpt>
      <trkpt lat="45.93181" lon="4.72723">
        <ele>169</ele>
        <time>2016-09-10T08:44:58Z</time>
      </trkpt>
      <trkpt lat="45.93186" lon="4.72716">
        <ele>169</ele>
        <time>2016-09-10T08:44:59Z</time>
      </trkpt>
      <trkpt lat="45.93191" lon="4.72709">
        <ele>169</ele>
        <time>2016-09-10T08:45:00Z</time>
      </trkpt>
      <trkpt lat="45.93196" lon="4.72703">
        <ele>169</ele>
        <time>2016-09-10T08:45:01Z</time>
      </trkpt>
      <trkpt lat="45.93201" lon="4.72697">
        <ele>169</ele>
        <time>2016-09-10T08:45:02Z</time>
      </trkpt>
      <trkpt lat="45.93206" lon="4.7269">
        <ele>169</ele>
        <time>2016-09-10T08:45:03Z</time>
      </trkpt>
      <trkpt lat="45.93211" lon="4.72684">
        <ele>169</ele>
        <time>2016-09-10T08:45:04Z</time>
      </trkpt>
      <trkpt lat="45.93216" lon="4.72677">
        <ele>169</ele>
        <time>2016-09-10T08:45:05Z</time>
      </trkpt>
      <trkpt lat="45.93221" lon="4.72672">
        <ele>169</ele>
        <time>2016-09-10T08:45:06Z</time>
      </trkpt>
      <trkpt lat="45.93226" lon="4.72666">
        <ele>170</ele>
        <time>2016-09-10T08:45:07Z</time>
      </trkpt>
      <trkpt lat="45.93231" lon="4.72659">
        <ele>169</ele>
        <time>2016-09-10T08:45:08Z</time>
      </trkpt>
      <trkpt lat="45.93237" lon="4.72653">
        <ele>169</ele>
        <time>2016-09-10T08:45:09Z</time>
      </trkpt>
      <trkpt lat="45.93242" lon="4.72647">
        <ele>170</ele>
        <time>2016-09-10T08:45:10Z</time>
      </trkpt>
      <trkpt lat="45.93247" lon="4.72641">
        <ele>170</ele>
        <time>2016-09-10T08:45:11Z</time>
      </trkpt>
      <trkpt lat="45.93253" lon="4.72635">
        <ele>170</ele>
        <time>2016-09-10T08:45:12Z</time>
      </trkpt>
      <trkpt lat="45.93257" lon="4.7263">
        <ele>170</ele>
        <time>2016-09-10T08:45:13Z</time>
      </trkpt>
      <trkpt lat="45.93262" lon="4.72625">
        <ele>170</ele>
        <time>2016-09-10T08:45:14Z</time>
      </trkpt>
      <trkpt lat="45.93267" lon="4.72619">
        <ele>170</ele>
        <time>2016-09-10T08:45:15Z</time>
      </trkpt>
      <trkpt lat="45.93272" lon="4.72613">
        <ele>170</ele>
        <time>2016-09-10T08:45:16Z</time>
      </trkpt>
      <trkpt lat="45.93276" lon="4.72606">
        <ele>170</ele>
        <time>2016-09-10T08:45:17Z</time>
      </trkpt>
      <trkpt lat="45.93281" lon="4.726">
        <ele>170</ele>
        <time>2016-09-10T08:45:18Z</time>
      </trkpt>
      <trkpt lat="45.93286" lon="4.72593">
        <ele>170</ele>
        <time>2016-09-10T08:45:19Z</time>
      </trkpt>
      <trkpt lat="45.93292" lon="4.72587">
        <ele>170</ele>
        <time>2016-09-10T08:45:20Z</time>
      </trkpt>
      <trkpt lat="45.93297" lon="4.7258">
        <ele>171</ele>
        <time>2016-09-10T08:45:21Z</time>
      </trkpt>
      <trkpt lat="45.93302" lon="4.72575">
        <ele>171</ele>
        <time>2016-09-10T08:45:22Z</time>
      </trkpt>
      <trkpt lat="45.93308" lon="4.7257">
        <ele>171</ele>
        <time>2016-09-10T08:45:23Z</time>
      </trkpt>
      <trkpt lat="45.93313" lon="4.72565">
        <ele>171</ele>
        <time>2016-09-10T08:45:24Z</time>
      </trkpt>
      <trkpt lat="45.93319" lon="4.72559">
        <ele>171</ele>
        <time>2016-09-10T08:45:25Z</time>
      </trkpt>
      <trkpt lat="45.93324" lon="4.72554">
        <ele>172</ele>
        <time>2016-09-10T08:45:26Z</time>
      </trkpt>
      <trkpt lat="45.93329" lon="4.72548">
        <ele>172</ele>
        <time>2016-09-10T08:45:27Z</time>
      </trkpt>
      <trkpt lat="45.93334" lon="4.72542">
        <ele>171</ele>
        <time>2016-09-10T08:45:28Z</time>
      </trkpt>
      <trkpt lat="45.93339" lon="4.72536">
        <ele>171</ele>
        <time>2016-09-10T08:45:29Z</time>
      </trkpt>
      <trkpt lat="45.93344" lon="4.7253">
        <ele>172</ele>
        <time>2016-09-10T08:45:30Z</time>
      </trkpt>
      <trkpt lat="45.93349" lon="4.72524">
        <ele>172</ele>
        <time>2016-09-10T08:45:31Z</time>
      </trkpt>
      <trkpt lat="45.93354" lon="4.72518">
        <ele>172</ele>
        <time>2016-09-10T08:45:32Z</time>
      </trkpt>
      <trkpt lat="45.93359" lon="4.72512">
        <ele>172</ele>
        <time>2016-09-10T08:45:33Z</time>
      </trkpt>
      <trkpt lat="45.93364" lon="4.72507">
        <ele>172</ele>
        <time>2016-09-10T08:45:34Z</time>
      </trkpt>
      <trkpt lat="45.93369" lon="4.72501">
        <ele>172</ele>
        <time>2016-09-10T08:45:35Z</time>
      </trkpt>
      <trkpt lat="45.93374" lon="4.72496">
        <ele>173</ele>
        <time>2016-09-10T08:45:36Z</time>
      </trkpt>
      <trkpt lat="45.93379" lon="4.7249">
        <ele>173</ele>
        <time>2016-09-10T08:45:37Z</time>
      </trkpt>
      <trkpt lat="45.93383" lon="4.72485">
        <ele>173</ele>
        <time>2016-09-10T08:45:38Z</time>
      </trkpt>
      <trkpt lat="45.93388" lon="4.72479">
        <ele>173</ele>
        <time>2016-09-10T08:45:39Z</time>
      </trkpt>
      <trkpt lat="45.93392" lon="4.72473">
        <ele>173</ele>
        <time>2016-09-10T08:45:40Z</time>
      </trkpt>
      <trkpt lat="45.93396" lon="4.72467">
        <ele>173</ele>
        <time>2016-09-10T08:45:41Z</time>
      </trkpt>
      <trkpt lat="45.93399" lon="4.72461">
        <ele>173</ele>
        <time>2016-09-10T08:45:42Z</time>
      </trkpt>
      <trkpt lat="45.934" lon="4.72454">
        <ele>173</ele>
        <time>2016-09-10T08:45:43Z</time>
      </trkpt>
      <trkpt lat="45.93402" lon="4.72447">
        <ele>173</ele>
        <time>2016-09-10T08:45:44Z</time>
      </trkpt>
      <trkpt lat="45.93404" lon="4.72439">
        <ele>173</ele>
        <time>2016-09-10T08:45:45Z</time>
      </trkpt>
      <trkpt lat="45.93407" lon="4.72433">
        <ele>173</ele>
        <time>2016-09-10T08:45:46Z</time>
      </trkpt>
      <trkpt lat="45.93411" lon="4.72427">
        <ele>174</ele>
        <time>2016-09-10T08:45:47Z</time>
      </trkpt>
      <trkpt lat="45.93415" lon="4.72422">
        <ele>174</ele>
        <time>2016-09-10T08:45:48Z</time>
      </trkpt>
      <trkpt lat="45.9342" lon="4.72418">
        <ele>174</ele>
        <time>2016-09-10T08:45:49Z</time>
      </trkpt>
      <trkpt lat="45.93425" lon="4.72415">
        <ele>174</ele>
        <time>2016-09-10T08:45:50Z</time>
      </trkpt>
      <trkpt lat="45.93431" lon="4.72412">
        <ele>174</ele>
        <time>2016-09-10T08:45:51Z</time>
      </trkpt>
      <trkpt lat="45.93436" lon="4.72409">
        <ele>174</ele>
        <time>2016-09-10T08:45:52Z</time>
      </trkpt>
      <trkpt lat="45.93442" lon="4.72405">
        <ele>173</ele>
        <time>2016-09-10T08:45:53Z</time>
      </trkpt>
      <trkpt lat="45.93447" lon="4.72402">
        <ele>173</ele>
        <time>2016-09-10T08:45:54Z</time>
      </trkpt>
      <trkpt lat="45.93453" lon="4.72398">
        <ele>173</ele>
        <time>2016-09-10T08:45:55Z</time>
      </trkpt>
      <trkpt lat="45.93458" lon="4.72393">
        <ele>173</ele>
        <time>2016-09-10T08:45:56Z</time>
      </trkpt>
      <trkpt lat="45.93463" lon="4.72388">
        <ele>173</ele>
        <time>2016-09-10T08:45:57Z</time>
      </trkpt>
      <trkpt lat="45.93467" lon="4.72383">
        <ele>173</ele>
        <time>2016-09-10T08:45:58Z</time>
      </trkpt>
      <trkpt lat="45.93472" lon="4.72377">
        <ele>173</ele>
        <time>2016-09-10T08:45:59Z</time>
      </trkpt>
      <trkpt lat="45.93476" lon="4.72371">
        <ele>173</ele>
        <time>2016-09-10T08:46:00Z</time>
      </trkpt>
      <trkpt lat="45.9348" lon="4.72365">
        <ele>173</ele>
        <time>2016-09-10T08:46:01Z</time>
      </trkpt>
      <trkpt lat="45.93484" lon="4.72359">
        <ele>173</ele>
        <time>2016-09-10T08:46:02Z</time>
      </trkpt>
      <trkpt lat="45.93488" lon="4.72352">
        <ele>173</ele>
        <time>2016-09-10T08:46:03Z</time>
      </trkpt>
      <trkpt lat="45.93492" lon="4.72346">
        <ele>173</ele>
        <time>2016-09-10T08:46:04Z</time>
      </trkpt>
      <trkpt lat="45.93496" lon="4.7234">
        <ele>173</ele>
        <time>2016-09-10T08:46:05Z</time>
      </trkpt>
      <trkpt lat="45.93501" lon="4.72335">
        <ele>173</ele>
        <time>2016-09-10T08:46:06Z</time>
      </trkpt>
      <trkpt lat="45.93506" lon="4.72329">
        <ele>173</ele>
        <time>2016-09-10T08:46:07Z</time>
      </trkpt>
      <trkpt lat="45.9351" lon="4.72323">
        <ele>173</ele>
        <time>2016-09-10T08:46:08Z</time>
      </trkpt>
      <trkpt lat="45.93514" lon="4.72317">
        <ele>173</ele>
        <time>2016-09-10T08:46:09Z</time>
      </trkpt>
      <trkpt lat="45.93517" lon="4.72311">
        <ele>173</ele>
        <time>2016-09-10T08:46:10Z</time>
      </trkpt>
      <trkpt lat="45.93521" lon="4.72305">
        <ele>173</ele>
        <time>2016-09-10T08:46:11Z</time>
      </trkpt>
      <trkpt lat="45.93525" lon="4.72298">
        <ele>172</ele>
        <time>2016-09-10T08:46:12Z</time>
      </trkpt>
      <trkpt lat="45.93528" lon="4.72291">
        <ele>172</ele>
        <time>2016-09-10T08:46:13Z</time>
      </trkpt>
      <trkpt lat="45.93531" lon="4.72284">
        <ele>172</ele>
        <time>2016-09-10T08:46:14Z</time>
      </trkpt>
      <trkpt lat="45.93533" lon="4.72277">
        <ele>172</ele>
        <time>2016-09-10T08:46:15Z</time>
      </trkpt>
      <trkpt lat="45.93536" lon="4.7227">
        <ele>172</ele>
        <time>2016-09-10T08:46:16Z</time>
      </trkpt>
      <trkpt lat="45.93538" lon="4.72264">
        <ele>172</ele>
        <time>2016-09-10T08:46:17Z</time>
      </trkpt>
      <trkpt lat="45.93541" lon="4.72258">
        <ele>172</ele>
        <time>2016-09-10T08:46:18Z</time>
      </trkpt>
      <trkpt lat="45.93543" lon="4.72252">
        <ele>172</ele>
        <time>2016-09-10T08:46:19Z</time>
      </trkpt>
      <trkpt lat="45.93545" lon="4.72246">
        <ele>172</ele>
        <time>2016-09-10T08:46:20Z</time>
      </trkpt>
      <trkpt lat="45.93548" lon="4.7224">
        <ele>172</ele>
        <time>2016-09-10T08:46:21Z</time>
      </trkpt>
      <trkpt lat="45.9355" lon="4.72234">
        <ele>172</ele>
        <time>2016-09-10T08:46:22Z</time>
      </trkpt>
      <trkpt lat="45.93554" lon="4.72228">
        <ele>173</ele>
        <time>2016-09-10T08:46:23Z</time>
      </trkpt>
      <trkpt lat="45.93558" lon="4.72226">
        <ele>173</ele>
        <time>2016-09-10T08:46:24Z</time>
      </trkpt>
      <trkpt lat="45.93564" lon="4.72228">
        <ele>173</ele>
        <time>2016-09-10T08:46:25Z</time>
      </trkpt>
      <trkpt lat="45.93568" lon="4.72231">
        <ele>173</ele>
        <time>2016-09-10T08:46:26Z</time>
      </trkpt>
      <trkpt lat="45.93573" lon="4.72236">
        <ele>173</ele>
        <time>2016-09-10T08:46:27Z</time>
      </trkpt>
      <trkpt lat="45.93576" lon="4.72241">
        <ele>173</ele>
        <time>2016-09-10T08:46:28Z</time>
      </trkpt>
      <trkpt lat="45.9358" lon="4.72245">
        <ele>173</ele>
        <time>2016-09-10T08:46:29Z</time>
      </trkpt>
      <trkpt lat="45.93584" lon="4.72249">
        <ele>173</ele>
        <time>2016-09-10T08:46:30Z</time>
      </trkpt>
      <trkpt lat="45.93588" lon="4.72253">
        <ele>173</ele>
        <time>2016-09-10T08:46:31Z</time>
      </trkpt>
      <trkpt lat="45.93593" lon="4.72257">
        <ele>173</ele>
        <time>2016-09-10T08:46:32Z</time>
      </trkpt>
      <trkpt lat="45.93597" lon="4.72262">
        <ele>173</ele>
        <time>2016-09-10T08:46:33Z</time>
      </trkpt>
      <trkpt lat="45.93602" lon="4.72267">
        <ele>173</ele>
        <time>2016-09-10T08:46:34Z</time>
      </trkpt>
      <trkpt lat="45.93606" lon="4.72272">
        <ele>172</ele>
        <time>2016-09-10T08:46:35Z</time>
      </trkpt>
      <trkpt lat="45.9361" lon="4.72277">
        <ele>172</ele>
        <time>2016-09-10T08:46:36Z</time>
      </trkpt>
      <trkpt lat="45.93615" lon="4.72282">
        <ele>172</ele>
        <time>2016-09-10T08:46:37Z</time>
      </trkpt>
      <trkpt lat="45.93619" lon="4.72286">
        <ele>172</ele>
        <time>2016-09-10T08:46:38Z</time>
      </trkpt>
      <trkpt lat="45.93624" lon="4.7229">
        <ele>172</ele>
        <time>2016-09-10T08:46:39Z</time>
      </trkpt>
      <trkpt lat="45.93629" lon="4.72294">
        <ele>172</ele>
        <time>2016-09-10T08:46:40Z</time>
      </trkpt>
      <trkpt lat="45.93633" lon="4.72297">
        <ele>172</ele>
        <time>2016-09-10T08:46:41Z</time>
      </trkpt>
      <trkpt lat="45.93637" lon="4.72302">
        <ele>172</ele>
        <time>2016-09-10T08:46:42Z</time>
      </trkpt>
      <trkpt lat="45.93642" lon="4.72306">
        <ele>172</ele>
        <time>2016-09-10T08:46:43Z</time>
      </trkpt>
      <trkpt lat="45.93647" lon="4.7231">
        <ele>172</ele>
        <time>2016-09-10T08:46:44Z</time>
      </trkpt>
      <trkpt lat="45.93652" lon="4.72314">
        <ele>172</ele>
        <time>2016-09-10T08:46:45Z</time>
      </trkpt>
      <trkpt lat="45.93657" lon="4.72318">
        <ele>172</ele>
        <time>2016-09-10T08:46:46Z</time>
      </trkpt>
      <trkpt lat="45.93661" lon="4.72323">
        <ele>171</ele>
        <time>2016-09-10T08:46:47Z</time>
      </trkpt>
      <trkpt lat="45.93666" lon="4.72328">
        <ele>171</ele>
        <time>2016-09-10T08:46:48Z</time>
      </trkpt>
      <trkpt lat="45.93672" lon="4.72334">
        <ele>171</ele>
        <time>2016-09-10T08:46:49Z</time>
      </trkpt>
      <trkpt lat="45.93679" lon="4.7234">
        <ele>171</ele>
        <time>2016-09-10T08:46:50Z</time>
      </trkpt>
      <trkpt lat="45.93683" lon="4.72344">
        <ele>171</ele>
        <time>2016-09-10T08:46:51Z</time>
      </trkpt>
      <trkpt lat="45.93688" lon="4.72348">
        <ele>171</ele>
        <time>2016-09-10T08:46:52Z</time>
      </trkpt>
      <trkpt lat="45.93693" lon="4.72352">
        <ele>171</ele>
        <time>2016-09-10T08:46:53Z</time>
      </trkpt>
      <trkpt lat="45.93699" lon="4.72357">
        <ele>171</ele>
        <time>2016-09-10T08:46:54Z</time>
      </trkpt>
      <trkpt lat="45.93705" lon="4.72364">
        <ele>171</ele>
        <time>2016-09-10T08:46:55Z</time>
      </trkpt>
      <trkpt lat="45.93712" lon="4.72371">
        <ele>172</ele>
        <time>2016-09-10T08:46:56Z</time>
      </trkpt>
      <trkpt lat="45.93716" lon="4.72377">
        <ele>171</ele>
        <time>2016-09-10T08:46:57Z</time>
      </trkpt>
      <trkpt lat="45.93721" lon="4.72381">
        <ele>171</ele>
        <time>2016-09-10T08:46:58Z</time>
      </trkpt>
      <trkpt lat="45.93726" lon="4.72386">
        <ele>171</ele>
        <time>2016-09-10T08:46:59Z</time>
      </trkpt>
      <trkpt lat="45.9373" lon="4.72391">
        <ele>171</ele>
        <time>2016-09-10T08:47:00Z</time>
      </trkpt>
      <trkpt lat="45.93735" lon="4.72396">
        <ele>171</ele>
        <time>2016-09-10T08:47:01Z</time>
      </trkpt>
      <trkpt lat="45.9374" lon="4.72401">
        <ele>171</ele>
        <time>2016-09-10T08:47:02Z</time>
      </trkpt>
      <trkpt lat="45.93745" lon="4.72405">
        <ele>171</ele>
        <time>2016-09-10T08:47:03Z</time>
      </trkpt>
      <trkpt lat="45.9375" lon="4.72411">
        <ele>171</ele>
        <time>2016-09-10T08:47:04Z</time>
      </trkpt>
      <trkpt lat="45.93755" lon="4.72415">
        <ele>171</ele>
        <time>2016-09-10T08:47:05Z</time>
      </trkpt>
      <trkpt lat="45.93761" lon="4.7242">
        <ele>171</ele>
        <time>2016-09-10T08:47:06Z</time>
      </trkpt>
      <trkpt lat="45.93766" lon="4.72425">
        <ele>171</ele>
        <time>2016-09-10T08:47:07Z</time>
      </trkpt>
      <trkpt lat="45.93771" lon="4.7243">
        <ele>171</ele>
        <time>2016-09-10T08:47:08Z</time>
      </trkpt>
      <trkpt lat="45.93776" lon="4.72435">
        <ele>171</ele>
        <time>2016-09-10T08:47:09Z</time>
      </trkpt>
      <trkpt lat="45.93781" lon="4.7244">
        <ele>172</ele>
        <time>2016-09-10T08:47:10Z</time>
      </trkpt>
      <trkpt lat="45.93786" lon="4.72445">
        <ele>172</ele>
        <time>2016-09-10T08:47:11Z</time>
      </trkpt>
      <trkpt lat="45.93791" lon="4.72448">
        <ele>172</ele>
        <time>2016-09-10T08:47:12Z</time>
      </trkpt>
      <trkpt lat="45.93796" lon="4.72452">
        <ele>172</ele>
        <time>2016-09-10T08:47:13Z</time>
      </trkpt>
      <trkpt lat="45.93801" lon="4.72457">
        <ele>172</ele>
        <time>2016-09-10T08:47:14Z</time>
      </trkpt>
      <trkpt lat="45.93805" lon="4.72462">
        <ele>172</ele>
        <time>2016-09-10T08:47:15Z</time>
      </trkpt>
      <trkpt lat="45.93812" lon="4.72467">
        <ele>172</ele>
        <time>2016-09-10T08:47:16Z</time>
      </trkpt>
      <trkpt lat="45.93818" lon="4.72473">
        <ele>172</ele>
        <time>2016-09-10T08:47:17Z</time>
      </trkpt>
      <trkpt lat="45.93822" lon="4.72477">
        <ele>173</ele>
        <time>2016-09-10T08:47:18Z</time>
      </trkpt>
      <trkpt lat="45.93827" lon="4.7248">
        <ele>173</ele>
        <time>2016-09-10T08:47:19Z</time>
      </trkpt>
      <trkpt lat="45.93832" lon="4.72483">
        <ele>173</ele>
        <time>2016-09-10T08:47:20Z</time>
      </trkpt>
      <trkpt lat="45.93836" lon="4.72487">
        <ele>173</ele>
        <time>2016-09-10T08:47:21Z</time>
      </trkpt>
      <trkpt lat="45.93841" lon="4.72491">
        <ele>173</ele>
        <time>2016-09-10T08:47:22Z</time>
      </trkpt>
      <trkpt lat="45.93845" lon="4.72495">
        <ele>173</ele>
        <time>2016-09-10T08:47:23Z</time>
      </trkpt>
      <trkpt lat="45.9385" lon="4.725">
        <ele>173</ele>
        <time>2016-09-10T08:47:24Z</time>
      </trkpt>
      <trkpt lat="45.93857" lon="4.72505">
        <ele>173</ele>
        <time>2016-09-10T08:47:25Z</time>
      </trkpt>
      <trkpt lat="45.93863" lon="4.72515">
        <ele>173</ele>
        <time>2016-09-10T08:47:26Z</time>
      </trkpt>
      <trkpt lat="45.93865" lon="4.72522">
        <ele>173</ele>
        <time>2016-09-10T08:47:27Z</time>
      </trkpt>
      <trkpt lat="45.93871" lon="4.72524">
        <ele>173</ele>
        <time>2016-09-10T08:47:28Z</time>
      </trkpt>
      <trkpt lat="45.93878" lon="4.72524">
        <ele>173</ele>
        <time>2016-09-10T08:47:29Z</time>
      </trkpt>
      <trkpt lat="45.93882" lon="4.72521">
        <ele>173</ele>
        <time>2016-09-10T08:47:30Z</time>
      </trkpt>
      <trkpt lat="45.93887" lon="4.72516">
        <ele>173</ele>
        <time>2016-09-10T08:47:31Z</time>
      </trkpt>
      <trkpt lat="45.93891" lon="4.7251">
        <ele>173</ele>
        <time>2016-09-10T08:47:32Z</time>
      </trkpt>
      <trkpt lat="45.93895" lon="4.72504">
        <ele>172</ele>
        <time>2016-09-10T08:47:33Z</time>
      </trkpt>
      <trkpt lat="45.93899" lon="4.72498">
        <ele>172</ele>
        <time>2016-09-10T08:47:34Z</time>
      </trkpt>
      <trkpt lat="45.93903" lon="4.72492">
        <ele>172</ele>
        <time>2016-09-10T08:47:35Z</time>
      </trkpt>
      <trkpt lat="45.93907" lon="4.72487">
        <ele>172</ele>
        <time>2016-09-10T08:47:36Z</time>
      </trkpt>
      <trkpt lat="45.93912" lon="4.72482">
        <ele>172</ele>
        <time>2016-09-10T08:47:37Z</time>
      </trkpt>
      <trkpt lat="45.93916" lon="4.72476">
        <ele>172</ele>
        <time>2016-09-10T08:47:38Z</time>
      </trkpt>
      <trkpt lat="45.93921" lon="4.7247">
        <ele>171</ele>
        <time>2016-09-10T08:47:39Z</time>
      </trkpt>
      <trkpt lat="45.93925" lon="4.72464">
        <ele>171</ele>
        <time>2016-09-10T08:47:40Z</time>
      </trkpt>
      <trkpt lat="45.9393" lon="4.72457">
        <ele>171</ele>
        <time>2016-09-10T08:47:41Z</time>
      </trkpt>
      <trkpt lat="45.93935" lon="4.72451">
        <ele>171</ele>
        <time>2016-09-10T08:47:42Z</time>
      </trkpt>
      <trkpt lat="45.93939" lon="4.72446">
        <ele>171</ele>
        <time>2016-09-10T08:47:43Z</time>
      </trkpt>
      <trkpt lat="45.93945" lon="4.7244">
        <ele>171</ele>
        <time>2016-09-10T08:47:44Z</time>
      </trkpt>
      <trkpt lat="45.9395" lon="4.72434">
        <ele>171</ele>
        <time>2016-09-10T08:47:45Z</time>
      </trkpt>
      <trkpt lat="45.93954" lon="4.72427">
        <ele>171</ele>
        <time>2016-09-10T08:47:46Z</time>
      </trkpt>
      <trkpt lat="45.93959" lon="4.72421">
        <ele>171</ele>
        <time>2016-09-10T08:47:47Z</time>
      </trkpt>
      <trkpt lat="45.93964" lon="4.72415">
        <ele>171</ele>
        <time>2016-09-10T08:47:48Z</time>
      </trkpt>
      <trkpt lat="45.9397" lon="4.72409">
        <ele>171</ele>
        <time>2016-09-10T08:47:49Z</time>
      </trkpt>
      <trkpt lat="45.93975" lon="4.72402">
        <ele>171</ele>
        <time>2016-09-10T08:47:50Z</time>
      </trkpt>
      <trkpt lat="45.9398" lon="4.72396">
        <ele>171</ele>
        <time>2016-09-10T08:47:51Z</time>
      </trkpt>
      <trkpt lat="45.93985" lon="4.72389">
        <ele>171</ele>
        <time>2016-09-10T08:47:52Z</time>
      </trkpt>
      <trkpt lat="45.93991" lon="4.72383">
        <ele>171</ele>
        <time>2016-09-10T08:47:53Z</time>
      </trkpt>
      <trkpt lat="45.93997" lon="4.72376">
        <ele>171</ele>
        <time>2016-09-10T08:47:54Z</time>
      </trkpt>
      <trkpt lat="45.94002" lon="4.7237">
        <ele>171</ele>
        <time>2016-09-10T08:47:55Z</time>
      </trkpt>
      <trkpt lat="45.94007" lon="4.72364">
        <ele>171</ele>
        <time>2016-09-10T08:47:56Z</time>
      </trkpt>
      <trkpt lat="45.94011" lon="4.72358">
        <ele>171</ele>
        <time>2016-09-10T08:47:57Z</time>
      </trkpt>
      <trkpt lat="45.94015" lon="4.72352">
        <ele>171</ele>
        <time>2016-09-10T08:47:58Z</time>
      </trkpt>
      <trkpt lat="45.94019" lon="4.72347">
        <ele>171</ele>
        <time>2016-09-10T08:47:59Z</time>
      </trkpt>
      <trkpt lat="45.94023" lon="4.72342">
        <ele>171</ele>
        <time>2016-09-10T08:48:00Z</time>
      </trkpt>
      <trkpt lat="45.94027" lon="4.72337">
        <ele>171</ele>
        <time>2016-09-10T08:48:01Z</time>
      </trkpt>
      <trkpt lat="45.94032" lon="4.72332">
        <ele>171</ele>
        <time>2016-09-10T08:48:02Z</time>
      </trkpt>
      <trkpt lat="45.94036" lon="4.72327">
        <ele>171</ele>
        <time>2016-09-10T08:48:03Z</time>
      </trkpt>
      <trkpt lat="45.94042" lon="4.72321">
        <ele>171</ele>
        <time>2016-09-10T08:48:04Z</time>
      </trkpt>
      <trkpt lat="45.94047" lon="4.72315">
        <ele>171</ele>
        <time>2016-09-10T08:48:05Z</time>
      </trkpt>
      <trkpt lat="45.94051" lon="4.72309">
        <ele>171</ele>
        <time>2016-09-10T08:48:06Z</time>
      </trkpt>
      <trkpt lat="45.94055" lon="4.72303">
        <ele>171</ele>
        <time>2016-09-10T08:48:07Z</time>
      </trkpt>
      <trkpt lat="45.9406" lon="4.72297">
        <ele>171</ele>
        <time>2016-09-10T08:48:08Z</time>
      </trkpt>
      <trkpt lat="45.94065" lon="4.72292">
        <ele>171</ele>
        <time>2016-09-10T08:48:09Z</time>
      </trkpt>
      <trkpt lat="45.9407" lon="4.72287">
        <ele>171</ele>
        <time>2016-09-10T08:48:10Z</time>
      </trkpt>
      <trkpt lat="45.94074" lon="4.72283">
        <ele>171</ele>
        <time>2016-09-10T08:48:11Z</time>
      </trkpt>
      <trkpt lat="45.94078" lon="4.72278">
        <ele>171</ele>
        <time>2016-09-10T08:48:12Z</time>
      </trkpt>
      <trkpt lat="45.94083" lon="4.72275">
        <ele>171</ele>
        <time>2016-09-10T08:48:13Z</time>
      </trkpt>
      <trkpt lat="45.94087" lon="4.72272">
        <ele>171</ele>
        <time>2016-09-10T08:48:14Z</time>
      </trkpt>
      <trkpt lat="45.94093" lon="4.7227">
        <ele>171</ele>
        <time>2016-09-10T08:48:15Z</time>
      </trkpt>
      <trkpt lat="45.94098" lon="4.72269">
        <ele>171</ele>
        <time>2016-09-10T08:48:16Z</time>
      </trkpt>
      <trkpt lat="45.94103" lon="4.72269">
        <ele>171</ele>
        <time>2016-09-10T08:48:17Z</time>
      </trkpt>
      <trkpt lat="45.94108" lon="4.7227">
        <ele>171</ele>
        <time>2016-09-10T08:48:18Z</time>
      </trkpt>
      <trkpt lat="45.94113" lon="4.72273">
        <ele>171</ele>
        <time>2016-09-10T08:48:19Z</time>
      </trkpt>
      <trkpt lat="45.94118" lon="4.72276">
        <ele>171</ele>
        <time>2016-09-10T08:48:20Z</time>
      </trkpt>
      <trkpt lat="45.94124" lon="4.72278">
        <ele>171</ele>
        <time>2016-09-10T08:48:21Z</time>
      </trkpt>
      <trkpt lat="45.94129" lon="4.72281">
        <ele>171</ele>
        <time>2016-09-10T08:48:22Z</time>
      </trkpt>
      <trkpt lat="45.94135" lon="4.72284">
        <ele>171</ele>
        <time>2016-09-10T08:48:23Z</time>
      </trkpt>
      <trkpt lat="45.94142" lon="4.72285">
        <ele>171</ele>
        <time>2016-09-10T08:48:24Z</time>
      </trkpt>
      <trkpt lat="45.94148" lon="4.72288">
        <ele>171</ele>
        <time>2016-09-10T08:48:25Z</time>
      </trkpt>
      <trkpt lat="45.94154" lon="4.7229">
        <ele>171</ele>
        <time>2016-09-10T08:48:26Z</time>
      </trkpt>
      <trkpt lat="45.9416" lon="4.72292">
        <ele>171</ele>
        <time>2016-09-10T08:48:27Z</time>
      </trkpt>
      <trkpt lat="45.94166" lon="4.72294">
        <ele>171</ele>
        <time>2016-09-10T08:48:28Z</time>
      </trkpt>
      <trkpt lat="45.94172" lon="4.72295">
        <ele>171</ele>
        <time>2016-09-10T08:48:29Z</time>
      </trkpt>
      <trkpt lat="45.94177" lon="4.72296">
        <ele>171</ele>
        <time>2016-09-10T08:48:30Z</time>
      </trkpt>
      <trkpt lat="45.94183" lon="4.72297">
        <ele>171</ele>
        <time>2016-09-10T08:48:31Z</time>
      </trkpt>
      <trkpt lat="45.94189" lon="4.72297">
        <ele>171</ele>
        <time>2016-09-10T08:48:32Z</time>
      </trkpt>
      <trkpt lat="45.94195" lon="4.72297">
        <ele>171</ele>
        <time>2016-09-10T08:48:33Z</time>
      </trkpt>
      <trkpt lat="45.942" lon="4.72297">
        <ele>171</ele>
        <time>2016-09-10T08:48:34Z</time>
      </trkpt>
      <trkpt lat="45.94206" lon="4.72297">
        <ele>171</ele>
        <time>2016-09-10T08:48:35Z</time>
      </trkpt>
      <trkpt lat="45.94211" lon="4.72297">
        <ele>171</ele>
        <time>2016-09-10T08:48:36Z</time>
      </trkpt>
      <trkpt lat="45.94216" lon="4.72297">
        <ele>171</ele>
        <time>2016-09-10T08:48:37Z</time>
      </trkpt>
      <trkpt lat="45.94221" lon="4.72297">
        <ele>171</ele>
        <time>2016-09-10T08:48:38Z</time>
      </trkpt>
      <trkpt lat="45.94226" lon="4.72296">
        <ele>171</ele>
        <time>2016-09-10T08:48:39Z</time>
      </trkpt>
      <trkpt lat="45.94231" lon="4.72295">
        <ele>171</ele>
        <time>2016-09-10T08:48:40Z</time>
      </trkpt>
      <trkpt lat="45.94237" lon="4.72294">
        <ele>171</ele>
        <time>2016-09-10T08:48:41Z</time>
      </trkpt>
      <trkpt lat="45.94242" lon="4.72293">
        <ele>171</ele>
        <time>2016-09-10T08:48:42Z</time>
      </trkpt>
      <trkpt lat="45.94247" lon="4.7229">
        <ele>171</ele>
        <time>2016-09-10T08:48:43Z</time>
      </trkpt>
      <trkpt lat="45.94252" lon="4.72288">
        <ele>171</ele>
        <time>2016-09-10T08:48:44Z</time>
      </trkpt>
      <trkpt lat="45.94257" lon="4.72286">
        <ele>171</ele>
        <time>2016-09-10T08:48:45Z</time>
      </trkpt>
      <trkpt lat="45.94262" lon="4.72284">
        <ele>171</ele>
        <time>2016-09-10T08:48:46Z</time>
      </trkpt>
      <trkpt lat="45.94267" lon="4.72282">
        <ele>171</ele>
        <time>2016-09-10T08:48:47Z</time>
      </trkpt>
      <trkpt lat="45.94272" lon="4.72281">
        <ele>171</ele>
        <time>2016-09-10T08:48:48Z</time>
      </trkpt>
      <trkpt lat="45.94279" lon="4.72286">
        <ele>171</ele>
        <time>2016-09-10T08:48:50Z</time>
      </trkpt>
      <trkpt lat="45.94281" lon="4.72291">
        <ele>171</ele>
        <time>2016-09-10T08:48:51Z</time>
      </trkpt>
      <trkpt lat="45.94284" lon="4.72297">
        <ele>171</ele>
        <time>2016-09-10T08:48:52Z</time>
      </trkpt>
      <trkpt lat="45.94287" lon="4.72304">
        <ele>171</ele>
        <time>2016-09-10T08:48:53Z</time>
      </trkpt>
      <trkpt lat="45.94289" lon="4.7231">
        <ele>171</ele>
        <time>2016-09-10T08:48:54Z</time>
      </trkpt>
      <trkpt lat="45.94293" lon="4.72316">
        <ele>171</ele>
        <time>2016-09-10T08:48:55Z</time>
      </trkpt>
      <trkpt lat="45.94296" lon="4.72322">
        <ele>171</ele>
        <time>2016-09-10T08:48:56Z</time>
      </trkpt>
      <trkpt lat="45.94299" lon="4.7233">
        <ele>171</ele>
        <time>2016-09-10T08:48:57Z</time>
      </trkpt>
      <trkpt lat="45.94302" lon="4.72337">
        <ele>172</ele>
        <time>2016-09-10T08:48:58Z</time>
      </trkpt>
      <trkpt lat="45.94305" lon="4.72345">
        <ele>172</ele>
        <time>2016-09-10T08:48:59Z</time>
      </trkpt>
      <trkpt lat="45.94309" lon="4.72352">
        <ele>172</ele>
        <time>2016-09-10T08:49:00Z</time>
      </trkpt>
      <trkpt lat="45.94312" lon="4.72359">
        <ele>172</ele>
        <time>2016-09-10T08:49:01Z</time>
      </trkpt>
      <trkpt lat="45.94315" lon="4.72365">
        <ele>172</ele>
        <time>2016-09-10T08:49:02Z</time>
      </trkpt>
      <trkpt lat="45.94318" lon="4.72372">
        <ele>172</ele>
        <time>2016-09-10T08:49:03Z</time>
      </trkpt>
      <trkpt lat="45.94321" lon="4.72378">
        <ele>172</ele>
        <time>2016-09-10T08:49:04Z</time>
      </trkpt>
      <trkpt lat="45.94324" lon="4.72385">
        <ele>172</ele>
        <time>2016-09-10T08:49:05Z</time>
      </trkpt>
      <trkpt lat="45.94327" lon="4.72391">
        <ele>172</ele>
        <time>2016-09-10T08:49:06Z</time>
      </trkpt>
      <trkpt lat="45.9433" lon="4.72398">
        <ele>172</ele>
        <time>2016-09-10T08:49:07Z</time>
      </trkpt>
      <trkpt lat="45.94333" lon="4.72405">
        <ele>173</ele>
        <time>2016-09-10T08:49:08Z</time>
      </trkpt>
      <trkpt lat="45.94336" lon="4.72411">
        <ele>173</ele>
        <time>2016-09-10T08:49:09Z</time>
      </trkpt>
      <trkpt lat="45.94338" lon="4.72418">
        <ele>173</ele>
        <time>2016-09-10T08:49:10Z</time>
      </trkpt>
      <trkpt lat="45.94341" lon="4.72425">
        <ele>173</ele>
        <time>2016-09-10T08:49:11Z</time>
      </trkpt>
      <trkpt lat="45.94344" lon="4.72432">
        <ele>173</ele>
        <time>2016-09-10T08:49:12Z</time>
      </trkpt>
      <trkpt lat="45.94347" lon="4.72439">
        <ele>173</ele>
        <time>2016-09-10T08:49:13Z</time>
      </trkpt>
      <trkpt lat="45.9435" lon="4.72445">
        <ele>173</ele>
        <time>2016-09-10T08:49:14Z</time>
      </trkpt>
      <trkpt lat="45.94353" lon="4.72453">
        <ele>173</ele>
        <time>2016-09-10T08:49:15Z</time>
      </trkpt>
      <trkpt lat="45.94356" lon="4.7246">
        <ele>173</ele>
        <time>2016-09-10T08:49:16Z</time>
      </trkpt>
      <trkpt lat="45.94359" lon="4.72467">
        <ele>173</ele>
        <time>2016-09-10T08:49:17Z</time>
      </trkpt>
      <trkpt lat="45.94363" lon="4.72473">
        <ele>173</ele>
        <time>2016-09-10T08:49:18Z</time>
      </trkpt>
      <trkpt lat="45.94366" lon="4.7248">
        <ele>173</ele>
        <time>2016-09-10T08:49:19Z</time>
      </trkpt>
      <trkpt lat="45.94369" lon="4.72487">
        <ele>173</ele>
        <time>2016-09-10T08:49:20Z</time>
      </trkpt>
      <trkpt lat="45.94372" lon="4.72494">
        <ele>173</ele>
        <time>2016-09-10T08:49:21Z</time>
      </trkpt>
      <trkpt lat="45.94375" lon="4.725">
        <ele>173</ele>
        <time>2016-09-10T08:49:22Z</time>
      </trkpt>
      <trkpt lat="45.94377" lon="4.72507">
        <ele>174</ele>
        <time>2016-09-10T08:49:23Z</time>
      </trkpt>
      <trkpt lat="45.94378" lon="4.72515">
        <ele>174</ele>
        <time>2016-09-10T08:49:24Z</time>
      </trkpt>
      <trkpt lat="45.9438" lon="4.72522">
        <ele>174</ele>
        <time>2016-09-10T08:49:25Z</time>
      </trkpt>
      <trkpt lat="45.94381" lon="4.72529">
        <ele>174</ele>
        <time>2016-09-10T08:49:26Z</time>
      </trkpt>
      <trkpt lat="45.94383" lon="4.72536">
        <ele>174</ele>
        <time>2016-09-10T08:49:27Z</time>
      </trkpt>
      <trkpt lat="45.94384" lon="4.72544">
        <ele>173</ele>
        <time>2016-09-10T08:49:28Z</time>
      </trkpt>
      <trkpt lat="45.94386" lon="4.72551">
        <ele>173</ele>
        <time>2016-09-10T08:49:29Z</time>
      </trkpt>
      <trkpt lat="45.94387" lon="4.7256">
        <ele>173</ele>
        <time>2016-09-10T08:49:30Z</time>
      </trkpt>
      <trkpt lat="45.94388" lon="4.72569">
        <ele>173</ele>
        <time>2016-09-10T08:49:31Z</time>
      </trkpt>
      <trkpt lat="45.9439" lon="4.72577">
        <ele>173</ele>
        <time>2016-09-10T08:49:32Z</time>
      </trkpt>
      <trkpt lat="45.94391" lon="4.72585">
        <ele>173</ele>
        <time>2016-09-10T08:49:33Z</time>
      </trkpt>
      <trkpt lat="45.94392" lon="4.72594">
        <ele>173</ele>
        <time>2016-09-10T08:49:34Z</time>
      </trkpt>
      <trkpt lat="45.94393" lon="4.72602">
        <ele>173</ele>
        <time>2016-09-10T08:49:35Z</time>
      </trkpt>
      <trkpt lat="45.94394" lon="4.7261">
        <ele>173</ele>
        <time>2016-09-10T08:49:36Z</time>
      </trkpt>
      <trkpt lat="45.94395" lon="4.72618">
        <ele>173</ele>
        <time>2016-09-10T08:49:37Z</time>
      </trkpt>
      <trkpt lat="45.94395" lon="4.72627">
        <ele>174</ele>
        <time>2016-09-10T08:49:38Z</time>
      </trkpt>
      <trkpt lat="45.94396" lon="4.72635">
        <ele>174</ele>
        <time>2016-09-10T08:49:39Z</time>
      </trkpt>
      <trkpt lat="45.94397" lon="4.72643">
        <ele>174</ele>
        <time>2016-09-10T08:49:40Z</time>
      </trkpt>
      <trkpt lat="45.94399" lon="4.72651">
        <ele>174</ele>
        <time>2016-09-10T08:49:41Z</time>
      </trkpt>
      <trkpt lat="45.94401" lon="4.72659">
        <ele>174</ele>
        <time>2016-09-10T08:49:42Z</time>
      </trkpt>
      <trkpt lat="45.94402" lon="4.72667">
        <ele>174</ele>
        <time>2016-09-10T08:49:43Z</time>
      </trkpt>
      <trkpt lat="45.94403" lon="4.72675">
        <ele>173</ele>
        <time>2016-09-10T08:49:44Z</time>
      </trkpt>
      <trkpt lat="45.94405" lon="4.72683">
        <ele>173</ele>
        <time>2016-09-10T08:49:45Z</time>
      </trkpt>
      <trkpt lat="45.94406" lon="4.72692">
        <ele>173</ele>
        <time>2016-09-10T08:49:46Z</time>
      </trkpt>
      <trkpt lat="45.94407" lon="4.727">
        <ele>172</ele>
        <time>2016-09-10T08:49:47Z</time>
      </trkpt>
      <trkpt lat="45.94408" lon="4.72708">
        <ele>172</ele>
        <time>2016-09-10T08:49:48Z</time>
      </trkpt>
      <trkpt lat="45.94409" lon="4.72716">
        <ele>172</ele>
        <time>2016-09-10T08:49:49Z</time>
      </trkpt>
      <trkpt lat="45.9441" lon="4.72724">
        <ele>172</ele>
        <time>2016-09-10T08:49:50Z</time>
      </trkpt>
      <trkpt lat="45.94411" lon="4.72732">
        <ele>172</ele>
        <time>2016-09-10T08:49:51Z</time>
      </trkpt>
      <trkpt lat="45.94412" lon="4.72739">
        <ele>171</ele>
        <time>2016-09-10T08:49:52Z</time>
      </trkpt>
      <trkpt lat="45.94413" lon="4.72747">
        <ele>171</ele>
        <time>2016-09-10T08:49:53Z</time>
      </trkpt>
      <trkpt lat="45.94414" lon="4.72754">
        <ele>170</ele>
        <time>2016-09-10T08:49:54Z</time>
      </trkpt>
      <trkpt lat="45.94415" lon="4.72762">
        <ele>170</ele>
        <time>2016-09-10T08:49:55Z</time>
      </trkpt>
      <trkpt lat="45.94417" lon="4.72769">
        <ele>169</ele>
        <time>2016-09-10T08:49:56Z</time>
      </trkpt>
      <trkpt lat="45.94417" lon="4.72776">
        <ele>168</ele>
        <time>2016-09-10T08:49:57Z</time>
      </trkpt>
      <trkpt lat="45.94418" lon="4.72783">
        <ele>168</ele>
        <time>2016-09-10T08:49:58Z</time>
      </trkpt>
      <trkpt lat="45.94419" lon="4.72791">
        <ele>168</ele>
        <time>2016-09-10T08:49:59Z</time>
      </trkpt>
      <trkpt lat="45.9442" lon="4.72798">
        <ele>167</ele>
        <time>2016-09-10T08:50:00Z</time>
      </trkpt>
      <trkpt lat="45.94421" lon="4.72805">
        <ele>167</ele>
        <time>2016-09-10T08:50:01Z</time>
      </trkpt>
      <trkpt lat="45.94421" lon="4.72813">
        <ele>167</ele>
        <time>2016-09-10T08:50:02Z</time>
      </trkpt>
      <trkpt lat="45.94422" lon="4.7282">
        <ele>167</ele>
        <time>2016-09-10T08:50:03Z</time>
      </trkpt>
      <trkpt lat="45.94423" lon="4.72827">
        <ele>166</ele>
        <time>2016-09-10T08:50:04Z</time>
      </trkpt>
      <trkpt lat="45.94423" lon="4.72834">
        <ele>166</ele>
        <time>2016-09-10T08:50:05Z</time>
      </trkpt>
      <trkpt lat="45.94424" lon="4.72841">
        <ele>166</ele>
        <time>2016-09-10T08:50:06Z</time>
      </trkpt>
      <trkpt lat="45.94426" lon="4.72848">
        <ele>166</ele>
        <time>2016-09-10T08:50:07Z</time>
      </trkpt>
      <trkpt lat="45.94427" lon="4.72855">
        <ele>166</ele>
        <time>2016-09-10T08:50:08Z</time>
      </trkpt>
      <trkpt lat="45.94428" lon="4.72861">
        <ele>166</ele>
        <time>2016-09-10T08:50:09Z</time>
      </trkpt>
      <trkpt lat="45.94429" lon="4.72868">
        <ele>166</ele>
        <time>2016-09-10T08:50:10Z</time>
      </trkpt>
      <trkpt lat="45.9443" lon="4.72874">
        <ele>166</ele>
        <time>2016-09-10T08:50:11Z</time>
      </trkpt>
      <trkpt lat="45.94431" lon="4.72881">
        <ele>166</ele>
        <time>2016-09-10T08:50:12Z</time>
      </trkpt>
      <trkpt lat="45.94432" lon="4.72888">
        <ele>166</ele>
        <time>2016-09-10T08:50:13Z</time>
      </trkpt>
      <trkpt lat="45.94433" lon="4.72894">
        <ele>166</ele>
        <time>2016-09-10T08:50:14Z</time>
      </trkpt>
      <trkpt lat="45.94434" lon="4.72901">
        <ele>166</ele>
        <time>2016-09-10T08:50:15Z</time>
      </trkpt>
      <trkpt lat="45.94435" lon="4.72907">
        <ele>166</ele>
        <time>2016-09-10T08:50:16Z</time>
      </trkpt>
      <trkpt lat="45.94435" lon="4.72914">
        <ele>166</ele>
        <time>2016-09-10T08:50:17Z</time>
      </trkpt>
      <trkpt lat="45.94436" lon="4.72921">
        <ele>167</ele>
        <time>2016-09-10T08:50:18Z</time>
      </trkpt>
      <trkpt lat="45.94437" lon="4.72929">
        <ele>167</ele>
        <time>2016-09-10T08:50:19Z</time>
      </trkpt>
      <trkpt lat="45.94438" lon="4.72937">
        <ele>167</ele>
        <time>2016-09-10T08:50:20Z</time>
      </trkpt>
      <trkpt lat="45.94439" lon="4.72945">
        <ele>167</ele>
        <time>2016-09-10T08:50:21Z</time>
      </trkpt>
      <trkpt lat="45.9444" lon="4.72953">
        <ele>167</ele>
        <time>2016-09-10T08:50:22Z</time>
      </trkpt>
      <trkpt lat="45.94441" lon="4.72962">
        <ele>167</ele>
        <time>2016-09-10T08:50:23Z</time>
      </trkpt>
      <trkpt lat="45.94443" lon="4.72971">
        <ele>167</ele>
        <time>2016-09-10T08:50:24Z</time>
      </trkpt>
      <trkpt lat="45.94444" lon="4.7298">
        <ele>167</ele>
        <time>2016-09-10T08:50:25Z</time>
      </trkpt>
      <trkpt lat="45.94445" lon="4.72989">
        <ele>167</ele>
        <time>2016-09-10T08:50:26Z</time>
      </trkpt>
      <trkpt lat="45.94447" lon="4.72999">
        <ele>167</ele>
        <time>2016-09-10T08:50:27Z</time>
      </trkpt>
      <trkpt lat="45.94448" lon="4.73009">
        <ele>169</ele>
        <time>2016-09-10T08:50:28Z</time>
      </trkpt>
      <trkpt lat="45.9445" lon="4.73019">
        <ele>169</ele>
        <time>2016-09-10T08:50:29Z</time>
      </trkpt>
      <trkpt lat="45.94452" lon="4.7303">
        <ele>169</ele>
        <time>2016-09-10T08:50:30Z</time>
      </trkpt>
      <trkpt lat="45.94454" lon="4.7304">
        <ele>169</ele>
        <time>2016-09-10T08:50:31Z</time>
      </trkpt>
      <trkpt lat="45.94456" lon="4.7305">
        <ele>170</ele>
        <time>2016-09-10T08:50:32Z</time>
      </trkpt>
      <trkpt lat="45.94458" lon="4.73061">
        <ele>170</ele>
        <time>2016-09-10T08:50:33Z</time>
      </trkpt>
      <trkpt lat="45.9446" lon="4.73072">
        <ele>170</ele>
        <time>2016-09-10T08:50:34Z</time>
      </trkpt>
      <trkpt lat="45.94461" lon="4.73083">
        <ele>170</ele>
        <time>2016-09-10T08:50:35Z</time>
      </trkpt>
      <trkpt lat="45.94463" lon="4.73094">
        <ele>171</ele>
        <time>2016-09-10T08:50:36Z</time>
      </trkpt>
      <trkpt lat="45.94464" lon="4.73106">
        <ele>172</ele>
        <time>2016-09-10T08:50:37Z</time>
      </trkpt>
      <trkpt lat="45.94465" lon="4.73116">
        <ele>172</ele>
        <time>2016-09-10T08:50:38Z</time>
      </trkpt>
      <trkpt lat="45.94467" lon="4.73126">
        <ele>172</ele>
        <time>2016-09-10T08:50:39Z</time>
      </trkpt>
      <trkpt lat="45.94468" lon="4.73136">
        <ele>172</ele>
        <time>2016-09-10T08:50:40Z</time>
      </trkpt>
      <trkpt lat="45.94469" lon="4.73145">
        <ele>172</ele>
        <time>2016-09-10T08:50:41Z</time>
      </trkpt>
      <trkpt lat="45.9447" lon="4.73154">
        <ele>172</ele>
        <time>2016-09-10T08:50:42Z</time>
      </trkpt>
      <trkpt lat="45.94472" lon="4.73162">
        <ele>173</ele>
        <time>2016-09-10T08:50:43Z</time>
      </trkpt>
      <trkpt lat="45.94473" lon="4.73171">
        <ele>174</ele>
        <time>2016-09-10T08:50:44Z</time>
      </trkpt>
      <trkpt lat="45.94474" lon="4.7318">
        <ele>174</ele>
        <time>2016-09-10T08:50:45Z</time>
      </trkpt>
      <trkpt lat="45.94475" lon="4.73188">
        <ele>174</ele>
        <time>2016-09-10T08:50:46Z</time>
      </trkpt>
      <trkpt lat="45.94477" lon="4.73197">
        <ele>174</ele>
        <time>2016-09-10T08:50:47Z</time>
      </trkpt>
      <trkpt lat="45.94478" lon="4.73205">
        <ele>175</ele>
        <time>2016-09-10T08:50:48Z</time>
      </trkpt>
      <trkpt lat="45.94479" lon="4.73213">
        <ele>175</ele>
        <time>2016-09-10T08:50:49Z</time>
      </trkpt>
      <trkpt lat="45.9448" lon="4.73221">
        <ele>175</ele>
        <time>2016-09-10T08:50:50Z</time>
      </trkpt>
      <trkpt lat="45.94481" lon="4.73228">
        <ele>175</ele>
        <time>2016-09-10T08:50:51Z</time>
      </trkpt>
      <trkpt lat="45.94483" lon="4.7324">
        <ele>175</ele>
        <time>2016-09-10T08:50:53Z</time>
      </trkpt>
      <trkpt lat="45.94484" lon="4.73246">
        <ele>175</ele>
        <time>2016-09-10T08:50:54Z</time>
      </trkpt>
      <trkpt lat="45.94485" lon="4.73252">
        <ele>176</ele>
        <time>2016-09-10T08:50:55Z</time>
      </trkpt>
      <trkpt lat="45.94486" lon="4.73259">
        <ele>176</ele>
        <time>2016-09-10T08:50:56Z</time>
      </trkpt>
      <trkpt lat="45.94487" lon="4.73266">
        <ele>177</ele>
        <time>2016-09-10T08:50:57Z</time>
      </trkpt>
      <trkpt lat="45.94486" lon="4.73273">
        <ele>177</ele>
        <time>2016-09-10T08:50:58Z</time>
      </trkpt>
      <trkpt lat="45.94486" lon="4.7328">
        <ele>177</ele>
        <time>2016-09-10T08:50:59Z</time>
      </trkpt>
      <trkpt lat="45.94487" lon="4.73287">
        <ele>177</ele>
        <time>2016-09-10T08:51:00Z</time>
      </trkpt>
      <trkpt lat="45.94487" lon="4.73294">
        <ele>177</ele>
        <time>2016-09-10T08:51:01Z</time>
      </trkpt>
      <trkpt lat="45.94488" lon="4.73302">
        <ele>177</ele>
        <time>2016-09-10T08:51:02Z</time>
      </trkpt>
      <trkpt lat="45.94488" lon="4.73309">
        <ele>177</ele>
        <time>2016-09-10T08:51:03Z</time>
      </trkpt>
      <trkpt lat="45.94489" lon="4.73316">
        <ele>177</ele>
        <time>2016-09-10T08:51:04Z</time>
      </trkpt>
      <trkpt lat="45.94489" lon="4.73323">
        <ele>177</ele>
        <time>2016-09-10T08:51:05Z</time>
      </trkpt>
      <trkpt lat="45.94491" lon="4.7333">
        <ele>177</ele>
        <time>2016-09-10T08:51:06Z</time>
      </trkpt>
      <trkpt lat="45.94491" lon="4.73338">
        <ele>178</ele>
        <time>2016-09-10T08:51:07Z</time>
      </trkpt>
      <trkpt lat="45.94492" lon="4.73345">
        <ele>178</ele>
        <time>2016-09-10T08:51:08Z</time>
      </trkpt>
      <trkpt lat="45.94492" lon="4.73352">
        <ele>178</ele>
        <time>2016-09-10T08:51:09Z</time>
      </trkpt>
      <trkpt lat="45.94493" lon="4.7336">
        <ele>179</ele>
        <time>2016-09-10T08:51:10Z</time>
      </trkpt>
      <trkpt lat="45.94493" lon="4.73367">
        <ele>179</ele>
        <time>2016-09-10T08:51:11Z</time>
      </trkpt>
      <trkpt lat="45.94494" lon="4.73374">
        <ele>179</ele>
        <time>2016-09-10T08:51:12Z</time>
      </trkpt>
      <trkpt lat="45.94494" lon="4.73382">
        <ele>179</ele>
        <time>2016-09-10T08:51:13Z</time>
      </trkpt>
      <trkpt lat="45.94495" lon="4.73389">
        <ele>179</ele>
        <time>2016-09-10T08:51:14Z</time>
      </trkpt>
      <trkpt lat="45.94496" lon="4.73396">
        <ele>179</ele>
        <time>2016-09-10T08:51:15Z</time>
      </trkpt>
      <trkpt lat="45.94497" lon="4.73403">
        <ele>180</ele>
        <time>2016-09-10T08:51:16Z</time>
      </trkpt>
      <trkpt lat="45.94497" lon="4.73409">
        <ele>180</ele>
        <time>2016-09-10T08:51:17Z</time>
      </trkpt>
      <trkpt lat="45.94497" lon="4.73416">
        <ele>180</ele>
        <time>2016-09-10T08:51:18Z</time>
      </trkpt>
      <trkpt lat="45.94497" lon="4.73423">
        <ele>180</ele>
        <time>2016-09-10T08:51:19Z</time>
      </trkpt>
      <trkpt lat="45.94498" lon="4.73429">
        <ele>181</ele>
        <time>2016-09-10T08:51:20Z</time>
      </trkpt>
      <trkpt lat="45.94498" lon="4.73436">
        <ele>181</ele>
        <time>2016-09-10T08:51:21Z</time>
      </trkpt>
      <trkpt lat="45.94498" lon="4.73442">
        <ele>181</ele>
        <time>2016-09-10T08:51:22Z</time>
      </trkpt>
      <trkpt lat="45.94499" lon="4.73449">
        <ele>182</ele>
        <time>2016-09-10T08:51:23Z</time>
      </trkpt>
      <trkpt lat="45.94499" lon="4.73456">
        <ele>182</ele>
        <time>2016-09-10T08:51:24Z</time>
      </trkpt>
      <trkpt lat="45.945" lon="4.73463">
        <ele>182</ele>
        <time>2016-09-10T08:51:25Z</time>
      </trkpt>
      <trkpt lat="45.945" lon="4.73471">
        <ele>182</ele>
        <time>2016-09-10T08:51:26Z</time>
      </trkpt>
      <trkpt lat="45.94501" lon="4.73477">
        <ele>182</ele>
        <time>2016-09-10T08:51:27Z</time>
      </trkpt>
      <trkpt lat="45.94501" lon="4.73484">
        <ele>182</ele>
        <time>2016-09-10T08:51:28Z</time>
      </trkpt>
      <trkpt lat="45.94502" lon="4.73492">
        <ele>182</ele>
        <time>2016-09-10T08:51:29Z</time>
      </trkpt>
      <trkpt lat="45.94502" lon="4.73499">
        <ele>183</ele>
        <time>2016-09-10T08:51:30Z</time>
      </trkpt>
      <trkpt lat="45.94501" lon="4.73505">
        <ele>183</ele>
        <time>2016-09-10T08:51:31Z</time>
      </trkpt>
      <trkpt lat="45.94501" lon="4.73512">
        <ele>183</ele>
        <time>2016-09-10T08:51:32Z</time>
      </trkpt>
      <trkpt lat="45.945" lon="4.73519">
        <ele>183</ele>
        <time>2016-09-10T08:51:33Z</time>
      </trkpt>
      <trkpt lat="45.94501" lon="4.73526">
        <ele>183</ele>
        <time>2016-09-10T08:51:34Z</time>
      </trkpt>
      <trkpt lat="45.94501" lon="4.73534">
        <ele>183</ele>
        <time>2016-09-10T08:51:35Z</time>
      </trkpt>
      <trkpt lat="45.945" lon="4.73541">
        <ele>184</ele>
        <time>2016-09-10T08:51:36Z</time>
      </trkpt>
      <trkpt lat="45.945" lon="4.73547">
        <ele>185</ele>
        <time>2016-09-10T08:51:37Z</time>
      </trkpt>
      <trkpt lat="45.94499" lon="4.73554">
        <ele>185</ele>
        <time>2016-09-10T08:51:38Z</time>
      </trkpt>
      <trkpt lat="45.94499" lon="4.73561">
        <ele>185</ele>
        <time>2016-09-10T08:51:39Z</time>
      </trkpt>
      <trkpt lat="45.94499" lon="4.73569">
        <ele>185</ele>
        <time>2016-09-10T08:51:40Z</time>
      </trkpt>
      <trkpt lat="45.94499" lon="4.73576">
        <ele>185</ele>
        <time>2016-09-10T08:51:41Z</time>
      </trkpt>
      <trkpt lat="45.94499" lon="4.73583">
        <ele>185</ele>
        <time>2016-09-10T08:51:42Z</time>
      </trkpt>
      <trkpt lat="45.94498" lon="4.73591">
        <ele>185</ele>
        <time>2016-09-10T08:51:43Z</time>
      </trkpt>
      <trkpt lat="45.94498" lon="4.73598">
        <ele>185</ele>
        <time>2016-09-10T08:51:44Z</time>
      </trkpt>
      <trkpt lat="45.94498" lon="4.73606">
        <ele>186</ele>
        <time>2016-09-10T08:51:45Z</time>
      </trkpt>
      <trkpt lat="45.94497" lon="4.73613">
        <ele>186</ele>
        <time>2016-09-10T08:51:46Z</time>
      </trkpt>
      <trkpt lat="45.94496" lon="4.73621">
        <ele>186</ele>
        <time>2016-09-10T08:51:47Z</time>
      </trkpt>
      <trkpt lat="45.94495" lon="4.73629">
        <ele>186</ele>
        <time>2016-09-10T08:51:48Z</time>
      </trkpt>
      <trkpt lat="45.94493" lon="4.73638">
        <ele>186</ele>
        <time>2016-09-10T08:51:49Z</time>
      </trkpt>
      <trkpt lat="45.94491" lon="4.73646">
        <ele>186</ele>
        <time>2016-09-10T08:51:50Z</time>
      </trkpt>
      <trkpt lat="45.9449" lon="4.73654">
        <ele>185</ele>
        <time>2016-09-10T08:51:51Z</time>
      </trkpt>
      <trkpt lat="45.94489" lon="4.73663">
        <ele>185</ele>
        <time>2016-09-10T08:51:52Z</time>
      </trkpt>
      <trkpt lat="45.94488" lon="4.73672">
        <ele>185</ele>
        <time>2016-09-10T08:51:53Z</time>
      </trkpt>
      <trkpt lat="45.94487" lon="4.7368">
        <ele>186</ele>
        <time>2016-09-10T08:51:54Z</time>
      </trkpt>
      <trkpt lat="45.94487" lon="4.73689">
        <ele>186</ele>
        <time>2016-09-10T08:51:55Z</time>
      </trkpt>
      <trkpt lat="45.94485" lon="4.73698">
        <ele>186</ele>
        <time>2016-09-10T08:51:56Z</time>
      </trkpt>
      <trkpt lat="45.94484" lon="4.73706">
        <ele>186</ele>
        <time>2016-09-10T08:51:57Z</time>
      </trkpt>
      <trkpt lat="45.94482" lon="4.73713">
        <ele>186</ele>
        <time>2016-09-10T08:51:58Z</time>
      </trkpt>
      <trkpt lat="45.94481" lon="4.73721">
        <ele>186</ele>
        <time>2016-09-10T08:51:59Z</time>
      </trkpt>
      <trkpt lat="45.94479" lon="4.73729">
        <ele>186</ele>
        <time>2016-09-10T08:52:00Z</time>
      </trkpt>
      <trkpt lat="45.94478" lon="4.73737">
        <ele>186</ele>
        <time>2016-09-10T08:52:01Z</time>
      </trkpt>
      <trkpt lat="45.94476" lon="4.73744">
        <ele>186</ele>
        <time>2016-09-10T08:52:02Z</time>
      </trkpt>
      <trkpt lat="45.94473" lon="4.73756">
        <ele>186</ele>
        <time>2016-09-10T08:52:04Z</time>
      </trkpt>
      <trkpt lat="45.94472" lon="4.73763">
        <ele>186</ele>
        <time>2016-09-10T08:52:05Z</time>
      </trkpt>
      <trkpt lat="45.94473" lon="4.7377">
        <ele>186</ele>
        <time>2016-09-10T08:52:06Z</time>
      </trkpt>
      <trkpt lat="45.94476" lon="4.73776">
        <ele>186</ele>
        <time>2016-09-10T08:52:07Z</time>
      </trkpt>
      <trkpt lat="45.9448" lon="4.7378">
        <ele>186</ele>
        <time>2016-09-10T08:52:08Z</time>
      </trkpt>
      <trkpt lat="45.94484" lon="4.73783">
        <ele>186</ele>
        <time>2016-09-10T08:52:09Z</time>
      </trkpt>
      <trkpt lat="45.94489" lon="4.73786">
        <ele>186</ele>
        <time>2016-09-10T08:52:10Z</time>
      </trkpt>
      <trkpt lat="45.94493" lon="4.7379">
        <ele>186</ele>
        <time>2016-09-10T08:52:11Z</time>
      </trkpt>
      <trkpt lat="45.94498" lon="4.73794">
        <ele>185</ele>
        <time>2016-09-10T08:52:12Z</time>
      </trkpt>
      <trkpt lat="45.94503" lon="4.73798">
        <ele>186</ele>
        <time>2016-09-10T08:52:13Z</time>
      </trkpt>
      <trkpt lat="45.94509" lon="4.73803">
        <ele>186</ele>
        <time>2016-09-10T08:52:14Z</time>
      </trkpt>
      <trkpt lat="45.94513" lon="4.73807">
        <ele>186</ele>
        <time>2016-09-10T08:52:15Z</time>
      </trkpt>
      <trkpt lat="45.94518" lon="4.73811">
        <ele>186</ele>
        <time>2016-09-10T08:52:16Z</time>
      </trkpt>
      <trkpt lat="45.94523" lon="4.73815">
        <ele>186</ele>
        <time>2016-09-10T08:52:17Z</time>
      </trkpt>
      <trkpt lat="45.94527" lon="4.73819">
        <ele>186</ele>
        <time>2016-09-10T08:52:18Z</time>
      </trkpt>
      <trkpt lat="45.94532" lon="4.73823">
        <ele>186</ele>
        <time>2016-09-10T08:52:19Z</time>
      </trkpt>
      <trkpt lat="45.94537" lon="4.73827">
        <ele>186</ele>
        <time>2016-09-10T08:52:20Z</time>
      </trkpt>
      <trkpt lat="45.94542" lon="4.7383">
        <ele>186</ele>
        <time>2016-09-10T08:52:21Z</time>
      </trkpt>
      <trkpt lat="45.94546" lon="4.73834">
        <ele>186</ele>
        <time>2016-09-10T08:52:22Z</time>
      </trkpt>
      <trkpt lat="45.9455" lon="4.73838">
        <ele>186</ele>
        <time>2016-09-10T08:52:23Z</time>
      </trkpt>
      <trkpt lat="45.94554" lon="4.73843">
        <ele>186</ele>
        <time>2016-09-10T08:52:24Z</time>
      </trkpt>
      <trkpt lat="45.94558" lon="4.73847">
        <ele>186</ele>
        <time>2016-09-10T08:52:25Z</time>
      </trkpt>
      <trkpt lat="45.94562" lon="4.73851">
        <ele>186</ele>
        <time>2016-09-10T08:52:26Z</time>
      </trkpt>
      <trkpt lat="45.94566" lon="4.73856">
        <ele>186</ele>
        <time>2016-09-10T08:52:27Z</time>
      </trkpt>
      <trkpt lat="45.94571" lon="4.7386">
        <ele>186</ele>
        <time>2016-09-10T08:52:28Z</time>
      </trkpt>
      <trkpt lat="45.94574" lon="4.73864">
        <ele>186</ele>
        <time>2016-09-10T08:52:29Z</time>
      </trkpt>
      <trkpt lat="45.94581" lon="4.73872">
        <ele>186</ele>
        <time>2016-09-10T08:52:31Z</time>
      </trkpt>
      <trkpt lat="45.94585" lon="4.73877">
        <ele>187</ele>
        <time>2016-09-10T08:52:32Z</time>
      </trkpt>
      <trkpt lat="45.94588" lon="4.73882">
        <ele>187</ele>
        <time>2016-09-10T08:52:33Z</time>
      </trkpt>
      <trkpt lat="45.94592" lon="4.73887">
        <ele>187</ele>
        <time>2016-09-10T08:52:34Z</time>
      </trkpt>
      <trkpt lat="45.94596" lon="4.73892">
        <ele>187</ele>
        <time>2016-09-10T08:52:35Z</time>
      </trkpt>
      <trkpt lat="45.94601" lon="4.73897">
        <ele>187</ele>
        <time>2016-09-10T08:52:36Z</time>
      </trkpt>
      <trkpt lat="45.94605" lon="4.73901">
        <ele>187</ele>
        <time>2016-09-10T08:52:37Z</time>
      </trkpt>
      <trkpt lat="45.94609" lon="4.73906">
        <ele>187</ele>
        <time>2016-09-10T08:52:38Z</time>
      </trkpt>
      <trkpt lat="45.94613" lon="4.73911">
        <ele>187</ele>
        <time>2016-09-10T08:52:39Z</time>
      </trkpt>
      <trkpt lat="45.94617" lon="4.73915">
        <ele>187</ele>
        <time>2016-09-10T08:52:40Z</time>
      </trkpt>
      <trkpt lat="45.94621" lon="4.7392">
        <ele>187</ele>
        <time>2016-09-10T08:52:41Z</time>
      </trkpt>
      <trkpt lat="45.94625" lon="4.73925">
        <ele>187</ele>
        <time>2016-09-10T08:52:42Z</time>
      </trkpt>
      <trkpt lat="45.94628" lon="4.7393">
        <ele>187</ele>
        <time>2016-09-10T08:52:43Z</time>
      </trkpt>
      <trkpt lat="45.94632" lon="4.73935">
        <ele>187</ele>
        <time>2016-09-10T08:52:44Z</time>
      </trkpt>
      <trkpt lat="45.94636" lon="4.73939">
        <ele>187</ele>
        <time>2016-09-10T08:52:45Z</time>
      </trkpt>
      <trkpt lat="45.9464" lon="4.73944">
        <ele>187</ele>
        <time>2016-09-10T08:52:46Z</time>
      </trkpt>
      <trkpt lat="45.94644" lon="4.73948">
        <ele>187</ele>
        <time>2016-09-10T08:52:47Z</time>
      </trkpt>
      <trkpt lat="45.94648" lon="4.73952">
        <ele>187</ele>
        <time>2016-09-10T08:52:48Z</time>
      </trkpt>
      <trkpt lat="45.94651" lon="4.73957">
        <ele>187</ele>
        <time>2016-09-10T08:52:49Z</time>
      </trkpt>
      <trkpt lat="45.94655" lon="4.73962">
        <ele>187</ele>
        <time>2016-09-10T08:52:50Z</time>
      </trkpt>
      <trkpt lat="45.94659" lon="4.73966">
        <ele>187</ele>
        <time>2016-09-10T08:52:51Z</time>
      </trkpt>
      <trkpt lat="45.94662" lon="4.73971">
        <ele>187</ele>
        <time>2016-09-10T08:52:52Z</time>
      </trkpt>
      <trkpt lat="45.94665" lon="4.73976">
        <ele>187</ele>
        <time>2016-09-10T08:52:53Z</time>
      </trkpt>
      <trkpt lat="45.94669" lon="4.73981">
        <ele>187</ele>
        <time>2016-09-10T08:52:54Z</time>
      </trkpt>
      <trkpt lat="45.94673" lon="4.73986">
        <ele>187</ele>
        <time>2016-09-10T08:52:55Z</time>
      </trkpt>
      <trkpt lat="45.94676" lon="4.73991">
        <ele>187</ele>
        <time>2016-09-10T08:52:56Z</time>
      </trkpt>
      <trkpt lat="45.9468" lon="4.73996">
        <ele>187</ele>
        <time>2016-09-10T08:52:57Z</time>
      </trkpt>
      <trkpt lat="45.94684" lon="4.74001">
        <ele>187</ele>
        <time>2016-09-10T08:52:58Z</time>
      </trkpt>
      <trkpt lat="45.94688" lon="4.74007">
        <ele>187</ele>
        <time>2016-09-10T08:52:59Z</time>
      </trkpt>
      <trkpt lat="45.94692" lon="4.74012">
        <ele>187</ele>
        <time>2016-09-10T08:53:00Z</time>
      </trkpt>
      <trkpt lat="45.94695" lon="4.74017">
        <ele>187</ele>
        <time>2016-09-10T08:53:01Z</time>
      </trkpt>
      <trkpt lat="45.94698" lon="4.74023">
        <ele>187</ele>
        <time>2016-09-10T08:53:02Z</time>
      </trkpt>
      <trkpt lat="45.94702" lon="4.74027">
        <ele>187</ele>
        <time>2016-09-10T08:53:03Z</time>
      </trkpt>
      <trkpt lat="45.94706" lon="4.74032">
        <ele>187</ele>
        <time>2016-09-10T08:53:04Z</time>
      </trkpt>
      <trkpt lat="45.94709" lon="4.74036">
        <ele>187</ele>
        <time>2016-09-10T08:53:05Z</time>
      </trkpt>
      <trkpt lat="45.94713" lon="4.74041">
        <ele>187</ele>
        <time>2016-09-10T08:53:06Z</time>
      </trkpt>
      <trkpt lat="45.94717" lon="4.74046">
        <ele>187</ele>
        <time>2016-09-10T08:53:07Z</time>
      </trkpt>
      <trkpt lat="45.9472" lon="4.74051">
        <ele>187</ele>
        <time>2016-09-10T08:53:08Z</time>
      </trkpt>
      <trkpt lat="45.94724" lon="4.74055">
        <ele>188</ele>
        <time>2016-09-10T08:53:09Z</time>
      </trkpt>
      <trkpt lat="45.94728" lon="4.7406">
        <ele>188</ele>
        <time>2016-09-10T08:53:10Z</time>
      </trkpt>
      <trkpt lat="45.94732" lon="4.74064">
        <ele>188</ele>
        <time>2016-09-10T08:53:11Z</time>
      </trkpt>
      <trkpt lat="45.94735" lon="4.7407">
        <ele>188</ele>
        <time>2016-09-10T08:53:12Z</time>
      </trkpt>
      <trkpt lat="45.94739" lon="4.74075">
        <ele>188</ele>
        <time>2016-09-10T08:53:13Z</time>
      </trkpt>
      <trkpt lat="45.94743" lon="4.74081">
        <ele>188</ele>
        <time>2016-09-10T08:53:14Z</time>
      </trkpt>
      <trkpt lat="45.94747" lon="4.74086">
        <ele>189</ele>
        <time>2016-09-10T08:53:15Z</time>
      </trkpt>
      <trkpt lat="45.9475" lon="4.74091">
        <ele>189</ele>
        <time>2016-09-10T08:53:16Z</time>
      </trkpt>
      <trkpt lat="45.94754" lon="4.74095">
        <ele>189</ele>
        <time>2016-09-10T08:53:17Z</time>
      </trkpt>
      <trkpt lat="45.94757" lon="4.741">
        <ele>189</ele>
        <time>2016-09-10T08:53:18Z</time>
      </trkpt>
      <trkpt lat="45.94761" lon="4.74104">
        <ele>189</ele>
        <time>2016-09-10T08:53:19Z</time>
      </trkpt>
      <trkpt lat="45.94764" lon="4.74109">
        <ele>189</ele>
        <time>2016-09-10T08:53:20Z</time>
      </trkpt>
      <trkpt lat="45.94768" lon="4.74114">
        <ele>189</ele>
        <time>2016-09-10T08:53:21Z</time>
      </trkpt>
      <trkpt lat="45.94772" lon="4.74119">
        <ele>189</ele>
        <time>2016-09-10T08:53:22Z</time>
      </trkpt>
      <trkpt lat="45.94775" lon="4.74125">
        <ele>189</ele>
        <time>2016-09-10T08:53:23Z</time>
      </trkpt>
      <trkpt lat="45.94779" lon="4.74129">
        <ele>189</ele>
        <time>2016-09-10T08:53:24Z</time>
      </trkpt>
      <trkpt lat="45.94782" lon="4.74134">
        <ele>189</ele>
        <time>2016-09-10T08:53:25Z</time>
      </trkpt>
      <trkpt lat="45.94786" lon="4.74139">
        <ele>189</ele>
        <time>2016-09-10T08:53:26Z</time>
      </trkpt>
      <trkpt lat="45.9479" lon="4.74144">
        <ele>189</ele>
        <time>2016-09-10T08:53:27Z</time>
      </trkpt>
      <trkpt lat="45.94794" lon="4.7415">
        <ele>189</ele>
        <time>2016-09-10T08:53:28Z</time>
      </trkpt>
      <trkpt lat="45.94797" lon="4.74156">
        <ele>189</ele>
        <time>2016-09-10T08:53:29Z</time>
      </trkpt>
      <trkpt lat="45.948" lon="4.74162">
        <ele>189</ele>
        <time>2016-09-10T08:53:30Z</time>
      </trkpt>
      <trkpt lat="45.94804" lon="4.74167">
        <ele>189</ele>
        <time>2016-09-10T08:53:31Z</time>
      </trkpt>
      <trkpt lat="45.94807" lon="4.74173">
        <ele>189</ele>
        <time>2016-09-10T08:53:32Z</time>
      </trkpt>
      <trkpt lat="45.9481" lon="4.74179">
        <ele>189</ele>
        <time>2016-09-10T08:53:33Z</time>
      </trkpt>
      <trkpt lat="45.94814" lon="4.74186">
        <ele>189</ele>
        <time>2016-09-10T08:53:34Z</time>
      </trkpt>
      <trkpt lat="45.94817" lon="4.74193">
        <ele>189</ele>
        <time>2016-09-10T08:53:35Z</time>
      </trkpt>
      <trkpt lat="45.9482" lon="4.742">
        <ele>189</ele>
        <time>2016-09-10T08:53:36Z</time>
      </trkpt>
      <trkpt lat="45.94824" lon="4.74206">
        <ele>189</ele>
        <time>2016-09-10T08:53:37Z</time>
      </trkpt>
      <trkpt lat="45.94827" lon="4.74213">
        <ele>188</ele>
        <time>2016-09-10T08:53:38Z</time>
      </trkpt>
      <trkpt lat="45.94831" lon="4.74221">
        <ele>188</ele>
        <time>2016-09-10T08:53:39Z</time>
      </trkpt>
      <trkpt lat="45.94834" lon="4.74228">
        <ele>190</ele>
        <time>2016-09-10T08:53:40Z</time>
      </trkpt>
      <trkpt lat="45.94837" lon="4.74235">
        <ele>190</ele>
        <time>2016-09-10T08:53:41Z</time>
      </trkpt>
      <trkpt lat="45.9484" lon="4.74241">
        <ele>189</ele>
        <time>2016-09-10T08:53:42Z</time>
      </trkpt>
      <trkpt lat="45.94843" lon="4.74248">
        <ele>189</ele>
        <time>2016-09-10T08:53:43Z</time>
      </trkpt>
      <trkpt lat="45.94846" lon="4.74254">
        <ele>190</ele>
        <time>2016-09-10T08:53:44Z</time>
      </trkpt>
      <trkpt lat="45.9485" lon="4.7426">
        <ele>190</ele>
        <time>2016-09-10T08:53:45Z</time>
      </trkpt>
      <trkpt lat="45.94853" lon="4.74265">
        <ele>190</ele>
        <time>2016-09-10T08:53:46Z</time>
      </trkpt>
      <trkpt lat="45.94856" lon="4.74271">
        <ele>190</ele>
        <time>2016-09-10T08:53:47Z</time>
      </trkpt>
      <trkpt lat="45.9486" lon="4.74277">
        <ele>190</ele>
        <time>2016-09-10T08:53:48Z</time>
      </trkpt>
      <trkpt lat="45.94863" lon="4.74283">
        <ele>191</ele>
        <time>2016-09-10T08:53:49Z</time>
      </trkpt>
      <trkpt lat="45.94865" lon="4.74288">
        <ele>191</ele>
        <time>2016-09-10T08:53:50Z</time>
      </trkpt>
      <trkpt lat="45.94868" lon="4.74295">
        <ele>191</ele>
        <time>2016-09-10T08:53:51Z</time>
      </trkpt>
      <trkpt lat="45.94871" lon="4.74301">
        <ele>191</ele>
        <time>2016-09-10T08:53:52Z</time>
      </trkpt>
      <trkpt lat="45.94874" lon="4.74307">
        <ele>191</ele>
        <time>2016-09-10T08:53:53Z</time>
      </trkpt>
      <trkpt lat="45.94878" lon="4.74313">
        <ele>191</ele>
        <time>2016-09-10T08:53:54Z</time>
      </trkpt>
      <trkpt lat="45.94881" lon="4.74319">
        <ele>191</ele>
        <time>2016-09-10T08:53:55Z</time>
      </trkpt>
      <trkpt lat="45.94884" lon="4.74325">
        <ele>191</ele>
        <time>2016-09-10T08:53:56Z</time>
      </trkpt>
      <trkpt lat="45.94886" lon="4.74331">
        <ele>191</ele>
        <time>2016-09-10T08:53:57Z</time>
      </trkpt>
      <trkpt lat="45.94889" lon="4.74337">
        <ele>191</ele>
        <time>2016-09-10T08:53:58Z</time>
      </trkpt>
      <trkpt lat="45.94892" lon="4.74343">
        <ele>191</ele>
        <time>2016-09-10T08:53:59Z</time>
      </trkpt>
      <trkpt lat="45.94895" lon="4.74349">
        <ele>191</ele>
        <time>2016-09-10T08:54:00Z</time>
      </trkpt>
      <trkpt lat="45.94899" lon="4.74355">
        <ele>191</ele>
        <time>2016-09-10T08:54:01Z</time>
      </trkpt>
      <trkpt lat="45.94902" lon="4.74361">
        <ele>191</ele>
        <time>2016-09-10T08:54:02Z</time>
      </trkpt>
      <trkpt lat="45.94905" lon="4.74368">
        <ele>191</ele>
        <time>2016-09-10T08:54:03Z</time>
      </trkpt>
      <trkpt lat="45.94909" lon="4.74374">
        <ele>191</ele>
        <time>2016-09-10T08:54:04Z</time>
      </trkpt>
      <trkpt lat="45.94912" lon="4.74379">
        <ele>191</ele>
        <time>2016-09-10T08:54:05Z</time>
      </trkpt>
      <trkpt lat="45.94915" lon="4.74385">
        <ele>191</ele>
        <time>2016-09-10T08:54:06Z</time>
      </trkpt>
      <trkpt lat="45.94919" lon="4.74391">
        <ele>192</ele>
        <time>2016-09-10T08:54:07Z</time>
      </trkpt>
      <trkpt lat="45.94922" lon="4.74397">
        <ele>192</ele>
        <time>2016-09-10T08:54:08Z</time>
      </trkpt>
      <trkpt lat="45.94925" lon="4.74403">
        <ele>192</ele>
        <time>2016-09-10T08:54:09Z</time>
      </trkpt>
      <trkpt lat="45.94928" lon="4.74408">
        <ele>192</ele>
        <time>2016-09-10T08:54:10Z</time>
      </trkpt>
      <trkpt lat="45.94931" lon="4.74415">
        <ele>192</ele>
        <time>2016-09-10T08:54:11Z</time>
      </trkpt>
      <trkpt lat="45.94934" lon="4.74421">
        <ele>192</ele>
        <time>2016-09-10T08:54:12Z</time>
      </trkpt>
      <trkpt lat="45.94937" lon="4.74427">
        <ele>192</ele>
        <time>2016-09-10T08:54:13Z</time>
      </trkpt>
      <trkpt lat="45.9494" lon="4.74433">
        <ele>192</ele>
        <time>2016-09-10T08:54:14Z</time>
      </trkpt>
      <trkpt lat="45.94943" lon="4.74439">
        <ele>192</ele>
        <time>2016-09-10T08:54:15Z</time>
      </trkpt>
      <trkpt lat="45.94946" lon="4.74446">
        <ele>192</ele>
        <time>2016-09-10T08:54:16Z</time>
      </trkpt>
      <trkpt lat="45.9495" lon="4.74452">
        <ele>192</ele>
        <time>2016-09-10T08:54:17Z</time>
      </trkpt>
      <trkpt lat="45.94953" lon="4.74458">
        <ele>192</ele>
        <time>2016-09-10T08:54:18Z</time>
      </trkpt>
      <trkpt lat="45.94956" lon="4.74463">
        <ele>193</ele>
        <time>2016-09-10T08:54:19Z</time>
      </trkpt>
      <trkpt lat="45.94959" lon="4.74469">
        <ele>193</ele>
        <time>2016-09-10T08:54:20Z</time>
      </trkpt>
      <trkpt lat="45.94961" lon="4.74474">
        <ele>193</ele>
        <time>2016-09-10T08:54:21Z</time>
      </trkpt>
      <trkpt lat="45.94964" lon="4.7448">
        <ele>193</ele>
        <time>2016-09-10T08:54:22Z</time>
      </trkpt>
      <trkpt lat="45.94967" lon="4.74486">
        <ele>193</ele>
        <time>2016-09-10T08:54:23Z</time>
      </trkpt>
      <trkpt lat="45.9497" lon="4.74492">
        <ele>193</ele>
        <time>2016-09-10T08:54:24Z</time>
      </trkpt>
      <trkpt lat="45.94973" lon="4.74497">
        <ele>193</ele>
        <time>2016-09-10T08:54:25Z</time>
      </trkpt>
      <trkpt lat="45.94975" lon="4.74503">
        <ele>193</ele>
        <time>2016-09-10T08:54:26Z</time>
      </trkpt>
      <trkpt lat="45.94978" lon="4.74508">
        <ele>193</ele>
        <time>2016-09-10T08:54:27Z</time>
      </trkpt>
      <trkpt lat="45.94981" lon="4.74514">
        <ele>193</ele>
        <time>2016-09-10T08:54:28Z</time>
      </trkpt>
      <trkpt lat="45.94984" lon="4.74519">
        <ele>193</ele>
        <time>2016-09-10T08:54:29Z</time>
      </trkpt>
      <trkpt lat="45.94987" lon="4.74524">
        <ele>193</ele>
        <time>2016-09-10T08:54:30Z</time>
      </trkpt>
      <trkpt lat="45.9499" lon="4.7453">
        <ele>193</ele>
        <time>2016-09-10T08:54:31Z</time>
      </trkpt>
      <trkpt lat="45.94993" lon="4.74536">
        <ele>193</ele>
        <time>2016-09-10T08:54:32Z</time>
      </trkpt>
      <trkpt lat="45.94996" lon="4.74541">
        <ele>193</ele>
        <time>2016-09-10T08:54:33Z</time>
      </trkpt>
      <trkpt lat="45.94999" lon="4.74547">
        <ele>193</ele>
        <time>2016-09-10T08:54:34Z</time>
      </trkpt>
      <trkpt lat="45.95001" lon="4.74552">
        <ele>194</ele>
        <time>2016-09-10T08:54:35Z</time>
      </trkpt>
      <trkpt lat="45.95004" lon="4.74558">
        <ele>194</ele>
        <time>2016-09-10T08:54:36Z</time>
      </trkpt>
      <trkpt lat="45.95006" lon="4.74563">
        <ele>194</ele>
        <time>2016-09-10T08:54:37Z</time>
      </trkpt>
      <trkpt lat="45.95009" lon="4.74569">
        <ele>194</ele>
        <time>2016-09-10T08:54:38Z</time>
      </trkpt>
      <trkpt lat="45.95012" lon="4.74574">
        <ele>194</ele>
        <time>2016-09-10T08:54:39Z</time>
      </trkpt>
      <trkpt lat="45.95015" lon="4.7458">
        <ele>194</ele>
        <time>2016-09-10T08:54:40Z</time>
      </trkpt>
      <trkpt lat="45.95018" lon="4.74585">
        <ele>194</ele>
        <time>2016-09-10T08:54:41Z</time>
      </trkpt>
      <trkpt lat="45.95021" lon="4.7459">
        <ele>194</ele>
        <time>2016-09-10T08:54:42Z</time>
      </trkpt>
      <trkpt lat="45.95024" lon="4.74596">
        <ele>194</ele>
        <time>2016-09-10T08:54:43Z</time>
      </trkpt>
      <trkpt lat="45.95027" lon="4.74602">
        <ele>194</ele>
        <time>2016-09-10T08:54:44Z</time>
      </trkpt>
      <trkpt lat="45.95031" lon="4.74608">
        <ele>194</ele>
        <time>2016-09-10T08:54:45Z</time>
      </trkpt>
      <trkpt lat="45.95034" lon="4.74614">
        <ele>194</ele>
        <time>2016-09-10T08:54:46Z</time>
      </trkpt>
      <trkpt lat="45.95037" lon="4.7462">
        <ele>194</ele>
        <time>2016-09-10T08:54:47Z</time>
      </trkpt>
      <trkpt lat="45.95041" lon="4.74626">
        <ele>194</ele>
        <time>2016-09-10T08:54:48Z</time>
      </trkpt>
      <trkpt lat="45.95044" lon="4.74633">
        <ele>194</ele>
        <time>2016-09-10T08:54:49Z</time>
      </trkpt>
      <trkpt lat="45.95048" lon="4.74639">
        <ele>194</ele>
        <time>2016-09-10T08:54:50Z</time>
      </trkpt>
      <trkpt lat="45.95052" lon="4.74646">
        <ele>194</ele>
        <time>2016-09-10T08:54:51Z</time>
      </trkpt>
      <trkpt lat="45.95056" lon="4.74652">
        <ele>194</ele>
        <time>2016-09-10T08:54:52Z</time>
      </trkpt>
      <trkpt lat="45.95059" lon="4.74659">
        <ele>194</ele>
        <time>2016-09-10T08:54:53Z</time>
      </trkpt>
      <trkpt lat="45.95063" lon="4.74665">
        <ele>195</ele>
        <time>2016-09-10T08:54:54Z</time>
      </trkpt>
      <trkpt lat="45.95067" lon="4.74671">
        <ele>194</ele>
        <time>2016-09-10T08:54:55Z</time>
      </trkpt>
      <trkpt lat="45.9507" lon="4.74677">
        <ele>194</ele>
        <time>2016-09-10T08:54:56Z</time>
      </trkpt>
      <trkpt lat="45.95073" lon="4.74683">
        <ele>194</ele>
        <time>2016-09-10T08:54:57Z</time>
      </trkpt>
      <trkpt lat="45.95077" lon="4.74689">
        <ele>194</ele>
        <time>2016-09-10T08:54:58Z</time>
      </trkpt>
      <trkpt lat="45.9508" lon="4.74695">
        <ele>194</ele>
        <time>2016-09-10T08:54:59Z</time>
      </trkpt>
      <trkpt lat="45.95083" lon="4.747">
        <ele>194</ele>
        <time>2016-09-10T08:55:00Z</time>
      </trkpt>
      <trkpt lat="45.95086" lon="4.74706">
        <ele>194</ele>
        <time>2016-09-10T08:55:01Z</time>
      </trkpt>
      <trkpt lat="45.9509" lon="4.74713">
        <ele>194</ele>
        <time>2016-09-10T08:55:02Z</time>
      </trkpt>
      <trkpt lat="45.95093" lon="4.74719">
        <ele>194</ele>
        <time>2016-09-10T08:55:03Z</time>
      </trkpt>
      <trkpt lat="45.95097" lon="4.74725">
        <ele>194</ele>
        <time>2016-09-10T08:55:04Z</time>
      </trkpt>
      <trkpt lat="45.951" lon="4.74731">
        <ele>194</ele>
        <time>2016-09-10T08:55:05Z</time>
      </trkpt>
      <trkpt lat="45.95103" lon="4.74737">
        <ele>194</ele>
        <time>2016-09-10T08:55:06Z</time>
      </trkpt>
      <trkpt lat="45.95107" lon="4.74743">
        <ele>194</ele>
        <time>2016-09-10T08:55:07Z</time>
      </trkpt>
      <trkpt lat="45.95111" lon="4.74749">
        <ele>194</ele>
        <time>2016-09-10T08:55:08Z</time>
      </trkpt>
      <trkpt lat="45.95114" lon="4.74754">
        <ele>194</ele>
        <time>2016-09-10T08:55:09Z</time>
      </trkpt>
      <trkpt lat="45.95117" lon="4.7476">
        <ele>194</ele>
        <time>2016-09-10T08:55:10Z</time>
      </trkpt>
      <trkpt lat="45.95121" lon="4.74765">
        <ele>194</ele>
        <time>2016-09-10T08:55:11Z</time>
      </trkpt>
      <trkpt lat="45.95124" lon="4.74771">
        <ele>194</ele>
        <time>2016-09-10T08:55:12Z</time>
      </trkpt>
      <trkpt lat="45.95128" lon="4.74776">
        <ele>194</ele>
        <time>2016-09-10T08:55:13Z</time>
      </trkpt>
      <trkpt lat="45.95131" lon="4.74782">
        <ele>194</ele>
        <time>2016-09-10T08:55:14Z</time>
      </trkpt>
      <trkpt lat="45.95135" lon="4.74788">
        <ele>194</ele>
        <time>2016-09-10T08:55:15Z</time>
      </trkpt>
      <trkpt lat="45.95138" lon="4.74794">
        <ele>194</ele>
        <time>2016-09-10T08:55:16Z</time>
      </trkpt>
      <trkpt lat="45.95142" lon="4.74801">
        <ele>194</ele>
        <time>2016-09-10T08:55:17Z</time>
      </trkpt>
      <trkpt lat="45.95146" lon="4.74807">
        <ele>194</ele>
        <time>2016-09-10T08:55:18Z</time>
      </trkpt>
      <trkpt lat="45.9515" lon="4.74813">
        <ele>194</ele>
        <time>2016-09-10T08:55:19Z</time>
      </trkpt>
      <trkpt lat="45.95154" lon="4.74819">
        <ele>194</ele>
        <time>2016-09-10T08:55:20Z</time>
      </trkpt>
      <trkpt lat="45.95158" lon="4.74824">
        <ele>194</ele>
        <time>2016-09-10T08:55:21Z</time>
      </trkpt>
      <trkpt lat="45.95162" lon="4.7483">
        <ele>194</ele>
        <time>2016-09-10T08:55:22Z</time>
      </trkpt>
      <trkpt lat="45.95165" lon="4.74835">
        <ele>194</ele>
        <time>2016-09-10T08:55:23Z</time>
      </trkpt>
      <trkpt lat="45.95169" lon="4.7484">
        <ele>194</ele>
        <time>2016-09-10T08:55:24Z</time>
      </trkpt>
      <trkpt lat="45.95173" lon="4.74846">
        <ele>194</ele>
        <time>2016-09-10T08:55:25Z</time>
      </trkpt>
      <trkpt lat="45.95176" lon="4.74851">
        <ele>194</ele>
        <time>2016-09-10T08:55:26Z</time>
      </trkpt>
      <trkpt lat="45.9518" lon="4.74857">
        <ele>194</ele>
        <time>2016-09-10T08:55:27Z</time>
      </trkpt>
      <trkpt lat="45.95183" lon="4.74862">
        <ele>194</ele>
        <time>2016-09-10T08:55:28Z</time>
      </trkpt>
      <trkpt lat="45.95187" lon="4.74867">
        <ele>194</ele>
        <time>2016-09-10T08:55:29Z</time>
      </trkpt>
      <trkpt lat="45.9519" lon="4.74873">
        <ele>194</ele>
        <time>2016-09-10T08:55:30Z</time>
      </trkpt>
      <trkpt lat="45.95194" lon="4.74879">
        <ele>194</ele>
        <time>2016-09-10T08:55:31Z</time>
      </trkpt>
      <trkpt lat="45.95198" lon="4.74886">
        <ele>194</ele>
        <time>2016-09-10T08:55:32Z</time>
      </trkpt>
      <trkpt lat="45.95202" lon="4.74892">
        <ele>194</ele>
        <time>2016-09-10T08:55:33Z</time>
      </trkpt>
      <trkpt lat="45.95207" lon="4.74899">
        <ele>194</ele>
        <time>2016-09-10T08:55:34Z</time>
      </trkpt>
      <trkpt lat="45.95211" lon="4.74905">
        <ele>193</ele>
        <time>2016-09-10T08:55:35Z</time>
      </trkpt>
      <trkpt lat="45.95215" lon="4.74912">
        <ele>193</ele>
        <time>2016-09-10T08:55:36Z</time>
      </trkpt>
      <trkpt lat="45.9522" lon="4.74919">
        <ele>192</ele>
        <time>2016-09-10T08:55:37Z</time>
      </trkpt>
      <trkpt lat="45.95223" lon="4.74925">
        <ele>192</ele>
        <time>2016-09-10T08:55:38Z</time>
      </trkpt>
      <trkpt lat="45.95227" lon="4.74931">
        <ele>192</ele>
        <time>2016-09-10T08:55:39Z</time>
      </trkpt>
      <trkpt lat="45.9523" lon="4.74937">
        <ele>192</ele>
        <time>2016-09-10T08:55:40Z</time>
      </trkpt>
      <trkpt lat="45.95233" lon="4.74943">
        <ele>192</ele>
        <time>2016-09-10T08:55:41Z</time>
      </trkpt>
      <trkpt lat="45.95236" lon="4.74948">
        <ele>192</ele>
        <time>2016-09-10T08:55:42Z</time>
      </trkpt>
      <trkpt lat="45.9524" lon="4.74954">
        <ele>192</ele>
        <time>2016-09-10T08:55:43Z</time>
      </trkpt>
      <trkpt lat="45.95244" lon="4.74959">
        <ele>191</ele>
        <time>2016-09-10T08:55:44Z</time>
      </trkpt>
      <trkpt lat="45.95248" lon="4.74965">
        <ele>191</ele>
        <time>2016-09-10T08:55:45Z</time>
      </trkpt>
      <trkpt lat="45.95251" lon="4.7497">
        <ele>192</ele>
        <time>2016-09-10T08:55:46Z</time>
      </trkpt>
      <trkpt lat="45.95255" lon="4.74976">
        <ele>192</ele>
        <time>2016-09-10T08:55:47Z</time>
      </trkpt>
      <trkpt lat="45.95259" lon="4.74983">
        <ele>192</ele>
        <time>2016-09-10T08:55:48Z</time>
      </trkpt>
      <trkpt lat="45.95263" lon="4.74989">
        <ele>192</ele>
        <time>2016-09-10T08:55:49Z</time>
      </trkpt>
      <trkpt lat="45.95267" lon="4.74996">
        <ele>192</ele>
        <time>2016-09-10T08:55:50Z</time>
      </trkpt>
      <trkpt lat="45.95271" lon="4.75003">
        <ele>191</ele>
        <time>2016-09-10T08:55:51Z</time>
      </trkpt>
      <trkpt lat="45.95275" lon="4.75009">
        <ele>191</ele>
        <time>2016-09-10T08:55:52Z</time>
      </trkpt>
      <trkpt lat="45.95279" lon="4.75015">
        <ele>191</ele>
        <time>2016-09-10T08:55:53Z</time>
      </trkpt>
      <trkpt lat="45.95283" lon="4.75021">
        <ele>191</ele>
        <time>2016-09-10T08:55:54Z</time>
      </trkpt>
      <trkpt lat="45.95287" lon="4.75027">
        <ele>191</ele>
        <time>2016-09-10T08:55:55Z</time>
      </trkpt>
      <trkpt lat="45.9529" lon="4.75033">
        <ele>191</ele>
        <time>2016-09-10T08:55:56Z</time>
      </trkpt>
      <trkpt lat="45.95294" lon="4.75039">
        <ele>191</ele>
        <time>2016-09-10T08:55:57Z</time>
      </trkpt>
      <trkpt lat="45.95298" lon="4.75045">
        <ele>191</ele>
        <time>2016-09-10T08:55:58Z</time>
      </trkpt>
      <trkpt lat="45.95302" lon="4.75051">
        <ele>191</ele>
        <time>2016-09-10T08:55:59Z</time>
      </trkpt>
      <trkpt lat="45.95306" lon="4.75057">
        <ele>192</ele>
        <time>2016-09-10T08:56:00Z</time>
      </trkpt>
      <trkpt lat="45.9531" lon="4.75064">
        <ele>192</ele>
        <time>2016-09-10T08:56:01Z</time>
      </trkpt>
      <trkpt lat="45.95315" lon="4.7507">
        <ele>192</ele>
        <time>2016-09-10T08:56:02Z</time>
      </trkpt>
      <trkpt lat="45.95319" lon="4.75076">
        <ele>192</ele>
        <time>2016-09-10T08:56:03Z</time>
      </trkpt>
      <trkpt lat="45.95323" lon="4.75082">
        <ele>192</ele>
        <time>2016-09-10T08:56:04Z</time>
      </trkpt>
      <trkpt lat="45.95327" lon="4.75089">
        <ele>192</ele>
        <time>2016-09-10T08:56:05Z</time>
      </trkpt>
      <trkpt lat="45.95331" lon="4.75096">
        <ele>191</ele>
        <time>2016-09-10T08:56:06Z</time>
      </trkpt>
      <trkpt lat="45.95335" lon="4.75102">
        <ele>192</ele>
        <time>2016-09-10T08:56:07Z</time>
      </trkpt>
      <trkpt lat="45.9534" lon="4.75109">
        <ele>192</ele>
        <time>2016-09-10T08:56:08Z</time>
      </trkpt>
      <trkpt lat="45.95344" lon="4.75115">
        <ele>192</ele>
        <time>2016-09-10T08:56:09Z</time>
      </trkpt>
      <trkpt lat="45.95349" lon="4.75122">
        <ele>191</ele>
        <time>2016-09-10T08:56:10Z</time>
      </trkpt>
      <trkpt lat="45.95353" lon="4.75128">
        <ele>191</ele>
        <time>2016-09-10T08:56:11Z</time>
      </trkpt>
      <trkpt lat="45.95358" lon="4.75134">
        <ele>191</ele>
        <time>2016-09-10T08:56:12Z</time>
      </trkpt>
      <trkpt lat="45.95362" lon="4.75141">
        <ele>191</ele>
        <time>2016-09-10T08:56:13Z</time>
      </trkpt>
      <trkpt lat="45.95366" lon="4.75148">
        <ele>191</ele>
        <time>2016-09-10T08:56:14Z</time>
      </trkpt>
      <trkpt lat="45.9537" lon="4.75155">
        <ele>191</ele>
        <time>2016-09-10T08:56:15Z</time>
      </trkpt>
      <trkpt lat="45.95374" lon="4.75161">
        <ele>191</ele>
        <time>2016-09-10T08:56:16Z</time>
      </trkpt>
      <trkpt lat="45.95378" lon="4.75168">
        <ele>189</ele>
        <time>2016-09-10T08:56:17Z</time>
      </trkpt>
      <trkpt lat="45.95381" lon="4.75174">
        <ele>189</ele>
        <time>2016-09-10T08:56:18Z</time>
      </trkpt>
      <trkpt lat="45.95385" lon="4.75181">
        <ele>189</ele>
        <time>2016-09-10T08:56:19Z</time>
      </trkpt>
      <trkpt lat="45.95389" lon="4.75188">
        <ele>189</ele>
        <time>2016-09-10T08:56:20Z</time>
      </trkpt>
      <trkpt lat="45.95393" lon="4.75195">
        <ele>189</ele>
        <time>2016-09-10T08:56:21Z</time>
      </trkpt>
      <trkpt lat="45.95397" lon="4.75201">
        <ele>189</ele>
        <time>2016-09-10T08:56:22Z</time>
      </trkpt>
      <trkpt lat="45.95401" lon="4.75209">
        <ele>189</ele>
        <time>2016-09-10T08:56:23Z</time>
      </trkpt>
      <trkpt lat="45.95405" lon="4.75216">
        <ele>189</ele>
        <time>2016-09-10T08:56:24Z</time>
      </trkpt>
      <trkpt lat="45.95409" lon="4.75223">
        <ele>189</ele>
        <time>2016-09-10T08:56:25Z</time>
      </trkpt>
      <trkpt lat="45.95413" lon="4.7523">
        <ele>189</ele>
        <time>2016-09-10T08:56:26Z</time>
      </trkpt>
      <trkpt lat="45.95417" lon="4.75238">
        <ele>189</ele>
        <time>2016-09-10T08:56:27Z</time>
      </trkpt>
      <trkpt lat="45.95421" lon="4.75245">
        <ele>190</ele>
        <time>2016-09-10T08:56:28Z</time>
      </trkpt>
      <trkpt lat="45.95424" lon="4.75252">
        <ele>189</ele>
        <time>2016-09-10T08:56:29Z</time>
      </trkpt>
      <trkpt lat="45.95428" lon="4.75259">
        <ele>189</ele>
        <time>2016-09-10T08:56:30Z</time>
      </trkpt>
      <trkpt lat="45.95431" lon="4.75266">
        <ele>189</ele>
        <time>2016-09-10T08:56:31Z</time>
      </trkpt>
      <trkpt lat="45.95436" lon="4.75274">
        <ele>189</ele>
        <time>2016-09-10T08:56:32Z</time>
      </trkpt>
      <trkpt lat="45.9544" lon="4.75281">
        <ele>188</ele>
        <time>2016-09-10T08:56:33Z</time>
      </trkpt>
      <trkpt lat="45.95444" lon="4.75288">
        <ele>188</ele>
        <time>2016-09-10T08:56:34Z</time>
      </trkpt>
      <trkpt lat="45.95448" lon="4.75295">
        <ele>188</ele>
        <time>2016-09-10T08:56:35Z</time>
      </trkpt>
      <trkpt lat="45.95452" lon="4.75302">
        <ele>188</ele>
        <time>2016-09-10T08:56:36Z</time>
      </trkpt>
      <trkpt lat="45.95456" lon="4.7531">
        <ele>188</ele>
        <time>2016-09-10T08:56:37Z</time>
      </trkpt>
      <trkpt lat="45.9546" lon="4.75317">
        <ele>188</ele>
        <time>2016-09-10T08:56:38Z</time>
      </trkpt>
      <trkpt lat="45.95464" lon="4.75324">
        <ele>188</ele>
        <time>2016-09-10T08:56:39Z</time>
      </trkpt>
      <trkpt lat="45.95468" lon="4.75331">
        <ele>188</ele>
        <time>2016-09-10T08:56:40Z</time>
      </trkpt>
      <trkpt lat="45.95471" lon="4.75339">
        <ele>186</ele>
        <time>2016-09-10T08:56:41Z</time>
      </trkpt>
      <trkpt lat="45.95475" lon="4.75346">
        <ele>186</ele>
        <time>2016-09-10T08:56:42Z</time>
      </trkpt>
      <trkpt lat="45.95479" lon="4.75353">
        <ele>186</ele>
        <time>2016-09-10T08:56:43Z</time>
      </trkpt>
      <trkpt lat="45.95482" lon="4.7536">
        <ele>186</ele>
        <time>2016-09-10T08:56:44Z</time>
      </trkpt>
      <trkpt lat="45.95486" lon="4.75368">
        <ele>185</ele>
        <time>2016-09-10T08:56:45Z</time>
      </trkpt>
      <trkpt lat="45.95489" lon="4.75375">
        <ele>185</ele>
        <time>2016-09-10T08:56:46Z</time>
      </trkpt>
      <trkpt lat="45.95493" lon="4.75383">
        <ele>185</ele>
        <time>2016-09-10T08:56:47Z</time>
      </trkpt>
      <trkpt lat="45.95495" lon="4.75391">
        <ele>185</ele>
        <time>2016-09-10T08:56:48Z</time>
      </trkpt>
      <trkpt lat="45.95499" lon="4.75398">
        <ele>185</ele>
        <time>2016-09-10T08:56:49Z</time>
      </trkpt>
      <trkpt lat="45.95501" lon="4.75406">
        <ele>187</ele>
        <time>2016-09-10T08:56:50Z</time>
      </trkpt>
      <trkpt lat="45.95504" lon="4.75415">
        <ele>186</ele>
        <time>2016-09-10T08:56:51Z</time>
      </trkpt>
      <trkpt lat="45.95506" lon="4.75423">
        <ele>186</ele>
        <time>2016-09-10T08:56:52Z</time>
      </trkpt>
      <trkpt lat="45.95507" lon="4.75432">
        <ele>186</ele>
        <time>2016-09-10T08:56:53Z</time>
      </trkpt>
      <trkpt lat="45.95509" lon="4.75441">
        <ele>186</ele>
        <time>2016-09-10T08:56:54Z</time>
      </trkpt>
      <trkpt lat="45.95509" lon="4.75451">
        <ele>187</ele>
        <time>2016-09-10T08:56:55Z</time>
      </trkpt>
      <trkpt lat="45.95509" lon="4.7546">
        <ele>186</ele>
        <time>2016-09-10T08:56:56Z</time>
      </trkpt>
      <trkpt lat="45.95509" lon="4.75468">
        <ele>186</ele>
        <time>2016-09-10T08:56:57Z</time>
      </trkpt>
      <trkpt lat="45.95509" lon="4.75477">
        <ele>186</ele>
        <time>2016-09-10T08:56:58Z</time>
      </trkpt>
      <trkpt lat="45.9551" lon="4.75485">
        <ele>186</ele>
        <time>2016-09-10T08:56:59Z</time>
      </trkpt>
      <trkpt lat="45.95513" lon="4.75492">
        <ele>186</ele>
        <time>2016-09-10T08:57:00Z</time>
      </trkpt>
      <trkpt lat="45.95517" lon="4.75497">
        <ele>186</ele>
        <time>2016-09-10T08:57:01Z</time>
      </trkpt>
      <trkpt lat="45.95522" lon="4.75501">
        <ele>185</ele>
        <time>2016-09-10T08:57:02Z</time>
      </trkpt>
      <trkpt lat="45.95527" lon="4.75506">
        <ele>185</ele>
        <time>2016-09-10T08:57:03Z</time>
      </trkpt>
      <trkpt lat="45.95532" lon="4.7551">
        <ele>185</ele>
        <time>2016-09-10T08:57:04Z</time>
      </trkpt>
      <trkpt lat="45.95537" lon="4.75516">
        <ele>186</ele>
        <time>2016-09-10T08:57:05Z</time>
      </trkpt>
      <trkpt lat="45.95542" lon="4.75521">
        <ele>186</ele>
        <time>2016-09-10T08:57:06Z</time>
      </trkpt>
      <trkpt lat="45.95547" lon="4.75526">
        <ele>186</ele>
        <time>2016-09-10T08:57:07Z</time>
      </trkpt>
      <trkpt lat="45.95552" lon="4.75531">
        <ele>186</ele>
        <time>2016-09-10T08:57:08Z</time>
      </trkpt>
      <trkpt lat="45.95557" lon="4.75535">
        <ele>186</ele>
        <time>2016-09-10T08:57:09Z</time>
      </trkpt>
      <trkpt lat="45.95562" lon="4.75539">
        <ele>186</ele>
        <time>2016-09-10T08:57:10Z</time>
      </trkpt>
      <trkpt lat="45.95567" lon="4.75544">
        <ele>186</ele>
        <time>2016-09-10T08:57:11Z</time>
      </trkpt>
      <trkpt lat="45.95572" lon="4.75549">
        <ele>186</ele>
        <time>2016-09-10T08:57:12Z</time>
      </trkpt>
      <trkpt lat="45.95577" lon="4.75554">
        <ele>186</ele>
        <time>2016-09-10T08:57:13Z</time>
      </trkpt>
      <trkpt lat="45.95581" lon="4.7556">
        <ele>186</ele>
        <time>2016-09-10T08:57:14Z</time>
      </trkpt>
      <trkpt lat="45.95585" lon="4.75566">
        <ele>188</ele>
        <time>2016-09-10T08:57:15Z</time>
      </trkpt>
      <trkpt lat="45.95589" lon="4.75573">
        <ele>187</ele>
        <time>2016-09-10T08:57:16Z</time>
      </trkpt>
      <trkpt lat="45.95593" lon="4.7558">
        <ele>187</ele>
        <time>2016-09-10T08:57:17Z</time>
      </trkpt>
      <trkpt lat="45.95597" lon="4.75587">
        <ele>187</ele>
        <time>2016-09-10T08:57:18Z</time>
      </trkpt>
      <trkpt lat="45.956" lon="4.75594">
        <ele>187</ele>
        <time>2016-09-10T08:57:19Z</time>
      </trkpt>
      <trkpt lat="45.95603" lon="4.75601">
        <ele>187</ele>
        <time>2016-09-10T08:57:20Z</time>
      </trkpt>
      <trkpt lat="45.95605" lon="4.75609">
        <ele>187</ele>
        <time>2016-09-10T08:57:21Z</time>
      </trkpt>
      <trkpt lat="45.95608" lon="4.75617">
        <ele>188</ele>
        <time>2016-09-10T08:57:22Z</time>
      </trkpt>
      <trkpt lat="45.9561" lon="4.75624">
        <ele>188</ele>
        <time>2016-09-10T08:57:23Z</time>
      </trkpt>
      <trkpt lat="45.95612" lon="4.75631">
        <ele>188</ele>
        <time>2016-09-10T08:57:24Z</time>
      </trkpt>
      <trkpt lat="45.95614" lon="4.75639">
        <ele>188</ele>
        <time>2016-09-10T08:57:25Z</time>
      </trkpt>
      <trkpt lat="45.95616" lon="4.75646">
        <ele>188</ele>
        <time>2016-09-10T08:57:26Z</time>
      </trkpt>
      <trkpt lat="45.95617" lon="4.75654">
        <ele>188</ele>
        <time>2016-09-10T08:57:27Z</time>
      </trkpt>
      <trkpt lat="45.95619" lon="4.75662">
        <ele>188</ele>
        <time>2016-09-10T08:57:28Z</time>
      </trkpt>
      <trkpt lat="45.9562" lon="4.7567">
        <ele>187</ele>
        <time>2016-09-10T08:57:29Z</time>
      </trkpt>
      <trkpt lat="45.95621" lon="4.75678">
        <ele>187</ele>
        <time>2016-09-10T08:57:30Z</time>
      </trkpt>
      <trkpt lat="45.95622" lon="4.75685">
        <ele>187</ele>
        <time>2016-09-10T08:57:31Z</time>
      </trkpt>
      <trkpt lat="45.95622" lon="4.75692">
        <ele>187</ele>
        <time>2016-09-10T08:57:32Z</time>
      </trkpt>
      <trkpt lat="45.95623" lon="4.757">
        <ele>187</ele>
        <time>2016-09-10T08:57:33Z</time>
      </trkpt>
      <trkpt lat="45.95624" lon="4.75707">
        <ele>187</ele>
        <time>2016-09-10T08:57:34Z</time>
      </trkpt>
      <trkpt lat="45.95625" lon="4.75714">
        <ele>187</ele>
        <time>2016-09-10T08:57:35Z</time>
      </trkpt>
      <trkpt lat="45.95626" lon="4.75721">
        <ele>187</ele>
        <time>2016-09-10T08:57:36Z</time>
      </trkpt>
      <trkpt lat="45.95627" lon="4.75729">
        <ele>187</ele>
        <time>2016-09-10T08:57:37Z</time>
      </trkpt>
      <trkpt lat="45.95628" lon="4.75737">
        <ele>187</ele>
        <time>2016-09-10T08:57:38Z</time>
      </trkpt>
      <trkpt lat="45.95629" lon="4.75745">
        <ele>187</ele>
        <time>2016-09-10T08:57:39Z</time>
      </trkpt>
      <trkpt lat="45.95631" lon="4.75752">
        <ele>186</ele>
        <time>2016-09-10T08:57:40Z</time>
      </trkpt>
      <trkpt lat="45.95631" lon="4.7576">
        <ele>186</ele>
        <time>2016-09-10T08:57:41Z</time>
      </trkpt>
      <trkpt lat="45.95632" lon="4.75767">
        <ele>186</ele>
        <time>2016-09-10T08:57:42Z</time>
      </trkpt>
      <trkpt lat="45.95634" lon="4.75776">
        <ele>185</ele>
        <time>2016-09-10T08:57:43Z</time>
      </trkpt>
      <trkpt lat="45.95635" lon="4.75785">
        <ele>185</ele>
        <time>2016-09-10T08:57:44Z</time>
      </trkpt>
      <trkpt lat="45.95637" lon="4.75793">
        <ele>185</ele>
        <time>2016-09-10T08:57:45Z</time>
      </trkpt>
      <trkpt lat="45.95638" lon="4.75802">
        <ele>185</ele>
        <time>2016-09-10T08:57:46Z</time>
      </trkpt>
      <trkpt lat="45.9564" lon="4.75811">
        <ele>185</ele>
        <time>2016-09-10T08:57:47Z</time>
      </trkpt>
      <trkpt lat="45.95642" lon="4.7582">
        <ele>185</ele>
        <time>2016-09-10T08:57:48Z</time>
      </trkpt>
      <trkpt lat="45.95643" lon="4.75828">
        <ele>185</ele>
        <time>2016-09-10T08:57:49Z</time>
      </trkpt>
      <trkpt lat="45.95645" lon="4.75836">
        <ele>184</ele>
        <time>2016-09-10T08:57:50Z</time>
      </trkpt>
      <trkpt lat="45.95648" lon="4.75845">
        <ele>184</ele>
        <time>2016-09-10T08:57:51Z</time>
      </trkpt>
      <trkpt lat="45.9565" lon="4.75853">
        <ele>184</ele>
        <time>2016-09-10T08:57:52Z</time>
      </trkpt>
      <trkpt lat="45.95652" lon="4.75861">
        <ele>184</ele>
        <time>2016-09-10T08:57:53Z</time>
      </trkpt>
      <trkpt lat="45.95654" lon="4.7587">
        <ele>184</ele>
        <time>2016-09-10T08:57:54Z</time>
      </trkpt>
      <trkpt lat="45.95657" lon="4.75878">
        <ele>184</ele>
        <time>2016-09-10T08:57:55Z</time>
      </trkpt>
      <trkpt lat="45.9566" lon="4.75885">
        <ele>184</ele>
        <time>2016-09-10T08:57:56Z</time>
      </trkpt>
      <trkpt lat="45.95663" lon="4.75893">
        <ele>184</ele>
        <time>2016-09-10T08:57:57Z</time>
      </trkpt>
      <trkpt lat="45.95666" lon="4.75901">
        <ele>184</ele>
        <time>2016-09-10T08:57:58Z</time>
      </trkpt>
      <trkpt lat="45.95669" lon="4.7591">
        <ele>185</ele>
        <time>2016-09-10T08:57:59Z</time>
      </trkpt>
      <trkpt lat="45.95672" lon="4.75918">
        <ele>184</ele>
        <time>2016-09-10T08:58:00Z</time>
      </trkpt>
      <trkpt lat="45.95676" lon="4.75925">
        <ele>185</ele>
        <time>2016-09-10T08:58:01Z</time>
      </trkpt>
      <trkpt lat="45.95679" lon="4.75933">
        <ele>185</ele>
        <time>2016-09-10T08:58:02Z</time>
      </trkpt>
      <trkpt lat="45.95682" lon="4.75941">
        <ele>185</ele>
        <time>2016-09-10T08:58:03Z</time>
      </trkpt>
      <trkpt lat="45.95685" lon="4.75948">
        <ele>185</ele>
        <time>2016-09-10T08:58:04Z</time>
      </trkpt>
      <trkpt lat="45.95688" lon="4.75956">
        <ele>185</ele>
        <time>2016-09-10T08:58:05Z</time>
      </trkpt>
      <trkpt lat="45.95691" lon="4.75962">
        <ele>185</ele>
        <time>2016-09-10T08:58:06Z</time>
      </trkpt>
      <trkpt lat="45.95695" lon="4.75969">
        <ele>185</ele>
        <time>2016-09-10T08:58:07Z</time>
      </trkpt>
      <trkpt lat="45.95698" lon="4.75976">
        <ele>185</ele>
        <time>2016-09-10T08:58:08Z</time>
      </trkpt>
      <trkpt lat="45.95701" lon="4.75982">
        <ele>185</ele>
        <time>2016-09-10T08:58:09Z</time>
      </trkpt>
      <trkpt lat="45.95704" lon="4.75988">
        <ele>185</ele>
        <time>2016-09-10T08:58:10Z</time>
      </trkpt>
      <trkpt lat="45.95707" lon="4.75995">
        <ele>185</ele>
        <time>2016-09-10T08:58:11Z</time>
      </trkpt>
      <trkpt lat="45.95711" lon="4.76002">
        <ele>184</ele>
        <time>2016-09-10T08:58:12Z</time>
      </trkpt>
      <trkpt lat="45.95714" lon="4.76008">
        <ele>184</ele>
        <time>2016-09-10T08:58:13Z</time>
      </trkpt>
      <trkpt lat="45.95717" lon="4.76015">
        <ele>184</ele>
        <time>2016-09-10T08:58:14Z</time>
      </trkpt>
      <trkpt lat="45.9572" lon="4.76022">
        <ele>184</ele>
        <time>2016-09-10T08:58:15Z</time>
      </trkpt>
      <trkpt lat="45.95723" lon="4.76029">
        <ele>184</ele>
        <time>2016-09-10T08:58:16Z</time>
      </trkpt>
      <trkpt lat="45.95726" lon="4.76036">
        <ele>184</ele>
        <time>2016-09-10T08:58:17Z</time>
      </trkpt>
      <trkpt lat="45.95729" lon="4.76043">
        <ele>184</ele>
        <time>2016-09-10T08:58:18Z</time>
      </trkpt>
      <trkpt lat="45.95732" lon="4.7605">
        <ele>184</ele>
        <time>2016-09-10T08:58:19Z</time>
      </trkpt>
      <trkpt lat="45.95735" lon="4.76056">
        <ele>184</ele>
        <time>2016-09-10T08:58:20Z</time>
      </trkpt>
      <trkpt lat="45.95738" lon="4.76063">
        <ele>184</ele>
        <time>2016-09-10T08:58:21Z</time>
      </trkpt>
      <trkpt lat="45.95741" lon="4.76069">
        <ele>185</ele>
        <time>2016-09-10T08:58:22Z</time>
      </trkpt>
      <trkpt lat="45.95743" lon="4.76076">
        <ele>185</ele>
        <time>2016-09-10T08:58:23Z</time>
      </trkpt>
      <trkpt lat="45.95746" lon="4.76082">
        <ele>185</ele>
        <time>2016-09-10T08:58:24Z</time>
      </trkpt>
      <trkpt lat="45.95748" lon="4.76088">
        <ele>185</ele>
        <time>2016-09-10T08:58:25Z</time>
      </trkpt>
      <trkpt lat="45.9575" lon="4.76095">
        <ele>186</ele>
        <time>2016-09-10T08:58:26Z</time>
      </trkpt>
      <trkpt lat="45.95752" lon="4.76102">
        <ele>186</ele>
        <time>2016-09-10T08:58:27Z</time>
      </trkpt>
      <trkpt lat="45.95754" lon="4.7611">
        <ele>186</ele>
        <time>2016-09-10T08:58:28Z</time>
      </trkpt>
      <trkpt lat="45.95755" lon="4.76118">
        <ele>186</ele>
        <time>2016-09-10T08:58:29Z</time>
      </trkpt>
      <trkpt lat="45.95756" lon="4.76126">
        <ele>186</ele>
        <time>2016-09-10T08:58:30Z</time>
      </trkpt>
      <trkpt lat="45.95757" lon="4.76135">
        <ele>186</ele>
        <time>2016-09-10T08:58:31Z</time>
      </trkpt>
      <trkpt lat="45.95758" lon="4.76143">
        <ele>186</ele>
        <time>2016-09-10T08:58:32Z</time>
      </trkpt>
      <trkpt lat="45.95759" lon="4.76152">
        <ele>186</ele>
        <time>2016-09-10T08:58:33Z</time>
      </trkpt>
      <trkpt lat="45.95759" lon="4.7616">
        <ele>186</ele>
        <time>2016-09-10T08:58:34Z</time>
      </trkpt>
      <trkpt lat="45.95759" lon="4.76168">
        <ele>185</ele>
        <time>2016-09-10T08:58:35Z</time>
      </trkpt>
      <trkpt lat="45.9576" lon="4.76177">
        <ele>185</ele>
        <time>2016-09-10T08:58:36Z</time>
      </trkpt>
      <trkpt lat="45.9576" lon="4.76185">
        <ele>186</ele>
        <time>2016-09-10T08:58:37Z</time>
      </trkpt>
      <trkpt lat="45.95761" lon="4.76193">
        <ele>186</ele>
        <time>2016-09-10T08:58:38Z</time>
      </trkpt>
      <trkpt lat="45.95761" lon="4.76201">
        <ele>186</ele>
        <time>2016-09-10T08:58:39Z</time>
      </trkpt>
      <trkpt lat="45.95762" lon="4.76209">
        <ele>186</ele>
        <time>2016-09-10T08:58:40Z</time>
      </trkpt>
      <trkpt lat="45.95762" lon="4.76217">
        <ele>186</ele>
        <time>2016-09-10T08:58:41Z</time>
      </trkpt>
      <trkpt lat="45.95762" lon="4.76225">
        <ele>186</ele>
        <time>2016-09-10T08:58:42Z</time>
      </trkpt>
      <trkpt lat="45.95763" lon="4.76233">
        <ele>186</ele>
        <time>2016-09-10T08:58:43Z</time>
      </trkpt>
      <trkpt lat="45.95764" lon="4.7624">
        <ele>186</ele>
        <time>2016-09-10T08:58:44Z</time>
      </trkpt>
      <trkpt lat="45.95765" lon="4.76247">
        <ele>185</ele>
        <time>2016-09-10T08:58:45Z</time>
      </trkpt>
      <trkpt lat="45.95765" lon="4.76255">
        <ele>185</ele>
        <time>2016-09-10T08:58:46Z</time>
      </trkpt>
      <trkpt lat="45.95765" lon="4.76262">
        <ele>185</ele>
        <time>2016-09-10T08:58:47Z</time>
      </trkpt>
      <trkpt lat="45.95765" lon="4.7627">
        <ele>185</ele>
        <time>2016-09-10T08:58:48Z</time>
      </trkpt>
      <trkpt lat="45.95766" lon="4.76279">
        <ele>186</ele>
        <time>2016-09-10T08:58:49Z</time>
      </trkpt>
      <trkpt lat="45.95766" lon="4.76287">
        <ele>186</ele>
        <time>2016-09-10T08:58:50Z</time>
      </trkpt>
      <trkpt lat="45.95767" lon="4.76295">
        <ele>186</ele>
        <time>2016-09-10T08:58:51Z</time>
      </trkpt>
      <trkpt lat="45.95767" lon="4.76302">
        <ele>186</ele>
        <time>2016-09-10T08:58:52Z</time>
      </trkpt>
      <trkpt lat="45.95767" lon="4.7631">
        <ele>185</ele>
        <time>2016-09-10T08:58:53Z</time>
      </trkpt>
      <trkpt lat="45.95767" lon="4.76318">
        <ele>185</ele>
        <time>2016-09-10T08:58:54Z</time>
      </trkpt>
      <trkpt lat="45.95767" lon="4.76327">
        <ele>185</ele>
        <time>2016-09-10T08:58:55Z</time>
      </trkpt>
      <trkpt lat="45.95768" lon="4.76335">
        <ele>185</ele>
        <time>2016-09-10T08:58:56Z</time>
      </trkpt>
      <trkpt lat="45.95769" lon="4.76344">
        <ele>186</ele>
        <time>2016-09-10T08:58:57Z</time>
      </trkpt>
      <trkpt lat="45.95769" lon="4.76352">
        <ele>186</ele>
        <time>2016-09-10T08:58:58Z</time>
      </trkpt>
      <trkpt lat="45.9577" lon="4.7636">
        <ele>186</ele>
        <time>2016-09-10T08:58:59Z</time>
      </trkpt>
      <trkpt lat="45.9577" lon="4.76367">
        <ele>186</ele>
        <time>2016-09-10T08:59:00Z</time>
      </trkpt>
      <trkpt lat="45.9577" lon="4.76374">
        <ele>186</ele>
        <time>2016-09-10T08:59:01Z</time>
      </trkpt>
      <trkpt lat="45.9577" lon="4.76381">
        <ele>186</ele>
        <time>2016-09-10T08:59:02Z</time>
      </trkpt>
      <trkpt lat="45.95771" lon="4.76388">
        <ele>186</ele>
        <time>2016-09-10T08:59:03Z</time>
      </trkpt>
      <trkpt lat="45.95771" lon="4.76395">
        <ele>186</ele>
        <time>2016-09-10T08:59:04Z</time>
      </trkpt>
      <trkpt lat="45.95772" lon="4.76402">
        <ele>186</ele>
        <time>2016-09-10T08:59:05Z</time>
      </trkpt>
      <trkpt lat="45.95773" lon="4.7641">
        <ele>186</ele>
        <time>2016-09-10T08:59:06Z</time>
      </trkpt>
      <trkpt lat="45.95774" lon="4.76417">
        <ele>186</ele>
        <time>2016-09-10T08:59:07Z</time>
      </trkpt>
      <trkpt lat="45.95775" lon="4.76425">
        <ele>186</ele>
        <time>2016-09-10T08:59:08Z</time>
      </trkpt>
      <trkpt lat="45.95776" lon="4.76433">
        <ele>186</ele>
        <time>2016-09-10T08:59:09Z</time>
      </trkpt>
      <trkpt lat="45.95777" lon="4.76441">
        <ele>186</ele>
        <time>2016-09-10T08:59:10Z</time>
      </trkpt>
      <trkpt lat="45.95778" lon="4.7645">
        <ele>186</ele>
        <time>2016-09-10T08:59:11Z</time>
      </trkpt>
      <trkpt lat="45.95779" lon="4.76458">
        <ele>186</ele>
        <time>2016-09-10T08:59:12Z</time>
      </trkpt>
      <trkpt lat="45.9578" lon="4.76465">
        <ele>186</ele>
        <time>2016-09-10T08:59:13Z</time>
      </trkpt>
      <trkpt lat="45.95782" lon="4.76473">
        <ele>186</ele>
        <time>2016-09-10T08:59:14Z</time>
      </trkpt>
      <trkpt lat="45.95783" lon="4.7648">
        <ele>186</ele>
        <time>2016-09-10T08:59:15Z</time>
      </trkpt>
      <trkpt lat="45.95784" lon="4.76488">
        <ele>186</ele>
        <time>2016-09-10T08:59:16Z</time>
      </trkpt>
      <trkpt lat="45.95785" lon="4.76495">
        <ele>186</ele>
        <time>2016-09-10T08:59:17Z</time>
      </trkpt>
      <trkpt lat="45.95786" lon="4.76502">
        <ele>186</ele>
        <time>2016-09-10T08:59:18Z</time>
      </trkpt>
      <trkpt lat="45.95787" lon="4.7651">
        <ele>187</ele>
        <time>2016-09-10T08:59:19Z</time>
      </trkpt>
      <trkpt lat="45.95788" lon="4.76517">
        <ele>187</ele>
        <time>2016-09-10T08:59:20Z</time>
      </trkpt>
      <trkpt lat="45.95789" lon="4.76524">
        <ele>187</ele>
        <time>2016-09-10T08:59:21Z</time>
      </trkpt>
      <trkpt lat="45.9579" lon="4.76531">
        <ele>187</ele>
        <time>2016-09-10T08:59:22Z</time>
      </trkpt>
      <trkpt lat="45.95791" lon="4.76538">
        <ele>187</ele>
        <time>2016-09-10T08:59:23Z</time>
      </trkpt>
      <trkpt lat="45.95791" lon="4.76545">
        <ele>187</ele>
        <time>2016-09-10T08:59:24Z</time>
      </trkpt>
      <trkpt lat="45.95792" lon="4.76551">
        <ele>187</ele>
        <time>2016-09-10T08:59:25Z</time>
      </trkpt>
      <trkpt lat="45.95793" lon="4.76558">
        <ele>187</ele>
        <time>2016-09-10T08:59:26Z</time>
      </trkpt>
      <trkpt lat="45.95794" lon="4.76566">
        <ele>187</ele>
        <time>2016-09-10T08:59:27Z</time>
      </trkpt>
      <trkpt lat="45.95795" lon="4.76573">
        <ele>187</ele>
        <time>2016-09-10T08:59:28Z</time>
      </trkpt>
      <trkpt lat="45.95796" lon="4.7658">
        <ele>187</ele>
        <time>2016-09-10T08:59:29Z</time>
      </trkpt>
      <trkpt lat="45.95797" lon="4.76587">
        <ele>187</ele>
        <time>2016-09-10T08:59:30Z</time>
      </trkpt>
      <trkpt lat="45.95798" lon="4.76594">
        <ele>187</ele>
        <time>2016-09-10T08:59:31Z</time>
      </trkpt>
      <trkpt lat="45.95799" lon="4.76601">
        <ele>187</ele>
        <time>2016-09-10T08:59:32Z</time>
      </trkpt>
      <trkpt lat="45.958" lon="4.76608">
        <ele>187</ele>
        <time>2016-09-10T08:59:33Z</time>
      </trkpt>
      <trkpt lat="45.95802" lon="4.76614">
        <ele>188</ele>
        <time>2016-09-10T08:59:34Z</time>
      </trkpt>
      <trkpt lat="45.95802" lon="4.76621">
        <ele>188</ele>
        <time>2016-09-10T08:59:35Z</time>
      </trkpt>
      <trkpt lat="45.95803" lon="4.76628">
        <ele>188</ele>
        <time>2016-09-10T08:59:36Z</time>
      </trkpt>
      <trkpt lat="45.95804" lon="4.76635">
        <ele>188</ele>
        <time>2016-09-10T08:59:37Z</time>
      </trkpt>
      <trkpt lat="45.95805" lon="4.76642">
        <ele>188</ele>
        <time>2016-09-10T08:59:38Z</time>
      </trkpt>
      <trkpt lat="45.95806" lon="4.7665">
        <ele>188</ele>
        <time>2016-09-10T08:59:39Z</time>
      </trkpt>
      <trkpt lat="45.95807" lon="4.76658">
        <ele>188</ele>
        <time>2016-09-10T08:59:40Z</time>
      </trkpt>
      <trkpt lat="45.95809" lon="4.76666">
        <ele>188</ele>
        <time>2016-09-10T08:59:41Z</time>
      </trkpt>
      <trkpt lat="45.9581" lon="4.76674">
        <ele>189</ele>
        <time>2016-09-10T08:59:42Z</time>
      </trkpt>
      <trkpt lat="45.95812" lon="4.76683">
        <ele>189</ele>
        <time>2016-09-10T08:59:43Z</time>
      </trkpt>
      <trkpt lat="45.95813" lon="4.76691">
        <ele>189</ele>
        <time>2016-09-10T08:59:44Z</time>
      </trkpt>
      <trkpt lat="45.95816" lon="4.76699">
        <ele>189</ele>
        <time>2016-09-10T08:59:45Z</time>
      </trkpt>
      <trkpt lat="45.95816" lon="4.76706">
        <ele>189</ele>
        <time>2016-09-10T08:59:46Z</time>
      </trkpt>
      <trkpt lat="45.95817" lon="4.76714">
        <ele>189</ele>
        <time>2016-09-10T08:59:47Z</time>
      </trkpt>
      <trkpt lat="45.95819" lon="4.76721">
        <ele>189</ele>
        <time>2016-09-10T08:59:48Z</time>
      </trkpt>
      <trkpt lat="45.9582" lon="4.76729">
        <ele>190</ele>
        <time>2016-09-10T08:59:49Z</time>
      </trkpt>
      <trkpt lat="45.95821" lon="4.76736">
        <ele>190</ele>
        <time>2016-09-10T08:59:50Z</time>
      </trkpt>
      <trkpt lat="45.95821" lon="4.76743">
        <ele>190</ele>
        <time>2016-09-10T08:59:51Z</time>
      </trkpt>
      <trkpt lat="45.95822" lon="4.7675">
        <ele>191</ele>
        <time>2016-09-10T08:59:52Z</time>
      </trkpt>
      <trkpt lat="45.95823" lon="4.76757">
        <ele>190</ele>
        <time>2016-09-10T08:59:53Z</time>
      </trkpt>
      <trkpt lat="45.95824" lon="4.76764">
        <ele>190</ele>
        <time>2016-09-10T08:59:54Z</time>
      </trkpt>
      <trkpt lat="45.95825" lon="4.76771">
        <ele>190</ele>
        <time>2016-09-10T08:59:55Z</time>
      </trkpt>
      <trkpt lat="45.95825" lon="4.76778">
        <ele>190</ele>
        <time>2016-09-10T08:59:56Z</time>
      </trkpt>
      <trkpt lat="45.95825" lon="4.76784">
        <ele>190</ele>
        <time>2016-09-10T08:59:57Z</time>
      </trkpt>
      <trkpt lat="45.95826" lon="4.76791">
        <ele>190</ele>
        <time>2016-09-10T08:59:58Z</time>
      </trkpt>
      <trkpt lat="45.95827" lon="4.76798">
        <ele>190</ele>
        <time>2016-09-10T08:59:59Z</time>
      </trkpt>
      <trkpt lat="45.95827" lon="4.76806">
        <ele>190</ele>
        <time>2016-09-10T09:00:00Z</time>
      </trkpt>
      <trkpt lat="45.95827" lon="4.76814">
        <ele>190</ele>
        <time>2016-09-10T09:00:01Z</time>
      </trkpt>
      <trkpt lat="45.95825" lon="4.76822">
        <ele>190</ele>
        <time>2016-09-10T09:00:02Z</time>
      </trkpt>
      <trkpt lat="45.95824" lon="4.7683">
        <ele>190</ele>
        <time>2016-09-10T09:00:03Z</time>
      </trkpt>
      <trkpt lat="45.95823" lon="4.76838">
        <ele>190</ele>
        <time>2016-09-10T09:00:04Z</time>
      </trkpt>
      <trkpt lat="45.95821" lon="4.76846">
        <ele>190</ele>
        <time>2016-09-10T09:00:05Z</time>
      </trkpt>
      <trkpt lat="45.9582" lon="4.76854">
        <ele>189</ele>
        <time>2016-09-10T09:00:06Z</time>
      </trkpt>
      <trkpt lat="45.95818" lon="4.76862">
        <ele>189</ele>
        <time>2016-09-10T09:00:07Z</time>
      </trkpt>
      <trkpt lat="45.95817" lon="4.76869">
        <ele>189</ele>
        <time>2016-09-10T09:00:08Z</time>
      </trkpt>
      <trkpt lat="45.95815" lon="4.76877">
        <ele>189</ele>
        <time>2016-09-10T09:00:09Z</time>
      </trkpt>
      <trkpt lat="45.95814" lon="4.76884">
        <ele>189</ele>
        <time>2016-09-10T09:00:10Z</time>
      </trkpt>
      <trkpt lat="45.95813" lon="4.76891">
        <ele>189</ele>
        <time>2016-09-10T09:00:11Z</time>
      </trkpt>
      <trkpt lat="45.95812" lon="4.76899">
        <ele>189</ele>
        <time>2016-09-10T09:00:12Z</time>
      </trkpt>
      <trkpt lat="45.9581" lon="4.76906">
        <ele>189</ele>
        <time>2016-09-10T09:00:13Z</time>
      </trkpt>
      <trkpt lat="45.95808" lon="4.76913">
        <ele>189</ele>
        <time>2016-09-10T09:00:14Z</time>
      </trkpt>
      <trkpt lat="45.95807" lon="4.76921">
        <ele>189</ele>
        <time>2016-09-10T09:00:15Z</time>
      </trkpt>
      <trkpt lat="45.95805" lon="4.76928">
        <ele>189</ele>
        <time>2016-09-10T09:00:16Z</time>
      </trkpt>
      <trkpt lat="45.95803" lon="4.76936">
        <ele>189</ele>
        <time>2016-09-10T09:00:17Z</time>
      </trkpt>
      <trkpt lat="45.95801" lon="4.76943">
        <ele>189</ele>
        <time>2016-09-10T09:00:18Z</time>
      </trkpt>
      <trkpt lat="45.958" lon="4.76951">
        <ele>189</ele>
        <time>2016-09-10T09:00:19Z</time>
      </trkpt>
      <trkpt lat="45.95799" lon="4.76959">
        <ele>189</ele>
        <time>2016-09-10T09:00:20Z</time>
      </trkpt>
      <trkpt lat="45.95798" lon="4.76967">
        <ele>189</ele>
        <time>2016-09-10T09:00:21Z</time>
      </trkpt>
      <trkpt lat="45.95798" lon="4.76976">
        <ele>189</ele>
        <time>2016-09-10T09:00:22Z</time>
      </trkpt>
      <trkpt lat="45.95798" lon="4.76985">
        <ele>189</ele>
        <time>2016-09-10T09:00:23Z</time>
      </trkpt>
      <trkpt lat="45.95798" lon="4.76993">
        <ele>189</ele>
        <time>2016-09-10T09:00:24Z</time>
      </trkpt>
      <trkpt lat="45.95799" lon="4.77001">
        <ele>190</ele>
        <time>2016-09-10T09:00:25Z</time>
      </trkpt>
      <trkpt lat="45.958" lon="4.7701">
        <ele>190</ele>
        <time>2016-09-10T09:00:26Z</time>
      </trkpt>
      <trkpt lat="45.95802" lon="4.77018">
        <ele>190</ele>
        <time>2016-09-10T09:00:27Z</time>
      </trkpt>
      <trkpt lat="45.95804" lon="4.77026">
        <ele>190</ele>
        <time>2016-09-10T09:00:28Z</time>
      </trkpt>
      <trkpt lat="45.95807" lon="4.77033">
        <ele>190</ele>
        <time>2016-09-10T09:00:29Z</time>
      </trkpt>
      <trkpt lat="45.9581" lon="4.7704">
        <ele>190</ele>
        <time>2016-09-10T09:00:30Z</time>
      </trkpt>
      <trkpt lat="45.95813" lon="4.77046">
        <ele>190</ele>
        <time>2016-09-10T09:00:31Z</time>
      </trkpt>
      <trkpt lat="45.95816" lon="4.77053">
        <ele>190</ele>
        <time>2016-09-10T09:00:32Z</time>
      </trkpt>
      <trkpt lat="45.95818" lon="4.77059">
        <ele>190</ele>
        <time>2016-09-10T09:00:33Z</time>
      </trkpt>
      <trkpt lat="45.95821" lon="4.77066">
        <ele>191</ele>
        <time>2016-09-10T09:00:34Z</time>
      </trkpt>
      <trkpt lat="45.95823" lon="4.77073">
        <ele>191</ele>
        <time>2016-09-10T09:00:35Z</time>
      </trkpt>
      <trkpt lat="45.95826" lon="4.7708">
        <ele>191</ele>
        <time>2016-09-10T09:00:36Z</time>
      </trkpt>
      <trkpt lat="45.95829" lon="4.77087">
        <ele>191</ele>
        <time>2016-09-10T09:00:37Z</time>
      </trkpt>
      <trkpt lat="45.95831" lon="4.77094">
        <ele>191</ele>
        <time>2016-09-10T09:00:38Z</time>
      </trkpt>
      <trkpt lat="45.95834" lon="4.77101">
        <ele>193</ele>
        <time>2016-09-10T09:00:39Z</time>
      </trkpt>
      <trkpt lat="45.95836" lon="4.77109">
        <ele>193</ele>
        <time>2016-09-10T09:00:40Z</time>
      </trkpt>
      <trkpt lat="45.95839" lon="4.77116">
        <ele>193</ele>
        <time>2016-09-10T09:00:41Z</time>
      </trkpt>
      <trkpt lat="45.95841" lon="4.77123">
        <ele>193</ele>
        <time>2016-09-10T09:00:42Z</time>
      </trkpt>
      <trkpt lat="45.95844" lon="4.7713">
        <ele>193</ele>
        <time>2016-09-10T09:00:43Z</time>
      </trkpt>
      <trkpt lat="45.95846" lon="4.77137">
        <ele>193</ele>
        <time>2016-09-10T09:00:44Z</time>
      </trkpt>
      <trkpt lat="45.95848" lon="4.77144">
        <ele>192</ele>
        <time>2016-09-10T09:00:45Z</time>
      </trkpt>
      <trkpt lat="45.9585" lon="4.77151">
        <ele>192</ele>
        <time>2016-09-10T09:00:46Z</time>
      </trkpt>
      <trkpt lat="45.95851" lon="4.77158">
        <ele>192</ele>
        <time>2016-09-10T09:00:47Z</time>
      </trkpt>
      <trkpt lat="45.95854" lon="4.77165">
        <ele>192</ele>
        <time>2016-09-10T09:00:48Z</time>
      </trkpt>
      <trkpt lat="45.95856" lon="4.77172">
        <ele>192</ele>
        <time>2016-09-10T09:00:49Z</time>
      </trkpt>
      <trkpt lat="45.95858" lon="4.77179">
        <ele>192</ele>
        <time>2016-09-10T09:00:50Z</time>
      </trkpt>
      <trkpt lat="45.9586" lon="4.77185">
        <ele>192</ele>
        <time>2016-09-10T09:00:51Z</time>
      </trkpt>
      <trkpt lat="45.95862" lon="4.77192">
        <ele>192</ele>
        <time>2016-09-10T09:00:52Z</time>
      </trkpt>
      <trkpt lat="45.95863" lon="4.77199">
        <ele>193</ele>
        <time>2016-09-10T09:00:53Z</time>
      </trkpt>
      <trkpt lat="45.95865" lon="4.77206">
        <ele>193</ele>
        <time>2016-09-10T09:00:54Z</time>
      </trkpt>
      <trkpt lat="45.95866" lon="4.77213">
        <ele>193</ele>
        <time>2016-09-10T09:00:55Z</time>
      </trkpt>
      <trkpt lat="45.95868" lon="4.77221">
        <ele>193</ele>
        <time>2016-09-10T09:00:56Z</time>
      </trkpt>
      <trkpt lat="45.9587" lon="4.77228">
        <ele>193</ele>
        <time>2016-09-10T09:00:57Z</time>
      </trkpt>
      <trkpt lat="45.95871" lon="4.77236">
        <ele>193</ele>
        <time>2016-09-10T09:00:58Z</time>
      </trkpt>
      <trkpt lat="45.95872" lon="4.77243">
        <ele>193</ele>
        <time>2016-09-10T09:00:59Z</time>
      </trkpt>
      <trkpt lat="45.95874" lon="4.77251">
        <ele>193</ele>
        <time>2016-09-10T09:01:00Z</time>
      </trkpt>
      <trkpt lat="45.95875" lon="4.77258">
        <ele>193</ele>
        <time>2016-09-10T09:01:01Z</time>
      </trkpt>
      <trkpt lat="45.95877" lon="4.77265">
        <ele>193</ele>
        <time>2016-09-10T09:01:02Z</time>
      </trkpt>
      <trkpt lat="45.95878" lon="4.77272">
        <ele>193</ele>
        <time>2016-09-10T09:01:03Z</time>
      </trkpt>
      <trkpt lat="45.9588" lon="4.77278">
        <ele>193</ele>
        <time>2016-09-10T09:01:04Z</time>
      </trkpt>
      <trkpt lat="45.95882" lon="4.77285">
        <ele>193</ele>
        <time>2016-09-10T09:01:05Z</time>
      </trkpt>
      <trkpt lat="45.95884" lon="4.77292">
        <ele>193</ele>
        <time>2016-09-10T09:01:06Z</time>
      </trkpt>
      <trkpt lat="45.95886" lon="4.77299">
        <ele>193</ele>
        <time>2016-09-10T09:01:07Z</time>
      </trkpt>
      <trkpt lat="45.95887" lon="4.77306">
        <ele>193</ele>
        <time>2016-09-10T09:01:08Z</time>
      </trkpt>
      <trkpt lat="45.95889" lon="4.77313">
        <ele>193</ele>
        <time>2016-09-10T09:01:09Z</time>
      </trkpt>
      <trkpt lat="45.95891" lon="4.7732">
        <ele>193</ele>
        <time>2016-09-10T09:01:10Z</time>
      </trkpt>
      <trkpt lat="45.95893" lon="4.77327">
        <ele>193</ele>
        <time>2016-09-10T09:01:11Z</time>
      </trkpt>
      <trkpt lat="45.95895" lon="4.77334">
        <ele>193</ele>
        <time>2016-09-10T09:01:12Z</time>
      </trkpt>
      <trkpt lat="45.95897" lon="4.77341">
        <ele>193</ele>
        <time>2016-09-10T09:01:13Z</time>
      </trkpt>
      <trkpt lat="45.95899" lon="4.77348">
        <ele>193</ele>
        <time>2016-09-10T09:01:14Z</time>
      </trkpt>
      <trkpt lat="45.95901" lon="4.77355">
        <ele>193</ele>
        <time>2016-09-10T09:01:15Z</time>
      </trkpt>
      <trkpt lat="45.95904" lon="4.77363">
        <ele>193</ele>
        <time>2016-09-10T09:01:16Z</time>
      </trkpt>
      <trkpt lat="45.95906" lon="4.7737">
        <ele>193</ele>
        <time>2016-09-10T09:01:17Z</time>
      </trkpt>
      <trkpt lat="45.95908" lon="4.77378">
        <ele>193</ele>
        <time>2016-09-10T09:01:18Z</time>
      </trkpt>
      <trkpt lat="45.9591" lon="4.77385">
        <ele>193</ele>
        <time>2016-09-10T09:01:19Z</time>
      </trkpt>
      <trkpt lat="45.95913" lon="4.77392">
        <ele>193</ele>
        <time>2016-09-10T09:01:20Z</time>
      </trkpt>
      <trkpt lat="45.95916" lon="4.77399">
        <ele>193</ele>
        <time>2016-09-10T09:01:21Z</time>
      </trkpt>
      <trkpt lat="45.95919" lon="4.77405">
        <ele>195</ele>
        <time>2016-09-10T09:01:22Z</time>
      </trkpt>
      <trkpt lat="45.95921" lon="4.77412">
        <ele>195</ele>
        <time>2016-09-10T09:01:23Z</time>
      </trkpt>
      <trkpt lat="45.95923" lon="4.77419">
        <ele>195</ele>
        <time>2016-09-10T09:01:24Z</time>
      </trkpt>
      <trkpt lat="45.95925" lon="4.77425">
        <ele>195</ele>
        <time>2016-09-10T09:01:25Z</time>
      </trkpt>
      <trkpt lat="45.95928" lon="4.77432">
        <ele>195</ele>
        <time>2016-09-10T09:01:26Z</time>
      </trkpt>
      <trkpt lat="45.9593" lon="4.77438">
        <ele>195</ele>
        <time>2016-09-10T09:01:27Z</time>
      </trkpt>
      <trkpt lat="45.95933" lon="4.77445">
        <ele>195</ele>
        <time>2016-09-10T09:01:28Z</time>
      </trkpt>
      <trkpt lat="45.95935" lon="4.77452">
        <ele>195</ele>
        <time>2016-09-10T09:01:29Z</time>
      </trkpt>
      <trkpt lat="45.95938" lon="4.77458">
        <ele>195</ele>
        <time>2016-09-10T09:01:30Z</time>
      </trkpt>
      <trkpt lat="45.9594" lon="4.77465">
        <ele>195</ele>
        <time>2016-09-10T09:01:31Z</time>
      </trkpt>
      <trkpt lat="45.95942" lon="4.77472">
        <ele>195</ele>
        <time>2016-09-10T09:01:32Z</time>
      </trkpt>
      <trkpt lat="45.95944" lon="4.77478">
        <ele>195</ele>
        <time>2016-09-10T09:01:33Z</time>
      </trkpt>
      <trkpt lat="45.95947" lon="4.77485">
        <ele>195</ele>
        <time>2016-09-10T09:01:34Z</time>
      </trkpt>
      <trkpt lat="45.95949" lon="4.77492">
        <ele>195</ele>
        <time>2016-09-10T09:01:35Z</time>
      </trkpt>
      <trkpt lat="45.95952" lon="4.77498">
        <ele>195</ele>
        <time>2016-09-10T09:01:36Z</time>
      </trkpt>
      <trkpt lat="45.95955" lon="4.77504">
        <ele>195</ele>
        <time>2016-09-10T09:01:37Z</time>
      </trkpt>
      <trkpt lat="45.95957" lon="4.7751">
        <ele>195</ele>
        <time>2016-09-10T09:01:38Z</time>
      </trkpt>
      <trkpt lat="45.9596" lon="4.77516">
        <ele>195</ele>
        <time>2016-09-10T09:01:39Z</time>
      </trkpt>
      <trkpt lat="45.95962" lon="4.77522">
        <ele>195</ele>
        <time>2016-09-10T09:01:40Z</time>
      </trkpt>
      <trkpt lat="45.95965" lon="4.77529">
        <ele>195</ele>
        <time>2016-09-10T09:01:41Z</time>
      </trkpt>
      <trkpt lat="45.95968" lon="4.77535">
        <ele>195</ele>
        <time>2016-09-10T09:01:42Z</time>
      </trkpt>
      <trkpt lat="45.95973" lon="4.77545">
        <ele>195</ele>
        <time>2016-09-10T09:01:44Z</time>
      </trkpt>
      <trkpt lat="45.95975" lon="4.7755">
        <ele>195</ele>
        <time>2016-09-10T09:01:45Z</time>
      </trkpt>
      <trkpt lat="45.95978" lon="4.77555">
        <ele>195</ele>
        <time>2016-09-10T09:01:46Z</time>
      </trkpt>
      <trkpt lat="45.95981" lon="4.77561">
        <ele>196</ele>
        <time>2016-09-10T09:01:47Z</time>
      </trkpt>
      <trkpt lat="45.95984" lon="4.77567">
        <ele>196</ele>
        <time>2016-09-10T09:01:48Z</time>
      </trkpt>
      <trkpt lat="45.95987" lon="4.77574">
        <ele>196</ele>
        <time>2016-09-10T09:01:49Z</time>
      </trkpt>
      <trkpt lat="45.9599" lon="4.77585">
        <ele>196</ele>
        <time>2016-09-10T09:01:51Z</time>
      </trkpt>
      <trkpt lat="45.95991" lon="4.77589">
        <ele>196</ele>
        <time>2016-09-10T09:01:52Z</time>
      </trkpt>
      <trkpt lat="45.95991" lon="4.77597">
        <ele>195</ele>
        <time>2016-09-10T09:01:55Z</time>
      </trkpt>
      <trkpt lat="45.95993" lon="4.77602">
        <ele>195</ele>
        <time>2016-09-10T09:01:56Z</time>
      </trkpt>
      <trkpt lat="45.95999" lon="4.77604">
        <ele>195</ele>
        <time>2016-09-10T09:01:59Z</time>
      </trkpt>
      <trkpt lat="45.96002" lon="4.77604">
        <ele>198</ele>
        <time>2016-09-10T09:02:00Z</time>
      </trkpt>
      <trkpt lat="45.96007" lon="4.77607">
        <ele>198</ele>
        <time>2016-09-10T09:02:02Z</time>
      </trkpt>
      <trkpt lat="45.9601" lon="4.7761">
        <ele>199</ele>
        <time>2016-09-10T09:02:03Z</time>
      </trkpt>
      <trkpt lat="45.96016" lon="4.77618">
        <ele>199</ele>
        <time>2016-09-10T09:02:05Z</time>
      </trkpt>
      <trkpt lat="45.9602" lon="4.77622">
        <ele>199</ele>
        <time>2016-09-10T09:02:06Z</time>
      </trkpt>
      <trkpt lat="45.96026" lon="4.77629">
        <ele>199</ele>
        <time>2016-09-10T09:02:08Z</time>
      </trkpt>
      <trkpt lat="45.96029" lon="4.77632">
        <ele>199</ele>
        <time>2016-09-10T09:02:09Z</time>
      </trkpt>
      <trkpt lat="45.96036" lon="4.7764">
        <ele>199</ele>
        <time>2016-09-10T09:02:11Z</time>
      </trkpt>
      <trkpt lat="45.9604" lon="4.77644">
        <ele>199</ele>
        <time>2016-09-10T09:02:12Z</time>
      </trkpt>
      <trkpt lat="45.96043" lon="4.77648">
        <ele>199</ele>
        <time>2016-09-10T09:02:13Z</time>
      </trkpt>
      <trkpt lat="45.96047" lon="4.77653">
        <ele>199</ele>
        <time>2016-09-10T09:02:14Z</time>
      </trkpt>
      <trkpt lat="45.9605" lon="4.77658">
        <ele>200</ele>
        <time>2016-09-10T09:02:15Z</time>
      </trkpt>
      <trkpt lat="45.96054" lon="4.77663">
        <ele>200</ele>
        <time>2016-09-10T09:02:16Z</time>
      </trkpt>
      <trkpt lat="45.96057" lon="4.77667">
        <ele>198</ele>
        <time>2016-09-10T09:02:17Z</time>
      </trkpt>
      <trkpt lat="45.96061" lon="4.77672">
        <ele>198</ele>
        <time>2016-09-10T09:02:18Z</time>
      </trkpt>
      <trkpt lat="45.96064" lon="4.77677">
        <ele>198</ele>
        <time>2016-09-10T09:02:19Z</time>
      </trkpt>
      <trkpt lat="45.96067" lon="4.77682">
        <ele>198</ele>
        <time>2016-09-10T09:02:20Z</time>
      </trkpt>
      <trkpt lat="45.9607" lon="4.77687">
        <ele>198</ele>
        <time>2016-09-10T09:02:21Z</time>
      </trkpt>
      <trkpt lat="45.96073" lon="4.77692">
        <ele>197</ele>
        <time>2016-09-10T09:02:22Z</time>
      </trkpt>
      <trkpt lat="45.96076" lon="4.77697">
        <ele>197</ele>
        <time>2016-09-10T09:02:23Z</time>
      </trkpt>
      <trkpt lat="45.96078" lon="4.77702">
        <ele>197</ele>
        <time>2016-09-10T09:02:24Z</time>
      </trkpt>
      <trkpt lat="45.96082" lon="4.77707">
        <ele>197</ele>
        <time>2016-09-10T09:02:25Z</time>
      </trkpt>
      <trkpt lat="45.96085" lon="4.77712">
        <ele>200</ele>
        <time>2016-09-10T09:02:26Z</time>
      </trkpt>
      <trkpt lat="45.96088" lon="4.77717">
        <ele>199</ele>
        <time>2016-09-10T09:02:27Z</time>
      </trkpt>
      <trkpt lat="45.96091" lon="4.77722">
        <ele>199</ele>
        <time>2016-09-10T09:02:28Z</time>
      </trkpt>
      <trkpt lat="45.96096" lon="4.77732">
        <ele>198</ele>
        <time>2016-09-10T09:02:30Z</time>
      </trkpt>
      <trkpt lat="45.96099" lon="4.77737">
        <ele>198</ele>
        <time>2016-09-10T09:02:31Z</time>
      </trkpt>
      <trkpt lat="45.96102" lon="4.77743">
        <ele>198</ele>
        <time>2016-09-10T09:02:32Z</time>
      </trkpt>
      <trkpt lat="45.96105" lon="4.77748">
        <ele>198</ele>
        <time>2016-09-10T09:02:33Z</time>
      </trkpt>
      <trkpt lat="45.96109" lon="4.77752">
        <ele>197</ele>
        <time>2016-09-10T09:02:34Z</time>
      </trkpt>
      <trkpt lat="45.96112" lon="4.77758">
        <ele>197</ele>
        <time>2016-09-10T09:02:35Z</time>
      </trkpt>
      <trkpt lat="45.96115" lon="4.77763">
        <ele>197</ele>
        <time>2016-09-10T09:02:36Z</time>
      </trkpt>
      <trkpt lat="45.96118" lon="4.77769">
        <ele>197</ele>
        <time>2016-09-10T09:02:37Z</time>
      </trkpt>
      <trkpt lat="45.96124" lon="4.77778">
        <ele>197</ele>
        <time>2016-09-10T09:02:39Z</time>
      </trkpt>
      <trkpt lat="45.96126" lon="4.77783">
        <ele>197</ele>
        <time>2016-09-10T09:02:40Z</time>
      </trkpt>
      <trkpt lat="45.96129" lon="4.77788">
        <ele>197</ele>
        <time>2016-09-10T09:02:41Z</time>
      </trkpt>
      <trkpt lat="45.96133" lon="4.77793">
        <ele>198</ele>
        <time>2016-09-10T09:02:42Z</time>
      </trkpt>
      <trkpt lat="45.96138" lon="4.77802">
        <ele>198</ele>
        <time>2016-09-10T09:02:44Z</time>
      </trkpt>
      <trkpt lat="45.96141" lon="4.77807">
        <ele>198</ele>
        <time>2016-09-10T09:02:45Z</time>
      </trkpt>
      <trkpt lat="45.96144" lon="4.77813">
        <ele>198</ele>
        <time>2016-09-10T09:02:46Z</time>
      </trkpt>
      <trkpt lat="45.96147" lon="4.77818">
        <ele>198</ele>
        <time>2016-09-10T09:02:47Z</time>
      </trkpt>
      <trkpt lat="45.96151" lon="4.77824">
        <ele>198</ele>
        <time>2016-09-10T09:02:48Z</time>
      </trkpt>
      <trkpt lat="45.96155" lon="4.7783">
        <ele>198</ele>
        <time>2016-09-10T09:02:49Z</time>
      </trkpt>
      <trkpt lat="45.96158" lon="4.77836">
        <ele>197</ele>
        <time>2016-09-10T09:02:50Z</time>
      </trkpt>
      <trkpt lat="45.9616" lon="4.77842">
        <ele>197</ele>
        <time>2016-09-10T09:02:51Z</time>
      </trkpt>
      <trkpt lat="45.96163" lon="4.77848">
        <ele>197</ele>
        <time>2016-09-10T09:02:52Z</time>
      </trkpt>
      <trkpt lat="45.96167" lon="4.77854">
        <ele>201</ele>
        <time>2016-09-10T09:02:53Z</time>
      </trkpt>
      <trkpt lat="45.9617" lon="4.7786">
        <ele>201</ele>
        <time>2016-09-10T09:02:54Z</time>
      </trkpt>
      <trkpt lat="45.96173" lon="4.77865">
        <ele>201</ele>
        <time>2016-09-10T09:02:55Z</time>
      </trkpt>
      <trkpt lat="45.96176" lon="4.7787">
        <ele>201</ele>
        <time>2016-09-10T09:02:56Z</time>
      </trkpt>
      <trkpt lat="45.9618" lon="4.77875">
        <ele>201</ele>
        <time>2016-09-10T09:02:57Z</time>
      </trkpt>
      <trkpt lat="45.96183" lon="4.7788">
        <ele>201</ele>
        <time>2016-09-10T09:02:58Z</time>
      </trkpt>
      <trkpt lat="45.96187" lon="4.77885">
        <ele>201</ele>
        <time>2016-09-10T09:02:59Z</time>
      </trkpt>
      <trkpt lat="45.9619" lon="4.7789">
        <ele>201</ele>
        <time>2016-09-10T09:03:00Z</time>
      </trkpt>
      <trkpt lat="45.96193" lon="4.77895">
        <ele>201</ele>
        <time>2016-09-10T09:03:01Z</time>
      </trkpt>
      <trkpt lat="45.96196" lon="4.779">
        <ele>201</ele>
        <time>2016-09-10T09:03:02Z</time>
      </trkpt>
      <trkpt lat="45.96199" lon="4.77904">
        <ele>201</ele>
        <time>2016-09-10T09:03:03Z</time>
      </trkpt>
      <trkpt lat="45.96202" lon="4.77909">
        <ele>202</ele>
        <time>2016-09-10T09:03:04Z</time>
      </trkpt>
      <trkpt lat="45.96206" lon="4.77915">
        <ele>202</ele>
        <time>2016-09-10T09:03:05Z</time>
      </trkpt>
      <trkpt lat="45.9621" lon="4.7792">
        <ele>199</ele>
        <time>2016-09-10T09:03:06Z</time>
      </trkpt>
      <trkpt lat="45.96214" lon="4.77925">
        <ele>199</ele>
        <time>2016-09-10T09:03:07Z</time>
      </trkpt>
      <trkpt lat="45.96217" lon="4.7793">
        <ele>200</ele>
        <time>2016-09-10T09:03:08Z</time>
      </trkpt>
      <trkpt lat="45.96221" lon="4.77936">
        <ele>200</ele>
        <time>2016-09-10T09:03:09Z</time>
      </trkpt>
      <trkpt lat="45.96225" lon="4.77941">
        <ele>200</ele>
        <time>2016-09-10T09:03:10Z</time>
      </trkpt>
      <trkpt lat="45.96229" lon="4.77946">
        <ele>200</ele>
        <time>2016-09-10T09:03:11Z</time>
      </trkpt>
      <trkpt lat="45.96233" lon="4.77951">
        <ele>200</ele>
        <time>2016-09-10T09:03:12Z</time>
      </trkpt>
      <trkpt lat="45.96237" lon="4.77956">
        <ele>199</ele>
        <time>2016-09-10T09:03:13Z</time>
      </trkpt>
      <trkpt lat="45.96241" lon="4.77959">
        <ele>199</ele>
        <time>2016-09-10T09:03:14Z</time>
      </trkpt>
      <trkpt lat="45.96246" lon="4.77963">
        <ele>199</ele>
        <time>2016-09-10T09:03:15Z</time>
      </trkpt>
      <trkpt lat="45.9625" lon="4.77966">
        <ele>199</ele>
        <time>2016-09-10T09:03:16Z</time>
      </trkpt>
      <trkpt lat="45.96254" lon="4.7797">
        <ele>203</ele>
        <time>2016-09-10T09:03:17Z</time>
      </trkpt>
      <trkpt lat="45.96258" lon="4.77975">
        <ele>203</ele>
        <time>2016-09-10T09:03:18Z</time>
      </trkpt>
      <trkpt lat="45.96262" lon="4.77979">
        <ele>202</ele>
        <time>2016-09-10T09:03:19Z</time>
      </trkpt>
      <trkpt lat="45.96266" lon="4.77983">
        <ele>202</ele>
        <time>2016-09-10T09:03:20Z</time>
      </trkpt>
      <trkpt lat="45.9627" lon="4.77987">
        <ele>202</ele>
        <time>2016-09-10T09:03:21Z</time>
      </trkpt>
      <trkpt lat="45.96275" lon="4.77991">
        <ele>203</ele>
        <time>2016-09-10T09:03:22Z</time>
      </trkpt>
      <trkpt lat="45.96278" lon="4.77995">
        <ele>203</ele>
        <time>2016-09-10T09:03:23Z</time>
      </trkpt>
      <trkpt lat="45.96282" lon="4.77999">
        <ele>203</ele>
        <time>2016-09-10T09:03:24Z</time>
      </trkpt>
      <trkpt lat="45.96286" lon="4.78003">
        <ele>199</ele>
        <time>2016-09-10T09:03:25Z</time>
      </trkpt>
      <trkpt lat="45.9629" lon="4.78006">
        <ele>199</ele>
        <time>2016-09-10T09:03:26Z</time>
      </trkpt>
      <trkpt lat="45.96294" lon="4.7801">
        <ele>199</ele>
        <time>2016-09-10T09:03:27Z</time>
      </trkpt>
      <trkpt lat="45.96298" lon="4.78014">
        <ele>199</ele>
        <time>2016-09-10T09:03:28Z</time>
      </trkpt>
      <trkpt lat="45.96302" lon="4.78018">
        <ele>200</ele>
        <time>2016-09-10T09:03:29Z</time>
      </trkpt>
      <trkpt lat="45.96305" lon="4.78023">
        <ele>200</ele>
        <time>2016-09-10T09:03:30Z</time>
      </trkpt>
      <trkpt lat="45.96309" lon="4.78028">
        <ele>200</ele>
        <time>2016-09-10T09:03:31Z</time>
      </trkpt>
      <trkpt lat="45.96313" lon="4.78033">
        <ele>199</ele>
        <time>2016-09-10T09:03:32Z</time>
      </trkpt>
      <trkpt lat="45.96317" lon="4.78038">
        <ele>199</ele>
        <time>2016-09-10T09:03:33Z</time>
      </trkpt>
      <trkpt lat="45.96321" lon="4.78043">
        <ele>199</ele>
        <time>2016-09-10T09:03:34Z</time>
      </trkpt>
      <trkpt lat="45.96325" lon="4.78049">
        <ele>199</ele>
        <time>2016-09-10T09:03:35Z</time>
      </trkpt>
      <trkpt lat="45.96329" lon="4.78054">
        <ele>199</ele>
        <time>2016-09-10T09:03:36Z</time>
      </trkpt>
      <trkpt lat="45.96334" lon="4.7806">
        <ele>202</ele>
        <time>2016-09-10T09:03:37Z</time>
      </trkpt>
      <trkpt lat="45.96339" lon="4.78065">
        <ele>201</ele>
        <time>2016-09-10T09:03:38Z</time>
      </trkpt>
      <trkpt lat="45.96343" lon="4.7807">
        <ele>201</ele>
        <time>2016-09-10T09:03:39Z</time>
      </trkpt>
      <trkpt lat="45.96347" lon="4.78075">
        <ele>201</ele>
        <time>2016-09-10T09:03:40Z</time>
      </trkpt>
      <trkpt lat="45.96351" lon="4.7808">
        <ele>201</ele>
        <time>2016-09-10T09:03:41Z</time>
      </trkpt>
      <trkpt lat="45.96355" lon="4.78084">
        <ele>199</ele>
        <time>2016-09-10T09:03:42Z</time>
      </trkpt>
      <trkpt lat="45.96359" lon="4.78088">
        <ele>199</ele>
        <time>2016-09-10T09:03:43Z</time>
      </trkpt>
      <trkpt lat="45.96363" lon="4.78092">
        <ele>199</ele>
        <time>2016-09-10T09:03:44Z</time>
      </trkpt>
      <trkpt lat="45.96367" lon="4.78096">
        <ele>199</ele>
        <time>2016-09-10T09:03:45Z</time>
      </trkpt>
      <trkpt lat="45.9637" lon="4.781">
        <ele>199</ele>
        <time>2016-09-10T09:03:46Z</time>
      </trkpt>
      <trkpt lat="45.96375" lon="4.78104">
        <ele>199</ele>
        <time>2016-09-10T09:03:47Z</time>
      </trkpt>
      <trkpt lat="45.96379" lon="4.78108">
        <ele>200</ele>
        <time>2016-09-10T09:03:48Z</time>
      </trkpt>
      <trkpt lat="45.96383" lon="4.78113">
        <ele>200</ele>
        <time>2016-09-10T09:03:49Z</time>
      </trkpt>
      <trkpt lat="45.96387" lon="4.78117">
        <ele>200</ele>
        <time>2016-09-10T09:03:50Z</time>
      </trkpt>
      <trkpt lat="45.96391" lon="4.78121">
        <ele>200</ele>
        <time>2016-09-10T09:03:51Z</time>
      </trkpt>
      <trkpt lat="45.96395" lon="4.78125">
        <ele>199</ele>
        <time>2016-09-10T09:03:52Z</time>
      </trkpt>
      <trkpt lat="45.964" lon="4.78129">
        <ele>199</ele>
        <time>2016-09-10T09:03:53Z</time>
      </trkpt>
      <trkpt lat="45.96404" lon="4.78133">
        <ele>199</ele>
        <time>2016-09-10T09:03:54Z</time>
      </trkpt>
      <trkpt lat="45.96409" lon="4.78136">
        <ele>199</ele>
        <time>2016-09-10T09:03:55Z</time>
      </trkpt>
      <trkpt lat="45.96414" lon="4.7814">
        <ele>199</ele>
        <time>2016-09-10T09:03:56Z</time>
      </trkpt>
      <trkpt lat="45.96418" lon="4.78144">
        <ele>202</ele>
        <time>2016-09-10T09:03:57Z</time>
      </trkpt>
      <trkpt lat="45.96423" lon="4.78148">
        <ele>202</ele>
        <time>2016-09-10T09:03:58Z</time>
      </trkpt>
      <trkpt lat="45.96428" lon="4.78153">
        <ele>202</ele>
        <time>2016-09-10T09:03:59Z</time>
      </trkpt>
      <trkpt lat="45.96433" lon="4.78157">
        <ele>202</ele>
        <time>2016-09-10T09:04:00Z</time>
      </trkpt>
      <trkpt lat="45.96438" lon="4.78162">
        <ele>202</ele>
        <time>2016-09-10T09:04:01Z</time>
      </trkpt>
      <trkpt lat="45.96443" lon="4.78166">
        <ele>203</ele>
        <time>2016-09-10T09:04:02Z</time>
      </trkpt>
      <trkpt lat="45.96447" lon="4.78171">
        <ele>199</ele>
        <time>2016-09-10T09:04:03Z</time>
      </trkpt>
      <trkpt lat="45.96452" lon="4.78175">
        <ele>200</ele>
        <time>2016-09-10T09:04:04Z</time>
      </trkpt>
      <trkpt lat="45.96457" lon="4.78179">
        <ele>200</ele>
        <time>2016-09-10T09:04:05Z</time>
      </trkpt>
      <trkpt lat="45.96461" lon="4.78183">
        <ele>200</ele>
        <time>2016-09-10T09:04:06Z</time>
      </trkpt>
      <trkpt lat="45.96466" lon="4.78186">
        <ele>200</ele>
        <time>2016-09-10T09:04:07Z</time>
      </trkpt>
      <trkpt lat="45.96471" lon="4.78189">
        <ele>200</ele>
        <time>2016-09-10T09:04:08Z</time>
      </trkpt>
      <trkpt lat="45.96475" lon="4.78191">
        <ele>200</ele>
        <time>2016-09-10T09:04:09Z</time>
      </trkpt>
      <trkpt lat="45.9648" lon="4.78194">
        <ele>200</ele>
        <time>2016-09-10T09:04:10Z</time>
      </trkpt>
      <trkpt lat="45.96486" lon="4.78197">
        <ele>200</ele>
        <time>2016-09-10T09:04:11Z</time>
      </trkpt>
      <trkpt lat="45.96491" lon="4.782">
        <ele>200</ele>
        <time>2016-09-10T09:04:12Z</time>
      </trkpt>
      <trkpt lat="45.96495" lon="4.78204">
        <ele>200</ele>
        <time>2016-09-10T09:04:13Z</time>
      </trkpt>
      <trkpt lat="45.96499" lon="4.78209">
        <ele>200</ele>
        <time>2016-09-10T09:04:14Z</time>
      </trkpt>
      <trkpt lat="45.96503" lon="4.78214">
        <ele>205</ele>
        <time>2016-09-10T09:04:15Z</time>
      </trkpt>
      <trkpt lat="45.96507" lon="4.78219">
        <ele>204</ele>
        <time>2016-09-10T09:04:16Z</time>
      </trkpt>
      <trkpt lat="45.9651" lon="4.78224">
        <ele>204</ele>
        <time>2016-09-10T09:04:17Z</time>
      </trkpt>
      <trkpt lat="45.96516" lon="4.78233">
        <ele>203</ele>
        <time>2016-09-10T09:04:19Z</time>
      </trkpt>
      <trkpt lat="45.96518" lon="4.78238">
        <ele>203</ele>
        <time>2016-09-10T09:04:20Z</time>
      </trkpt>
      <trkpt lat="45.96521" lon="4.78243">
        <ele>203</ele>
        <time>2016-09-10T09:04:21Z</time>
      </trkpt>
      <trkpt lat="45.96525" lon="4.78247">
        <ele>203</ele>
        <time>2016-09-10T09:04:22Z</time>
      </trkpt>
      <trkpt lat="45.96528" lon="4.78252">
        <ele>200</ele>
        <time>2016-09-10T09:04:23Z</time>
      </trkpt>
      <trkpt lat="45.96531" lon="4.78258">
        <ele>200</ele>
        <time>2016-09-10T09:04:24Z</time>
      </trkpt>
      <trkpt lat="45.96536" lon="4.78268">
        <ele>200</ele>
        <time>2016-09-10T09:04:26Z</time>
      </trkpt>
      <trkpt lat="45.96539" lon="4.78273">
        <ele>200</ele>
        <time>2016-09-10T09:04:27Z</time>
      </trkpt>
      <trkpt lat="45.96543" lon="4.7828">
        <ele>200</ele>
        <time>2016-09-10T09:04:28Z</time>
      </trkpt>
      <trkpt lat="45.96547" lon="4.78285">
        <ele>200</ele>
        <time>2016-09-10T09:04:29Z</time>
      </trkpt>
      <trkpt lat="45.96552" lon="4.78291">
        <ele>200</ele>
        <time>2016-09-10T09:04:30Z</time>
      </trkpt>
      <trkpt lat="45.96557" lon="4.78296">
        <ele>200</ele>
        <time>2016-09-10T09:04:31Z</time>
      </trkpt>
      <trkpt lat="45.96561" lon="4.783">
        <ele>200</ele>
        <time>2016-09-10T09:04:32Z</time>
      </trkpt>
      <trkpt lat="45.96565" lon="4.78305">
        <ele>200</ele>
        <time>2016-09-10T09:04:33Z</time>
      </trkpt>
      <trkpt lat="45.96568" lon="4.78309">
        <ele>200</ele>
        <time>2016-09-10T09:04:34Z</time>
      </trkpt>
      <trkpt lat="45.96572" lon="4.78313">
        <ele>199</ele>
        <time>2016-09-10T09:04:35Z</time>
      </trkpt>
      <trkpt lat="45.96575" lon="4.78318">
        <ele>199</ele>
        <time>2016-09-10T09:04:36Z</time>
      </trkpt>
      <trkpt lat="45.96578" lon="4.78322">
        <ele>199</ele>
        <time>2016-09-10T09:04:37Z</time>
      </trkpt>
      <trkpt lat="45.96582" lon="4.78326">
        <ele>199</ele>
        <time>2016-09-10T09:04:38Z</time>
      </trkpt>
      <trkpt lat="45.96587" lon="4.7833">
        <ele>200</ele>
        <time>2016-09-10T09:04:39Z</time>
      </trkpt>
      <trkpt lat="45.96592" lon="4.78334">
        <ele>199</ele>
        <time>2016-09-10T09:04:40Z</time>
      </trkpt>
      <trkpt lat="45.96597" lon="4.78338">
        <ele>199</ele>
        <time>2016-09-10T09:04:41Z</time>
      </trkpt>
      <trkpt lat="45.96601" lon="4.78342">
        <ele>200</ele>
        <time>2016-09-10T09:04:42Z</time>
      </trkpt>
      <trkpt lat="45.96606" lon="4.78346">
        <ele>200</ele>
        <time>2016-09-10T09:04:43Z</time>
      </trkpt>
      <trkpt lat="45.9661" lon="4.7835">
        <ele>200</ele>
        <time>2016-09-10T09:04:44Z</time>
      </trkpt>
      <trkpt lat="45.96614" lon="4.78354">
        <ele>200</ele>
        <time>2016-09-10T09:04:45Z</time>
      </trkpt>
      <trkpt lat="45.96618" lon="4.78358">
        <ele>201</ele>
        <time>2016-09-10T09:04:46Z</time>
      </trkpt>
      <trkpt lat="45.96622" lon="4.78361">
        <ele>201</ele>
        <time>2016-09-10T09:04:47Z</time>
      </trkpt>
      <trkpt lat="45.96625" lon="4.78365">
        <ele>201</ele>
        <time>2016-09-10T09:04:48Z</time>
      </trkpt>
      <trkpt lat="45.96629" lon="4.78368">
        <ele>201</ele>
        <time>2016-09-10T09:04:49Z</time>
      </trkpt>
      <trkpt lat="45.96634" lon="4.78372">
        <ele>201</ele>
        <time>2016-09-10T09:04:50Z</time>
      </trkpt>
      <trkpt lat="45.96638" lon="4.78375">
        <ele>201</ele>
        <time>2016-09-10T09:04:51Z</time>
      </trkpt>
      <trkpt lat="45.96642" lon="4.78379">
        <ele>201</ele>
        <time>2016-09-10T09:04:52Z</time>
      </trkpt>
      <trkpt lat="45.96647" lon="4.78383">
        <ele>201</ele>
        <time>2016-09-10T09:04:53Z</time>
      </trkpt>
      <trkpt lat="45.96651" lon="4.78387">
        <ele>201</ele>
        <time>2016-09-10T09:04:54Z</time>
      </trkpt>
      <trkpt lat="45.96656" lon="4.78391">
        <ele>201</ele>
        <time>2016-09-10T09:04:55Z</time>
      </trkpt>
      <trkpt lat="45.9666" lon="4.78395">
        <ele>201</ele>
        <time>2016-09-10T09:04:56Z</time>
      </trkpt>
      <trkpt lat="45.96664" lon="4.78399">
        <ele>201</ele>
        <time>2016-09-10T09:04:57Z</time>
      </trkpt>
      <trkpt lat="45.96669" lon="4.78403">
        <ele>203</ele>
        <time>2016-09-10T09:04:58Z</time>
      </trkpt>
      <trkpt lat="45.96673" lon="4.78407">
        <ele>203</ele>
        <time>2016-09-10T09:04:59Z</time>
      </trkpt>
      <trkpt lat="45.96676" lon="4.78412">
        <ele>203</ele>
        <time>2016-09-10T09:05:00Z</time>
      </trkpt>
      <trkpt lat="45.9668" lon="4.78415">
        <ele>203</ele>
        <time>2016-09-10T09:05:01Z</time>
      </trkpt>
      <trkpt lat="45.96687" lon="4.78422">
        <ele>202</ele>
        <time>2016-09-10T09:05:03Z</time>
      </trkpt>
      <trkpt lat="45.9669" lon="4.78425">
        <ele>202</ele>
        <time>2016-09-10T09:05:04Z</time>
      </trkpt>
      <trkpt lat="45.96695" lon="4.78432">
        <ele>203</ele>
        <time>2016-09-10T09:05:06Z</time>
      </trkpt>
      <trkpt lat="45.96698" lon="4.78435">
        <ele>203</ele>
        <time>2016-09-10T09:05:07Z</time>
      </trkpt>
      <trkpt lat="45.96704" lon="4.78443">
        <ele>203</ele>
        <time>2016-09-10T09:05:09Z</time>
      </trkpt>
      <trkpt lat="45.96707" lon="4.78447">
        <ele>203</ele>
        <time>2016-09-10T09:05:10Z</time>
      </trkpt>
      <trkpt lat="45.96711" lon="4.78451">
        <ele>203</ele>
        <time>2016-09-10T09:05:11Z</time>
      </trkpt>
      <trkpt lat="45.96715" lon="4.78454">
        <ele>203</ele>
        <time>2016-09-10T09:05:12Z</time>
      </trkpt>
      <trkpt lat="45.9672" lon="4.78458">
        <ele>203</ele>
        <time>2016-09-10T09:05:13Z</time>
      </trkpt>
      <trkpt lat="45.96724" lon="4.78463">
        <ele>203</ele>
        <time>2016-09-10T09:05:14Z</time>
      </trkpt>
      <trkpt lat="45.96728" lon="4.78467">
        <ele>203</ele>
        <time>2016-09-10T09:05:15Z</time>
      </trkpt>
      <trkpt lat="45.96733" lon="4.78471">
        <ele>203</ele>
        <time>2016-09-10T09:05:16Z</time>
      </trkpt>
      <trkpt lat="45.96738" lon="4.78475">
        <ele>203</ele>
        <time>2016-09-10T09:05:17Z</time>
      </trkpt>
      <trkpt lat="45.96742" lon="4.78479">
        <ele>203</ele>
        <time>2016-09-10T09:05:18Z</time>
      </trkpt>
      <trkpt lat="45.96747" lon="4.78483">
        <ele>203</ele>
        <time>2016-09-10T09:05:19Z</time>
      </trkpt>
      <trkpt lat="45.96751" lon="4.78488">
        <ele>204</ele>
        <time>2016-09-10T09:05:20Z</time>
      </trkpt>
      <trkpt lat="45.96756" lon="4.78492">
        <ele>204</ele>
        <time>2016-09-10T09:05:21Z</time>
      </trkpt>
      <trkpt lat="45.9676" lon="4.78497">
        <ele>204</ele>
        <time>2016-09-10T09:05:22Z</time>
      </trkpt>
      <trkpt lat="45.96764" lon="4.78501">
        <ele>203</ele>
        <time>2016-09-10T09:05:23Z</time>
      </trkpt>
      <trkpt lat="45.96768" lon="4.78507">
        <ele>203</ele>
        <time>2016-09-10T09:05:24Z</time>
      </trkpt>
      <trkpt lat="45.96772" lon="4.78512">
        <ele>203</ele>
        <time>2016-09-10T09:05:25Z</time>
      </trkpt>
      <trkpt lat="45.96775" lon="4.78516">
        <ele>203</ele>
        <time>2016-09-10T09:05:26Z</time>
      </trkpt>
      <trkpt lat="45.96779" lon="4.78521">
        <ele>203</ele>
        <time>2016-09-10T09:05:27Z</time>
      </trkpt>
      <trkpt lat="45.96783" lon="4.78526">
        <ele>203</ele>
        <time>2016-09-10T09:05:28Z</time>
      </trkpt>
      <trkpt lat="45.9679" lon="4.78534">
        <ele>203</ele>
        <time>2016-09-10T09:05:30Z</time>
      </trkpt>
      <trkpt lat="45.96793" lon="4.78539">
        <ele>203</ele>
        <time>2016-09-10T09:05:31Z</time>
      </trkpt>
      <trkpt lat="45.96796" lon="4.78545">
        <ele>203</ele>
        <time>2016-09-10T09:05:32Z</time>
      </trkpt>
      <trkpt lat="45.968" lon="4.78549">
        <ele>203</ele>
        <time>2016-09-10T09:05:33Z</time>
      </trkpt>
      <trkpt lat="45.96806" lon="4.78558">
        <ele>203</ele>
        <time>2016-09-10T09:05:35Z</time>
      </trkpt>
      <trkpt lat="45.96809" lon="4.78563">
        <ele>203</ele>
        <time>2016-09-10T09:05:36Z</time>
      </trkpt>
      <trkpt lat="45.96814" lon="4.7857">
        <ele>203</ele>
        <time>2016-09-10T09:05:38Z</time>
      </trkpt>
      <trkpt lat="45.96815" lon="4.78573">
        <ele>203</ele>
        <time>2016-09-10T09:05:39Z</time>
      </trkpt>
      <trkpt lat="45.96822" lon="4.78577">
        <ele>203</ele>
        <time>2016-09-10T09:05:43Z</time>
      </trkpt>
      <trkpt lat="45.96825" lon="4.78575">
        <ele>203</ele>
        <time>2016-09-10T09:05:44Z</time>
      </trkpt>
      <trkpt lat="45.96831" lon="4.78568">
        <ele>203</ele>
        <time>2016-09-10T09:05:47Z</time>
      </trkpt>
      <trkpt lat="45.96833" lon="4.78565">
        <ele>203</ele>
        <time>2016-09-10T09:05:48Z</time>
      </trkpt>
      <trkpt lat="45.96838" lon="4.78559">
        <ele>206</ele>
        <time>2016-09-10T09:05:51Z</time>
      </trkpt>
      <trkpt lat="45.9684" lon="4.78556">
        <ele>206</ele>
        <time>2016-09-10T09:05:52Z</time>
      </trkpt>
      <trkpt lat="45.96845" lon="4.7855">
        <ele>206</ele>
        <time>2016-09-10T09:05:55Z</time>
      </trkpt>
      <trkpt lat="45.96847" lon="4.78548">
        <ele>206</ele>
        <time>2016-09-10T09:05:56Z</time>
      </trkpt>
      <trkpt lat="45.96853" lon="4.78542">
        <ele>207</ele>
        <time>2016-09-10T09:05:59Z</time>
      </trkpt>
      <trkpt lat="45.96855" lon="4.7854">
        <ele>207</ele>
        <time>2016-09-10T09:06:00Z</time>
      </trkpt>
      <trkpt lat="45.96863" lon="4.78534">
        <ele>207</ele>
        <time>2016-09-10T09:06:03Z</time>
      </trkpt>
      <trkpt lat="45.96864" lon="4.78533">
        <ele>207</ele>
        <time>2016-09-10T09:06:04Z</time>
      </trkpt>
      <trkpt lat="45.9687" lon="4.78525">
        <ele>208</ele>
        <time>2016-09-10T09:06:08Z</time>
      </trkpt>
      <trkpt lat="45.96871" lon="4.78523">
        <ele>208</ele>
        <time>2016-09-10T09:06:09Z</time>
      </trkpt>
      <trkpt lat="45.96876" lon="4.78513">
        <ele>208</ele>
        <time>2016-09-10T09:06:13Z</time>
      </trkpt>
      <trkpt lat="45.96878" lon="4.78511">
        <ele>208</ele>
        <time>2016-09-10T09:06:14Z</time>
      </trkpt>
      <trkpt lat="45.96885" lon="4.78505">
        <ele>209</ele>
        <time>2016-09-10T09:06:18Z</time>
      </trkpt>
      <trkpt lat="45.96887" lon="4.78503">
        <ele>209</ele>
        <time>2016-09-10T09:06:19Z</time>
      </trkpt>
      <trkpt lat="45.96893" lon="4.78494">
        <ele>213</ele>
        <time>2016-09-10T09:06:23Z</time>
      </trkpt>
      <trkpt lat="45.96895" lon="4.78492">
        <ele>213</ele>
        <time>2016-09-10T09:06:24Z</time>
      </trkpt>
      <trkpt lat="45.96901" lon="4.78485">
        <ele>213</ele>
        <time>2016-09-10T09:06:28Z</time>
      </trkpt>
      <trkpt lat="45.96902" lon="4.78484">
        <ele>213</ele>
        <time>2016-09-10T09:06:29Z</time>
      </trkpt>
      <trkpt lat="45.96908" lon="4.78475">
        <ele>214</ele>
        <time>2016-09-10T09:06:34Z</time>
      </trkpt>
      <trkpt lat="45.96909" lon="4.78473">
        <ele>214</ele>
        <time>2016-09-10T09:06:35Z</time>
      </trkpt>
      <trkpt lat="45.96916" lon="4.78466">
        <ele>214</ele>
        <time>2016-09-10T09:06:40Z</time>
      </trkpt>
      <trkpt lat="45.96917" lon="4.78463">
        <ele>220</ele>
        <time>2016-09-10T09:06:41Z</time>
      </trkpt>
      <trkpt lat="45.96924" lon="4.78455">
        <ele>221</ele>
        <time>2016-09-10T09:06:46Z</time>
      </trkpt>
      <trkpt lat="45.96925" lon="4.78453">
        <ele>221</ele>
        <time>2016-09-10T09:06:47Z</time>
      </trkpt>
      <trkpt lat="45.96932" lon="4.78444">
        <ele>221</ele>
        <time>2016-09-10T09:06:52Z</time>
      </trkpt>
      <trkpt lat="45.96933" lon="4.78443">
        <ele>221</ele>
        <time>2016-09-10T09:06:53Z</time>
      </trkpt>
      <trkpt lat="45.9694" lon="4.78438">
        <ele>222</ele>
        <time>2016-09-10T09:06:57Z</time>
      </trkpt>
      <trkpt lat="45.96941" lon="4.78437">
        <ele>222</ele>
        <time>2016-09-10T09:06:58Z</time>
      </trkpt>
      <trkpt lat="45.96949" lon="4.78433">
        <ele>222</ele>
        <time>2016-09-10T09:07:03Z</time>
      </trkpt>
      <trkpt lat="45.96951" lon="4.78432">
        <ele>222</ele>
        <time>2016-09-10T09:07:04Z</time>
      </trkpt>
      <trkpt lat="45.9696" lon="4.78432">
        <ele>223</ele>
        <time>2016-09-10T09:07:08Z</time>
      </trkpt>
      <trkpt lat="45.96962" lon="4.78432">
        <ele>223</ele>
        <time>2016-09-10T09:07:09Z</time>
      </trkpt>
      <trkpt lat="45.9697" lon="4.78432">
        <ele>223</ele>
        <time>2016-09-10T09:07:14Z</time>
      </trkpt>
      <trkpt lat="45.96971" lon="4.78432">
        <ele>223</ele>
        <time>2016-09-10T09:07:15Z</time>
      </trkpt>
      <trkpt lat="45.9698" lon="4.78431">
        <ele>224</ele>
        <time>2016-09-10T09:07:20Z</time>
      </trkpt>
      <trkpt lat="45.96981" lon="4.78431">
        <ele>224</ele>
        <time>2016-09-10T09:07:21Z</time>
      </trkpt>
      <trkpt lat="45.9699" lon="4.78429">
        <ele>225</ele>
        <time>2016-09-10T09:07:27Z</time>
      </trkpt>
      <trkpt lat="45.96991" lon="4.78429">
        <ele>225</ele>
        <time>2016-09-10T09:07:28Z</time>
      </trkpt>
      <trkpt lat="45.96999" lon="4.78425">
        <ele>226</ele>
        <time>2016-09-10T09:07:33Z</time>
      </trkpt>
      <trkpt lat="45.97" lon="4.78424">
        <ele>226</ele>
        <time>2016-09-10T09:07:34Z</time>
      </trkpt>
      <trkpt lat="45.97007" lon="4.78419">
        <ele>227</ele>
        <time>2016-09-10T09:07:39Z</time>
      </trkpt>
      <trkpt lat="45.97009" lon="4.78418">
        <ele>227</ele>
        <time>2016-09-10T09:07:40Z</time>
      </trkpt>
      <trkpt lat="45.97017" lon="4.78412">
        <ele>228</ele>
        <time>2016-09-10T09:07:45Z</time>
      </trkpt>
      <trkpt lat="45.97018" lon="4.78411">
        <ele>228</ele>
        <time>2016-09-10T09:07:46Z</time>
      </trkpt>
      <trkpt lat="45.97024" lon="4.78405">
        <ele>229</ele>
        <time>2016-09-10T09:07:50Z</time>
      </trkpt>
      <trkpt lat="45.97026" lon="4.78404">
        <ele>229</ele>
        <time>2016-09-10T09:07:51Z</time>
      </trkpt>
      <trkpt lat="45.97033" lon="4.78398">
        <ele>229</ele>
        <time>2016-09-10T09:07:55Z</time>
      </trkpt>
      <trkpt lat="45.97035" lon="4.78396">
        <ele>229</ele>
        <time>2016-09-10T09:07:56Z</time>
      </trkpt>
      <trkpt lat="45.97042" lon="4.78389">
        <ele>229</ele>
        <time>2016-09-10T09:08:00Z</time>
      </trkpt>
      <trkpt lat="45.97045" lon="4.78386">
        <ele>229</ele>
        <time>2016-09-10T09:08:01Z</time>
      </trkpt>
      <trkpt lat="45.97051" lon="4.78381">
        <ele>229</ele>
        <time>2016-09-10T09:08:04Z</time>
      </trkpt>
      <trkpt lat="45.97053" lon="4.7838">
        <ele>229</ele>
        <time>2016-09-10T09:08:05Z</time>
      </trkpt>
      <trkpt lat="45.97059" lon="4.78375">
        <ele>229</ele>
        <time>2016-09-10T09:08:08Z</time>
      </trkpt>
      <trkpt lat="45.97061" lon="4.78373">
        <ele>230</ele>
        <time>2016-09-10T09:08:09Z</time>
      </trkpt>
      <trkpt lat="45.97068" lon="4.78367">
        <ele>230</ele>
        <time>2016-09-10T09:08:12Z</time>
      </trkpt>
      <trkpt lat="45.9707" lon="4.78365">
        <ele>230</ele>
        <time>2016-09-10T09:08:13Z</time>
      </trkpt>
      <trkpt lat="45.97078" lon="4.78359">
        <ele>230</ele>
        <time>2016-09-10T09:08:16Z</time>
      </trkpt>
      <trkpt lat="45.97081" lon="4.78357">
        <ele>230</ele>
        <time>2016-09-10T09:08:17Z</time>
      </trkpt>
      <trkpt lat="45.97087" lon="4.78353">
        <ele>231</ele>
        <time>2016-09-10T09:08:19Z</time>
      </trkpt>
      <trkpt lat="45.97089" lon="4.78351">
        <ele>231</ele>
        <time>2016-09-10T09:08:20Z</time>
      </trkpt>
      <trkpt lat="45.97095" lon="4.78346">
        <ele>231</ele>
        <time>2016-09-10T09:08:22Z</time>
      </trkpt>
      <trkpt lat="45.97098" lon="4.78344">
        <ele>231</ele>
        <time>2016-09-10T09:08:23Z</time>
      </trkpt>
      <trkpt lat="45.97104" lon="4.78339">
        <ele>231</ele>
        <time>2016-09-10T09:08:25Z</time>
      </trkpt>
      <trkpt lat="45.97107" lon="4.78337">
        <ele>231</ele>
        <time>2016-09-10T09:08:26Z</time>
      </trkpt>
      <trkpt lat="45.97112" lon="4.78332">
        <ele>231</ele>
        <time>2016-09-10T09:08:28Z</time>
      </trkpt>
      <trkpt lat="45.97115" lon="4.7833">
        <ele>231</ele>
        <time>2016-09-10T09:08:29Z</time>
      </trkpt>
      <trkpt lat="45.97121" lon="4.78326">
        <ele>231</ele>
        <time>2016-09-10T09:08:31Z</time>
      </trkpt>
      <trkpt lat="45.97123" lon="4.78324">
        <ele>231</ele>
        <time>2016-09-10T09:08:32Z</time>
      </trkpt>
      <trkpt lat="45.97129" lon="4.7832">
        <ele>230</ele>
        <time>2016-09-10T09:08:34Z</time>
      </trkpt>
      <trkpt lat="45.97131" lon="4.78318">
        <ele>230</ele>
        <time>2016-09-10T09:08:35Z</time>
      </trkpt>
      <trkpt lat="45.97137" lon="4.78313">
        <ele>230</ele>
        <time>2016-09-10T09:08:37Z</time>
      </trkpt>
      <trkpt lat="45.9714" lon="4.78311">
        <ele>230</ele>
        <time>2016-09-10T09:08:38Z</time>
      </trkpt>
      <trkpt lat="45.97146" lon="4.78307">
        <ele>230</ele>
        <time>2016-09-10T09:08:40Z</time>
      </trkpt>
      <trkpt lat="45.97149" lon="4.78305">
        <ele>230</ele>
        <time>2016-09-10T09:08:41Z</time>
      </trkpt>
      <trkpt lat="45.97155" lon="4.78301">
        <ele>230</ele>
        <time>2016-09-10T09:08:43Z</time>
      </trkpt>
      <trkpt lat="45.97158" lon="4.78298">
        <ele>230</ele>
        <time>2016-09-10T09:08:44Z</time>
      </trkpt>
      <trkpt lat="45.97164" lon="4.78293">
        <ele>230</ele>
        <time>2016-09-10T09:08:46Z</time>
      </trkpt>
      <trkpt lat="45.97167" lon="4.7829">
        <ele>230</ele>
        <time>2016-09-10T09:08:47Z</time>
      </trkpt>
      <trkpt lat="45.97173" lon="4.78285">
        <ele>230</ele>
        <time>2016-09-10T09:08:49Z</time>
      </trkpt>
      <trkpt lat="45.97175" lon="4.78283">
        <ele>230</ele>
        <time>2016-09-10T09:08:50Z</time>
      </trkpt>
      <trkpt lat="45.97181" lon="4.78279">
        <ele>230</ele>
        <time>2016-09-10T09:08:52Z</time>
      </trkpt>
      <trkpt lat="45.97184" lon="4.78276">
        <ele>230</ele>
        <time>2016-09-10T09:08:53Z</time>
      </trkpt>
      <trkpt lat="45.9719" lon="4.78271">
        <ele>230</ele>
        <time>2016-09-10T09:08:55Z</time>
      </trkpt>
      <trkpt lat="45.97193" lon="4.78269">
        <ele>230</ele>
        <time>2016-09-10T09:08:56Z</time>
      </trkpt>
      <trkpt lat="45.97199" lon="4.78263">
        <ele>230</ele>
        <time>2016-09-10T09:08:58Z</time>
      </trkpt>
      <trkpt lat="45.97202" lon="4.78261">
        <ele>230</ele>
        <time>2016-09-10T09:08:59Z</time>
      </trkpt>
      <trkpt lat="45.97209" lon="4.78255">
        <ele>231</ele>
        <time>2016-09-10T09:09:01Z</time>
      </trkpt>
      <trkpt lat="45.97212" lon="4.78253">
        <ele>231</ele>
        <time>2016-09-10T09:09:02Z</time>
      </trkpt>
      <trkpt lat="45.9722" lon="4.78249">
        <ele>231</ele>
        <time>2016-09-10T09:09:04Z</time>
      </trkpt>
      <trkpt lat="45.97224" lon="4.78247">
        <ele>231</ele>
        <time>2016-09-10T09:09:05Z</time>
      </trkpt>
      <trkpt lat="45.97231" lon="4.7825">
        <ele>231</ele>
        <time>2016-09-10T09:09:07Z</time>
      </trkpt>
      <trkpt lat="45.97233" lon="4.78253">
        <ele>231</ele>
        <time>2016-09-10T09:09:08Z</time>
      </trkpt>
      <trkpt lat="45.97238" lon="4.7826">
        <ele>231</ele>
        <time>2016-09-10T09:09:10Z</time>
      </trkpt>
      <trkpt lat="45.9724" lon="4.78265">
        <ele>231</ele>
        <time>2016-09-10T09:09:11Z</time>
      </trkpt>
      <trkpt lat="45.97246" lon="4.78273">
        <ele>231</ele>
        <time>2016-09-10T09:09:13Z</time>
      </trkpt>
      <trkpt lat="45.97249" lon="4.78277">
        <ele>231</ele>
        <time>2016-09-10T09:09:14Z</time>
      </trkpt>
      <trkpt lat="45.97254" lon="4.78286">
        <ele>232</ele>
        <time>2016-09-10T09:09:16Z</time>
      </trkpt>
      <trkpt lat="45.97256" lon="4.7829">
        <ele>232</ele>
        <time>2016-09-10T09:09:17Z</time>
      </trkpt>
      <trkpt lat="45.97262" lon="4.78298">
        <ele>232</ele>
        <time>2016-09-10T09:09:19Z</time>
      </trkpt>
      <trkpt lat="45.97265" lon="4.78303">
        <ele>232</ele>
        <time>2016-09-10T09:09:20Z</time>
      </trkpt>
      <trkpt lat="45.97271" lon="4.78311">
        <ele>232</ele>
        <time>2016-09-10T09:09:22Z</time>
      </trkpt>
      <trkpt lat="45.97274" lon="4.78316">
        <ele>232</ele>
        <time>2016-09-10T09:09:23Z</time>
      </trkpt>
      <trkpt lat="45.9728" lon="4.78325">
        <ele>232</ele>
        <time>2016-09-10T09:09:25Z</time>
      </trkpt>
      <trkpt lat="45.97283" lon="4.78329">
        <ele>232</ele>
        <time>2016-09-10T09:09:26Z</time>
      </trkpt>
      <trkpt lat="45.97287" lon="4.78334">
        <ele>232</ele>
        <time>2016-09-10T09:09:27Z</time>
      </trkpt>
      <trkpt lat="45.9729" lon="4.78338">
        <ele>232</ele>
        <time>2016-09-10T09:09:28Z</time>
      </trkpt>
      <trkpt lat="45.97297" lon="4.78346">
        <ele>232</ele>
        <time>2016-09-10T09:09:30Z</time>
      </trkpt>
      <trkpt lat="45.973" lon="4.7835">
        <ele>232</ele>
        <time>2016-09-10T09:09:31Z</time>
      </trkpt>
      <trkpt lat="45.97306" lon="4.78358">
        <ele>232</ele>
        <time>2016-09-10T09:09:33Z</time>
      </trkpt>
      <trkpt lat="45.97309" lon="4.78362">
        <ele>232</ele>
        <time>2016-09-10T09:09:34Z</time>
      </trkpt>
      <trkpt lat="45.97316" lon="4.7837">
        <ele>232</ele>
        <time>2016-09-10T09:09:36Z</time>
      </trkpt>
      <trkpt lat="45.97319" lon="4.78374">
        <ele>232</ele>
        <time>2016-09-10T09:09:37Z</time>
      </trkpt>
      <trkpt lat="45.97325" lon="4.78382">
        <ele>232</ele>
        <time>2016-09-10T09:09:39Z</time>
      </trkpt>
      <trkpt lat="45.97329" lon="4.78386">
        <ele>232</ele>
        <time>2016-09-10T09:09:40Z</time>
      </trkpt>
      <trkpt lat="45.97333" lon="4.78389">
        <ele>232</ele>
        <time>2016-09-10T09:09:41Z</time>
      </trkpt>
      <trkpt lat="45.97337" lon="4.78393">
        <ele>232</ele>
        <time>2016-09-10T09:09:42Z</time>
      </trkpt>
      <trkpt lat="45.9734" lon="4.78397">
        <ele>232</ele>
        <time>2016-09-10T09:09:43Z</time>
      </trkpt>
      <trkpt lat="45.97344" lon="4.78401">
        <ele>232</ele>
        <time>2016-09-10T09:09:44Z</time>
      </trkpt>
      <trkpt lat="45.97352" lon="4.78405">
        <ele>232</ele>
        <time>2016-09-10T09:09:46Z</time>
      </trkpt>
      <trkpt lat="45.97357" lon="4.78404">
        <ele>233</ele>
        <time>2016-09-10T09:09:47Z</time>
      </trkpt>
      <trkpt lat="45.97365" lon="4.78398">
        <ele>233</ele>
        <time>2016-09-10T09:09:49Z</time>
      </trkpt>
      <trkpt lat="45.97367" lon="4.78395">
        <ele>233</ele>
        <time>2016-09-10T09:09:50Z</time>
      </trkpt>
      <trkpt lat="45.97373" lon="4.78386">
        <ele>233</ele>
        <time>2016-09-10T09:09:52Z</time>
      </trkpt>
      <trkpt lat="45.97377" lon="4.78383">
        <ele>233</ele>
        <time>2016-09-10T09:09:53Z</time>
      </trkpt>
      <trkpt lat="45.97383" lon="4.78375">
        <ele>233</ele>
        <time>2016-09-10T09:09:55Z</time>
      </trkpt>
      <trkpt lat="45.97386" lon="4.78372">
        <ele>233</ele>
        <time>2016-09-10T09:09:56Z</time>
      </trkpt>
      <trkpt lat="45.97392" lon="4.78365">
        <ele>233</ele>
        <time>2016-09-10T09:09:58Z</time>
      </trkpt>
      <trkpt lat="45.97395" lon="4.78361">
        <ele>233</ele>
        <time>2016-09-10T09:09:59Z</time>
      </trkpt>
      <trkpt lat="45.97402" lon="4.78355">
        <ele>233</ele>
        <time>2016-09-10T09:10:01Z</time>
      </trkpt>
      <trkpt lat="45.97405" lon="4.78352">
        <ele>233</ele>
        <time>2016-09-10T09:10:02Z</time>
      </trkpt>
      <trkpt lat="45.97411" lon="4.78346">
        <ele>233</ele>
        <time>2016-09-10T09:10:04Z</time>
      </trkpt>
      <trkpt lat="45.97413" lon="4.78343">
        <ele>233</ele>
        <time>2016-09-10T09:10:05Z</time>
      </trkpt>
      <trkpt lat="45.97419" lon="4.78337">
        <ele>233</ele>
        <time>2016-09-10T09:10:07Z</time>
      </trkpt>
      <trkpt lat="45.97422" lon="4.78333">
        <ele>233</ele>
        <time>2016-09-10T09:10:08Z</time>
      </trkpt>
      <trkpt lat="45.97428" lon="4.78326">
        <ele>233</ele>
        <time>2016-09-10T09:10:10Z</time>
      </trkpt>
      <trkpt lat="45.97431" lon="4.78323">
        <ele>234</ele>
        <time>2016-09-10T09:10:11Z</time>
      </trkpt>
      <trkpt lat="45.97436" lon="4.78316">
        <ele>234</ele>
        <time>2016-09-10T09:10:13Z</time>
      </trkpt>
      <trkpt lat="45.97438" lon="4.78312">
        <ele>234</ele>
        <time>2016-09-10T09:10:14Z</time>
      </trkpt>
      <trkpt lat="45.97444" lon="4.78306">
        <ele>234</ele>
        <time>2016-09-10T09:10:16Z</time>
      </trkpt>
      <trkpt lat="45.97447" lon="4.78302">
        <ele>234</ele>
        <time>2016-09-10T09:10:17Z</time>
      </trkpt>
      <trkpt lat="45.97453" lon="4.78296">
        <ele>234</ele>
        <time>2016-09-10T09:10:19Z</time>
      </trkpt>
      <trkpt lat="45.97456" lon="4.78292">
        <ele>234</ele>
        <time>2016-09-10T09:10:20Z</time>
      </trkpt>
      <trkpt lat="45.97461" lon="4.78286">
        <ele>234</ele>
        <time>2016-09-10T09:10:22Z</time>
      </trkpt>
      <trkpt lat="45.97463" lon="4.78283">
        <ele>234</ele>
        <time>2016-09-10T09:10:23Z</time>
      </trkpt>
      <trkpt lat="45.9747" lon="4.78276">
        <ele>235</ele>
        <time>2016-09-10T09:10:25Z</time>
      </trkpt>
      <trkpt lat="45.97473" lon="4.78273">
        <ele>235</ele>
        <time>2016-09-10T09:10:26Z</time>
      </trkpt>
      <trkpt lat="45.97478" lon="4.78267">
        <ele>235</ele>
        <time>2016-09-10T09:10:28Z</time>
      </trkpt>
      <trkpt lat="45.97481" lon="4.78264">
        <ele>235</ele>
        <time>2016-09-10T09:10:29Z</time>
      </trkpt>
      <trkpt lat="45.97486" lon="4.78259">
        <ele>235</ele>
        <time>2016-09-10T09:10:31Z</time>
      </trkpt>
      <trkpt lat="45.97489" lon="4.78256">
        <ele>235</ele>
        <time>2016-09-10T09:10:32Z</time>
      </trkpt>
      <trkpt lat="45.97494" lon="4.7825">
        <ele>236</ele>
        <time>2016-09-10T09:10:34Z</time>
      </trkpt>
      <trkpt lat="45.97496" lon="4.78247">
        <ele>236</ele>
        <time>2016-09-10T09:10:35Z</time>
      </trkpt>
      <trkpt lat="45.97502" lon="4.78241">
        <ele>237</ele>
        <time>2016-09-10T09:10:37Z</time>
      </trkpt>
      <trkpt lat="45.97505" lon="4.78238">
        <ele>237</ele>
        <time>2016-09-10T09:10:38Z</time>
      </trkpt>
      <trkpt lat="45.97511" lon="4.78232">
        <ele>237</ele>
        <time>2016-09-10T09:10:40Z</time>
      </trkpt>
      <trkpt lat="45.97513" lon="4.7823">
        <ele>238</ele>
        <time>2016-09-10T09:10:41Z</time>
      </trkpt>
      <trkpt lat="45.97518" lon="4.78224">
        <ele>238</ele>
        <time>2016-09-10T09:10:43Z</time>
      </trkpt>
      <trkpt lat="45.97521" lon="4.78221">
        <ele>238</ele>
        <time>2016-09-10T09:10:44Z</time>
      </trkpt>
      <trkpt lat="45.97526" lon="4.78216">
        <ele>238</ele>
        <time>2016-09-10T09:10:46Z</time>
      </trkpt>
      <trkpt lat="45.97529" lon="4.78213">
        <ele>238</ele>
        <time>2016-09-10T09:10:47Z</time>
      </trkpt>
      <trkpt lat="45.97535" lon="4.78206">
        <ele>238</ele>
        <time>2016-09-10T09:10:49Z</time>
      </trkpt>
      <trkpt lat="45.97538" lon="4.78202">
        <ele>239</ele>
        <time>2016-09-10T09:10:50Z</time>
      </trkpt>
      <trkpt lat="45.97543" lon="4.78196">
        <ele>239</ele>
        <time>2016-09-10T09:10:52Z</time>
      </trkpt>
      <trkpt lat="45.97546" lon="4.78193">
        <ele>239</ele>
        <time>2016-09-10T09:10:53Z</time>
      </trkpt>
      <trkpt lat="45.97552" lon="4.78187">
        <ele>239</ele>
        <time>2016-09-10T09:10:55Z</time>
      </trkpt>
      <trkpt lat="45.97555" lon="4.78184">
        <ele>239</ele>
        <time>2016-09-10T09:10:56Z</time>
      </trkpt>
      <trkpt lat="45.9756" lon="4.78178">
        <ele>240</ele>
        <time>2016-09-10T09:10:58Z</time>
      </trkpt>
      <trkpt lat="45.97562" lon="4.78176">
        <ele>240</ele>
        <time>2016-09-10T09:10:59Z</time>
      </trkpt>
      <trkpt lat="45.97567" lon="4.7817">
        <ele>240</ele>
        <time>2016-09-10T09:11:01Z</time>
      </trkpt>
      <trkpt lat="45.9757" lon="4.78167">
        <ele>241</ele>
        <time>2016-09-10T09:11:02Z</time>
      </trkpt>
      <trkpt lat="45.97574" lon="4.78161">
        <ele>242</ele>
        <time>2016-09-10T09:11:04Z</time>
      </trkpt>
      <trkpt lat="45.97576" lon="4.78158">
        <ele>242</ele>
        <time>2016-09-10T09:11:05Z</time>
      </trkpt>
      <trkpt lat="45.97583" lon="4.7815">
        <ele>242</ele>
        <time>2016-09-10T09:11:08Z</time>
      </trkpt>
      <trkpt lat="45.97586" lon="4.78148">
        <ele>244</ele>
        <time>2016-09-10T09:11:09Z</time>
      </trkpt>
      <trkpt lat="45.9759" lon="4.78141">
        <ele>245</ele>
        <time>2016-09-10T09:11:11Z</time>
      </trkpt>
      <trkpt lat="45.97592" lon="4.78138">
        <ele>245</ele>
        <time>2016-09-10T09:11:12Z</time>
      </trkpt>
      <trkpt lat="45.97597" lon="4.78133">
        <ele>245</ele>
        <time>2016-09-10T09:11:14Z</time>
      </trkpt>
      <trkpt lat="45.97599" lon="4.7813">
        <ele>245</ele>
        <time>2016-09-10T09:11:15Z</time>
      </trkpt>
      <trkpt lat="45.97604" lon="4.78124">
        <ele>245</ele>
        <time>2016-09-10T09:11:17Z</time>
      </trkpt>
      <trkpt lat="45.97607" lon="4.78121">
        <ele>246</ele>
        <time>2016-09-10T09:11:18Z</time>
      </trkpt>
      <trkpt lat="45.97612" lon="4.78115">
        <ele>246</ele>
        <time>2016-09-10T09:11:20Z</time>
      </trkpt>
      <trkpt lat="45.97615" lon="4.78112">
        <ele>246</ele>
        <time>2016-09-10T09:11:21Z</time>
      </trkpt>
      <trkpt lat="45.9762" lon="4.78106">
        <ele>246</ele>
        <time>2016-09-10T09:11:23Z</time>
      </trkpt>
      <trkpt lat="45.97623" lon="4.78103">
        <ele>246</ele>
        <time>2016-09-10T09:11:24Z</time>
      </trkpt>
      <trkpt lat="45.97628" lon="4.78097">
        <ele>246</ele>
        <time>2016-09-10T09:11:26Z</time>
      </trkpt>
      <trkpt lat="45.97631" lon="4.78094">
        <ele>247</ele>
        <time>2016-09-10T09:11:27Z</time>
      </trkpt>
      <trkpt lat="45.97638" lon="4.78086">
        <ele>247</ele>
        <time>2016-09-10T09:11:29Z</time>
      </trkpt>
      <trkpt lat="45.97641" lon="4.78082">
        <ele>247</ele>
        <time>2016-09-10T09:11:30Z</time>
      </trkpt>
      <trkpt lat="45.97647" lon="4.78075">
        <ele>247</ele>
        <time>2016-09-10T09:11:32Z</time>
      </trkpt>
      <trkpt lat="45.97651" lon="4.78073">
        <ele>247</ele>
        <time>2016-09-10T09:11:33Z</time>
      </trkpt>
      <trkpt lat="45.97659" lon="4.78068">
        <ele>247</ele>
        <time>2016-09-10T09:11:35Z</time>
      </trkpt>
      <trkpt lat="45.97663" lon="4.78066">
        <ele>247</ele>
        <time>2016-09-10T09:11:36Z</time>
      </trkpt>
      <trkpt lat="45.9767" lon="4.78062">
        <ele>248</ele>
        <time>2016-09-10T09:11:38Z</time>
      </trkpt>
      <trkpt lat="45.97673" lon="4.7806">
        <ele>248</ele>
        <time>2016-09-10T09:11:39Z</time>
      </trkpt>
      <trkpt lat="45.97681" lon="4.78056">
        <ele>247</ele>
        <time>2016-09-10T09:11:41Z</time>
      </trkpt>
      <trkpt lat="45.97684" lon="4.78054">
        <ele>247</ele>
        <time>2016-09-10T09:11:42Z</time>
      </trkpt>
      <trkpt lat="45.97692" lon="4.78051">
        <ele>247</ele>
        <time>2016-09-10T09:11:44Z</time>
      </trkpt>
      <trkpt lat="45.97695" lon="4.7805">
        <ele>247</ele>
        <time>2016-09-10T09:11:45Z</time>
      </trkpt>
      <trkpt lat="45.97703" lon="4.78047">
        <ele>247</ele>
        <time>2016-09-10T09:11:47Z</time>
      </trkpt>
      <trkpt lat="45.97707" lon="4.78046">
        <ele>247</ele>
        <time>2016-09-10T09:11:48Z</time>
      </trkpt>
      <trkpt lat="45.97716" lon="4.78042">
        <ele>247</ele>
        <time>2016-09-10T09:11:50Z</time>
      </trkpt>
      <trkpt lat="45.9772" lon="4.7804">
        <ele>247</ele>
        <time>2016-09-10T09:11:51Z</time>
      </trkpt>
      <trkpt lat="45.97728" lon="4.78036">
        <ele>247</ele>
        <time>2016-09-10T09:11:53Z</time>
      </trkpt>
      <trkpt lat="45.97733" lon="4.78035">
        <ele>247</ele>
        <time>2016-09-10T09:11:54Z</time>
      </trkpt>
      <trkpt lat="45.97737" lon="4.78033">
        <ele>247</ele>
        <time>2016-09-10T09:11:55Z</time>
      </trkpt>
      <trkpt lat="45.97741" lon="4.78031">
        <ele>247</ele>
        <time>2016-09-10T09:11:56Z</time>
      </trkpt>
      <trkpt lat="45.97746" lon="4.7803">
        <ele>247</ele>
        <time>2016-09-10T09:11:57Z</time>
      </trkpt>
      <trkpt lat="45.9775" lon="4.78028">
        <ele>246</ele>
        <time>2016-09-10T09:11:58Z</time>
      </trkpt>
      <trkpt lat="45.97759" lon="4.78025">
        <ele>246</ele>
        <time>2016-09-10T09:12:00Z</time>
      </trkpt>
      <trkpt lat="45.97763" lon="4.78024">
        <ele>246</ele>
        <time>2016-09-10T09:12:01Z</time>
      </trkpt>
      <trkpt lat="45.97771" lon="4.78021">
        <ele>246</ele>
        <time>2016-09-10T09:12:03Z</time>
      </trkpt>
      <trkpt lat="45.97775" lon="4.78019">
        <ele>246</ele>
        <time>2016-09-10T09:12:04Z</time>
      </trkpt>
      <trkpt lat="45.97783" lon="4.78015">
        <ele>246</ele>
        <time>2016-09-10T09:12:06Z</time>
      </trkpt>
      <trkpt lat="45.97787" lon="4.78013">
        <ele>246</ele>
        <time>2016-09-10T09:12:07Z</time>
      </trkpt>
      <trkpt lat="45.97791" lon="4.78012">
        <ele>246</ele>
        <time>2016-09-10T09:12:08Z</time>
      </trkpt>
      <trkpt lat="45.97796" lon="4.7801">
        <ele>246</ele>
        <time>2016-09-10T09:12:09Z</time>
      </trkpt>
      <trkpt lat="45.978" lon="4.78008">
        <ele>246</ele>
        <time>2016-09-10T09:12:10Z</time>
      </trkpt>
      <trkpt lat="45.97805" lon="4.78006">
        <ele>246</ele>
        <time>2016-09-10T09:12:11Z</time>
      </trkpt>
      <trkpt lat="45.9781" lon="4.78004">
        <ele>246</ele>
        <time>2016-09-10T09:12:12Z</time>
      </trkpt>
      <trkpt lat="45.97815" lon="4.78002">
        <ele>246</ele>
        <time>2016-09-10T09:12:13Z</time>
      </trkpt>
      <trkpt lat="45.9782" lon="4.78">
        <ele>246</ele>
        <time>2016-09-10T09:12:14Z</time>
      </trkpt>
      <trkpt lat="45.97825" lon="4.77998">
        <ele>246</ele>
        <time>2016-09-10T09:12:15Z</time>
      </trkpt>
      <trkpt lat="45.9783" lon="4.77996">
        <ele>246</ele>
        <time>2016-09-10T09:12:16Z</time>
      </trkpt>
      <trkpt lat="45.97835" lon="4.77994">
        <ele>246</ele>
        <time>2016-09-10T09:12:17Z</time>
      </trkpt>
      <trkpt lat="45.9784" lon="4.77992">
        <ele>246</ele>
        <time>2016-09-10T09:12:18Z</time>
      </trkpt>
      <trkpt lat="45.97845" lon="4.7799">
        <ele>246</ele>
        <time>2016-09-10T09:12:19Z</time>
      </trkpt>
      <trkpt lat="45.97849" lon="4.77988">
        <ele>246</ele>
        <time>2016-09-10T09:12:20Z</time>
      </trkpt>
      <trkpt lat="45.97854" lon="4.77986">
        <ele>246</ele>
        <time>2016-09-10T09:12:21Z</time>
      </trkpt>
      <trkpt lat="45.97859" lon="4.77984">
        <ele>246</ele>
        <time>2016-09-10T09:12:22Z</time>
      </trkpt>
      <trkpt lat="45.97864" lon="4.77982">
        <ele>246</ele>
        <time>2016-09-10T09:12:23Z</time>
      </trkpt>
      <trkpt lat="45.97869" lon="4.7798">
        <ele>246</ele>
        <time>2016-09-10T09:12:24Z</time>
      </trkpt>
      <trkpt lat="45.97874" lon="4.77978">
        <ele>246</ele>
        <time>2016-09-10T09:12:25Z</time>
      </trkpt>
      <trkpt lat="45.9788" lon="4.77976">
        <ele>246</ele>
        <time>2016-09-10T09:12:26Z</time>
      </trkpt>
      <trkpt lat="45.97886" lon="4.77974">
        <ele>246</ele>
        <time>2016-09-10T09:12:27Z</time>
      </trkpt>
      <trkpt lat="45.97892" lon="4.77973">
        <ele>246</ele>
        <time>2016-09-10T09:12:28Z</time>
      </trkpt>
      <trkpt lat="45.97898" lon="4.77971">
        <ele>246</ele>
        <time>2016-09-10T09:12:29Z</time>
      </trkpt>
      <trkpt lat="45.97903" lon="4.77969">
        <ele>246</ele>
        <time>2016-09-10T09:12:30Z</time>
      </trkpt>
      <trkpt lat="45.9791" lon="4.77968">
        <ele>246</ele>
        <time>2016-09-10T09:12:31Z</time>
      </trkpt>
      <trkpt lat="45.97916" lon="4.77967">
        <ele>246</ele>
        <time>2016-09-10T09:12:32Z</time>
      </trkpt>
      <trkpt lat="45.97922" lon="4.77965">
        <ele>246</ele>
        <time>2016-09-10T09:12:33Z</time>
      </trkpt>
      <trkpt lat="45.97928" lon="4.77965">
        <ele>246</ele>
        <time>2016-09-10T09:12:34Z</time>
      </trkpt>
      <trkpt lat="45.97934" lon="4.77964">
        <ele>246</ele>
        <time>2016-09-10T09:12:35Z</time>
      </trkpt>
      <trkpt lat="45.97941" lon="4.77963">
        <ele>246</ele>
        <time>2016-09-10T09:12:36Z</time>
      </trkpt>
      <trkpt lat="45.97947" lon="4.77962">
        <ele>246</ele>
        <time>2016-09-10T09:12:37Z</time>
      </trkpt>
      <trkpt lat="45.97953" lon="4.77961">
        <ele>246</ele>
        <time>2016-09-10T09:12:38Z</time>
      </trkpt>
      <trkpt lat="45.97959" lon="4.7796">
        <ele>246</ele>
        <time>2016-09-10T09:12:39Z</time>
      </trkpt>
      <trkpt lat="45.97965" lon="4.77959">
        <ele>246</ele>
        <time>2016-09-10T09:12:40Z</time>
      </trkpt>
      <trkpt lat="45.97971" lon="4.77958">
        <ele>246</ele>
        <time>2016-09-10T09:12:41Z</time>
      </trkpt>
      <trkpt lat="45.97978" lon="4.77957">
        <ele>246</ele>
        <time>2016-09-10T09:12:42Z</time>
      </trkpt>
      <trkpt lat="45.97984" lon="4.77956">
        <ele>246</ele>
        <time>2016-09-10T09:12:43Z</time>
      </trkpt>
      <trkpt lat="45.97991" lon="4.77956">
        <ele>246</ele>
        <time>2016-09-10T09:12:44Z</time>
      </trkpt>
      <trkpt lat="45.97997" lon="4.77955">
        <ele>246</ele>
        <time>2016-09-10T09:12:45Z</time>
      </trkpt>
      <trkpt lat="45.98004" lon="4.77954">
        <ele>247</ele>
        <time>2016-09-10T09:12:46Z</time>
      </trkpt>
      <trkpt lat="45.9801" lon="4.77953">
        <ele>247</ele>
        <time>2016-09-10T09:12:47Z</time>
      </trkpt>
      <trkpt lat="45.98017" lon="4.77952">
        <ele>247</ele>
        <time>2016-09-10T09:12:48Z</time>
      </trkpt>
      <trkpt lat="45.98023" lon="4.77951">
        <ele>247</ele>
        <time>2016-09-10T09:12:49Z</time>
      </trkpt>
      <trkpt lat="45.98029" lon="4.7795">
        <ele>247</ele>
        <time>2016-09-10T09:12:50Z</time>
      </trkpt>
      <trkpt lat="45.98036" lon="4.77949">
        <ele>247</ele>
        <time>2016-09-10T09:12:51Z</time>
      </trkpt>
      <trkpt lat="45.98042" lon="4.77948">
        <ele>247</ele>
        <time>2016-09-10T09:12:52Z</time>
      </trkpt>
      <trkpt lat="45.98048" lon="4.77946">
        <ele>247</ele>
        <time>2016-09-10T09:12:53Z</time>
      </trkpt>
      <trkpt lat="45.98055" lon="4.77946">
        <ele>247</ele>
        <time>2016-09-10T09:12:54Z</time>
      </trkpt>
      <trkpt lat="45.98061" lon="4.77945">
        <ele>247</ele>
        <time>2016-09-10T09:12:55Z</time>
      </trkpt>
      <trkpt lat="45.98067" lon="4.77944">
        <ele>247</ele>
        <time>2016-09-10T09:12:56Z</time>
      </trkpt>
      <trkpt lat="45.98074" lon="4.77943">
        <ele>247</ele>
        <time>2016-09-10T09:12:57Z</time>
      </trkpt>
      <trkpt lat="45.9808" lon="4.77942">
        <ele>247</ele>
        <time>2016-09-10T09:12:58Z</time>
      </trkpt>
      <trkpt lat="45.98087" lon="4.77942">
        <ele>246</ele>
        <time>2016-09-10T09:12:59Z</time>
      </trkpt>
      <trkpt lat="45.98093" lon="4.77941">
        <ele>246</ele>
        <time>2016-09-10T09:13:00Z</time>
      </trkpt>
      <trkpt lat="45.981" lon="4.7794">
        <ele>246</ele>
        <time>2016-09-10T09:13:01Z</time>
      </trkpt>
      <trkpt lat="45.98107" lon="4.77939">
        <ele>246</ele>
        <time>2016-09-10T09:13:02Z</time>
      </trkpt>
      <trkpt lat="45.98114" lon="4.77938">
        <ele>246</ele>
        <time>2016-09-10T09:13:03Z</time>
      </trkpt>
      <trkpt lat="45.98121" lon="4.77937">
        <ele>246</ele>
        <time>2016-09-10T09:13:04Z</time>
      </trkpt>
      <trkpt lat="45.98127" lon="4.77935">
        <ele>246</ele>
        <time>2016-09-10T09:13:05Z</time>
      </trkpt>
      <trkpt lat="45.98134" lon="4.77934">
        <ele>246</ele>
        <time>2016-09-10T09:13:06Z</time>
      </trkpt>
      <trkpt lat="45.9814" lon="4.77932">
        <ele>246</ele>
        <time>2016-09-10T09:13:07Z</time>
      </trkpt>
      <trkpt lat="45.98146" lon="4.77931">
        <ele>246</ele>
        <time>2016-09-10T09:13:08Z</time>
      </trkpt>
      <trkpt lat="45.98152" lon="4.77929">
        <ele>246</ele>
        <time>2016-09-10T09:13:09Z</time>
      </trkpt>
      <trkpt lat="45.98159" lon="4.77927">
        <ele>245</ele>
        <time>2016-09-10T09:13:10Z</time>
      </trkpt>
      <trkpt lat="45.98165" lon="4.77924">
        <ele>245</ele>
        <time>2016-09-10T09:13:11Z</time>
      </trkpt>
      <trkpt lat="45.98171" lon="4.77922">
        <ele>245</ele>
        <time>2016-09-10T09:13:12Z</time>
      </trkpt>
      <trkpt lat="45.98177" lon="4.77919">
        <ele>245</ele>
        <time>2016-09-10T09:13:13Z</time>
      </trkpt>
      <trkpt lat="45.98184" lon="4.77917">
        <ele>245</ele>
        <time>2016-09-10T09:13:14Z</time>
      </trkpt>
      <trkpt lat="45.9819" lon="4.77915">
        <ele>245</ele>
        <time>2016-09-10T09:13:15Z</time>
      </trkpt>
      <trkpt lat="45.98197" lon="4.77913">
        <ele>244</ele>
        <time>2016-09-10T09:13:16Z</time>
      </trkpt>
      <trkpt lat="45.98203" lon="4.77911">
        <ele>244</ele>
        <time>2016-09-10T09:13:17Z</time>
      </trkpt>
      <trkpt lat="45.98209" lon="4.77909">
        <ele>244</ele>
        <time>2016-09-10T09:13:18Z</time>
      </trkpt>
      <trkpt lat="45.98215" lon="4.77907">
        <ele>244</ele>
        <time>2016-09-10T09:13:19Z</time>
      </trkpt>
      <trkpt lat="45.98221" lon="4.77905">
        <ele>244</ele>
        <time>2016-09-10T09:13:20Z</time>
      </trkpt>
      <trkpt lat="45.98227" lon="4.77904">
        <ele>244</ele>
        <time>2016-09-10T09:13:21Z</time>
      </trkpt>
      <trkpt lat="45.98233" lon="4.77902">
        <ele>244</ele>
        <time>2016-09-10T09:13:22Z</time>
      </trkpt>
      <trkpt lat="45.98239" lon="4.779">
        <ele>244</ele>
        <time>2016-09-10T09:13:23Z</time>
      </trkpt>
      <trkpt lat="45.98245" lon="4.77899">
        <ele>244</ele>
        <time>2016-09-10T09:13:24Z</time>
      </trkpt>
      <trkpt lat="45.9825" lon="4.77897">
        <ele>244</ele>
        <time>2016-09-10T09:13:25Z</time>
      </trkpt>
      <trkpt lat="45.98256" lon="4.77895">
        <ele>244</ele>
        <time>2016-09-10T09:13:26Z</time>
      </trkpt>
      <trkpt lat="45.98261" lon="4.77893">
        <ele>244</ele>
        <time>2016-09-10T09:13:27Z</time>
      </trkpt>
      <trkpt lat="45.98267" lon="4.77891">
        <ele>244</ele>
        <time>2016-09-10T09:13:28Z</time>
      </trkpt>
      <trkpt lat="45.98272" lon="4.77889">
        <ele>244</ele>
        <time>2016-09-10T09:13:29Z</time>
      </trkpt>
      <trkpt lat="45.98277" lon="4.77887">
        <ele>244</ele>
        <time>2016-09-10T09:13:30Z</time>
      </trkpt>
      <trkpt lat="45.98283" lon="4.77885">
        <ele>244</ele>
        <time>2016-09-10T09:13:31Z</time>
      </trkpt>
      <trkpt lat="45.98288" lon="4.77883">
        <ele>244</ele>
        <time>2016-09-10T09:13:32Z</time>
      </trkpt>
      <trkpt lat="45.98294" lon="4.7788">
        <ele>244</ele>
        <time>2016-09-10T09:13:33Z</time>
      </trkpt>
      <trkpt lat="45.983" lon="4.77878">
        <ele>243</ele>
        <time>2016-09-10T09:13:34Z</time>
      </trkpt>
      <trkpt lat="45.98306" lon="4.77875">
        <ele>243</ele>
        <time>2016-09-10T09:13:35Z</time>
      </trkpt>
      <trkpt lat="45.98311" lon="4.77873">
        <ele>243</ele>
        <time>2016-09-10T09:13:36Z</time>
      </trkpt>
      <trkpt lat="45.98317" lon="4.7787">
        <ele>243</ele>
        <time>2016-09-10T09:13:37Z</time>
      </trkpt>
      <trkpt lat="45.98323" lon="4.77867">
        <ele>243</ele>
        <time>2016-09-10T09:13:38Z</time>
      </trkpt>
      <trkpt lat="45.98329" lon="4.77864">
        <ele>243</ele>
        <time>2016-09-10T09:13:39Z</time>
      </trkpt>
      <trkpt lat="45.98335" lon="4.77862">
        <ele>242</ele>
        <time>2016-09-10T09:13:40Z</time>
      </trkpt>
      <trkpt lat="45.9834" lon="4.77859">
        <ele>242</ele>
        <time>2016-09-10T09:13:41Z</time>
      </trkpt>
      <trkpt lat="45.98346" lon="4.77856">
        <ele>242</ele>
        <time>2016-09-10T09:13:42Z</time>
      </trkpt>
      <trkpt lat="45.98351" lon="4.77855">
        <ele>242</ele>
        <time>2016-09-10T09:13:43Z</time>
      </trkpt>
      <trkpt lat="45.98356" lon="4.77853">
        <ele>242</ele>
        <time>2016-09-10T09:13:44Z</time>
      </trkpt>
      <trkpt lat="45.98362" lon="4.7785">
        <ele>242</ele>
        <time>2016-09-10T09:13:45Z</time>
      </trkpt>
      <trkpt lat="45.98367" lon="4.77847">
        <ele>242</ele>
        <time>2016-09-10T09:13:46Z</time>
      </trkpt>
      <trkpt lat="45.98373" lon="4.77845">
        <ele>242</ele>
        <time>2016-09-10T09:13:47Z</time>
      </trkpt>
      <trkpt lat="45.98378" lon="4.77842">
        <ele>242</ele>
        <time>2016-09-10T09:13:48Z</time>
      </trkpt>
      <trkpt lat="45.98383" lon="4.7784">
        <ele>242</ele>
        <time>2016-09-10T09:13:49Z</time>
      </trkpt>
      <trkpt lat="45.98389" lon="4.77837">
        <ele>242</ele>
        <time>2016-09-10T09:13:50Z</time>
      </trkpt>
      <trkpt lat="45.98394" lon="4.77835">
        <ele>242</ele>
        <time>2016-09-10T09:13:51Z</time>
      </trkpt>
      <trkpt lat="45.984" lon="4.77832">
        <ele>241</ele>
        <time>2016-09-10T09:13:52Z</time>
      </trkpt>
      <trkpt lat="45.98406" lon="4.7783">
        <ele>241</ele>
        <time>2016-09-10T09:13:53Z</time>
      </trkpt>
      <trkpt lat="45.98411" lon="4.77827">
        <ele>241</ele>
        <time>2016-09-10T09:13:54Z</time>
      </trkpt>
      <trkpt lat="45.98416" lon="4.77825">
        <ele>241</ele>
        <time>2016-09-10T09:13:55Z</time>
      </trkpt>
      <trkpt lat="45.98422" lon="4.77823">
        <ele>240</ele>
        <time>2016-09-10T09:13:56Z</time>
      </trkpt>
      <trkpt lat="45.98428" lon="4.7782">
        <ele>240</ele>
        <time>2016-09-10T09:13:57Z</time>
      </trkpt>
      <trkpt lat="45.98433" lon="4.77818">
        <ele>240</ele>
        <time>2016-09-10T09:13:58Z</time>
      </trkpt>
      <trkpt lat="45.98439" lon="4.77815">
        <ele>239</ele>
        <time>2016-09-10T09:13:59Z</time>
      </trkpt>
      <trkpt lat="45.98445" lon="4.77813">
        <ele>239</ele>
        <time>2016-09-10T09:14:00Z</time>
      </trkpt>
      <trkpt lat="45.9845" lon="4.7781">
        <ele>239</ele>
        <time>2016-09-10T09:14:01Z</time>
      </trkpt>
      <trkpt lat="45.98455" lon="4.77808">
        <ele>239</ele>
        <time>2016-09-10T09:14:02Z</time>
      </trkpt>
      <trkpt lat="45.9846" lon="4.77805">
        <ele>239</ele>
        <time>2016-09-10T09:14:03Z</time>
      </trkpt>
      <trkpt lat="45.98466" lon="4.77803">
        <ele>238</ele>
        <time>2016-09-10T09:14:04Z</time>
      </trkpt>
      <trkpt lat="45.98471" lon="4.778">
        <ele>238</ele>
        <time>2016-09-10T09:14:05Z</time>
      </trkpt>
      <trkpt lat="45.98477" lon="4.77798">
        <ele>238</ele>
        <time>2016-09-10T09:14:06Z</time>
      </trkpt>
      <trkpt lat="45.98483" lon="4.77796">
        <ele>238</ele>
        <time>2016-09-10T09:14:07Z</time>
      </trkpt>
      <trkpt lat="45.98488" lon="4.77793">
        <ele>238</ele>
        <time>2016-09-10T09:14:08Z</time>
      </trkpt>
      <trkpt lat="45.98493" lon="4.77791">
        <ele>238</ele>
        <time>2016-09-10T09:14:09Z</time>
      </trkpt>
      <trkpt lat="45.98499" lon="4.77789">
        <ele>238</ele>
        <time>2016-09-10T09:14:10Z</time>
      </trkpt>
      <trkpt lat="45.98503" lon="4.77787">
        <ele>236</ele>
        <time>2016-09-10T09:14:11Z</time>
      </trkpt>
      <trkpt lat="45.98512" lon="4.77783">
        <ele>236</ele>
        <time>2016-09-10T09:14:13Z</time>
      </trkpt>
      <trkpt lat="45.98515" lon="4.77782">
        <ele>236</ele>
        <time>2016-09-10T09:14:14Z</time>
      </trkpt>
      <trkpt lat="45.98519" lon="4.77781">
        <ele>236</ele>
        <time>2016-09-10T09:14:16Z</time>
      </trkpt>
      <trkpt lat="45.98519" lon="4.77781">
        <ele>236</ele>
        <time>2016-09-10T09:14:17Z</time>
      </trkpt>
      <trkpt lat="45.98526" lon="4.77779">
        <ele>236</ele>
        <time>2016-09-10T09:14:24Z</time>
      </trkpt>
      <trkpt lat="45.98528" lon="4.77777">
        <ele>236</ele>
        <time>2016-09-10T09:14:25Z</time>
      </trkpt>
      <trkpt lat="45.98535" lon="4.77772">
        <ele>236</ele>
        <time>2016-09-10T09:14:28Z</time>
      </trkpt>
      <trkpt lat="45.98538" lon="4.7777">
        <ele>236</ele>
        <time>2016-09-10T09:14:29Z</time>
      </trkpt>
      <trkpt lat="45.98546" lon="4.77763">
        <ele>235</ele>
        <time>2016-09-10T09:14:32Z</time>
      </trkpt>
      <trkpt lat="45.98548" lon="4.77761">
        <ele>235</ele>
        <time>2016-09-10T09:14:33Z</time>
      </trkpt>
      <trkpt lat="45.98555" lon="4.77758">
        <ele>235</ele>
        <time>2016-09-10T09:14:35Z</time>
      </trkpt>
      <trkpt lat="45.98558" lon="4.77757">
        <ele>235</ele>
        <time>2016-09-10T09:14:36Z</time>
      </trkpt>
      <trkpt lat="45.98566" lon="4.77754">
        <ele>234</ele>
        <time>2016-09-10T09:14:38Z</time>
      </trkpt>
      <trkpt lat="45.9857" lon="4.77751">
        <ele>234</ele>
        <time>2016-09-10T09:14:39Z</time>
      </trkpt>
      <trkpt lat="45.98575" lon="4.77748">
        <ele>233</ele>
        <time>2016-09-10T09:14:40Z</time>
      </trkpt>
      <trkpt lat="45.9858" lon="4.77745">
        <ele>233</ele>
        <time>2016-09-10T09:14:41Z</time>
      </trkpt>
      <trkpt lat="45.98585" lon="4.77741">
        <ele>232</ele>
        <time>2016-09-10T09:14:42Z</time>
      </trkpt>
      <trkpt lat="45.98591" lon="4.77739">
        <ele>232</ele>
        <time>2016-09-10T09:14:43Z</time>
      </trkpt>
      <trkpt lat="45.98597" lon="4.77734">
        <ele>232</ele>
        <time>2016-09-10T09:14:44Z</time>
      </trkpt>
      <trkpt lat="45.98603" lon="4.7773">
        <ele>231</ele>
        <time>2016-09-10T09:14:45Z</time>
      </trkpt>
      <trkpt lat="45.98609" lon="4.77726">
        <ele>231</ele>
        <time>2016-09-10T09:14:46Z</time>
      </trkpt>
      <trkpt lat="45.98615" lon="4.77721">
        <ele>231</ele>
        <time>2016-09-10T09:14:47Z</time>
      </trkpt>
      <trkpt lat="45.98621" lon="4.77717">
        <ele>231</ele>
        <time>2016-09-10T09:14:48Z</time>
      </trkpt>
      <trkpt lat="45.98628" lon="4.77711">
        <ele>231</ele>
        <time>2016-09-10T09:14:49Z</time>
      </trkpt>
      <trkpt lat="45.98635" lon="4.77706">
        <ele>230</ele>
        <time>2016-09-10T09:14:50Z</time>
      </trkpt>
      <trkpt lat="45.98642" lon="4.77699">
        <ele>230</ele>
        <time>2016-09-10T09:14:51Z</time>
      </trkpt>
      <trkpt lat="45.98649" lon="4.77693">
        <ele>230</ele>
        <time>2016-09-10T09:14:52Z</time>
      </trkpt>
      <trkpt lat="45.98656" lon="4.77686">
        <ele>229</ele>
        <time>2016-09-10T09:14:53Z</time>
      </trkpt>
      <trkpt lat="45.98663" lon="4.77679">
        <ele>229</ele>
        <time>2016-09-10T09:14:54Z</time>
      </trkpt>
      <trkpt lat="45.9867" lon="4.77671">
        <ele>228</ele>
        <time>2016-09-10T09:14:55Z</time>
      </trkpt>
      <trkpt lat="45.98677" lon="4.77663">
        <ele>226</ele>
        <time>2016-09-10T09:14:56Z</time>
      </trkpt>
      <trkpt lat="45.98684" lon="4.77654">
        <ele>225</ele>
        <time>2016-09-10T09:14:57Z</time>
      </trkpt>
      <trkpt lat="45.98691" lon="4.77645">
        <ele>225</ele>
        <time>2016-09-10T09:14:58Z</time>
      </trkpt>
      <trkpt lat="45.98699" lon="4.77637">
        <ele>224</ele>
        <time>2016-09-10T09:14:59Z</time>
      </trkpt>
      <trkpt lat="45.98707" lon="4.77629">
        <ele>224</ele>
        <time>2016-09-10T09:15:00Z</time>
      </trkpt>
      <trkpt lat="45.98715" lon="4.77622">
        <ele>223</ele>
        <time>2016-09-10T09:15:01Z</time>
      </trkpt>
      <trkpt lat="45.98723" lon="4.77615">
        <ele>223</ele>
        <time>2016-09-10T09:15:02Z</time>
      </trkpt>
      <trkpt lat="45.98731" lon="4.77608">
        <ele>222</ele>
        <time>2016-09-10T09:15:03Z</time>
      </trkpt>
      <trkpt lat="45.9874" lon="4.77601">
        <ele>222</ele>
        <time>2016-09-10T09:15:04Z</time>
      </trkpt>
      <trkpt lat="45.98748" lon="4.77593">
        <ele>221</ele>
        <time>2016-09-10T09:15:05Z</time>
      </trkpt>
      <trkpt lat="45.98756" lon="4.77586">
        <ele>220</ele>
        <time>2016-09-10T09:15:06Z</time>
      </trkpt>
      <trkpt lat="45.98764" lon="4.77579">
        <ele>219</ele>
        <time>2016-09-10T09:15:07Z</time>
      </trkpt>
      <trkpt lat="45.98771" lon="4.77572">
        <ele>218</ele>
        <time>2016-09-10T09:15:08Z</time>
      </trkpt>
      <trkpt lat="45.98779" lon="4.77566">
        <ele>218</ele>
        <time>2016-09-10T09:15:09Z</time>
      </trkpt>
      <trkpt lat="45.98786" lon="4.7756">
        <ele>218</ele>
        <time>2016-09-10T09:15:10Z</time>
      </trkpt>
      <trkpt lat="45.98793" lon="4.77553">
        <ele>218</ele>
        <time>2016-09-10T09:15:11Z</time>
      </trkpt>
      <trkpt lat="45.98799" lon="4.77545">
        <ele>217</ele>
        <time>2016-09-10T09:15:12Z</time>
      </trkpt>
      <trkpt lat="45.98805" lon="4.77536">
        <ele>217</ele>
        <time>2016-09-10T09:15:13Z</time>
      </trkpt>
      <trkpt lat="45.98811" lon="4.77527">
        <ele>217</ele>
        <time>2016-09-10T09:15:14Z</time>
      </trkpt>
      <trkpt lat="45.98816" lon="4.77517">
        <ele>216</ele>
        <time>2016-09-10T09:15:15Z</time>
      </trkpt>
      <trkpt lat="45.9882" lon="4.77506">
        <ele>216</ele>
        <time>2016-09-10T09:15:16Z</time>
      </trkpt>
      <trkpt lat="45.98824" lon="4.77495">
        <ele>214</ele>
        <time>2016-09-10T09:15:17Z</time>
      </trkpt>
      <trkpt lat="45.98827" lon="4.77485">
        <ele>214</ele>
        <time>2016-09-10T09:15:18Z</time>
      </trkpt>
      <trkpt lat="45.98831" lon="4.77475">
        <ele>213</ele>
        <time>2016-09-10T09:15:19Z</time>
      </trkpt>
      <trkpt lat="45.98836" lon="4.77466">
        <ele>210</ele>
        <time>2016-09-10T09:15:20Z</time>
      </trkpt>
      <trkpt lat="45.98841" lon="4.77458">
        <ele>210</ele>
        <time>2016-09-10T09:15:21Z</time>
      </trkpt>
      <trkpt lat="45.98848" lon="4.77454">
        <ele>209</ele>
        <time>2016-09-10T09:15:22Z</time>
      </trkpt>
      <trkpt lat="45.98856" lon="4.77452">
        <ele>209</ele>
        <time>2016-09-10T09:15:23Z</time>
      </trkpt>
      <trkpt lat="45.98864" lon="4.77449">
        <ele>209</ele>
        <time>2016-09-10T09:15:24Z</time>
      </trkpt>
      <trkpt lat="45.98872" lon="4.77446">
        <ele>209</ele>
        <time>2016-09-10T09:15:25Z</time>
      </trkpt>
      <trkpt lat="45.9888" lon="4.77443">
        <ele>208</ele>
        <time>2016-09-10T09:15:26Z</time>
      </trkpt>
      <trkpt lat="45.98889" lon="4.77441">
        <ele>208</ele>
        <time>2016-09-10T09:15:27Z</time>
      </trkpt>
      <trkpt lat="45.98898" lon="4.77437">
        <ele>207</ele>
        <time>2016-09-10T09:15:28Z</time>
      </trkpt>
      <trkpt lat="45.98907" lon="4.77433">
        <ele>207</ele>
        <time>2016-09-10T09:15:29Z</time>
      </trkpt>
      <trkpt lat="45.98916" lon="4.77429">
        <ele>206</ele>
        <time>2016-09-10T09:15:30Z</time>
      </trkpt>
      <trkpt lat="45.98924" lon="4.77425">
        <ele>205</ele>
        <time>2016-09-10T09:15:31Z</time>
      </trkpt>
      <trkpt lat="45.98933" lon="4.77422">
        <ele>205</ele>
        <time>2016-09-10T09:15:32Z</time>
      </trkpt>
      <trkpt lat="45.98942" lon="4.77418">
        <ele>205</ele>
        <time>2016-09-10T09:15:33Z</time>
      </trkpt>
      <trkpt lat="45.9895" lon="4.77415">
        <ele>203</ele>
        <time>2016-09-10T09:15:34Z</time>
      </trkpt>
      <trkpt lat="45.98957" lon="4.77411">
        <ele>203</ele>
        <time>2016-09-10T09:15:35Z</time>
      </trkpt>
      <trkpt lat="45.98964" lon="4.77408">
        <ele>202</ele>
        <time>2016-09-10T09:15:36Z</time>
      </trkpt>
      <trkpt lat="45.9897" lon="4.77405">
        <ele>202</ele>
        <time>2016-09-10T09:15:37Z</time>
      </trkpt>
      <trkpt lat="45.98976" lon="4.77403">
        <ele>202</ele>
        <time>2016-09-10T09:15:38Z</time>
      </trkpt>
      <trkpt lat="45.98981" lon="4.77401">
        <ele>202</ele>
        <time>2016-09-10T09:15:39Z</time>
      </trkpt>
      <trkpt lat="45.98989" lon="4.77398">
        <ele>202</ele>
        <time>2016-09-10T09:15:41Z</time>
      </trkpt>
      <trkpt lat="45.98993" lon="4.77396">
        <ele>202</ele>
        <time>2016-09-10T09:15:42Z</time>
      </trkpt>
      <trkpt lat="45.98999" lon="4.77393">
        <ele>202</ele>
        <time>2016-09-10T09:15:43Z</time>
      </trkpt>
      <trkpt lat="45.99003" lon="4.77391">
        <ele>201</ele>
        <time>2016-09-10T09:15:44Z</time>
      </trkpt>
      <trkpt lat="45.99009" lon="4.77389">
        <ele>201</ele>
        <time>2016-09-10T09:15:45Z</time>
      </trkpt>
      <trkpt lat="45.99014" lon="4.77387">
        <ele>201</ele>
        <time>2016-09-10T09:15:46Z</time>
      </trkpt>
      <trkpt lat="45.99019" lon="4.77384">
        <ele>201</ele>
        <time>2016-09-10T09:15:47Z</time>
      </trkpt>
      <trkpt lat="45.99023" lon="4.77381">
        <ele>201</ele>
        <time>2016-09-10T09:15:48Z</time>
      </trkpt>
      <trkpt lat="45.99029" lon="4.77379">
        <ele>201</ele>
        <time>2016-09-10T09:15:49Z</time>
      </trkpt>
      <trkpt lat="45.99034" lon="4.77377">
        <ele>201</ele>
        <time>2016-09-10T09:15:50Z</time>
      </trkpt>
      <trkpt lat="45.99039" lon="4.77374">
        <ele>200</ele>
        <time>2016-09-10T09:15:51Z</time>
      </trkpt>
      <trkpt lat="45.99044" lon="4.77372">
        <ele>200</ele>
        <time>2016-09-10T09:15:52Z</time>
      </trkpt>
      <trkpt lat="45.99051" lon="4.77368">
        <ele>200</ele>
        <time>2016-09-10T09:15:54Z</time>
      </trkpt>
      <trkpt lat="45.99057" lon="4.77368">
        <ele>200</ele>
        <time>2016-09-10T09:15:55Z</time>
      </trkpt>
      <trkpt lat="45.99065" lon="4.77366">
        <ele>200</ele>
        <time>2016-09-10T09:15:57Z</time>
      </trkpt>
      <trkpt lat="45.9907" lon="4.77367">
        <ele>200</ele>
        <time>2016-09-10T09:15:58Z</time>
      </trkpt>
      <trkpt lat="45.99075" lon="4.77366">
        <ele>200</ele>
        <time>2016-09-10T09:15:59Z</time>
      </trkpt>
      <trkpt lat="45.9908" lon="4.77365">
        <ele>200</ele>
        <time>2016-09-10T09:16:00Z</time>
      </trkpt>
      <trkpt lat="45.99088" lon="4.77364">
        <ele>201</ele>
        <time>2016-09-10T09:16:02Z</time>
      </trkpt>
      <trkpt lat="45.99093" lon="4.77363">
        <ele>201</ele>
        <time>2016-09-10T09:16:03Z</time>
      </trkpt>
      <trkpt lat="45.99101" lon="4.77361">
        <ele>201</ele>
        <time>2016-09-10T09:16:05Z</time>
      </trkpt>
      <trkpt lat="45.99107" lon="4.7736">
        <ele>201</ele>
        <time>2016-09-10T09:16:06Z</time>
      </trkpt>
      <trkpt lat="45.99111" lon="4.77358">
        <ele>201</ele>
        <time>2016-09-10T09:16:07Z</time>
      </trkpt>
      <trkpt lat="45.99117" lon="4.77357">
        <ele>201</ele>
        <time>2016-09-10T09:16:08Z</time>
      </trkpt>
      <trkpt lat="45.99122" lon="4.77357">
        <ele>201</ele>
        <time>2016-09-10T09:16:09Z</time>
      </trkpt>
      <trkpt lat="45.99126" lon="4.77356">
        <ele>201</ele>
        <time>2016-09-10T09:16:10Z</time>
      </trkpt>
      <trkpt lat="45.99135" lon="4.77355">
        <ele>201</ele>
        <time>2016-09-10T09:16:12Z</time>
      </trkpt>
      <trkpt lat="45.99139" lon="4.77354">
        <ele>201</ele>
        <time>2016-09-10T09:16:13Z</time>
      </trkpt>
      <trkpt lat="45.99146" lon="4.77352">
        <ele>201</ele>
        <time>2016-09-10T09:16:15Z</time>
      </trkpt>
      <trkpt lat="45.9915" lon="4.77351">
        <ele>201</ele>
        <time>2016-09-10T09:16:16Z</time>
      </trkpt>
      <trkpt lat="45.99157" lon="4.77345">
        <ele>201</ele>
        <time>2016-09-10T09:16:18Z</time>
      </trkpt>
      <trkpt lat="45.99159" lon="4.7734">
        <ele>201</ele>
        <time>2016-09-10T09:16:19Z</time>
      </trkpt>
      <trkpt lat="45.9916" lon="4.77327">
        <ele>201</ele>
        <time>2016-09-10T09:16:21Z</time>
      </trkpt>
      <trkpt lat="45.9916" lon="4.7732">
        <ele>201</ele>
        <time>2016-09-10T09:16:22Z</time>
      </trkpt>
      <trkpt lat="45.99161" lon="4.77307">
        <ele>200</ele>
        <time>2016-09-10T09:16:24Z</time>
      </trkpt>
      <trkpt lat="45.99161" lon="4.773">
        <ele>200</ele>
        <time>2016-09-10T09:16:25Z</time>
      </trkpt>
      <trkpt lat="45.9916" lon="4.77293">
        <ele>200</ele>
        <time>2016-09-10T09:16:26Z</time>
      </trkpt>
      <trkpt lat="45.9916" lon="4.77286">
        <ele>200</ele>
        <time>2016-09-10T09:16:27Z</time>
      </trkpt>
      <trkpt lat="45.9916" lon="4.77279">
        <ele>200</ele>
        <time>2016-09-10T09:16:28Z</time>
      </trkpt>
      <trkpt lat="45.99161" lon="4.77272">
        <ele>200</ele>
        <time>2016-09-10T09:16:29Z</time>
      </trkpt>
      <trkpt lat="45.99161" lon="4.77265">
        <ele>200</ele>
        <time>2016-09-10T09:16:30Z</time>
      </trkpt>
      <trkpt lat="45.9916" lon="4.77258">
        <ele>200</ele>
        <time>2016-09-10T09:16:31Z</time>
      </trkpt>
      <trkpt lat="45.9916" lon="4.77252">
        <ele>200</ele>
        <time>2016-09-10T09:16:32Z</time>
      </trkpt>
      <trkpt lat="45.99161" lon="4.77244">
        <ele>200</ele>
        <time>2016-09-10T09:16:33Z</time>
      </trkpt>
      <trkpt lat="45.9916" lon="4.77237">
        <ele>200</ele>
        <time>2016-09-10T09:16:34Z</time>
      </trkpt>
      <trkpt lat="45.9916" lon="4.77229">
        <ele>200</ele>
        <time>2016-09-10T09:16:35Z</time>
      </trkpt>
      <trkpt lat="45.99161" lon="4.77221">
        <ele>200</ele>
        <time>2016-09-10T09:16:36Z</time>
      </trkpt>
      <trkpt lat="45.9916" lon="4.77213">
        <ele>200</ele>
        <time>2016-09-10T09:16:37Z</time>
      </trkpt>
      <trkpt lat="45.99159" lon="4.77205">
        <ele>200</ele>
        <time>2016-09-10T09:16:38Z</time>
      </trkpt>
      <trkpt lat="45.99158" lon="4.77198">
        <ele>200</ele>
        <time>2016-09-10T09:16:39Z</time>
      </trkpt>
      <trkpt lat="45.99157" lon="4.7719">
        <ele>200</ele>
        <time>2016-09-10T09:16:40Z</time>
      </trkpt>
      <trkpt lat="45.99155" lon="4.77182">
        <ele>200</ele>
        <time>2016-09-10T09:16:41Z</time>
      </trkpt>
      <trkpt lat="45.99152" lon="4.77174">
        <ele>200</ele>
        <time>2016-09-10T09:16:42Z</time>
      </trkpt>
      <trkpt lat="45.99149" lon="4.77166">
        <ele>201</ele>
        <time>2016-09-10T09:16:43Z</time>
      </trkpt>
      <trkpt lat="45.99147" lon="4.77158">
        <ele>201</ele>
        <time>2016-09-10T09:16:44Z</time>
      </trkpt>
      <trkpt lat="45.99145" lon="4.77151">
        <ele>201</ele>
        <time>2016-09-10T09:16:45Z</time>
      </trkpt>
      <trkpt lat="45.99143" lon="4.77143">
        <ele>201</ele>
        <time>2016-09-10T09:16:46Z</time>
      </trkpt>
      <trkpt lat="45.9914" lon="4.77135">
        <ele>201</ele>
        <time>2016-09-10T09:16:47Z</time>
      </trkpt>
      <trkpt lat="45.99138" lon="4.77127">
        <ele>201</ele>
        <time>2016-09-10T09:16:48Z</time>
      </trkpt>
      <trkpt lat="45.99136" lon="4.77119">
        <ele>201</ele>
        <time>2016-09-10T09:16:49Z</time>
      </trkpt>
      <trkpt lat="45.99134" lon="4.77111">
        <ele>201</ele>
        <time>2016-09-10T09:16:50Z</time>
      </trkpt>
      <trkpt lat="45.99131" lon="4.77103">
        <ele>201</ele>
        <time>2016-09-10T09:16:51Z</time>
      </trkpt>
      <trkpt lat="45.99129" lon="4.77095">
        <ele>201</ele>
        <time>2016-09-10T09:16:52Z</time>
      </trkpt>
      <trkpt lat="45.99127" lon="4.77088">
        <ele>201</ele>
        <time>2016-09-10T09:16:53Z</time>
      </trkpt>
      <trkpt lat="45.99124" lon="4.7708">
        <ele>202</ele>
        <time>2016-09-10T09:16:54Z</time>
      </trkpt>
      <trkpt lat="45.99123" lon="4.77072">
        <ele>202</ele>
        <time>2016-09-10T09:16:55Z</time>
      </trkpt>
      <trkpt lat="45.99121" lon="4.77064">
        <ele>202</ele>
        <time>2016-09-10T09:16:56Z</time>
      </trkpt>
      <trkpt lat="45.99119" lon="4.77055">
        <ele>202</ele>
        <time>2016-09-10T09:16:57Z</time>
      </trkpt>
      <trkpt lat="45.99117" lon="4.77048">
        <ele>202</ele>
        <time>2016-09-10T09:16:58Z</time>
      </trkpt>
      <trkpt lat="45.99115" lon="4.7704">
        <ele>202</ele>
        <time>2016-09-10T09:16:59Z</time>
      </trkpt>
      <trkpt lat="45.99112" lon="4.77032">
        <ele>202</ele>
        <time>2016-09-10T09:17:00Z</time>
      </trkpt>
      <trkpt lat="45.99108" lon="4.77024">
        <ele>202</ele>
        <time>2016-09-10T09:17:01Z</time>
      </trkpt>
      <trkpt lat="45.99105" lon="4.77016">
        <ele>201</ele>
        <time>2016-09-10T09:17:02Z</time>
      </trkpt>
      <trkpt lat="45.99102" lon="4.77008">
        <ele>201</ele>
        <time>2016-09-10T09:17:03Z</time>
      </trkpt>
      <trkpt lat="45.99099" lon="4.77">
        <ele>201</ele>
        <time>2016-09-10T09:17:04Z</time>
      </trkpt>
      <trkpt lat="45.99095" lon="4.76993">
        <ele>201</ele>
        <time>2016-09-10T09:17:05Z</time>
      </trkpt>
      <trkpt lat="45.99091" lon="4.76986">
        <ele>201</ele>
        <time>2016-09-10T09:17:06Z</time>
      </trkpt>
      <trkpt lat="45.99088" lon="4.76979">
        <ele>202</ele>
        <time>2016-09-10T09:17:07Z</time>
      </trkpt>
      <trkpt lat="45.99085" lon="4.76973">
        <ele>202</ele>
        <time>2016-09-10T09:17:08Z</time>
      </trkpt>
      <trkpt lat="45.99081" lon="4.76965">
        <ele>198</ele>
        <time>2016-09-10T09:17:09Z</time>
      </trkpt>
      <trkpt lat="45.99078" lon="4.76957">
        <ele>198</ele>
        <time>2016-09-10T09:17:10Z</time>
      </trkpt>
      <trkpt lat="45.99074" lon="4.7695">
        <ele>198</ele>
        <time>2016-09-10T09:17:11Z</time>
      </trkpt>
      <trkpt lat="45.9907" lon="4.76942">
        <ele>198</ele>
        <time>2016-09-10T09:17:12Z</time>
      </trkpt>
      <trkpt lat="45.99066" lon="4.76935">
        <ele>198</ele>
        <time>2016-09-10T09:17:13Z</time>
      </trkpt>
      <trkpt lat="45.99063" lon="4.76928">
        <ele>198</ele>
        <time>2016-09-10T09:17:14Z</time>
      </trkpt>
      <trkpt lat="45.99059" lon="4.7692">
        <ele>198</ele>
        <time>2016-09-10T09:17:15Z</time>
      </trkpt>
      <trkpt lat="45.99056" lon="4.76913">
        <ele>199</ele>
        <time>2016-09-10T09:17:16Z</time>
      </trkpt>
      <trkpt lat="45.99052" lon="4.76906">
        <ele>199</ele>
        <time>2016-09-10T09:17:17Z</time>
      </trkpt>
      <trkpt lat="45.99048" lon="4.76899">
        <ele>199</ele>
        <time>2016-09-10T09:17:18Z</time>
      </trkpt>
      <trkpt lat="45.99045" lon="4.76893">
        <ele>199</ele>
        <time>2016-09-10T09:17:19Z</time>
      </trkpt>
      <trkpt lat="45.99041" lon="4.76886">
        <ele>199</ele>
        <time>2016-09-10T09:17:20Z</time>
      </trkpt>
      <trkpt lat="45.99038" lon="4.7688">
        <ele>199</ele>
        <time>2016-09-10T09:17:21Z</time>
      </trkpt>
      <trkpt lat="45.99034" lon="4.76873">
        <ele>199</ele>
        <time>2016-09-10T09:17:22Z</time>
      </trkpt>
      <trkpt lat="45.99031" lon="4.76866">
        <ele>199</ele>
        <time>2016-09-10T09:17:23Z</time>
      </trkpt>
      <trkpt lat="45.99028" lon="4.76859">
        <ele>199</ele>
        <time>2016-09-10T09:17:24Z</time>
      </trkpt>
      <trkpt lat="45.99025" lon="4.76852">
        <ele>199</ele>
        <time>2016-09-10T09:17:25Z</time>
      </trkpt>
      <trkpt lat="45.99022" lon="4.76845">
        <ele>199</ele>
        <time>2016-09-10T09:17:26Z</time>
      </trkpt>
      <trkpt lat="45.99019" lon="4.76838">
        <ele>199</ele>
        <time>2016-09-10T09:17:27Z</time>
      </trkpt>
      <trkpt lat="45.99015" lon="4.7683">
        <ele>200</ele>
        <time>2016-09-10T09:17:28Z</time>
      </trkpt>
      <trkpt lat="45.99012" lon="4.76822">
        <ele>200</ele>
        <time>2016-09-10T09:17:29Z</time>
      </trkpt>
      <trkpt lat="45.99008" lon="4.76814">
        <ele>201</ele>
        <time>2016-09-10T09:17:30Z</time>
      </trkpt>
      <trkpt lat="45.99005" lon="4.76807">
        <ele>201</ele>
        <time>2016-09-10T09:17:31Z</time>
      </trkpt>
      <trkpt lat="45.99002" lon="4.76799">
        <ele>201</ele>
        <time>2016-09-10T09:17:32Z</time>
      </trkpt>
      <trkpt lat="45.98999" lon="4.76791">
        <ele>197</ele>
        <time>2016-09-10T09:17:33Z</time>
      </trkpt>
      <trkpt lat="45.98995" lon="4.76783">
        <ele>197</ele>
        <time>2016-09-10T09:17:34Z</time>
      </trkpt>
      <trkpt lat="45.98992" lon="4.76776">
        <ele>197</ele>
        <time>2016-09-10T09:17:35Z</time>
      </trkpt>
      <trkpt lat="45.98988" lon="4.76768">
        <ele>197</ele>
        <time>2016-09-10T09:17:36Z</time>
      </trkpt>
      <trkpt lat="45.98984" lon="4.76761">
        <ele>197</ele>
        <time>2016-09-10T09:17:37Z</time>
      </trkpt>
      <trkpt lat="45.9898" lon="4.76755">
        <ele>197</ele>
        <time>2016-09-10T09:17:38Z</time>
      </trkpt>
      <trkpt lat="45.98976" lon="4.76749">
        <ele>198</ele>
        <time>2016-09-10T09:17:39Z</time>
      </trkpt>
      <trkpt lat="45.98971" lon="4.76744">
        <ele>198</ele>
        <time>2016-09-10T09:17:40Z</time>
      </trkpt>
      <trkpt lat="45.98966" lon="4.76739">
        <ele>198</ele>
        <time>2016-09-10T09:17:41Z</time>
      </trkpt>
      <trkpt lat="45.98961" lon="4.76734">
        <ele>198</ele>
        <time>2016-09-10T09:17:42Z</time>
      </trkpt>
      <trkpt lat="45.98956" lon="4.76729">
        <ele>198</ele>
        <time>2016-09-10T09:17:43Z</time>
      </trkpt>
      <trkpt lat="45.98951" lon="4.76724">
        <ele>198</ele>
        <time>2016-09-10T09:17:44Z</time>
      </trkpt>
      <trkpt lat="45.98946" lon="4.76719">
        <ele>198</ele>
        <time>2016-09-10T09:17:45Z</time>
      </trkpt>
      <trkpt lat="45.98941" lon="4.76715">
        <ele>198</ele>
        <time>2016-09-10T09:17:46Z</time>
      </trkpt>
      <trkpt lat="45.98935" lon="4.7671">
        <ele>198</ele>
        <time>2016-09-10T09:17:47Z</time>
      </trkpt>
      <trkpt lat="45.98931" lon="4.76705">
        <ele>198</ele>
        <time>2016-09-10T09:17:48Z</time>
      </trkpt>
      <trkpt lat="45.98926" lon="4.767">
        <ele>198</ele>
        <time>2016-09-10T09:17:49Z</time>
      </trkpt>
      <trkpt lat="45.98921" lon="4.76694">
        <ele>198</ele>
        <time>2016-09-10T09:17:50Z</time>
      </trkpt>
      <trkpt lat="45.98916" lon="4.76689">
        <ele>195</ele>
        <time>2016-09-10T09:17:51Z</time>
      </trkpt>
      <trkpt lat="45.98911" lon="4.76683">
        <ele>195</ele>
        <time>2016-09-10T09:17:52Z</time>
      </trkpt>
      <trkpt lat="45.98906" lon="4.76677">
        <ele>195</ele>
        <time>2016-09-10T09:17:53Z</time>
      </trkpt>
      <trkpt lat="45.989" lon="4.76672">
        <ele>195</ele>
        <time>2016-09-10T09:17:54Z</time>
      </trkpt>
      <trkpt lat="45.98895" lon="4.76665">
        <ele>196</ele>
        <time>2016-09-10T09:17:55Z</time>
      </trkpt>
      <trkpt lat="45.98889" lon="4.7666">
        <ele>196</ele>
        <time>2016-09-10T09:17:56Z</time>
      </trkpt>
      <trkpt lat="45.98883" lon="4.76655">
        <ele>196</ele>
        <time>2016-09-10T09:17:57Z</time>
      </trkpt>
      <trkpt lat="45.98877" lon="4.76649">
        <ele>196</ele>
        <time>2016-09-10T09:17:58Z</time>
      </trkpt>
      <trkpt lat="45.98872" lon="4.76644">
        <ele>196</ele>
        <time>2016-09-10T09:17:59Z</time>
      </trkpt>
      <trkpt lat="45.98866" lon="4.76638">
        <ele>196</ele>
        <time>2016-09-10T09:18:00Z</time>
      </trkpt>
      <trkpt lat="45.98861" lon="4.76632">
        <ele>196</ele>
        <time>2016-09-10T09:18:01Z</time>
      </trkpt>
      <trkpt lat="45.98856" lon="4.76626">
        <ele>196</ele>
        <time>2016-09-10T09:18:02Z</time>
      </trkpt>
      <trkpt lat="45.9885" lon="4.7662">
        <ele>196</ele>
        <time>2016-09-10T09:18:03Z</time>
      </trkpt>
      <trkpt lat="45.98844" lon="4.76614">
        <ele>196</ele>
        <time>2016-09-10T09:18:04Z</time>
      </trkpt>
      <trkpt lat="45.98838" lon="4.76609">
        <ele>196</ele>
        <time>2016-09-10T09:18:05Z</time>
      </trkpt>
      <trkpt lat="45.98832" lon="4.76603">
        <ele>193</ele>
        <time>2016-09-10T09:18:06Z</time>
      </trkpt>
      <trkpt lat="45.98826" lon="4.76596">
        <ele>193</ele>
        <time>2016-09-10T09:18:07Z</time>
      </trkpt>
      <trkpt lat="45.9882" lon="4.7659">
        <ele>193</ele>
        <time>2016-09-10T09:18:08Z</time>
      </trkpt>
      <trkpt lat="45.98813" lon="4.76583">
        <ele>193</ele>
        <time>2016-09-10T09:18:09Z</time>
      </trkpt>
      <trkpt lat="45.98807" lon="4.76576">
        <ele>193</ele>
        <time>2016-09-10T09:18:10Z</time>
      </trkpt>
      <trkpt lat="45.988" lon="4.76569">
        <ele>192</ele>
        <time>2016-09-10T09:18:11Z</time>
      </trkpt>
      <trkpt lat="45.98794" lon="4.76562">
        <ele>192</ele>
        <time>2016-09-10T09:18:12Z</time>
      </trkpt>
      <trkpt lat="45.98787" lon="4.76555">
        <ele>191</ele>
        <time>2016-09-10T09:18:13Z</time>
      </trkpt>
      <trkpt lat="45.9878" lon="4.76548">
        <ele>191</ele>
        <time>2016-09-10T09:18:14Z</time>
      </trkpt>
      <trkpt lat="45.98773" lon="4.76541">
        <ele>191</ele>
        <time>2016-09-10T09:18:15Z</time>
      </trkpt>
      <trkpt lat="45.98767" lon="4.76535">
        <ele>191</ele>
        <time>2016-09-10T09:18:16Z</time>
      </trkpt>
      <trkpt lat="45.9876" lon="4.76528">
        <ele>190</ele>
        <time>2016-09-10T09:18:17Z</time>
      </trkpt>
      <trkpt lat="45.98753" lon="4.7652">
        <ele>190</ele>
        <time>2016-09-10T09:18:18Z</time>
      </trkpt>
      <trkpt lat="45.98746" lon="4.76513">
        <ele>188</ele>
        <time>2016-09-10T09:18:19Z</time>
      </trkpt>
      <trkpt lat="45.9874" lon="4.76506">
        <ele>188</ele>
        <time>2016-09-10T09:18:20Z</time>
      </trkpt>
      <trkpt lat="45.98733" lon="4.76499">
        <ele>188</ele>
        <time>2016-09-10T09:18:21Z</time>
      </trkpt>
      <trkpt lat="45.98725" lon="4.76492">
        <ele>188</ele>
        <time>2016-09-10T09:18:22Z</time>
      </trkpt>
      <trkpt lat="45.98718" lon="4.76485">
        <ele>187</ele>
        <time>2016-09-10T09:18:23Z</time>
      </trkpt>
      <trkpt lat="45.98712" lon="4.76478">
        <ele>187</ele>
        <time>2016-09-10T09:18:24Z</time>
      </trkpt>
      <trkpt lat="45.98705" lon="4.76472">
        <ele>187</ele>
        <time>2016-09-10T09:18:25Z</time>
      </trkpt>
      <trkpt lat="45.98697" lon="4.76465">
        <ele>187</ele>
        <time>2016-09-10T09:18:26Z</time>
      </trkpt>
      <trkpt lat="45.9869" lon="4.76459">
        <ele>187</ele>
        <time>2016-09-10T09:18:27Z</time>
      </trkpt>
      <trkpt lat="45.98683" lon="4.76452">
        <ele>187</ele>
        <time>2016-09-10T09:18:28Z</time>
      </trkpt>
      <trkpt lat="45.98676" lon="4.76447">
        <ele>187</ele>
        <time>2016-09-10T09:18:29Z</time>
      </trkpt>
      <trkpt lat="45.98669" lon="4.76443">
        <ele>187</ele>
        <time>2016-09-10T09:18:30Z</time>
      </trkpt>
      <trkpt lat="45.98662" lon="4.76438">
        <ele>188</ele>
        <time>2016-09-10T09:18:31Z</time>
      </trkpt>
      <trkpt lat="45.98655" lon="4.76435">
        <ele>188</ele>
        <time>2016-09-10T09:18:32Z</time>
      </trkpt>
      <trkpt lat="45.98649" lon="4.7643">
        <ele>188</ele>
        <time>2016-09-10T09:18:33Z</time>
      </trkpt>
      <trkpt lat="45.98645" lon="4.76426">
        <ele>188</ele>
        <time>2016-09-10T09:18:34Z</time>
      </trkpt>
      <trkpt lat="45.9864" lon="4.7642">
        <ele>188</ele>
        <time>2016-09-10T09:18:35Z</time>
      </trkpt>
      <trkpt lat="45.98636" lon="4.76414">
        <ele>188</ele>
        <time>2016-09-10T09:18:36Z</time>
      </trkpt>
      <trkpt lat="45.98632" lon="4.76407">
        <ele>188</ele>
        <time>2016-09-10T09:18:37Z</time>
      </trkpt>
      <trkpt lat="45.98629" lon="4.764">
        <ele>188</ele>
        <time>2016-09-10T09:18:38Z</time>
      </trkpt>
      <trkpt lat="45.98626" lon="4.76392">
        <ele>188</ele>
        <time>2016-09-10T09:18:39Z</time>
      </trkpt>
      <trkpt lat="45.98624" lon="4.76384">
        <ele>188</ele>
        <time>2016-09-10T09:18:40Z</time>
      </trkpt>
      <trkpt lat="45.98622" lon="4.76376">
        <ele>188</ele>
        <time>2016-09-10T09:18:41Z</time>
      </trkpt>
      <trkpt lat="45.98621" lon="4.76367">
        <ele>188</ele>
        <time>2016-09-10T09:18:42Z</time>
      </trkpt>
      <trkpt lat="45.9862" lon="4.76357">
        <ele>188</ele>
        <time>2016-09-10T09:18:43Z</time>
      </trkpt>
      <trkpt lat="45.98618" lon="4.76348">
        <ele>188</ele>
        <time>2016-09-10T09:18:44Z</time>
      </trkpt>
      <trkpt lat="45.98617" lon="4.76338">
        <ele>188</ele>
        <time>2016-09-10T09:18:45Z</time>
      </trkpt>
      <trkpt lat="45.98614" lon="4.7633">
        <ele>187</ele>
        <time>2016-09-10T09:18:46Z</time>
      </trkpt>
      <trkpt lat="45.98612" lon="4.76321">
        <ele>187</ele>
        <time>2016-09-10T09:18:47Z</time>
      </trkpt>
      <trkpt lat="45.9861" lon="4.76311">
        <ele>187</ele>
        <time>2016-09-10T09:18:48Z</time>
      </trkpt>
      <trkpt lat="45.9861" lon="4.76301">
        <ele>187</ele>
        <time>2016-09-10T09:18:49Z</time>
      </trkpt>
      <trkpt lat="45.9861" lon="4.76291">
        <ele>187</ele>
        <time>2016-09-10T09:18:50Z</time>
      </trkpt>
      <trkpt lat="45.98611" lon="4.76282">
        <ele>187</ele>
        <time>2016-09-10T09:18:51Z</time>
      </trkpt>
      <trkpt lat="45.98611" lon="4.76272">
        <ele>187</ele>
        <time>2016-09-10T09:18:52Z</time>
      </trkpt>
      <trkpt lat="45.98612" lon="4.76262">
        <ele>187</ele>
        <time>2016-09-10T09:18:53Z</time>
      </trkpt>
      <trkpt lat="45.98613" lon="4.76253">
        <ele>187</ele>
        <time>2016-09-10T09:18:54Z</time>
      </trkpt>
      <trkpt lat="45.98613" lon="4.76244">
        <ele>187</ele>
        <time>2016-09-10T09:18:55Z</time>
      </trkpt>
      <trkpt lat="45.98614" lon="4.76236">
        <ele>186</ele>
        <time>2016-09-10T09:18:56Z</time>
      </trkpt>
      <trkpt lat="45.98615" lon="4.76229">
        <ele>186</ele>
        <time>2016-09-10T09:18:57Z</time>
      </trkpt>
      <trkpt lat="45.98618" lon="4.76219">
        <ele>186</ele>
        <time>2016-09-10T09:18:59Z</time>
      </trkpt>
      <trkpt lat="45.98622" lon="4.7622">
        <ele>186</ele>
        <time>2016-09-10T09:19:00Z</time>
      </trkpt>
      <trkpt lat="45.98626" lon="4.76221">
        <ele>186</ele>
        <time>2016-09-10T09:19:01Z</time>
      </trkpt>
      <trkpt lat="45.98631" lon="4.76223">
        <ele>186</ele>
        <time>2016-09-10T09:19:02Z</time>
      </trkpt>
      <trkpt lat="45.98636" lon="4.76225">
        <ele>186</ele>
        <time>2016-09-10T09:19:03Z</time>
      </trkpt>
      <trkpt lat="45.98641" lon="4.76226">
        <ele>185</ele>
        <time>2016-09-10T09:19:04Z</time>
      </trkpt>
      <trkpt lat="45.98648" lon="4.76226">
        <ele>185</ele>
        <time>2016-09-10T09:19:05Z</time>
      </trkpt>
      <trkpt lat="45.98654" lon="4.76226">
        <ele>185</ele>
        <time>2016-09-10T09:19:06Z</time>
      </trkpt>
      <trkpt lat="45.98659" lon="4.76226">
        <ele>185</ele>
        <time>2016-09-10T09:19:07Z</time>
      </trkpt>
      <trkpt lat="45.98665" lon="4.76227">
        <ele>185</ele>
        <time>2016-09-10T09:19:08Z</time>
      </trkpt>
      <trkpt lat="45.98671" lon="4.76228">
        <ele>184</ele>
        <time>2016-09-10T09:19:09Z</time>
      </trkpt>
      <trkpt lat="45.98677" lon="4.76229">
        <ele>184</ele>
        <time>2016-09-10T09:19:10Z</time>
      </trkpt>
      <trkpt lat="45.98683" lon="4.7623">
        <ele>184</ele>
        <time>2016-09-10T09:19:11Z</time>
      </trkpt>
      <trkpt lat="45.98689" lon="4.76233">
        <ele>184</ele>
        <time>2016-09-10T09:19:12Z</time>
      </trkpt>
      <trkpt lat="45.98694" lon="4.76232">
        <ele>184</ele>
        <time>2016-09-10T09:19:13Z</time>
      </trkpt>
      <trkpt lat="45.987" lon="4.76229">
        <ele>184</ele>
        <time>2016-09-10T09:19:14Z</time>
      </trkpt>
      <trkpt lat="45.98705" lon="4.76225">
        <ele>184</ele>
        <time>2016-09-10T09:19:15Z</time>
      </trkpt>
      <trkpt lat="45.98708" lon="4.76219">
        <ele>184</ele>
        <time>2016-09-10T09:19:16Z</time>
      </trkpt>
      <trkpt lat="45.98711" lon="4.76212">
        <ele>184</ele>
        <time>2016-09-10T09:19:17Z</time>
      </trkpt>
      <trkpt lat="45.98712" lon="4.76204">
        <ele>184</ele>
        <time>2016-09-10T09:19:18Z</time>
      </trkpt>
      <trkpt lat="45.98714" lon="4.76196">
        <ele>184</ele>
        <time>2016-09-10T09:19:19Z</time>
      </trkpt>
      <trkpt lat="45.98715" lon="4.76187">
        <ele>184</ele>
        <time>2016-09-10T09:19:20Z</time>
      </trkpt>
      <trkpt lat="45.98716" lon="4.76178">
        <ele>184</ele>
        <time>2016-09-10T09:19:21Z</time>
      </trkpt>
      <trkpt lat="45.98717" lon="4.76169">
        <ele>184</ele>
        <time>2016-09-10T09:19:22Z</time>
      </trkpt>
      <trkpt lat="45.98717" lon="4.7616">
        <ele>184</ele>
        <time>2016-09-10T09:19:23Z</time>
      </trkpt>
      <trkpt lat="45.98718" lon="4.76152">
        <ele>183</ele>
        <time>2016-09-10T09:19:24Z</time>
      </trkpt>
      <trkpt lat="45.98719" lon="4.76143">
        <ele>183</ele>
        <time>2016-09-10T09:19:25Z</time>
      </trkpt>
      <trkpt lat="45.9872" lon="4.76135">
        <ele>183</ele>
        <time>2016-09-10T09:19:26Z</time>
      </trkpt>
      <trkpt lat="45.98721" lon="4.76126">
        <ele>183</ele>
        <time>2016-09-10T09:19:27Z</time>
      </trkpt>
      <trkpt lat="45.98721" lon="4.76117">
        <ele>183</ele>
        <time>2016-09-10T09:19:28Z</time>
      </trkpt>
      <trkpt lat="45.98722" lon="4.76109">
        <ele>183</ele>
        <time>2016-09-10T09:19:29Z</time>
      </trkpt>
      <trkpt lat="45.98723" lon="4.76101">
        <ele>183</ele>
        <time>2016-09-10T09:19:30Z</time>
      </trkpt>
      <trkpt lat="45.98724" lon="4.76092">
        <ele>183</ele>
        <time>2016-09-10T09:19:31Z</time>
      </trkpt>
      <trkpt lat="45.98724" lon="4.76083">
        <ele>182</ele>
        <time>2016-09-10T09:19:32Z</time>
      </trkpt>
      <trkpt lat="45.98724" lon="4.76075">
        <ele>182</ele>
        <time>2016-09-10T09:19:33Z</time>
      </trkpt>
      <trkpt lat="45.98724" lon="4.76068">
        <ele>182</ele>
        <time>2016-09-10T09:19:34Z</time>
      </trkpt>
      <trkpt lat="45.98724" lon="4.7606">
        <ele>182</ele>
        <time>2016-09-10T09:19:35Z</time>
      </trkpt>
      <trkpt lat="45.98726" lon="4.76051">
        <ele>182</ele>
        <time>2016-09-10T09:19:36Z</time>
      </trkpt>
      <trkpt lat="45.98727" lon="4.76042">
        <ele>182</ele>
        <time>2016-09-10T09:19:37Z</time>
      </trkpt>
      <trkpt lat="45.98727" lon="4.76032">
        <ele>182</ele>
        <time>2016-09-10T09:19:38Z</time>
      </trkpt>
      <trkpt lat="45.98728" lon="4.76023">
        <ele>182</ele>
        <time>2016-09-10T09:19:39Z</time>
      </trkpt>
      <trkpt lat="45.98728" lon="4.76013">
        <ele>181</ele>
        <time>2016-09-10T09:19:40Z</time>
      </trkpt>
      <trkpt lat="45.98729" lon="4.76004">
        <ele>181</ele>
        <time>2016-09-10T09:19:41Z</time>
      </trkpt>
      <trkpt lat="45.9873" lon="4.75995">
        <ele>181</ele>
        <time>2016-09-10T09:19:42Z</time>
      </trkpt>
      <trkpt lat="45.9873" lon="4.75987">
        <ele>181</ele>
        <time>2016-09-10T09:19:43Z</time>
      </trkpt>
      <trkpt lat="45.98731" lon="4.75979">
        <ele>181</ele>
        <time>2016-09-10T09:19:44Z</time>
      </trkpt>
      <trkpt lat="45.98731" lon="4.7597">
        <ele>181</ele>
        <time>2016-09-10T09:19:45Z</time>
      </trkpt>
      <trkpt lat="45.98732" lon="4.75962">
        <ele>181</ele>
        <time>2016-09-10T09:19:46Z</time>
      </trkpt>
      <trkpt lat="45.98733" lon="4.75953">
        <ele>180</ele>
        <time>2016-09-10T09:19:47Z</time>
      </trkpt>
      <trkpt lat="45.98734" lon="4.75945">
        <ele>180</ele>
        <time>2016-09-10T09:19:48Z</time>
      </trkpt>
      <trkpt lat="45.98736" lon="4.75937">
        <ele>180</ele>
        <time>2016-09-10T09:19:49Z</time>
      </trkpt>
      <trkpt lat="45.98738" lon="4.75928">
        <ele>180</ele>
        <time>2016-09-10T09:19:50Z</time>
      </trkpt>
      <trkpt lat="45.98739" lon="4.7592">
        <ele>180</ele>
        <time>2016-09-10T09:19:51Z</time>
      </trkpt>
      <trkpt lat="45.98741" lon="4.75912">
        <ele>180</ele>
        <time>2016-09-10T09:19:52Z</time>
      </trkpt>
      <trkpt lat="45.98742" lon="4.75904">
        <ele>180</ele>
        <time>2016-09-10T09:19:53Z</time>
      </trkpt>
      <trkpt lat="45.98743" lon="4.75896">
        <ele>179</ele>
        <time>2016-09-10T09:19:54Z</time>
      </trkpt>
      <trkpt lat="45.98745" lon="4.75888">
        <ele>179</ele>
        <time>2016-09-10T09:19:55Z</time>
      </trkpt>
      <trkpt lat="45.98747" lon="4.75881">
        <ele>179</ele>
        <time>2016-09-10T09:19:56Z</time>
      </trkpt>
      <trkpt lat="45.98748" lon="4.75873">
        <ele>179</ele>
        <time>2016-09-10T09:19:57Z</time>
      </trkpt>
      <trkpt lat="45.9875" lon="4.75865">
        <ele>179</ele>
        <time>2016-09-10T09:19:58Z</time>
      </trkpt>
      <trkpt lat="45.98751" lon="4.75856">
        <ele>179</ele>
        <time>2016-09-10T09:19:59Z</time>
      </trkpt>
      <trkpt lat="45.98753" lon="4.75848">
        <ele>179</ele>
        <time>2016-09-10T09:20:00Z</time>
      </trkpt>
      <trkpt lat="45.98755" lon="4.75839">
        <ele>179</ele>
        <time>2016-09-10T09:20:01Z</time>
      </trkpt>
      <trkpt lat="45.98757" lon="4.7583">
        <ele>178</ele>
        <time>2016-09-10T09:20:02Z</time>
      </trkpt>
      <trkpt lat="45.98759" lon="4.75822">
        <ele>179</ele>
        <time>2016-09-10T09:20:03Z</time>
      </trkpt>
      <trkpt lat="45.98762" lon="4.75813">
        <ele>179</ele>
        <time>2016-09-10T09:20:04Z</time>
      </trkpt>
      <trkpt lat="45.98764" lon="4.75804">
        <ele>179</ele>
        <time>2016-09-10T09:20:05Z</time>
      </trkpt>
      <trkpt lat="45.98767" lon="4.75796">
        <ele>179</ele>
        <time>2016-09-10T09:20:06Z</time>
      </trkpt>
      <trkpt lat="45.98769" lon="4.75787">
        <ele>179</ele>
        <time>2016-09-10T09:20:07Z</time>
      </trkpt>
      <trkpt lat="45.9877" lon="4.75779">
        <ele>179</ele>
        <time>2016-09-10T09:20:08Z</time>
      </trkpt>
      <trkpt lat="45.98773" lon="4.75771">
        <ele>179</ele>
        <time>2016-09-10T09:20:09Z</time>
      </trkpt>
      <trkpt lat="45.98774" lon="4.75763">
        <ele>179</ele>
        <time>2016-09-10T09:20:10Z</time>
      </trkpt>
      <trkpt lat="45.98776" lon="4.75755">
        <ele>179</ele>
        <time>2016-09-10T09:20:11Z</time>
      </trkpt>
      <trkpt lat="45.98777" lon="4.75748">
        <ele>178</ele>
        <time>2016-09-10T09:20:12Z</time>
      </trkpt>
      <trkpt lat="45.98778" lon="4.75741">
        <ele>178</ele>
        <time>2016-09-10T09:20:13Z</time>
      </trkpt>
      <trkpt lat="45.98781" lon="4.75735">
        <ele>178</ele>
        <time>2016-09-10T09:20:14Z</time>
      </trkpt>
      <trkpt lat="45.98786" lon="4.75731">
        <ele>178</ele>
        <time>2016-09-10T09:20:15Z</time>
      </trkpt>
      <trkpt lat="45.9879" lon="4.75728">
        <ele>178</ele>
        <time>2016-09-10T09:20:16Z</time>
      </trkpt>
      <trkpt lat="45.98795" lon="4.75727">
        <ele>179</ele>
        <time>2016-09-10T09:20:17Z</time>
      </trkpt>
      <trkpt lat="45.988" lon="4.75726">
        <ele>179</ele>
        <time>2016-09-10T09:20:18Z</time>
      </trkpt>
      <trkpt lat="45.98807" lon="4.75726">
        <ele>179</ele>
        <time>2016-09-10T09:20:19Z</time>
      </trkpt>
      <trkpt lat="45.98813" lon="4.75725">
        <ele>179</ele>
        <time>2016-09-10T09:20:20Z</time>
      </trkpt>
      <trkpt lat="45.98819" lon="4.75724">
        <ele>179</ele>
        <time>2016-09-10T09:20:21Z</time>
      </trkpt>
      <trkpt lat="45.98826" lon="4.75724">
        <ele>179</ele>
        <time>2016-09-10T09:20:22Z</time>
      </trkpt>
      <trkpt lat="45.98833" lon="4.75724">
        <ele>179</ele>
        <time>2016-09-10T09:20:23Z</time>
      </trkpt>
      <trkpt lat="45.98839" lon="4.75723">
        <ele>180</ele>
        <time>2016-09-10T09:20:24Z</time>
      </trkpt>
      <trkpt lat="45.98846" lon="4.75722">
        <ele>180</ele>
        <time>2016-09-10T09:20:25Z</time>
      </trkpt>
      <trkpt lat="45.98852" lon="4.75721">
        <ele>180</ele>
        <time>2016-09-10T09:20:26Z</time>
      </trkpt>
      <trkpt lat="45.98858" lon="4.75721">
        <ele>180</ele>
        <time>2016-09-10T09:20:27Z</time>
      </trkpt>
      <trkpt lat="45.98864" lon="4.75719">
        <ele>180</ele>
        <time>2016-09-10T09:20:28Z</time>
      </trkpt>
      <trkpt lat="45.9887" lon="4.75717">
        <ele>180</ele>
        <time>2016-09-10T09:20:29Z</time>
      </trkpt>
      <trkpt lat="45.98876" lon="4.75715">
        <ele>180</ele>
        <time>2016-09-10T09:20:30Z</time>
      </trkpt>
      <trkpt lat="45.98883" lon="4.75712">
        <ele>180</ele>
        <time>2016-09-10T09:20:31Z</time>
      </trkpt>
      <trkpt lat="45.98889" lon="4.7571">
        <ele>180</ele>
        <time>2016-09-10T09:20:32Z</time>
      </trkpt>
      <trkpt lat="45.98895" lon="4.75707">
        <ele>180</ele>
        <time>2016-09-10T09:20:33Z</time>
      </trkpt>
      <trkpt lat="45.98901" lon="4.75704">
        <ele>180</ele>
        <time>2016-09-10T09:20:34Z</time>
      </trkpt>
      <trkpt lat="45.98908" lon="4.75701">
        <ele>180</ele>
        <time>2016-09-10T09:20:35Z</time>
      </trkpt>
      <trkpt lat="45.98913" lon="4.75698">
        <ele>180</ele>
        <time>2016-09-10T09:20:36Z</time>
      </trkpt>
      <trkpt lat="45.9892" lon="4.75694">
        <ele>181</ele>
        <time>2016-09-10T09:20:37Z</time>
      </trkpt>
      <trkpt lat="45.98926" lon="4.75691">
        <ele>181</ele>
        <time>2016-09-10T09:20:38Z</time>
      </trkpt>
      <trkpt lat="45.98932" lon="4.75688">
        <ele>181</ele>
        <time>2016-09-10T09:20:39Z</time>
      </trkpt>
      <trkpt lat="45.98938" lon="4.75684">
        <ele>181</ele>
        <time>2016-09-10T09:20:40Z</time>
      </trkpt>
      <trkpt lat="45.98944" lon="4.75681">
        <ele>181</ele>
        <time>2016-09-10T09:20:41Z</time>
      </trkpt>
      <trkpt lat="45.9895" lon="4.75678">
        <ele>181</ele>
        <time>2016-09-10T09:20:42Z</time>
      </trkpt>
      <trkpt lat="45.98956" lon="4.75675">
        <ele>181</ele>
        <time>2016-09-10T09:20:43Z</time>
      </trkpt>
      <trkpt lat="45.98963" lon="4.75673">
        <ele>181</ele>
        <time>2016-09-10T09:20:44Z</time>
      </trkpt>
      <trkpt lat="45.9897" lon="4.75671">
        <ele>181</ele>
        <time>2016-09-10T09:20:45Z</time>
      </trkpt>
      <trkpt lat="45.98976" lon="4.75669">
        <ele>181</ele>
        <time>2016-09-10T09:20:46Z</time>
      </trkpt>
      <trkpt lat="45.98982" lon="4.75668">
        <ele>181</ele>
        <time>2016-09-10T09:20:47Z</time>
      </trkpt>
      <trkpt lat="45.98988" lon="4.75666">
        <ele>178</ele>
        <time>2016-09-10T09:20:48Z</time>
      </trkpt>
      <trkpt lat="45.98994" lon="4.75667">
        <ele>179</ele>
        <time>2016-09-10T09:20:49Z</time>
      </trkpt>
      <trkpt lat="45.99001" lon="4.75667">
        <ele>180</ele>
        <time>2016-09-10T09:20:50Z</time>
      </trkpt>
      <trkpt lat="45.99007" lon="4.75667">
        <ele>181</ele>
        <time>2016-09-10T09:20:51Z</time>
      </trkpt>
      <trkpt lat="45.99014" lon="4.75668">
        <ele>182</ele>
        <time>2016-09-10T09:20:52Z</time>
      </trkpt>
      <trkpt lat="45.9902" lon="4.75669">
        <ele>182</ele>
        <time>2016-09-10T09:20:53Z</time>
      </trkpt>
      <trkpt lat="45.99026" lon="4.75669">
        <ele>183</ele>
        <time>2016-09-10T09:20:54Z</time>
      </trkpt>
      <trkpt lat="45.99032" lon="4.7567">
        <ele>183</ele>
        <time>2016-09-10T09:20:55Z</time>
      </trkpt>
      <trkpt lat="45.99037" lon="4.7567">
        <ele>183</ele>
        <time>2016-09-10T09:20:56Z</time>
      </trkpt>
      <trkpt lat="45.99043" lon="4.7567">
        <ele>183</ele>
        <time>2016-09-10T09:20:57Z</time>
      </trkpt>
      <trkpt lat="45.99048" lon="4.75669">
        <ele>183</ele>
        <time>2016-09-10T09:20:58Z</time>
      </trkpt>
      <trkpt lat="45.99053" lon="4.7567">
        <ele>183</ele>
        <time>2016-09-10T09:20:59Z</time>
      </trkpt>
      <trkpt lat="45.99059" lon="4.75669">
        <ele>182</ele>
        <time>2016-09-10T09:21:00Z</time>
      </trkpt>
      <trkpt lat="45.99065" lon="4.75669">
        <ele>182</ele>
        <time>2016-09-10T09:21:01Z</time>
      </trkpt>
      <trkpt lat="45.9907" lon="4.75669">
        <ele>182</ele>
        <time>2016-09-10T09:21:02Z</time>
      </trkpt>
      <trkpt lat="45.99075" lon="4.75669">
        <ele>181</ele>
        <time>2016-09-10T09:21:03Z</time>
      </trkpt>
      <trkpt lat="45.99081" lon="4.75669">
        <ele>181</ele>
        <time>2016-09-10T09:21:04Z</time>
      </trkpt>
      <trkpt lat="45.99087" lon="4.7567">
        <ele>181</ele>
        <time>2016-09-10T09:21:05Z</time>
      </trkpt>
      <trkpt lat="45.99093" lon="4.75669">
        <ele>182</ele>
        <time>2016-09-10T09:21:06Z</time>
      </trkpt>
      <trkpt lat="45.99099" lon="4.75666">
        <ele>179</ele>
        <time>2016-09-10T09:21:07Z</time>
      </trkpt>
      <trkpt lat="45.99106" lon="4.75661">
        <ele>178</ele>
        <time>2016-09-10T09:21:08Z</time>
      </trkpt>
      <trkpt lat="45.9911" lon="4.75657">
        <ele>178</ele>
        <time>2016-09-10T09:21:09Z</time>
      </trkpt>
      <trkpt lat="45.99115" lon="4.75653">
        <ele>178</ele>
        <time>2016-09-10T09:21:10Z</time>
      </trkpt>
      <trkpt lat="45.99121" lon="4.75649">
        <ele>178</ele>
        <time>2016-09-10T09:21:11Z</time>
      </trkpt>
      <trkpt lat="45.99127" lon="4.75647">
        <ele>178</ele>
        <time>2016-09-10T09:21:12Z</time>
      </trkpt>
      <trkpt lat="45.99134" lon="4.75643">
        <ele>178</ele>
        <time>2016-09-10T09:21:13Z</time>
      </trkpt>
      <trkpt lat="45.9914" lon="4.75638">
        <ele>178</ele>
        <time>2016-09-10T09:21:14Z</time>
      </trkpt>
      <trkpt lat="45.99145" lon="4.75633">
        <ele>177</ele>
        <time>2016-09-10T09:21:15Z</time>
      </trkpt>
      <trkpt lat="45.9915" lon="4.75628">
        <ele>177</ele>
        <time>2016-09-10T09:21:16Z</time>
      </trkpt>
      <trkpt lat="45.99156" lon="4.75623">
        <ele>177</ele>
        <time>2016-09-10T09:21:17Z</time>
      </trkpt>
      <trkpt lat="45.99162" lon="4.75619">
        <ele>177</ele>
        <time>2016-09-10T09:21:18Z</time>
      </trkpt>
      <trkpt lat="45.99169" lon="4.75615">
        <ele>178</ele>
        <time>2016-09-10T09:21:19Z</time>
      </trkpt>
      <trkpt lat="45.99175" lon="4.75611">
        <ele>178</ele>
        <time>2016-09-10T09:21:20Z</time>
      </trkpt>
      <trkpt lat="45.99182" lon="4.75607">
        <ele>178</ele>
        <time>2016-09-10T09:21:21Z</time>
      </trkpt>
      <trkpt lat="45.99188" lon="4.75603">
        <ele>178</ele>
        <time>2016-09-10T09:21:22Z</time>
      </trkpt>
      <trkpt lat="45.99194" lon="4.75599">
        <ele>178</ele>
        <time>2016-09-10T09:21:23Z</time>
      </trkpt>
      <trkpt lat="45.99199" lon="4.75595">
        <ele>178</ele>
        <time>2016-09-10T09:21:24Z</time>
      </trkpt>
      <trkpt lat="45.99204" lon="4.75591">
        <ele>178</ele>
        <time>2016-09-10T09:21:25Z</time>
      </trkpt>
      <trkpt lat="45.9921" lon="4.75587">
        <ele>178</ele>
        <time>2016-09-10T09:21:26Z</time>
      </trkpt>
      <trkpt lat="45.99215" lon="4.75583">
        <ele>175</ele>
        <time>2016-09-10T09:21:27Z</time>
      </trkpt>
      <trkpt lat="45.99221" lon="4.75579">
        <ele>175</ele>
        <time>2016-09-10T09:21:28Z</time>
      </trkpt>
      <trkpt lat="45.99227" lon="4.75576">
        <ele>175</ele>
        <time>2016-09-10T09:21:29Z</time>
      </trkpt>
      <trkpt lat="45.99232" lon="4.75572">
        <ele>175</ele>
        <time>2016-09-10T09:21:30Z</time>
      </trkpt>
      <trkpt lat="45.99238" lon="4.75568">
        <ele>175</ele>
        <time>2016-09-10T09:21:31Z</time>
      </trkpt>
      <trkpt lat="45.99243" lon="4.75564">
        <ele>175</ele>
        <time>2016-09-10T09:21:32Z</time>
      </trkpt>
      <trkpt lat="45.99249" lon="4.7556">
        <ele>175</ele>
        <time>2016-09-10T09:21:33Z</time>
      </trkpt>
      <trkpt lat="45.99255" lon="4.75556">
        <ele>177</ele>
        <time>2016-09-10T09:21:34Z</time>
      </trkpt>
      <trkpt lat="45.9926" lon="4.75552">
        <ele>177</ele>
        <time>2016-09-10T09:21:35Z</time>
      </trkpt>
      <trkpt lat="45.99266" lon="4.75548">
        <ele>177</ele>
        <time>2016-09-10T09:21:36Z</time>
      </trkpt>
      <trkpt lat="45.99271" lon="4.75544">
        <ele>177</ele>
        <time>2016-09-10T09:21:37Z</time>
      </trkpt>
      <trkpt lat="45.99276" lon="4.75541">
        <ele>177</ele>
        <time>2016-09-10T09:21:38Z</time>
      </trkpt>
      <trkpt lat="45.99282" lon="4.75537">
        <ele>177</ele>
        <time>2016-09-10T09:21:39Z</time>
      </trkpt>
      <trkpt lat="45.99287" lon="4.75532">
        <ele>177</ele>
        <time>2016-09-10T09:21:40Z</time>
      </trkpt>
      <trkpt lat="45.99292" lon="4.75527">
        <ele>177</ele>
        <time>2016-09-10T09:21:41Z</time>
      </trkpt>
      <trkpt lat="45.99297" lon="4.75522">
        <ele>177</ele>
        <time>2016-09-10T09:21:42Z</time>
      </trkpt>
      <trkpt lat="45.99302" lon="4.75517">
        <ele>177</ele>
        <time>2016-09-10T09:21:43Z</time>
      </trkpt>
      <trkpt lat="45.99307" lon="4.75511">
        <ele>177</ele>
        <time>2016-09-10T09:21:44Z</time>
      </trkpt>
      <trkpt lat="45.99311" lon="4.75505">
        <ele>177</ele>
        <time>2016-09-10T09:21:45Z</time>
      </trkpt>
      <trkpt lat="45.99316" lon="4.75498">
        <ele>175</ele>
        <time>2016-09-10T09:21:46Z</time>
      </trkpt>
      <trkpt lat="45.9932" lon="4.75492">
        <ele>175</ele>
        <time>2016-09-10T09:21:47Z</time>
      </trkpt>
      <trkpt lat="45.99324" lon="4.75485">
        <ele>175</ele>
        <time>2016-09-10T09:21:48Z</time>
      </trkpt>
      <trkpt lat="45.99327" lon="4.75479">
        <ele>175</ele>
        <time>2016-09-10T09:21:49Z</time>
      </trkpt>
      <trkpt lat="45.99331" lon="4.75472">
        <ele>174</ele>
        <time>2016-09-10T09:21:50Z</time>
      </trkpt>
      <trkpt lat="45.99335" lon="4.75465">
        <ele>177</ele>
        <time>2016-09-10T09:21:51Z</time>
      </trkpt>
      <trkpt lat="45.99338" lon="4.75458">
        <ele>177</ele>
        <time>2016-09-10T09:21:52Z</time>
      </trkpt>
      <trkpt lat="45.99341" lon="4.75452">
        <ele>177</ele>
        <time>2016-09-10T09:21:53Z</time>
      </trkpt>
      <trkpt lat="45.99345" lon="4.75446">
        <ele>176</ele>
        <time>2016-09-10T09:21:54Z</time>
      </trkpt>
      <trkpt lat="45.99349" lon="4.75441">
        <ele>176</ele>
        <time>2016-09-10T09:21:55Z</time>
      </trkpt>
      <trkpt lat="45.99354" lon="4.75436">
        <ele>176</ele>
        <time>2016-09-10T09:21:56Z</time>
      </trkpt>
      <trkpt lat="45.99358" lon="4.7543">
        <ele>176</ele>
        <time>2016-09-10T09:21:57Z</time>
      </trkpt>
      <trkpt lat="45.99362" lon="4.75423">
        <ele>176</ele>
        <time>2016-09-10T09:21:58Z</time>
      </trkpt>
      <trkpt lat="45.99364" lon="4.75414">
        <ele>173</ele>
        <time>2016-09-10T09:21:59Z</time>
      </trkpt>
      <trkpt lat="45.99364" lon="4.75406">
        <ele>173</ele>
        <time>2016-09-10T09:22:00Z</time>
      </trkpt>
      <trkpt lat="45.99365" lon="4.75397">
        <ele>173</ele>
        <time>2016-09-10T09:22:01Z</time>
      </trkpt>
      <trkpt lat="45.99366" lon="4.75388">
        <ele>172</ele>
        <time>2016-09-10T09:22:02Z</time>
      </trkpt>
      <trkpt lat="45.99367" lon="4.7538">
        <ele>172</ele>
        <time>2016-09-10T09:22:03Z</time>
      </trkpt>
      <trkpt lat="45.9937" lon="4.75372">
        <ele>172</ele>
        <time>2016-09-10T09:22:04Z</time>
      </trkpt>
      <trkpt lat="45.99373" lon="4.75365">
        <ele>172</ele>
        <time>2016-09-10T09:22:05Z</time>
      </trkpt>
      <trkpt lat="45.99377" lon="4.75359">
        <ele>172</ele>
        <time>2016-09-10T09:22:06Z</time>
      </trkpt>
      <trkpt lat="45.9938" lon="4.75353">
        <ele>172</ele>
        <time>2016-09-10T09:22:07Z</time>
      </trkpt>
      <trkpt lat="45.99384" lon="4.75347">
        <ele>172</ele>
        <time>2016-09-10T09:22:08Z</time>
      </trkpt>
      <trkpt lat="45.99389" lon="4.75342">
        <ele>171</ele>
        <time>2016-09-10T09:22:09Z</time>
      </trkpt>
      <trkpt lat="45.99394" lon="4.75337">
        <ele>171</ele>
        <time>2016-09-10T09:22:10Z</time>
      </trkpt>
      <trkpt lat="45.99399" lon="4.75333">
        <ele>170</ele>
        <time>2016-09-10T09:22:11Z</time>
      </trkpt>
      <trkpt lat="45.99405" lon="4.75329">
        <ele>170</ele>
        <time>2016-09-10T09:22:12Z</time>
      </trkpt>
      <trkpt lat="45.9941" lon="4.75326">
        <ele>170</ele>
        <time>2016-09-10T09:22:13Z</time>
      </trkpt>
      <trkpt lat="45.99415" lon="4.75324">
        <ele>170</ele>
        <time>2016-09-10T09:22:14Z</time>
      </trkpt>
      <trkpt lat="45.99421" lon="4.75322">
        <ele>170</ele>
        <time>2016-09-10T09:22:15Z</time>
      </trkpt>
      <trkpt lat="45.99427" lon="4.75321">
        <ele>171</ele>
        <time>2016-09-10T09:22:16Z</time>
      </trkpt>
      <trkpt lat="45.99433" lon="4.7532">
        <ele>171</ele>
        <time>2016-09-10T09:22:17Z</time>
      </trkpt>
      <trkpt lat="45.99439" lon="4.75319">
        <ele>171</ele>
        <time>2016-09-10T09:22:18Z</time>
      </trkpt>
      <trkpt lat="45.99445" lon="4.75318">
        <ele>171</ele>
        <time>2016-09-10T09:22:19Z</time>
      </trkpt>
      <trkpt lat="45.99451" lon="4.75318">
        <ele>171</ele>
        <time>2016-09-10T09:22:20Z</time>
      </trkpt>
      <trkpt lat="45.99456" lon="4.75318">
        <ele>171</ele>
        <time>2016-09-10T09:22:21Z</time>
      </trkpt>
      <trkpt lat="45.99462" lon="4.75318">
        <ele>171</ele>
        <time>2016-09-10T09:22:22Z</time>
      </trkpt>
      <trkpt lat="45.99467" lon="4.75317">
        <ele>171</ele>
        <time>2016-09-10T09:22:23Z</time>
      </trkpt>
      <trkpt lat="45.99472" lon="4.75317">
        <ele>171</ele>
        <time>2016-09-10T09:22:24Z</time>
      </trkpt>
      <trkpt lat="45.99477" lon="4.75316">
        <ele>171</ele>
        <time>2016-09-10T09:22:25Z</time>
      </trkpt>
      <trkpt lat="45.99483" lon="4.75315">
        <ele>171</ele>
        <time>2016-09-10T09:22:26Z</time>
      </trkpt>
      <trkpt lat="45.99488" lon="4.75315">
        <ele>171</ele>
        <time>2016-09-10T09:22:27Z</time>
      </trkpt>
      <trkpt lat="45.99493" lon="4.75314">
        <ele>171</ele>
        <time>2016-09-10T09:22:28Z</time>
      </trkpt>
      <trkpt lat="45.99499" lon="4.75313">
        <ele>171</ele>
        <time>2016-09-10T09:22:29Z</time>
      </trkpt>
      <trkpt lat="45.99504" lon="4.75312">
        <ele>172</ele>
        <time>2016-09-10T09:22:30Z</time>
      </trkpt>
      <trkpt lat="45.9951" lon="4.75312">
        <ele>172</ele>
        <time>2016-09-10T09:22:31Z</time>
      </trkpt>
      <trkpt lat="45.99515" lon="4.75311">
        <ele>172</ele>
        <time>2016-09-10T09:22:32Z</time>
      </trkpt>
      <trkpt lat="45.9952" lon="4.75311">
        <ele>172</ele>
        <time>2016-09-10T09:22:33Z</time>
      </trkpt>
      <trkpt lat="45.99525" lon="4.75311">
        <ele>172</ele>
        <time>2016-09-10T09:22:34Z</time>
      </trkpt>
      <trkpt lat="45.9953" lon="4.7531">
        <ele>172</ele>
        <time>2016-09-10T09:22:35Z</time>
      </trkpt>
      <trkpt lat="45.99536" lon="4.7531">
        <ele>172</ele>
        <time>2016-09-10T09:22:36Z</time>
      </trkpt>
      <trkpt lat="45.99541" lon="4.75311">
        <ele>172</ele>
        <time>2016-09-10T09:22:37Z</time>
      </trkpt>
      <trkpt lat="45.99547" lon="4.75313">
        <ele>172</ele>
        <time>2016-09-10T09:22:38Z</time>
      </trkpt>
      <trkpt lat="45.99552" lon="4.75316">
        <ele>172</ele>
        <time>2016-09-10T09:22:39Z</time>
      </trkpt>
      <trkpt lat="45.99556" lon="4.75321">
        <ele>172</ele>
        <time>2016-09-10T09:22:40Z</time>
      </trkpt>
      <trkpt lat="45.99561" lon="4.75325">
        <ele>172</ele>
        <time>2016-09-10T09:22:41Z</time>
      </trkpt>
      <trkpt lat="45.99566" lon="4.75329">
        <ele>172</ele>
        <time>2016-09-10T09:22:42Z</time>
      </trkpt>
      <trkpt lat="45.99572" lon="4.75331">
        <ele>173</ele>
        <time>2016-09-10T09:22:43Z</time>
      </trkpt>
      <trkpt lat="45.99579" lon="4.7533">
        <ele>173</ele>
        <time>2016-09-10T09:22:44Z</time>
      </trkpt>
      <trkpt lat="45.99585" lon="4.75328">
        <ele>173</ele>
        <time>2016-09-10T09:22:45Z</time>
      </trkpt>
      <trkpt lat="45.99589" lon="4.75323">
        <ele>173</ele>
        <time>2016-09-10T09:22:46Z</time>
      </trkpt>
      <trkpt lat="45.99594" lon="4.75317">
        <ele>174</ele>
        <time>2016-09-10T09:22:47Z</time>
      </trkpt>
      <trkpt lat="45.99597" lon="4.75311">
        <ele>174</ele>
        <time>2016-09-10T09:22:48Z</time>
      </trkpt>
      <trkpt lat="45.996" lon="4.75304">
        <ele>174</ele>
        <time>2016-09-10T09:22:49Z</time>
      </trkpt>
      <trkpt lat="45.99602" lon="4.75297">
        <ele>174</ele>
        <time>2016-09-10T09:22:50Z</time>
      </trkpt>
      <trkpt lat="45.99604" lon="4.75292">
        <ele>174</ele>
        <time>2016-09-10T09:22:51Z</time>
      </trkpt>
      <trkpt lat="45.99609" lon="4.75288">
        <ele>174</ele>
        <time>2016-09-10T09:22:52Z</time>
      </trkpt>
      <trkpt lat="45.99614" lon="4.75285">
        <ele>174</ele>
        <time>2016-09-10T09:22:53Z</time>
      </trkpt>
      <trkpt lat="45.99619" lon="4.75283">
        <ele>174</ele>
        <time>2016-09-10T09:22:54Z</time>
      </trkpt>
      <trkpt lat="45.99625" lon="4.75282">
        <ele>174</ele>
        <time>2016-09-10T09:22:55Z</time>
      </trkpt>
      <trkpt lat="45.99632" lon="4.75282">
        <ele>174</ele>
        <time>2016-09-10T09:22:56Z</time>
      </trkpt>
      <trkpt lat="45.9964" lon="4.75283">
        <ele>174</ele>
        <time>2016-09-10T09:22:57Z</time>
      </trkpt>
      <trkpt lat="45.99647" lon="4.75283">
        <ele>174</ele>
        <time>2016-09-10T09:22:58Z</time>
      </trkpt>
      <trkpt lat="45.99655" lon="4.75281">
        <ele>174</ele>
        <time>2016-09-10T09:22:59Z</time>
      </trkpt>
      <trkpt lat="45.99662" lon="4.75278">
        <ele>174</ele>
        <time>2016-09-10T09:23:00Z</time>
      </trkpt>
      <trkpt lat="45.99669" lon="4.75275">
        <ele>176</ele>
        <time>2016-09-10T09:23:01Z</time>
      </trkpt>
      <trkpt lat="45.99676" lon="4.75272">
        <ele>176</ele>
        <time>2016-09-10T09:23:02Z</time>
      </trkpt>
      <trkpt lat="45.99683" lon="4.75269">
        <ele>176</ele>
        <time>2016-09-10T09:23:03Z</time>
      </trkpt>
      <trkpt lat="45.9969" lon="4.75267">
        <ele>176</ele>
        <time>2016-09-10T09:23:04Z</time>
      </trkpt>
      <trkpt lat="45.99696" lon="4.75263">
        <ele>176</ele>
        <time>2016-09-10T09:23:05Z</time>
      </trkpt>
      <trkpt lat="45.99702" lon="4.7526">
        <ele>176</ele>
        <time>2016-09-10T09:23:06Z</time>
      </trkpt>
      <trkpt lat="45.99709" lon="4.75257">
        <ele>176</ele>
        <time>2016-09-10T09:23:07Z</time>
      </trkpt>
      <trkpt lat="45.99715" lon="4.75255">
        <ele>176</ele>
        <time>2016-09-10T09:23:08Z</time>
      </trkpt>
      <trkpt lat="45.99721" lon="4.75254">
        <ele>176</ele>
        <time>2016-09-10T09:23:09Z</time>
      </trkpt>
      <trkpt lat="45.99726" lon="4.75251">
        <ele>176</ele>
        <time>2016-09-10T09:23:10Z</time>
      </trkpt>
      <trkpt lat="45.99732" lon="4.75249">
        <ele>175</ele>
        <time>2016-09-10T09:23:11Z</time>
      </trkpt>
      <trkpt lat="45.99738" lon="4.75247">
        <ele>175</ele>
        <time>2016-09-10T09:23:12Z</time>
      </trkpt>
      <trkpt lat="45.99743" lon="4.75244">
        <ele>175</ele>
        <time>2016-09-10T09:23:13Z</time>
      </trkpt>
      <trkpt lat="45.99748" lon="4.75242">
        <ele>175</ele>
        <time>2016-09-10T09:23:14Z</time>
      </trkpt>
      <trkpt lat="45.99754" lon="4.75239">
        <ele>175</ele>
        <time>2016-09-10T09:23:15Z</time>
      </trkpt>
      <trkpt lat="45.9976" lon="4.75237">
        <ele>175</ele>
        <time>2016-09-10T09:23:16Z</time>
      </trkpt>
      <trkpt lat="45.99766" lon="4.75234">
        <ele>175</ele>
        <time>2016-09-10T09:23:17Z</time>
      </trkpt>
      <trkpt lat="45.99772" lon="4.7523">
        <ele>175</ele>
        <time>2016-09-10T09:23:18Z</time>
      </trkpt>
      <trkpt lat="45.99778" lon="4.75227">
        <ele>175</ele>
        <time>2016-09-10T09:23:19Z</time>
      </trkpt>
      <trkpt lat="45.99783" lon="4.75225">
        <ele>175</ele>
        <time>2016-09-10T09:23:20Z</time>
      </trkpt>
      <trkpt lat="45.99789" lon="4.75222">
        <ele>175</ele>
        <time>2016-09-10T09:23:21Z</time>
      </trkpt>
      <trkpt lat="45.99795" lon="4.75219">
        <ele>174</ele>
        <time>2016-09-10T09:23:22Z</time>
      </trkpt>
      <trkpt lat="45.99801" lon="4.75217">
        <ele>174</ele>
        <time>2016-09-10T09:23:23Z</time>
      </trkpt>
      <trkpt lat="45.99807" lon="4.75214">
        <ele>174</ele>
        <time>2016-09-10T09:23:24Z</time>
      </trkpt>
      <trkpt lat="45.99813" lon="4.75211">
        <ele>174</ele>
        <time>2016-09-10T09:23:25Z</time>
      </trkpt>
      <trkpt lat="45.99819" lon="4.75208">
        <ele>174</ele>
        <time>2016-09-10T09:23:26Z</time>
      </trkpt>
      <trkpt lat="45.99825" lon="4.75205">
        <ele>174</ele>
        <time>2016-09-10T09:23:27Z</time>
      </trkpt>
      <trkpt lat="45.99831" lon="4.75202">
        <ele>174</ele>
        <time>2016-09-10T09:23:28Z</time>
      </trkpt>
      <trkpt lat="45.99836" lon="4.75199">
        <ele>174</ele>
        <time>2016-09-10T09:23:29Z</time>
      </trkpt>
      <trkpt lat="45.99842" lon="4.75196">
        <ele>174</ele>
        <time>2016-09-10T09:23:30Z</time>
      </trkpt>
      <trkpt lat="45.99848" lon="4.75193">
        <ele>174</ele>
        <time>2016-09-10T09:23:31Z</time>
      </trkpt>
      <trkpt lat="45.99853" lon="4.7519">
        <ele>174</ele>
        <time>2016-09-10T09:23:32Z</time>
      </trkpt>
      <trkpt lat="45.99858" lon="4.75188">
        <ele>174</ele>
        <time>2016-09-10T09:23:33Z</time>
      </trkpt>
      <trkpt lat="45.99863" lon="4.75185">
        <ele>174</ele>
        <time>2016-09-10T09:23:34Z</time>
      </trkpt>
      <trkpt lat="45.99868" lon="4.75183">
        <ele>174</ele>
        <time>2016-09-10T09:23:35Z</time>
      </trkpt>
      <trkpt lat="45.99873" lon="4.75181">
        <ele>174</ele>
        <time>2016-09-10T09:23:36Z</time>
      </trkpt>
      <trkpt lat="45.99877" lon="4.75179">
        <ele>174</ele>
        <time>2016-09-10T09:23:37Z</time>
      </trkpt>
      <trkpt lat="45.99882" lon="4.75176">
        <ele>174</ele>
        <time>2016-09-10T09:23:38Z</time>
      </trkpt>
      <trkpt lat="45.99888" lon="4.75174">
        <ele>174</ele>
        <time>2016-09-10T09:23:39Z</time>
      </trkpt>
      <trkpt lat="45.99893" lon="4.75171">
        <ele>174</ele>
        <time>2016-09-10T09:23:40Z</time>
      </trkpt>
      <trkpt lat="45.99899" lon="4.75168">
        <ele>174</ele>
        <time>2016-09-10T09:23:41Z</time>
      </trkpt>
      <trkpt lat="45.99905" lon="4.75165">
        <ele>173</ele>
        <time>2016-09-10T09:23:42Z</time>
      </trkpt>
      <trkpt lat="45.99911" lon="4.75162">
        <ele>173</ele>
        <time>2016-09-10T09:23:43Z</time>
      </trkpt>
      <trkpt lat="45.99917" lon="4.75159">
        <ele>173</ele>
        <time>2016-09-10T09:23:44Z</time>
      </trkpt>
      <trkpt lat="45.99922" lon="4.75157">
        <ele>173</ele>
        <time>2016-09-10T09:23:45Z</time>
      </trkpt>
      <trkpt lat="45.99928" lon="4.75154">
        <ele>173</ele>
        <time>2016-09-10T09:23:46Z</time>
      </trkpt>
      <trkpt lat="45.99933" lon="4.75151">
        <ele>173</ele>
        <time>2016-09-10T09:23:47Z</time>
      </trkpt>
      <trkpt lat="45.99939" lon="4.75149">
        <ele>173</ele>
        <time>2016-09-10T09:23:48Z</time>
      </trkpt>
      <trkpt lat="45.99944" lon="4.75146">
        <ele>173</ele>
        <time>2016-09-10T09:23:49Z</time>
      </trkpt>
      <trkpt lat="45.9995" lon="4.75143">
        <ele>173</ele>
        <time>2016-09-10T09:23:50Z</time>
      </trkpt>
      <trkpt lat="45.99956" lon="4.75141">
        <ele>173</ele>
        <time>2016-09-10T09:23:51Z</time>
      </trkpt>
      <trkpt lat="45.99962" lon="4.75138">
        <ele>173</ele>
        <time>2016-09-10T09:23:52Z</time>
      </trkpt>
      <trkpt lat="45.99968" lon="4.75136">
        <ele>173</ele>
        <time>2016-09-10T09:23:53Z</time>
      </trkpt>
      <trkpt lat="45.99973" lon="4.75135">
        <ele>173</ele>
        <time>2016-09-10T09:23:54Z</time>
      </trkpt>
      <trkpt lat="45.99979" lon="4.75132">
        <ele>173</ele>
        <time>2016-09-10T09:23:55Z</time>
      </trkpt>
      <trkpt lat="45.99984" lon="4.7513">
        <ele>173</ele>
        <time>2016-09-10T09:23:56Z</time>
      </trkpt>
      <trkpt lat="45.9999" lon="4.75128">
        <ele>173</ele>
        <time>2016-09-10T09:23:57Z</time>
      </trkpt>
      <trkpt lat="45.99996" lon="4.75128">
        <ele>173</ele>
        <time>2016-09-10T09:23:58Z</time>
      </trkpt>
      <trkpt lat="46.00002" lon="4.75127">
        <ele>174</ele>
        <time>2016-09-10T09:23:59Z</time>
      </trkpt>
      <trkpt lat="46.00008" lon="4.75126">
        <ele>174</ele>
        <time>2016-09-10T09:24:00Z</time>
      </trkpt>
      <trkpt lat="46.00014" lon="4.75124">
        <ele>174</ele>
        <time>2016-09-10T09:24:01Z</time>
      </trkpt>
      <trkpt lat="46.0002" lon="4.75123">
        <ele>174</ele>
        <time>2016-09-10T09:24:02Z</time>
      </trkpt>
      <trkpt lat="46.00027" lon="4.75122">
        <ele>174</ele>
        <time>2016-09-10T09:24:03Z</time>
      </trkpt>
      <trkpt lat="46.00032" lon="4.7512">
        <ele>174</ele>
        <time>2016-09-10T09:24:04Z</time>
      </trkpt>
      <trkpt lat="46.00039" lon="4.75118">
        <ele>174</ele>
        <time>2016-09-10T09:24:05Z</time>
      </trkpt>
      <trkpt lat="46.00045" lon="4.75117">
        <ele>174</ele>
        <time>2016-09-10T09:24:06Z</time>
      </trkpt>
      <trkpt lat="46.0005" lon="4.75117">
        <ele>174</ele>
        <time>2016-09-10T09:24:07Z</time>
      </trkpt>
      <trkpt lat="46.00055" lon="4.75117">
        <ele>174</ele>
        <time>2016-09-10T09:24:08Z</time>
      </trkpt>
      <trkpt lat="46.0006" lon="4.75117">
        <ele>174</ele>
        <time>2016-09-10T09:24:09Z</time>
      </trkpt>
      <trkpt lat="46.00065" lon="4.75116">
        <ele>174</ele>
        <time>2016-09-10T09:24:10Z</time>
      </trkpt>
      <trkpt lat="46.00071" lon="4.75115">
        <ele>174</ele>
        <time>2016-09-10T09:24:11Z</time>
      </trkpt>
      <trkpt lat="46.00077" lon="4.75115">
        <ele>174</ele>
        <time>2016-09-10T09:24:12Z</time>
      </trkpt>
      <trkpt lat="46.00084" lon="4.75115">
        <ele>175</ele>
        <time>2016-09-10T09:24:13Z</time>
      </trkpt>
      <trkpt lat="46.0009" lon="4.75115">
        <ele>175</ele>
        <time>2016-09-10T09:24:14Z</time>
      </trkpt>
      <trkpt lat="46.00096" lon="4.75114">
        <ele>175</ele>
        <time>2016-09-10T09:24:15Z</time>
      </trkpt>
      <trkpt lat="46.00102" lon="4.75114">
        <ele>175</ele>
        <time>2016-09-10T09:24:16Z</time>
      </trkpt>
      <trkpt lat="46.00109" lon="4.75115">
        <ele>175</ele>
        <time>2016-09-10T09:24:17Z</time>
      </trkpt>
      <trkpt lat="46.00115" lon="4.75115">
        <ele>175</ele>
        <time>2016-09-10T09:24:18Z</time>
      </trkpt>
      <trkpt lat="46.00121" lon="4.75116">
        <ele>175</ele>
        <time>2016-09-10T09:24:19Z</time>
      </trkpt>
      <trkpt lat="46.00127" lon="4.75116">
        <ele>175</ele>
        <time>2016-09-10T09:24:20Z</time>
      </trkpt>
      <trkpt lat="46.00132" lon="4.75117">
        <ele>175</ele>
        <time>2016-09-10T09:24:21Z</time>
      </trkpt>
      <trkpt lat="46.00138" lon="4.75117">
        <ele>175</ele>
        <time>2016-09-10T09:24:22Z</time>
      </trkpt>
      <trkpt lat="46.00143" lon="4.75117">
        <ele>175</ele>
        <time>2016-09-10T09:24:23Z</time>
      </trkpt>
      <trkpt lat="46.00148" lon="4.75117">
        <ele>175</ele>
        <time>2016-09-10T09:24:24Z</time>
      </trkpt>
      <trkpt lat="46.00153" lon="4.75116">
        <ele>175</ele>
        <time>2016-09-10T09:24:25Z</time>
      </trkpt>
      <trkpt lat="46.00158" lon="4.75116">
        <ele>175</ele>
        <time>2016-09-10T09:24:26Z</time>
      </trkpt>
      <trkpt lat="46.00163" lon="4.75117">
        <ele>175</ele>
        <time>2016-09-10T09:24:27Z</time>
      </trkpt>
      <trkpt lat="46.00168" lon="4.75117">
        <ele>176</ele>
        <time>2016-09-10T09:24:28Z</time>
      </trkpt>
      <trkpt lat="46.00176" lon="4.75116">
        <ele>176</ele>
        <time>2016-09-10T09:24:30Z</time>
      </trkpt>
      <trkpt lat="46.00181" lon="4.75115">
        <ele>176</ele>
        <time>2016-09-10T09:24:31Z</time>
      </trkpt>
      <trkpt lat="46.00186" lon="4.75114">
        <ele>176</ele>
        <time>2016-09-10T09:24:32Z</time>
      </trkpt>
      <trkpt lat="46.00191" lon="4.75113">
        <ele>176</ele>
        <time>2016-09-10T09:24:33Z</time>
      </trkpt>
      <trkpt lat="46.00195" lon="4.75112">
        <ele>176</ele>
        <time>2016-09-10T09:24:34Z</time>
      </trkpt>
      <trkpt lat="46.002" lon="4.75111">
        <ele>176</ele>
        <time>2016-09-10T09:24:35Z</time>
      </trkpt>
      <trkpt lat="46.00206" lon="4.7512">
        <ele>176</ele>
        <time>2016-09-10T09:24:37Z</time>
      </trkpt>
      <trkpt lat="46.00208" lon="4.75125">
        <ele>176</ele>
        <time>2016-09-10T09:24:38Z</time>
      </trkpt>
      <trkpt lat="46.0021" lon="4.75135">
        <ele>176</ele>
        <time>2016-09-10T09:24:40Z</time>
      </trkpt>
      <trkpt lat="46.0021" lon="4.75141">
        <ele>176</ele>
        <time>2016-09-10T09:24:41Z</time>
      </trkpt>
      <trkpt lat="46.00205" lon="4.75149">
        <ele>177</ele>
        <time>2016-09-10T09:24:42Z</time>
      </trkpt>
      <trkpt lat="46.00204" lon="4.75156">
        <ele>177</ele>
        <time>2016-09-10T09:24:43Z</time>
      </trkpt>
      <trkpt lat="46.00203" lon="4.75163">
        <ele>177</ele>
        <time>2016-09-10T09:24:44Z</time>
      </trkpt>
      <trkpt lat="46.00205" lon="4.75169">
        <ele>179</ele>
        <time>2016-09-10T09:24:45Z</time>
      </trkpt>
      <trkpt lat="46.00206" lon="4.75182">
        <ele>179</ele>
        <time>2016-09-10T09:24:47Z</time>
      </trkpt>
      <trkpt lat="46.00205" lon="4.75188">
        <ele>179</ele>
        <time>2016-09-10T09:24:48Z</time>
      </trkpt>
      <trkpt lat="46.00206" lon="4.75199">
        <ele>179</ele>
        <time>2016-09-10T09:24:50Z</time>
      </trkpt>
      <trkpt lat="46.00205" lon="4.75205">
        <ele>179</ele>
        <time>2016-09-10T09:24:51Z</time>
      </trkpt>
      <trkpt lat="46.00205" lon="4.75215">
        <ele>180</ele>
        <time>2016-09-10T09:24:53Z</time>
      </trkpt>
      <trkpt lat="46.00205" lon="4.7522">
        <ele>180</ele>
        <time>2016-09-10T09:24:54Z</time>
      </trkpt>
      <trkpt lat="46.00206" lon="4.7523">
        <ele>180</ele>
        <time>2016-09-10T09:24:56Z</time>
      </trkpt>
      <trkpt lat="46.00206" lon="4.75234">
        <ele>180</ele>
        <time>2016-09-10T09:24:57Z</time>
      </trkpt>
      <trkpt lat="46.00206" lon="4.75243">
        <ele>180</ele>
        <time>2016-09-10T09:24:59Z</time>
      </trkpt>
      <trkpt lat="46.00206" lon="4.75248">
        <ele>180</ele>
        <time>2016-09-10T09:25:00Z</time>
      </trkpt>
      <trkpt lat="46.00207" lon="4.75257">
        <ele>184</ele>
        <time>2016-09-10T09:25:02Z</time>
      </trkpt>
      <trkpt lat="46.00207" lon="4.75262">
        <ele>184</ele>
        <time>2016-09-10T09:25:03Z</time>
      </trkpt>
      <trkpt lat="46.00207" lon="4.7527">
        <ele>184</ele>
        <time>2016-09-10T09:25:05Z</time>
      </trkpt>
      <trkpt lat="46.00207" lon="4.75275">
        <ele>184</ele>
        <time>2016-09-10T09:25:06Z</time>
      </trkpt>
      <trkpt lat="46.00207" lon="4.75287">
        <ele>185</ele>
        <time>2016-09-10T09:25:09Z</time>
      </trkpt>
      <trkpt lat="46.00207" lon="4.7529">
        <ele>185</ele>
        <time>2016-09-10T09:25:10Z</time>
      </trkpt>
      <trkpt lat="46.00208" lon="4.75301">
        <ele>185</ele>
        <time>2016-09-10T09:25:13Z</time>
      </trkpt>
      <trkpt lat="46.00208" lon="4.75305">
        <ele>186</ele>
        <time>2016-09-10T09:25:14Z</time>
      </trkpt>
      <trkpt lat="46.0021" lon="4.75317">
        <ele>186</ele>
        <time>2016-09-10T09:25:17Z</time>
      </trkpt>
      <trkpt lat="46.0021" lon="4.75321">
        <ele>186</ele>
        <time>2016-09-10T09:25:18Z</time>
      </trkpt>
      <trkpt lat="46.0021" lon="4.7533">
        <ele>186</ele>
        <time>2016-09-10T09:25:20Z</time>
      </trkpt>
      <trkpt lat="46.0021" lon="4.75334">
        <ele>190</ele>
        <time>2016-09-10T09:25:21Z</time>
      </trkpt>
      <trkpt lat="46.0021" lon="4.75344">
        <ele>191</ele>
        <time>2016-09-10T09:25:24Z</time>
      </trkpt>
      <trkpt lat="46.0021" lon="4.75348">
        <ele>191</ele>
        <time>2016-09-10T09:25:25Z</time>
      </trkpt>
      <trkpt lat="46.0021" lon="4.7536">
        <ele>191</ele>
        <time>2016-09-10T09:25:28Z</time>
      </trkpt>
      <trkpt lat="46.0021" lon="4.75363">
        <ele>191</ele>
        <time>2016-09-10T09:25:29Z</time>
      </trkpt>
      <trkpt lat="46.0021" lon="4.75375">
        <ele>191</ele>
        <time>2016-09-10T09:25:32Z</time>
      </trkpt>
      <trkpt lat="46.0021" lon="4.75379">
        <ele>192</ele>
        <time>2016-09-10T09:25:33Z</time>
      </trkpt>
      <trkpt lat="46.0021" lon="4.75391">
        <ele>192</ele>
        <time>2016-09-10T09:25:36Z</time>
      </trkpt>
      <trkpt lat="46.0021" lon="4.75395">
        <ele>192</ele>
        <time>2016-09-10T09:25:37Z</time>
      </trkpt>
      <trkpt lat="46.00209" lon="4.75408">
        <ele>192</ele>
        <time>2016-09-10T09:25:40Z</time>
      </trkpt>
      <trkpt lat="46.00209" lon="4.75412">
        <ele>193</ele>
        <time>2016-09-10T09:25:41Z</time>
      </trkpt>
      <trkpt lat="46.0021" lon="4.75424">
        <ele>196</ele>
        <time>2016-09-10T09:25:44Z</time>
      </trkpt>
      <trkpt lat="46.0021" lon="4.75428">
        <ele>196</ele>
        <time>2016-09-10T09:25:45Z</time>
      </trkpt>
      <trkpt lat="46.00212" lon="4.75439">
        <ele>197</ele>
        <time>2016-09-10T09:25:48Z</time>
      </trkpt>
      <trkpt lat="46.00213" lon="4.75443">
        <ele>197</ele>
        <time>2016-09-10T09:25:49Z</time>
      </trkpt>
      <trkpt lat="46.00214" lon="4.75451">
        <ele>197</ele>
        <time>2016-09-10T09:25:51Z</time>
      </trkpt>
      <trkpt lat="46.00216" lon="4.75455">
        <ele>197</ele>
        <time>2016-09-10T09:25:52Z</time>
      </trkpt>
      <trkpt lat="46.00215" lon="4.75466">
        <ele>198</ele>
        <time>2016-09-10T09:25:55Z</time>
      </trkpt>
      <trkpt lat="46.00214" lon="4.7547">
        <ele>198</ele>
        <time>2016-09-10T09:25:56Z</time>
      </trkpt>
      <trkpt lat="46.00213" lon="4.75481">
        <ele>198</ele>
        <time>2016-09-10T09:25:59Z</time>
      </trkpt>
      <trkpt lat="46.00213" lon="4.75485">
        <ele>198</ele>
        <time>2016-09-10T09:26:00Z</time>
      </trkpt>
      <trkpt lat="46.0021" lon="4.75495">
        <ele>198</ele>
        <time>2016-09-10T09:26:03Z</time>
      </trkpt>
      <trkpt lat="46.0021" lon="4.75499">
        <ele>199</ele>
        <time>2016-09-10T09:26:04Z</time>
      </trkpt>
      <trkpt lat="46.00211" lon="4.7551">
        <ele>204</ele>
        <time>2016-09-10T09:26:07Z</time>
      </trkpt>
      <trkpt lat="46.00212" lon="4.75514">
        <ele>204</ele>
        <time>2016-09-10T09:26:08Z</time>
      </trkpt>
      <trkpt lat="46.00212" lon="4.75524">
        <ele>205</ele>
        <time>2016-09-10T09:26:11Z</time>
      </trkpt>
      <trkpt lat="46.00213" lon="4.75527">
        <ele>205</ele>
        <time>2016-09-10T09:26:12Z</time>
      </trkpt>
      <trkpt lat="46.00214" lon="4.75538">
        <ele>206</ele>
        <time>2016-09-10T09:26:15Z</time>
      </trkpt>
      <trkpt lat="46.00215" lon="4.75542">
        <ele>206</ele>
        <time>2016-09-10T09:26:16Z</time>
      </trkpt>
      <trkpt lat="46.00218" lon="4.7555">
        <ele>206</ele>
        <time>2016-09-10T09:26:18Z</time>
      </trkpt>
      <trkpt lat="46.00219" lon="4.75554">
        <ele>206</ele>
        <time>2016-09-10T09:26:19Z</time>
      </trkpt>
      <trkpt lat="46.00222" lon="4.75564">
        <ele>206</ele>
        <time>2016-09-10T09:26:22Z</time>
      </trkpt>
      <trkpt lat="46.00224" lon="4.75568">
        <ele>206</ele>
        <time>2016-09-10T09:26:23Z</time>
      </trkpt>
      <trkpt lat="46.00227" lon="4.75577">
        <ele>206</ele>
        <time>2016-09-10T09:26:26Z</time>
      </trkpt>
      <trkpt lat="46.00228" lon="4.75581">
        <ele>206</ele>
        <time>2016-09-10T09:26:27Z</time>
      </trkpt>
      <trkpt lat="46.00233" lon="4.75589">
        <ele>210</ele>
        <time>2016-09-10T09:26:30Z</time>
      </trkpt>
      <trkpt lat="46.00235" lon="4.75591">
        <ele>210</ele>
        <time>2016-09-10T09:26:31Z</time>
      </trkpt>
      <trkpt lat="46.0024" lon="4.75601">
        <ele>210</ele>
        <time>2016-09-10T09:26:35Z</time>
      </trkpt>
      <trkpt lat="46.00243" lon="4.75604">
        <ele>211</ele>
        <time>2016-09-10T09:26:36Z</time>
      </trkpt>
      <trkpt lat="46.00249" lon="4.75613">
        <ele>211</ele>
        <time>2016-09-10T09:26:39Z</time>
      </trkpt>
      <trkpt lat="46.00251" lon="4.75616">
        <ele>206</ele>
        <time>2016-09-10T09:26:40Z</time>
      </trkpt>
      <trkpt lat="46.00256" lon="4.75623">
        <ele>206</ele>
        <time>2016-09-10T09:26:43Z</time>
      </trkpt>
      <trkpt lat="46.00257" lon="4.75626">
        <ele>206</ele>
        <time>2016-09-10T09:26:44Z</time>
      </trkpt>
      <trkpt lat="46.00263" lon="4.75633">
        <ele>207</ele>
        <time>2016-09-10T09:26:47Z</time>
      </trkpt>
      <trkpt lat="46.00265" lon="4.75635">
        <ele>207</ele>
        <time>2016-09-10T09:26:48Z</time>
      </trkpt>
      <trkpt lat="46.00271" lon="4.75642">
        <ele>207</ele>
        <time>2016-09-10T09:26:51Z</time>
      </trkpt>
      <trkpt lat="46.00273" lon="4.75645">
        <ele>207</ele>
        <time>2016-09-10T09:26:52Z</time>
      </trkpt>
      <trkpt lat="46.00278" lon="4.75653">
        <ele>207</ele>
        <time>2016-09-10T09:26:54Z</time>
      </trkpt>
      <trkpt lat="46.0028" lon="4.75655">
        <ele>207</ele>
        <time>2016-09-10T09:26:55Z</time>
      </trkpt>
      <trkpt lat="46.00284" lon="4.75664">
        <ele>207</ele>
        <time>2016-09-10T09:26:58Z</time>
      </trkpt>
      <trkpt lat="46.00285" lon="4.75667">
        <ele>207</ele>
        <time>2016-09-10T09:26:59Z</time>
      </trkpt>
      <trkpt lat="46.00291" lon="4.75675">
        <ele>209</ele>
        <time>2016-09-10T09:27:03Z</time>
      </trkpt>
      <trkpt lat="46.00292" lon="4.75677">
        <ele>208</ele>
        <time>2016-09-10T09:27:04Z</time>
      </trkpt>
      <trkpt lat="46.00296" lon="4.75684">
        <ele>208</ele>
        <time>2016-09-10T09:27:06Z</time>
      </trkpt>
      <trkpt lat="46.00298" lon="4.75689">
        <ele>208</ele>
        <time>2016-09-10T09:27:07Z</time>
      </trkpt>
      <trkpt lat="46.00303" lon="4.75697">
        <ele>208</ele>
        <time>2016-09-10T09:27:09Z</time>
      </trkpt>
      <trkpt lat="46.00306" lon="4.75701">
        <ele>208</ele>
        <time>2016-09-10T09:27:10Z</time>
      </trkpt>
      <trkpt lat="46.00311" lon="4.75711">
        <ele>208</ele>
        <time>2016-09-10T09:27:13Z</time>
      </trkpt>
      <trkpt lat="46.00313" lon="4.75714">
        <ele>208</ele>
        <time>2016-09-10T09:27:14Z</time>
      </trkpt>
      <trkpt lat="46.00318" lon="4.75719">
        <ele>208</ele>
        <time>2016-09-10T09:27:16Z</time>
      </trkpt>
      <trkpt lat="46.00323" lon="4.7572">
        <ele>208</ele>
        <time>2016-09-10T09:27:17Z</time>
      </trkpt>
      <trkpt lat="46.00328" lon="4.75725">
        <ele>208</ele>
        <time>2016-09-10T09:27:19Z</time>
      </trkpt>
      <trkpt lat="46.00331" lon="4.75728">
        <ele>208</ele>
        <time>2016-09-10T09:27:20Z</time>
      </trkpt>
      <trkpt lat="46.00336" lon="4.75738">
        <ele>209</ele>
        <time>2016-09-10T09:27:23Z</time>
      </trkpt>
      <trkpt lat="46.00338" lon="4.7574">
        <ele>209</ele>
        <time>2016-09-10T09:27:24Z</time>
      </trkpt>
      <trkpt lat="46.00343" lon="4.75749">
        <ele>209</ele>
        <time>2016-09-10T09:27:27Z</time>
      </trkpt>
      <trkpt lat="46.00345" lon="4.75752">
        <ele>210</ele>
        <time>2016-09-10T09:27:28Z</time>
      </trkpt>
      <trkpt lat="46.00349" lon="4.75761">
        <ele>211</ele>
        <time>2016-09-10T09:27:31Z</time>
      </trkpt>
      <trkpt lat="46.00352" lon="4.75765">
        <ele>211</ele>
        <time>2016-09-10T09:27:32Z</time>
      </trkpt>
      <trkpt lat="46.00355" lon="4.75772">
        <ele>212</ele>
        <time>2016-09-10T09:27:34Z</time>
      </trkpt>
      <trkpt lat="46.00357" lon="4.75775">
        <ele>212</ele>
        <time>2016-09-10T09:27:35Z</time>
      </trkpt>
      <trkpt lat="46.00363" lon="4.75784">
        <ele>213</ele>
        <time>2016-09-10T09:27:38Z</time>
      </trkpt>
      <trkpt lat="46.00365" lon="4.75787">
        <ele>213</ele>
        <time>2016-09-10T09:27:39Z</time>
      </trkpt>
      <trkpt lat="46.00369" lon="4.75793">
        <ele>213</ele>
        <time>2016-09-10T09:27:41Z</time>
      </trkpt>
      <trkpt lat="46.00372" lon="4.75796">
        <ele>213</ele>
        <time>2016-09-10T09:27:42Z</time>
      </trkpt>
      <trkpt lat="46.00378" lon="4.75804">
        <ele>213</ele>
        <time>2016-09-10T09:27:45Z</time>
      </trkpt>
      <trkpt lat="46.00379" lon="4.75808">
        <ele>213</ele>
        <time>2016-09-10T09:27:46Z</time>
      </trkpt>
      <trkpt lat="46.00384" lon="4.75817">
        <ele>213</ele>
        <time>2016-09-10T09:27:49Z</time>
      </trkpt>
      <trkpt lat="46.00386" lon="4.7582">
        <ele>213</ele>
        <time>2016-09-10T09:27:50Z</time>
      </trkpt>
      <trkpt lat="46.00392" lon="4.75829">
        <ele>213</ele>
        <time>2016-09-10T09:27:53Z</time>
      </trkpt>
      <trkpt lat="46.00393" lon="4.75832">
        <ele>213</ele>
        <time>2016-09-10T09:27:54Z</time>
      </trkpt>
      <trkpt lat="46.00398" lon="4.75843">
        <ele>214</ele>
        <time>2016-09-10T09:27:57Z</time>
      </trkpt>
      <trkpt lat="46.004" lon="4.75846">
        <ele>214</ele>
        <time>2016-09-10T09:27:58Z</time>
      </trkpt>
      <trkpt lat="46.00406" lon="4.75854">
        <ele>215</ele>
        <time>2016-09-10T09:28:01Z</time>
      </trkpt>
      <trkpt lat="46.00408" lon="4.75856">
        <ele>215</ele>
        <time>2016-09-10T09:28:02Z</time>
      </trkpt>
      <trkpt lat="46.00413" lon="4.75866">
        <ele>215</ele>
        <time>2016-09-10T09:28:05Z</time>
      </trkpt>
      <trkpt lat="46.00414" lon="4.7587">
        <ele>215</ele>
        <time>2016-09-10T09:28:06Z</time>
      </trkpt>
      <trkpt lat="46.00419" lon="4.7588">
        <ele>217</ele>
        <time>2016-09-10T09:28:09Z</time>
      </trkpt>
      <trkpt lat="46.00421" lon="4.75883">
        <ele>217</ele>
        <time>2016-09-10T09:28:10Z</time>
      </trkpt>
      <trkpt lat="46.00426" lon="4.75892">
        <ele>217</ele>
        <time>2016-09-10T09:28:13Z</time>
      </trkpt>
      <trkpt lat="46.00428" lon="4.75895">
        <ele>217</ele>
        <time>2016-09-10T09:28:14Z</time>
      </trkpt>
      <trkpt lat="46.00433" lon="4.75903">
        <ele>217</ele>
        <time>2016-09-10T09:28:17Z</time>
      </trkpt>
      <trkpt lat="46.00434" lon="4.75907">
        <ele>217</ele>
        <time>2016-09-10T09:28:18Z</time>
      </trkpt>
      <trkpt lat="46.00437" lon="4.75915">
        <ele>217</ele>
        <time>2016-09-10T09:28:21Z</time>
      </trkpt>
      <trkpt lat="46.00439" lon="4.75918">
        <ele>218</ele>
        <time>2016-09-10T09:28:22Z</time>
      </trkpt>
      <trkpt lat="46.00444" lon="4.75927">
        <ele>218</ele>
        <time>2016-09-10T09:28:25Z</time>
      </trkpt>
      <trkpt lat="46.00445" lon="4.7593">
        <ele>218</ele>
        <time>2016-09-10T09:28:26Z</time>
      </trkpt>
      <trkpt lat="46.00445" lon="4.75942">
        <ele>219</ele>
        <time>2016-09-10T09:28:29Z</time>
      </trkpt>
      <trkpt lat="46.00445" lon="4.75946">
        <ele>219</ele>
        <time>2016-09-10T09:28:30Z</time>
      </trkpt>
      <trkpt lat="46.00442" lon="4.75957">
        <ele>219</ele>
        <time>2016-09-10T09:28:33Z</time>
      </trkpt>
      <trkpt lat="46.00441" lon="4.7596">
        <ele>219</ele>
        <time>2016-09-10T09:28:34Z</time>
      </trkpt>
      <trkpt lat="46.00436" lon="4.75968">
        <ele>219</ele>
        <time>2016-09-10T09:28:37Z</time>
      </trkpt>
      <trkpt lat="46.00435" lon="4.7597">
        <ele>219</ele>
        <time>2016-09-10T09:28:38Z</time>
      </trkpt>
      <trkpt lat="46.0043" lon="4.75978">
        <ele>220</ele>
        <time>2016-09-10T09:28:42Z</time>
      </trkpt>
      <trkpt lat="46.00428" lon="4.7598">
        <ele>220</ele>
        <time>2016-09-10T09:28:43Z</time>
      </trkpt>
      <trkpt lat="46.00421" lon="4.75987">
        <ele>220</ele>
        <time>2016-09-10T09:28:47Z</time>
      </trkpt>
      <trkpt lat="46.00419" lon="4.75988">
        <ele>220</ele>
        <time>2016-09-10T09:28:48Z</time>
      </trkpt>
      <trkpt lat="46.00413" lon="4.75995">
        <ele>221</ele>
        <time>2016-09-10T09:28:52Z</time>
      </trkpt>
      <trkpt lat="46.00411" lon="4.75996">
        <ele>221</ele>
        <time>2016-09-10T09:28:53Z</time>
      </trkpt>
      <trkpt lat="46.00405" lon="4.76003">
        <ele>223</ele>
        <time>2016-09-10T09:28:57Z</time>
      </trkpt>
      <trkpt lat="46.00403" lon="4.76005">
        <ele>223</ele>
        <time>2016-09-10T09:28:58Z</time>
      </trkpt>
      <trkpt lat="46.00397" lon="4.76009">
        <ele>224</ele>
        <time>2016-09-10T09:29:01Z</time>
      </trkpt>
      <trkpt lat="46.00395" lon="4.7601">
        <ele>224</ele>
        <time>2016-09-10T09:29:02Z</time>
      </trkpt>
      <trkpt lat="46.00386" lon="4.76015">
        <ele>224</ele>
        <time>2016-09-10T09:29:06Z</time>
      </trkpt>
      <trkpt lat="46.00385" lon="4.76016">
        <ele>224</ele>
        <time>2016-09-10T09:29:07Z</time>
      </trkpt>
      <trkpt lat="46.00379" lon="4.76022">
        <ele>225</ele>
        <time>2016-09-10T09:29:10Z</time>
      </trkpt>
      <trkpt lat="46.00377" lon="4.76024">
        <ele>225</ele>
        <time>2016-09-10T09:29:11Z</time>
      </trkpt>
      <trkpt lat="46.00372" lon="4.76032">
        <ele>225</ele>
        <time>2016-09-10T09:29:13Z</time>
      </trkpt>
      <trkpt lat="46.00371" lon="4.76035">
        <ele>225</ele>
        <time>2016-09-10T09:29:14Z</time>
      </trkpt>
      <trkpt lat="46.0037" lon="4.76048">
        <ele>225</ele>
        <time>2016-09-10T09:29:18Z</time>
      </trkpt>
      <trkpt lat="46.00371" lon="4.7605">
        <ele>226</ele>
        <time>2016-09-10T09:29:19Z</time>
      </trkpt>
      <trkpt lat="46.00374" lon="4.76061">
        <ele>226</ele>
        <time>2016-09-10T09:29:23Z</time>
      </trkpt>
      <trkpt lat="46.00375" lon="4.76062">
        <ele>226</ele>
        <time>2016-09-10T09:29:24Z</time>
      </trkpt>
      <trkpt lat="46.00384" lon="4.76065">
        <ele>226</ele>
        <time>2016-09-10T09:29:29Z</time>
      </trkpt>
      <trkpt lat="46.00386" lon="4.76066">
        <ele>226</ele>
        <time>2016-09-10T09:29:30Z</time>
      </trkpt>
      <trkpt lat="46.00391" lon="4.76069">
        <ele>226</ele>
        <time>2016-09-10T09:29:32Z</time>
      </trkpt>
      <trkpt lat="46.00395" lon="4.7607">
        <ele>226</ele>
        <time>2016-09-10T09:29:33Z</time>
      </trkpt>
      <trkpt lat="46.004" lon="4.76073">
        <ele>226</ele>
        <time>2016-09-10T09:29:35Z</time>
      </trkpt>
      <trkpt lat="46.00404" lon="4.76075">
        <ele>226</ele>
        <time>2016-09-10T09:29:36Z</time>
      </trkpt>
      <trkpt lat="46.0041" lon="4.76078">
        <ele>226</ele>
        <time>2016-09-10T09:29:38Z</time>
      </trkpt>
      <trkpt lat="46.00413" lon="4.7608">
        <ele>226</ele>
        <time>2016-09-10T09:29:39Z</time>
      </trkpt>
      <trkpt lat="46.00421" lon="4.76083">
        <ele>226</ele>
        <time>2016-09-10T09:29:42Z</time>
      </trkpt>
      <trkpt lat="46.00423" lon="4.76084">
        <ele>226</ele>
        <time>2016-09-10T09:29:43Z</time>
      </trkpt>
      <trkpt lat="46.00431" lon="4.76087">
        <ele>227</ele>
        <time>2016-09-10T09:29:46Z</time>
      </trkpt>
      <trkpt lat="46.00434" lon="4.76088">
        <ele>227</ele>
        <time>2016-09-10T09:29:47Z</time>
      </trkpt>
      <trkpt lat="46.00441" lon="4.76093">
        <ele>227</ele>
        <time>2016-09-10T09:29:50Z</time>
      </trkpt>
      <trkpt lat="46.00444" lon="4.76095">
        <ele>227</ele>
        <time>2016-09-10T09:29:51Z</time>
      </trkpt>
      <trkpt lat="46.00451" lon="4.76099">
        <ele>227</ele>
        <time>2016-09-10T09:29:54Z</time>
      </trkpt>
      <trkpt lat="46.00454" lon="4.761">
        <ele>227</ele>
        <time>2016-09-10T09:29:55Z</time>
      </trkpt>
      <trkpt lat="46.0046" lon="4.76103">
        <ele>227</ele>
        <time>2016-09-10T09:29:57Z</time>
      </trkpt>
      <trkpt lat="46.00463" lon="4.76105">
        <ele>227</ele>
        <time>2016-09-10T09:29:58Z</time>
      </trkpt>
      <trkpt lat="46.0047" lon="4.76111">
        <ele>227</ele>
        <time>2016-09-10T09:30:01Z</time>
      </trkpt>
      <trkpt lat="46.00471" lon="4.76113">
        <ele>227</ele>
        <time>2016-09-10T09:30:02Z</time>
      </trkpt>
      <trkpt lat="46.00476" lon="4.7612">
        <ele>227</ele>
        <time>2016-09-10T09:30:05Z</time>
      </trkpt>
      <trkpt lat="46.00478" lon="4.76123">
        <ele>227</ele>
        <time>2016-09-10T09:30:06Z</time>
      </trkpt>
      <trkpt lat="46.00484" lon="4.7613">
        <ele>228</ele>
        <time>2016-09-10T09:30:09Z</time>
      </trkpt>
      <trkpt lat="46.00487" lon="4.76133">
        <ele>228</ele>
        <time>2016-09-10T09:30:10Z</time>
      </trkpt>
      <trkpt lat="46.00494" lon="4.76141">
        <ele>228</ele>
        <time>2016-09-10T09:30:13Z</time>
      </trkpt>
      <trkpt lat="46.00496" lon="4.76143">
        <ele>228</ele>
        <time>2016-09-10T09:30:14Z</time>
      </trkpt>
      <trkpt lat="46.00503" lon="4.76151">
        <ele>228</ele>
        <time>2016-09-10T09:30:18Z</time>
      </trkpt>
      <trkpt lat="46.00504" lon="4.76153">
        <ele>228</ele>
        <time>2016-09-10T09:30:19Z</time>
      </trkpt>
      <trkpt lat="46.0051" lon="4.76158">
        <ele>228</ele>
        <time>2016-09-10T09:30:21Z</time>
      </trkpt>
      <trkpt lat="46.00511" lon="4.76161">
        <ele>228</ele>
        <time>2016-09-10T09:30:22Z</time>
      </trkpt>
      <trkpt lat="46.00515" lon="4.76167">
        <ele>230</ele>
        <time>2016-09-10T09:30:24Z</time>
      </trkpt>
      <trkpt lat="46.00518" lon="4.7617">
        <ele>230</ele>
        <time>2016-09-10T09:30:25Z</time>
      </trkpt>
      <trkpt lat="46.00524" lon="4.76173">
        <ele>230</ele>
        <time>2016-09-10T09:30:27Z</time>
      </trkpt>
      <trkpt lat="46.00527" lon="4.76175">
        <ele>230</ele>
        <time>2016-09-10T09:30:28Z</time>
      </trkpt>
      <trkpt lat="46.00534" lon="4.76179">
        <ele>230</ele>
        <time>2016-09-10T09:30:31Z</time>
      </trkpt>
      <trkpt lat="46.00537" lon="4.7618">
        <ele>230</ele>
        <time>2016-09-10T09:30:32Z</time>
      </trkpt>
      <trkpt lat="46.00545" lon="4.76185">
        <ele>230</ele>
        <time>2016-09-10T09:30:35Z</time>
      </trkpt>
      <trkpt lat="46.00547" lon="4.76187">
        <ele>230</ele>
        <time>2016-09-10T09:30:36Z</time>
      </trkpt>
      <trkpt lat="46.00555" lon="4.76188">
        <ele>231</ele>
        <time>2016-09-10T09:30:39Z</time>
      </trkpt>
      <trkpt lat="46.00558" lon="4.76189">
        <ele>231</ele>
        <time>2016-09-10T09:30:40Z</time>
      </trkpt>
      <trkpt lat="46.00564" lon="4.7619">
        <ele>231</ele>
        <time>2016-09-10T09:30:42Z</time>
      </trkpt>
      <trkpt lat="46.00568" lon="4.76191">
        <ele>231</ele>
        <time>2016-09-10T09:30:43Z</time>
      </trkpt>
      <trkpt lat="46.00576" lon="4.76193">
        <ele>231</ele>
        <time>2016-09-10T09:30:46Z</time>
      </trkpt>
      <trkpt lat="46.00578" lon="4.76194">
        <ele>231</ele>
        <time>2016-09-10T09:30:47Z</time>
      </trkpt>
      <trkpt lat="46.00587" lon="4.76195">
        <ele>230</ele>
        <time>2016-09-10T09:30:50Z</time>
      </trkpt>
      <trkpt lat="46.0059" lon="4.76196">
        <ele>230</ele>
        <time>2016-09-10T09:30:51Z</time>
      </trkpt>
      <trkpt lat="46.00598" lon="4.76199">
        <ele>230</ele>
        <time>2016-09-10T09:30:54Z</time>
      </trkpt>
      <trkpt lat="46.00601" lon="4.76201">
        <ele>230</ele>
        <time>2016-09-10T09:30:55Z</time>
      </trkpt>
      <trkpt lat="46.00609" lon="4.76204">
        <ele>230</ele>
        <time>2016-09-10T09:30:58Z</time>
      </trkpt>
      <trkpt lat="46.00612" lon="4.76205">
        <ele>230</ele>
        <time>2016-09-10T09:30:59Z</time>
      </trkpt>
      <trkpt lat="46.0062" lon="4.76208">
        <ele>230</ele>
        <time>2016-09-10T09:31:03Z</time>
      </trkpt>
      <trkpt lat="46.00622" lon="4.76209">
        <ele>230</ele>
        <time>2016-09-10T09:31:04Z</time>
      </trkpt>
      <trkpt lat="46.00628" lon="4.76205">
        <ele>230</ele>
        <time>2016-09-10T09:31:06Z</time>
      </trkpt>
      <trkpt lat="46.00629" lon="4.762">
        <ele>230</ele>
        <time>2016-09-10T09:31:07Z</time>
      </trkpt>
      <trkpt lat="46.0063" lon="4.7619">
        <ele>230</ele>
        <time>2016-09-10T09:31:09Z</time>
      </trkpt>
      <trkpt lat="46.00629" lon="4.76185">
        <ele>230</ele>
        <time>2016-09-10T09:31:10Z</time>
      </trkpt>
      <trkpt lat="46.00631" lon="4.76173">
        <ele>230</ele>
        <time>2016-09-10T09:31:12Z</time>
      </trkpt>
      <trkpt lat="46.00634" lon="4.76167">
        <ele>230</ele>
        <time>2016-09-10T09:31:13Z</time>
      </trkpt>
      <trkpt lat="46.00637" lon="4.76162">
        <ele>228</ele>
        <time>2016-09-10T09:31:14Z</time>
      </trkpt>
      <trkpt lat="46.00641" lon="4.76156">
        <ele>228</ele>
        <time>2016-09-10T09:31:15Z</time>
      </trkpt>
      <trkpt lat="46.00646" lon="4.7615">
        <ele>228</ele>
        <time>2016-09-10T09:31:16Z</time>
      </trkpt>
      <trkpt lat="46.00652" lon="4.76144">
        <ele>228</ele>
        <time>2016-09-10T09:31:17Z</time>
      </trkpt>
      <trkpt lat="46.00658" lon="4.76137">
        <ele>228</ele>
        <time>2016-09-10T09:31:18Z</time>
      </trkpt>
      <trkpt lat="46.00666" lon="4.76131">
        <ele>228</ele>
        <time>2016-09-10T09:31:19Z</time>
      </trkpt>
      <trkpt lat="46.00674" lon="4.76125">
        <ele>226</ele>
        <time>2016-09-10T09:31:20Z</time>
      </trkpt>
      <trkpt lat="46.00683" lon="4.76121">
        <ele>225</ele>
        <time>2016-09-10T09:31:21Z</time>
      </trkpt>
      <trkpt lat="46.00692" lon="4.76119">
        <ele>225</ele>
        <time>2016-09-10T09:31:22Z</time>
      </trkpt>
      <trkpt lat="46.00702" lon="4.76118">
        <ele>225</ele>
        <time>2016-09-10T09:31:23Z</time>
      </trkpt>
      <trkpt lat="46.00712" lon="4.76118">
        <ele>224</ele>
        <time>2016-09-10T09:31:24Z</time>
      </trkpt>
      <trkpt lat="46.00722" lon="4.76118">
        <ele>224</ele>
        <time>2016-09-10T09:31:25Z</time>
      </trkpt>
      <trkpt lat="46.00732" lon="4.76116">
        <ele>223</ele>
        <time>2016-09-10T09:31:26Z</time>
      </trkpt>
      <trkpt lat="46.00742" lon="4.76115">
        <ele>223</ele>
        <time>2016-09-10T09:31:27Z</time>
      </trkpt>
      <trkpt lat="46.00752" lon="4.76114">
        <ele>219</ele>
        <time>2016-09-10T09:31:28Z</time>
      </trkpt>
      <trkpt lat="46.00763" lon="4.76113">
        <ele>219</ele>
        <time>2016-09-10T09:31:29Z</time>
      </trkpt>
      <trkpt lat="46.00773" lon="4.76112">
        <ele>219</ele>
        <time>2016-09-10T09:31:30Z</time>
      </trkpt>
      <trkpt lat="46.00784" lon="4.7611">
        <ele>219</ele>
        <time>2016-09-10T09:31:31Z</time>
      </trkpt>
      <trkpt lat="46.00794" lon="4.76109">
        <ele>219</ele>
        <time>2016-09-10T09:31:32Z</time>
      </trkpt>
      <trkpt lat="46.00805" lon="4.76108">
        <ele>218</ele>
        <time>2016-09-10T09:31:33Z</time>
      </trkpt>
      <trkpt lat="46.00815" lon="4.76108">
        <ele>218</ele>
        <time>2016-09-10T09:31:34Z</time>
      </trkpt>
      <trkpt lat="46.00825" lon="4.76106">
        <ele>218</ele>
        <time>2016-09-10T09:31:35Z</time>
      </trkpt>
      <trkpt lat="46.00835" lon="4.76105">
        <ele>216</ele>
        <time>2016-09-10T09:31:36Z</time>
      </trkpt>
      <trkpt lat="46.00844" lon="4.76103">
        <ele>216</ele>
        <time>2016-09-10T09:31:37Z</time>
      </trkpt>
      <trkpt lat="46.00854" lon="4.76101">
        <ele>215</ele>
        <time>2016-09-10T09:31:38Z</time>
      </trkpt>
      <trkpt lat="46.00864" lon="4.76099">
        <ele>215</ele>
        <time>2016-09-10T09:31:39Z</time>
      </trkpt>
      <trkpt lat="46.00873" lon="4.76096">
        <ele>215</ele>
        <time>2016-09-10T09:31:40Z</time>
      </trkpt>
      <trkpt lat="46.00882" lon="4.76094">
        <ele>215</ele>
        <time>2016-09-10T09:31:41Z</time>
      </trkpt>
      <trkpt lat="46.00892" lon="4.76092">
        <ele>215</ele>
        <time>2016-09-10T09:31:42Z</time>
      </trkpt>
      <trkpt lat="46.00901" lon="4.7609">
        <ele>214</ele>
        <time>2016-09-10T09:31:43Z</time>
      </trkpt>
      <trkpt lat="46.0091" lon="4.76087">
        <ele>214</ele>
        <time>2016-09-10T09:31:44Z</time>
      </trkpt>
      <trkpt lat="46.00918" lon="4.76085">
        <ele>213</ele>
        <time>2016-09-10T09:31:45Z</time>
      </trkpt>
      <trkpt lat="46.00927" lon="4.76083">
        <ele>213</ele>
        <time>2016-09-10T09:31:46Z</time>
      </trkpt>
      <trkpt lat="46.00936" lon="4.76082">
        <ele>212</ele>
        <time>2016-09-10T09:31:47Z</time>
      </trkpt>
      <trkpt lat="46.00944" lon="4.7608">
        <ele>212</ele>
        <time>2016-09-10T09:31:48Z</time>
      </trkpt>
      <trkpt lat="46.00952" lon="4.76078">
        <ele>212</ele>
        <time>2016-09-10T09:31:49Z</time>
      </trkpt>
      <trkpt lat="46.0096" lon="4.76076">
        <ele>212</ele>
        <time>2016-09-10T09:31:50Z</time>
      </trkpt>
      <trkpt lat="46.00968" lon="4.76074">
        <ele>212</ele>
        <time>2016-09-10T09:31:51Z</time>
      </trkpt>
      <trkpt lat="46.00976" lon="4.76072">
        <ele>212</ele>
        <time>2016-09-10T09:31:52Z</time>
      </trkpt>
      <trkpt lat="46.00984" lon="4.76071">
        <ele>212</ele>
        <time>2016-09-10T09:31:53Z</time>
      </trkpt>
      <trkpt lat="46.00992" lon="4.7607">
        <ele>212</ele>
        <time>2016-09-10T09:31:54Z</time>
      </trkpt>
      <trkpt lat="46.00999" lon="4.76069">
        <ele>212</ele>
        <time>2016-09-10T09:31:55Z</time>
      </trkpt>
      <trkpt lat="46.01007" lon="4.76068">
        <ele>211</ele>
        <time>2016-09-10T09:31:56Z</time>
      </trkpt>
      <trkpt lat="46.01015" lon="4.76068">
        <ele>211</ele>
        <time>2016-09-10T09:31:57Z</time>
      </trkpt>
      <trkpt lat="46.01022" lon="4.76067">
        <ele>210</ele>
        <time>2016-09-10T09:31:58Z</time>
      </trkpt>
      <trkpt lat="46.0103" lon="4.76066">
        <ele>210</ele>
        <time>2016-09-10T09:31:59Z</time>
      </trkpt>
      <trkpt lat="46.01038" lon="4.76066">
        <ele>210</ele>
        <time>2016-09-10T09:32:00Z</time>
      </trkpt>
      <trkpt lat="46.01046" lon="4.76066">
        <ele>210</ele>
        <time>2016-09-10T09:32:01Z</time>
      </trkpt>
      <trkpt lat="46.01053" lon="4.76065">
        <ele>210</ele>
        <time>2016-09-10T09:32:02Z</time>
      </trkpt>
      <trkpt lat="46.01061" lon="4.76065">
        <ele>209</ele>
        <time>2016-09-10T09:32:03Z</time>
      </trkpt>
      <trkpt lat="46.01068" lon="4.76064">
        <ele>209</ele>
        <time>2016-09-10T09:32:04Z</time>
      </trkpt>
      <trkpt lat="46.01076" lon="4.76063">
        <ele>209</ele>
        <time>2016-09-10T09:32:05Z</time>
      </trkpt>
      <trkpt lat="46.01084" lon="4.76061">
        <ele>208</ele>
        <time>2016-09-10T09:32:06Z</time>
      </trkpt>
      <trkpt lat="46.01091" lon="4.7606">
        <ele>208</ele>
        <time>2016-09-10T09:32:07Z</time>
      </trkpt>
      <trkpt lat="46.01098" lon="4.76058">
        <ele>208</ele>
        <time>2016-09-10T09:32:08Z</time>
      </trkpt>
      <trkpt lat="46.01106" lon="4.76057">
        <ele>208</ele>
        <time>2016-09-10T09:32:09Z</time>
      </trkpt>
      <trkpt lat="46.01113" lon="4.76056">
        <ele>208</ele>
        <time>2016-09-10T09:32:10Z</time>
      </trkpt>
      <trkpt lat="46.01121" lon="4.76055">
        <ele>208</ele>
        <time>2016-09-10T09:32:11Z</time>
      </trkpt>
      <trkpt lat="46.01129" lon="4.76054">
        <ele>208</ele>
        <time>2016-09-10T09:32:12Z</time>
      </trkpt>
      <trkpt lat="46.01137" lon="4.76053">
        <ele>208</ele>
        <time>2016-09-10T09:32:13Z</time>
      </trkpt>
      <trkpt lat="46.01144" lon="4.76052">
        <ele>208</ele>
        <time>2016-09-10T09:32:14Z</time>
      </trkpt>
      <trkpt lat="46.01152" lon="4.76052">
        <ele>208</ele>
        <time>2016-09-10T09:32:15Z</time>
      </trkpt>
      <trkpt lat="46.01159" lon="4.76053">
        <ele>208</ele>
        <time>2016-09-10T09:32:16Z</time>
      </trkpt>
      <trkpt lat="46.01166" lon="4.76054">
        <ele>208</ele>
        <time>2016-09-10T09:32:17Z</time>
      </trkpt>
      <trkpt lat="46.01174" lon="4.76056">
        <ele>207</ele>
        <time>2016-09-10T09:32:18Z</time>
      </trkpt>
      <trkpt lat="46.01181" lon="4.76057">
        <ele>207</ele>
        <time>2016-09-10T09:32:19Z</time>
      </trkpt>
      <trkpt lat="46.01188" lon="4.7606">
        <ele>206</ele>
        <time>2016-09-10T09:32:20Z</time>
      </trkpt>
      <trkpt lat="46.01195" lon="4.76063">
        <ele>206</ele>
        <time>2016-09-10T09:32:21Z</time>
      </trkpt>
      <trkpt lat="46.01202" lon="4.76065">
        <ele>206</ele>
        <time>2016-09-10T09:32:22Z</time>
      </trkpt>
      <trkpt lat="46.01209" lon="4.76067">
        <ele>206</ele>
        <time>2016-09-10T09:32:23Z</time>
      </trkpt>
      <trkpt lat="46.01217" lon="4.76069">
        <ele>206</ele>
        <time>2016-09-10T09:32:24Z</time>
      </trkpt>
      <trkpt lat="46.01224" lon="4.7607">
        <ele>206</ele>
        <time>2016-09-10T09:32:25Z</time>
      </trkpt>
      <trkpt lat="46.01231" lon="4.7607">
        <ele>205</ele>
        <time>2016-09-10T09:32:26Z</time>
      </trkpt>
      <trkpt lat="46.01238" lon="4.76071">
        <ele>205</ele>
        <time>2016-09-10T09:32:27Z</time>
      </trkpt>
      <trkpt lat="46.01245" lon="4.76071">
        <ele>205</ele>
        <time>2016-09-10T09:32:28Z</time>
      </trkpt>
      <trkpt lat="46.01252" lon="4.76072">
        <ele>204</ele>
        <time>2016-09-10T09:32:29Z</time>
      </trkpt>
      <trkpt lat="46.01259" lon="4.76071">
        <ele>204</ele>
        <time>2016-09-10T09:32:30Z</time>
      </trkpt>
      <trkpt lat="46.01265" lon="4.76071">
        <ele>204</ele>
        <time>2016-09-10T09:32:31Z</time>
      </trkpt>
      <trkpt lat="46.01271" lon="4.7607">
        <ele>204</ele>
        <time>2016-09-10T09:32:32Z</time>
      </trkpt>
      <trkpt lat="46.01277" lon="4.76068">
        <ele>204</ele>
        <time>2016-09-10T09:32:33Z</time>
      </trkpt>
      <trkpt lat="46.01283" lon="4.76066">
        <ele>204</ele>
        <time>2016-09-10T09:32:34Z</time>
      </trkpt>
      <trkpt lat="46.01289" lon="4.76064">
        <ele>204</ele>
        <time>2016-09-10T09:32:35Z</time>
      </trkpt>
      <trkpt lat="46.01295" lon="4.76062">
        <ele>204</ele>
        <time>2016-09-10T09:32:36Z</time>
      </trkpt>
      <trkpt lat="46.01301" lon="4.7606">
        <ele>203</ele>
        <time>2016-09-10T09:32:37Z</time>
      </trkpt>
      <trkpt lat="46.01308" lon="4.76058">
        <ele>203</ele>
        <time>2016-09-10T09:32:38Z</time>
      </trkpt>
      <trkpt lat="46.01314" lon="4.76057">
        <ele>203</ele>
        <time>2016-09-10T09:32:39Z</time>
      </trkpt>
      <trkpt lat="46.0132" lon="4.76056">
        <ele>203</ele>
        <time>2016-09-10T09:32:40Z</time>
      </trkpt>
      <trkpt lat="46.01327" lon="4.76054">
        <ele>203</ele>
        <time>2016-09-10T09:32:41Z</time>
      </trkpt>
      <trkpt lat="46.01333" lon="4.76053">
        <ele>203</ele>
        <time>2016-09-10T09:32:42Z</time>
      </trkpt>
      <trkpt lat="46.01339" lon="4.76051">
        <ele>203</ele>
        <time>2016-09-10T09:32:43Z</time>
      </trkpt>
      <trkpt lat="46.01346" lon="4.76049">
        <ele>203</ele>
        <time>2016-09-10T09:32:44Z</time>
      </trkpt>
      <trkpt lat="46.01352" lon="4.76047">
        <ele>203</ele>
        <time>2016-09-10T09:32:45Z</time>
      </trkpt>
      <trkpt lat="46.01358" lon="4.76045">
        <ele>203</ele>
        <time>2016-09-10T09:32:46Z</time>
      </trkpt>
      <trkpt lat="46.01364" lon="4.76043">
        <ele>203</ele>
        <time>2016-09-10T09:32:47Z</time>
      </trkpt>
      <trkpt lat="46.0137" lon="4.76041">
        <ele>203</ele>
        <time>2016-09-10T09:32:48Z</time>
      </trkpt>
      <trkpt lat="46.01376" lon="4.76039">
        <ele>203</ele>
        <time>2016-09-10T09:32:49Z</time>
      </trkpt>
      <trkpt lat="46.01381" lon="4.76038">
        <ele>203</ele>
        <time>2016-09-10T09:32:50Z</time>
      </trkpt>
      <trkpt lat="46.01387" lon="4.76037">
        <ele>203</ele>
        <time>2016-09-10T09:32:51Z</time>
      </trkpt>
      <trkpt lat="46.01393" lon="4.76037">
        <ele>203</ele>
        <time>2016-09-10T09:32:52Z</time>
      </trkpt>
      <trkpt lat="46.01399" lon="4.76037">
        <ele>204</ele>
        <time>2016-09-10T09:32:53Z</time>
      </trkpt>
      <trkpt lat="46.01405" lon="4.76041">
        <ele>203</ele>
        <time>2016-09-10T09:32:54Z</time>
      </trkpt>
      <trkpt lat="46.01411" lon="4.76044">
        <ele>203</ele>
        <time>2016-09-10T09:32:55Z</time>
      </trkpt>
      <trkpt lat="46.01416" lon="4.76048">
        <ele>203</ele>
        <time>2016-09-10T09:32:56Z</time>
      </trkpt>
      <trkpt lat="46.01422" lon="4.76052">
        <ele>204</ele>
        <time>2016-09-10T09:32:57Z</time>
      </trkpt>
      <trkpt lat="46.01427" lon="4.76057">
        <ele>203</ele>
        <time>2016-09-10T09:32:58Z</time>
      </trkpt>
      <trkpt lat="46.01432" lon="4.7606">
        <ele>203</ele>
        <time>2016-09-10T09:32:59Z</time>
      </trkpt>
      <trkpt lat="46.01438" lon="4.76064">
        <ele>203</ele>
        <time>2016-09-10T09:33:00Z</time>
      </trkpt>
      <trkpt lat="46.01443" lon="4.76066">
        <ele>203</ele>
        <time>2016-09-10T09:33:01Z</time>
      </trkpt>
      <trkpt lat="46.01448" lon="4.76068">
        <ele>203</ele>
        <time>2016-09-10T09:33:02Z</time>
      </trkpt>
      <trkpt lat="46.01454" lon="4.7607">
        <ele>203</ele>
        <time>2016-09-10T09:33:03Z</time>
      </trkpt>
      <trkpt lat="46.01459" lon="4.76072">
        <ele>203</ele>
        <time>2016-09-10T09:33:04Z</time>
      </trkpt>
      <trkpt lat="46.01464" lon="4.76074">
        <ele>203</ele>
        <time>2016-09-10T09:33:05Z</time>
      </trkpt>
      <trkpt lat="46.01469" lon="4.76075">
        <ele>203</ele>
        <time>2016-09-10T09:33:06Z</time>
      </trkpt>
      <trkpt lat="46.01474" lon="4.76077">
        <ele>203</ele>
        <time>2016-09-10T09:33:07Z</time>
      </trkpt>
      <trkpt lat="46.01479" lon="4.76078">
        <ele>203</ele>
        <time>2016-09-10T09:33:08Z</time>
      </trkpt>
      <trkpt lat="46.01485" lon="4.7608">
        <ele>203</ele>
        <time>2016-09-10T09:33:09Z</time>
      </trkpt>
      <trkpt lat="46.01491" lon="4.76081">
        <ele>203</ele>
        <time>2016-09-10T09:33:10Z</time>
      </trkpt>
      <trkpt lat="46.01496" lon="4.76083">
        <ele>203</ele>
        <time>2016-09-10T09:33:11Z</time>
      </trkpt>
      <trkpt lat="46.01502" lon="4.76085">
        <ele>203</ele>
        <time>2016-09-10T09:33:12Z</time>
      </trkpt>
      <trkpt lat="46.01508" lon="4.76086">
        <ele>203</ele>
        <time>2016-09-10T09:33:13Z</time>
      </trkpt>
      <trkpt lat="46.01515" lon="4.76087">
        <ele>203</ele>
        <time>2016-09-10T09:33:14Z</time>
      </trkpt>
      <trkpt lat="46.01521" lon="4.76088">
        <ele>203</ele>
        <time>2016-09-10T09:33:15Z</time>
      </trkpt>
      <trkpt lat="46.01526" lon="4.7609">
        <ele>202</ele>
        <time>2016-09-10T09:33:16Z</time>
      </trkpt>
      <trkpt lat="46.01532" lon="4.76091">
        <ele>202</ele>
        <time>2016-09-10T09:33:17Z</time>
      </trkpt>
      <trkpt lat="46.01537" lon="4.76093">
        <ele>202</ele>
        <time>2016-09-10T09:33:18Z</time>
      </trkpt>
      <trkpt lat="46.01543" lon="4.76096">
        <ele>202</ele>
        <time>2016-09-10T09:33:19Z</time>
      </trkpt>
      <trkpt lat="46.01548" lon="4.76098">
        <ele>202</ele>
        <time>2016-09-10T09:33:20Z</time>
      </trkpt>
      <trkpt lat="46.01554" lon="4.761">
        <ele>202</ele>
        <time>2016-09-10T09:33:21Z</time>
      </trkpt>
      <trkpt lat="46.01559" lon="4.76102">
        <ele>202</ele>
        <time>2016-09-10T09:33:22Z</time>
      </trkpt>
      <trkpt lat="46.01565" lon="4.76105">
        <ele>202</ele>
        <time>2016-09-10T09:33:23Z</time>
      </trkpt>
      <trkpt lat="46.01571" lon="4.76107">
        <ele>202</ele>
        <time>2016-09-10T09:33:24Z</time>
      </trkpt>
      <trkpt lat="46.01578" lon="4.76109">
        <ele>202</ele>
        <time>2016-09-10T09:33:25Z</time>
      </trkpt>
      <trkpt lat="46.01584" lon="4.7611">
        <ele>200</ele>
        <time>2016-09-10T09:33:26Z</time>
      </trkpt>
      <trkpt lat="46.0159" lon="4.76111">
        <ele>200</ele>
        <time>2016-09-10T09:33:27Z</time>
      </trkpt>
      <trkpt lat="46.01596" lon="4.76112">
        <ele>200</ele>
        <time>2016-09-10T09:33:28Z</time>
      </trkpt>
      <trkpt lat="46.01602" lon="4.76112">
        <ele>200</ele>
        <time>2016-09-10T09:33:29Z</time>
      </trkpt>
      <trkpt lat="46.01608" lon="4.76115">
        <ele>200</ele>
        <time>2016-09-10T09:33:30Z</time>
      </trkpt>
      <trkpt lat="46.01613" lon="4.76118">
        <ele>200</ele>
        <time>2016-09-10T09:33:31Z</time>
      </trkpt>
      <trkpt lat="46.01619" lon="4.7612">
        <ele>200</ele>
        <time>2016-09-10T09:33:32Z</time>
      </trkpt>
      <trkpt lat="46.01625" lon="4.76121">
        <ele>200</ele>
        <time>2016-09-10T09:33:33Z</time>
      </trkpt>
      <trkpt lat="46.01631" lon="4.76122">
        <ele>199</ele>
        <time>2016-09-10T09:33:34Z</time>
      </trkpt>
      <trkpt lat="46.01637" lon="4.76122">
        <ele>199</ele>
        <time>2016-09-10T09:33:35Z</time>
      </trkpt>
      <trkpt lat="46.01643" lon="4.76123">
        <ele>199</ele>
        <time>2016-09-10T09:33:36Z</time>
      </trkpt>
      <trkpt lat="46.01649" lon="4.76124">
        <ele>199</ele>
        <time>2016-09-10T09:33:37Z</time>
      </trkpt>
      <trkpt lat="46.01655" lon="4.76124">
        <ele>199</ele>
        <time>2016-09-10T09:33:38Z</time>
      </trkpt>
      <trkpt lat="46.01662" lon="4.76125">
        <ele>199</ele>
        <time>2016-09-10T09:33:39Z</time>
      </trkpt>
      <trkpt lat="46.01668" lon="4.76126">
        <ele>198</ele>
        <time>2016-09-10T09:33:40Z</time>
      </trkpt>
      <trkpt lat="46.01674" lon="4.76126">
        <ele>198</ele>
        <time>2016-09-10T09:33:41Z</time>
      </trkpt>
      <trkpt lat="46.0168" lon="4.76126">
        <ele>198</ele>
        <time>2016-09-10T09:33:42Z</time>
      </trkpt>
      <trkpt lat="46.01687" lon="4.76127">
        <ele>198</ele>
        <time>2016-09-10T09:33:43Z</time>
      </trkpt>
      <trkpt lat="46.01693" lon="4.76127">
        <ele>198</ele>
        <time>2016-09-10T09:33:44Z</time>
      </trkpt>
      <trkpt lat="46.017" lon="4.76128">
        <ele>198</ele>
        <time>2016-09-10T09:33:45Z</time>
      </trkpt>
      <trkpt lat="46.01706" lon="4.76129">
        <ele>197</ele>
        <time>2016-09-10T09:33:46Z</time>
      </trkpt>
      <trkpt lat="46.01713" lon="4.76129">
        <ele>197</ele>
        <time>2016-09-10T09:33:47Z</time>
      </trkpt>
      <trkpt lat="46.01719" lon="4.7613">
        <ele>197</ele>
        <time>2016-09-10T09:33:48Z</time>
      </trkpt>
      <trkpt lat="46.01725" lon="4.7613">
        <ele>197</ele>
        <time>2016-09-10T09:33:49Z</time>
      </trkpt>
      <trkpt lat="46.01732" lon="4.76129">
        <ele>197</ele>
        <time>2016-09-10T09:33:50Z</time>
      </trkpt>
      <trkpt lat="46.01739" lon="4.76129">
        <ele>197</ele>
        <time>2016-09-10T09:33:51Z</time>
      </trkpt>
      <trkpt lat="46.01746" lon="4.7613">
        <ele>197</ele>
        <time>2016-09-10T09:33:52Z</time>
      </trkpt>
      <trkpt lat="46.01753" lon="4.7613">
        <ele>198</ele>
        <time>2016-09-10T09:33:53Z</time>
      </trkpt>
      <trkpt lat="46.01759" lon="4.76131">
        <ele>198</ele>
        <time>2016-09-10T09:33:54Z</time>
      </trkpt>
      <trkpt lat="46.01766" lon="4.76132">
        <ele>198</ele>
        <time>2016-09-10T09:33:55Z</time>
      </trkpt>
      <trkpt lat="46.01773" lon="4.76133">
        <ele>198</ele>
        <time>2016-09-10T09:33:56Z</time>
      </trkpt>
      <trkpt lat="46.01779" lon="4.76133">
        <ele>198</ele>
        <time>2016-09-10T09:33:57Z</time>
      </trkpt>
      <trkpt lat="46.01786" lon="4.76135">
        <ele>198</ele>
        <time>2016-09-10T09:33:58Z</time>
      </trkpt>
      <trkpt lat="46.01793" lon="4.76136">
        <ele>198</ele>
        <time>2016-09-10T09:33:59Z</time>
      </trkpt>
      <trkpt lat="46.01799" lon="4.76137">
        <ele>198</ele>
        <time>2016-09-10T09:34:00Z</time>
      </trkpt>
      <trkpt lat="46.01806" lon="4.76138">
        <ele>198</ele>
        <time>2016-09-10T09:34:01Z</time>
      </trkpt>
      <trkpt lat="46.01812" lon="4.76138">
        <ele>198</ele>
        <time>2016-09-10T09:34:02Z</time>
      </trkpt>
      <trkpt lat="46.01818" lon="4.76139">
        <ele>198</ele>
        <time>2016-09-10T09:34:03Z</time>
      </trkpt>
      <trkpt lat="46.01824" lon="4.7614">
        <ele>198</ele>
        <time>2016-09-10T09:34:04Z</time>
      </trkpt>
      <trkpt lat="46.01829" lon="4.7614">
        <ele>198</ele>
        <time>2016-09-10T09:34:05Z</time>
      </trkpt>
      <trkpt lat="46.01835" lon="4.76139">
        <ele>199</ele>
        <time>2016-09-10T09:34:06Z</time>
      </trkpt>
      <trkpt lat="46.0184" lon="4.76139">
        <ele>199</ele>
        <time>2016-09-10T09:34:07Z</time>
      </trkpt>
      <trkpt lat="46.01845" lon="4.76139">
        <ele>199</ele>
        <time>2016-09-10T09:34:08Z</time>
      </trkpt>
      <trkpt lat="46.01851" lon="4.76139">
        <ele>199</ele>
        <time>2016-09-10T09:34:09Z</time>
      </trkpt>
      <trkpt lat="46.01856" lon="4.76138">
        <ele>199</ele>
        <time>2016-09-10T09:34:10Z</time>
      </trkpt>
      <trkpt lat="46.01861" lon="4.76137">
        <ele>199</ele>
        <time>2016-09-10T09:34:11Z</time>
      </trkpt>
      <trkpt lat="46.01866" lon="4.76137">
        <ele>199</ele>
        <time>2016-09-10T09:34:12Z</time>
      </trkpt>
      <trkpt lat="46.01871" lon="4.76136">
        <ele>199</ele>
        <time>2016-09-10T09:34:13Z</time>
      </trkpt>
      <trkpt lat="46.01876" lon="4.76136">
        <ele>199</ele>
        <time>2016-09-10T09:34:14Z</time>
      </trkpt>
      <trkpt lat="46.01882" lon="4.76136">
        <ele>199</ele>
        <time>2016-09-10T09:34:15Z</time>
      </trkpt>
      <trkpt lat="46.01887" lon="4.76136">
        <ele>199</ele>
        <time>2016-09-10T09:34:16Z</time>
      </trkpt>
      <trkpt lat="46.01893" lon="4.76136">
        <ele>199</ele>
        <time>2016-09-10T09:34:17Z</time>
      </trkpt>
      <trkpt lat="46.01898" lon="4.76137">
        <ele>199</ele>
        <time>2016-09-10T09:34:18Z</time>
      </trkpt>
      <trkpt lat="46.01904" lon="4.76137">
        <ele>199</ele>
        <time>2016-09-10T09:34:19Z</time>
      </trkpt>
      <trkpt lat="46.0191" lon="4.76136">
        <ele>199</ele>
        <time>2016-09-10T09:34:20Z</time>
      </trkpt>
      <trkpt lat="46.01916" lon="4.76136">
        <ele>199</ele>
        <time>2016-09-10T09:34:21Z</time>
      </trkpt>
      <trkpt lat="46.01922" lon="4.76136">
        <ele>199</ele>
        <time>2016-09-10T09:34:22Z</time>
      </trkpt>
      <trkpt lat="46.01927" lon="4.76134">
        <ele>199</ele>
        <time>2016-09-10T09:34:23Z</time>
      </trkpt>
      <trkpt lat="46.01932" lon="4.76132">
        <ele>199</ele>
        <time>2016-09-10T09:34:24Z</time>
      </trkpt>
      <trkpt lat="46.01937" lon="4.7613">
        <ele>199</ele>
        <time>2016-09-10T09:34:25Z</time>
      </trkpt>
      <trkpt lat="46.01942" lon="4.76129">
        <ele>199</ele>
        <time>2016-09-10T09:34:26Z</time>
      </trkpt>
      <trkpt lat="46.01947" lon="4.76127">
        <ele>199</ele>
        <time>2016-09-10T09:34:27Z</time>
      </trkpt>
      <trkpt lat="46.01952" lon="4.76125">
        <ele>198</ele>
        <time>2016-09-10T09:34:28Z</time>
      </trkpt>
      <trkpt lat="46.01957" lon="4.76123">
        <ele>198</ele>
        <time>2016-09-10T09:34:29Z</time>
      </trkpt>
      <trkpt lat="46.01962" lon="4.76121">
        <ele>198</ele>
        <time>2016-09-10T09:34:30Z</time>
      </trkpt>
      <trkpt lat="46.0197" lon="4.76114">
        <ele>198</ele>
        <time>2016-09-10T09:34:32Z</time>
      </trkpt>
      <trkpt lat="46.01974" lon="4.76112">
        <ele>198</ele>
        <time>2016-09-10T09:34:33Z</time>
      </trkpt>
      <trkpt lat="46.01979" lon="4.7611">
        <ele>198</ele>
        <time>2016-09-10T09:34:34Z</time>
      </trkpt>
      <trkpt lat="46.01983" lon="4.76107">
        <ele>198</ele>
        <time>2016-09-10T09:34:35Z</time>
      </trkpt>
      <trkpt lat="46.01991" lon="4.76105">
        <ele>198</ele>
        <time>2016-09-10T09:34:37Z</time>
      </trkpt>
      <trkpt lat="46.01995" lon="4.76105">
        <ele>198</ele>
        <time>2016-09-10T09:34:38Z</time>
      </trkpt>
      <trkpt lat="46.02" lon="4.76105">
        <ele>197</ele>
        <time>2016-09-10T09:34:39Z</time>
      </trkpt>
      <trkpt lat="46.02005" lon="4.76104">
        <ele>197</ele>
        <time>2016-09-10T09:34:40Z</time>
      </trkpt>
      <trkpt lat="46.0201" lon="4.76104">
        <ele>197</ele>
        <time>2016-09-10T09:34:41Z</time>
      </trkpt>
      <trkpt lat="46.02015" lon="4.76101">
        <ele>197</ele>
        <time>2016-09-10T09:34:42Z</time>
      </trkpt>
      <trkpt lat="46.0202" lon="4.761">
        <ele>197</ele>
        <time>2016-09-10T09:34:43Z</time>
      </trkpt>
      <trkpt lat="46.02025" lon="4.76099">
        <ele>197</ele>
        <time>2016-09-10T09:34:44Z</time>
      </trkpt>
      <trkpt lat="46.02031" lon="4.76098">
        <ele>197</ele>
        <time>2016-09-10T09:34:45Z</time>
      </trkpt>
      <trkpt lat="46.02038" lon="4.76095">
        <ele>197</ele>
        <time>2016-09-10T09:34:46Z</time>
      </trkpt>
      <trkpt lat="46.02044" lon="4.76093">
        <ele>197</ele>
        <time>2016-09-10T09:34:47Z</time>
      </trkpt>
      <trkpt lat="46.02051" lon="4.76091">
        <ele>197</ele>
        <time>2016-09-10T09:34:48Z</time>
      </trkpt>
      <trkpt lat="46.02058" lon="4.76089">
        <ele>197</ele>
        <time>2016-09-10T09:34:49Z</time>
      </trkpt>
      <trkpt lat="46.02064" lon="4.76088">
        <ele>197</ele>
        <time>2016-09-10T09:34:50Z</time>
      </trkpt>
      <trkpt lat="46.02071" lon="4.76086">
        <ele>196</ele>
        <time>2016-09-10T09:34:51Z</time>
      </trkpt>
      <trkpt lat="46.02077" lon="4.76086">
        <ele>196</ele>
        <time>2016-09-10T09:34:52Z</time>
      </trkpt>
      <trkpt lat="46.02082" lon="4.76084">
        <ele>196</ele>
        <time>2016-09-10T09:34:53Z</time>
      </trkpt>
      <trkpt lat="46.02088" lon="4.76081">
        <ele>196</ele>
        <time>2016-09-10T09:34:54Z</time>
      </trkpt>
      <trkpt lat="46.02094" lon="4.76078">
        <ele>195</ele>
        <time>2016-09-10T09:34:55Z</time>
      </trkpt>
      <trkpt lat="46.021" lon="4.76073">
        <ele>195</ele>
        <time>2016-09-10T09:34:56Z</time>
      </trkpt>
      <trkpt lat="46.02106" lon="4.76069">
        <ele>194</ele>
        <time>2016-09-10T09:34:57Z</time>
      </trkpt>
      <trkpt lat="46.02112" lon="4.76065">
        <ele>194</ele>
        <time>2016-09-10T09:34:58Z</time>
      </trkpt>
      <trkpt lat="46.02118" lon="4.7606">
        <ele>194</ele>
        <time>2016-09-10T09:34:59Z</time>
      </trkpt>
      <trkpt lat="46.02124" lon="4.76054">
        <ele>194</ele>
        <time>2016-09-10T09:35:00Z</time>
      </trkpt>
      <trkpt lat="46.0213" lon="4.76049">
        <ele>194</ele>
        <time>2016-09-10T09:35:01Z</time>
      </trkpt>
      <trkpt lat="46.02136" lon="4.76043">
        <ele>193</ele>
        <time>2016-09-10T09:35:02Z</time>
      </trkpt>
      <trkpt lat="46.02141" lon="4.76037">
        <ele>193</ele>
        <time>2016-09-10T09:35:03Z</time>
      </trkpt>
      <trkpt lat="46.02147" lon="4.76032">
        <ele>193</ele>
        <time>2016-09-10T09:35:04Z</time>
      </trkpt>
      <trkpt lat="46.02152" lon="4.76027">
        <ele>193</ele>
        <time>2016-09-10T09:35:05Z</time>
      </trkpt>
      <trkpt lat="46.02158" lon="4.76022">
        <ele>193</ele>
        <time>2016-09-10T09:35:06Z</time>
      </trkpt>
      <trkpt lat="46.02163" lon="4.76017">
        <ele>193</ele>
        <time>2016-09-10T09:35:07Z</time>
      </trkpt>
      <trkpt lat="46.02169" lon="4.76012">
        <ele>193</ele>
        <time>2016-09-10T09:35:08Z</time>
      </trkpt>
      <trkpt lat="46.02174" lon="4.76008">
        <ele>193</ele>
        <time>2016-09-10T09:35:09Z</time>
      </trkpt>
      <trkpt lat="46.0218" lon="4.76003">
        <ele>193</ele>
        <time>2016-09-10T09:35:10Z</time>
      </trkpt>
      <trkpt lat="46.02186" lon="4.75997">
        <ele>192</ele>
        <time>2016-09-10T09:35:11Z</time>
      </trkpt>
      <trkpt lat="46.02191" lon="4.75992">
        <ele>192</ele>
        <time>2016-09-10T09:35:12Z</time>
      </trkpt>
      <trkpt lat="46.02197" lon="4.75986">
        <ele>192</ele>
        <time>2016-09-10T09:35:13Z</time>
      </trkpt>
      <trkpt lat="46.02203" lon="4.75981">
        <ele>192</ele>
        <time>2016-09-10T09:35:14Z</time>
      </trkpt>
      <trkpt lat="46.02208" lon="4.75976">
        <ele>192</ele>
        <time>2016-09-10T09:35:15Z</time>
      </trkpt>
      <trkpt lat="46.02214" lon="4.7597">
        <ele>193</ele>
        <time>2016-09-10T09:35:16Z</time>
      </trkpt>
      <trkpt lat="46.0222" lon="4.75965">
        <ele>193</ele>
        <time>2016-09-10T09:35:17Z</time>
      </trkpt>
      <trkpt lat="46.02226" lon="4.7596">
        <ele>193</ele>
        <time>2016-09-10T09:35:18Z</time>
      </trkpt>
      <trkpt lat="46.02232" lon="4.75956">
        <ele>193</ele>
        <time>2016-09-10T09:35:19Z</time>
      </trkpt>
      <trkpt lat="46.02238" lon="4.75951">
        <ele>193</ele>
        <time>2016-09-10T09:35:20Z</time>
      </trkpt>
      <trkpt lat="46.02244" lon="4.75947">
        <ele>193</ele>
        <time>2016-09-10T09:35:21Z</time>
      </trkpt>
      <trkpt lat="46.02249" lon="4.75942">
        <ele>193</ele>
        <time>2016-09-10T09:35:22Z</time>
      </trkpt>
      <trkpt lat="46.02255" lon="4.75938">
        <ele>194</ele>
        <time>2016-09-10T09:35:23Z</time>
      </trkpt>
      <trkpt lat="46.0226" lon="4.75933">
        <ele>193</ele>
        <time>2016-09-10T09:35:24Z</time>
      </trkpt>
      <trkpt lat="46.02266" lon="4.75929">
        <ele>193</ele>
        <time>2016-09-10T09:35:25Z</time>
      </trkpt>
      <trkpt lat="46.02271" lon="4.75925">
        <ele>193</ele>
        <time>2016-09-10T09:35:26Z</time>
      </trkpt>
      <trkpt lat="46.02277" lon="4.7592">
        <ele>194</ele>
        <time>2016-09-10T09:35:27Z</time>
      </trkpt>
      <trkpt lat="46.02282" lon="4.75915">
        <ele>193</ele>
        <time>2016-09-10T09:35:28Z</time>
      </trkpt>
      <trkpt lat="46.02288" lon="4.75911">
        <ele>193</ele>
        <time>2016-09-10T09:35:29Z</time>
      </trkpt>
      <trkpt lat="46.02293" lon="4.75906">
        <ele>193</ele>
        <time>2016-09-10T09:35:30Z</time>
      </trkpt>
      <trkpt lat="46.02299" lon="4.75901">
        <ele>193</ele>
        <time>2016-09-10T09:35:31Z</time>
      </trkpt>
      <trkpt lat="46.02304" lon="4.75896">
        <ele>193</ele>
        <time>2016-09-10T09:35:32Z</time>
      </trkpt>
      <trkpt lat="46.02309" lon="4.75891">
        <ele>193</ele>
        <time>2016-09-10T09:35:33Z</time>
      </trkpt>
      <trkpt lat="46.02314" lon="4.75887">
        <ele>193</ele>
        <time>2016-09-10T09:35:34Z</time>
      </trkpt>
      <trkpt lat="46.0232" lon="4.75882">
        <ele>193</ele>
        <time>2016-09-10T09:35:35Z</time>
      </trkpt>
      <trkpt lat="46.02324" lon="4.75876">
        <ele>193</ele>
        <time>2016-09-10T09:35:36Z</time>
      </trkpt>
      <trkpt lat="46.02329" lon="4.75872">
        <ele>193</ele>
        <time>2016-09-10T09:35:37Z</time>
      </trkpt>
      <trkpt lat="46.02334" lon="4.75866">
        <ele>193</ele>
        <time>2016-09-10T09:35:38Z</time>
      </trkpt>
      <trkpt lat="46.02339" lon="4.7586">
        <ele>193</ele>
        <time>2016-09-10T09:35:39Z</time>
      </trkpt>
      <trkpt lat="46.02343" lon="4.75855">
        <ele>193</ele>
        <time>2016-09-10T09:35:40Z</time>
      </trkpt>
      <trkpt lat="46.02348" lon="4.75851">
        <ele>193</ele>
        <time>2016-09-10T09:35:41Z</time>
      </trkpt>
      <trkpt lat="46.02353" lon="4.75848">
        <ele>193</ele>
        <time>2016-09-10T09:35:42Z</time>
      </trkpt>
      <trkpt lat="46.02358" lon="4.75844">
        <ele>193</ele>
        <time>2016-09-10T09:35:43Z</time>
      </trkpt>
      <trkpt lat="46.02363" lon="4.7584">
        <ele>193</ele>
        <time>2016-09-10T09:35:44Z</time>
      </trkpt>
      <trkpt lat="46.02368" lon="4.75836">
        <ele>193</ele>
        <time>2016-09-10T09:35:45Z</time>
      </trkpt>
      <trkpt lat="46.02372" lon="4.75832">
        <ele>192</ele>
        <time>2016-09-10T09:35:46Z</time>
      </trkpt>
      <trkpt lat="46.02377" lon="4.75828">
        <ele>192</ele>
        <time>2016-09-10T09:35:47Z</time>
      </trkpt>
      <trkpt lat="46.02382" lon="4.75824">
        <ele>192</ele>
        <time>2016-09-10T09:35:48Z</time>
      </trkpt>
      <trkpt lat="46.02387" lon="4.7582">
        <ele>192</ele>
        <time>2016-09-10T09:35:49Z</time>
      </trkpt>
      <trkpt lat="46.02392" lon="4.75817">
        <ele>192</ele>
        <time>2016-09-10T09:35:50Z</time>
      </trkpt>
      <trkpt lat="46.02397" lon="4.75814">
        <ele>192</ele>
        <time>2016-09-10T09:35:51Z</time>
      </trkpt>
      <trkpt lat="46.02402" lon="4.7581">
        <ele>192</ele>
        <time>2016-09-10T09:35:52Z</time>
      </trkpt>
      <trkpt lat="46.02407" lon="4.75807">
        <ele>192</ele>
        <time>2016-09-10T09:35:53Z</time>
      </trkpt>
      <trkpt lat="46.02412" lon="4.75804">
        <ele>192</ele>
        <time>2016-09-10T09:35:54Z</time>
      </trkpt>
      <trkpt lat="46.02417" lon="4.75801">
        <ele>192</ele>
        <time>2016-09-10T09:35:55Z</time>
      </trkpt>
      <trkpt lat="46.02422" lon="4.75798">
        <ele>192</ele>
        <time>2016-09-10T09:35:56Z</time>
      </trkpt>
      <trkpt lat="46.02427" lon="4.75795">
        <ele>192</ele>
        <time>2016-09-10T09:35:57Z</time>
      </trkpt>
      <trkpt lat="46.02432" lon="4.75792">
        <ele>191</ele>
        <time>2016-09-10T09:35:58Z</time>
      </trkpt>
      <trkpt lat="46.02437" lon="4.7579">
        <ele>191</ele>
        <time>2016-09-10T09:35:59Z</time>
      </trkpt>
      <trkpt lat="46.02443" lon="4.75787">
        <ele>191</ele>
        <time>2016-09-10T09:36:00Z</time>
      </trkpt>
      <trkpt lat="46.02449" lon="4.75784">
        <ele>191</ele>
        <time>2016-09-10T09:36:01Z</time>
      </trkpt>
      <trkpt lat="46.02454" lon="4.75781">
        <ele>191</ele>
        <time>2016-09-10T09:36:02Z</time>
      </trkpt>
      <trkpt lat="46.0246" lon="4.75778">
        <ele>191</ele>
        <time>2016-09-10T09:36:03Z</time>
      </trkpt>
      <trkpt lat="46.02467" lon="4.75775">
        <ele>191</ele>
        <time>2016-09-10T09:36:04Z</time>
      </trkpt>
      <trkpt lat="46.02473" lon="4.75772">
        <ele>191</ele>
        <time>2016-09-10T09:36:05Z</time>
      </trkpt>
      <trkpt lat="46.02479" lon="4.75769">
        <ele>191</ele>
        <time>2016-09-10T09:36:06Z</time>
      </trkpt>
      <trkpt lat="46.02486" lon="4.75766">
        <ele>191</ele>
        <time>2016-09-10T09:36:07Z</time>
      </trkpt>
      <trkpt lat="46.02493" lon="4.75763">
        <ele>190</ele>
        <time>2016-09-10T09:36:08Z</time>
      </trkpt>
      <trkpt lat="46.025" lon="4.75759">
        <ele>190</ele>
        <time>2016-09-10T09:36:09Z</time>
      </trkpt>
      <trkpt lat="46.02507" lon="4.75756">
        <ele>189</ele>
        <time>2016-09-10T09:36:10Z</time>
      </trkpt>
      <trkpt lat="46.02515" lon="4.75754">
        <ele>188</ele>
        <time>2016-09-10T09:36:11Z</time>
      </trkpt>
      <trkpt lat="46.02523" lon="4.75751">
        <ele>188</ele>
        <time>2016-09-10T09:36:12Z</time>
      </trkpt>
      <trkpt lat="46.02531" lon="4.7575">
        <ele>187</ele>
        <time>2016-09-10T09:36:13Z</time>
      </trkpt>
      <trkpt lat="46.0254" lon="4.75748">
        <ele>186</ele>
        <time>2016-09-10T09:36:14Z</time>
      </trkpt>
      <trkpt lat="46.02549" lon="4.75747">
        <ele>186</ele>
        <time>2016-09-10T09:36:15Z</time>
      </trkpt>
      <trkpt lat="46.02558" lon="4.75747">
        <ele>185</ele>
        <time>2016-09-10T09:36:16Z</time>
      </trkpt>
      <trkpt lat="46.02567" lon="4.75748">
        <ele>185</ele>
        <time>2016-09-10T09:36:17Z</time>
      </trkpt>
      <trkpt lat="46.02577" lon="4.75749">
        <ele>184</ele>
        <time>2016-09-10T09:36:18Z</time>
      </trkpt>
      <trkpt lat="46.02587" lon="4.75749">
        <ele>183</ele>
        <time>2016-09-10T09:36:19Z</time>
      </trkpt>
      <trkpt lat="46.02598" lon="4.75749">
        <ele>183</ele>
        <time>2016-09-10T09:36:20Z</time>
      </trkpt>
      <trkpt lat="46.02609" lon="4.75749">
        <ele>182</ele>
        <time>2016-09-10T09:36:21Z</time>
      </trkpt>
      <trkpt lat="46.02619" lon="4.7575">
        <ele>182</ele>
        <time>2016-09-10T09:36:22Z</time>
      </trkpt>
      <trkpt lat="46.0263" lon="4.7575">
        <ele>182</ele>
        <time>2016-09-10T09:36:23Z</time>
      </trkpt>
      <trkpt lat="46.02641" lon="4.75751">
        <ele>182</ele>
        <time>2016-09-10T09:36:24Z</time>
      </trkpt>
      <trkpt lat="46.02652" lon="4.75751">
        <ele>182</ele>
        <time>2016-09-10T09:36:25Z</time>
      </trkpt>
      <trkpt lat="46.02663" lon="4.7575">
        <ele>181</ele>
        <time>2016-09-10T09:36:26Z</time>
      </trkpt>
      <trkpt lat="46.02675" lon="4.75748">
        <ele>181</ele>
        <time>2016-09-10T09:36:27Z</time>
      </trkpt>
      <trkpt lat="46.02686" lon="4.75745">
        <ele>182</ele>
        <time>2016-09-10T09:36:28Z</time>
      </trkpt>
      <trkpt lat="46.02696" lon="4.75742">
        <ele>182</ele>
        <time>2016-09-10T09:36:29Z</time>
      </trkpt>
      <trkpt lat="46.02706" lon="4.75738">
        <ele>182</ele>
        <time>2016-09-10T09:36:30Z</time>
      </trkpt>
      <trkpt lat="46.02716" lon="4.75733">
        <ele>182</ele>
        <time>2016-09-10T09:36:31Z</time>
      </trkpt>
      <trkpt lat="46.02726" lon="4.75729">
        <ele>183</ele>
        <time>2016-09-10T09:36:32Z</time>
      </trkpt>
      <trkpt lat="46.02736" lon="4.75725">
        <ele>183</ele>
        <time>2016-09-10T09:36:33Z</time>
      </trkpt>
      <trkpt lat="46.02745" lon="4.75721">
        <ele>183</ele>
        <time>2016-09-10T09:36:34Z</time>
      </trkpt>
      <trkpt lat="46.02754" lon="4.75718">
        <ele>183</ele>
        <time>2016-09-10T09:36:35Z</time>
      </trkpt>
      <trkpt lat="46.02763" lon="4.75717">
        <ele>183</ele>
        <time>2016-09-10T09:36:36Z</time>
      </trkpt>
      <trkpt lat="46.02772" lon="4.75717">
        <ele>183</ele>
        <time>2016-09-10T09:36:37Z</time>
      </trkpt>
      <trkpt lat="46.0278" lon="4.75718">
        <ele>183</ele>
        <time>2016-09-10T09:36:38Z</time>
      </trkpt>
      <trkpt lat="46.02788" lon="4.75718">
        <ele>183</ele>
        <time>2016-09-10T09:36:39Z</time>
      </trkpt>
      <trkpt lat="46.02796" lon="4.75719">
        <ele>183</ele>
        <time>2016-09-10T09:36:40Z</time>
      </trkpt>
      <trkpt lat="46.02803" lon="4.75719">
        <ele>183</ele>
        <time>2016-09-10T09:36:41Z</time>
      </trkpt>
      <trkpt lat="46.02809" lon="4.7572">
        <ele>183</ele>
        <time>2016-09-10T09:36:42Z</time>
      </trkpt>
      <trkpt lat="46.02816" lon="4.7572">
        <ele>184</ele>
        <time>2016-09-10T09:36:43Z</time>
      </trkpt>
      <trkpt lat="46.02821" lon="4.75723">
        <ele>184</ele>
        <time>2016-09-10T09:36:44Z</time>
      </trkpt>
      <trkpt lat="46.02827" lon="4.75724">
        <ele>184</ele>
        <time>2016-09-10T09:36:45Z</time>
      </trkpt>
      <trkpt lat="46.02832" lon="4.75725">
        <ele>184</ele>
        <time>2016-09-10T09:36:46Z</time>
      </trkpt>
      <trkpt lat="46.02838" lon="4.75725">
        <ele>184</ele>
        <time>2016-09-10T09:36:47Z</time>
      </trkpt>
      <trkpt lat="46.02843" lon="4.75726">
        <ele>184</ele>
        <time>2016-09-10T09:36:48Z</time>
      </trkpt>
      <trkpt lat="46.02849" lon="4.75727">
        <ele>184</ele>
        <time>2016-09-10T09:36:49Z</time>
      </trkpt>
      <trkpt lat="46.02855" lon="4.75727">
        <ele>184</ele>
        <time>2016-09-10T09:36:50Z</time>
      </trkpt>
      <trkpt lat="46.0286" lon="4.75728">
        <ele>184</ele>
        <time>2016-09-10T09:36:51Z</time>
      </trkpt>
      <trkpt lat="46.02866" lon="4.75728">
        <ele>184</ele>
        <time>2016-09-10T09:36:52Z</time>
      </trkpt>
      <trkpt lat="46.02872" lon="4.75727">
        <ele>183</ele>
        <time>2016-09-10T09:36:53Z</time>
      </trkpt>
      <trkpt lat="46.02877" lon="4.75727">
        <ele>183</ele>
        <time>2016-09-10T09:36:54Z</time>
      </trkpt>
      <trkpt lat="46.02882" lon="4.75727">
        <ele>183</ele>
        <time>2016-09-10T09:36:55Z</time>
      </trkpt>
      <trkpt lat="46.02888" lon="4.75726">
        <ele>183</ele>
        <time>2016-09-10T09:36:56Z</time>
      </trkpt>
      <trkpt lat="46.02894" lon="4.75726">
        <ele>183</ele>
        <time>2016-09-10T09:36:57Z</time>
      </trkpt>
      <trkpt lat="46.02899" lon="4.75726">
        <ele>183</ele>
        <time>2016-09-10T09:36:58Z</time>
      </trkpt>
      <trkpt lat="46.02904" lon="4.75726">
        <ele>183</ele>
        <time>2016-09-10T09:36:59Z</time>
      </trkpt>
      <trkpt lat="46.0291" lon="4.75725">
        <ele>183</ele>
        <time>2016-09-10T09:37:00Z</time>
      </trkpt>
      <trkpt lat="46.02915" lon="4.75725">
        <ele>183</ele>
        <time>2016-09-10T09:37:01Z</time>
      </trkpt>
      <trkpt lat="46.0292" lon="4.75724">
        <ele>183</ele>
        <time>2016-09-10T09:37:02Z</time>
      </trkpt>
      <trkpt lat="46.02924" lon="4.75723">
        <ele>183</ele>
        <time>2016-09-10T09:37:03Z</time>
      </trkpt>
      <trkpt lat="46.02929" lon="4.75722">
        <ele>183</ele>
        <time>2016-09-10T09:37:04Z</time>
      </trkpt>
      <trkpt lat="46.02938" lon="4.75722">
        <ele>183</ele>
        <time>2016-09-10T09:37:06Z</time>
      </trkpt>
      <trkpt lat="46.02942" lon="4.75721">
        <ele>183</ele>
        <time>2016-09-10T09:37:07Z</time>
      </trkpt>
      <trkpt lat="46.02947" lon="4.75721">
        <ele>183</ele>
        <time>2016-09-10T09:37:08Z</time>
      </trkpt>
      <trkpt lat="46.02952" lon="4.7572">
        <ele>183</ele>
        <time>2016-09-10T09:37:09Z</time>
      </trkpt>
      <trkpt lat="46.02957" lon="4.75718">
        <ele>183</ele>
        <time>2016-09-10T09:37:10Z</time>
      </trkpt>
      <trkpt lat="46.02963" lon="4.75717">
        <ele>183</ele>
        <time>2016-09-10T09:37:11Z</time>
      </trkpt>
      <trkpt lat="46.02969" lon="4.75716">
        <ele>183</ele>
        <time>2016-09-10T09:37:12Z</time>
      </trkpt>
      <trkpt lat="46.02975" lon="4.75714">
        <ele>183</ele>
        <time>2016-09-10T09:37:13Z</time>
      </trkpt>
      <trkpt lat="46.0298" lon="4.75713">
        <ele>183</ele>
        <time>2016-09-10T09:37:14Z</time>
      </trkpt>
      <trkpt lat="46.02984" lon="4.75712">
        <ele>183</ele>
        <time>2016-09-10T09:37:15Z</time>
      </trkpt>
      <trkpt lat="46.02989" lon="4.7571">
        <ele>183</ele>
        <time>2016-09-10T09:37:16Z</time>
      </trkpt>
      <trkpt lat="46.02993" lon="4.75709">
        <ele>183</ele>
        <time>2016-09-10T09:37:17Z</time>
      </trkpt>
      <trkpt lat="46.02998" lon="4.75708">
        <ele>183</ele>
        <time>2016-09-10T09:37:18Z</time>
      </trkpt>
      <trkpt lat="46.03002" lon="4.75706">
        <ele>184</ele>
        <time>2016-09-10T09:37:19Z</time>
      </trkpt>
      <trkpt lat="46.03011" lon="4.75704">
        <ele>184</ele>
        <time>2016-09-10T09:37:21Z</time>
      </trkpt>
      <trkpt lat="46.03016" lon="4.75702">
        <ele>184</ele>
        <time>2016-09-10T09:37:22Z</time>
      </trkpt>
      <trkpt lat="46.0302" lon="4.75701">
        <ele>184</ele>
        <time>2016-09-10T09:37:23Z</time>
      </trkpt>
      <trkpt lat="46.03025" lon="4.75699">
        <ele>184</ele>
        <time>2016-09-10T09:37:24Z</time>
      </trkpt>
      <trkpt lat="46.03029" lon="4.75698">
        <ele>184</ele>
        <time>2016-09-10T09:37:25Z</time>
      </trkpt>
      <trkpt lat="46.03035" lon="4.75695">
        <ele>184</ele>
        <time>2016-09-10T09:37:26Z</time>
      </trkpt>
      <trkpt lat="46.0304" lon="4.75694">
        <ele>184</ele>
        <time>2016-09-10T09:37:27Z</time>
      </trkpt>
      <trkpt lat="46.03045" lon="4.75692">
        <ele>184</ele>
        <time>2016-09-10T09:37:28Z</time>
      </trkpt>
      <trkpt lat="46.03049" lon="4.75691">
        <ele>184</ele>
        <time>2016-09-10T09:37:29Z</time>
      </trkpt>
      <trkpt lat="46.03054" lon="4.7569">
        <ele>184</ele>
        <time>2016-09-10T09:37:30Z</time>
      </trkpt>
      <trkpt lat="46.03058" lon="4.75689">
        <ele>184</ele>
        <time>2016-09-10T09:37:31Z</time>
      </trkpt>
      <trkpt lat="46.03064" lon="4.7569">
        <ele>184</ele>
        <time>2016-09-10T09:37:32Z</time>
      </trkpt>
      <trkpt lat="46.03069" lon="4.75689">
        <ele>184</ele>
        <time>2016-09-10T09:37:33Z</time>
      </trkpt>
      <trkpt lat="46.03074" lon="4.75689">
        <ele>184</ele>
        <time>2016-09-10T09:37:34Z</time>
      </trkpt>
      <trkpt lat="46.0308" lon="4.75688">
        <ele>184</ele>
        <time>2016-09-10T09:37:35Z</time>
      </trkpt>
      <trkpt lat="46.03085" lon="4.75688">
        <ele>185</ele>
        <time>2016-09-10T09:37:36Z</time>
      </trkpt>
      <trkpt lat="46.0309" lon="4.75688">
        <ele>185</ele>
        <time>2016-09-10T09:37:37Z</time>
      </trkpt>
      <trkpt lat="46.03095" lon="4.75687">
        <ele>186</ele>
        <time>2016-09-10T09:37:38Z</time>
      </trkpt>
      <trkpt lat="46.031" lon="4.75687">
        <ele>186</ele>
        <time>2016-09-10T09:37:39Z</time>
      </trkpt>
      <trkpt lat="46.03104" lon="4.75687">
        <ele>186</ele>
        <time>2016-09-10T09:37:40Z</time>
      </trkpt>
      <trkpt lat="46.03109" lon="4.75687">
        <ele>186</ele>
        <time>2016-09-10T09:37:41Z</time>
      </trkpt>
      <trkpt lat="46.03114" lon="4.75685">
        <ele>186</ele>
        <time>2016-09-10T09:37:42Z</time>
      </trkpt>
      <trkpt lat="46.03123" lon="4.75685">
        <ele>186</ele>
        <time>2016-09-10T09:37:44Z</time>
      </trkpt>
      <trkpt lat="46.03127" lon="4.75685">
        <ele>187</ele>
        <time>2016-09-10T09:37:45Z</time>
      </trkpt>
      <trkpt lat="46.03131" lon="4.75684">
        <ele>187</ele>
        <time>2016-09-10T09:37:46Z</time>
      </trkpt>
      <trkpt lat="46.03136" lon="4.75684">
        <ele>187</ele>
        <time>2016-09-10T09:37:47Z</time>
      </trkpt>
      <trkpt lat="46.03141" lon="4.75683">
        <ele>187</ele>
        <time>2016-09-10T09:37:48Z</time>
      </trkpt>
      <trkpt lat="46.03145" lon="4.75681">
        <ele>187</ele>
        <time>2016-09-10T09:37:49Z</time>
      </trkpt>
      <trkpt lat="46.03154" lon="4.75679">
        <ele>187</ele>
        <time>2016-09-10T09:37:51Z</time>
      </trkpt>
      <trkpt lat="46.03159" lon="4.75679">
        <ele>188</ele>
        <time>2016-09-10T09:37:52Z</time>
      </trkpt>
      <trkpt lat="46.03167" lon="4.75679">
        <ele>190</ele>
        <time>2016-09-10T09:37:54Z</time>
      </trkpt>
      <trkpt lat="46.03172" lon="4.75678">
        <ele>190</ele>
        <time>2016-09-10T09:37:55Z</time>
      </trkpt>
      <trkpt lat="46.03177" lon="4.75678">
        <ele>190</ele>
        <time>2016-09-10T09:37:56Z</time>
      </trkpt>
      <trkpt lat="46.03182" lon="4.75678">
        <ele>191</ele>
        <time>2016-09-10T09:37:57Z</time>
      </trkpt>
      <trkpt lat="46.03187" lon="4.75677">
        <ele>191</ele>
        <time>2016-09-10T09:37:58Z</time>
      </trkpt>
      <trkpt lat="46.03191" lon="4.75676">
        <ele>192</ele>
        <time>2016-09-10T09:37:59Z</time>
      </trkpt>
      <trkpt lat="46.03196" lon="4.75675">
        <ele>192</ele>
        <time>2016-09-10T09:38:00Z</time>
      </trkpt>
      <trkpt lat="46.03201" lon="4.75674">
        <ele>192</ele>
        <time>2016-09-10T09:38:01Z</time>
      </trkpt>
      <trkpt lat="46.03206" lon="4.75673">
        <ele>193</ele>
        <time>2016-09-10T09:38:02Z</time>
      </trkpt>
      <trkpt lat="46.0321" lon="4.75673">
        <ele>193</ele>
        <time>2016-09-10T09:38:03Z</time>
      </trkpt>
      <trkpt lat="46.03217" lon="4.75673">
        <ele>193</ele>
        <time>2016-09-10T09:38:05Z</time>
      </trkpt>
      <trkpt lat="46.0322" lon="4.75672">
        <ele>193</ele>
        <time>2016-09-10T09:38:06Z</time>
      </trkpt>
      <trkpt lat="46.03228" lon="4.7567">
        <ele>194</ele>
        <time>2016-09-10T09:38:08Z</time>
      </trkpt>
      <trkpt lat="46.03232" lon="4.7567">
        <ele>194</ele>
        <time>2016-09-10T09:38:09Z</time>
      </trkpt>
      <trkpt lat="46.03239" lon="4.7567">
        <ele>194</ele>
        <time>2016-09-10T09:38:11Z</time>
      </trkpt>
      <trkpt lat="46.03243" lon="4.7567">
        <ele>195</ele>
        <time>2016-09-10T09:38:12Z</time>
      </trkpt>
      <trkpt lat="46.03249" lon="4.7567">
        <ele>195</ele>
        <time>2016-09-10T09:38:14Z</time>
      </trkpt>
      <trkpt lat="46.03254" lon="4.75668">
        <ele>195</ele>
        <time>2016-09-10T09:38:15Z</time>
      </trkpt>
      <trkpt lat="46.03257" lon="4.75667">
        <ele>195</ele>
        <time>2016-09-10T09:38:16Z</time>
      </trkpt>
      <trkpt lat="46.03263" lon="4.75669">
        <ele>194</ele>
        <time>2016-09-10T09:38:17Z</time>
      </trkpt>
      <trkpt lat="46.03269" lon="4.75667">
        <ele>194</ele>
        <time>2016-09-10T09:38:18Z</time>
      </trkpt>
      <trkpt lat="46.03275" lon="4.75664">
        <ele>191</ele>
        <time>2016-09-10T09:38:19Z</time>
      </trkpt>
      <trkpt lat="46.03281" lon="4.75659">
        <ele>191</ele>
        <time>2016-09-10T09:38:20Z</time>
      </trkpt>
      <trkpt lat="46.03284" lon="4.75655">
        <ele>190</ele>
        <time>2016-09-10T09:38:21Z</time>
      </trkpt>
      <trkpt lat="46.0329" lon="4.75648">
        <ele>190</ele>
        <time>2016-09-10T09:38:23Z</time>
      </trkpt>
      <trkpt lat="46.03294" lon="4.75646">
        <ele>190</ele>
        <time>2016-09-10T09:38:24Z</time>
      </trkpt>
      <trkpt lat="46.03299" lon="4.75645">
        <ele>189</ele>
        <time>2016-09-10T09:38:25Z</time>
      </trkpt>
      <trkpt lat="46.03304" lon="4.75645">
        <ele>189</ele>
        <time>2016-09-10T09:38:26Z</time>
      </trkpt>
      <trkpt lat="46.0331" lon="4.75646">
        <ele>189</ele>
        <time>2016-09-10T09:38:27Z</time>
      </trkpt>
      <trkpt lat="46.03316" lon="4.75647">
        <ele>189</ele>
        <time>2016-09-10T09:38:28Z</time>
      </trkpt>
      <trkpt lat="46.03322" lon="4.75647">
        <ele>189</ele>
        <time>2016-09-10T09:38:29Z</time>
      </trkpt>
      <trkpt lat="46.03328" lon="4.75647">
        <ele>189</ele>
        <time>2016-09-10T09:38:30Z</time>
      </trkpt>
      <trkpt lat="46.03333" lon="4.75648">
        <ele>189</ele>
        <time>2016-09-10T09:38:31Z</time>
      </trkpt>
      <trkpt lat="46.03338" lon="4.75648">
        <ele>188</ele>
        <time>2016-09-10T09:38:32Z</time>
      </trkpt>
      <trkpt lat="46.03344" lon="4.75647">
        <ele>188</ele>
        <time>2016-09-10T09:38:33Z</time>
      </trkpt>
      <trkpt lat="46.03349" lon="4.75647">
        <ele>188</ele>
        <time>2016-09-10T09:38:34Z</time>
      </trkpt>
      <trkpt lat="46.03354" lon="4.75646">
        <ele>188</ele>
        <time>2016-09-10T09:38:35Z</time>
      </trkpt>
      <trkpt lat="46.03359" lon="4.75646">
        <ele>188</ele>
        <time>2016-09-10T09:38:36Z</time>
      </trkpt>
      <trkpt lat="46.03363" lon="4.75645">
        <ele>188</ele>
        <time>2016-09-10T09:38:37Z</time>
      </trkpt>
      <trkpt lat="46.03369" lon="4.75645">
        <ele>188</ele>
        <time>2016-09-10T09:38:38Z</time>
      </trkpt>
      <trkpt lat="46.03374" lon="4.75643">
        <ele>188</ele>
        <time>2016-09-10T09:38:39Z</time>
      </trkpt>
      <trkpt lat="46.0338" lon="4.75642">
        <ele>188</ele>
        <time>2016-09-10T09:38:40Z</time>
      </trkpt>
      <trkpt lat="46.03385" lon="4.75641">
        <ele>188</ele>
        <time>2016-09-10T09:38:41Z</time>
      </trkpt>
      <trkpt lat="46.0339" lon="4.7564">
        <ele>188</ele>
        <time>2016-09-10T09:38:42Z</time>
      </trkpt>
      <trkpt lat="46.03395" lon="4.75639">
        <ele>188</ele>
        <time>2016-09-10T09:38:43Z</time>
      </trkpt>
      <trkpt lat="46.034" lon="4.75639">
        <ele>188</ele>
        <time>2016-09-10T09:38:44Z</time>
      </trkpt>
      <trkpt lat="46.03406" lon="4.75638">
        <ele>188</ele>
        <time>2016-09-10T09:38:45Z</time>
      </trkpt>
      <trkpt lat="46.03411" lon="4.75637">
        <ele>188</ele>
        <time>2016-09-10T09:38:46Z</time>
      </trkpt>
      <trkpt lat="46.03416" lon="4.75636">
        <ele>188</ele>
        <time>2016-09-10T09:38:47Z</time>
      </trkpt>
      <trkpt lat="46.03423" lon="4.75636">
        <ele>188</ele>
        <time>2016-09-10T09:38:48Z</time>
      </trkpt>
      <trkpt lat="46.03429" lon="4.75635">
        <ele>188</ele>
        <time>2016-09-10T09:38:49Z</time>
      </trkpt>
      <trkpt lat="46.03434" lon="4.75636">
        <ele>188</ele>
        <time>2016-09-10T09:38:50Z</time>
      </trkpt>
      <trkpt lat="46.03438" lon="4.75639">
        <ele>188</ele>
        <time>2016-09-10T09:38:51Z</time>
      </trkpt>
      <trkpt lat="46.03441" lon="4.75643">
        <ele>188</ele>
        <time>2016-09-10T09:38:52Z</time>
      </trkpt>
      <trkpt lat="46.03444" lon="4.75648">
        <ele>188</ele>
        <time>2016-09-10T09:38:53Z</time>
      </trkpt>
      <trkpt lat="46.03447" lon="4.75654">
        <ele>188</ele>
        <time>2016-09-10T09:38:54Z</time>
      </trkpt>
      <trkpt lat="46.03449" lon="4.7566">
        <ele>188</ele>
        <time>2016-09-10T09:38:55Z</time>
      </trkpt>
      <trkpt lat="46.03451" lon="4.75667">
        <ele>188</ele>
        <time>2016-09-10T09:38:56Z</time>
      </trkpt>
      <trkpt lat="46.03454" lon="4.75674">
        <ele>189</ele>
        <time>2016-09-10T09:38:57Z</time>
      </trkpt>
      <trkpt lat="46.03456" lon="4.75681">
        <ele>189</ele>
        <time>2016-09-10T09:38:58Z</time>
      </trkpt>
      <trkpt lat="46.03459" lon="4.75688">
        <ele>189</ele>
        <time>2016-09-10T09:38:59Z</time>
      </trkpt>
      <trkpt lat="46.03462" lon="4.75694">
        <ele>189</ele>
        <time>2016-09-10T09:39:00Z</time>
      </trkpt>
      <trkpt lat="46.03465" lon="4.75701">
        <ele>189</ele>
        <time>2016-09-10T09:39:01Z</time>
      </trkpt>
      <trkpt lat="46.03467" lon="4.75709">
        <ele>189</ele>
        <time>2016-09-10T09:39:02Z</time>
      </trkpt>
      <trkpt lat="46.0347" lon="4.75716">
        <ele>189</ele>
        <time>2016-09-10T09:39:03Z</time>
      </trkpt>
      <trkpt lat="46.03473" lon="4.75723">
        <ele>189</ele>
        <time>2016-09-10T09:39:04Z</time>
      </trkpt>
      <trkpt lat="46.03475" lon="4.7573">
        <ele>189</ele>
        <time>2016-09-10T09:39:05Z</time>
      </trkpt>
      <trkpt lat="46.03478" lon="4.75736">
        <ele>189</ele>
        <time>2016-09-10T09:39:06Z</time>
      </trkpt>
      <trkpt lat="46.0348" lon="4.75742">
        <ele>189</ele>
        <time>2016-09-10T09:39:07Z</time>
      </trkpt>
      <trkpt lat="46.03482" lon="4.75748">
        <ele>189</ele>
        <time>2016-09-10T09:39:08Z</time>
      </trkpt>
      <trkpt lat="46.03484" lon="4.75754">
        <ele>189</ele>
        <time>2016-09-10T09:39:09Z</time>
      </trkpt>
      <trkpt lat="46.03487" lon="4.75761">
        <ele>189</ele>
        <time>2016-09-10T09:39:10Z</time>
      </trkpt>
      <trkpt lat="46.0349" lon="4.75768">
        <ele>189</ele>
        <time>2016-09-10T09:39:11Z</time>
      </trkpt>
      <trkpt lat="46.03493" lon="4.75775">
        <ele>190</ele>
        <time>2016-09-10T09:39:12Z</time>
      </trkpt>
      <trkpt lat="46.03496" lon="4.75782">
        <ele>190</ele>
        <time>2016-09-10T09:39:13Z</time>
      </trkpt>
      <trkpt lat="46.03499" lon="4.75789">
        <ele>190</ele>
        <time>2016-09-10T09:39:14Z</time>
      </trkpt>
      <trkpt lat="46.03502" lon="4.75796">
        <ele>189</ele>
        <time>2016-09-10T09:39:15Z</time>
      </trkpt>
      <trkpt lat="46.03506" lon="4.75803">
        <ele>189</ele>
        <time>2016-09-10T09:39:16Z</time>
      </trkpt>
      <trkpt lat="46.03509" lon="4.7581">
        <ele>190</ele>
        <time>2016-09-10T09:39:17Z</time>
      </trkpt>
      <trkpt lat="46.03512" lon="4.75817">
        <ele>190</ele>
        <time>2016-09-10T09:39:18Z</time>
      </trkpt>
      <trkpt lat="46.03515" lon="4.75823">
        <ele>190</ele>
        <time>2016-09-10T09:39:19Z</time>
      </trkpt>
      <trkpt lat="46.03518" lon="4.75829">
        <ele>190</ele>
        <time>2016-09-10T09:39:20Z</time>
      </trkpt>
      <trkpt lat="46.03521" lon="4.75835">
        <ele>190</ele>
        <time>2016-09-10T09:39:21Z</time>
      </trkpt>
      <trkpt lat="46.03524" lon="4.75841">
        <ele>190</ele>
        <time>2016-09-10T09:39:22Z</time>
      </trkpt>
      <trkpt lat="46.03526" lon="4.75847">
        <ele>190</ele>
        <time>2016-09-10T09:39:23Z</time>
      </trkpt>
      <trkpt lat="46.03529" lon="4.75853">
        <ele>190</ele>
        <time>2016-09-10T09:39:24Z</time>
      </trkpt>
      <trkpt lat="46.03532" lon="4.75859">
        <ele>190</ele>
        <time>2016-09-10T09:39:25Z</time>
      </trkpt>
      <trkpt lat="46.03535" lon="4.75864">
        <ele>190</ele>
        <time>2016-09-10T09:39:26Z</time>
      </trkpt>
      <trkpt lat="46.03538" lon="4.7587">
        <ele>190</ele>
        <time>2016-09-10T09:39:27Z</time>
      </trkpt>
      <trkpt lat="46.0354" lon="4.75876">
        <ele>190</ele>
        <time>2016-09-10T09:39:28Z</time>
      </trkpt>
      <trkpt lat="46.03543" lon="4.75882">
        <ele>189</ele>
        <time>2016-09-10T09:39:29Z</time>
      </trkpt>
      <trkpt lat="46.03545" lon="4.75889">
        <ele>189</ele>
        <time>2016-09-10T09:39:30Z</time>
      </trkpt>
      <trkpt lat="46.03548" lon="4.75895">
        <ele>189</ele>
        <time>2016-09-10T09:39:31Z</time>
      </trkpt>
      <trkpt lat="46.03552" lon="4.75901">
        <ele>189</ele>
        <time>2016-09-10T09:39:32Z</time>
      </trkpt>
      <trkpt lat="46.03555" lon="4.75907">
        <ele>189</ele>
        <time>2016-09-10T09:39:33Z</time>
      </trkpt>
      <trkpt lat="46.03558" lon="4.75914">
        <ele>189</ele>
        <time>2016-09-10T09:39:34Z</time>
      </trkpt>
      <trkpt lat="46.03561" lon="4.75921">
        <ele>190</ele>
        <time>2016-09-10T09:39:35Z</time>
      </trkpt>
      <trkpt lat="46.03564" lon="4.75928">
        <ele>190</ele>
        <time>2016-09-10T09:39:36Z</time>
      </trkpt>
      <trkpt lat="46.03566" lon="4.75934">
        <ele>190</ele>
        <time>2016-09-10T09:39:37Z</time>
      </trkpt>
      <trkpt lat="46.03569" lon="4.7594">
        <ele>190</ele>
        <time>2016-09-10T09:39:38Z</time>
      </trkpt>
      <trkpt lat="46.03572" lon="4.75946">
        <ele>190</ele>
        <time>2016-09-10T09:39:39Z</time>
      </trkpt>
      <trkpt lat="46.03575" lon="4.75951">
        <ele>190</ele>
        <time>2016-09-10T09:39:40Z</time>
      </trkpt>
      <trkpt lat="46.03578" lon="4.75958">
        <ele>190</ele>
        <time>2016-09-10T09:39:41Z</time>
      </trkpt>
      <trkpt lat="46.03581" lon="4.75964">
        <ele>190</ele>
        <time>2016-09-10T09:39:42Z</time>
      </trkpt>
      <trkpt lat="46.03583" lon="4.7597">
        <ele>190</ele>
        <time>2016-09-10T09:39:43Z</time>
      </trkpt>
      <trkpt lat="46.03586" lon="4.75976">
        <ele>190</ele>
        <time>2016-09-10T09:39:44Z</time>
      </trkpt>
      <trkpt lat="46.03588" lon="4.75983">
        <ele>190</ele>
        <time>2016-09-10T09:39:45Z</time>
      </trkpt>
      <trkpt lat="46.03591" lon="4.75989">
        <ele>190</ele>
        <time>2016-09-10T09:39:46Z</time>
      </trkpt>
      <trkpt lat="46.03593" lon="4.75996">
        <ele>191</ele>
        <time>2016-09-10T09:39:47Z</time>
      </trkpt>
      <trkpt lat="46.03595" lon="4.76002">
        <ele>191</ele>
        <time>2016-09-10T09:39:48Z</time>
      </trkpt>
      <trkpt lat="46.03597" lon="4.76009">
        <ele>191</ele>
        <time>2016-09-10T09:39:49Z</time>
      </trkpt>
      <trkpt lat="46.03599" lon="4.76016">
        <ele>191</ele>
        <time>2016-09-10T09:39:50Z</time>
      </trkpt>
      <trkpt lat="46.03601" lon="4.76023">
        <ele>191</ele>
        <time>2016-09-10T09:39:51Z</time>
      </trkpt>
      <trkpt lat="46.03603" lon="4.7603">
        <ele>191</ele>
        <time>2016-09-10T09:39:52Z</time>
      </trkpt>
      <trkpt lat="46.03606" lon="4.76037">
        <ele>191</ele>
        <time>2016-09-10T09:39:53Z</time>
      </trkpt>
      <trkpt lat="46.03607" lon="4.76044">
        <ele>191</ele>
        <time>2016-09-10T09:39:54Z</time>
      </trkpt>
      <trkpt lat="46.03608" lon="4.7605">
        <ele>191</ele>
        <time>2016-09-10T09:39:55Z</time>
      </trkpt>
      <trkpt lat="46.0361" lon="4.76057">
        <ele>191</ele>
        <time>2016-09-10T09:39:56Z</time>
      </trkpt>
      <trkpt lat="46.03614" lon="4.76063">
        <ele>191</ele>
        <time>2016-09-10T09:39:57Z</time>
      </trkpt>
      <trkpt lat="46.03617" lon="4.76069">
        <ele>191</ele>
        <time>2016-09-10T09:39:58Z</time>
      </trkpt>
      <trkpt lat="46.03619" lon="4.76076">
        <ele>191</ele>
        <time>2016-09-10T09:39:59Z</time>
      </trkpt>
      <trkpt lat="46.03621" lon="4.76082">
        <ele>191</ele>
        <time>2016-09-10T09:40:00Z</time>
      </trkpt>
      <trkpt lat="46.03624" lon="4.76088">
        <ele>192</ele>
        <time>2016-09-10T09:40:01Z</time>
      </trkpt>
      <trkpt lat="46.03626" lon="4.76095">
        <ele>192</ele>
        <time>2016-09-10T09:40:02Z</time>
      </trkpt>
      <trkpt lat="46.03628" lon="4.76102">
        <ele>192</ele>
        <time>2016-09-10T09:40:03Z</time>
      </trkpt>
      <trkpt lat="46.03629" lon="4.76109">
        <ele>192</ele>
        <time>2016-09-10T09:40:04Z</time>
      </trkpt>
      <trkpt lat="46.03629" lon="4.76116">
        <ele>192</ele>
        <time>2016-09-10T09:40:05Z</time>
      </trkpt>
      <trkpt lat="46.03626" lon="4.76122">
        <ele>192</ele>
        <time>2016-09-10T09:40:06Z</time>
      </trkpt>
      <trkpt lat="46.03626" lon="4.76129">
        <ele>192</ele>
        <time>2016-09-10T09:40:07Z</time>
      </trkpt>
      <trkpt lat="46.03626" lon="4.76136">
        <ele>192</ele>
        <time>2016-09-10T09:40:08Z</time>
      </trkpt>
      <trkpt lat="46.03625" lon="4.76144">
        <ele>192</ele>
        <time>2016-09-10T09:40:09Z</time>
      </trkpt>
      <trkpt lat="46.03625" lon="4.76151">
        <ele>192</ele>
        <time>2016-09-10T09:40:10Z</time>
      </trkpt>
      <trkpt lat="46.03624" lon="4.76159">
        <ele>192</ele>
        <time>2016-09-10T09:40:11Z</time>
      </trkpt>
      <trkpt lat="46.03624" lon="4.76166">
        <ele>192</ele>
        <time>2016-09-10T09:40:12Z</time>
      </trkpt>
      <trkpt lat="46.03622" lon="4.76178">
        <ele>193</ele>
        <time>2016-09-10T09:40:14Z</time>
      </trkpt>
      <trkpt lat="46.03621" lon="4.76184">
        <ele>193</ele>
        <time>2016-09-10T09:40:15Z</time>
      </trkpt>
      <trkpt lat="46.03619" lon="4.76196">
        <ele>193</ele>
        <time>2016-09-10T09:40:17Z</time>
      </trkpt>
      <trkpt lat="46.03619" lon="4.76202">
        <ele>193</ele>
        <time>2016-09-10T09:40:18Z</time>
      </trkpt>
      <trkpt lat="46.03618" lon="4.76213">
        <ele>193</ele>
        <time>2016-09-10T09:40:20Z</time>
      </trkpt>
      <trkpt lat="46.0362" lon="4.76218">
        <ele>193</ele>
        <time>2016-09-10T09:40:21Z</time>
      </trkpt>
      <trkpt lat="46.0362" lon="4.7623">
        <ele>193</ele>
        <time>2016-09-10T09:40:23Z</time>
      </trkpt>
      <trkpt lat="46.03618" lon="4.76235">
        <ele>193</ele>
        <time>2016-09-10T09:40:24Z</time>
      </trkpt>
      <trkpt lat="46.03617" lon="4.76242">
        <ele>193</ele>
        <time>2016-09-10T09:40:25Z</time>
      </trkpt>
      <trkpt lat="46.03616" lon="4.76249">
        <ele>193</ele>
        <time>2016-09-10T09:40:26Z</time>
      </trkpt>
      <trkpt lat="46.03615" lon="4.76256">
        <ele>194</ele>
        <time>2016-09-10T09:40:27Z</time>
      </trkpt>
      <trkpt lat="46.03614" lon="4.76263">
        <ele>194</ele>
        <time>2016-09-10T09:40:28Z</time>
      </trkpt>
      <trkpt lat="46.03612" lon="4.76269">
        <ele>194</ele>
        <time>2016-09-10T09:40:29Z</time>
      </trkpt>
      <trkpt lat="46.03611" lon="4.76276">
        <ele>194</ele>
        <time>2016-09-10T09:40:30Z</time>
      </trkpt>
      <trkpt lat="46.03611" lon="4.76283">
        <ele>194</ele>
        <time>2016-09-10T09:40:31Z</time>
      </trkpt>
      <trkpt lat="46.0361" lon="4.76289">
        <ele>194</ele>
        <time>2016-09-10T09:40:32Z</time>
      </trkpt>
      <trkpt lat="46.03611" lon="4.76296">
        <ele>195</ele>
        <time>2016-09-10T09:40:33Z</time>
      </trkpt>
      <trkpt lat="46.03611" lon="4.76303">
        <ele>195</ele>
        <time>2016-09-10T09:40:34Z</time>
      </trkpt>
      <trkpt lat="46.03611" lon="4.7631">
        <ele>195</ele>
        <time>2016-09-10T09:40:35Z</time>
      </trkpt>
      <trkpt lat="46.03612" lon="4.76318">
        <ele>195</ele>
        <time>2016-09-10T09:40:36Z</time>
      </trkpt>
      <trkpt lat="46.03612" lon="4.76325">
        <ele>195</ele>
        <time>2016-09-10T09:40:37Z</time>
      </trkpt>
      <trkpt lat="46.03607" lon="4.76333">
        <ele>195</ele>
        <time>2016-09-10T09:40:38Z</time>
      </trkpt>
      <trkpt lat="46.03603" lon="4.76341">
        <ele>196</ele>
        <time>2016-09-10T09:40:39Z</time>
      </trkpt>
      <trkpt lat="46.03601" lon="4.76348">
        <ele>196</ele>
        <time>2016-09-10T09:40:40Z</time>
      </trkpt>
      <trkpt lat="46.036" lon="4.76356">
        <ele>196</ele>
        <time>2016-09-10T09:40:41Z</time>
      </trkpt>
      <trkpt lat="46.03599" lon="4.76364">
        <ele>197</ele>
        <time>2016-09-10T09:40:42Z</time>
      </trkpt>
      <trkpt lat="46.03598" lon="4.76371">
        <ele>197</ele>
        <time>2016-09-10T09:40:43Z</time>
      </trkpt>
      <trkpt lat="46.03597" lon="4.76378">
        <ele>197</ele>
        <time>2016-09-10T09:40:44Z</time>
      </trkpt>
      <trkpt lat="46.03597" lon="4.76385">
        <ele>197</ele>
        <time>2016-09-10T09:40:45Z</time>
      </trkpt>
      <trkpt lat="46.03597" lon="4.76392">
        <ele>197</ele>
        <time>2016-09-10T09:40:46Z</time>
      </trkpt>
      <trkpt lat="46.03596" lon="4.76398">
        <ele>198</ele>
        <time>2016-09-10T09:40:47Z</time>
      </trkpt>
      <trkpt lat="46.03595" lon="4.76404">
        <ele>198</ele>
        <time>2016-09-10T09:40:48Z</time>
      </trkpt>
      <trkpt lat="46.03593" lon="4.76417">
        <ele>199</ele>
        <time>2016-09-10T09:40:50Z</time>
      </trkpt>
      <trkpt lat="46.03593" lon="4.76424">
        <ele>199</ele>
        <time>2016-09-10T09:40:51Z</time>
      </trkpt>
      <trkpt lat="46.03593" lon="4.76437">
        <ele>199</ele>
        <time>2016-09-10T09:40:53Z</time>
      </trkpt>
      <trkpt lat="46.03592" lon="4.76442">
        <ele>199</ele>
        <time>2016-09-10T09:40:54Z</time>
      </trkpt>
      <trkpt lat="46.03592" lon="4.7645">
        <ele>199</ele>
        <time>2016-09-10T09:40:55Z</time>
      </trkpt>
      <trkpt lat="46.03593" lon="4.76457">
        <ele>199</ele>
        <time>2016-09-10T09:40:56Z</time>
      </trkpt>
      <trkpt lat="46.03594" lon="4.76465">
        <ele>199</ele>
        <time>2016-09-10T09:40:57Z</time>
      </trkpt>
      <trkpt lat="46.03597" lon="4.76472">
        <ele>199</ele>
        <time>2016-09-10T09:40:58Z</time>
      </trkpt>
      <trkpt lat="46.03602" lon="4.7648">
        <ele>199</ele>
        <time>2016-09-10T09:40:59Z</time>
      </trkpt>
      <trkpt lat="46.03605" lon="4.76486">
        <ele>199</ele>
        <time>2016-09-10T09:41:00Z</time>
      </trkpt>
      <trkpt lat="46.0361" lon="4.7649">
        <ele>199</ele>
        <time>2016-09-10T09:41:01Z</time>
      </trkpt>
      <trkpt lat="46.03614" lon="4.76494">
        <ele>199</ele>
        <time>2016-09-10T09:41:02Z</time>
      </trkpt>
      <trkpt lat="46.03618" lon="4.76497">
        <ele>199</ele>
        <time>2016-09-10T09:41:03Z</time>
      </trkpt>
      <trkpt lat="46.03622" lon="4.76501">
        <ele>200</ele>
        <time>2016-09-10T09:41:04Z</time>
      </trkpt>
      <trkpt lat="46.03625" lon="4.76506">
        <ele>200</ele>
        <time>2016-09-10T09:41:05Z</time>
      </trkpt>
      <trkpt lat="46.03628" lon="4.76511">
        <ele>200</ele>
        <time>2016-09-10T09:41:06Z</time>
      </trkpt>
      <trkpt lat="46.03633" lon="4.76521">
        <ele>200</ele>
        <time>2016-09-10T09:41:08Z</time>
      </trkpt>
      <trkpt lat="46.03635" lon="4.76527">
        <ele>200</ele>
        <time>2016-09-10T09:41:09Z</time>
      </trkpt>
      <trkpt lat="46.03636" lon="4.76533">
        <ele>200</ele>
        <time>2016-09-10T09:41:10Z</time>
      </trkpt>
      <trkpt lat="46.03639" lon="4.7654">
        <ele>200</ele>
        <time>2016-09-10T09:41:11Z</time>
      </trkpt>
      <trkpt lat="46.03641" lon="4.76547">
        <ele>200</ele>
        <time>2016-09-10T09:41:12Z</time>
      </trkpt>
      <trkpt lat="46.03642" lon="4.76554">
        <ele>201</ele>
        <time>2016-09-10T09:41:13Z</time>
      </trkpt>
      <trkpt lat="46.03644" lon="4.76565">
        <ele>201</ele>
        <time>2016-09-10T09:41:15Z</time>
      </trkpt>
      <trkpt lat="46.03647" lon="4.7657">
        <ele>201</ele>
        <time>2016-09-10T09:41:16Z</time>
      </trkpt>
      <trkpt lat="46.0365" lon="4.76575">
        <ele>201</ele>
        <time>2016-09-10T09:41:17Z</time>
      </trkpt>
      <trkpt lat="46.03654" lon="4.76579">
        <ele>201</ele>
        <time>2016-09-10T09:41:18Z</time>
      </trkpt>
      <trkpt lat="46.03661" lon="4.76587">
        <ele>202</ele>
        <time>2016-09-10T09:41:20Z</time>
      </trkpt>
      <trkpt lat="46.03664" lon="4.7659">
        <ele>202</ele>
        <time>2016-09-10T09:41:21Z</time>
      </trkpt>
      <trkpt lat="46.03667" lon="4.76594">
        <ele>202</ele>
        <time>2016-09-10T09:41:22Z</time>
      </trkpt>
      <trkpt lat="46.03672" lon="4.76599">
        <ele>203</ele>
        <time>2016-09-10T09:41:23Z</time>
      </trkpt>
      <trkpt lat="46.03677" lon="4.76609">
        <ele>203</ele>
        <time>2016-09-10T09:41:25Z</time>
      </trkpt>
      <trkpt lat="46.03677" lon="4.76614">
        <ele>203</ele>
        <time>2016-09-10T09:41:26Z</time>
      </trkpt>
      <trkpt lat="46.03679" lon="4.76626">
        <ele>203</ele>
        <time>2016-09-10T09:41:28Z</time>
      </trkpt>
      <trkpt lat="46.0368" lon="4.76632">
        <ele>203</ele>
        <time>2016-09-10T09:41:29Z</time>
      </trkpt>
      <trkpt lat="46.03681" lon="4.76644">
        <ele>204</ele>
        <time>2016-09-10T09:41:31Z</time>
      </trkpt>
      <trkpt lat="46.03682" lon="4.7665">
        <ele>204</ele>
        <time>2016-09-10T09:41:32Z</time>
      </trkpt>
      <trkpt lat="46.03686" lon="4.76662">
        <ele>204</ele>
        <time>2016-09-10T09:41:34Z</time>
      </trkpt>
      <trkpt lat="46.03688" lon="4.76667">
        <ele>205</ele>
        <time>2016-09-10T09:41:35Z</time>
      </trkpt>
      <trkpt lat="46.03694" lon="4.76677">
        <ele>205</ele>
        <time>2016-09-10T09:41:37Z</time>
      </trkpt>
      <trkpt lat="46.03697" lon="4.76681">
        <ele>205</ele>
        <time>2016-09-10T09:41:38Z</time>
      </trkpt>
      <trkpt lat="46.03703" lon="4.76687">
        <ele>205</ele>
        <time>2016-09-10T09:41:40Z</time>
      </trkpt>
      <trkpt lat="46.03706" lon="4.7669">
        <ele>205</ele>
        <time>2016-09-10T09:41:41Z</time>
      </trkpt>
      <trkpt lat="46.03713" lon="4.76694">
        <ele>205</ele>
        <time>2016-09-10T09:41:43Z</time>
      </trkpt>
      <trkpt lat="46.03716" lon="4.76696">
        <ele>205</ele>
        <time>2016-09-10T09:41:44Z</time>
      </trkpt>
      <trkpt lat="46.03724" lon="4.76699">
        <ele>205</ele>
        <time>2016-09-10T09:41:46Z</time>
      </trkpt>
      <trkpt lat="46.03728" lon="4.767">
        <ele>205</ele>
        <time>2016-09-10T09:41:47Z</time>
      </trkpt>
      <trkpt lat="46.03736" lon="4.76703">
        <ele>205</ele>
        <time>2016-09-10T09:41:49Z</time>
      </trkpt>
      <trkpt lat="46.0374" lon="4.76705">
        <ele>205</ele>
        <time>2016-09-10T09:41:50Z</time>
      </trkpt>
      <trkpt lat="46.03747" lon="4.76707">
        <ele>205</ele>
        <time>2016-09-10T09:41:52Z</time>
      </trkpt>
      <trkpt lat="46.03751" lon="4.76708">
        <ele>205</ele>
        <time>2016-09-10T09:41:53Z</time>
      </trkpt>
      <trkpt lat="46.03756" lon="4.76712">
        <ele>205</ele>
        <time>2016-09-10T09:41:54Z</time>
      </trkpt>
      <trkpt lat="46.0376" lon="4.76716">
        <ele>205</ele>
        <time>2016-09-10T09:41:55Z</time>
      </trkpt>
      <trkpt lat="46.03765" lon="4.76718">
        <ele>205</ele>
        <time>2016-09-10T09:41:56Z</time>
      </trkpt>
      <trkpt lat="46.03769" lon="4.76719">
        <ele>205</ele>
        <time>2016-09-10T09:41:57Z</time>
      </trkpt>
      <trkpt lat="46.03774" lon="4.76719">
        <ele>205</ele>
        <time>2016-09-10T09:41:58Z</time>
      </trkpt>
      <trkpt lat="46.03779" lon="4.76718">
        <ele>205</ele>
        <time>2016-09-10T09:41:59Z</time>
      </trkpt>
      <trkpt lat="46.03785" lon="4.76718">
        <ele>205</ele>
        <time>2016-09-10T09:42:00Z</time>
      </trkpt>
      <trkpt lat="46.03791" lon="4.76717">
        <ele>205</ele>
        <time>2016-09-10T09:42:01Z</time>
      </trkpt>
      <trkpt lat="46.03796" lon="4.76716">
        <ele>205</ele>
        <time>2016-09-10T09:42:02Z</time>
      </trkpt>
      <trkpt lat="46.038" lon="4.76716">
        <ele>205</ele>
        <time>2016-09-10T09:42:03Z</time>
      </trkpt>
      <trkpt lat="46.03805" lon="4.76716">
        <ele>205</ele>
        <time>2016-09-10T09:42:04Z</time>
      </trkpt>
      <trkpt lat="46.0381" lon="4.76716">
        <ele>205</ele>
        <time>2016-09-10T09:42:05Z</time>
      </trkpt>
      <trkpt lat="46.03815" lon="4.76716">
        <ele>205</ele>
        <time>2016-09-10T09:42:06Z</time>
      </trkpt>
      <trkpt lat="46.03819" lon="4.76716">
        <ele>205</ele>
        <time>2016-09-10T09:42:07Z</time>
      </trkpt>
      <trkpt lat="46.03824" lon="4.76716">
        <ele>205</ele>
        <time>2016-09-10T09:42:08Z</time>
      </trkpt>
      <trkpt lat="46.03829" lon="4.76715">
        <ele>205</ele>
        <time>2016-09-10T09:42:09Z</time>
      </trkpt>
      <trkpt lat="46.03835" lon="4.76715">
        <ele>205</ele>
        <time>2016-09-10T09:42:10Z</time>
      </trkpt>
      <trkpt lat="46.03839" lon="4.76714">
        <ele>205</ele>
        <time>2016-09-10T09:42:11Z</time>
      </trkpt>
      <trkpt lat="46.03847" lon="4.76712">
        <ele>205</ele>
        <time>2016-09-10T09:42:13Z</time>
      </trkpt>
      <trkpt lat="46.03852" lon="4.76709">
        <ele>205</ele>
        <time>2016-09-10T09:42:14Z</time>
      </trkpt>
      <trkpt lat="46.0386" lon="4.76707">
        <ele>205</ele>
        <time>2016-09-10T09:42:16Z</time>
      </trkpt>
      <trkpt lat="46.03865" lon="4.76706">
        <ele>205</ele>
        <time>2016-09-10T09:42:17Z</time>
      </trkpt>
      <trkpt lat="46.03873" lon="4.76703">
        <ele>205</ele>
        <time>2016-09-10T09:42:19Z</time>
      </trkpt>
      <trkpt lat="46.03877" lon="4.76702">
        <ele>205</ele>
        <time>2016-09-10T09:42:20Z</time>
      </trkpt>
      <trkpt lat="46.03883" lon="4.767">
        <ele>205</ele>
        <time>2016-09-10T09:42:21Z</time>
      </trkpt>
      <trkpt lat="46.03888" lon="4.76699">
        <ele>205</ele>
        <time>2016-09-10T09:42:22Z</time>
      </trkpt>
      <trkpt lat="46.03894" lon="4.76697">
        <ele>205</ele>
        <time>2016-09-10T09:42:23Z</time>
      </trkpt>
      <trkpt lat="46.03899" lon="4.76696">
        <ele>205</ele>
        <time>2016-09-10T09:42:24Z</time>
      </trkpt>
      <trkpt lat="46.03905" lon="4.76694">
        <ele>205</ele>
        <time>2016-09-10T09:42:25Z</time>
      </trkpt>
      <trkpt lat="46.03911" lon="4.76693">
        <ele>205</ele>
        <time>2016-09-10T09:42:26Z</time>
      </trkpt>
      <trkpt lat="46.03917" lon="4.76692">
        <ele>205</ele>
        <time>2016-09-10T09:42:27Z</time>
      </trkpt>
      <trkpt lat="46.03923" lon="4.76692">
        <ele>204</ele>
        <time>2016-09-10T09:42:28Z</time>
      </trkpt>
      <trkpt lat="46.03929" lon="4.76691">
        <ele>204</ele>
        <time>2016-09-10T09:42:29Z</time>
      </trkpt>
      <trkpt lat="46.03936" lon="4.7669">
        <ele>204</ele>
        <time>2016-09-10T09:42:30Z</time>
      </trkpt>
      <trkpt lat="46.03942" lon="4.76688">
        <ele>204</ele>
        <time>2016-09-10T09:42:31Z</time>
      </trkpt>
      <trkpt lat="46.03948" lon="4.76686">
        <ele>204</ele>
        <time>2016-09-10T09:42:32Z</time>
      </trkpt>
      <trkpt lat="46.03953" lon="4.76685">
        <ele>204</ele>
        <time>2016-09-10T09:42:33Z</time>
      </trkpt>
      <trkpt lat="46.03958" lon="4.76683">
        <ele>204</ele>
        <time>2016-09-10T09:42:34Z</time>
      </trkpt>
      <trkpt lat="46.03964" lon="4.76682">
        <ele>203</ele>
        <time>2016-09-10T09:42:35Z</time>
      </trkpt>
      <trkpt lat="46.03969" lon="4.76681">
        <ele>203</ele>
        <time>2016-09-10T09:42:36Z</time>
      </trkpt>
      <trkpt lat="46.03975" lon="4.7668">
        <ele>203</ele>
        <time>2016-09-10T09:42:37Z</time>
      </trkpt>
      <trkpt lat="46.0398" lon="4.76679">
        <ele>203</ele>
        <time>2016-09-10T09:42:38Z</time>
      </trkpt>
      <trkpt lat="46.03985" lon="4.76677">
        <ele>203</ele>
        <time>2016-09-10T09:42:39Z</time>
      </trkpt>
      <trkpt lat="46.0399" lon="4.76676">
        <ele>203</ele>
        <time>2016-09-10T09:42:40Z</time>
      </trkpt>
      <trkpt lat="46.03996" lon="4.76674">
        <ele>202</ele>
        <time>2016-09-10T09:42:41Z</time>
      </trkpt>
      <trkpt lat="46.04001" lon="4.76673">
        <ele>202</ele>
        <time>2016-09-10T09:42:42Z</time>
      </trkpt>
      <trkpt lat="46.04006" lon="4.76672">
        <ele>202</ele>
        <time>2016-09-10T09:42:43Z</time>
      </trkpt>
      <trkpt lat="46.04012" lon="4.76671">
        <ele>202</ele>
        <time>2016-09-10T09:42:44Z</time>
      </trkpt>
      <trkpt lat="46.04018" lon="4.7667">
        <ele>202</ele>
        <time>2016-09-10T09:42:45Z</time>
      </trkpt>
      <trkpt lat="46.04023" lon="4.7667">
        <ele>202</ele>
        <time>2016-09-10T09:42:46Z</time>
      </trkpt>
      <trkpt lat="46.04029" lon="4.76669">
        <ele>202</ele>
        <time>2016-09-10T09:42:47Z</time>
      </trkpt>
      <trkpt lat="46.04035" lon="4.76668">
        <ele>202</ele>
        <time>2016-09-10T09:42:48Z</time>
      </trkpt>
      <trkpt lat="46.04041" lon="4.76667">
        <ele>202</ele>
        <time>2016-09-10T09:42:49Z</time>
      </trkpt>
      <trkpt lat="46.04047" lon="4.76666">
        <ele>201</ele>
        <time>2016-09-10T09:42:50Z</time>
      </trkpt>
      <trkpt lat="46.04053" lon="4.76665">
        <ele>201</ele>
        <time>2016-09-10T09:42:51Z</time>
      </trkpt>
      <trkpt lat="46.04059" lon="4.76664">
        <ele>201</ele>
        <time>2016-09-10T09:42:52Z</time>
      </trkpt>
      <trkpt lat="46.04064" lon="4.76664">
        <ele>201</ele>
        <time>2016-09-10T09:42:53Z</time>
      </trkpt>
      <trkpt lat="46.04069" lon="4.76662">
        <ele>201</ele>
        <time>2016-09-10T09:42:54Z</time>
      </trkpt>
      <trkpt lat="46.04075" lon="4.76662">
        <ele>202</ele>
        <time>2016-09-10T09:42:55Z</time>
      </trkpt>
      <trkpt lat="46.04082" lon="4.7666">
        <ele>202</ele>
        <time>2016-09-10T09:42:56Z</time>
      </trkpt>
      <trkpt lat="46.04087" lon="4.76659">
        <ele>201</ele>
        <time>2016-09-10T09:42:57Z</time>
      </trkpt>
      <trkpt lat="46.04093" lon="4.76658">
        <ele>201</ele>
        <time>2016-09-10T09:42:58Z</time>
      </trkpt>
      <trkpt lat="46.04099" lon="4.76658">
        <ele>201</ele>
        <time>2016-09-10T09:42:59Z</time>
      </trkpt>
      <trkpt lat="46.04105" lon="4.76658">
        <ele>201</ele>
        <time>2016-09-10T09:43:00Z</time>
      </trkpt>
      <trkpt lat="46.04111" lon="4.76657">
        <ele>200</ele>
        <time>2016-09-10T09:43:01Z</time>
      </trkpt>
      <trkpt lat="46.04118" lon="4.76656">
        <ele>200</ele>
        <time>2016-09-10T09:43:02Z</time>
      </trkpt>
      <trkpt lat="46.04124" lon="4.76654">
        <ele>200</ele>
        <time>2016-09-10T09:43:03Z</time>
      </trkpt>
      <trkpt lat="46.04131" lon="4.76652">
        <ele>200</ele>
        <time>2016-09-10T09:43:04Z</time>
      </trkpt>
      <trkpt lat="46.04138" lon="4.76649">
        <ele>200</ele>
        <time>2016-09-10T09:43:05Z</time>
      </trkpt>
      <trkpt lat="46.04144" lon="4.76645">
        <ele>200</ele>
        <time>2016-09-10T09:43:06Z</time>
      </trkpt>
      <trkpt lat="46.0415" lon="4.76641">
        <ele>200</ele>
        <time>2016-09-10T09:43:07Z</time>
      </trkpt>
      <trkpt lat="46.04155" lon="4.76636">
        <ele>200</ele>
        <time>2016-09-10T09:43:08Z</time>
      </trkpt>
      <trkpt lat="46.04161" lon="4.76631">
        <ele>199</ele>
        <time>2016-09-10T09:43:09Z</time>
      </trkpt>
      <trkpt lat="46.04166" lon="4.76626">
        <ele>199</ele>
        <time>2016-09-10T09:43:10Z</time>
      </trkpt>
      <trkpt lat="46.04172" lon="4.76621">
        <ele>198</ele>
        <time>2016-09-10T09:43:11Z</time>
      </trkpt>
      <trkpt lat="46.04177" lon="4.76615">
        <ele>198</ele>
        <time>2016-09-10T09:43:12Z</time>
      </trkpt>
      <trkpt lat="46.04183" lon="4.76608">
        <ele>198</ele>
        <time>2016-09-10T09:43:13Z</time>
      </trkpt>
      <trkpt lat="46.04189" lon="4.76604">
        <ele>198</ele>
        <time>2016-09-10T09:43:14Z</time>
      </trkpt>
      <trkpt lat="46.04195" lon="4.766">
        <ele>198</ele>
        <time>2016-09-10T09:43:15Z</time>
      </trkpt>
      <trkpt lat="46.04202" lon="4.76597">
        <ele>198</ele>
        <time>2016-09-10T09:43:16Z</time>
      </trkpt>
      <trkpt lat="46.04208" lon="4.76595">
        <ele>198</ele>
        <time>2016-09-10T09:43:17Z</time>
      </trkpt>
      <trkpt lat="46.04215" lon="4.76593">
        <ele>198</ele>
        <time>2016-09-10T09:43:18Z</time>
      </trkpt>
      <trkpt lat="46.04222" lon="4.76592">
        <ele>198</ele>
        <time>2016-09-10T09:43:19Z</time>
      </trkpt>
      <trkpt lat="46.04229" lon="4.76591">
        <ele>198</ele>
        <time>2016-09-10T09:43:20Z</time>
      </trkpt>
      <trkpt lat="46.04237" lon="4.7659">
        <ele>197</ele>
        <time>2016-09-10T09:43:21Z</time>
      </trkpt>
      <trkpt lat="46.04244" lon="4.7659">
        <ele>197</ele>
        <time>2016-09-10T09:43:22Z</time>
      </trkpt>
      <trkpt lat="46.0425" lon="4.7659">
        <ele>197</ele>
        <time>2016-09-10T09:43:23Z</time>
      </trkpt>
      <trkpt lat="46.04258" lon="4.7659">
        <ele>197</ele>
        <time>2016-09-10T09:43:24Z</time>
      </trkpt>
      <trkpt lat="46.04265" lon="4.76589">
        <ele>197</ele>
        <time>2016-09-10T09:43:25Z</time>
      </trkpt>
      <trkpt lat="46.04272" lon="4.76589">
        <ele>198</ele>
        <time>2016-09-10T09:43:26Z</time>
      </trkpt>
      <trkpt lat="46.04281" lon="4.76589">
        <ele>198</ele>
        <time>2016-09-10T09:43:27Z</time>
      </trkpt>
      <trkpt lat="46.04289" lon="4.76588">
        <ele>198</ele>
        <time>2016-09-10T09:43:28Z</time>
      </trkpt>
      <trkpt lat="46.04297" lon="4.76586">
        <ele>198</ele>
        <time>2016-09-10T09:43:29Z</time>
      </trkpt>
      <trkpt lat="46.04305" lon="4.76585">
        <ele>198</ele>
        <time>2016-09-10T09:43:30Z</time>
      </trkpt>
      <trkpt lat="46.04312" lon="4.76585">
        <ele>198</ele>
        <time>2016-09-10T09:43:31Z</time>
      </trkpt>
      <trkpt lat="46.04319" lon="4.76585">
        <ele>198</ele>
        <time>2016-09-10T09:43:32Z</time>
      </trkpt>
      <trkpt lat="46.04327" lon="4.76585">
        <ele>199</ele>
        <time>2016-09-10T09:43:33Z</time>
      </trkpt>
      <trkpt lat="46.04333" lon="4.76585">
        <ele>199</ele>
        <time>2016-09-10T09:43:34Z</time>
      </trkpt>
      <trkpt lat="46.0434" lon="4.76585">
        <ele>199</ele>
        <time>2016-09-10T09:43:35Z</time>
      </trkpt>
      <trkpt lat="46.04347" lon="4.76584">
        <ele>199</ele>
        <time>2016-09-10T09:43:36Z</time>
      </trkpt>
      <trkpt lat="46.04355" lon="4.76583">
        <ele>198</ele>
        <time>2016-09-10T09:43:37Z</time>
      </trkpt>
      <trkpt lat="46.04363" lon="4.76582">
        <ele>198</ele>
        <time>2016-09-10T09:43:38Z</time>
      </trkpt>
      <trkpt lat="46.0437" lon="4.76581">
        <ele>197</ele>
        <time>2016-09-10T09:43:39Z</time>
      </trkpt>
      <trkpt lat="46.04377" lon="4.7658">
        <ele>197</ele>
        <time>2016-09-10T09:43:40Z</time>
      </trkpt>
      <trkpt lat="46.04385" lon="4.76579">
        <ele>197</ele>
        <time>2016-09-10T09:43:41Z</time>
      </trkpt>
      <trkpt lat="46.04393" lon="4.76578">
        <ele>198</ele>
        <time>2016-09-10T09:43:42Z</time>
      </trkpt>
      <trkpt lat="46.044" lon="4.76578">
        <ele>198</ele>
        <time>2016-09-10T09:43:43Z</time>
      </trkpt>
      <trkpt lat="46.04407" lon="4.76576">
        <ele>198</ele>
        <time>2016-09-10T09:43:44Z</time>
      </trkpt>
      <trkpt lat="46.04414" lon="4.76575">
        <ele>198</ele>
        <time>2016-09-10T09:43:45Z</time>
      </trkpt>
      <trkpt lat="46.0442" lon="4.76573">
        <ele>197</ele>
        <time>2016-09-10T09:43:46Z</time>
      </trkpt>
      <trkpt lat="46.04427" lon="4.76572">
        <ele>196</ele>
        <time>2016-09-10T09:43:47Z</time>
      </trkpt>
      <trkpt lat="46.04433" lon="4.76571">
        <ele>196</ele>
        <time>2016-09-10T09:43:48Z</time>
      </trkpt>
      <trkpt lat="46.0444" lon="4.7657">
        <ele>195</ele>
        <time>2016-09-10T09:43:49Z</time>
      </trkpt>
      <trkpt lat="46.04446" lon="4.7657">
        <ele>195</ele>
        <time>2016-09-10T09:43:50Z</time>
      </trkpt>
      <trkpt lat="46.04453" lon="4.76569">
        <ele>194</ele>
        <time>2016-09-10T09:43:51Z</time>
      </trkpt>
      <trkpt lat="46.04459" lon="4.76569">
        <ele>194</ele>
        <time>2016-09-10T09:43:52Z</time>
      </trkpt>
      <trkpt lat="46.04466" lon="4.76568">
        <ele>194</ele>
        <time>2016-09-10T09:43:53Z</time>
      </trkpt>
      <trkpt lat="46.04472" lon="4.76567">
        <ele>193</ele>
        <time>2016-09-10T09:43:54Z</time>
      </trkpt>
      <trkpt lat="46.04479" lon="4.76566">
        <ele>193</ele>
        <time>2016-09-10T09:43:55Z</time>
      </trkpt>
      <trkpt lat="46.04486" lon="4.76566">
        <ele>193</ele>
        <time>2016-09-10T09:43:56Z</time>
      </trkpt>
      <trkpt lat="46.04493" lon="4.76566">
        <ele>192</ele>
        <time>2016-09-10T09:43:57Z</time>
      </trkpt>
      <trkpt lat="46.04499" lon="4.76569">
        <ele>192</ele>
        <time>2016-09-10T09:43:58Z</time>
      </trkpt>
      <trkpt lat="46.04507" lon="4.76568">
        <ele>190</ele>
        <time>2016-09-10T09:44:00Z</time>
      </trkpt>
      <trkpt lat="46.04511" lon="4.76568">
        <ele>189</ele>
        <time>2016-09-10T09:44:01Z</time>
      </trkpt>
      <trkpt lat="46.04514" lon="4.76569">
        <ele>189</ele>
        <time>2016-09-10T09:44:02Z</time>
      </trkpt>
      <trkpt lat="46.0452" lon="4.76569">
        <ele>189</ele>
        <time>2016-09-10T09:44:03Z</time>
      </trkpt>
      <trkpt lat="46.04524" lon="4.7657">
        <ele>189</ele>
        <time>2016-09-10T09:44:04Z</time>
      </trkpt>
      <trkpt lat="46.0453" lon="4.76568">
        <ele>189</ele>
        <time>2016-09-10T09:44:05Z</time>
      </trkpt>
      <trkpt lat="46.04535" lon="4.76566">
        <ele>188</ele>
        <time>2016-09-10T09:44:06Z</time>
      </trkpt>
      <trkpt lat="46.04542" lon="4.76563">
        <ele>188</ele>
        <time>2016-09-10T09:44:07Z</time>
      </trkpt>
      <trkpt lat="46.04547" lon="4.7656">
        <ele>188</ele>
        <time>2016-09-10T09:44:08Z</time>
      </trkpt>
      <trkpt lat="46.04553" lon="4.76558">
        <ele>188</ele>
        <time>2016-09-10T09:44:09Z</time>
      </trkpt>
      <trkpt lat="46.0456" lon="4.76555">
        <ele>188</ele>
        <time>2016-09-10T09:44:10Z</time>
      </trkpt>
      <trkpt lat="46.04566" lon="4.76553">
        <ele>187</ele>
        <time>2016-09-10T09:44:11Z</time>
      </trkpt>
      <trkpt lat="46.04572" lon="4.76551">
        <ele>187</ele>
        <time>2016-09-10T09:44:12Z</time>
      </trkpt>
      <trkpt lat="46.04578" lon="4.76548">
        <ele>187</ele>
        <time>2016-09-10T09:44:13Z</time>
      </trkpt>
      <trkpt lat="46.04584" lon="4.76545">
        <ele>186</ele>
        <time>2016-09-10T09:44:14Z</time>
      </trkpt>
      <trkpt lat="46.04589" lon="4.76542">
        <ele>186</ele>
        <time>2016-09-10T09:44:15Z</time>
      </trkpt>
      <trkpt lat="46.04595" lon="4.76539">
        <ele>186</ele>
        <time>2016-09-10T09:44:16Z</time>
      </trkpt>
      <trkpt lat="46.046" lon="4.76537">
        <ele>186</ele>
        <time>2016-09-10T09:44:17Z</time>
      </trkpt>
      <trkpt lat="46.04605" lon="4.76534">
        <ele>186</ele>
        <time>2016-09-10T09:44:18Z</time>
      </trkpt>
      <trkpt lat="46.04611" lon="4.76532">
        <ele>186</ele>
        <time>2016-09-10T09:44:19Z</time>
      </trkpt>
      <trkpt lat="46.04616" lon="4.7653">
        <ele>186</ele>
        <time>2016-09-10T09:44:20Z</time>
      </trkpt>
      <trkpt lat="46.04622" lon="4.76527">
        <ele>186</ele>
        <time>2016-09-10T09:44:21Z</time>
      </trkpt>
      <trkpt lat="46.04626" lon="4.76524">
        <ele>186</ele>
        <time>2016-09-10T09:44:22Z</time>
      </trkpt>
      <trkpt lat="46.04631" lon="4.76521">
        <ele>186</ele>
        <time>2016-09-10T09:44:23Z</time>
      </trkpt>
      <trkpt lat="46.04636" lon="4.76519">
        <ele>186</ele>
        <time>2016-09-10T09:44:24Z</time>
      </trkpt>
      <trkpt lat="46.04641" lon="4.76517">
        <ele>186</ele>
        <time>2016-09-10T09:44:25Z</time>
      </trkpt>
      <trkpt lat="46.04646" lon="4.76515">
        <ele>186</ele>
        <time>2016-09-10T09:44:26Z</time>
      </trkpt>
      <trkpt lat="46.04651" lon="4.76513">
        <ele>186</ele>
        <time>2016-09-10T09:44:27Z</time>
      </trkpt>
      <trkpt lat="46.04659" lon="4.76508">
        <ele>186</ele>
        <time>2016-09-10T09:44:29Z</time>
      </trkpt>
      <trkpt lat="46.04661" lon="4.76507">
        <ele>186</ele>
        <time>2016-09-10T09:44:30Z</time>
      </trkpt>
      <trkpt lat="46.04667" lon="4.76504">
        <ele>186</ele>
        <time>2016-09-10T09:44:32Z</time>
      </trkpt>
      <trkpt lat="46.04669" lon="4.765">
        <ele>186</ele>
        <time>2016-09-10T09:44:33Z</time>
      </trkpt>
      <trkpt lat="46.04672" lon="4.76492">
        <ele>187</ele>
        <time>2016-09-10T09:44:37Z</time>
      </trkpt>
      <trkpt lat="46.04672" lon="4.7649">
        <ele>187</ele>
        <time>2016-09-10T09:44:38Z</time>
      </trkpt>
      <trkpt lat="46.04672" lon="4.76491">
        <ele>187</ele>
        <time>2016-09-10T09:44:48Z</time>
      </trkpt>
      <trkpt lat="46.04672" lon="4.7649">
        <ele>187</ele>
        <time>2016-09-10T09:44:49Z</time>
      </trkpt>
      <trkpt lat="46.04679" lon="4.76487">
        <ele>187</ele>
        <time>2016-09-10T09:45:00Z</time>
      </trkpt>
      <trkpt lat="46.04681" lon="4.76488">
        <ele>187</ele>
        <time>2016-09-10T09:45:01Z</time>
      </trkpt>
      <trkpt lat="46.04688" lon="4.76493">
        <ele>188</ele>
        <time>2016-09-10T09:45:04Z</time>
      </trkpt>
      <trkpt lat="46.04691" lon="4.76493">
        <ele>188</ele>
        <time>2016-09-10T09:45:05Z</time>
      </trkpt>
      <trkpt lat="46.04699" lon="4.76493">
        <ele>188</ele>
        <time>2016-09-10T09:45:07Z</time>
      </trkpt>
      <trkpt lat="46.04703" lon="4.76493">
        <ele>188</ele>
        <time>2016-09-10T09:45:08Z</time>
      </trkpt>
      <trkpt lat="46.04711" lon="4.76492">
        <ele>189</ele>
        <time>2016-09-10T09:45:10Z</time>
      </trkpt>
      <trkpt lat="46.04715" lon="4.76491">
        <ele>189</ele>
        <time>2016-09-10T09:45:11Z</time>
      </trkpt>
      <trkpt lat="46.04723" lon="4.76488">
        <ele>189</ele>
        <time>2016-09-10T09:45:13Z</time>
      </trkpt>
      <trkpt lat="46.04727" lon="4.76487">
        <ele>189</ele>
        <time>2016-09-10T09:45:14Z</time>
      </trkpt>
      <trkpt lat="46.04735" lon="4.76484">
        <ele>190</ele>
        <time>2016-09-10T09:45:16Z</time>
      </trkpt>
      <trkpt lat="46.04739" lon="4.76483">
        <ele>190</ele>
        <time>2016-09-10T09:45:17Z</time>
      </trkpt>
      <trkpt lat="46.04747" lon="4.7648">
        <ele>190</ele>
        <time>2016-09-10T09:45:19Z</time>
      </trkpt>
      <trkpt lat="46.04751" lon="4.76479">
        <ele>192</ele>
        <time>2016-09-10T09:45:20Z</time>
      </trkpt>
      <trkpt lat="46.04759" lon="4.76474">
        <ele>192</ele>
        <time>2016-09-10T09:45:22Z</time>
      </trkpt>
      <trkpt lat="46.04762" lon="4.76472">
        <ele>192</ele>
        <time>2016-09-10T09:45:23Z</time>
      </trkpt>
      <trkpt lat="46.0477" lon="4.76467">
        <ele>192</ele>
        <time>2016-09-10T09:45:25Z</time>
      </trkpt>
      <trkpt lat="46.04773" lon="4.76464">
        <ele>192</ele>
        <time>2016-09-10T09:45:26Z</time>
      </trkpt>
      <trkpt lat="46.0478" lon="4.76458">
        <ele>192</ele>
        <time>2016-09-10T09:45:28Z</time>
      </trkpt>
      <trkpt lat="46.04784" lon="4.76456">
        <ele>192</ele>
        <time>2016-09-10T09:45:29Z</time>
      </trkpt>
      <trkpt lat="46.04792" lon="4.76452">
        <ele>192</ele>
        <time>2016-09-10T09:45:31Z</time>
      </trkpt>
      <trkpt lat="46.04796" lon="4.76448">
        <ele>193</ele>
        <time>2016-09-10T09:45:32Z</time>
      </trkpt>
      <trkpt lat="46.04802" lon="4.76444">
        <ele>193</ele>
        <time>2016-09-10T09:45:34Z</time>
      </trkpt>
      <trkpt lat="46.04805" lon="4.76443">
        <ele>193</ele>
        <time>2016-09-10T09:45:35Z</time>
      </trkpt>
      <trkpt lat="46.04812" lon="4.7644">
        <ele>193</ele>
        <time>2016-09-10T09:45:37Z</time>
      </trkpt>
      <trkpt lat="46.04815" lon="4.76439">
        <ele>193</ele>
        <time>2016-09-10T09:45:38Z</time>
      </trkpt>
      <trkpt lat="46.04822" lon="4.76441">
        <ele>193</ele>
        <time>2016-09-10T09:45:40Z</time>
      </trkpt>
      <trkpt lat="46.04826" lon="4.76443">
        <ele>193</ele>
        <time>2016-09-10T09:45:41Z</time>
      </trkpt>
      <trkpt lat="46.04835" lon="4.76444">
        <ele>194</ele>
        <time>2016-09-10T09:45:43Z</time>
      </trkpt>
      <trkpt lat="46.04838" lon="4.76446">
        <ele>194</ele>
        <time>2016-09-10T09:45:44Z</time>
      </trkpt>
      <trkpt lat="46.04845" lon="4.76448">
        <ele>193</ele>
        <time>2016-09-10T09:45:46Z</time>
      </trkpt>
      <trkpt lat="46.04849" lon="4.76449">
        <ele>193</ele>
        <time>2016-09-10T09:45:47Z</time>
      </trkpt>
      <trkpt lat="46.04856" lon="4.76451">
        <ele>193</ele>
        <time>2016-09-10T09:45:49Z</time>
      </trkpt>
      <trkpt lat="46.04859" lon="4.76452">
        <ele>193</ele>
        <time>2016-09-10T09:45:50Z</time>
      </trkpt>
      <trkpt lat="46.04867" lon="4.76453">
        <ele>193</ele>
        <time>2016-09-10T09:45:52Z</time>
      </trkpt>
      <trkpt lat="46.04871" lon="4.76454">
        <ele>193</ele>
        <time>2016-09-10T09:45:53Z</time>
      </trkpt>
      <trkpt lat="46.04879" lon="4.76455">
        <ele>193</ele>
        <time>2016-09-10T09:45:55Z</time>
      </trkpt>
      <trkpt lat="46.04884" lon="4.76455">
        <ele>193</ele>
        <time>2016-09-10T09:45:56Z</time>
      </trkpt>
      <trkpt lat="46.04889" lon="4.76454">
        <ele>193</ele>
        <time>2016-09-10T09:45:57Z</time>
      </trkpt>
      <trkpt lat="46.04894" lon="4.76453">
        <ele>193</ele>
        <time>2016-09-10T09:45:58Z</time>
      </trkpt>
      <trkpt lat="46.04898" lon="4.76453">
        <ele>193</ele>
        <time>2016-09-10T09:45:59Z</time>
      </trkpt>
      <trkpt lat="46.04903" lon="4.76451">
        <ele>193</ele>
        <time>2016-09-10T09:46:00Z</time>
      </trkpt>
      <trkpt lat="46.04908" lon="4.76449">
        <ele>193</ele>
        <time>2016-09-10T09:46:01Z</time>
      </trkpt>
      <trkpt lat="46.04913" lon="4.76446">
        <ele>193</ele>
        <time>2016-09-10T09:46:02Z</time>
      </trkpt>
      <trkpt lat="46.04918" lon="4.76443">
        <ele>191</ele>
        <time>2016-09-10T09:46:03Z</time>
      </trkpt>
      <trkpt lat="46.04923" lon="4.7644">
        <ele>191</ele>
        <time>2016-09-10T09:46:04Z</time>
      </trkpt>
      <trkpt lat="46.04927" lon="4.76438">
        <ele>191</ele>
        <time>2016-09-10T09:46:05Z</time>
      </trkpt>
      <trkpt lat="46.04932" lon="4.76435">
        <ele>191</ele>
        <time>2016-09-10T09:46:06Z</time>
      </trkpt>
      <trkpt lat="46.04937" lon="4.76433">
        <ele>191</ele>
        <time>2016-09-10T09:46:07Z</time>
      </trkpt>
      <trkpt lat="46.04945" lon="4.76437">
        <ele>191</ele>
        <time>2016-09-10T09:46:08Z</time>
      </trkpt>
      <trkpt lat="46.04951" lon="4.7644">
        <ele>191</ele>
        <time>2016-09-10T09:46:09Z</time>
      </trkpt>
      <trkpt lat="46.04956" lon="4.76442">
        <ele>191</ele>
        <time>2016-09-10T09:46:10Z</time>
      </trkpt>
      <trkpt lat="46.0496" lon="4.76447">
        <ele>191</ele>
        <time>2016-09-10T09:46:11Z</time>
      </trkpt>
      <trkpt lat="46.04963" lon="4.76452">
        <ele>191</ele>
        <time>2016-09-10T09:46:12Z</time>
      </trkpt>
      <trkpt lat="46.04968" lon="4.76461">
        <ele>191</ele>
        <time>2016-09-10T09:46:14Z</time>
      </trkpt>
      <trkpt lat="46.0497" lon="4.76466">
        <ele>191</ele>
        <time>2016-09-10T09:46:15Z</time>
      </trkpt>
      <trkpt lat="46.04973" lon="4.76472">
        <ele>191</ele>
        <time>2016-09-10T09:46:16Z</time>
      </trkpt>
      <trkpt lat="46.04976" lon="4.76479">
        <ele>191</ele>
        <time>2016-09-10T09:46:17Z</time>
      </trkpt>
      <trkpt lat="46.0498" lon="4.7649">
        <ele>190</ele>
        <time>2016-09-10T09:46:19Z</time>
      </trkpt>
      <trkpt lat="46.04982" lon="4.76494">
        <ele>190</ele>
        <time>2016-09-10T09:46:20Z</time>
      </trkpt>
      <trkpt lat="46.04985" lon="4.76504">
        <ele>191</ele>
        <time>2016-09-10T09:46:22Z</time>
      </trkpt>
      <trkpt lat="46.04986" lon="4.76509">
        <ele>191</ele>
        <time>2016-09-10T09:46:23Z</time>
      </trkpt>
      <trkpt lat="46.04988" lon="4.76515">
        <ele>191</ele>
        <time>2016-09-10T09:46:24Z</time>
      </trkpt>
      <trkpt lat="46.04993" lon="4.7652">
        <ele>191</ele>
        <time>2016-09-10T09:46:25Z</time>
      </trkpt>
      <trkpt lat="46.04995" lon="4.76531">
        <ele>191</ele>
        <time>2016-09-10T09:46:27Z</time>
      </trkpt>
      <trkpt lat="46.04995" lon="4.76535">
        <ele>191</ele>
        <time>2016-09-10T09:46:28Z</time>
      </trkpt>
      <trkpt lat="46.04995" lon="4.76544">
        <ele>192</ele>
        <time>2016-09-10T09:46:30Z</time>
      </trkpt>
      <trkpt lat="46.04997" lon="4.76548">
        <ele>192</ele>
        <time>2016-09-10T09:46:31Z</time>
      </trkpt>
      <trkpt lat="46.05001" lon="4.76558">
        <ele>191</ele>
        <time>2016-09-10T09:46:35Z</time>
      </trkpt>
      <trkpt lat="46.05001" lon="4.76562">
        <ele>191</ele>
        <time>2016-09-10T09:46:36Z</time>
      </trkpt>
      <trkpt lat="46.05002" lon="4.7657">
        <ele>191</ele>
        <time>2016-09-10T09:46:38Z</time>
      </trkpt>
      <trkpt lat="46.05006" lon="4.76573">
        <ele>191</ele>
        <time>2016-09-10T09:46:39Z</time>
      </trkpt>
      <trkpt lat="46.0501" lon="4.76574">
        <ele>191</ele>
        <time>2016-09-10T09:46:40Z</time>
      </trkpt>
      <trkpt lat="46.05015" lon="4.76574">
        <ele>191</ele>
        <time>2016-09-10T09:46:41Z</time>
      </trkpt>
      <trkpt lat="46.0502" lon="4.76575">
        <ele>191</ele>
        <time>2016-09-10T09:46:42Z</time>
      </trkpt>
      <trkpt lat="46.05025" lon="4.76578">
        <ele>190</ele>
        <time>2016-09-10T09:46:43Z</time>
      </trkpt>
      <trkpt lat="46.0503" lon="4.76581">
        <ele>190</ele>
        <time>2016-09-10T09:46:44Z</time>
      </trkpt>
      <trkpt lat="46.05034" lon="4.76585">
        <ele>192</ele>
        <time>2016-09-10T09:46:45Z</time>
      </trkpt>
      <trkpt lat="46.05039" lon="4.76588">
        <ele>192</ele>
        <time>2016-09-10T09:46:46Z</time>
      </trkpt>
      <trkpt lat="46.05044" lon="4.76591">
        <ele>191</ele>
        <time>2016-09-10T09:46:47Z</time>
      </trkpt>
      <trkpt lat="46.05048" lon="4.76595">
        <ele>191</ele>
        <time>2016-09-10T09:46:48Z</time>
      </trkpt>
      <trkpt lat="46.05052" lon="4.76599">
        <ele>191</ele>
        <time>2016-09-10T09:46:49Z</time>
      </trkpt>
      <trkpt lat="46.05057" lon="4.76602">
        <ele>191</ele>
        <time>2016-09-10T09:46:50Z</time>
      </trkpt>
      <trkpt lat="46.05061" lon="4.76607">
        <ele>191</ele>
        <time>2016-09-10T09:46:51Z</time>
      </trkpt>
      <trkpt lat="46.05065" lon="4.76612">
        <ele>191</ele>
        <time>2016-09-10T09:46:52Z</time>
      </trkpt>
      <trkpt lat="46.05069" lon="4.76618">
        <ele>192</ele>
        <time>2016-09-10T09:46:53Z</time>
      </trkpt>
      <trkpt lat="46.05071" lon="4.76626">
        <ele>192</ele>
        <time>2016-09-10T09:46:54Z</time>
      </trkpt>
      <trkpt lat="46.05073" lon="4.76633">
        <ele>192</ele>
        <time>2016-09-10T09:46:55Z</time>
      </trkpt>
      <trkpt lat="46.05075" lon="4.7664">
        <ele>192</ele>
        <time>2016-09-10T09:46:56Z</time>
      </trkpt>
      <trkpt lat="46.05076" lon="4.76646">
        <ele>192</ele>
        <time>2016-09-10T09:46:57Z</time>
      </trkpt>
      <trkpt lat="46.05077" lon="4.76658">
        <ele>193</ele>
        <time>2016-09-10T09:46:59Z</time>
      </trkpt>
      <trkpt lat="46.05078" lon="4.76664">
        <ele>193</ele>
        <time>2016-09-10T09:47:00Z</time>
      </trkpt>
      <trkpt lat="46.05078" lon="4.76671">
        <ele>193</ele>
        <time>2016-09-10T09:47:01Z</time>
      </trkpt>
      <trkpt lat="46.05079" lon="4.76677">
        <ele>193</ele>
        <time>2016-09-10T09:47:02Z</time>
      </trkpt>
      <trkpt lat="46.0508" lon="4.76684">
        <ele>193</ele>
        <time>2016-09-10T09:47:03Z</time>
      </trkpt>
      <trkpt lat="46.0508" lon="4.76691">
        <ele>193</ele>
        <time>2016-09-10T09:47:04Z</time>
      </trkpt>
      <trkpt lat="46.05082" lon="4.76698">
        <ele>193</ele>
        <time>2016-09-10T09:47:05Z</time>
      </trkpt>
      <trkpt lat="46.05083" lon="4.76704">
        <ele>193</ele>
        <time>2016-09-10T09:47:06Z</time>
      </trkpt>
      <trkpt lat="46.05084" lon="4.7671">
        <ele>193</ele>
        <time>2016-09-10T09:47:07Z</time>
      </trkpt>
      <trkpt lat="46.05085" lon="4.76717">
        <ele>193</ele>
        <time>2016-09-10T09:47:08Z</time>
      </trkpt>
      <trkpt lat="46.05086" lon="4.76724">
        <ele>193</ele>
        <time>2016-09-10T09:47:09Z</time>
      </trkpt>
      <trkpt lat="46.05088" lon="4.7673">
        <ele>193</ele>
        <time>2016-09-10T09:47:10Z</time>
      </trkpt>
      <trkpt lat="46.05089" lon="4.76737">
        <ele>193</ele>
        <time>2016-09-10T09:47:11Z</time>
      </trkpt>
      <trkpt lat="46.05089" lon="4.76744">
        <ele>194</ele>
        <time>2016-09-10T09:47:12Z</time>
      </trkpt>
      <trkpt lat="46.0509" lon="4.76751">
        <ele>194</ele>
        <time>2016-09-10T09:47:13Z</time>
      </trkpt>
      <trkpt lat="46.05092" lon="4.76758">
        <ele>194</ele>
        <time>2016-09-10T09:47:14Z</time>
      </trkpt>
      <trkpt lat="46.05094" lon="4.76765">
        <ele>194</ele>
        <time>2016-09-10T09:47:15Z</time>
      </trkpt>
      <trkpt lat="46.05095" lon="4.76772">
        <ele>194</ele>
        <time>2016-09-10T09:47:16Z</time>
      </trkpt>
      <trkpt lat="46.05097" lon="4.76778">
        <ele>194</ele>
        <time>2016-09-10T09:47:17Z</time>
      </trkpt>
      <trkpt lat="46.05099" lon="4.76784">
        <ele>194</ele>
        <time>2016-09-10T09:47:18Z</time>
      </trkpt>
      <trkpt lat="46.05102" lon="4.76795">
        <ele>194</ele>
        <time>2016-09-10T09:47:20Z</time>
      </trkpt>
      <trkpt lat="46.05104" lon="4.76801">
        <ele>194</ele>
        <time>2016-09-10T09:47:21Z</time>
      </trkpt>
      <trkpt lat="46.05107" lon="4.76812">
        <ele>194</ele>
        <time>2016-09-10T09:47:23Z</time>
      </trkpt>
      <trkpt lat="46.05108" lon="4.76817">
        <ele>194</ele>
        <time>2016-09-10T09:47:24Z</time>
      </trkpt>
      <trkpt lat="46.05112" lon="4.76827">
        <ele>194</ele>
        <time>2016-09-10T09:47:26Z</time>
      </trkpt>
      <trkpt lat="46.05114" lon="4.76832">
        <ele>194</ele>
        <time>2016-09-10T09:47:27Z</time>
      </trkpt>
      <trkpt lat="46.05119" lon="4.76842">
        <ele>195</ele>
        <time>2016-09-10T09:47:29Z</time>
      </trkpt>
      <trkpt lat="46.05122" lon="4.76847">
        <ele>195</ele>
        <time>2016-09-10T09:47:30Z</time>
      </trkpt>
      <trkpt lat="46.05126" lon="4.76858">
        <ele>195</ele>
        <time>2016-09-10T09:47:32Z</time>
      </trkpt>
      <trkpt lat="46.0513" lon="4.76864">
        <ele>195</ele>
        <time>2016-09-10T09:47:33Z</time>
      </trkpt>
      <trkpt lat="46.05132" lon="4.76869">
        <ele>195</ele>
        <time>2016-09-10T09:47:34Z</time>
      </trkpt>
      <trkpt lat="46.05134" lon="4.76875">
        <ele>195</ele>
        <time>2016-09-10T09:47:35Z</time>
      </trkpt>
      <trkpt lat="46.05137" lon="4.76886">
        <ele>195</ele>
        <time>2016-09-10T09:47:37Z</time>
      </trkpt>
      <trkpt lat="46.05139" lon="4.76892">
        <ele>195</ele>
        <time>2016-09-10T09:47:38Z</time>
      </trkpt>
      <trkpt lat="46.05143" lon="4.76903">
        <ele>195</ele>
        <time>2016-09-10T09:47:40Z</time>
      </trkpt>
      <trkpt lat="46.05146" lon="4.76908">
        <ele>195</ele>
        <time>2016-09-10T09:47:41Z</time>
      </trkpt>
      <trkpt lat="46.0515" lon="4.76917">
        <ele>196</ele>
        <time>2016-09-10T09:47:43Z</time>
      </trkpt>
      <trkpt lat="46.05153" lon="4.76921">
        <ele>196</ele>
        <time>2016-09-10T09:47:44Z</time>
      </trkpt>
      <trkpt lat="46.05158" lon="4.76929">
        <ele>196</ele>
        <time>2016-09-10T09:47:46Z</time>
      </trkpt>
      <trkpt lat="46.0516" lon="4.76933">
        <ele>196</ele>
        <time>2016-09-10T09:47:47Z</time>
      </trkpt>
      <trkpt lat="46.05166" lon="4.76941">
        <ele>196</ele>
        <time>2016-09-10T09:47:49Z</time>
      </trkpt>
      <trkpt lat="46.05168" lon="4.76946">
        <ele>197</ele>
        <time>2016-09-10T09:47:50Z</time>
      </trkpt>
      <trkpt lat="46.05172" lon="4.76955">
        <ele>197</ele>
        <time>2016-09-10T09:47:52Z</time>
      </trkpt>
      <trkpt lat="46.05174" lon="4.7696">
        <ele>198</ele>
        <time>2016-09-10T09:47:53Z</time>
      </trkpt>
      <trkpt lat="46.05178" lon="4.76969">
        <ele>198</ele>
        <time>2016-09-10T09:47:55Z</time>
      </trkpt>
      <trkpt lat="46.05179" lon="4.76974">
        <ele>198</ele>
        <time>2016-09-10T09:47:56Z</time>
      </trkpt>
      <trkpt lat="46.05182" lon="4.76984">
        <ele>198</ele>
        <time>2016-09-10T09:47:58Z</time>
      </trkpt>
      <trkpt lat="46.05184" lon="4.76989">
        <ele>198</ele>
        <time>2016-09-10T09:47:59Z</time>
      </trkpt>
      <trkpt lat="46.05188" lon="4.76999">
        <ele>198</ele>
        <time>2016-09-10T09:48:01Z</time>
      </trkpt>
      <trkpt lat="46.05191" lon="4.77004">
        <ele>199</ele>
        <time>2016-09-10T09:48:02Z</time>
      </trkpt>
      <trkpt lat="46.05196" lon="4.77013">
        <ele>200</ele>
        <time>2016-09-10T09:48:04Z</time>
      </trkpt>
      <trkpt lat="46.05198" lon="4.77019">
        <ele>200</ele>
        <time>2016-09-10T09:48:05Z</time>
      </trkpt>
      <trkpt lat="46.05203" lon="4.77029">
        <ele>200</ele>
        <time>2016-09-10T09:48:07Z</time>
      </trkpt>
      <trkpt lat="46.05205" lon="4.77034">
        <ele>200</ele>
        <time>2016-09-10T09:48:08Z</time>
      </trkpt>
      <trkpt lat="46.0521" lon="4.77044">
        <ele>201</ele>
        <time>2016-09-10T09:48:10Z</time>
      </trkpt>
      <trkpt lat="46.05213" lon="4.77049">
        <ele>201</ele>
        <time>2016-09-10T09:48:11Z</time>
      </trkpt>
      <trkpt lat="46.05218" lon="4.77057">
        <ele>201</ele>
        <time>2016-09-10T09:48:13Z</time>
      </trkpt>
      <trkpt lat="46.0522" lon="4.77062">
        <ele>201</ele>
        <time>2016-09-10T09:48:14Z</time>
      </trkpt>
      <trkpt lat="46.05221" lon="4.77072">
        <ele>201</ele>
        <time>2016-09-10T09:48:16Z</time>
      </trkpt>
      <trkpt lat="46.05223" lon="4.77077">
        <ele>201</ele>
        <time>2016-09-10T09:48:17Z</time>
      </trkpt>
      <trkpt lat="46.05226" lon="4.77086">
        <ele>203</ele>
        <time>2016-09-10T09:48:19Z</time>
      </trkpt>
      <trkpt lat="46.05225" lon="4.77092">
        <ele>203</ele>
        <time>2016-09-10T09:48:20Z</time>
      </trkpt>
      <trkpt lat="46.05225" lon="4.77101">
        <ele>203</ele>
        <time>2016-09-10T09:48:22Z</time>
      </trkpt>
      <trkpt lat="46.05227" lon="4.77106">
        <ele>203</ele>
        <time>2016-09-10T09:48:23Z</time>
      </trkpt>
      <trkpt lat="46.05233" lon="4.77113">
        <ele>203</ele>
        <time>2016-09-10T09:48:25Z</time>
      </trkpt>
      <trkpt lat="46.05236" lon="4.77117">
        <ele>203</ele>
        <time>2016-09-10T09:48:26Z</time>
      </trkpt>
      <trkpt lat="46.05242" lon="4.77124">
        <ele>204</ele>
        <time>2016-09-10T09:48:28Z</time>
      </trkpt>
      <trkpt lat="46.05245" lon="4.77127">
        <ele>204</ele>
        <time>2016-09-10T09:48:29Z</time>
      </trkpt>
      <trkpt lat="46.05251" lon="4.77134">
        <ele>204</ele>
        <time>2016-09-10T09:48:31Z</time>
      </trkpt>
      <trkpt lat="46.05254" lon="4.77138">
        <ele>204</ele>
        <time>2016-09-10T09:48:32Z</time>
      </trkpt>
      <trkpt lat="46.0526" lon="4.77145">
        <ele>204</ele>
        <time>2016-09-10T09:48:34Z</time>
      </trkpt>
      <trkpt lat="46.05263" lon="4.77149">
        <ele>204</ele>
        <time>2016-09-10T09:48:35Z</time>
      </trkpt>
      <trkpt lat="46.05269" lon="4.77155">
        <ele>204</ele>
        <time>2016-09-10T09:48:37Z</time>
      </trkpt>
      <trkpt lat="46.05273" lon="4.77159">
        <ele>204</ele>
        <time>2016-09-10T09:48:38Z</time>
      </trkpt>
      <trkpt lat="46.0528" lon="4.77166">
        <ele>204</ele>
        <time>2016-09-10T09:48:40Z</time>
      </trkpt>
      <trkpt lat="46.05283" lon="4.7717">
        <ele>206</ele>
        <time>2016-09-10T09:48:41Z</time>
      </trkpt>
      <trkpt lat="46.05289" lon="4.77176">
        <ele>206</ele>
        <time>2016-09-10T09:48:43Z</time>
      </trkpt>
      <trkpt lat="46.05293" lon="4.7718">
        <ele>206</ele>
        <time>2016-09-10T09:48:44Z</time>
      </trkpt>
      <trkpt lat="46.05297" lon="4.77184">
        <ele>205</ele>
        <time>2016-09-10T09:48:45Z</time>
      </trkpt>
      <trkpt lat="46.05301" lon="4.77187">
        <ele>205</ele>
        <time>2016-09-10T09:48:46Z</time>
      </trkpt>
      <trkpt lat="46.05309" lon="4.77193">
        <ele>205</ele>
        <time>2016-09-10T09:48:48Z</time>
      </trkpt>
      <trkpt lat="46.05312" lon="4.77196">
        <ele>205</ele>
        <time>2016-09-10T09:48:49Z</time>
      </trkpt>
      <trkpt lat="46.05318" lon="4.77202">
        <ele>205</ele>
        <time>2016-09-10T09:48:51Z</time>
      </trkpt>
      <trkpt lat="46.05322" lon="4.77205">
        <ele>205</ele>
        <time>2016-09-10T09:48:52Z</time>
      </trkpt>
      <trkpt lat="46.05329" lon="4.77211">
        <ele>206</ele>
        <time>2016-09-10T09:48:54Z</time>
      </trkpt>
      <trkpt lat="46.05333" lon="4.77213">
        <ele>206</ele>
        <time>2016-09-10T09:48:55Z</time>
      </trkpt>
      <trkpt lat="46.0534" lon="4.77219">
        <ele>204</ele>
        <time>2016-09-10T09:48:57Z</time>
      </trkpt>
      <trkpt lat="46.05344" lon="4.77222">
        <ele>204</ele>
        <time>2016-09-10T09:48:58Z</time>
      </trkpt>
      <trkpt lat="46.05348" lon="4.77226">
        <ele>204</ele>
        <time>2016-09-10T09:48:59Z</time>
      </trkpt>
      <trkpt lat="46.05352" lon="4.77229">
        <ele>204</ele>
        <time>2016-09-10T09:49:00Z</time>
      </trkpt>
      <trkpt lat="46.05357" lon="4.77232">
        <ele>204</ele>
        <time>2016-09-10T09:49:01Z</time>
      </trkpt>
      <trkpt lat="46.05362" lon="4.77235">
        <ele>203</ele>
        <time>2016-09-10T09:49:02Z</time>
      </trkpt>
      <trkpt lat="46.05367" lon="4.77238">
        <ele>203</ele>
        <time>2016-09-10T09:49:03Z</time>
      </trkpt>
      <trkpt lat="46.05372" lon="4.77241">
        <ele>203</ele>
        <time>2016-09-10T09:49:04Z</time>
      </trkpt>
      <trkpt lat="46.05377" lon="4.77244">
        <ele>203</ele>
        <time>2016-09-10T09:49:05Z</time>
      </trkpt>
      <trkpt lat="46.05382" lon="4.77247">
        <ele>203</ele>
        <time>2016-09-10T09:49:06Z</time>
      </trkpt>
      <trkpt lat="46.05387" lon="4.7725">
        <ele>202</ele>
        <time>2016-09-10T09:49:07Z</time>
      </trkpt>
      <trkpt lat="46.05392" lon="4.77252">
        <ele>203</ele>
        <time>2016-09-10T09:49:08Z</time>
      </trkpt>
      <trkpt lat="46.05397" lon="4.77254">
        <ele>203</ele>
        <time>2016-09-10T09:49:09Z</time>
      </trkpt>
      <trkpt lat="46.05403" lon="4.77257">
        <ele>203</ele>
        <time>2016-09-10T09:49:10Z</time>
      </trkpt>
      <trkpt lat="46.05408" lon="4.77259">
        <ele>202</ele>
        <time>2016-09-10T09:49:11Z</time>
      </trkpt>
      <trkpt lat="46.05413" lon="4.77262">
        <ele>202</ele>
        <time>2016-09-10T09:49:12Z</time>
      </trkpt>
      <trkpt lat="46.05419" lon="4.77265">
        <ele>201</ele>
        <time>2016-09-10T09:49:13Z</time>
      </trkpt>
      <trkpt lat="46.05424" lon="4.77267">
        <ele>201</ele>
        <time>2016-09-10T09:49:14Z</time>
      </trkpt>
      <trkpt lat="46.0543" lon="4.7727">
        <ele>201</ele>
        <time>2016-09-10T09:49:15Z</time>
      </trkpt>
      <trkpt lat="46.05435" lon="4.77272">
        <ele>201</ele>
        <time>2016-09-10T09:49:16Z</time>
      </trkpt>
      <trkpt lat="46.0544" lon="4.77274">
        <ele>201</ele>
        <time>2016-09-10T09:49:17Z</time>
      </trkpt>
      <trkpt lat="46.05446" lon="4.77277">
        <ele>201</ele>
        <time>2016-09-10T09:49:18Z</time>
      </trkpt>
      <trkpt lat="46.05451" lon="4.77279">
        <ele>201</ele>
        <time>2016-09-10T09:49:19Z</time>
      </trkpt>
      <trkpt lat="46.05456" lon="4.77281">
        <ele>201</ele>
        <time>2016-09-10T09:49:20Z</time>
      </trkpt>
      <trkpt lat="46.05461" lon="4.77283">
        <ele>201</ele>
        <time>2016-09-10T09:49:21Z</time>
      </trkpt>
      <trkpt lat="46.05467" lon="4.77286">
        <ele>201</ele>
        <time>2016-09-10T09:49:22Z</time>
      </trkpt>
      <trkpt lat="46.05472" lon="4.77289">
        <ele>201</ele>
        <time>2016-09-10T09:49:23Z</time>
      </trkpt>
      <trkpt lat="46.05477" lon="4.77291">
        <ele>201</ele>
        <time>2016-09-10T09:49:24Z</time>
      </trkpt>
      <trkpt lat="46.05482" lon="4.77294">
        <ele>201</ele>
        <time>2016-09-10T09:49:25Z</time>
      </trkpt>
      <trkpt lat="46.05488" lon="4.77296">
        <ele>201</ele>
        <time>2016-09-10T09:49:26Z</time>
      </trkpt>
      <trkpt lat="46.05493" lon="4.77298">
        <ele>201</ele>
        <time>2016-09-10T09:49:27Z</time>
      </trkpt>
      <trkpt lat="46.05498" lon="4.77301">
        <ele>201</ele>
        <time>2016-09-10T09:49:28Z</time>
      </trkpt>
      <trkpt lat="46.05503" lon="4.77303">
        <ele>200</ele>
        <time>2016-09-10T09:49:29Z</time>
      </trkpt>
      <trkpt lat="46.05508" lon="4.77305">
        <ele>200</ele>
        <time>2016-09-10T09:49:30Z</time>
      </trkpt>
      <trkpt lat="46.05512" lon="4.77308">
        <ele>200</ele>
        <time>2016-09-10T09:49:31Z</time>
      </trkpt>
      <trkpt lat="46.05517" lon="4.77312">
        <ele>200</ele>
        <time>2016-09-10T09:49:32Z</time>
      </trkpt>
      <trkpt lat="46.05524" lon="4.77317">
        <ele>200</ele>
        <time>2016-09-10T09:49:34Z</time>
      </trkpt>
      <trkpt lat="46.05528" lon="4.77319">
        <ele>200</ele>
        <time>2016-09-10T09:49:35Z</time>
      </trkpt>
      <trkpt lat="46.05535" lon="4.77323">
        <ele>200</ele>
        <time>2016-09-10T09:49:37Z</time>
      </trkpt>
      <trkpt lat="46.05539" lon="4.77325">
        <ele>200</ele>
        <time>2016-09-10T09:49:38Z</time>
      </trkpt>
      <trkpt lat="46.05547" lon="4.7733">
        <ele>200</ele>
        <time>2016-09-10T09:49:40Z</time>
      </trkpt>
      <trkpt lat="46.05551" lon="4.77333">
        <ele>200</ele>
        <time>2016-09-10T09:49:41Z</time>
      </trkpt>
      <trkpt lat="46.05556" lon="4.77336">
        <ele>201</ele>
        <time>2016-09-10T09:49:42Z</time>
      </trkpt>
      <trkpt lat="46.0556" lon="4.77339">
        <ele>201</ele>
        <time>2016-09-10T09:49:43Z</time>
      </trkpt>
      <trkpt lat="46.05565" lon="4.77342">
        <ele>201</ele>
        <time>2016-09-10T09:49:44Z</time>
      </trkpt>
      <trkpt lat="46.0557" lon="4.77345">
        <ele>201</ele>
        <time>2016-09-10T09:49:45Z</time>
      </trkpt>
      <trkpt lat="46.05575" lon="4.77348">
        <ele>201</ele>
        <time>2016-09-10T09:49:46Z</time>
      </trkpt>
      <trkpt lat="46.0558" lon="4.77351">
        <ele>201</ele>
        <time>2016-09-10T09:49:47Z</time>
      </trkpt>
      <trkpt lat="46.05585" lon="4.77354">
        <ele>202</ele>
        <time>2016-09-10T09:49:48Z</time>
      </trkpt>
      <trkpt lat="46.0559" lon="4.77358">
        <ele>202</ele>
        <time>2016-09-10T09:49:49Z</time>
      </trkpt>
      <trkpt lat="46.05595" lon="4.77362">
        <ele>202</ele>
        <time>2016-09-10T09:49:50Z</time>
      </trkpt>
      <trkpt lat="46.056" lon="4.77365">
        <ele>202</ele>
        <time>2016-09-10T09:49:51Z</time>
      </trkpt>
      <trkpt lat="46.05604" lon="4.77368">
        <ele>202</ele>
        <time>2016-09-10T09:49:52Z</time>
      </trkpt>
      <trkpt lat="46.05608" lon="4.77372">
        <ele>202</ele>
        <time>2016-09-10T09:49:53Z</time>
      </trkpt>
      <trkpt lat="46.05616" lon="4.77377">
        <ele>203</ele>
        <time>2016-09-10T09:49:55Z</time>
      </trkpt>
      <trkpt lat="46.0562" lon="4.7738">
        <ele>203</ele>
        <time>2016-09-10T09:49:56Z</time>
      </trkpt>
      <trkpt lat="46.05628" lon="4.77386">
        <ele>203</ele>
        <time>2016-09-10T09:49:58Z</time>
      </trkpt>
      <trkpt lat="46.05631" lon="4.77389">
        <ele>203</ele>
        <time>2016-09-10T09:49:59Z</time>
      </trkpt>
      <trkpt lat="46.05639" lon="4.77395">
        <ele>203</ele>
        <time>2016-09-10T09:50:01Z</time>
      </trkpt>
      <trkpt lat="46.05642" lon="4.77398">
        <ele>203</ele>
        <time>2016-09-10T09:50:02Z</time>
      </trkpt>
      <trkpt lat="46.0565" lon="4.77405">
        <ele>204</ele>
        <time>2016-09-10T09:50:04Z</time>
      </trkpt>
      <trkpt lat="46.05653" lon="4.77408">
        <ele>204</ele>
        <time>2016-09-10T09:50:05Z</time>
      </trkpt>
      <trkpt lat="46.0566" lon="4.77415">
        <ele>204</ele>
        <time>2016-09-10T09:50:07Z</time>
      </trkpt>
      <trkpt lat="46.05664" lon="4.77419">
        <ele>205</ele>
        <time>2016-09-10T09:50:08Z</time>
      </trkpt>
      <trkpt lat="46.05671" lon="4.77426">
        <ele>206</ele>
        <time>2016-09-10T09:50:10Z</time>
      </trkpt>
      <trkpt lat="46.05674" lon="4.7743">
        <ele>206</ele>
        <time>2016-09-10T09:50:11Z</time>
      </trkpt>
      <trkpt lat="46.05682" lon="4.77436">
        <ele>206</ele>
        <time>2016-09-10T09:50:13Z</time>
      </trkpt>
      <trkpt lat="46.05685" lon="4.7744">
        <ele>206</ele>
        <time>2016-09-10T09:50:14Z</time>
      </trkpt>
      <trkpt lat="46.05693" lon="4.77447">
        <ele>206</ele>
        <time>2016-09-10T09:50:16Z</time>
      </trkpt>
      <trkpt lat="46.05696" lon="4.77449">
        <ele>207</ele>
        <time>2016-09-10T09:50:17Z</time>
      </trkpt>
      <trkpt lat="46.05704" lon="4.77454">
        <ele>207</ele>
        <time>2016-09-10T09:50:19Z</time>
      </trkpt>
      <trkpt lat="46.05708" lon="4.77457">
        <ele>207</ele>
        <time>2016-09-10T09:50:20Z</time>
      </trkpt>
      <trkpt lat="46.05715" lon="4.77462">
        <ele>207</ele>
        <time>2016-09-10T09:50:22Z</time>
      </trkpt>
      <trkpt lat="46.05719" lon="4.77466">
        <ele>207</ele>
        <time>2016-09-10T09:50:23Z</time>
      </trkpt>
      <trkpt lat="46.05725" lon="4.77473">
        <ele>207</ele>
        <time>2016-09-10T09:50:25Z</time>
      </trkpt>
      <trkpt lat="46.05729" lon="4.77477">
        <ele>207</ele>
        <time>2016-09-10T09:50:26Z</time>
      </trkpt>
      <trkpt lat="46.05735" lon="4.77485">
        <ele>207</ele>
        <time>2016-09-10T09:50:28Z</time>
      </trkpt>
      <trkpt lat="46.05738" lon="4.7749">
        <ele>207</ele>
        <time>2016-09-10T09:50:29Z</time>
      </trkpt>
      <trkpt lat="46.05741" lon="4.77494">
        <ele>208</ele>
        <time>2016-09-10T09:50:30Z</time>
      </trkpt>
      <trkpt lat="46.05745" lon="4.77499">
        <ele>208</ele>
        <time>2016-09-10T09:50:31Z</time>
      </trkpt>
      <trkpt lat="46.05748" lon="4.77503">
        <ele>208</ele>
        <time>2016-09-10T09:50:32Z</time>
      </trkpt>
      <trkpt lat="46.05751" lon="4.77508">
        <ele>208</ele>
        <time>2016-09-10T09:50:33Z</time>
      </trkpt>
      <trkpt lat="46.05754" lon="4.77513">
        <ele>208</ele>
        <time>2016-09-10T09:50:34Z</time>
      </trkpt>
      <trkpt lat="46.05758" lon="4.77518">
        <ele>208</ele>
        <time>2016-09-10T09:50:35Z</time>
      </trkpt>
      <trkpt lat="46.05761" lon="4.77523">
        <ele>208</ele>
        <time>2016-09-10T09:50:36Z</time>
      </trkpt>
      <trkpt lat="46.05764" lon="4.77529">
        <ele>208</ele>
        <time>2016-09-10T09:50:37Z</time>
      </trkpt>
      <trkpt lat="46.05767" lon="4.77534">
        <ele>208</ele>
        <time>2016-09-10T09:50:38Z</time>
      </trkpt>
      <trkpt lat="46.0577" lon="4.77539">
        <ele>208</ele>
        <time>2016-09-10T09:50:39Z</time>
      </trkpt>
      <trkpt lat="46.05776" lon="4.77547">
        <ele>208</ele>
        <time>2016-09-10T09:50:41Z</time>
      </trkpt>
      <trkpt lat="46.05779" lon="4.77552">
        <ele>208</ele>
        <time>2016-09-10T09:50:42Z</time>
      </trkpt>
      <trkpt lat="46.05784" lon="4.7756">
        <ele>208</ele>
        <time>2016-09-10T09:50:44Z</time>
      </trkpt>
      <trkpt lat="46.05787" lon="4.77564">
        <ele>208</ele>
        <time>2016-09-10T09:50:45Z</time>
      </trkpt>
      <trkpt lat="46.05793" lon="4.77572">
        <ele>208</ele>
        <time>2016-09-10T09:50:47Z</time>
      </trkpt>
      <trkpt lat="46.05796" lon="4.77576">
        <ele>208</ele>
        <time>2016-09-10T09:50:48Z</time>
      </trkpt>
      <trkpt lat="46.05803" lon="4.77583">
        <ele>208</ele>
        <time>2016-09-10T09:50:50Z</time>
      </trkpt>
      <trkpt lat="46.05807" lon="4.77588">
        <ele>209</ele>
        <time>2016-09-10T09:50:51Z</time>
      </trkpt>
      <trkpt lat="46.05812" lon="4.77592">
        <ele>208</ele>
        <time>2016-09-10T09:50:52Z</time>
      </trkpt>
      <trkpt lat="46.05815" lon="4.77597">
        <ele>208</ele>
        <time>2016-09-10T09:50:53Z</time>
      </trkpt>
      <trkpt lat="46.05819" lon="4.77601">
        <ele>208</ele>
        <time>2016-09-10T09:50:54Z</time>
      </trkpt>
      <trkpt lat="46.05823" lon="4.77606">
        <ele>208</ele>
        <time>2016-09-10T09:50:55Z</time>
      </trkpt>
      <trkpt lat="46.05827" lon="4.7761">
        <ele>209</ele>
        <time>2016-09-10T09:50:56Z</time>
      </trkpt>
      <trkpt lat="46.05831" lon="4.77614">
        <ele>209</ele>
        <time>2016-09-10T09:50:57Z</time>
      </trkpt>
      <trkpt lat="46.05836" lon="4.77618">
        <ele>208</ele>
        <time>2016-09-10T09:50:58Z</time>
      </trkpt>
      <trkpt lat="46.0584" lon="4.77623">
        <ele>208</ele>
        <time>2016-09-10T09:50:59Z</time>
      </trkpt>
      <trkpt lat="46.05844" lon="4.77627">
        <ele>208</ele>
        <time>2016-09-10T09:51:00Z</time>
      </trkpt>
      <trkpt lat="46.05847" lon="4.77632">
        <ele>208</ele>
        <time>2016-09-10T09:51:01Z</time>
      </trkpt>
      <trkpt lat="46.05852" lon="4.77636">
        <ele>208</ele>
        <time>2016-09-10T09:51:02Z</time>
      </trkpt>
      <trkpt lat="46.05856" lon="4.77641">
        <ele>208</ele>
        <time>2016-09-10T09:51:03Z</time>
      </trkpt>
      <trkpt lat="46.0586" lon="4.77646">
        <ele>208</ele>
        <time>2016-09-10T09:51:04Z</time>
      </trkpt>
      <trkpt lat="46.05865" lon="4.77652">
        <ele>208</ele>
        <time>2016-09-10T09:51:05Z</time>
      </trkpt>
      <trkpt lat="46.05869" lon="4.77658">
        <ele>208</ele>
        <time>2016-09-10T09:51:06Z</time>
      </trkpt>
      <trkpt lat="46.05874" lon="4.77664">
        <ele>208</ele>
        <time>2016-09-10T09:51:07Z</time>
      </trkpt>
      <trkpt lat="46.05878" lon="4.7767">
        <ele>208</ele>
        <time>2016-09-10T09:51:08Z</time>
      </trkpt>
      <trkpt lat="46.05882" lon="4.77677">
        <ele>208</ele>
        <time>2016-09-10T09:51:09Z</time>
      </trkpt>
      <trkpt lat="46.05884" lon="4.77685">
        <ele>208</ele>
        <time>2016-09-10T09:51:10Z</time>
      </trkpt>
      <trkpt lat="46.05887" lon="4.77693">
        <ele>208</ele>
        <time>2016-09-10T09:51:11Z</time>
      </trkpt>
      <trkpt lat="46.05889" lon="4.777">
        <ele>208</ele>
        <time>2016-09-10T09:51:12Z</time>
      </trkpt>
      <trkpt lat="46.0589" lon="4.77707">
        <ele>208</ele>
        <time>2016-09-10T09:51:13Z</time>
      </trkpt>
      <trkpt lat="46.05892" lon="4.77714">
        <ele>208</ele>
        <time>2016-09-10T09:51:14Z</time>
      </trkpt>
      <trkpt lat="46.05892" lon="4.77721">
        <ele>209</ele>
        <time>2016-09-10T09:51:15Z</time>
      </trkpt>
      <trkpt lat="46.05893" lon="4.77728">
        <ele>209</ele>
        <time>2016-09-10T09:51:16Z</time>
      </trkpt>
      <trkpt lat="46.05894" lon="4.77736">
        <ele>209</ele>
        <time>2016-09-10T09:51:17Z</time>
      </trkpt>
      <trkpt lat="46.05896" lon="4.77743">
        <ele>209</ele>
        <time>2016-09-10T09:51:18Z</time>
      </trkpt>
      <trkpt lat="46.05897" lon="4.7775">
        <ele>209</ele>
        <time>2016-09-10T09:51:19Z</time>
      </trkpt>
      <trkpt lat="46.05899" lon="4.77758">
        <ele>209</ele>
        <time>2016-09-10T09:51:20Z</time>
      </trkpt>
      <trkpt lat="46.059" lon="4.77765">
        <ele>209</ele>
        <time>2016-09-10T09:51:21Z</time>
      </trkpt>
      <trkpt lat="46.05903" lon="4.77771">
        <ele>210</ele>
        <time>2016-09-10T09:51:22Z</time>
      </trkpt>
      <trkpt lat="46.05905" lon="4.77778">
        <ele>210</ele>
        <time>2016-09-10T09:51:23Z</time>
      </trkpt>
      <trkpt lat="46.05909" lon="4.77785">
        <ele>210</ele>
        <time>2016-09-10T09:51:24Z</time>
      </trkpt>
      <trkpt lat="46.05912" lon="4.77791">
        <ele>210</ele>
        <time>2016-09-10T09:51:25Z</time>
      </trkpt>
      <trkpt lat="46.05916" lon="4.77797">
        <ele>210</ele>
        <time>2016-09-10T09:51:26Z</time>
      </trkpt>
      <trkpt lat="46.05919" lon="4.77803">
        <ele>210</ele>
        <time>2016-09-10T09:51:27Z</time>
      </trkpt>
      <trkpt lat="46.05923" lon="4.77809">
        <ele>210</ele>
        <time>2016-09-10T09:51:28Z</time>
      </trkpt>
      <trkpt lat="46.05926" lon="4.77814">
        <ele>210</ele>
        <time>2016-09-10T09:51:29Z</time>
      </trkpt>
      <trkpt lat="46.05929" lon="4.7782">
        <ele>210</ele>
        <time>2016-09-10T09:51:30Z</time>
      </trkpt>
      <trkpt lat="46.05933" lon="4.77825">
        <ele>210</ele>
        <time>2016-09-10T09:51:31Z</time>
      </trkpt>
      <trkpt lat="46.05936" lon="4.7783">
        <ele>210</ele>
        <time>2016-09-10T09:51:32Z</time>
      </trkpt>
      <trkpt lat="46.05939" lon="4.77835">
        <ele>211</ele>
        <time>2016-09-10T09:51:33Z</time>
      </trkpt>
      <trkpt lat="46.05942" lon="4.7784">
        <ele>211</ele>
        <time>2016-09-10T09:51:34Z</time>
      </trkpt>
      <trkpt lat="46.05945" lon="4.77845">
        <ele>211</ele>
        <time>2016-09-10T09:51:35Z</time>
      </trkpt>
      <trkpt lat="46.05948" lon="4.7785">
        <ele>211</ele>
        <time>2016-09-10T09:51:36Z</time>
      </trkpt>
      <trkpt lat="46.0595" lon="4.77855">
        <ele>211</ele>
        <time>2016-09-10T09:51:37Z</time>
      </trkpt>
      <trkpt lat="46.05953" lon="4.7786">
        <ele>211</ele>
        <time>2016-09-10T09:51:38Z</time>
      </trkpt>
      <trkpt lat="46.05956" lon="4.77865">
        <ele>211</ele>
        <time>2016-09-10T09:51:39Z</time>
      </trkpt>
      <trkpt lat="46.0596" lon="4.77871">
        <ele>211</ele>
        <time>2016-09-10T09:51:40Z</time>
      </trkpt>
      <trkpt lat="46.05963" lon="4.77876">
        <ele>211</ele>
        <time>2016-09-10T09:51:41Z</time>
      </trkpt>
      <trkpt lat="46.05968" lon="4.77886">
        <ele>211</ele>
        <time>2016-09-10T09:51:43Z</time>
      </trkpt>
      <trkpt lat="46.05971" lon="4.77891">
        <ele>211</ele>
        <time>2016-09-10T09:51:44Z</time>
      </trkpt>
      <trkpt lat="46.05976" lon="4.77899">
        <ele>211</ele>
        <time>2016-09-10T09:51:46Z</time>
      </trkpt>
      <trkpt lat="46.05978" lon="4.77903">
        <ele>211</ele>
        <time>2016-09-10T09:51:47Z</time>
      </trkpt>
      <trkpt lat="46.05982" lon="4.77912">
        <ele>211</ele>
        <time>2016-09-10T09:51:49Z</time>
      </trkpt>
      <trkpt lat="46.05984" lon="4.77917">
        <ele>212</ele>
        <time>2016-09-10T09:51:50Z</time>
      </trkpt>
      <trkpt lat="46.05989" lon="4.77927">
        <ele>212</ele>
        <time>2016-09-10T09:51:52Z</time>
      </trkpt>
      <trkpt lat="46.05992" lon="4.77931">
        <ele>212</ele>
        <time>2016-09-10T09:51:53Z</time>
      </trkpt>
      <trkpt lat="46.05998" lon="4.77941">
        <ele>212</ele>
        <time>2016-09-10T09:51:55Z</time>
      </trkpt>
      <trkpt lat="46.06001" lon="4.77947">
        <ele>211</ele>
        <time>2016-09-10T09:51:56Z</time>
      </trkpt>
      <trkpt lat="46.06004" lon="4.77953">
        <ele>211</ele>
        <time>2016-09-10T09:51:57Z</time>
      </trkpt>
      <trkpt lat="46.06004" lon="4.7796">
        <ele>211</ele>
        <time>2016-09-10T09:51:58Z</time>
      </trkpt>
      <trkpt lat="46.06009" lon="4.7797">
        <ele>211</ele>
        <time>2016-09-10T09:52:00Z</time>
      </trkpt>
      <trkpt lat="46.0601" lon="4.77974">
        <ele>211</ele>
        <time>2016-09-10T09:52:01Z</time>
      </trkpt>
      <trkpt lat="46.06014" lon="4.77978">
        <ele>211</ele>
        <time>2016-09-10T09:52:02Z</time>
      </trkpt>
      <trkpt lat="46.06018" lon="4.77982">
        <ele>211</ele>
        <time>2016-09-10T09:52:03Z</time>
      </trkpt>
      <trkpt lat="46.06025" lon="4.7799">
        <ele>211</ele>
        <time>2016-09-10T09:52:05Z</time>
      </trkpt>
      <trkpt lat="46.06028" lon="4.77995">
        <ele>211</ele>
        <time>2016-09-10T09:52:06Z</time>
      </trkpt>
      <trkpt lat="46.06032" lon="4.78">
        <ele>211</ele>
        <time>2016-09-10T09:52:07Z</time>
      </trkpt>
      <trkpt lat="46.06035" lon="4.78006">
        <ele>211</ele>
        <time>2016-09-10T09:52:08Z</time>
      </trkpt>
      <trkpt lat="46.06039" lon="4.78011">
        <ele>211</ele>
        <time>2016-09-10T09:52:09Z</time>
      </trkpt>
      <trkpt lat="46.06043" lon="4.78016">
        <ele>211</ele>
        <time>2016-09-10T09:52:10Z</time>
      </trkpt>
      <trkpt lat="46.06048" lon="4.78022">
        <ele>211</ele>
        <time>2016-09-10T09:52:11Z</time>
      </trkpt>
      <trkpt lat="46.06053" lon="4.78028">
        <ele>211</ele>
        <time>2016-09-10T09:52:12Z</time>
      </trkpt>
      <trkpt lat="46.06058" lon="4.78033">
        <ele>211</ele>
        <time>2016-09-10T09:52:13Z</time>
      </trkpt>
      <trkpt lat="46.06064" lon="4.78037">
        <ele>211</ele>
        <time>2016-09-10T09:52:14Z</time>
      </trkpt>
      <trkpt lat="46.06069" lon="4.78041">
        <ele>211</ele>
        <time>2016-09-10T09:52:15Z</time>
      </trkpt>
      <trkpt lat="46.06075" lon="4.78045">
        <ele>211</ele>
        <time>2016-09-10T09:52:16Z</time>
      </trkpt>
      <trkpt lat="46.06079" lon="4.78048">
        <ele>211</ele>
        <time>2016-09-10T09:52:17Z</time>
      </trkpt>
      <trkpt lat="46.06084" lon="4.78052">
        <ele>210</ele>
        <time>2016-09-10T09:52:18Z</time>
      </trkpt>
      <trkpt lat="46.06089" lon="4.78055">
        <ele>210</ele>
        <time>2016-09-10T09:52:19Z</time>
      </trkpt>
      <trkpt lat="46.06092" lon="4.78059">
        <ele>210</ele>
        <time>2016-09-10T09:52:20Z</time>
      </trkpt>
      <trkpt lat="46.06099" lon="4.78067">
        <ele>210</ele>
        <time>2016-09-10T09:52:22Z</time>
      </trkpt>
      <trkpt lat="46.06103" lon="4.78071">
        <ele>210</ele>
        <time>2016-09-10T09:52:23Z</time>
      </trkpt>
      <trkpt lat="46.06106" lon="4.78075">
        <ele>210</ele>
        <time>2016-09-10T09:52:24Z</time>
      </trkpt>
      <trkpt lat="46.06109" lon="4.7808">
        <ele>210</ele>
        <time>2016-09-10T09:52:25Z</time>
      </trkpt>
      <trkpt lat="46.06113" lon="4.78086">
        <ele>209</ele>
        <time>2016-09-10T09:52:26Z</time>
      </trkpt>
      <trkpt lat="46.06118" lon="4.78091">
        <ele>209</ele>
        <time>2016-09-10T09:52:27Z</time>
      </trkpt>
      <trkpt lat="46.06122" lon="4.78097">
        <ele>209</ele>
        <time>2016-09-10T09:52:28Z</time>
      </trkpt>
      <trkpt lat="46.06126" lon="4.78103">
        <ele>209</ele>
        <time>2016-09-10T09:52:29Z</time>
      </trkpt>
      <trkpt lat="46.06132" lon="4.78109">
        <ele>209</ele>
        <time>2016-09-10T09:52:30Z</time>
      </trkpt>
      <trkpt lat="46.06137" lon="4.78115">
        <ele>208</ele>
        <time>2016-09-10T09:52:31Z</time>
      </trkpt>
      <trkpt lat="46.06144" lon="4.78121">
        <ele>208</ele>
        <time>2016-09-10T09:52:32Z</time>
      </trkpt>
      <trkpt lat="46.06151" lon="4.78127">
        <ele>208</ele>
        <time>2016-09-10T09:52:33Z</time>
      </trkpt>
      <trkpt lat="46.06157" lon="4.78131">
        <ele>208</ele>
        <time>2016-09-10T09:52:34Z</time>
      </trkpt>
      <trkpt lat="46.06164" lon="4.78136">
        <ele>208</ele>
        <time>2016-09-10T09:52:35Z</time>
      </trkpt>
      <trkpt lat="46.06171" lon="4.7814">
        <ele>206</ele>
        <time>2016-09-10T09:52:36Z</time>
      </trkpt>
      <trkpt lat="46.06178" lon="4.78145">
        <ele>206</ele>
        <time>2016-09-10T09:52:37Z</time>
      </trkpt>
      <trkpt lat="46.06185" lon="4.7815">
        <ele>206</ele>
        <time>2016-09-10T09:52:38Z</time>
      </trkpt>
      <trkpt lat="46.06192" lon="4.78154">
        <ele>206</ele>
        <time>2016-09-10T09:52:39Z</time>
      </trkpt>
      <trkpt lat="46.062" lon="4.78159">
        <ele>205</ele>
        <time>2016-09-10T09:52:40Z</time>
      </trkpt>
      <trkpt lat="46.06207" lon="4.78163">
        <ele>205</ele>
        <time>2016-09-10T09:52:41Z</time>
      </trkpt>
      <trkpt lat="46.06215" lon="4.78167">
        <ele>207</ele>
        <time>2016-09-10T09:52:42Z</time>
      </trkpt>
      <trkpt lat="46.06221" lon="4.78172">
        <ele>206</ele>
        <time>2016-09-10T09:52:43Z</time>
      </trkpt>
      <trkpt lat="46.06228" lon="4.78176">
        <ele>206</ele>
        <time>2016-09-10T09:52:44Z</time>
      </trkpt>
      <trkpt lat="46.06235" lon="4.7818">
        <ele>206</ele>
        <time>2016-09-10T09:52:45Z</time>
      </trkpt>
      <trkpt lat="46.06241" lon="4.78185">
        <ele>206</ele>
        <time>2016-09-10T09:52:46Z</time>
      </trkpt>
      <trkpt lat="46.06247" lon="4.78189">
        <ele>206</ele>
        <time>2016-09-10T09:52:47Z</time>
      </trkpt>
      <trkpt lat="46.06253" lon="4.78194">
        <ele>205</ele>
        <time>2016-09-10T09:52:48Z</time>
      </trkpt>
      <trkpt lat="46.0626" lon="4.78199">
        <ele>205</ele>
        <time>2016-09-10T09:52:49Z</time>
      </trkpt>
      <trkpt lat="46.06265" lon="4.78204">
        <ele>205</ele>
        <time>2016-09-10T09:52:50Z</time>
      </trkpt>
      <trkpt lat="46.06271" lon="4.78208">
        <ele>206</ele>
        <time>2016-09-10T09:52:51Z</time>
      </trkpt>
      <trkpt lat="46.06276" lon="4.78212">
        <ele>206</ele>
        <time>2016-09-10T09:52:52Z</time>
      </trkpt>
      <trkpt lat="46.06282" lon="4.78215">
        <ele>206</ele>
        <time>2016-09-10T09:52:53Z</time>
      </trkpt>
      <trkpt lat="46.06288" lon="4.78219">
        <ele>206</ele>
        <time>2016-09-10T09:52:54Z</time>
      </trkpt>
      <trkpt lat="46.06294" lon="4.78222">
        <ele>206</ele>
        <time>2016-09-10T09:52:55Z</time>
      </trkpt>
      <trkpt lat="46.06299" lon="4.78226">
        <ele>206</ele>
        <time>2016-09-10T09:52:56Z</time>
      </trkpt>
      <trkpt lat="46.06305" lon="4.78231">
        <ele>206</ele>
        <time>2016-09-10T09:52:57Z</time>
      </trkpt>
      <trkpt lat="46.0631" lon="4.78235">
        <ele>206</ele>
        <time>2016-09-10T09:52:58Z</time>
      </trkpt>
      <trkpt lat="46.06316" lon="4.78238">
        <ele>206</ele>
        <time>2016-09-10T09:52:59Z</time>
      </trkpt>
      <trkpt lat="46.06321" lon="4.7824">
        <ele>206</ele>
        <time>2016-09-10T09:53:00Z</time>
      </trkpt>
      <trkpt lat="46.06327" lon="4.78242">
        <ele>206</ele>
        <time>2016-09-10T09:53:01Z</time>
      </trkpt>
      <trkpt lat="46.06332" lon="4.78244">
        <ele>206</ele>
        <time>2016-09-10T09:53:02Z</time>
      </trkpt>
      <trkpt lat="46.06337" lon="4.78245">
        <ele>206</ele>
        <time>2016-09-10T09:53:03Z</time>
      </trkpt>
      <trkpt lat="46.06341" lon="4.78245">
        <ele>205</ele>
        <time>2016-09-10T09:53:04Z</time>
      </trkpt>
      <trkpt lat="46.06346" lon="4.78244">
        <ele>205</ele>
        <time>2016-09-10T09:53:05Z</time>
      </trkpt>
      <trkpt lat="46.06353" lon="4.78238">
        <ele>205</ele>
        <time>2016-09-10T09:53:07Z</time>
      </trkpt>
      <trkpt lat="46.06357" lon="4.78234">
        <ele>205</ele>
        <time>2016-09-10T09:53:08Z</time>
      </trkpt>
      <trkpt lat="46.06361" lon="4.7823">
        <ele>205</ele>
        <time>2016-09-10T09:53:09Z</time>
      </trkpt>
      <trkpt lat="46.06366" lon="4.78225">
        <ele>205</ele>
        <time>2016-09-10T09:53:10Z</time>
      </trkpt>
      <trkpt lat="46.0637" lon="4.78221">
        <ele>205</ele>
        <time>2016-09-10T09:53:11Z</time>
      </trkpt>
      <trkpt lat="46.06375" lon="4.78216">
        <ele>204</ele>
        <time>2016-09-10T09:53:12Z</time>
      </trkpt>
      <trkpt lat="46.06379" lon="4.7821">
        <ele>204</ele>
        <time>2016-09-10T09:53:13Z</time>
      </trkpt>
      <trkpt lat="46.06382" lon="4.78204">
        <ele>204</ele>
        <time>2016-09-10T09:53:14Z</time>
      </trkpt>
      <trkpt lat="46.06384" lon="4.78197">
        <ele>204</ele>
        <time>2016-09-10T09:53:15Z</time>
      </trkpt>
      <trkpt lat="46.06386" lon="4.78189">
        <ele>204</ele>
        <time>2016-09-10T09:53:16Z</time>
      </trkpt>
      <trkpt lat="46.06388" lon="4.7818">
        <ele>204</ele>
        <time>2016-09-10T09:53:17Z</time>
      </trkpt>
      <trkpt lat="46.06389" lon="4.78171">
        <ele>204</ele>
        <time>2016-09-10T09:53:18Z</time>
      </trkpt>
      <trkpt lat="46.06389" lon="4.78161">
        <ele>201</ele>
        <time>2016-09-10T09:53:19Z</time>
      </trkpt>
      <trkpt lat="46.0639" lon="4.78152">
        <ele>201</ele>
        <time>2016-09-10T09:53:20Z</time>
      </trkpt>
      <trkpt lat="46.06391" lon="4.78142">
        <ele>201</ele>
        <time>2016-09-10T09:53:21Z</time>
      </trkpt>
      <trkpt lat="46.06392" lon="4.78132">
        <ele>201</ele>
        <time>2016-09-10T09:53:22Z</time>
      </trkpt>
      <trkpt lat="46.06393" lon="4.78123">
        <ele>201</ele>
        <time>2016-09-10T09:53:23Z</time>
      </trkpt>
      <trkpt lat="46.06394" lon="4.78113">
        <ele>200</ele>
        <time>2016-09-10T09:53:24Z</time>
      </trkpt>
      <trkpt lat="46.06395" lon="4.78103">
        <ele>200</ele>
        <time>2016-09-10T09:53:25Z</time>
      </trkpt>
      <trkpt lat="46.06397" lon="4.78095">
        <ele>200</ele>
        <time>2016-09-10T09:53:26Z</time>
      </trkpt>
      <trkpt lat="46.06399" lon="4.78086">
        <ele>200</ele>
        <time>2016-09-10T09:53:27Z</time>
      </trkpt>
      <trkpt lat="46.06402" lon="4.78078">
        <ele>198</ele>
        <time>2016-09-10T09:53:28Z</time>
      </trkpt>
      <trkpt lat="46.06405" lon="4.78071">
        <ele>198</ele>
        <time>2016-09-10T09:53:29Z</time>
      </trkpt>
      <trkpt lat="46.06409" lon="4.78064">
        <ele>198</ele>
        <time>2016-09-10T09:53:30Z</time>
      </trkpt>
      <trkpt lat="46.06413" lon="4.78058">
        <ele>198</ele>
        <time>2016-09-10T09:53:31Z</time>
      </trkpt>
      <trkpt lat="46.06417" lon="4.78052">
        <ele>198</ele>
        <time>2016-09-10T09:53:32Z</time>
      </trkpt>
      <trkpt lat="46.06421" lon="4.78047">
        <ele>198</ele>
        <time>2016-09-10T09:53:33Z</time>
      </trkpt>
      <trkpt lat="46.06425" lon="4.78042">
        <ele>198</ele>
        <time>2016-09-10T09:53:34Z</time>
      </trkpt>
      <trkpt lat="46.06429" lon="4.78035">
        <ele>198</ele>
        <time>2016-09-10T09:53:35Z</time>
      </trkpt>
      <trkpt lat="46.06433" lon="4.78029">
        <ele>198</ele>
        <time>2016-09-10T09:53:36Z</time>
      </trkpt>
      <trkpt lat="46.06436" lon="4.78022">
        <ele>198</ele>
        <time>2016-09-10T09:53:37Z</time>
      </trkpt>
      <trkpt lat="46.0644" lon="4.78015">
        <ele>197</ele>
        <time>2016-09-10T09:53:38Z</time>
      </trkpt>
      <trkpt lat="46.06442" lon="4.78007">
        <ele>197</ele>
        <time>2016-09-10T09:53:39Z</time>
      </trkpt>
      <trkpt lat="46.06445" lon="4.77999">
        <ele>195</ele>
        <time>2016-09-10T09:53:40Z</time>
      </trkpt>
      <trkpt lat="46.06447" lon="4.77991">
        <ele>195</ele>
        <time>2016-09-10T09:53:41Z</time>
      </trkpt>
      <trkpt lat="46.06448" lon="4.77982">
        <ele>195</ele>
        <time>2016-09-10T09:53:42Z</time>
      </trkpt>
      <trkpt lat="46.0645" lon="4.77973">
        <ele>195</ele>
        <time>2016-09-10T09:53:43Z</time>
      </trkpt>
      <trkpt lat="46.06452" lon="4.77964">
        <ele>195</ele>
        <time>2016-09-10T09:53:44Z</time>
      </trkpt>
      <trkpt lat="46.06454" lon="4.77954">
        <ele>195</ele>
        <time>2016-09-10T09:53:45Z</time>
      </trkpt>
      <trkpt lat="46.06456" lon="4.77944">
        <ele>195</ele>
        <time>2016-09-10T09:53:46Z</time>
      </trkpt>
      <trkpt lat="46.06459" lon="4.77934">
        <ele>195</ele>
        <time>2016-09-10T09:53:47Z</time>
      </trkpt>
      <trkpt lat="46.06462" lon="4.77925">
        <ele>195</ele>
        <time>2016-09-10T09:53:48Z</time>
      </trkpt>
      <trkpt lat="46.06465" lon="4.77915">
        <ele>193</ele>
        <time>2016-09-10T09:53:49Z</time>
      </trkpt>
      <trkpt lat="46.06469" lon="4.77905">
        <ele>193</ele>
        <time>2016-09-10T09:53:50Z</time>
      </trkpt>
      <trkpt lat="46.06472" lon="4.77895">
        <ele>193</ele>
        <time>2016-09-10T09:53:51Z</time>
      </trkpt>
      <trkpt lat="46.06476" lon="4.77885">
        <ele>193</ele>
        <time>2016-09-10T09:53:52Z</time>
      </trkpt>
      <trkpt lat="46.0648" lon="4.77875">
        <ele>193</ele>
        <time>2016-09-10T09:53:53Z</time>
      </trkpt>
      <trkpt lat="46.06483" lon="4.77864">
        <ele>192</ele>
        <time>2016-09-10T09:53:54Z</time>
      </trkpt>
      <trkpt lat="46.06487" lon="4.77854">
        <ele>192</ele>
        <time>2016-09-10T09:53:55Z</time>
      </trkpt>
      <trkpt lat="46.06491" lon="4.77843">
        <ele>192</ele>
        <time>2016-09-10T09:53:56Z</time>
      </trkpt>
      <trkpt lat="46.06496" lon="4.77833">
        <ele>192</ele>
        <time>2016-09-10T09:53:57Z</time>
      </trkpt>
      <trkpt lat="46.065" lon="4.77822">
        <ele>192</ele>
        <time>2016-09-10T09:53:58Z</time>
      </trkpt>
      <trkpt lat="46.06505" lon="4.77812">
        <ele>192</ele>
        <time>2016-09-10T09:53:59Z</time>
      </trkpt>
      <trkpt lat="46.0651" lon="4.77802">
        <ele>192</ele>
        <time>2016-09-10T09:54:00Z</time>
      </trkpt>
      <trkpt lat="46.06516" lon="4.77793">
        <ele>192</ele>
        <time>2016-09-10T09:54:01Z</time>
      </trkpt>
      <trkpt lat="46.06521" lon="4.77783">
        <ele>192</ele>
        <time>2016-09-10T09:54:02Z</time>
      </trkpt>
      <trkpt lat="46.06526" lon="4.77774">
        <ele>192</ele>
        <time>2016-09-10T09:54:03Z</time>
      </trkpt>
      <trkpt lat="46.06531" lon="4.77765">
        <ele>192</ele>
        <time>2016-09-10T09:54:04Z</time>
      </trkpt>
      <trkpt lat="46.06536" lon="4.77756">
        <ele>191</ele>
        <time>2016-09-10T09:54:05Z</time>
      </trkpt>
      <trkpt lat="46.0654" lon="4.77747">
        <ele>190</ele>
        <time>2016-09-10T09:54:06Z</time>
      </trkpt>
      <trkpt lat="46.06545" lon="4.77738">
        <ele>190</ele>
        <time>2016-09-10T09:54:07Z</time>
      </trkpt>
      <trkpt lat="46.06549" lon="4.7773">
        <ele>189</ele>
        <time>2016-09-10T09:54:08Z</time>
      </trkpt>
      <trkpt lat="46.06554" lon="4.77721">
        <ele>189</ele>
        <time>2016-09-10T09:54:09Z</time>
      </trkpt>
      <trkpt lat="46.0656" lon="4.77714">
        <ele>189</ele>
        <time>2016-09-10T09:54:10Z</time>
      </trkpt>
      <trkpt lat="46.06566" lon="4.77708">
        <ele>189</ele>
        <time>2016-09-10T09:54:11Z</time>
      </trkpt>
      <trkpt lat="46.06573" lon="4.77702">
        <ele>189</ele>
        <time>2016-09-10T09:54:12Z</time>
      </trkpt>
      <trkpt lat="46.06579" lon="4.77698">
        <ele>188</ele>
        <time>2016-09-10T09:54:13Z</time>
      </trkpt>
      <trkpt lat="46.06586" lon="4.77695">
        <ele>188</ele>
        <time>2016-09-10T09:54:14Z</time>
      </trkpt>
      <trkpt lat="46.06593" lon="4.77692">
        <ele>187</ele>
        <time>2016-09-10T09:54:15Z</time>
      </trkpt>
      <trkpt lat="46.066" lon="4.77688">
        <ele>187</ele>
        <time>2016-09-10T09:54:16Z</time>
      </trkpt>
      <trkpt lat="46.06606" lon="4.77683">
        <ele>187</ele>
        <time>2016-09-10T09:54:17Z</time>
      </trkpt>
      <trkpt lat="46.06611" lon="4.77678">
        <ele>187</ele>
        <time>2016-09-10T09:54:18Z</time>
      </trkpt>
      <trkpt lat="46.06617" lon="4.77672">
        <ele>187</ele>
        <time>2016-09-10T09:54:19Z</time>
      </trkpt>
      <trkpt lat="46.06621" lon="4.77664">
        <ele>185</ele>
        <time>2016-09-10T09:54:20Z</time>
      </trkpt>
      <trkpt lat="46.06625" lon="4.77656">
        <ele>185</ele>
        <time>2016-09-10T09:54:21Z</time>
      </trkpt>
      <trkpt lat="46.06628" lon="4.77646">
        <ele>185</ele>
        <time>2016-09-10T09:54:22Z</time>
      </trkpt>
      <trkpt lat="46.0663" lon="4.77636">
        <ele>185</ele>
        <time>2016-09-10T09:54:23Z</time>
      </trkpt>
      <trkpt lat="46.06631" lon="4.77625">
        <ele>185</ele>
        <time>2016-09-10T09:54:24Z</time>
      </trkpt>
      <trkpt lat="46.06632" lon="4.77614">
        <ele>185</ele>
        <time>2016-09-10T09:54:25Z</time>
      </trkpt>
      <trkpt lat="46.06632" lon="4.77602">
        <ele>185</ele>
        <time>2016-09-10T09:54:26Z</time>
      </trkpt>
      <trkpt lat="46.06633" lon="4.77591">
        <ele>185</ele>
        <time>2016-09-10T09:54:27Z</time>
      </trkpt>
      <trkpt lat="46.06633" lon="4.77579">
        <ele>183</ele>
        <time>2016-09-10T09:54:28Z</time>
      </trkpt>
      <trkpt lat="46.06633" lon="4.77566">
        <ele>183</ele>
        <time>2016-09-10T09:54:29Z</time>
      </trkpt>
      <trkpt lat="46.06631" lon="4.77554">
        <ele>183</ele>
        <time>2016-09-10T09:54:30Z</time>
      </trkpt>
      <trkpt lat="46.06629" lon="4.77542">
        <ele>183</ele>
        <time>2016-09-10T09:54:31Z</time>
      </trkpt>
      <trkpt lat="46.06626" lon="4.7753">
        <ele>183</ele>
        <time>2016-09-10T09:54:32Z</time>
      </trkpt>
      <trkpt lat="46.06623" lon="4.77519">
        <ele>183</ele>
        <time>2016-09-10T09:54:33Z</time>
      </trkpt>
      <trkpt lat="46.06619" lon="4.77508">
        <ele>183</ele>
        <time>2016-09-10T09:54:34Z</time>
      </trkpt>
      <trkpt lat="46.06615" lon="4.77498">
        <ele>181</ele>
        <time>2016-09-10T09:54:35Z</time>
      </trkpt>
      <trkpt lat="46.0661" lon="4.77489">
        <ele>181</ele>
        <time>2016-09-10T09:54:36Z</time>
      </trkpt>
      <trkpt lat="46.06606" lon="4.7748">
        <ele>181</ele>
        <time>2016-09-10T09:54:37Z</time>
      </trkpt>
      <trkpt lat="46.06604" lon="4.7747">
        <ele>180</ele>
        <time>2016-09-10T09:54:38Z</time>
      </trkpt>
      <trkpt lat="46.06604" lon="4.7746">
        <ele>180</ele>
        <time>2016-09-10T09:54:39Z</time>
      </trkpt>
      <trkpt lat="46.06603" lon="4.7745">
        <ele>180</ele>
        <time>2016-09-10T09:54:40Z</time>
      </trkpt>
      <trkpt lat="46.06605" lon="4.77441">
        <ele>179</ele>
        <time>2016-09-10T09:54:41Z</time>
      </trkpt>
      <trkpt lat="46.06609" lon="4.77432">
        <ele>179</ele>
        <time>2016-09-10T09:54:42Z</time>
      </trkpt>
      <trkpt lat="46.06612" lon="4.77423">
        <ele>179</ele>
        <time>2016-09-10T09:54:43Z</time>
      </trkpt>
      <trkpt lat="46.06616" lon="4.77414">
        <ele>177</ele>
        <time>2016-09-10T09:54:44Z</time>
      </trkpt>
      <trkpt lat="46.06619" lon="4.77404">
        <ele>177</ele>
        <time>2016-09-10T09:54:45Z</time>
      </trkpt>
      <trkpt lat="46.06623" lon="4.77394">
        <ele>177</ele>
        <time>2016-09-10T09:54:46Z</time>
      </trkpt>
      <trkpt lat="46.06626" lon="4.77385">
        <ele>176</ele>
        <time>2016-09-10T09:54:47Z</time>
      </trkpt>
      <trkpt lat="46.06629" lon="4.77376">
        <ele>176</ele>
        <time>2016-09-10T09:54:48Z</time>
      </trkpt>
      <trkpt lat="46.06634" lon="4.77367">
        <ele>176</ele>
        <time>2016-09-10T09:54:49Z</time>
      </trkpt>
      <trkpt lat="46.06638" lon="4.77358">
        <ele>176</ele>
        <time>2016-09-10T09:54:50Z</time>
      </trkpt>
      <trkpt lat="46.06641" lon="4.77349">
        <ele>176</ele>
        <time>2016-09-10T09:54:51Z</time>
      </trkpt>
      <trkpt lat="46.06645" lon="4.7734">
        <ele>175</ele>
        <time>2016-09-10T09:54:52Z</time>
      </trkpt>
      <trkpt lat="46.06649" lon="4.77331">
        <ele>174</ele>
        <time>2016-09-10T09:54:53Z</time>
      </trkpt>
      <trkpt lat="46.06653" lon="4.77323">
        <ele>174</ele>
        <time>2016-09-10T09:54:54Z</time>
      </trkpt>
      <trkpt lat="46.06656" lon="4.77314">
        <ele>174</ele>
        <time>2016-09-10T09:54:55Z</time>
      </trkpt>
      <trkpt lat="46.0666" lon="4.77305">
        <ele>174</ele>
        <time>2016-09-10T09:54:56Z</time>
      </trkpt>
      <trkpt lat="46.06663" lon="4.77296">
        <ele>174</ele>
        <time>2016-09-10T09:54:57Z</time>
      </trkpt>
      <trkpt lat="46.06666" lon="4.77288">
        <ele>174</ele>
        <time>2016-09-10T09:54:58Z</time>
      </trkpt>
      <trkpt lat="46.06669" lon="4.7728">
        <ele>173</ele>
        <time>2016-09-10T09:54:59Z</time>
      </trkpt>
      <trkpt lat="46.06673" lon="4.77271">
        <ele>173</ele>
        <time>2016-09-10T09:55:00Z</time>
      </trkpt>
      <trkpt lat="46.06676" lon="4.77264">
        <ele>173</ele>
        <time>2016-09-10T09:55:01Z</time>
      </trkpt>
      <trkpt lat="46.0668" lon="4.77255">
        <ele>173</ele>
        <time>2016-09-10T09:55:02Z</time>
      </trkpt>
      <trkpt lat="46.06683" lon="4.77247">
        <ele>172</ele>
        <time>2016-09-10T09:55:03Z</time>
      </trkpt>
      <trkpt lat="46.06686" lon="4.77239">
        <ele>172</ele>
        <time>2016-09-10T09:55:04Z</time>
      </trkpt>
      <trkpt lat="46.06689" lon="4.77231">
        <ele>172</ele>
        <time>2016-09-10T09:55:05Z</time>
      </trkpt>
      <trkpt lat="46.06692" lon="4.77222">
        <ele>172</ele>
        <time>2016-09-10T09:55:06Z</time>
      </trkpt>
      <trkpt lat="46.06695" lon="4.77214">
        <ele>172</ele>
        <time>2016-09-10T09:55:07Z</time>
      </trkpt>
      <trkpt lat="46.06697" lon="4.77208">
        <ele>172</ele>
        <time>2016-09-10T09:55:08Z</time>
      </trkpt>
      <trkpt lat="46.06703" lon="4.77202">
        <ele>172</ele>
        <time>2016-09-10T09:55:10Z</time>
      </trkpt>
      <trkpt lat="46.06708" lon="4.772">
        <ele>172</ele>
        <time>2016-09-10T09:55:11Z</time>
      </trkpt>
      <trkpt lat="46.06714" lon="4.772">
        <ele>172</ele>
        <time>2016-09-10T09:55:12Z</time>
      </trkpt>
      <trkpt lat="46.06719" lon="4.77197">
        <ele>172</ele>
        <time>2016-09-10T09:55:13Z</time>
      </trkpt>
      <trkpt lat="46.06725" lon="4.77194">
        <ele>172</ele>
        <time>2016-09-10T09:55:14Z</time>
      </trkpt>
      <trkpt lat="46.0673" lon="4.77191">
        <ele>172</ele>
        <time>2016-09-10T09:55:15Z</time>
      </trkpt>
      <trkpt lat="46.06736" lon="4.77188">
        <ele>172</ele>
        <time>2016-09-10T09:55:16Z</time>
      </trkpt>
      <trkpt lat="46.06741" lon="4.77184">
        <ele>172</ele>
        <time>2016-09-10T09:55:17Z</time>
      </trkpt>
      <trkpt lat="46.06747" lon="4.7718">
        <ele>172</ele>
        <time>2016-09-10T09:55:18Z</time>
      </trkpt>
      <trkpt lat="46.06752" lon="4.77175">
        <ele>172</ele>
        <time>2016-09-10T09:55:19Z</time>
      </trkpt>
      <trkpt lat="46.06758" lon="4.7717">
        <ele>172</ele>
        <time>2016-09-10T09:55:20Z</time>
      </trkpt>
      <trkpt lat="46.06763" lon="4.77165">
        <ele>172</ele>
        <time>2016-09-10T09:55:21Z</time>
      </trkpt>
      <trkpt lat="46.06767" lon="4.7716">
        <ele>172</ele>
        <time>2016-09-10T09:55:22Z</time>
      </trkpt>
      <trkpt lat="46.06772" lon="4.77155">
        <ele>172</ele>
        <time>2016-09-10T09:55:23Z</time>
      </trkpt>
      <trkpt lat="46.06776" lon="4.7715">
        <ele>172</ele>
        <time>2016-09-10T09:55:24Z</time>
      </trkpt>
      <trkpt lat="46.06781" lon="4.77145">
        <ele>172</ele>
        <time>2016-09-10T09:55:25Z</time>
      </trkpt>
      <trkpt lat="46.06785" lon="4.7714">
        <ele>172</ele>
        <time>2016-09-10T09:55:26Z</time>
      </trkpt>
      <trkpt lat="46.0679" lon="4.77135">
        <ele>172</ele>
        <time>2016-09-10T09:55:27Z</time>
      </trkpt>
      <trkpt lat="46.06795" lon="4.7713">
        <ele>172</ele>
        <time>2016-09-10T09:55:28Z</time>
      </trkpt>
      <trkpt lat="46.06799" lon="4.77125">
        <ele>172</ele>
        <time>2016-09-10T09:55:29Z</time>
      </trkpt>
      <trkpt lat="46.06804" lon="4.7712">
        <ele>172</ele>
        <time>2016-09-10T09:55:30Z</time>
      </trkpt>
      <trkpt lat="46.06809" lon="4.77116">
        <ele>172</ele>
        <time>2016-09-10T09:55:31Z</time>
      </trkpt>
      <trkpt lat="46.06813" lon="4.77112">
        <ele>172</ele>
        <time>2016-09-10T09:55:32Z</time>
      </trkpt>
      <trkpt lat="46.06819" lon="4.77108">
        <ele>172</ele>
        <time>2016-09-10T09:55:33Z</time>
      </trkpt>
      <trkpt lat="46.06824" lon="4.77105">
        <ele>173</ele>
        <time>2016-09-10T09:55:34Z</time>
      </trkpt>
      <trkpt lat="46.06829" lon="4.77101">
        <ele>173</ele>
        <time>2016-09-10T09:55:35Z</time>
      </trkpt>
      <trkpt lat="46.06834" lon="4.77098">
        <ele>173</ele>
        <time>2016-09-10T09:55:36Z</time>
      </trkpt>
      <trkpt lat="46.06839" lon="4.77095">
        <ele>173</ele>
        <time>2016-09-10T09:55:37Z</time>
      </trkpt>
      <trkpt lat="46.06844" lon="4.77092">
        <ele>173</ele>
        <time>2016-09-10T09:55:38Z</time>
      </trkpt>
      <trkpt lat="46.06849" lon="4.7709">
        <ele>173</ele>
        <time>2016-09-10T09:55:39Z</time>
      </trkpt>
      <trkpt lat="46.06855" lon="4.77088">
        <ele>173</ele>
        <time>2016-09-10T09:55:40Z</time>
      </trkpt>
      <trkpt lat="46.0686" lon="4.77087">
        <ele>173</ele>
        <time>2016-09-10T09:55:41Z</time>
      </trkpt>
      <trkpt lat="46.06865" lon="4.77086">
        <ele>173</ele>
        <time>2016-09-10T09:55:42Z</time>
      </trkpt>
      <trkpt lat="46.0687" lon="4.77084">
        <ele>173</ele>
        <time>2016-09-10T09:55:43Z</time>
      </trkpt>
      <trkpt lat="46.06876" lon="4.77083">
        <ele>173</ele>
        <time>2016-09-10T09:55:44Z</time>
      </trkpt>
      <trkpt lat="46.06882" lon="4.77082">
        <ele>173</ele>
        <time>2016-09-10T09:55:45Z</time>
      </trkpt>
      <trkpt lat="46.06889" lon="4.77081">
        <ele>173</ele>
        <time>2016-09-10T09:55:46Z</time>
      </trkpt>
      <trkpt lat="46.06895" lon="4.77081">
        <ele>173</ele>
        <time>2016-09-10T09:55:47Z</time>
      </trkpt>
      <trkpt lat="46.069" lon="4.77081">
        <ele>173</ele>
        <time>2016-09-10T09:55:48Z</time>
      </trkpt>
      <trkpt lat="46.06906" lon="4.77081">
        <ele>173</ele>
        <time>2016-09-10T09:55:49Z</time>
      </trkpt>
      <trkpt lat="46.06911" lon="4.77081">
        <ele>173</ele>
        <time>2016-09-10T09:55:50Z</time>
      </trkpt>
      <trkpt lat="46.06917" lon="4.77081">
        <ele>173</ele>
        <time>2016-09-10T09:55:51Z</time>
      </trkpt>
      <trkpt lat="46.06922" lon="4.77081">
        <ele>173</ele>
        <time>2016-09-10T09:55:52Z</time>
      </trkpt>
      <trkpt lat="46.06928" lon="4.7708">
        <ele>173</ele>
        <time>2016-09-10T09:55:53Z</time>
      </trkpt>
      <trkpt lat="46.06933" lon="4.7708">
        <ele>173</ele>
        <time>2016-09-10T09:55:54Z</time>
      </trkpt>
      <trkpt lat="46.06939" lon="4.77079">
        <ele>173</ele>
        <time>2016-09-10T09:55:55Z</time>
      </trkpt>
      <trkpt lat="46.06944" lon="4.77078">
        <ele>173</ele>
        <time>2016-09-10T09:55:56Z</time>
      </trkpt>
      <trkpt lat="46.06949" lon="4.77077">
        <ele>173</ele>
        <time>2016-09-10T09:55:57Z</time>
      </trkpt>
      <trkpt lat="46.06955" lon="4.77076">
        <ele>173</ele>
        <time>2016-09-10T09:55:58Z</time>
      </trkpt>
      <trkpt lat="46.06961" lon="4.77076">
        <ele>173</ele>
        <time>2016-09-10T09:55:59Z</time>
      </trkpt>
      <trkpt lat="46.06966" lon="4.77076">
        <ele>173</ele>
        <time>2016-09-10T09:56:00Z</time>
      </trkpt>
      <trkpt lat="46.06972" lon="4.77075">
        <ele>173</ele>
        <time>2016-09-10T09:56:01Z</time>
      </trkpt>
      <trkpt lat="46.06978" lon="4.77074">
        <ele>174</ele>
        <time>2016-09-10T09:56:02Z</time>
      </trkpt>
      <trkpt lat="46.06984" lon="4.77071">
        <ele>174</ele>
        <time>2016-09-10T09:56:03Z</time>
      </trkpt>
      <trkpt lat="46.06987" lon="4.77065">
        <ele>174</ele>
        <time>2016-09-10T09:56:04Z</time>
      </trkpt>
      <trkpt lat="46.0699" lon="4.77058">
        <ele>173</ele>
        <time>2016-09-10T09:56:05Z</time>
      </trkpt>
      <trkpt lat="46.06992" lon="4.7705">
        <ele>173</ele>
        <time>2016-09-10T09:56:06Z</time>
      </trkpt>
      <trkpt lat="46.06995" lon="4.77042">
        <ele>173</ele>
        <time>2016-09-10T09:56:07Z</time>
      </trkpt>
      <trkpt lat="46.06998" lon="4.77034">
        <ele>173</ele>
        <time>2016-09-10T09:56:08Z</time>
      </trkpt>
      <trkpt lat="46.07001" lon="4.77027">
        <ele>174</ele>
        <time>2016-09-10T09:56:09Z</time>
      </trkpt>
      <trkpt lat="46.07005" lon="4.77019">
        <ele>174</ele>
        <time>2016-09-10T09:56:10Z</time>
      </trkpt>
      <trkpt lat="46.07009" lon="4.77012">
        <ele>174</ele>
        <time>2016-09-10T09:56:11Z</time>
      </trkpt>
      <trkpt lat="46.07012" lon="4.77005">
        <ele>174</ele>
        <time>2016-09-10T09:56:12Z</time>
      </trkpt>
      <trkpt lat="46.07016" lon="4.76998">
        <ele>173</ele>
        <time>2016-09-10T09:56:13Z</time>
      </trkpt>
      <trkpt lat="46.07019" lon="4.7699">
        <ele>173</ele>
        <time>2016-09-10T09:56:14Z</time>
      </trkpt>
      <trkpt lat="46.07023" lon="4.76983">
        <ele>173</ele>
        <time>2016-09-10T09:56:15Z</time>
      </trkpt>
      <trkpt lat="46.07027" lon="4.76976">
        <ele>173</ele>
        <time>2016-09-10T09:56:16Z</time>
      </trkpt>
      <trkpt lat="46.0703" lon="4.76969">
        <ele>173</ele>
        <time>2016-09-10T09:56:17Z</time>
      </trkpt>
      <trkpt lat="46.07034" lon="4.76963">
        <ele>173</ele>
        <time>2016-09-10T09:56:18Z</time>
      </trkpt>
      <trkpt lat="46.07037" lon="4.76957">
        <ele>173</ele>
        <time>2016-09-10T09:56:19Z</time>
      </trkpt>
      <trkpt lat="46.0704" lon="4.7695">
        <ele>173</ele>
        <time>2016-09-10T09:56:20Z</time>
      </trkpt>
      <trkpt lat="46.07044" lon="4.76943">
        <ele>173</ele>
        <time>2016-09-10T09:56:21Z</time>
      </trkpt>
      <trkpt lat="46.07047" lon="4.76937">
        <ele>173</ele>
        <time>2016-09-10T09:56:22Z</time>
      </trkpt>
      <trkpt lat="46.0705" lon="4.7693">
        <ele>173</ele>
        <time>2016-09-10T09:56:23Z</time>
      </trkpt>
      <trkpt lat="46.07054" lon="4.76923">
        <ele>173</ele>
        <time>2016-09-10T09:56:24Z</time>
      </trkpt>
      <trkpt lat="46.07057" lon="4.76917">
        <ele>173</ele>
        <time>2016-09-10T09:56:25Z</time>
      </trkpt>
      <trkpt lat="46.0706" lon="4.76911">
        <ele>172</ele>
        <time>2016-09-10T09:56:26Z</time>
      </trkpt>
      <trkpt lat="46.07063" lon="4.76905">
        <ele>172</ele>
        <time>2016-09-10T09:56:27Z</time>
      </trkpt>
      <trkpt lat="46.07067" lon="4.76898">
        <ele>172</ele>
        <time>2016-09-10T09:56:28Z</time>
      </trkpt>
      <trkpt lat="46.0707" lon="4.76892">
        <ele>172</ele>
        <time>2016-09-10T09:56:29Z</time>
      </trkpt>
      <trkpt lat="46.07073" lon="4.76886">
        <ele>172</ele>
        <time>2016-09-10T09:56:30Z</time>
      </trkpt>
      <trkpt lat="46.07076" lon="4.76879">
        <ele>172</ele>
        <time>2016-09-10T09:56:31Z</time>
      </trkpt>
      <trkpt lat="46.07079" lon="4.76873">
        <ele>172</ele>
        <time>2016-09-10T09:56:32Z</time>
      </trkpt>
      <trkpt lat="46.07083" lon="4.76866">
        <ele>172</ele>
        <time>2016-09-10T09:56:33Z</time>
      </trkpt>
      <trkpt lat="46.07086" lon="4.76859">
        <ele>173</ele>
        <time>2016-09-10T09:56:34Z</time>
      </trkpt>
      <trkpt lat="46.07089" lon="4.76852">
        <ele>172</ele>
        <time>2016-09-10T09:56:35Z</time>
      </trkpt>
      <trkpt lat="46.07093" lon="4.76844">
        <ele>172</ele>
        <time>2016-09-10T09:56:36Z</time>
      </trkpt>
      <trkpt lat="46.07096" lon="4.76837">
        <ele>172</ele>
        <time>2016-09-10T09:56:37Z</time>
      </trkpt>
      <trkpt lat="46.07101" lon="4.7683">
        <ele>172</ele>
        <time>2016-09-10T09:56:38Z</time>
      </trkpt>
      <trkpt lat="46.07104" lon="4.76823">
        <ele>172</ele>
        <time>2016-09-10T09:56:39Z</time>
      </trkpt>
      <trkpt lat="46.07108" lon="4.76817">
        <ele>172</ele>
        <time>2016-09-10T09:56:40Z</time>
      </trkpt>
      <trkpt lat="46.07111" lon="4.76811">
        <ele>172</ele>
        <time>2016-09-10T09:56:41Z</time>
      </trkpt>
      <trkpt lat="46.07114" lon="4.76804">
        <ele>172</ele>
        <time>2016-09-10T09:56:42Z</time>
      </trkpt>
      <trkpt lat="46.07117" lon="4.76797">
        <ele>172</ele>
        <time>2016-09-10T09:56:43Z</time>
      </trkpt>
      <trkpt lat="46.0712" lon="4.76791">
        <ele>171</ele>
        <time>2016-09-10T09:56:44Z</time>
      </trkpt>
      <trkpt lat="46.07123" lon="4.76784">
        <ele>171</ele>
        <time>2016-09-10T09:56:45Z</time>
      </trkpt>
      <trkpt lat="46.07126" lon="4.76779">
        <ele>171</ele>
        <time>2016-09-10T09:56:46Z</time>
      </trkpt>
      <trkpt lat="46.07129" lon="4.76773">
        <ele>171</ele>
        <time>2016-09-10T09:56:47Z</time>
      </trkpt>
      <trkpt lat="46.07132" lon="4.76767">
        <ele>171</ele>
        <time>2016-09-10T09:56:48Z</time>
      </trkpt>
      <trkpt lat="46.07135" lon="4.76761">
        <ele>171</ele>
        <time>2016-09-10T09:56:49Z</time>
      </trkpt>
      <trkpt lat="46.07138" lon="4.76755">
        <ele>171</ele>
        <time>2016-09-10T09:56:50Z</time>
      </trkpt>
      <trkpt lat="46.07141" lon="4.76748">
        <ele>171</ele>
        <time>2016-09-10T09:56:51Z</time>
      </trkpt>
      <trkpt lat="46.07145" lon="4.76741">
        <ele>171</ele>
        <time>2016-09-10T09:56:52Z</time>
      </trkpt>
      <trkpt lat="46.07149" lon="4.76734">
        <ele>171</ele>
        <time>2016-09-10T09:56:53Z</time>
      </trkpt>
      <trkpt lat="46.07152" lon="4.76727">
        <ele>171</ele>
        <time>2016-09-10T09:56:54Z</time>
      </trkpt>
      <trkpt lat="46.07156" lon="4.7672">
        <ele>170</ele>
        <time>2016-09-10T09:56:55Z</time>
      </trkpt>
      <trkpt lat="46.07159" lon="4.76713">
        <ele>170</ele>
        <time>2016-09-10T09:56:56Z</time>
      </trkpt>
      <trkpt lat="46.07163" lon="4.76707">
        <ele>170</ele>
        <time>2016-09-10T09:56:57Z</time>
      </trkpt>
      <trkpt lat="46.07166" lon="4.76701">
        <ele>170</ele>
        <time>2016-09-10T09:56:58Z</time>
      </trkpt>
      <trkpt lat="46.0717" lon="4.76695">
        <ele>171</ele>
        <time>2016-09-10T09:56:59Z</time>
      </trkpt>
      <trkpt lat="46.07173" lon="4.76689">
        <ele>170</ele>
        <time>2016-09-10T09:57:00Z</time>
      </trkpt>
      <trkpt lat="46.07176" lon="4.76683">
        <ele>170</ele>
        <time>2016-09-10T09:57:01Z</time>
      </trkpt>
      <trkpt lat="46.0718" lon="4.76676">
        <ele>170</ele>
        <time>2016-09-10T09:57:02Z</time>
      </trkpt>
      <trkpt lat="46.07184" lon="4.7667">
        <ele>170</ele>
        <time>2016-09-10T09:57:03Z</time>
      </trkpt>
      <trkpt lat="46.07188" lon="4.76664">
        <ele>170</ele>
        <time>2016-09-10T09:57:04Z</time>
      </trkpt>
      <trkpt lat="46.07192" lon="4.76657">
        <ele>170</ele>
        <time>2016-09-10T09:57:05Z</time>
      </trkpt>
      <trkpt lat="46.07195" lon="4.7665">
        <ele>170</ele>
        <time>2016-09-10T09:57:06Z</time>
      </trkpt>
      <trkpt lat="46.07199" lon="4.76643">
        <ele>170</ele>
        <time>2016-09-10T09:57:07Z</time>
      </trkpt>
      <trkpt lat="46.07204" lon="4.76637">
        <ele>170</ele>
        <time>2016-09-10T09:57:08Z</time>
      </trkpt>
      <trkpt lat="46.07208" lon="4.76631">
        <ele>170</ele>
        <time>2016-09-10T09:57:09Z</time>
      </trkpt>
      <trkpt lat="46.07212" lon="4.76626">
        <ele>171</ele>
        <time>2016-09-10T09:57:10Z</time>
      </trkpt>
      <trkpt lat="46.07216" lon="4.7662">
        <ele>170</ele>
        <time>2016-09-10T09:57:11Z</time>
      </trkpt>
      <trkpt lat="46.07221" lon="4.76615">
        <ele>170</ele>
        <time>2016-09-10T09:57:12Z</time>
      </trkpt>
      <trkpt lat="46.07225" lon="4.7661">
        <ele>170</ele>
        <time>2016-09-10T09:57:13Z</time>
      </trkpt>
      <trkpt lat="46.07229" lon="4.76605">
        <ele>170</ele>
        <time>2016-09-10T09:57:14Z</time>
      </trkpt>
      <trkpt lat="46.07232" lon="4.76598">
        <ele>170</ele>
        <time>2016-09-10T09:57:15Z</time>
      </trkpt>
      <trkpt lat="46.07236" lon="4.76593">
        <ele>170</ele>
        <time>2016-09-10T09:57:16Z</time>
      </trkpt>
      <trkpt lat="46.0724" lon="4.76587">
        <ele>170</ele>
        <time>2016-09-10T09:57:17Z</time>
      </trkpt>
      <trkpt lat="46.07244" lon="4.76581">
        <ele>170</ele>
        <time>2016-09-10T09:57:18Z</time>
      </trkpt>
      <trkpt lat="46.07249" lon="4.76575">
        <ele>170</ele>
        <time>2016-09-10T09:57:19Z</time>
      </trkpt>
      <trkpt lat="46.07254" lon="4.7657">
        <ele>170</ele>
        <time>2016-09-10T09:57:20Z</time>
      </trkpt>
      <trkpt lat="46.07258" lon="4.76564">
        <ele>170</ele>
        <time>2016-09-10T09:57:21Z</time>
      </trkpt>
      <trkpt lat="46.07263" lon="4.76559">
        <ele>170</ele>
        <time>2016-09-10T09:57:22Z</time>
      </trkpt>
      <trkpt lat="46.07267" lon="4.76553">
        <ele>170</ele>
        <time>2016-09-10T09:57:23Z</time>
      </trkpt>
      <trkpt lat="46.07272" lon="4.76548">
        <ele>170</ele>
        <time>2016-09-10T09:57:24Z</time>
      </trkpt>
      <trkpt lat="46.07276" lon="4.76543">
        <ele>170</ele>
        <time>2016-09-10T09:57:25Z</time>
      </trkpt>
      <trkpt lat="46.07281" lon="4.76538">
        <ele>170</ele>
        <time>2016-09-10T09:57:26Z</time>
      </trkpt>
      <trkpt lat="46.07285" lon="4.76533">
        <ele>170</ele>
        <time>2016-09-10T09:57:27Z</time>
      </trkpt>
      <trkpt lat="46.07289" lon="4.76529">
        <ele>170</ele>
        <time>2016-09-10T09:57:28Z</time>
      </trkpt>
      <trkpt lat="46.07294" lon="4.76525">
        <ele>170</ele>
        <time>2016-09-10T09:57:29Z</time>
      </trkpt>
      <trkpt lat="46.07298" lon="4.7652">
        <ele>170</ele>
        <time>2016-09-10T09:57:30Z</time>
      </trkpt>
      <trkpt lat="46.07302" lon="4.76516">
        <ele>170</ele>
        <time>2016-09-10T09:57:31Z</time>
      </trkpt>
      <trkpt lat="46.07306" lon="4.76511">
        <ele>170</ele>
        <time>2016-09-10T09:57:32Z</time>
      </trkpt>
      <trkpt lat="46.0731" lon="4.76507">
        <ele>170</ele>
        <time>2016-09-10T09:57:33Z</time>
      </trkpt>
      <trkpt lat="46.07314" lon="4.76503">
        <ele>170</ele>
        <time>2016-09-10T09:57:34Z</time>
      </trkpt>
      <trkpt lat="46.07318" lon="4.76499">
        <ele>170</ele>
        <time>2016-09-10T09:57:35Z</time>
      </trkpt>
      <trkpt lat="46.07323" lon="4.76494">
        <ele>170</ele>
        <time>2016-09-10T09:57:36Z</time>
      </trkpt>
      <trkpt lat="46.07326" lon="4.7649">
        <ele>170</ele>
        <time>2016-09-10T09:57:37Z</time>
      </trkpt>
      <trkpt lat="46.0733" lon="4.76485">
        <ele>170</ele>
        <time>2016-09-10T09:57:38Z</time>
      </trkpt>
      <trkpt lat="46.07334" lon="4.7648">
        <ele>171</ele>
        <time>2016-09-10T09:57:39Z</time>
      </trkpt>
      <trkpt lat="46.07338" lon="4.76476">
        <ele>171</ele>
        <time>2016-09-10T09:57:40Z</time>
      </trkpt>
      <trkpt lat="46.07343" lon="4.76471">
        <ele>171</ele>
        <time>2016-09-10T09:57:41Z</time>
      </trkpt>
      <trkpt lat="46.07348" lon="4.76466">
        <ele>171</ele>
        <time>2016-09-10T09:57:42Z</time>
      </trkpt>
      <trkpt lat="46.07353" lon="4.76461">
        <ele>171</ele>
        <time>2016-09-10T09:57:43Z</time>
      </trkpt>
      <trkpt lat="46.0736" lon="4.76456">
        <ele>171</ele>
        <time>2016-09-10T09:57:44Z</time>
      </trkpt>
      <trkpt lat="46.07365" lon="4.76452">
        <ele>171</ele>
        <time>2016-09-10T09:57:45Z</time>
      </trkpt>
      <trkpt lat="46.07371" lon="4.76447">
        <ele>171</ele>
        <time>2016-09-10T09:57:46Z</time>
      </trkpt>
      <trkpt lat="46.07376" lon="4.76442">
        <ele>171</ele>
        <time>2016-09-10T09:57:47Z</time>
      </trkpt>
      <trkpt lat="46.07381" lon="4.76436">
        <ele>171</ele>
        <time>2016-09-10T09:57:48Z</time>
      </trkpt>
      <trkpt lat="46.07386" lon="4.76431">
        <ele>171</ele>
        <time>2016-09-10T09:57:49Z</time>
      </trkpt>
      <trkpt lat="46.07391" lon="4.76426">
        <ele>171</ele>
        <time>2016-09-10T09:57:50Z</time>
      </trkpt>
      <trkpt lat="46.07395" lon="4.76422">
        <ele>171</ele>
        <time>2016-09-10T09:57:51Z</time>
      </trkpt>
      <trkpt lat="46.07399" lon="4.76417">
        <ele>171</ele>
        <time>2016-09-10T09:57:52Z</time>
      </trkpt>
      <trkpt lat="46.07403" lon="4.76413">
        <ele>171</ele>
        <time>2016-09-10T09:57:53Z</time>
      </trkpt>
      <trkpt lat="46.07408" lon="4.76409">
        <ele>171</ele>
        <time>2016-09-10T09:57:54Z</time>
      </trkpt>
      <trkpt lat="46.07412" lon="4.76404">
        <ele>171</ele>
        <time>2016-09-10T09:57:55Z</time>
      </trkpt>
      <trkpt lat="46.07416" lon="4.76399">
        <ele>171</ele>
        <time>2016-09-10T09:57:56Z</time>
      </trkpt>
      <trkpt lat="46.07421" lon="4.76394">
        <ele>171</ele>
        <time>2016-09-10T09:57:57Z</time>
      </trkpt>
      <trkpt lat="46.07426" lon="4.76389">
        <ele>171</ele>
        <time>2016-09-10T09:57:58Z</time>
      </trkpt>
      <trkpt lat="46.07431" lon="4.76384">
        <ele>171</ele>
        <time>2016-09-10T09:57:59Z</time>
      </trkpt>
      <trkpt lat="46.07436" lon="4.76379">
        <ele>171</ele>
        <time>2016-09-10T09:58:00Z</time>
      </trkpt>
      <trkpt lat="46.0744" lon="4.76374">
        <ele>171</ele>
        <time>2016-09-10T09:58:01Z</time>
      </trkpt>
      <trkpt lat="46.07445" lon="4.7637">
        <ele>172</ele>
        <time>2016-09-10T09:58:02Z</time>
      </trkpt>
      <trkpt lat="46.07449" lon="4.76366">
        <ele>172</ele>
        <time>2016-09-10T09:58:03Z</time>
      </trkpt>
      <trkpt lat="46.07453" lon="4.76361">
        <ele>172</ele>
        <time>2016-09-10T09:58:04Z</time>
      </trkpt>
      <trkpt lat="46.07457" lon="4.76357">
        <ele>172</ele>
        <time>2016-09-10T09:58:05Z</time>
      </trkpt>
      <trkpt lat="46.07464" lon="4.76349">
        <ele>172</ele>
        <time>2016-09-10T09:58:07Z</time>
      </trkpt>
      <trkpt lat="46.07467" lon="4.76346">
        <ele>172</ele>
        <time>2016-09-10T09:58:08Z</time>
      </trkpt>
      <trkpt lat="46.07474" lon="4.76346">
        <ele>172</ele>
        <time>2016-09-10T09:58:10Z</time>
      </trkpt>
      <trkpt lat="46.07478" lon="4.76346">
        <ele>172</ele>
        <time>2016-09-10T09:58:11Z</time>
      </trkpt>
      <trkpt lat="46.07486" lon="4.76342">
        <ele>173</ele>
        <time>2016-09-10T09:58:13Z</time>
      </trkpt>
      <trkpt lat="46.07489" lon="4.76336">
        <ele>173</ele>
        <time>2016-09-10T09:58:14Z</time>
      </trkpt>
      <trkpt lat="46.07491" lon="4.76328">
        <ele>173</ele>
        <time>2016-09-10T09:58:15Z</time>
      </trkpt>
      <trkpt lat="46.07493" lon="4.7632">
        <ele>173</ele>
        <time>2016-09-10T09:58:16Z</time>
      </trkpt>
      <trkpt lat="46.07496" lon="4.76313">
        <ele>173</ele>
        <time>2016-09-10T09:58:17Z</time>
      </trkpt>
      <trkpt lat="46.07499" lon="4.76306">
        <ele>173</ele>
        <time>2016-09-10T09:58:18Z</time>
      </trkpt>
      <trkpt lat="46.07502" lon="4.76302">
        <ele>174</ele>
        <time>2016-09-10T09:58:19Z</time>
      </trkpt>
      <trkpt lat="46.07507" lon="4.76298">
        <ele>174</ele>
        <time>2016-09-10T09:58:20Z</time>
      </trkpt>
      <trkpt lat="46.07512" lon="4.76294">
        <ele>174</ele>
        <time>2016-09-10T09:58:21Z</time>
      </trkpt>
      <trkpt lat="46.07515" lon="4.7629">
        <ele>174</ele>
        <time>2016-09-10T09:58:22Z</time>
      </trkpt>
      <trkpt lat="46.07519" lon="4.76286">
        <ele>174</ele>
        <time>2016-09-10T09:58:23Z</time>
      </trkpt>
      <trkpt lat="46.07523" lon="4.76281">
        <ele>174</ele>
        <time>2016-09-10T09:58:24Z</time>
      </trkpt>
      <trkpt lat="46.07527" lon="4.76277">
        <ele>174</ele>
        <time>2016-09-10T09:58:25Z</time>
      </trkpt>
      <trkpt lat="46.07532" lon="4.76272">
        <ele>174</ele>
        <time>2016-09-10T09:58:26Z</time>
      </trkpt>
      <trkpt lat="46.07537" lon="4.76268">
        <ele>174</ele>
        <time>2016-09-10T09:58:27Z</time>
      </trkpt>
      <trkpt lat="46.07541" lon="4.76263">
        <ele>174</ele>
        <time>2016-09-10T09:58:28Z</time>
      </trkpt>
      <trkpt lat="46.07545" lon="4.76258">
        <ele>174</ele>
        <time>2016-09-10T09:58:29Z</time>
      </trkpt>
      <trkpt lat="46.07548" lon="4.76253">
        <ele>174</ele>
        <time>2016-09-10T09:58:30Z</time>
      </trkpt>
      <trkpt lat="46.07552" lon="4.76249">
        <ele>173</ele>
        <time>2016-09-10T09:58:31Z</time>
      </trkpt>
      <trkpt lat="46.07557" lon="4.76244">
        <ele>173</ele>
        <time>2016-09-10T09:58:32Z</time>
      </trkpt>
      <trkpt lat="46.07562" lon="4.76239">
        <ele>173</ele>
        <time>2016-09-10T09:58:33Z</time>
      </trkpt>
      <trkpt lat="46.07568" lon="4.76235">
        <ele>173</ele>
        <time>2016-09-10T09:58:34Z</time>
      </trkpt>
      <trkpt lat="46.07573" lon="4.76229">
        <ele>173</ele>
        <time>2016-09-10T09:58:35Z</time>
      </trkpt>
      <trkpt lat="46.07578" lon="4.76223">
        <ele>173</ele>
        <time>2016-09-10T09:58:36Z</time>
      </trkpt>
      <trkpt lat="46.07583" lon="4.76218">
        <ele>173</ele>
        <time>2016-09-10T09:58:37Z</time>
      </trkpt>
      <trkpt lat="46.07588" lon="4.76212">
        <ele>173</ele>
        <time>2016-09-10T09:58:38Z</time>
      </trkpt>
      <trkpt lat="46.07594" lon="4.76207">
        <ele>173</ele>
        <time>2016-09-10T09:58:39Z</time>
      </trkpt>
      <trkpt lat="46.07599" lon="4.76201">
        <ele>173</ele>
        <time>2016-09-10T09:58:40Z</time>
      </trkpt>
      <trkpt lat="46.07603" lon="4.76196">
        <ele>173</ele>
        <time>2016-09-10T09:58:41Z</time>
      </trkpt>
      <trkpt lat="46.07607" lon="4.76192">
        <ele>173</ele>
        <time>2016-09-10T09:58:42Z</time>
      </trkpt>
      <trkpt lat="46.07611" lon="4.76188">
        <ele>173</ele>
        <time>2016-09-10T09:58:43Z</time>
      </trkpt>
      <trkpt lat="46.07616" lon="4.76183">
        <ele>173</ele>
        <time>2016-09-10T09:58:44Z</time>
      </trkpt>
      <trkpt lat="46.0762" lon="4.76179">
        <ele>173</ele>
        <time>2016-09-10T09:58:45Z</time>
      </trkpt>
      <trkpt lat="46.07624" lon="4.76174">
        <ele>173</ele>
        <time>2016-09-10T09:58:46Z</time>
      </trkpt>
      <trkpt lat="46.07628" lon="4.7617">
        <ele>173</ele>
        <time>2016-09-10T09:58:47Z</time>
      </trkpt>
      <trkpt lat="46.07632" lon="4.76164">
        <ele>172</ele>
        <time>2016-09-10T09:58:48Z</time>
      </trkpt>
      <trkpt lat="46.07638" lon="4.76162">
        <ele>172</ele>
        <time>2016-09-10T09:58:49Z</time>
      </trkpt>
      <trkpt lat="46.07643" lon="4.76157">
        <ele>172</ele>
        <time>2016-09-10T09:58:50Z</time>
      </trkpt>
      <trkpt lat="46.07648" lon="4.76153">
        <ele>172</ele>
        <time>2016-09-10T09:58:51Z</time>
      </trkpt>
      <trkpt lat="46.07653" lon="4.76147">
        <ele>172</ele>
        <time>2016-09-10T09:58:52Z</time>
      </trkpt>
      <trkpt lat="46.07658" lon="4.76142">
        <ele>172</ele>
        <time>2016-09-10T09:58:53Z</time>
      </trkpt>
      <trkpt lat="46.07663" lon="4.76136">
        <ele>172</ele>
        <time>2016-09-10T09:58:54Z</time>
      </trkpt>
      <trkpt lat="46.07668" lon="4.76131">
        <ele>173</ele>
        <time>2016-09-10T09:58:55Z</time>
      </trkpt>
      <trkpt lat="46.07674" lon="4.76125">
        <ele>173</ele>
        <time>2016-09-10T09:58:56Z</time>
      </trkpt>
      <trkpt lat="46.07679" lon="4.76119">
        <ele>173</ele>
        <time>2016-09-10T09:58:57Z</time>
      </trkpt>
      <trkpt lat="46.07683" lon="4.76114">
        <ele>173</ele>
        <time>2016-09-10T09:58:58Z</time>
      </trkpt>
      <trkpt lat="46.07688" lon="4.76109">
        <ele>173</ele>
        <time>2016-09-10T09:58:59Z</time>
      </trkpt>
      <trkpt lat="46.07692" lon="4.76105">
        <ele>173</ele>
        <time>2016-09-10T09:59:00Z</time>
      </trkpt>
      <trkpt lat="46.07696" lon="4.761">
        <ele>174</ele>
        <time>2016-09-10T09:59:01Z</time>
      </trkpt>
      <trkpt lat="46.07701" lon="4.76096">
        <ele>174</ele>
        <time>2016-09-10T09:59:02Z</time>
      </trkpt>
      <trkpt lat="46.07705" lon="4.76092">
        <ele>174</ele>
        <time>2016-09-10T09:59:03Z</time>
      </trkpt>
      <trkpt lat="46.07709" lon="4.76088">
        <ele>174</ele>
        <time>2016-09-10T09:59:04Z</time>
      </trkpt>
      <trkpt lat="46.07713" lon="4.76084">
        <ele>174</ele>
        <time>2016-09-10T09:59:05Z</time>
      </trkpt>
      <trkpt lat="46.07717" lon="4.76079">
        <ele>175</ele>
        <time>2016-09-10T09:59:06Z</time>
      </trkpt>
      <trkpt lat="46.07721" lon="4.76075">
        <ele>175</ele>
        <time>2016-09-10T09:59:07Z</time>
      </trkpt>
      <trkpt lat="46.07724" lon="4.76072">
        <ele>175</ele>
        <time>2016-09-10T09:59:08Z</time>
      </trkpt>
      <trkpt lat="46.07732" lon="4.76066">
        <ele>175</ele>
        <time>2016-09-10T09:59:10Z</time>
      </trkpt>
      <trkpt lat="46.07736" lon="4.76062">
        <ele>175</ele>
        <time>2016-09-10T09:59:11Z</time>
      </trkpt>
      <trkpt lat="46.0774" lon="4.76059">
        <ele>175</ele>
        <time>2016-09-10T09:59:12Z</time>
      </trkpt>
      <trkpt lat="46.07745" lon="4.76055">
        <ele>175</ele>
        <time>2016-09-10T09:59:13Z</time>
      </trkpt>
      <trkpt lat="46.07749" lon="4.76051">
        <ele>175</ele>
        <time>2016-09-10T09:59:14Z</time>
      </trkpt>
      <trkpt lat="46.07753" lon="4.76048">
        <ele>176</ele>
        <time>2016-09-10T09:59:15Z</time>
      </trkpt>
      <trkpt lat="46.07759" lon="4.76043">
        <ele>176</ele>
        <time>2016-09-10T09:59:25Z</time>
      </trkpt>
      <trkpt lat="46.0776" lon="4.76041">
        <ele>176</ele>
        <time>2016-09-10T09:59:26Z</time>
      </trkpt>
      <trkpt lat="46.07766" lon="4.76034">
        <ele>176</ele>
        <time>2016-09-10T09:59:29Z</time>
      </trkpt>
      <trkpt lat="46.07768" lon="4.76032">
        <ele>176</ele>
        <time>2016-09-10T09:59:30Z</time>
      </trkpt>
      <trkpt lat="46.07775" lon="4.76028">
        <ele>176</ele>
        <time>2016-09-10T09:59:33Z</time>
      </trkpt>
      <trkpt lat="46.07777" lon="4.76026">
        <ele>176</ele>
        <time>2016-09-10T09:59:34Z</time>
      </trkpt>
      <trkpt lat="46.07782" lon="4.76021">
        <ele>176</ele>
        <time>2016-09-10T09:59:36Z</time>
      </trkpt>
      <trkpt lat="46.07787" lon="4.76019">
        <ele>176</ele>
        <time>2016-09-10T09:59:37Z</time>
      </trkpt>
      <trkpt lat="46.07795" lon="4.76014">
        <ele>176</ele>
        <time>2016-09-10T09:59:39Z</time>
      </trkpt>
      <trkpt lat="46.07799" lon="4.76012">
        <ele>176</ele>
        <time>2016-09-10T09:59:40Z</time>
      </trkpt>
      <trkpt lat="46.07803" lon="4.76008">
        <ele>176</ele>
        <time>2016-09-10T09:59:41Z</time>
      </trkpt>
      <trkpt lat="46.07807" lon="4.76002">
        <ele>176</ele>
        <time>2016-09-10T09:59:42Z</time>
      </trkpt>
      <trkpt lat="46.07811" lon="4.75997">
        <ele>176</ele>
        <time>2016-09-10T09:59:43Z</time>
      </trkpt>
      <trkpt lat="46.07816" lon="4.75992">
        <ele>177</ele>
        <time>2016-09-10T09:59:44Z</time>
      </trkpt>
      <trkpt lat="46.0782" lon="4.75988">
        <ele>177</ele>
        <time>2016-09-10T09:59:45Z</time>
      </trkpt>
      <trkpt lat="46.07825" lon="4.75984">
        <ele>177</ele>
        <time>2016-09-10T09:59:46Z</time>
      </trkpt>
      <trkpt lat="46.0783" lon="4.7598">
        <ele>176</ele>
        <time>2016-09-10T09:59:47Z</time>
      </trkpt>
      <trkpt lat="46.07835" lon="4.75973">
        <ele>176</ele>
        <time>2016-09-10T09:59:48Z</time>
      </trkpt>
      <trkpt lat="46.07842" lon="4.75974">
        <ele>176</ele>
        <time>2016-09-10T09:59:49Z</time>
      </trkpt>
      <trkpt lat="46.07847" lon="4.75972">
        <ele>176</ele>
        <time>2016-09-10T09:59:50Z</time>
      </trkpt>
      <trkpt lat="46.07852" lon="4.75967">
        <ele>176</ele>
        <time>2016-09-10T09:59:51Z</time>
      </trkpt>
      <trkpt lat="46.07857" lon="4.75963">
        <ele>176</ele>
        <time>2016-09-10T09:59:52Z</time>
      </trkpt>
      <trkpt lat="46.07862" lon="4.75959">
        <ele>176</ele>
        <time>2016-09-10T09:59:53Z</time>
      </trkpt>
      <trkpt lat="46.07867" lon="4.75956">
        <ele>176</ele>
        <time>2016-09-10T09:59:54Z</time>
      </trkpt>
      <trkpt lat="46.07872" lon="4.75953">
        <ele>176</ele>
        <time>2016-09-10T09:59:55Z</time>
      </trkpt>
      <trkpt lat="46.07877" lon="4.75949">
        <ele>176</ele>
        <time>2016-09-10T09:59:56Z</time>
      </trkpt>
      <trkpt lat="46.07882" lon="4.75945">
        <ele>176</ele>
        <time>2016-09-10T09:59:57Z</time>
      </trkpt>
      <trkpt lat="46.07887" lon="4.75941">
        <ele>176</ele>
        <time>2016-09-10T09:59:58Z</time>
      </trkpt>
      <trkpt lat="46.07892" lon="4.75938">
        <ele>176</ele>
        <time>2016-09-10T09:59:59Z</time>
      </trkpt>
      <trkpt lat="46.07897" lon="4.75935">
        <ele>176</ele>
        <time>2016-09-10T10:00:00Z</time>
      </trkpt>
      <trkpt lat="46.07902" lon="4.75934">
        <ele>176</ele>
        <time>2016-09-10T10:00:01Z</time>
      </trkpt>
      <trkpt lat="46.07907" lon="4.75935">
        <ele>176</ele>
        <time>2016-09-10T10:00:02Z</time>
      </trkpt>
      <trkpt lat="46.07911" lon="4.75934">
        <ele>176</ele>
        <time>2016-09-10T10:00:03Z</time>
      </trkpt>
      <trkpt lat="46.07916" lon="4.75932">
        <ele>176</ele>
        <time>2016-09-10T10:00:04Z</time>
      </trkpt>
      <trkpt lat="46.0792" lon="4.7593">
        <ele>176</ele>
        <time>2016-09-10T10:00:05Z</time>
      </trkpt>
      <trkpt lat="46.07925" lon="4.75927">
        <ele>176</ele>
        <time>2016-09-10T10:00:06Z</time>
      </trkpt>
      <trkpt lat="46.07929" lon="4.75924">
        <ele>176</ele>
        <time>2016-09-10T10:00:07Z</time>
      </trkpt>
      <trkpt lat="46.07933" lon="4.75921">
        <ele>176</ele>
        <time>2016-09-10T10:00:08Z</time>
      </trkpt>
      <trkpt lat="46.07938" lon="4.75917">
        <ele>176</ele>
        <time>2016-09-10T10:00:09Z</time>
      </trkpt>
      <trkpt lat="46.07942" lon="4.75914">
        <ele>176</ele>
        <time>2016-09-10T10:00:10Z</time>
      </trkpt>
      <trkpt lat="46.07947" lon="4.7591">
        <ele>176</ele>
        <time>2016-09-10T10:00:11Z</time>
      </trkpt>
      <trkpt lat="46.07953" lon="4.75906">
        <ele>176</ele>
        <time>2016-09-10T10:00:12Z</time>
      </trkpt>
      <trkpt lat="46.07958" lon="4.75902">
        <ele>176</ele>
        <time>2016-09-10T10:00:13Z</time>
      </trkpt>
      <trkpt lat="46.07962" lon="4.75897">
        <ele>175</ele>
        <time>2016-09-10T10:00:14Z</time>
      </trkpt>
      <trkpt lat="46.07967" lon="4.75893">
        <ele>175</ele>
        <time>2016-09-10T10:00:15Z</time>
      </trkpt>
      <trkpt lat="46.07971" lon="4.75888">
        <ele>176</ele>
        <time>2016-09-10T10:00:16Z</time>
      </trkpt>
      <trkpt lat="46.07978" lon="4.75882">
        <ele>176</ele>
        <time>2016-09-10T10:00:18Z</time>
      </trkpt>
      <trkpt lat="46.07983" lon="4.75879">
        <ele>176</ele>
        <time>2016-09-10T10:00:19Z</time>
      </trkpt>
      <trkpt lat="46.07989" lon="4.75875">
        <ele>176</ele>
        <time>2016-09-10T10:00:20Z</time>
      </trkpt>
      <trkpt lat="46.07993" lon="4.75873">
        <ele>176</ele>
        <time>2016-09-10T10:00:21Z</time>
      </trkpt>
      <trkpt lat="46.08001" lon="4.75867">
        <ele>177</ele>
        <time>2016-09-10T10:00:23Z</time>
      </trkpt>
      <trkpt lat="46.08005" lon="4.75865">
        <ele>177</ele>
        <time>2016-09-10T10:00:24Z</time>
      </trkpt>
      <trkpt lat="46.0801" lon="4.75864">
        <ele>177</ele>
        <time>2016-09-10T10:00:25Z</time>
      </trkpt>
      <trkpt lat="46.08017" lon="4.75868">
        <ele>177</ele>
        <time>2016-09-10T10:00:26Z</time>
      </trkpt>
      <trkpt lat="46.08023" lon="4.75868">
        <ele>177</ele>
        <time>2016-09-10T10:00:27Z</time>
      </trkpt>
      <trkpt lat="46.08028" lon="4.75868">
        <ele>178</ele>
        <time>2016-09-10T10:00:28Z</time>
      </trkpt>
      <trkpt lat="46.08033" lon="4.75869">
        <ele>178</ele>
        <time>2016-09-10T10:00:29Z</time>
      </trkpt>
      <trkpt lat="46.08038" lon="4.75869">
        <ele>178</ele>
        <time>2016-09-10T10:00:30Z</time>
      </trkpt>
      <trkpt lat="46.08043" lon="4.75871">
        <ele>178</ele>
        <time>2016-09-10T10:00:31Z</time>
      </trkpt>
      <trkpt lat="46.08048" lon="4.75871">
        <ele>178</ele>
        <time>2016-09-10T10:00:32Z</time>
      </trkpt>
      <trkpt lat="46.08057" lon="4.75869">
        <ele>178</ele>
        <time>2016-09-10T10:00:35Z</time>
      </trkpt>
      <trkpt lat="46.0806" lon="4.75871">
        <ele>178</ele>
        <time>2016-09-10T10:00:36Z</time>
      </trkpt>
      <trkpt lat="46.08066" lon="4.75877">
        <ele>178</ele>
        <time>2016-09-10T10:00:37Z</time>
      </trkpt>
      <trkpt lat="46.08069" lon="4.75877">
        <ele>178</ele>
        <time>2016-09-10T10:00:38Z</time>
      </trkpt>
      <trkpt lat="46.08074" lon="4.75871">
        <ele>178</ele>
        <time>2016-09-10T10:00:40Z</time>
      </trkpt>
      <trkpt lat="46.08076" lon="4.75868">
        <ele>178</ele>
        <time>2016-09-10T10:00:41Z</time>
      </trkpt>
      <trkpt lat="46.08078" lon="4.75858">
        <ele>178</ele>
        <time>2016-09-10T10:00:43Z</time>
      </trkpt>
      <trkpt lat="46.08078" lon="4.75853">
        <ele>178</ele>
        <time>2016-09-10T10:00:44Z</time>
      </trkpt>
      <trkpt lat="46.08078" lon="4.75842">
        <ele>179</ele>
        <time>2016-09-10T10:00:46Z</time>
      </trkpt>
      <trkpt lat="46.08079" lon="4.75836">
        <ele>179</ele>
        <time>2016-09-10T10:00:47Z</time>
      </trkpt>
      <trkpt lat="46.08078" lon="4.75824">
        <ele>178</ele>
        <time>2016-09-10T10:00:49Z</time>
      </trkpt>
      <trkpt lat="46.08078" lon="4.75819">
        <ele>178</ele>
        <time>2016-09-10T10:00:50Z</time>
      </trkpt>
      <trkpt lat="46.0808" lon="4.75807">
        <ele>178</ele>
        <time>2016-09-10T10:00:52Z</time>
      </trkpt>
      <trkpt lat="46.08081" lon="4.75801">
        <ele>178</ele>
        <time>2016-09-10T10:00:53Z</time>
      </trkpt>
      <trkpt lat="46.08085" lon="4.75791">
        <ele>179</ele>
        <time>2016-09-10T10:00:55Z</time>
      </trkpt>
      <trkpt lat="46.08087" lon="4.75786">
        <ele>179</ele>
        <time>2016-09-10T10:00:56Z</time>
      </trkpt>
      <trkpt lat="46.08092" lon="4.75777">
        <ele>178</ele>
        <time>2016-09-10T10:00:58Z</time>
      </trkpt>
      <trkpt lat="46.08095" lon="4.75773">
        <ele>178</ele>
        <time>2016-09-10T10:00:59Z</time>
      </trkpt>
      <trkpt lat="46.08098" lon="4.75767">
        <ele>178</ele>
        <time>2016-09-10T10:01:00Z</time>
      </trkpt>
      <trkpt lat="46.08101" lon="4.75762">
        <ele>178</ele>
        <time>2016-09-10T10:01:01Z</time>
      </trkpt>
      <trkpt lat="46.08106" lon="4.75752">
        <ele>178</ele>
        <time>2016-09-10T10:01:03Z</time>
      </trkpt>
      <trkpt lat="46.0811" lon="4.75747">
        <ele>177</ele>
        <time>2016-09-10T10:01:04Z</time>
      </trkpt>
      <trkpt lat="46.08114" lon="4.75741">
        <ele>177</ele>
        <time>2016-09-10T10:01:05Z</time>
      </trkpt>
      <trkpt lat="46.08117" lon="4.75736">
        <ele>177</ele>
        <time>2016-09-10T10:01:06Z</time>
      </trkpt>
      <trkpt lat="46.08121" lon="4.7573">
        <ele>177</ele>
        <time>2016-09-10T10:01:07Z</time>
      </trkpt>
      <trkpt lat="46.08124" lon="4.75724">
        <ele>177</ele>
        <time>2016-09-10T10:01:08Z</time>
      </trkpt>
      <trkpt lat="46.08127" lon="4.75718">
        <ele>177</ele>
        <time>2016-09-10T10:01:09Z</time>
      </trkpt>
      <trkpt lat="46.0813" lon="4.75712">
        <ele>177</ele>
        <time>2016-09-10T10:01:10Z</time>
      </trkpt>
      <trkpt lat="46.08133" lon="4.75706">
        <ele>177</ele>
        <time>2016-09-10T10:01:11Z</time>
      </trkpt>
      <trkpt lat="46.08136" lon="4.757">
        <ele>177</ele>
        <time>2016-09-10T10:01:12Z</time>
      </trkpt>
      <trkpt lat="46.0814" lon="4.7569">
        <ele>177</ele>
        <time>2016-09-10T10:01:14Z</time>
      </trkpt>
      <trkpt lat="46.08141" lon="4.75686">
        <ele>177</ele>
        <time>2016-09-10T10:01:15Z</time>
      </trkpt>
      <trkpt lat="46.08139" lon="4.75677">
        <ele>176</ele>
        <time>2016-09-10T10:01:17Z</time>
      </trkpt>
      <trkpt lat="46.08137" lon="4.75673">
        <ele>176</ele>
        <time>2016-09-10T10:01:18Z</time>
      </trkpt>
      <trkpt lat="46.08133" lon="4.75665">
        <ele>176</ele>
        <time>2016-09-10T10:01:20Z</time>
      </trkpt>
      <trkpt lat="46.0813" lon="4.7566">
        <ele>176</ele>
        <time>2016-09-10T10:01:21Z</time>
      </trkpt>
      <trkpt lat="46.08127" lon="4.75651">
        <ele>175</ele>
        <time>2016-09-10T10:01:23Z</time>
      </trkpt>
      <trkpt lat="46.08124" lon="4.75646">
        <ele>175</ele>
        <time>2016-09-10T10:01:24Z</time>
      </trkpt>
      <trkpt lat="46.08122" lon="4.75637">
        <ele>175</ele>
        <time>2016-09-10T10:01:26Z</time>
      </trkpt>
      <trkpt lat="46.08118" lon="4.75633">
        <ele>175</ele>
        <time>2016-09-10T10:01:27Z</time>
      </trkpt>
      <trkpt lat="46.08113" lon="4.75622">
        <ele>175</ele>
        <time>2016-09-10T10:01:29Z</time>
      </trkpt>
      <trkpt lat="46.0811" lon="4.75616">
        <ele>175</ele>
        <time>2016-09-10T10:01:30Z</time>
      </trkpt>
      <trkpt lat="46.08107" lon="4.75605">
        <ele>175</ele>
        <time>2016-09-10T10:01:32Z</time>
      </trkpt>
      <trkpt lat="46.08106" lon="4.756">
        <ele>175</ele>
        <time>2016-09-10T10:01:33Z</time>
      </trkpt>
      <trkpt lat="46.08103" lon="4.75588">
        <ele>175</ele>
        <time>2016-09-10T10:01:36Z</time>
      </trkpt>
      <trkpt lat="46.08102" lon="4.75587">
        <ele>175</ele>
        <time>2016-09-10T10:01:37Z</time>
      </trkpt>
      <trkpt lat="46.08102" lon="4.75584">
        <ele>175</ele>
        <time>2016-09-10T10:01:39Z</time>
      </trkpt>
      <trkpt lat="46.08101" lon="4.75584">
        <ele>175</ele>
        <time>2016-09-10T10:01:40Z</time>
      </trkpt>
      <trkpt lat="46.08101" lon="4.75585">
        <ele>175</ele>
        <time>2016-09-10T10:03:55Z</time>
      </trkpt>
      <trkpt lat="46.08103" lon="4.75583">
        <ele>173</ele>
        <time>2016-09-10T10:03:56Z</time>
      </trkpt>
      <trkpt lat="46.08097" lon="4.75578">
        <ele>173</ele>
        <time>2016-09-10T10:04:27Z</time>
      </trkpt>
      <trkpt lat="46.08095" lon="4.75575">
        <ele>173</ele>
        <time>2016-09-10T10:04:28Z</time>
      </trkpt>
      <trkpt lat="46.08091" lon="4.75564">
        <ele>173</ele>
        <time>2016-09-10T10:04:31Z</time>
      </trkpt>
      <trkpt lat="46.08088" lon="4.7556">
        <ele>172</ele>
        <time>2016-09-10T10:04:32Z</time>
      </trkpt>
      <trkpt lat="46.08083" lon="4.7555">
        <ele>169</ele>
        <time>2016-09-10T10:04:35Z</time>
      </trkpt>
      <trkpt lat="46.08081" lon="4.75545">
        <ele>169</ele>
        <time>2016-09-10T10:04:36Z</time>
      </trkpt>
      <trkpt lat="46.08078" lon="4.75538">
        <ele>168</ele>
        <time>2016-09-10T10:04:38Z</time>
      </trkpt>
      <trkpt lat="46.08076" lon="4.75534">
        <ele>168</ele>
        <time>2016-09-10T10:04:39Z</time>
      </trkpt>
      <trkpt lat="46.08072" lon="4.75526">
        <ele>168</ele>
        <time>2016-09-10T10:04:41Z</time>
      </trkpt>
      <trkpt lat="46.08071" lon="4.75522">
        <ele>168</ele>
        <time>2016-09-10T10:04:42Z</time>
      </trkpt>
      <trkpt lat="46.08066" lon="4.75511">
        <ele>167</ele>
        <time>2016-09-10T10:04:45Z</time>
      </trkpt>
      <trkpt lat="46.08064" lon="4.75507">
        <ele>167</ele>
        <time>2016-09-10T10:04:46Z</time>
      </trkpt>
      <trkpt lat="46.08061" lon="4.75499">
        <ele>166</ele>
        <time>2016-09-10T10:04:48Z</time>
      </trkpt>
      <trkpt lat="46.08058" lon="4.75495">
        <ele>166</ele>
        <time>2016-09-10T10:04:49Z</time>
      </trkpt>
      <trkpt lat="46.08055" lon="4.75487">
        <ele>166</ele>
        <time>2016-09-10T10:04:51Z</time>
      </trkpt>
      <trkpt lat="46.08053" lon="4.75483">
        <ele>166</ele>
        <time>2016-09-10T10:04:52Z</time>
      </trkpt>
      <trkpt lat="46.08049" lon="4.75473">
        <ele>166</ele>
        <time>2016-09-10T10:04:54Z</time>
      </trkpt>
      <trkpt lat="46.08046" lon="4.75468">
        <ele>166</ele>
        <time>2016-09-10T10:04:55Z</time>
      </trkpt>
      <trkpt lat="46.08043" lon="4.75462">
        <ele>166</ele>
        <time>2016-09-10T10:04:56Z</time>
      </trkpt>
      <trkpt lat="46.0804" lon="4.75456">
        <ele>166</ele>
        <time>2016-09-10T10:04:57Z</time>
      </trkpt>
      <trkpt lat="46.08037" lon="4.75449">
        <ele>166</ele>
        <time>2016-09-10T10:04:58Z</time>
      </trkpt>
      <trkpt lat="46.08034" lon="4.75443">
        <ele>166</ele>
        <time>2016-09-10T10:04:59Z</time>
      </trkpt>
      <trkpt lat="46.08031" lon="4.75436">
        <ele>166</ele>
        <time>2016-09-10T10:05:00Z</time>
      </trkpt>
      <trkpt lat="46.08028" lon="4.7543">
        <ele>166</ele>
        <time>2016-09-10T10:05:01Z</time>
      </trkpt>
      <trkpt lat="46.08025" lon="4.75423">
        <ele>166</ele>
        <time>2016-09-10T10:05:02Z</time>
      </trkpt>
      <trkpt lat="46.08022" lon="4.75416">
        <ele>166</ele>
        <time>2016-09-10T10:05:03Z</time>
      </trkpt>
      <trkpt lat="46.08018" lon="4.7541">
        <ele>166</ele>
        <time>2016-09-10T10:05:04Z</time>
      </trkpt>
      <trkpt lat="46.08015" lon="4.75404">
        <ele>166</ele>
        <time>2016-09-10T10:05:05Z</time>
      </trkpt>
      <trkpt lat="46.08011" lon="4.75397">
        <ele>167</ele>
        <time>2016-09-10T10:05:06Z</time>
      </trkpt>
      <trkpt lat="46.08008" lon="4.75389">
        <ele>167</ele>
        <time>2016-09-10T10:05:07Z</time>
      </trkpt>
      <trkpt lat="46.08004" lon="4.7538">
        <ele>167</ele>
        <time>2016-09-10T10:05:08Z</time>
      </trkpt>
      <trkpt lat="46.08" lon="4.75372">
        <ele>168</ele>
        <time>2016-09-10T10:05:09Z</time>
      </trkpt>
      <trkpt lat="46.07995" lon="4.75363">
        <ele>168</ele>
        <time>2016-09-10T10:05:10Z</time>
      </trkpt>
      <trkpt lat="46.0799" lon="4.75354">
        <ele>168</ele>
        <time>2016-09-10T10:05:11Z</time>
      </trkpt>
      <trkpt lat="46.07986" lon="4.75346">
        <ele>168</ele>
        <time>2016-09-10T10:05:12Z</time>
      </trkpt>
      <trkpt lat="46.07982" lon="4.75338">
        <ele>168</ele>
        <time>2016-09-10T10:05:13Z</time>
      </trkpt>
      <trkpt lat="46.07978" lon="4.75329">
        <ele>169</ele>
        <time>2016-09-10T10:05:14Z</time>
      </trkpt>
      <trkpt lat="46.07974" lon="4.75321">
        <ele>169</ele>
        <time>2016-09-10T10:05:15Z</time>
      </trkpt>
      <trkpt lat="46.0797" lon="4.75313">
        <ele>169</ele>
        <time>2016-09-10T10:05:16Z</time>
      </trkpt>
      <trkpt lat="46.07967" lon="4.75305">
        <ele>169</ele>
        <time>2016-09-10T10:05:17Z</time>
      </trkpt>
      <trkpt lat="46.07964" lon="4.75297">
        <ele>169</ele>
        <time>2016-09-10T10:05:18Z</time>
      </trkpt>
      <trkpt lat="46.07961" lon="4.7529">
        <ele>169</ele>
        <time>2016-09-10T10:05:19Z</time>
      </trkpt>
      <trkpt lat="46.07958" lon="4.75283">
        <ele>169</ele>
        <time>2016-09-10T10:05:20Z</time>
      </trkpt>
      <trkpt lat="46.07955" lon="4.75275">
        <ele>169</ele>
        <time>2016-09-10T10:05:21Z</time>
      </trkpt>
      <trkpt lat="46.07951" lon="4.75268">
        <ele>169</ele>
        <time>2016-09-10T10:05:22Z</time>
      </trkpt>
      <trkpt lat="46.07948" lon="4.75261">
        <ele>170</ele>
        <time>2016-09-10T10:05:23Z</time>
      </trkpt>
      <trkpt lat="46.07944" lon="4.75253">
        <ele>170</ele>
        <time>2016-09-10T10:05:24Z</time>
      </trkpt>
      <trkpt lat="46.07941" lon="4.75246">
        <ele>170</ele>
        <time>2016-09-10T10:05:25Z</time>
      </trkpt>
      <trkpt lat="46.07938" lon="4.75239">
        <ele>170</ele>
        <time>2016-09-10T10:05:26Z</time>
      </trkpt>
      <trkpt lat="46.07934" lon="4.75231">
        <ele>171</ele>
        <time>2016-09-10T10:05:27Z</time>
      </trkpt>
      <trkpt lat="46.0793" lon="4.75224">
        <ele>171</ele>
        <time>2016-09-10T10:05:28Z</time>
      </trkpt>
      <trkpt lat="46.07926" lon="4.75217">
        <ele>171</ele>
        <time>2016-09-10T10:05:29Z</time>
      </trkpt>
      <trkpt lat="46.07923" lon="4.75211">
        <ele>171</ele>
        <time>2016-09-10T10:05:30Z</time>
      </trkpt>
      <trkpt lat="46.0792" lon="4.75204">
        <ele>171</ele>
        <time>2016-09-10T10:05:31Z</time>
      </trkpt>
      <trkpt lat="46.07916" lon="4.75197">
        <ele>171</ele>
        <time>2016-09-10T10:05:32Z</time>
      </trkpt>
      <trkpt lat="46.07913" lon="4.7519">
        <ele>171</ele>
        <time>2016-09-10T10:05:33Z</time>
      </trkpt>
      <trkpt lat="46.0791" lon="4.75184">
        <ele>171</ele>
        <time>2016-09-10T10:05:34Z</time>
      </trkpt>
      <trkpt lat="46.07907" lon="4.75178">
        <ele>172</ele>
        <time>2016-09-10T10:05:35Z</time>
      </trkpt>
      <trkpt lat="46.07903" lon="4.75172">
        <ele>172</ele>
        <time>2016-09-10T10:05:36Z</time>
      </trkpt>
      <trkpt lat="46.07899" lon="4.75166">
        <ele>171</ele>
        <time>2016-09-10T10:05:37Z</time>
      </trkpt>
      <trkpt lat="46.07895" lon="4.75159">
        <ele>171</ele>
        <time>2016-09-10T10:05:38Z</time>
      </trkpt>
      <trkpt lat="46.07891" lon="4.75151">
        <ele>171</ele>
        <time>2016-09-10T10:05:39Z</time>
      </trkpt>
      <trkpt lat="46.07887" lon="4.75144">
        <ele>171</ele>
        <time>2016-09-10T10:05:40Z</time>
      </trkpt>
      <trkpt lat="46.07883" lon="4.75138">
        <ele>171</ele>
        <time>2016-09-10T10:05:41Z</time>
      </trkpt>
      <trkpt lat="46.07879" lon="4.75132">
        <ele>171</ele>
        <time>2016-09-10T10:05:42Z</time>
      </trkpt>
      <trkpt lat="46.07876" lon="4.75125">
        <ele>171</ele>
        <time>2016-09-10T10:05:43Z</time>
      </trkpt>
      <trkpt lat="46.07872" lon="4.75118">
        <ele>171</ele>
        <time>2016-09-10T10:05:44Z</time>
      </trkpt>
      <trkpt lat="46.07868" lon="4.75112">
        <ele>171</ele>
        <time>2016-09-10T10:05:45Z</time>
      </trkpt>
      <trkpt lat="46.07865" lon="4.75106">
        <ele>171</ele>
        <time>2016-09-10T10:05:46Z</time>
      </trkpt>
      <trkpt lat="46.07861" lon="4.751">
        <ele>171</ele>
        <time>2016-09-10T10:05:47Z</time>
      </trkpt>
      <trkpt lat="46.07857" lon="4.75094">
        <ele>171</ele>
        <time>2016-09-10T10:05:48Z</time>
      </trkpt>
      <trkpt lat="46.07853" lon="4.75087">
        <ele>171</ele>
        <time>2016-09-10T10:05:49Z</time>
      </trkpt>
      <trkpt lat="46.0785" lon="4.75081">
        <ele>171</ele>
        <time>2016-09-10T10:05:50Z</time>
      </trkpt>
      <trkpt lat="46.07846" lon="4.75075">
        <ele>171</ele>
        <time>2016-09-10T10:05:51Z</time>
      </trkpt>
      <trkpt lat="46.07842" lon="4.7507">
        <ele>171</ele>
        <time>2016-09-10T10:05:52Z</time>
      </trkpt>
      <trkpt lat="46.07837" lon="4.75065">
        <ele>171</ele>
        <time>2016-09-10T10:05:53Z</time>
      </trkpt>
      <trkpt lat="46.07832" lon="4.7506">
        <ele>171</ele>
        <time>2016-09-10T10:05:54Z</time>
      </trkpt>
      <trkpt lat="46.07828" lon="4.75056">
        <ele>171</ele>
        <time>2016-09-10T10:05:55Z</time>
      </trkpt>
      <trkpt lat="46.07824" lon="4.75052">
        <ele>171</ele>
        <time>2016-09-10T10:05:56Z</time>
      </trkpt>
      <trkpt lat="46.07819" lon="4.75047">
        <ele>171</ele>
        <time>2016-09-10T10:05:57Z</time>
      </trkpt>
      <trkpt lat="46.07814" lon="4.75042">
        <ele>171</ele>
        <time>2016-09-10T10:05:58Z</time>
      </trkpt>
      <trkpt lat="46.07809" lon="4.75039">
        <ele>171</ele>
        <time>2016-09-10T10:05:59Z</time>
      </trkpt>
      <trkpt lat="46.07804" lon="4.75034">
        <ele>171</ele>
        <time>2016-09-10T10:06:00Z</time>
      </trkpt>
      <trkpt lat="46.07798" lon="4.75029">
        <ele>171</ele>
        <time>2016-09-10T10:06:01Z</time>
      </trkpt>
      <trkpt lat="46.07792" lon="4.75025">
        <ele>172</ele>
        <time>2016-09-10T10:06:02Z</time>
      </trkpt>
      <trkpt lat="46.07786" lon="4.75021">
        <ele>172</ele>
        <time>2016-09-10T10:06:03Z</time>
      </trkpt>
      <trkpt lat="46.07781" lon="4.75016">
        <ele>172</ele>
        <time>2016-09-10T10:06:04Z</time>
      </trkpt>
      <trkpt lat="46.07776" lon="4.75012">
        <ele>172</ele>
        <time>2016-09-10T10:06:05Z</time>
      </trkpt>
      <trkpt lat="46.07772" lon="4.75008">
        <ele>172</ele>
        <time>2016-09-10T10:06:06Z</time>
      </trkpt>
      <trkpt lat="46.07767" lon="4.75004">
        <ele>172</ele>
        <time>2016-09-10T10:06:07Z</time>
      </trkpt>
      <trkpt lat="46.07763" lon="4.75">
        <ele>172</ele>
        <time>2016-09-10T10:06:08Z</time>
      </trkpt>
      <trkpt lat="46.07758" lon="4.74996">
        <ele>172</ele>
        <time>2016-09-10T10:06:09Z</time>
      </trkpt>
      <trkpt lat="46.07753" lon="4.74992">
        <ele>172</ele>
        <time>2016-09-10T10:06:10Z</time>
      </trkpt>
      <trkpt lat="46.07748" lon="4.74988">
        <ele>173</ele>
        <time>2016-09-10T10:06:11Z</time>
      </trkpt>
      <trkpt lat="46.07742" lon="4.74984">
        <ele>173</ele>
        <time>2016-09-10T10:06:12Z</time>
      </trkpt>
      <trkpt lat="46.07737" lon="4.7498">
        <ele>172</ele>
        <time>2016-09-10T10:06:13Z</time>
      </trkpt>
      <trkpt lat="46.07732" lon="4.74975">
        <ele>172</ele>
        <time>2016-09-10T10:06:14Z</time>
      </trkpt>
      <trkpt lat="46.07727" lon="4.7497">
        <ele>172</ele>
        <time>2016-09-10T10:06:15Z</time>
      </trkpt>
      <trkpt lat="46.07722" lon="4.74966">
        <ele>172</ele>
        <time>2016-09-10T10:06:16Z</time>
      </trkpt>
      <trkpt lat="46.07717" lon="4.74962">
        <ele>172</ele>
        <time>2016-09-10T10:06:17Z</time>
      </trkpt>
      <trkpt lat="46.07712" lon="4.74958">
        <ele>172</ele>
        <time>2016-09-10T10:06:18Z</time>
      </trkpt>
      <trkpt lat="46.07707" lon="4.74954">
        <ele>172</ele>
        <time>2016-09-10T10:06:19Z</time>
      </trkpt>
      <trkpt lat="46.07702" lon="4.74949">
        <ele>172</ele>
        <time>2016-09-10T10:06:20Z</time>
      </trkpt>
      <trkpt lat="46.07696" lon="4.74945">
        <ele>172</ele>
        <time>2016-09-10T10:06:21Z</time>
      </trkpt>
      <trkpt lat="46.07691" lon="4.74941">
        <ele>172</ele>
        <time>2016-09-10T10:06:22Z</time>
      </trkpt>
      <trkpt lat="46.07686" lon="4.74938">
        <ele>172</ele>
        <time>2016-09-10T10:06:23Z</time>
      </trkpt>
      <trkpt lat="46.07682" lon="4.74934">
        <ele>172</ele>
        <time>2016-09-10T10:06:24Z</time>
      </trkpt>
      <trkpt lat="46.07677" lon="4.7493">
        <ele>172</ele>
        <time>2016-09-10T10:06:25Z</time>
      </trkpt>
      <trkpt lat="46.07672" lon="4.74925">
        <ele>172</ele>
        <time>2016-09-10T10:06:26Z</time>
      </trkpt>
      <trkpt lat="46.07667" lon="4.74921">
        <ele>172</ele>
        <time>2016-09-10T10:06:27Z</time>
      </trkpt>
      <trkpt lat="46.07661" lon="4.74917">
        <ele>172</ele>
        <time>2016-09-10T10:06:28Z</time>
      </trkpt>
      <trkpt lat="46.07656" lon="4.74912">
        <ele>172</ele>
        <time>2016-09-10T10:06:29Z</time>
      </trkpt>
      <trkpt lat="46.07651" lon="4.74907">
        <ele>171</ele>
        <time>2016-09-10T10:06:30Z</time>
      </trkpt>
      <trkpt lat="46.07646" lon="4.74902">
        <ele>171</ele>
        <time>2016-09-10T10:06:31Z</time>
      </trkpt>
      <trkpt lat="46.0764" lon="4.74897">
        <ele>171</ele>
        <time>2016-09-10T10:06:32Z</time>
      </trkpt>
      <trkpt lat="46.07635" lon="4.74893">
        <ele>171</ele>
        <time>2016-09-10T10:06:33Z</time>
      </trkpt>
      <trkpt lat="46.0763" lon="4.74888">
        <ele>171</ele>
        <time>2016-09-10T10:06:34Z</time>
      </trkpt>
      <trkpt lat="46.07626" lon="4.74884">
        <ele>171</ele>
        <time>2016-09-10T10:06:35Z</time>
      </trkpt>
      <trkpt lat="46.07621" lon="4.7488">
        <ele>171</ele>
        <time>2016-09-10T10:06:36Z</time>
      </trkpt>
      <trkpt lat="46.07616" lon="4.74876">
        <ele>171</ele>
        <time>2016-09-10T10:06:37Z</time>
      </trkpt>
      <trkpt lat="46.07611" lon="4.74873">
        <ele>171</ele>
        <time>2016-09-10T10:06:38Z</time>
      </trkpt>
      <trkpt lat="46.07606" lon="4.74868">
        <ele>171</ele>
        <time>2016-09-10T10:06:39Z</time>
      </trkpt>
      <trkpt lat="46.07601" lon="4.74864">
        <ele>171</ele>
        <time>2016-09-10T10:06:40Z</time>
      </trkpt>
      <trkpt lat="46.07596" lon="4.7486">
        <ele>171</ele>
        <time>2016-09-10T10:06:41Z</time>
      </trkpt>
      <trkpt lat="46.07591" lon="4.74856">
        <ele>171</ele>
        <time>2016-09-10T10:06:42Z</time>
      </trkpt>
      <trkpt lat="46.07585" lon="4.74852">
        <ele>171</ele>
        <time>2016-09-10T10:06:43Z</time>
      </trkpt>
      <trkpt lat="46.0758" lon="4.74848">
        <ele>171</ele>
        <time>2016-09-10T10:06:44Z</time>
      </trkpt>
      <trkpt lat="46.07575" lon="4.74844">
        <ele>171</ele>
        <time>2016-09-10T10:06:45Z</time>
      </trkpt>
      <trkpt lat="46.07569" lon="4.74839">
        <ele>171</ele>
        <time>2016-09-10T10:06:46Z</time>
      </trkpt>
      <trkpt lat="46.07564" lon="4.74835">
        <ele>171</ele>
        <time>2016-09-10T10:06:47Z</time>
      </trkpt>
      <trkpt lat="46.07559" lon="4.7483">
        <ele>172</ele>
        <time>2016-09-10T10:06:48Z</time>
      </trkpt>
      <trkpt lat="46.07554" lon="4.74826">
        <ele>172</ele>
        <time>2016-09-10T10:06:49Z</time>
      </trkpt>
      <trkpt lat="46.07549" lon="4.74821">
        <ele>172</ele>
        <time>2016-09-10T10:06:50Z</time>
      </trkpt>
      <trkpt lat="46.07544" lon="4.74817">
        <ele>172</ele>
        <time>2016-09-10T10:06:51Z</time>
      </trkpt>
      <trkpt lat="46.07539" lon="4.74813">
        <ele>172</ele>
        <time>2016-09-10T10:06:52Z</time>
      </trkpt>
      <trkpt lat="46.07534" lon="4.74809">
        <ele>172</ele>
        <time>2016-09-10T10:06:53Z</time>
      </trkpt>
      <trkpt lat="46.07529" lon="4.74805">
        <ele>172</ele>
        <time>2016-09-10T10:06:54Z</time>
      </trkpt>
      <trkpt lat="46.07524" lon="4.74801">
        <ele>172</ele>
        <time>2016-09-10T10:06:55Z</time>
      </trkpt>
      <trkpt lat="46.07518" lon="4.74798">
        <ele>172</ele>
        <time>2016-09-10T10:06:56Z</time>
      </trkpt>
      <trkpt lat="46.07513" lon="4.74793">
        <ele>172</ele>
        <time>2016-09-10T10:06:57Z</time>
      </trkpt>
      <trkpt lat="46.07507" lon="4.74789">
        <ele>172</ele>
        <time>2016-09-10T10:06:58Z</time>
      </trkpt>
      <trkpt lat="46.07502" lon="4.74785">
        <ele>172</ele>
        <time>2016-09-10T10:06:59Z</time>
      </trkpt>
      <trkpt lat="46.07497" lon="4.74781">
        <ele>173</ele>
        <time>2016-09-10T10:07:00Z</time>
      </trkpt>
      <trkpt lat="46.07492" lon="4.74777">
        <ele>173</ele>
        <time>2016-09-10T10:07:01Z</time>
      </trkpt>
      <trkpt lat="46.07485" lon="4.74771">
        <ele>173</ele>
        <time>2016-09-10T10:07:02Z</time>
      </trkpt>
      <trkpt lat="46.0748" lon="4.74765">
        <ele>173</ele>
        <time>2016-09-10T10:07:03Z</time>
      </trkpt>
      <trkpt lat="46.07475" lon="4.74759">
        <ele>173</ele>
        <time>2016-09-10T10:07:04Z</time>
      </trkpt>
      <trkpt lat="46.0747" lon="4.74753">
        <ele>173</ele>
        <time>2016-09-10T10:07:05Z</time>
      </trkpt>
      <trkpt lat="46.07465" lon="4.74746">
        <ele>173</ele>
        <time>2016-09-10T10:07:06Z</time>
      </trkpt>
      <trkpt lat="46.0746" lon="4.7474">
        <ele>173</ele>
        <time>2016-09-10T10:07:07Z</time>
      </trkpt>
      <trkpt lat="46.07455" lon="4.74734">
        <ele>173</ele>
        <time>2016-09-10T10:07:08Z</time>
      </trkpt>
      <trkpt lat="46.07451" lon="4.74728">
        <ele>173</ele>
        <time>2016-09-10T10:07:09Z</time>
      </trkpt>
      <trkpt lat="46.07447" lon="4.74721">
        <ele>173</ele>
        <time>2016-09-10T10:07:10Z</time>
      </trkpt>
      <trkpt lat="46.07444" lon="4.74715">
        <ele>173</ele>
        <time>2016-09-10T10:07:11Z</time>
      </trkpt>
      <trkpt lat="46.07441" lon="4.74708">
        <ele>173</ele>
        <time>2016-09-10T10:07:12Z</time>
      </trkpt>
      <trkpt lat="46.07437" lon="4.74703">
        <ele>173</ele>
        <time>2016-09-10T10:07:13Z</time>
      </trkpt>
      <trkpt lat="46.07434" lon="4.74697">
        <ele>173</ele>
        <time>2016-09-10T10:07:14Z</time>
      </trkpt>
      <trkpt lat="46.07431" lon="4.74691">
        <ele>173</ele>
        <time>2016-09-10T10:07:15Z</time>
      </trkpt>
      <trkpt lat="46.07428" lon="4.74685">
        <ele>172</ele>
        <time>2016-09-10T10:07:16Z</time>
      </trkpt>
      <trkpt lat="46.07425" lon="4.74679">
        <ele>172</ele>
        <time>2016-09-10T10:07:17Z</time>
      </trkpt>
      <trkpt lat="46.07422" lon="4.74673">
        <ele>172</ele>
        <time>2016-09-10T10:07:18Z</time>
      </trkpt>
      <trkpt lat="46.0742" lon="4.74667">
        <ele>172</ele>
        <time>2016-09-10T10:07:19Z</time>
      </trkpt>
      <trkpt lat="46.07417" lon="4.74661">
        <ele>172</ele>
        <time>2016-09-10T10:07:20Z</time>
      </trkpt>
      <trkpt lat="46.07414" lon="4.74655">
        <ele>173</ele>
        <time>2016-09-10T10:07:21Z</time>
      </trkpt>
      <trkpt lat="46.0741" lon="4.74648">
        <ele>173</ele>
        <time>2016-09-10T10:07:22Z</time>
      </trkpt>
      <trkpt lat="46.07407" lon="4.7464">
        <ele>173</ele>
        <time>2016-09-10T10:07:23Z</time>
      </trkpt>
      <trkpt lat="46.07404" lon="4.74633">
        <ele>174</ele>
        <time>2016-09-10T10:07:24Z</time>
      </trkpt>
      <trkpt lat="46.074" lon="4.74625">
        <ele>174</ele>
        <time>2016-09-10T10:07:25Z</time>
      </trkpt>
      <trkpt lat="46.07397" lon="4.74618">
        <ele>174</ele>
        <time>2016-09-10T10:07:26Z</time>
      </trkpt>
      <trkpt lat="46.07394" lon="4.74611">
        <ele>174</ele>
        <time>2016-09-10T10:07:27Z</time>
      </trkpt>
      <trkpt lat="46.07391" lon="4.74604">
        <ele>174</ele>
        <time>2016-09-10T10:07:28Z</time>
      </trkpt>
      <trkpt lat="46.07388" lon="4.74597">
        <ele>174</ele>
        <time>2016-09-10T10:07:29Z</time>
      </trkpt>
      <trkpt lat="46.07386" lon="4.7459">
        <ele>174</ele>
        <time>2016-09-10T10:07:30Z</time>
      </trkpt>
      <trkpt lat="46.07382" lon="4.74584">
        <ele>174</ele>
        <time>2016-09-10T10:07:31Z</time>
      </trkpt>
      <trkpt lat="46.07376" lon="4.74575">
        <ele>175</ele>
        <time>2016-09-10T10:07:32Z</time>
      </trkpt>
      <trkpt lat="46.07373" lon="4.74569">
        <ele>175</ele>
        <time>2016-09-10T10:07:33Z</time>
      </trkpt>
      <trkpt lat="46.0737" lon="4.74563">
        <ele>175</ele>
        <time>2016-09-10T10:07:34Z</time>
      </trkpt>
      <trkpt lat="46.07366" lon="4.74557">
        <ele>175</ele>
        <time>2016-09-10T10:07:35Z</time>
      </trkpt>
      <trkpt lat="46.07361" lon="4.74551">
        <ele>175</ele>
        <time>2016-09-10T10:07:36Z</time>
      </trkpt>
      <trkpt lat="46.07357" lon="4.74546">
        <ele>175</ele>
        <time>2016-09-10T10:07:37Z</time>
      </trkpt>
      <trkpt lat="46.07352" lon="4.7454">
        <ele>175</ele>
        <time>2016-09-10T10:07:38Z</time>
      </trkpt>
      <trkpt lat="46.07347" lon="4.74533">
        <ele>175</ele>
        <time>2016-09-10T10:07:39Z</time>
      </trkpt>
      <trkpt lat="46.07342" lon="4.74527">
        <ele>175</ele>
        <time>2016-09-10T10:07:40Z</time>
      </trkpt>
      <trkpt lat="46.07339" lon="4.74521">
        <ele>175</ele>
        <time>2016-09-10T10:07:41Z</time>
      </trkpt>
      <trkpt lat="46.07336" lon="4.74515">
        <ele>175</ele>
        <time>2016-09-10T10:07:42Z</time>
      </trkpt>
      <trkpt lat="46.07334" lon="4.74509">
        <ele>176</ele>
        <time>2016-09-10T10:07:43Z</time>
      </trkpt>
      <trkpt lat="46.07332" lon="4.74501">
        <ele>176</ele>
        <time>2016-09-10T10:07:44Z</time>
      </trkpt>
      <trkpt lat="46.07329" lon="4.74495">
        <ele>176</ele>
        <time>2016-09-10T10:07:45Z</time>
      </trkpt>
      <trkpt lat="46.07326" lon="4.74488">
        <ele>175</ele>
        <time>2016-09-10T10:07:46Z</time>
      </trkpt>
      <trkpt lat="46.07324" lon="4.74482">
        <ele>175</ele>
        <time>2016-09-10T10:07:47Z</time>
      </trkpt>
      <trkpt lat="46.07322" lon="4.74475">
        <ele>175</ele>
        <time>2016-09-10T10:07:48Z</time>
      </trkpt>
      <trkpt lat="46.07319" lon="4.74467">
        <ele>175</ele>
        <time>2016-09-10T10:07:49Z</time>
      </trkpt>
      <trkpt lat="46.07317" lon="4.7446">
        <ele>175</ele>
        <time>2016-09-10T10:07:50Z</time>
      </trkpt>
      <trkpt lat="46.07315" lon="4.74452">
        <ele>175</ele>
        <time>2016-09-10T10:07:51Z</time>
      </trkpt>
      <trkpt lat="46.07313" lon="4.74444">
        <ele>175</ele>
        <time>2016-09-10T10:07:52Z</time>
      </trkpt>
      <trkpt lat="46.07312" lon="4.74437">
        <ele>175</ele>
        <time>2016-09-10T10:07:53Z</time>
      </trkpt>
      <trkpt lat="46.0731" lon="4.74429">
        <ele>175</ele>
        <time>2016-09-10T10:07:54Z</time>
      </trkpt>
      <trkpt lat="46.07309" lon="4.74421">
        <ele>175</ele>
        <time>2016-09-10T10:07:55Z</time>
      </trkpt>
      <trkpt lat="46.07308" lon="4.74414">
        <ele>175</ele>
        <time>2016-09-10T10:07:56Z</time>
      </trkpt>
      <trkpt lat="46.07307" lon="4.74406">
        <ele>174</ele>
        <time>2016-09-10T10:07:57Z</time>
      </trkpt>
      <trkpt lat="46.07306" lon="4.74399">
        <ele>174</ele>
        <time>2016-09-10T10:07:58Z</time>
      </trkpt>
      <trkpt lat="46.07305" lon="4.74391">
        <ele>174</ele>
        <time>2016-09-10T10:07:59Z</time>
      </trkpt>
      <trkpt lat="46.07304" lon="4.74384">
        <ele>174</ele>
        <time>2016-09-10T10:08:00Z</time>
      </trkpt>
      <trkpt lat="46.07303" lon="4.74376">
        <ele>174</ele>
        <time>2016-09-10T10:08:01Z</time>
      </trkpt>
      <trkpt lat="46.07302" lon="4.74368">
        <ele>174</ele>
        <time>2016-09-10T10:08:02Z</time>
      </trkpt>
      <trkpt lat="46.07301" lon="4.74361">
        <ele>174</ele>
        <time>2016-09-10T10:08:03Z</time>
      </trkpt>
      <trkpt lat="46.073" lon="4.74353">
        <ele>174</ele>
        <time>2016-09-10T10:08:04Z</time>
      </trkpt>
      <trkpt lat="46.073" lon="4.74345">
        <ele>174</ele>
        <time>2016-09-10T10:08:05Z</time>
      </trkpt>
      <trkpt lat="46.07299" lon="4.74337">
        <ele>174</ele>
        <time>2016-09-10T10:08:06Z</time>
      </trkpt>
      <trkpt lat="46.07298" lon="4.7433">
        <ele>174</ele>
        <time>2016-09-10T10:08:07Z</time>
      </trkpt>
      <trkpt lat="46.07297" lon="4.74322">
        <ele>174</ele>
        <time>2016-09-10T10:08:08Z</time>
      </trkpt>
      <trkpt lat="46.07296" lon="4.74315">
        <ele>174</ele>
        <time>2016-09-10T10:08:09Z</time>
      </trkpt>
      <trkpt lat="46.07295" lon="4.74308">
        <ele>174</ele>
        <time>2016-09-10T10:08:10Z</time>
      </trkpt>
      <trkpt lat="46.07293" lon="4.743">
        <ele>174</ele>
        <time>2016-09-10T10:08:11Z</time>
      </trkpt>
      <trkpt lat="46.07291" lon="4.74293">
        <ele>174</ele>
        <time>2016-09-10T10:08:12Z</time>
      </trkpt>
      <trkpt lat="46.0729" lon="4.74286">
        <ele>175</ele>
        <time>2016-09-10T10:08:13Z</time>
      </trkpt>
      <trkpt lat="46.07288" lon="4.74279">
        <ele>175</ele>
        <time>2016-09-10T10:08:14Z</time>
      </trkpt>
      <trkpt lat="46.07287" lon="4.74272">
        <ele>175</ele>
        <time>2016-09-10T10:08:15Z</time>
      </trkpt>
      <trkpt lat="46.07284" lon="4.74265">
        <ele>175</ele>
        <time>2016-09-10T10:08:16Z</time>
      </trkpt>
      <trkpt lat="46.07282" lon="4.74258">
        <ele>175</ele>
        <time>2016-09-10T10:08:17Z</time>
      </trkpt>
      <trkpt lat="46.0728" lon="4.74251">
        <ele>175</ele>
        <time>2016-09-10T10:08:18Z</time>
      </trkpt>
      <trkpt lat="46.07278" lon="4.74245">
        <ele>175</ele>
        <time>2016-09-10T10:08:19Z</time>
      </trkpt>
      <trkpt lat="46.07275" lon="4.7424">
        <ele>175</ele>
        <time>2016-09-10T10:08:20Z</time>
      </trkpt>
      <trkpt lat="46.07273" lon="4.74234">
        <ele>176</ele>
        <time>2016-09-10T10:08:21Z</time>
      </trkpt>
      <trkpt lat="46.07271" lon="4.74227">
        <ele>176</ele>
        <time>2016-09-10T10:08:22Z</time>
      </trkpt>
      <trkpt lat="46.07269" lon="4.74221">
        <ele>176</ele>
        <time>2016-09-10T10:08:23Z</time>
      </trkpt>
      <trkpt lat="46.07265" lon="4.7421">
        <ele>176</ele>
        <time>2016-09-10T10:08:25Z</time>
      </trkpt>
      <trkpt lat="46.07263" lon="4.74205">
        <ele>176</ele>
        <time>2016-09-10T10:08:26Z</time>
      </trkpt>
      <trkpt lat="46.0726" lon="4.74195">
        <ele>176</ele>
        <time>2016-09-10T10:08:28Z</time>
      </trkpt>
      <trkpt lat="46.07258" lon="4.74189">
        <ele>176</ele>
        <time>2016-09-10T10:08:29Z</time>
      </trkpt>
      <trkpt lat="46.07255" lon="4.74179">
        <ele>176</ele>
        <time>2016-09-10T10:08:31Z</time>
      </trkpt>
      <trkpt lat="46.07254" lon="4.74174">
        <ele>177</ele>
        <time>2016-09-10T10:08:32Z</time>
      </trkpt>
      <trkpt lat="46.07249" lon="4.74164">
        <ele>177</ele>
        <time>2016-09-10T10:08:34Z</time>
      </trkpt>
      <trkpt lat="46.07247" lon="4.7416">
        <ele>177</ele>
        <time>2016-09-10T10:08:35Z</time>
      </trkpt>
      <trkpt lat="46.07244" lon="4.7415">
        <ele>177</ele>
        <time>2016-09-10T10:08:37Z</time>
      </trkpt>
      <trkpt lat="46.07242" lon="4.74145">
        <ele>177</ele>
        <time>2016-09-10T10:08:38Z</time>
      </trkpt>
      <trkpt lat="46.07239" lon="4.74134">
        <ele>177</ele>
        <time>2016-09-10T10:08:40Z</time>
      </trkpt>
      <trkpt lat="46.07237" lon="4.74129">
        <ele>177</ele>
        <time>2016-09-10T10:08:41Z</time>
      </trkpt>
      <trkpt lat="46.07233" lon="4.74119">
        <ele>177</ele>
        <time>2016-09-10T10:08:43Z</time>
      </trkpt>
      <trkpt lat="46.07231" lon="4.74113">
        <ele>177</ele>
        <time>2016-09-10T10:08:44Z</time>
      </trkpt>
      <trkpt lat="46.07227" lon="4.74102">
        <ele>177</ele>
        <time>2016-09-10T10:08:46Z</time>
      </trkpt>
      <trkpt lat="46.07224" lon="4.74097">
        <ele>177</ele>
        <time>2016-09-10T10:08:47Z</time>
      </trkpt>
      <trkpt lat="46.07221" lon="4.74085">
        <ele>177</ele>
        <time>2016-09-10T10:08:49Z</time>
      </trkpt>
      <trkpt lat="46.07219" lon="4.74079">
        <ele>177</ele>
        <time>2016-09-10T10:08:50Z</time>
      </trkpt>
      <trkpt lat="46.07216" lon="4.74073">
        <ele>177</ele>
        <time>2016-09-10T10:08:51Z</time>
      </trkpt>
      <trkpt lat="46.07215" lon="4.74067">
        <ele>177</ele>
        <time>2016-09-10T10:08:52Z</time>
      </trkpt>
      <trkpt lat="46.07213" lon="4.74061">
        <ele>177</ele>
        <time>2016-09-10T10:08:53Z</time>
      </trkpt>
      <trkpt lat="46.07211" lon="4.74055">
        <ele>177</ele>
        <time>2016-09-10T10:08:54Z</time>
      </trkpt>
      <trkpt lat="46.07208" lon="4.74048">
        <ele>178</ele>
        <time>2016-09-10T10:08:55Z</time>
      </trkpt>
      <trkpt lat="46.07206" lon="4.74041">
        <ele>178</ele>
        <time>2016-09-10T10:08:56Z</time>
      </trkpt>
      <trkpt lat="46.07204" lon="4.74034">
        <ele>178</ele>
        <time>2016-09-10T10:08:57Z</time>
      </trkpt>
      <trkpt lat="46.07201" lon="4.74026">
        <ele>178</ele>
        <time>2016-09-10T10:08:58Z</time>
      </trkpt>
      <trkpt lat="46.07198" lon="4.74018">
        <ele>178</ele>
        <time>2016-09-10T10:08:59Z</time>
      </trkpt>
      <trkpt lat="46.07195" lon="4.7401">
        <ele>178</ele>
        <time>2016-09-10T10:09:00Z</time>
      </trkpt>
      <trkpt lat="46.07192" lon="4.74001">
        <ele>178</ele>
        <time>2016-09-10T10:09:01Z</time>
      </trkpt>
      <trkpt lat="46.07188" lon="4.73992">
        <ele>178</ele>
        <time>2016-09-10T10:09:02Z</time>
      </trkpt>
      <trkpt lat="46.07185" lon="4.73982">
        <ele>178</ele>
        <time>2016-09-10T10:09:03Z</time>
      </trkpt>
      <trkpt lat="46.07182" lon="4.73972">
        <ele>178</ele>
        <time>2016-09-10T10:09:04Z</time>
      </trkpt>
      <trkpt lat="46.0718" lon="4.73961">
        <ele>178</ele>
        <time>2016-09-10T10:09:05Z</time>
      </trkpt>
      <trkpt lat="46.07177" lon="4.7395">
        <ele>177</ele>
        <time>2016-09-10T10:09:06Z</time>
      </trkpt>
      <trkpt lat="46.07174" lon="4.7394">
        <ele>177</ele>
        <time>2016-09-10T10:09:07Z</time>
      </trkpt>
      <trkpt lat="46.07171" lon="4.73929">
        <ele>177</ele>
        <time>2016-09-10T10:09:08Z</time>
      </trkpt>
      <trkpt lat="46.07167" lon="4.7392">
        <ele>177</ele>
        <time>2016-09-10T10:09:09Z</time>
      </trkpt>
      <trkpt lat="46.07164" lon="4.73911">
        <ele>177</ele>
        <time>2016-09-10T10:09:10Z</time>
      </trkpt>
      <trkpt lat="46.0716" lon="4.73902">
        <ele>177</ele>
        <time>2016-09-10T10:09:11Z</time>
      </trkpt>
      <trkpt lat="46.07157" lon="4.73893">
        <ele>177</ele>
        <time>2016-09-10T10:09:12Z</time>
      </trkpt>
      <trkpt lat="46.07154" lon="4.73885">
        <ele>176</ele>
        <time>2016-09-10T10:09:13Z</time>
      </trkpt>
      <trkpt lat="46.07151" lon="4.73878">
        <ele>176</ele>
        <time>2016-09-10T10:09:14Z</time>
      </trkpt>
      <trkpt lat="46.07147" lon="4.73871">
        <ele>176</ele>
        <time>2016-09-10T10:09:15Z</time>
      </trkpt>
      <trkpt lat="46.07143" lon="4.73865">
        <ele>176</ele>
        <time>2016-09-10T10:09:16Z</time>
      </trkpt>
      <trkpt lat="46.07139" lon="4.73858">
        <ele>176</ele>
        <time>2016-09-10T10:09:17Z</time>
      </trkpt>
      <trkpt lat="46.07134" lon="4.73853">
        <ele>176</ele>
        <time>2016-09-10T10:09:18Z</time>
      </trkpt>
      <trkpt lat="46.07129" lon="4.73847">
        <ele>176</ele>
        <time>2016-09-10T10:09:19Z</time>
      </trkpt>
      <trkpt lat="46.07124" lon="4.73841">
        <ele>177</ele>
        <time>2016-09-10T10:09:20Z</time>
      </trkpt>
      <trkpt lat="46.07119" lon="4.73835">
        <ele>177</ele>
        <time>2016-09-10T10:09:21Z</time>
      </trkpt>
      <trkpt lat="46.07113" lon="4.73829">
        <ele>177</ele>
        <time>2016-09-10T10:09:22Z</time>
      </trkpt>
      <trkpt lat="46.07108" lon="4.73824">
        <ele>178</ele>
        <time>2016-09-10T10:09:23Z</time>
      </trkpt>
      <trkpt lat="46.07102" lon="4.73819">
        <ele>178</ele>
        <time>2016-09-10T10:09:24Z</time>
      </trkpt>
      <trkpt lat="46.07096" lon="4.73815">
        <ele>178</ele>
        <time>2016-09-10T10:09:25Z</time>
      </trkpt>
      <trkpt lat="46.0709" lon="4.73811">
        <ele>178</ele>
        <time>2016-09-10T10:09:26Z</time>
      </trkpt>
      <trkpt lat="46.07084" lon="4.73807">
        <ele>178</ele>
        <time>2016-09-10T10:09:27Z</time>
      </trkpt>
      <trkpt lat="46.07079" lon="4.73804">
        <ele>178</ele>
        <time>2016-09-10T10:09:28Z</time>
      </trkpt>
      <trkpt lat="46.07073" lon="4.73802">
        <ele>178</ele>
        <time>2016-09-10T10:09:29Z</time>
      </trkpt>
      <trkpt lat="46.07067" lon="4.738">
        <ele>178</ele>
        <time>2016-09-10T10:09:30Z</time>
      </trkpt>
      <trkpt lat="46.07061" lon="4.73798">
        <ele>178</ele>
        <time>2016-09-10T10:09:31Z</time>
      </trkpt>
      <trkpt lat="46.07055" lon="4.73796">
        <ele>177</ele>
        <time>2016-09-10T10:09:32Z</time>
      </trkpt>
      <trkpt lat="46.0705" lon="4.73795">
        <ele>177</ele>
        <time>2016-09-10T10:09:33Z</time>
      </trkpt>
      <trkpt lat="46.07044" lon="4.73794">
        <ele>177</ele>
        <time>2016-09-10T10:09:34Z</time>
      </trkpt>
      <trkpt lat="46.07038" lon="4.73793">
        <ele>177</ele>
        <time>2016-09-10T10:09:35Z</time>
      </trkpt>
      <trkpt lat="46.07031" lon="4.73791">
        <ele>177</ele>
        <time>2016-09-10T10:09:36Z</time>
      </trkpt>
      <trkpt lat="46.07025" lon="4.7379">
        <ele>177</ele>
        <time>2016-09-10T10:09:37Z</time>
      </trkpt>
      <trkpt lat="46.07019" lon="4.73789">
        <ele>177</ele>
        <time>2016-09-10T10:09:38Z</time>
      </trkpt>
      <trkpt lat="46.07012" lon="4.73789">
        <ele>177</ele>
        <time>2016-09-10T10:09:39Z</time>
      </trkpt>
      <trkpt lat="46.07007" lon="4.73788">
        <ele>177</ele>
        <time>2016-09-10T10:09:40Z</time>
      </trkpt>
      <trkpt lat="46.07001" lon="4.73787">
        <ele>177</ele>
        <time>2016-09-10T10:09:41Z</time>
      </trkpt>
      <trkpt lat="46.06995" lon="4.73787">
        <ele>176</ele>
        <time>2016-09-10T10:09:42Z</time>
      </trkpt>
      <trkpt lat="46.06989" lon="4.73786">
        <ele>176</ele>
        <time>2016-09-10T10:09:43Z</time>
      </trkpt>
      <trkpt lat="46.06984" lon="4.73786">
        <ele>176</ele>
        <time>2016-09-10T10:09:44Z</time>
      </trkpt>
      <trkpt lat="46.06978" lon="4.73785">
        <ele>176</ele>
        <time>2016-09-10T10:09:45Z</time>
      </trkpt>
      <trkpt lat="46.06973" lon="4.73784">
        <ele>176</ele>
        <time>2016-09-10T10:09:46Z</time>
      </trkpt>
      <trkpt lat="46.06967" lon="4.73782">
        <ele>176</ele>
        <time>2016-09-10T10:09:47Z</time>
      </trkpt>
      <trkpt lat="46.0696" lon="4.7378">
        <ele>176</ele>
        <time>2016-09-10T10:09:48Z</time>
      </trkpt>
      <trkpt lat="46.06954" lon="4.73777">
        <ele>176</ele>
        <time>2016-09-10T10:09:49Z</time>
      </trkpt>
      <trkpt lat="46.06948" lon="4.73774">
        <ele>176</ele>
        <time>2016-09-10T10:09:50Z</time>
      </trkpt>
      <trkpt lat="46.06943" lon="4.73769">
        <ele>176</ele>
        <time>2016-09-10T10:09:51Z</time>
      </trkpt>
      <trkpt lat="46.06937" lon="4.73764">
        <ele>176</ele>
        <time>2016-09-10T10:09:52Z</time>
      </trkpt>
      <trkpt lat="46.06931" lon="4.73759">
        <ele>177</ele>
        <time>2016-09-10T10:09:53Z</time>
      </trkpt>
      <trkpt lat="46.06926" lon="4.73753">
        <ele>177</ele>
        <time>2016-09-10T10:09:54Z</time>
      </trkpt>
      <trkpt lat="46.06921" lon="4.73748">
        <ele>177</ele>
        <time>2016-09-10T10:09:55Z</time>
      </trkpt>
      <trkpt lat="46.06916" lon="4.73742">
        <ele>177</ele>
        <time>2016-09-10T10:09:56Z</time>
      </trkpt>
      <trkpt lat="46.06912" lon="4.73736">
        <ele>177</ele>
        <time>2016-09-10T10:09:57Z</time>
      </trkpt>
      <trkpt lat="46.06908" lon="4.73731">
        <ele>177</ele>
        <time>2016-09-10T10:09:58Z</time>
      </trkpt>
      <trkpt lat="46.06904" lon="4.73725">
        <ele>176</ele>
        <time>2016-09-10T10:09:59Z</time>
      </trkpt>
      <trkpt lat="46.069" lon="4.7372">
        <ele>176</ele>
        <time>2016-09-10T10:10:00Z</time>
      </trkpt>
      <trkpt lat="46.06896" lon="4.73714">
        <ele>176</ele>
        <time>2016-09-10T10:10:01Z</time>
      </trkpt>
      <trkpt lat="46.06892" lon="4.73709">
        <ele>176</ele>
        <time>2016-09-10T10:10:02Z</time>
      </trkpt>
      <trkpt lat="46.06888" lon="4.73705">
        <ele>176</ele>
        <time>2016-09-10T10:10:03Z</time>
      </trkpt>
      <trkpt lat="46.06884" lon="4.737">
        <ele>176</ele>
        <time>2016-09-10T10:10:04Z</time>
      </trkpt>
      <trkpt lat="46.06879" lon="4.73695">
        <ele>176</ele>
        <time>2016-09-10T10:10:05Z</time>
      </trkpt>
      <trkpt lat="46.06874" lon="4.73689">
        <ele>176</ele>
        <time>2016-09-10T10:10:06Z</time>
      </trkpt>
      <trkpt lat="46.0687" lon="4.73684">
        <ele>176</ele>
        <time>2016-09-10T10:10:07Z</time>
      </trkpt>
      <trkpt lat="46.06865" lon="4.73678">
        <ele>176</ele>
        <time>2016-09-10T10:10:08Z</time>
      </trkpt>
      <trkpt lat="46.0686" lon="4.73672">
        <ele>176</ele>
        <time>2016-09-10T10:10:09Z</time>
      </trkpt>
      <trkpt lat="46.06855" lon="4.73666">
        <ele>176</ele>
        <time>2016-09-10T10:10:10Z</time>
      </trkpt>
      <trkpt lat="46.0685" lon="4.7366">
        <ele>176</ele>
        <time>2016-09-10T10:10:11Z</time>
      </trkpt>
      <trkpt lat="46.06845" lon="4.73655">
        <ele>176</ele>
        <time>2016-09-10T10:10:12Z</time>
      </trkpt>
      <trkpt lat="46.0684" lon="4.7365">
        <ele>176</ele>
        <time>2016-09-10T10:10:13Z</time>
      </trkpt>
      <trkpt lat="46.06835" lon="4.73645">
        <ele>177</ele>
        <time>2016-09-10T10:10:14Z</time>
      </trkpt>
      <trkpt lat="46.06831" lon="4.7364">
        <ele>177</ele>
        <time>2016-09-10T10:10:15Z</time>
      </trkpt>
      <trkpt lat="46.06827" lon="4.73635">
        <ele>178</ele>
        <time>2016-09-10T10:10:16Z</time>
      </trkpt>
      <trkpt lat="46.06822" lon="4.7363">
        <ele>178</ele>
        <time>2016-09-10T10:10:17Z</time>
      </trkpt>
      <trkpt lat="46.06818" lon="4.73625">
        <ele>178</ele>
        <time>2016-09-10T10:10:18Z</time>
      </trkpt>
      <trkpt lat="46.06813" lon="4.7362">
        <ele>178</ele>
        <time>2016-09-10T10:10:19Z</time>
      </trkpt>
      <trkpt lat="46.06809" lon="4.73614">
        <ele>178</ele>
        <time>2016-09-10T10:10:20Z</time>
      </trkpt>
      <trkpt lat="46.06805" lon="4.73608">
        <ele>178</ele>
        <time>2016-09-10T10:10:21Z</time>
      </trkpt>
      <trkpt lat="46.06801" lon="4.73603">
        <ele>178</ele>
        <time>2016-09-10T10:10:22Z</time>
      </trkpt>
      <trkpt lat="46.06796" lon="4.73597">
        <ele>179</ele>
        <time>2016-09-10T10:10:23Z</time>
      </trkpt>
      <trkpt lat="46.06792" lon="4.73591">
        <ele>179</ele>
        <time>2016-09-10T10:10:24Z</time>
      </trkpt>
      <trkpt lat="46.06789" lon="4.73585">
        <ele>179</ele>
        <time>2016-09-10T10:10:25Z</time>
      </trkpt>
      <trkpt lat="46.06785" lon="4.73578">
        <ele>179</ele>
        <time>2016-09-10T10:10:26Z</time>
      </trkpt>
      <trkpt lat="46.06781" lon="4.73571">
        <ele>179</ele>
        <time>2016-09-10T10:10:27Z</time>
      </trkpt>
      <trkpt lat="46.06778" lon="4.73564">
        <ele>179</ele>
        <time>2016-09-10T10:10:28Z</time>
      </trkpt>
      <trkpt lat="46.06775" lon="4.73556">
        <ele>179</ele>
        <time>2016-09-10T10:10:29Z</time>
      </trkpt>
      <trkpt lat="46.06772" lon="4.73548">
        <ele>179</ele>
        <time>2016-09-10T10:10:30Z</time>
      </trkpt>
      <trkpt lat="46.06769" lon="4.7354">
        <ele>179</ele>
        <time>2016-09-10T10:10:31Z</time>
      </trkpt>
      <trkpt lat="46.06766" lon="4.73532">
        <ele>179</ele>
        <time>2016-09-10T10:10:32Z</time>
      </trkpt>
      <trkpt lat="46.06763" lon="4.73525">
        <ele>179</ele>
        <time>2016-09-10T10:10:33Z</time>
      </trkpt>
      <trkpt lat="46.06759" lon="4.73519">
        <ele>179</ele>
        <time>2016-09-10T10:10:34Z</time>
      </trkpt>
      <trkpt lat="46.06755" lon="4.73513">
        <ele>179</ele>
        <time>2016-09-10T10:10:35Z</time>
      </trkpt>
      <trkpt lat="46.06751" lon="4.73508">
        <ele>179</ele>
        <time>2016-09-10T10:10:36Z</time>
      </trkpt>
      <trkpt lat="46.06746" lon="4.73503">
        <ele>179</ele>
        <time>2016-09-10T10:10:37Z</time>
      </trkpt>
      <trkpt lat="46.06742" lon="4.73499">
        <ele>179</ele>
        <time>2016-09-10T10:10:38Z</time>
      </trkpt>
      <trkpt lat="46.06738" lon="4.73494">
        <ele>180</ele>
        <time>2016-09-10T10:10:39Z</time>
      </trkpt>
      <trkpt lat="46.06733" lon="4.73489">
        <ele>180</ele>
        <time>2016-09-10T10:10:40Z</time>
      </trkpt>
      <trkpt lat="46.06729" lon="4.73483">
        <ele>180</ele>
        <time>2016-09-10T10:10:41Z</time>
      </trkpt>
      <trkpt lat="46.06725" lon="4.73477">
        <ele>180</ele>
        <time>2016-09-10T10:10:42Z</time>
      </trkpt>
      <trkpt lat="46.06721" lon="4.73471">
        <ele>180</ele>
        <time>2016-09-10T10:10:43Z</time>
      </trkpt>
      <trkpt lat="46.06718" lon="4.73465">
        <ele>180</ele>
        <time>2016-09-10T10:10:44Z</time>
      </trkpt>
      <trkpt lat="46.06714" lon="4.73458">
        <ele>180</ele>
        <time>2016-09-10T10:10:45Z</time>
      </trkpt>
      <trkpt lat="46.06709" lon="4.73452">
        <ele>180</ele>
        <time>2016-09-10T10:10:46Z</time>
      </trkpt>
      <trkpt lat="46.06706" lon="4.73445">
        <ele>180</ele>
        <time>2016-09-10T10:10:47Z</time>
      </trkpt>
      <trkpt lat="46.06702" lon="4.73439">
        <ele>180</ele>
        <time>2016-09-10T10:10:48Z</time>
      </trkpt>
      <trkpt lat="46.06698" lon="4.73433">
        <ele>181</ele>
        <time>2016-09-10T10:10:49Z</time>
      </trkpt>
      <trkpt lat="46.06694" lon="4.73427">
        <ele>181</ele>
        <time>2016-09-10T10:10:50Z</time>
      </trkpt>
      <trkpt lat="46.06691" lon="4.73421">
        <ele>181</ele>
        <time>2016-09-10T10:10:51Z</time>
      </trkpt>
      <trkpt lat="46.06686" lon="4.73415">
        <ele>181</ele>
        <time>2016-09-10T10:10:52Z</time>
      </trkpt>
      <trkpt lat="46.06682" lon="4.7341">
        <ele>181</ele>
        <time>2016-09-10T10:10:53Z</time>
      </trkpt>
      <trkpt lat="46.06677" lon="4.73404">
        <ele>181</ele>
        <time>2016-09-10T10:10:54Z</time>
      </trkpt>
      <trkpt lat="46.06673" lon="4.73398">
        <ele>181</ele>
        <time>2016-09-10T10:10:55Z</time>
      </trkpt>
      <trkpt lat="46.06668" lon="4.73392">
        <ele>181</ele>
        <time>2016-09-10T10:10:56Z</time>
      </trkpt>
      <trkpt lat="46.06664" lon="4.73387">
        <ele>182</ele>
        <time>2016-09-10T10:10:57Z</time>
      </trkpt>
      <trkpt lat="46.0666" lon="4.73381">
        <ele>182</ele>
        <time>2016-09-10T10:10:58Z</time>
      </trkpt>
      <trkpt lat="46.06656" lon="4.73376">
        <ele>182</ele>
        <time>2016-09-10T10:10:59Z</time>
      </trkpt>
      <trkpt lat="46.06651" lon="4.73372">
        <ele>182</ele>
        <time>2016-09-10T10:11:00Z</time>
      </trkpt>
      <trkpt lat="46.06647" lon="4.73368">
        <ele>182</ele>
        <time>2016-09-10T10:11:01Z</time>
      </trkpt>
      <trkpt lat="46.06642" lon="4.73364">
        <ele>182</ele>
        <time>2016-09-10T10:11:02Z</time>
      </trkpt>
      <trkpt lat="46.06637" lon="4.7336">
        <ele>182</ele>
        <time>2016-09-10T10:11:03Z</time>
      </trkpt>
      <trkpt lat="46.06632" lon="4.73357">
        <ele>182</ele>
        <time>2016-09-10T10:11:04Z</time>
      </trkpt>
      <trkpt lat="46.06627" lon="4.73354">
        <ele>182</ele>
        <time>2016-09-10T10:11:05Z</time>
      </trkpt>
      <trkpt lat="46.06622" lon="4.73352">
        <ele>182</ele>
        <time>2016-09-10T10:11:06Z</time>
      </trkpt>
      <trkpt lat="46.06618" lon="4.73349">
        <ele>182</ele>
        <time>2016-09-10T10:11:07Z</time>
      </trkpt>
      <trkpt lat="46.06613" lon="4.73346">
        <ele>182</ele>
        <time>2016-09-10T10:11:08Z</time>
      </trkpt>
      <trkpt lat="46.06607" lon="4.73338">
        <ele>182</ele>
        <time>2016-09-10T10:11:10Z</time>
      </trkpt>
      <trkpt lat="46.06604" lon="4.73333">
        <ele>182</ele>
        <time>2016-09-10T10:11:11Z</time>
      </trkpt>
      <trkpt lat="46.06601" lon="4.73328">
        <ele>182</ele>
        <time>2016-09-10T10:11:12Z</time>
      </trkpt>
      <trkpt lat="46.06598" lon="4.73322">
        <ele>182</ele>
        <time>2016-09-10T10:11:13Z</time>
      </trkpt>
      <trkpt lat="46.06595" lon="4.73317">
        <ele>182</ele>
        <time>2016-09-10T10:11:14Z</time>
      </trkpt>
      <trkpt lat="46.06591" lon="4.73311">
        <ele>182</ele>
        <time>2016-09-10T10:11:15Z</time>
      </trkpt>
      <trkpt lat="46.06588" lon="4.73306">
        <ele>183</ele>
        <time>2016-09-10T10:11:16Z</time>
      </trkpt>
      <trkpt lat="46.06585" lon="4.733">
        <ele>183</ele>
        <time>2016-09-10T10:11:17Z</time>
      </trkpt>
      <trkpt lat="46.06582" lon="4.73293">
        <ele>184</ele>
        <time>2016-09-10T10:11:18Z</time>
      </trkpt>
      <trkpt lat="46.0658" lon="4.73286">
        <ele>184</ele>
        <time>2016-09-10T10:11:19Z</time>
      </trkpt>
      <trkpt lat="46.06578" lon="4.73279">
        <ele>184</ele>
        <time>2016-09-10T10:11:20Z</time>
      </trkpt>
      <trkpt lat="46.06575" lon="4.73273">
        <ele>184</ele>
        <time>2016-09-10T10:11:21Z</time>
      </trkpt>
      <trkpt lat="46.06573" lon="4.73267">
        <ele>184</ele>
        <time>2016-09-10T10:11:22Z</time>
      </trkpt>
      <trkpt lat="46.0657" lon="4.73261">
        <ele>184</ele>
        <time>2016-09-10T10:11:23Z</time>
      </trkpt>
      <trkpt lat="46.06568" lon="4.73256">
        <ele>184</ele>
        <time>2016-09-10T10:11:24Z</time>
      </trkpt>
      <trkpt lat="46.06565" lon="4.7325">
        <ele>186</ele>
        <time>2016-09-10T10:11:25Z</time>
      </trkpt>
      <trkpt lat="46.06563" lon="4.73244">
        <ele>186</ele>
        <time>2016-09-10T10:11:26Z</time>
      </trkpt>
      <trkpt lat="46.06561" lon="4.73238">
        <ele>186</ele>
        <time>2016-09-10T10:11:27Z</time>
      </trkpt>
      <trkpt lat="46.06558" lon="4.73226">
        <ele>186</ele>
        <time>2016-09-10T10:11:29Z</time>
      </trkpt>
      <trkpt lat="46.06556" lon="4.7322">
        <ele>186</ele>
        <time>2016-09-10T10:11:30Z</time>
      </trkpt>
      <trkpt lat="46.06554" lon="4.73208">
        <ele>186</ele>
        <time>2016-09-10T10:11:32Z</time>
      </trkpt>
      <trkpt lat="46.06554" lon="4.73202">
        <ele>186</ele>
        <time>2016-09-10T10:11:33Z</time>
      </trkpt>
      <trkpt lat="46.06552" lon="4.7319">
        <ele>187</ele>
        <time>2016-09-10T10:11:35Z</time>
      </trkpt>
      <trkpt lat="46.06552" lon="4.73183">
        <ele>187</ele>
        <time>2016-09-10T10:11:36Z</time>
      </trkpt>
      <trkpt lat="46.0655" lon="4.73171">
        <ele>187</ele>
        <time>2016-09-10T10:11:38Z</time>
      </trkpt>
      <trkpt lat="46.0655" lon="4.73165">
        <ele>187</ele>
        <time>2016-09-10T10:11:39Z</time>
      </trkpt>
      <trkpt lat="46.06549" lon="4.73158">
        <ele>187</ele>
        <time>2016-09-10T10:11:40Z</time>
      </trkpt>
      <trkpt lat="46.06549" lon="4.73152">
        <ele>187</ele>
        <time>2016-09-10T10:11:41Z</time>
      </trkpt>
      <trkpt lat="46.06548" lon="4.73145">
        <ele>187</ele>
        <time>2016-09-10T10:11:42Z</time>
      </trkpt>
      <trkpt lat="46.06546" lon="4.73138">
        <ele>187</ele>
        <time>2016-09-10T10:11:43Z</time>
      </trkpt>
      <trkpt lat="46.06545" lon="4.73131">
        <ele>187</ele>
        <time>2016-09-10T10:11:44Z</time>
      </trkpt>
      <trkpt lat="46.06543" lon="4.73124">
        <ele>187</ele>
        <time>2016-09-10T10:11:45Z</time>
      </trkpt>
      <trkpt lat="46.06541" lon="4.73118">
        <ele>188</ele>
        <time>2016-09-10T10:11:46Z</time>
      </trkpt>
      <trkpt lat="46.06538" lon="4.73112">
        <ele>188</ele>
        <time>2016-09-10T10:11:47Z</time>
      </trkpt>
      <trkpt lat="46.06536" lon="4.73105">
        <ele>188</ele>
        <time>2016-09-10T10:11:48Z</time>
      </trkpt>
      <trkpt lat="46.06534" lon="4.73099">
        <ele>188</ele>
        <time>2016-09-10T10:11:49Z</time>
      </trkpt>
      <trkpt lat="46.06532" lon="4.73094">
        <ele>188</ele>
        <time>2016-09-10T10:11:50Z</time>
      </trkpt>
      <trkpt lat="46.0653" lon="4.73087">
        <ele>188</ele>
        <time>2016-09-10T10:11:51Z</time>
      </trkpt>
      <trkpt lat="46.06528" lon="4.73081">
        <ele>188</ele>
        <time>2016-09-10T10:11:52Z</time>
      </trkpt>
      <trkpt lat="46.06525" lon="4.73075">
        <ele>188</ele>
        <time>2016-09-10T10:11:53Z</time>
      </trkpt>
      <trkpt lat="46.06523" lon="4.73069">
        <ele>188</ele>
        <time>2016-09-10T10:11:54Z</time>
      </trkpt>
      <trkpt lat="46.0652" lon="4.73062">
        <ele>188</ele>
        <time>2016-09-10T10:11:55Z</time>
      </trkpt>
      <trkpt lat="46.06517" lon="4.73056">
        <ele>188</ele>
        <time>2016-09-10T10:11:56Z</time>
      </trkpt>
      <trkpt lat="46.06515" lon="4.73049">
        <ele>188</ele>
        <time>2016-09-10T10:11:57Z</time>
      </trkpt>
      <trkpt lat="46.06512" lon="4.73042">
        <ele>188</ele>
        <time>2016-09-10T10:11:58Z</time>
      </trkpt>
      <trkpt lat="46.0651" lon="4.73036">
        <ele>189</ele>
        <time>2016-09-10T10:11:59Z</time>
      </trkpt>
      <trkpt lat="46.06507" lon="4.7303">
        <ele>189</ele>
        <time>2016-09-10T10:12:00Z</time>
      </trkpt>
      <trkpt lat="46.06504" lon="4.73025">
        <ele>189</ele>
        <time>2016-09-10T10:12:01Z</time>
      </trkpt>
      <trkpt lat="46.06501" lon="4.73019">
        <ele>189</ele>
        <time>2016-09-10T10:12:02Z</time>
      </trkpt>
      <trkpt lat="46.06499" lon="4.73013">
        <ele>189</ele>
        <time>2016-09-10T10:12:03Z</time>
      </trkpt>
      <trkpt lat="46.06497" lon="4.73007">
        <ele>189</ele>
        <time>2016-09-10T10:12:04Z</time>
      </trkpt>
      <trkpt lat="46.06496" lon="4.73001">
        <ele>189</ele>
        <time>2016-09-10T10:12:05Z</time>
      </trkpt>
      <trkpt lat="46.06495" lon="4.72994">
        <ele>189</ele>
        <time>2016-09-10T10:12:06Z</time>
      </trkpt>
      <trkpt lat="46.06494" lon="4.72987">
        <ele>189</ele>
        <time>2016-09-10T10:12:07Z</time>
      </trkpt>
      <trkpt lat="46.06492" lon="4.7298">
        <ele>189</ele>
        <time>2016-09-10T10:12:08Z</time>
      </trkpt>
      <trkpt lat="46.06491" lon="4.72973">
        <ele>189</ele>
        <time>2016-09-10T10:12:09Z</time>
      </trkpt>
      <trkpt lat="46.06491" lon="4.72966">
        <ele>189</ele>
        <time>2016-09-10T10:12:10Z</time>
      </trkpt>
      <trkpt lat="46.0649" lon="4.72959">
        <ele>188</ele>
        <time>2016-09-10T10:12:11Z</time>
      </trkpt>
      <trkpt lat="46.06488" lon="4.72947">
        <ele>188</ele>
        <time>2016-09-10T10:12:13Z</time>
      </trkpt>
      <trkpt lat="46.06487" lon="4.72941">
        <ele>189</ele>
        <time>2016-09-10T10:12:14Z</time>
      </trkpt>
      <trkpt lat="46.06486" lon="4.72934">
        <ele>189</ele>
        <time>2016-09-10T10:12:15Z</time>
      </trkpt>
      <trkpt lat="46.06485" lon="4.72927">
        <ele>189</ele>
        <time>2016-09-10T10:12:16Z</time>
      </trkpt>
      <trkpt lat="46.06484" lon="4.7292">
        <ele>189</ele>
        <time>2016-09-10T10:12:17Z</time>
      </trkpt>
      <trkpt lat="46.06483" lon="4.72912">
        <ele>189</ele>
        <time>2016-09-10T10:12:18Z</time>
      </trkpt>
      <trkpt lat="46.06481" lon="4.72905">
        <ele>189</ele>
        <time>2016-09-10T10:12:19Z</time>
      </trkpt>
      <trkpt lat="46.06479" lon="4.72897">
        <ele>188</ele>
        <time>2016-09-10T10:12:20Z</time>
      </trkpt>
      <trkpt lat="46.06478" lon="4.7289">
        <ele>188</ele>
        <time>2016-09-10T10:12:21Z</time>
      </trkpt>
      <trkpt lat="46.06476" lon="4.72883">
        <ele>188</ele>
        <time>2016-09-10T10:12:22Z</time>
      </trkpt>
      <trkpt lat="46.06475" lon="4.72876">
        <ele>188</ele>
        <time>2016-09-10T10:12:23Z</time>
      </trkpt>
      <trkpt lat="46.06474" lon="4.72869">
        <ele>188</ele>
        <time>2016-09-10T10:12:24Z</time>
      </trkpt>
      <trkpt lat="46.06474" lon="4.72862">
        <ele>188</ele>
        <time>2016-09-10T10:12:25Z</time>
      </trkpt>
      <trkpt lat="46.06472" lon="4.72856">
        <ele>188</ele>
        <time>2016-09-10T10:12:26Z</time>
      </trkpt>
      <trkpt lat="46.06472" lon="4.72848">
        <ele>188</ele>
        <time>2016-09-10T10:12:27Z</time>
      </trkpt>
      <trkpt lat="46.06471" lon="4.72841">
        <ele>188</ele>
        <time>2016-09-10T10:12:28Z</time>
      </trkpt>
      <trkpt lat="46.06471" lon="4.72833">
        <ele>188</ele>
        <time>2016-09-10T10:12:29Z</time>
      </trkpt>
      <trkpt lat="46.06471" lon="4.72825">
        <ele>188</ele>
        <time>2016-09-10T10:12:30Z</time>
      </trkpt>
      <trkpt lat="46.0647" lon="4.72817">
        <ele>188</ele>
        <time>2016-09-10T10:12:31Z</time>
      </trkpt>
      <trkpt lat="46.06469" lon="4.7281">
        <ele>188</ele>
        <time>2016-09-10T10:12:32Z</time>
      </trkpt>
      <trkpt lat="46.06466" lon="4.72801">
        <ele>188</ele>
        <time>2016-09-10T10:12:33Z</time>
      </trkpt>
      <trkpt lat="46.06464" lon="4.72792">
        <ele>188</ele>
        <time>2016-09-10T10:12:34Z</time>
      </trkpt>
      <trkpt lat="46.06462" lon="4.72784">
        <ele>188</ele>
        <time>2016-09-10T10:12:35Z</time>
      </trkpt>
      <trkpt lat="46.06461" lon="4.72776">
        <ele>188</ele>
        <time>2016-09-10T10:12:36Z</time>
      </trkpt>
      <trkpt lat="46.06459" lon="4.72768">
        <ele>188</ele>
        <time>2016-09-10T10:12:37Z</time>
      </trkpt>
      <trkpt lat="46.06457" lon="4.72761">
        <ele>188</ele>
        <time>2016-09-10T10:12:38Z</time>
      </trkpt>
      <trkpt lat="46.06456" lon="4.72753">
        <ele>188</ele>
        <time>2016-09-10T10:12:39Z</time>
      </trkpt>
      <trkpt lat="46.06454" lon="4.72745">
        <ele>189</ele>
        <time>2016-09-10T10:12:40Z</time>
      </trkpt>
      <trkpt lat="46.06453" lon="4.72737">
        <ele>189</ele>
        <time>2016-09-10T10:12:41Z</time>
      </trkpt>
      <trkpt lat="46.06451" lon="4.72729">
        <ele>189</ele>
        <time>2016-09-10T10:12:42Z</time>
      </trkpt>
      <trkpt lat="46.0645" lon="4.72721">
        <ele>190</ele>
        <time>2016-09-10T10:12:43Z</time>
      </trkpt>
      <trkpt lat="46.06449" lon="4.72713">
        <ele>190</ele>
        <time>2016-09-10T10:12:44Z</time>
      </trkpt>
      <trkpt lat="46.06448" lon="4.72706">
        <ele>190</ele>
        <time>2016-09-10T10:12:45Z</time>
      </trkpt>
      <trkpt lat="46.06447" lon="4.72699">
        <ele>190</ele>
        <time>2016-09-10T10:12:46Z</time>
      </trkpt>
      <trkpt lat="46.06446" lon="4.72692">
        <ele>190</ele>
        <time>2016-09-10T10:12:47Z</time>
      </trkpt>
      <trkpt lat="46.06444" lon="4.72684">
        <ele>190</ele>
        <time>2016-09-10T10:12:48Z</time>
      </trkpt>
      <trkpt lat="46.06443" lon="4.72677">
        <ele>191</ele>
        <time>2016-09-10T10:12:49Z</time>
      </trkpt>
      <trkpt lat="46.06441" lon="4.7267">
        <ele>191</ele>
        <time>2016-09-10T10:12:50Z</time>
      </trkpt>
      <trkpt lat="46.0644" lon="4.72662">
        <ele>192</ele>
        <time>2016-09-10T10:12:51Z</time>
      </trkpt>
      <trkpt lat="46.06439" lon="4.72655">
        <ele>192</ele>
        <time>2016-09-10T10:12:52Z</time>
      </trkpt>
      <trkpt lat="46.06438" lon="4.72648">
        <ele>192</ele>
        <time>2016-09-10T10:12:53Z</time>
      </trkpt>
      <trkpt lat="46.06436" lon="4.72641">
        <ele>192</ele>
        <time>2016-09-10T10:12:54Z</time>
      </trkpt>
      <trkpt lat="46.06435" lon="4.72634">
        <ele>192</ele>
        <time>2016-09-10T10:12:55Z</time>
      </trkpt>
      <trkpt lat="46.06434" lon="4.72627">
        <ele>193</ele>
        <time>2016-09-10T10:12:56Z</time>
      </trkpt>
      <trkpt lat="46.06433" lon="4.7262">
        <ele>193</ele>
        <time>2016-09-10T10:12:57Z</time>
      </trkpt>
      <trkpt lat="46.06432" lon="4.72613">
        <ele>193</ele>
        <time>2016-09-10T10:12:58Z</time>
      </trkpt>
      <trkpt lat="46.06431" lon="4.72607">
        <ele>193</ele>
        <time>2016-09-10T10:12:59Z</time>
      </trkpt>
      <trkpt lat="46.06429" lon="4.726">
        <ele>193</ele>
        <time>2016-09-10T10:13:00Z</time>
      </trkpt>
      <trkpt lat="46.06428" lon="4.72593">
        <ele>194</ele>
        <time>2016-09-10T10:13:01Z</time>
      </trkpt>
      <trkpt lat="46.06427" lon="4.72587">
        <ele>194</ele>
        <time>2016-09-10T10:13:02Z</time>
      </trkpt>
      <trkpt lat="46.06426" lon="4.7258">
        <ele>195</ele>
        <time>2016-09-10T10:13:03Z</time>
      </trkpt>
      <trkpt lat="46.06424" lon="4.72573">
        <ele>195</ele>
        <time>2016-09-10T10:13:04Z</time>
      </trkpt>
      <trkpt lat="46.06423" lon="4.72566">
        <ele>195</ele>
        <time>2016-09-10T10:13:05Z</time>
      </trkpt>
      <trkpt lat="46.06422" lon="4.72559">
        <ele>195</ele>
        <time>2016-09-10T10:13:06Z</time>
      </trkpt>
      <trkpt lat="46.0642" lon="4.72552">
        <ele>196</ele>
        <time>2016-09-10T10:13:07Z</time>
      </trkpt>
      <trkpt lat="46.06419" lon="4.72545">
        <ele>196</ele>
        <time>2016-09-10T10:13:08Z</time>
      </trkpt>
      <trkpt lat="46.06418" lon="4.72538">
        <ele>196</ele>
        <time>2016-09-10T10:13:09Z</time>
      </trkpt>
      <trkpt lat="46.06417" lon="4.72532">
        <ele>197</ele>
        <time>2016-09-10T10:13:10Z</time>
      </trkpt>
      <trkpt lat="46.06415" lon="4.7252">
        <ele>198</ele>
        <time>2016-09-10T10:13:12Z</time>
      </trkpt>
      <trkpt lat="46.06414" lon="4.72515">
        <ele>198</ele>
        <time>2016-09-10T10:13:13Z</time>
      </trkpt>
      <trkpt lat="46.06413" lon="4.72504">
        <ele>199</ele>
        <time>2016-09-10T10:13:15Z</time>
      </trkpt>
      <trkpt lat="46.06413" lon="4.72499">
        <ele>200</ele>
        <time>2016-09-10T10:13:16Z</time>
      </trkpt>
      <trkpt lat="46.0641" lon="4.72489">
        <ele>199</ele>
        <time>2016-09-10T10:13:18Z</time>
      </trkpt>
      <trkpt lat="46.06408" lon="4.72483">
        <ele>198</ele>
        <time>2016-09-10T10:13:19Z</time>
      </trkpt>
      <trkpt lat="46.06404" lon="4.72474">
        <ele>198</ele>
        <time>2016-09-10T10:13:21Z</time>
      </trkpt>
      <trkpt lat="46.06402" lon="4.72469">
        <ele>198</ele>
        <time>2016-09-10T10:13:22Z</time>
      </trkpt>
      <trkpt lat="46.06397" lon="4.72459">
        <ele>197</ele>
        <time>2016-09-10T10:13:24Z</time>
      </trkpt>
      <trkpt lat="46.06395" lon="4.72454">
        <ele>197</ele>
        <time>2016-09-10T10:13:25Z</time>
      </trkpt>
      <trkpt lat="46.06393" lon="4.72448">
        <ele>197</ele>
        <time>2016-09-10T10:13:26Z</time>
      </trkpt>
      <trkpt lat="46.0639" lon="4.72442">
        <ele>197</ele>
        <time>2016-09-10T10:13:27Z</time>
      </trkpt>
      <trkpt lat="46.06388" lon="4.72437">
        <ele>197</ele>
        <time>2016-09-10T10:13:28Z</time>
      </trkpt>
      <trkpt lat="46.06385" lon="4.72432">
        <ele>197</ele>
        <time>2016-09-10T10:13:29Z</time>
      </trkpt>
      <trkpt lat="46.0638" lon="4.72421">
        <ele>197</ele>
        <time>2016-09-10T10:13:31Z</time>
      </trkpt>
      <trkpt lat="46.06378" lon="4.72416">
        <ele>196</ele>
        <time>2016-09-10T10:13:32Z</time>
      </trkpt>
      <trkpt lat="46.06375" lon="4.7241">
        <ele>196</ele>
        <time>2016-09-10T10:13:33Z</time>
      </trkpt>
      <trkpt lat="46.06372" lon="4.72405">
        <ele>196</ele>
        <time>2016-09-10T10:13:34Z</time>
      </trkpt>
      <trkpt lat="46.0637" lon="4.72392">
        <ele>196</ele>
        <time>2016-09-10T10:13:36Z</time>
      </trkpt>
      <trkpt lat="46.0637" lon="4.72386">
        <ele>196</ele>
        <time>2016-09-10T10:13:37Z</time>
      </trkpt>
      <trkpt lat="46.06371" lon="4.72379">
        <ele>196</ele>
        <time>2016-09-10T10:13:38Z</time>
      </trkpt>
      <trkpt lat="46.06372" lon="4.72373">
        <ele>196</ele>
        <time>2016-09-10T10:13:39Z</time>
      </trkpt>
      <trkpt lat="46.06373" lon="4.72367">
        <ele>195</ele>
        <time>2016-09-10T10:13:40Z</time>
      </trkpt>
      <trkpt lat="46.06374" lon="4.7236">
        <ele>195</ele>
        <time>2016-09-10T10:13:41Z</time>
      </trkpt>
      <trkpt lat="46.06375" lon="4.72353">
        <ele>195</ele>
        <time>2016-09-10T10:13:42Z</time>
      </trkpt>
      <trkpt lat="46.06376" lon="4.72346">
        <ele>195</ele>
        <time>2016-09-10T10:13:43Z</time>
      </trkpt>
      <trkpt lat="46.06376" lon="4.72338">
        <ele>195</ele>
        <time>2016-09-10T10:13:44Z</time>
      </trkpt>
      <trkpt lat="46.06376" lon="4.7233">
        <ele>194</ele>
        <time>2016-09-10T10:13:45Z</time>
      </trkpt>
      <trkpt lat="46.06375" lon="4.72323">
        <ele>193</ele>
        <time>2016-09-10T10:13:46Z</time>
      </trkpt>
      <trkpt lat="46.06375" lon="4.72316">
        <ele>193</ele>
        <time>2016-09-10T10:13:47Z</time>
      </trkpt>
      <trkpt lat="46.06375" lon="4.72309">
        <ele>193</ele>
        <time>2016-09-10T10:13:48Z</time>
      </trkpt>
      <trkpt lat="46.06375" lon="4.72303">
        <ele>193</ele>
        <time>2016-09-10T10:13:49Z</time>
      </trkpt>
      <trkpt lat="46.06378" lon="4.72294">
        <ele>193</ele>
        <time>2016-09-10T10:13:51Z</time>
      </trkpt>
      <trkpt lat="46.0638" lon="4.7229">
        <ele>193</ele>
        <time>2016-09-10T10:13:52Z</time>
      </trkpt>
      <trkpt lat="46.06386" lon="4.72286">
        <ele>193</ele>
        <time>2016-09-10T10:13:54Z</time>
      </trkpt>
      <trkpt lat="46.06392" lon="4.72288">
        <ele>193</ele>
        <time>2016-09-10T10:13:55Z</time>
      </trkpt>
      <trkpt lat="46.06397" lon="4.72289">
        <ele>192</ele>
        <time>2016-09-10T10:13:56Z</time>
      </trkpt>
      <trkpt lat="46.06402" lon="4.72288">
        <ele>192</ele>
        <time>2016-09-10T10:13:57Z</time>
      </trkpt>
      <trkpt lat="46.0641" lon="4.72288">
        <ele>192</ele>
        <time>2016-09-10T10:13:59Z</time>
      </trkpt>
      <trkpt lat="46.06414" lon="4.72289">
        <ele>192</ele>
        <time>2016-09-10T10:14:00Z</time>
      </trkpt>
      <trkpt lat="46.06423" lon="4.72288">
        <ele>190</ele>
        <time>2016-09-10T10:14:02Z</time>
      </trkpt>
      <trkpt lat="46.06426" lon="4.72287">
        <ele>190</ele>
        <time>2016-09-10T10:14:03Z</time>
      </trkpt>
      <trkpt lat="46.06431" lon="4.72285">
        <ele>190</ele>
        <time>2016-09-10T10:14:04Z</time>
      </trkpt>
      <trkpt lat="46.06436" lon="4.7228">
        <ele>190</ele>
        <time>2016-09-10T10:14:05Z</time>
      </trkpt>
      <trkpt lat="46.06434" lon="4.72274">
        <ele>190</ele>
        <time>2016-09-10T10:14:06Z</time>
      </trkpt>
      <trkpt lat="46.06431" lon="4.72268">
        <ele>190</ele>
        <time>2016-09-10T10:14:07Z</time>
      </trkpt>
      <trkpt lat="46.06428" lon="4.72263">
        <ele>189</ele>
        <time>2016-09-10T10:14:08Z</time>
      </trkpt>
      <trkpt lat="46.06425" lon="4.72258">
        <ele>189</ele>
        <time>2016-09-10T10:14:09Z</time>
      </trkpt>
      <trkpt lat="46.06421" lon="4.72252">
        <ele>189</ele>
        <time>2016-09-10T10:14:10Z</time>
      </trkpt>
      <trkpt lat="46.06418" lon="4.72245">
        <ele>188</ele>
        <time>2016-09-10T10:14:11Z</time>
      </trkpt>
      <trkpt lat="46.06414" lon="4.72238">
        <ele>189</ele>
        <time>2016-09-10T10:14:12Z</time>
      </trkpt>
      <trkpt lat="46.06411" lon="4.7223">
        <ele>190</ele>
        <time>2016-09-10T10:14:13Z</time>
      </trkpt>
      <trkpt lat="46.06408" lon="4.72223">
        <ele>190</ele>
        <time>2016-09-10T10:14:14Z</time>
      </trkpt>
      <trkpt lat="46.06405" lon="4.72214">
        <ele>190</ele>
        <time>2016-09-10T10:14:15Z</time>
      </trkpt>
      <trkpt lat="46.06402" lon="4.72205">
        <ele>190</ele>
        <time>2016-09-10T10:14:16Z</time>
      </trkpt>
      <trkpt lat="46.06399" lon="4.72196">
        <ele>189</ele>
        <time>2016-09-10T10:14:17Z</time>
      </trkpt>
      <trkpt lat="46.06396" lon="4.72186">
        <ele>189</ele>
        <time>2016-09-10T10:14:18Z</time>
      </trkpt>
      <trkpt lat="46.06394" lon="4.72176">
        <ele>189</ele>
        <time>2016-09-10T10:14:19Z</time>
      </trkpt>
      <trkpt lat="46.06391" lon="4.72165">
        <ele>188</ele>
        <time>2016-09-10T10:14:20Z</time>
      </trkpt>
      <trkpt lat="46.06389" lon="4.72155">
        <ele>188</ele>
        <time>2016-09-10T10:14:21Z</time>
      </trkpt>
      <trkpt lat="46.06386" lon="4.72145">
        <ele>189</ele>
        <time>2016-09-10T10:14:22Z</time>
      </trkpt>
      <trkpt lat="46.06384" lon="4.72134">
        <ele>189</ele>
        <time>2016-09-10T10:14:23Z</time>
      </trkpt>
      <trkpt lat="46.06382" lon="4.72124">
        <ele>189</ele>
        <time>2016-09-10T10:14:24Z</time>
      </trkpt>
      <trkpt lat="46.06379" lon="4.72114">
        <ele>189</ele>
        <time>2016-09-10T10:14:25Z</time>
      </trkpt>
      <trkpt lat="46.06376" lon="4.72105">
        <ele>189</ele>
        <time>2016-09-10T10:14:26Z</time>
      </trkpt>
      <trkpt lat="46.06373" lon="4.72096">
        <ele>189</ele>
        <time>2016-09-10T10:14:27Z</time>
      </trkpt>
      <trkpt lat="46.0637" lon="4.72088">
        <ele>189</ele>
        <time>2016-09-10T10:14:28Z</time>
      </trkpt>
      <trkpt lat="46.06368" lon="4.72079">
        <ele>189</ele>
        <time>2016-09-10T10:14:29Z</time>
      </trkpt>
      <trkpt lat="46.06365" lon="4.72071">
        <ele>189</ele>
        <time>2016-09-10T10:14:30Z</time>
      </trkpt>
      <trkpt lat="46.06362" lon="4.72064">
        <ele>189</ele>
        <time>2016-09-10T10:14:31Z</time>
      </trkpt>
      <trkpt lat="46.06359" lon="4.72056">
        <ele>189</ele>
        <time>2016-09-10T10:14:32Z</time>
      </trkpt>
      <trkpt lat="46.06356" lon="4.72048">
        <ele>189</ele>
        <time>2016-09-10T10:14:33Z</time>
      </trkpt>
      <trkpt lat="46.06354" lon="4.72041">
        <ele>189</ele>
        <time>2016-09-10T10:14:34Z</time>
      </trkpt>
      <trkpt lat="46.06352" lon="4.72033">
        <ele>189</ele>
        <time>2016-09-10T10:14:35Z</time>
      </trkpt>
      <trkpt lat="46.06349" lon="4.72027">
        <ele>189</ele>
        <time>2016-09-10T10:14:36Z</time>
      </trkpt>
      <trkpt lat="46.06346" lon="4.72019">
        <ele>189</ele>
        <time>2016-09-10T10:14:37Z</time>
      </trkpt>
      <trkpt lat="46.06344" lon="4.72012">
        <ele>189</ele>
        <time>2016-09-10T10:14:38Z</time>
      </trkpt>
      <trkpt lat="46.06341" lon="4.72005">
        <ele>189</ele>
        <time>2016-09-10T10:14:39Z</time>
      </trkpt>
      <trkpt lat="46.06339" lon="4.71997">
        <ele>189</ele>
        <time>2016-09-10T10:14:40Z</time>
      </trkpt>
      <trkpt lat="46.06336" lon="4.71989">
        <ele>189</ele>
        <time>2016-09-10T10:14:41Z</time>
      </trkpt>
      <trkpt lat="46.06334" lon="4.71982">
        <ele>189</ele>
        <time>2016-09-10T10:14:42Z</time>
      </trkpt>
      <trkpt lat="46.06331" lon="4.71975">
        <ele>190</ele>
        <time>2016-09-10T10:14:43Z</time>
      </trkpt>
      <trkpt lat="46.06329" lon="4.71968">
        <ele>190</ele>
        <time>2016-09-10T10:14:44Z</time>
      </trkpt>
      <trkpt lat="46.06327" lon="4.71961">
        <ele>190</ele>
        <time>2016-09-10T10:14:45Z</time>
      </trkpt>
      <trkpt lat="46.06325" lon="4.71954">
        <ele>190</ele>
        <time>2016-09-10T10:14:46Z</time>
      </trkpt>
      <trkpt lat="46.06322" lon="4.71947">
        <ele>190</ele>
        <time>2016-09-10T10:14:47Z</time>
      </trkpt>
      <trkpt lat="46.0632" lon="4.71939">
        <ele>190</ele>
        <time>2016-09-10T10:14:48Z</time>
      </trkpt>
      <trkpt lat="46.06318" lon="4.7193">
        <ele>190</ele>
        <time>2016-09-10T10:14:49Z</time>
      </trkpt>
      <trkpt lat="46.06316" lon="4.71921">
        <ele>190</ele>
        <time>2016-09-10T10:14:50Z</time>
      </trkpt>
      <trkpt lat="46.06314" lon="4.71912">
        <ele>189</ele>
        <time>2016-09-10T10:14:51Z</time>
      </trkpt>
      <trkpt lat="46.06312" lon="4.71903">
        <ele>189</ele>
        <time>2016-09-10T10:14:52Z</time>
      </trkpt>
      <trkpt lat="46.0631" lon="4.71893">
        <ele>189</ele>
        <time>2016-09-10T10:14:53Z</time>
      </trkpt>
      <trkpt lat="46.06308" lon="4.71884">
        <ele>189</ele>
        <time>2016-09-10T10:14:54Z</time>
      </trkpt>
      <trkpt lat="46.06305" lon="4.71874">
        <ele>189</ele>
        <time>2016-09-10T10:14:55Z</time>
      </trkpt>
      <trkpt lat="46.06303" lon="4.71865">
        <ele>189</ele>
        <time>2016-09-10T10:14:56Z</time>
      </trkpt>
      <trkpt lat="46.06301" lon="4.71857">
        <ele>189</ele>
        <time>2016-09-10T10:14:57Z</time>
      </trkpt>
      <trkpt lat="46.06299" lon="4.71849">
        <ele>189</ele>
        <time>2016-09-10T10:14:58Z</time>
      </trkpt>
      <trkpt lat="46.06297" lon="4.71842">
        <ele>189</ele>
        <time>2016-09-10T10:14:59Z</time>
      </trkpt>
      <trkpt lat="46.06295" lon="4.71835">
        <ele>189</ele>
        <time>2016-09-10T10:15:00Z</time>
      </trkpt>
      <trkpt lat="46.06293" lon="4.71828">
        <ele>189</ele>
        <time>2016-09-10T10:15:01Z</time>
      </trkpt>
      <trkpt lat="46.06291" lon="4.71821">
        <ele>189</ele>
        <time>2016-09-10T10:15:02Z</time>
      </trkpt>
      <trkpt lat="46.06289" lon="4.71813">
        <ele>189</ele>
        <time>2016-09-10T10:15:03Z</time>
      </trkpt>
      <trkpt lat="46.06288" lon="4.71806">
        <ele>189</ele>
        <time>2016-09-10T10:15:04Z</time>
      </trkpt>
      <trkpt lat="46.06287" lon="4.71799">
        <ele>190</ele>
        <time>2016-09-10T10:15:05Z</time>
      </trkpt>
      <trkpt lat="46.06285" lon="4.71792">
        <ele>190</ele>
        <time>2016-09-10T10:15:06Z</time>
      </trkpt>
      <trkpt lat="46.06283" lon="4.71784">
        <ele>190</ele>
        <time>2016-09-10T10:15:07Z</time>
      </trkpt>
      <trkpt lat="46.06281" lon="4.71776">
        <ele>190</ele>
        <time>2016-09-10T10:15:08Z</time>
      </trkpt>
      <trkpt lat="46.06279" lon="4.71768">
        <ele>190</ele>
        <time>2016-09-10T10:15:09Z</time>
      </trkpt>
      <trkpt lat="46.06277" lon="4.71761">
        <ele>190</ele>
        <time>2016-09-10T10:15:10Z</time>
      </trkpt>
      <trkpt lat="46.06274" lon="4.71753">
        <ele>190</ele>
        <time>2016-09-10T10:15:11Z</time>
      </trkpt>
      <trkpt lat="46.0627" lon="4.71746">
        <ele>190</ele>
        <time>2016-09-10T10:15:12Z</time>
      </trkpt>
      <trkpt lat="46.06267" lon="4.71738">
        <ele>190</ele>
        <time>2016-09-10T10:15:13Z</time>
      </trkpt>
      <trkpt lat="46.06264" lon="4.71731">
        <ele>190</ele>
        <time>2016-09-10T10:15:14Z</time>
      </trkpt>
      <trkpt lat="46.06262" lon="4.71724">
        <ele>190</ele>
        <time>2016-09-10T10:15:15Z</time>
      </trkpt>
      <trkpt lat="46.0626" lon="4.71718">
        <ele>190</ele>
        <time>2016-09-10T10:15:16Z</time>
      </trkpt>
      <trkpt lat="46.06257" lon="4.71712">
        <ele>190</ele>
        <time>2016-09-10T10:15:17Z</time>
      </trkpt>
      <trkpt lat="46.06254" lon="4.71707">
        <ele>190</ele>
        <time>2016-09-10T10:15:18Z</time>
      </trkpt>
      <trkpt lat="46.06252" lon="4.717">
        <ele>190</ele>
        <time>2016-09-10T10:15:19Z</time>
      </trkpt>
      <trkpt lat="46.06249" lon="4.71693">
        <ele>191</ele>
        <time>2016-09-10T10:15:20Z</time>
      </trkpt>
      <trkpt lat="46.06247" lon="4.71687">
        <ele>191</ele>
        <time>2016-09-10T10:15:21Z</time>
      </trkpt>
      <trkpt lat="46.06245" lon="4.7168">
        <ele>191</ele>
        <time>2016-09-10T10:15:22Z</time>
      </trkpt>
      <trkpt lat="46.06242" lon="4.71673">
        <ele>191</ele>
        <time>2016-09-10T10:15:23Z</time>
      </trkpt>
      <trkpt lat="46.06239" lon="4.71666">
        <ele>190</ele>
        <time>2016-09-10T10:15:24Z</time>
      </trkpt>
      <trkpt lat="46.06236" lon="4.71659">
        <ele>191</ele>
        <time>2016-09-10T10:15:25Z</time>
      </trkpt>
      <trkpt lat="46.06233" lon="4.71653">
        <ele>191</ele>
        <time>2016-09-10T10:15:26Z</time>
      </trkpt>
      <trkpt lat="46.0623" lon="4.71646">
        <ele>191</ele>
        <time>2016-09-10T10:15:27Z</time>
      </trkpt>
      <trkpt lat="46.06227" lon="4.7164">
        <ele>191</ele>
        <time>2016-09-10T10:15:28Z</time>
      </trkpt>
      <trkpt lat="46.06224" lon="4.71634">
        <ele>191</ele>
        <time>2016-09-10T10:15:29Z</time>
      </trkpt>
      <trkpt lat="46.06221" lon="4.71629">
        <ele>191</ele>
        <time>2016-09-10T10:15:30Z</time>
      </trkpt>
      <trkpt lat="46.06218" lon="4.71623">
        <ele>191</ele>
        <time>2016-09-10T10:15:31Z</time>
      </trkpt>
      <trkpt lat="46.06214" lon="4.71618">
        <ele>191</ele>
        <time>2016-09-10T10:15:32Z</time>
      </trkpt>
      <trkpt lat="46.06211" lon="4.71613">
        <ele>191</ele>
        <time>2016-09-10T10:15:33Z</time>
      </trkpt>
      <trkpt lat="46.06205" lon="4.71608">
        <ele>191</ele>
        <time>2016-09-10T10:15:34Z</time>
      </trkpt>
      <trkpt lat="46.06202" lon="4.71603">
        <ele>191</ele>
        <time>2016-09-10T10:15:35Z</time>
      </trkpt>
      <trkpt lat="46.06198" lon="4.71598">
        <ele>191</ele>
        <time>2016-09-10T10:15:36Z</time>
      </trkpt>
      <trkpt lat="46.06195" lon="4.71592">
        <ele>191</ele>
        <time>2016-09-10T10:15:37Z</time>
      </trkpt>
      <trkpt lat="46.06192" lon="4.71587">
        <ele>191</ele>
        <time>2016-09-10T10:15:38Z</time>
      </trkpt>
      <trkpt lat="46.06189" lon="4.71581">
        <ele>191</ele>
        <time>2016-09-10T10:15:39Z</time>
      </trkpt>
      <trkpt lat="46.06186" lon="4.71576">
        <ele>191</ele>
        <time>2016-09-10T10:15:40Z</time>
      </trkpt>
      <trkpt lat="46.06183" lon="4.7157">
        <ele>191</ele>
        <time>2016-09-10T10:15:41Z</time>
      </trkpt>
      <trkpt lat="46.06179" lon="4.71565">
        <ele>191</ele>
        <time>2016-09-10T10:15:42Z</time>
      </trkpt>
      <trkpt lat="46.06176" lon="4.7156">
        <ele>191</ele>
        <time>2016-09-10T10:15:43Z</time>
      </trkpt>
      <trkpt lat="46.06173" lon="4.71555">
        <ele>191</ele>
        <time>2016-09-10T10:15:44Z</time>
      </trkpt>
      <trkpt lat="46.06169" lon="4.71551">
        <ele>191</ele>
        <time>2016-09-10T10:15:45Z</time>
      </trkpt>
      <trkpt lat="46.06165" lon="4.71547">
        <ele>192</ele>
        <time>2016-09-10T10:15:46Z</time>
      </trkpt>
      <trkpt lat="46.06162" lon="4.71542">
        <ele>192</ele>
        <time>2016-09-10T10:15:47Z</time>
      </trkpt>
      <trkpt lat="46.06158" lon="4.71537">
        <ele>192</ele>
        <time>2016-09-10T10:15:48Z</time>
      </trkpt>
      <trkpt lat="46.06155" lon="4.71532">
        <ele>192</ele>
        <time>2016-09-10T10:15:49Z</time>
      </trkpt>
      <trkpt lat="46.06152" lon="4.71527">
        <ele>192</ele>
        <time>2016-09-10T10:15:50Z</time>
      </trkpt>
      <trkpt lat="46.06149" lon="4.71522">
        <ele>192</ele>
        <time>2016-09-10T10:15:51Z</time>
      </trkpt>
      <trkpt lat="46.06146" lon="4.71516">
        <ele>192</ele>
        <time>2016-09-10T10:15:52Z</time>
      </trkpt>
      <trkpt lat="46.06143" lon="4.7151">
        <ele>192</ele>
        <time>2016-09-10T10:15:53Z</time>
      </trkpt>
      <trkpt lat="46.06141" lon="4.71504">
        <ele>192</ele>
        <time>2016-09-10T10:15:54Z</time>
      </trkpt>
      <trkpt lat="46.06138" lon="4.71496">
        <ele>192</ele>
        <time>2016-09-10T10:15:55Z</time>
      </trkpt>
      <trkpt lat="46.06135" lon="4.71489">
        <ele>192</ele>
        <time>2016-09-10T10:15:56Z</time>
      </trkpt>
      <trkpt lat="46.06133" lon="4.71481">
        <ele>192</ele>
        <time>2016-09-10T10:15:57Z</time>
      </trkpt>
      <trkpt lat="46.06131" lon="4.71472">
        <ele>192</ele>
        <time>2016-09-10T10:15:58Z</time>
      </trkpt>
      <trkpt lat="46.06128" lon="4.71463">
        <ele>192</ele>
        <time>2016-09-10T10:15:59Z</time>
      </trkpt>
      <trkpt lat="46.06126" lon="4.71454">
        <ele>192</ele>
        <time>2016-09-10T10:16:00Z</time>
      </trkpt>
      <trkpt lat="46.06123" lon="4.71446">
        <ele>193</ele>
        <time>2016-09-10T10:16:01Z</time>
      </trkpt>
      <trkpt lat="46.06121" lon="4.71438">
        <ele>193</ele>
        <time>2016-09-10T10:16:02Z</time>
      </trkpt>
      <trkpt lat="46.06119" lon="4.7143">
        <ele>193</ele>
        <time>2016-09-10T10:16:03Z</time>
      </trkpt>
      <trkpt lat="46.06117" lon="4.71422">
        <ele>193</ele>
        <time>2016-09-10T10:16:04Z</time>
      </trkpt>
      <trkpt lat="46.06114" lon="4.71415">
        <ele>193</ele>
        <time>2016-09-10T10:16:05Z</time>
      </trkpt>
      <trkpt lat="46.06112" lon="4.71408">
        <ele>193</ele>
        <time>2016-09-10T10:16:06Z</time>
      </trkpt>
      <trkpt lat="46.0611" lon="4.71401">
        <ele>193</ele>
        <time>2016-09-10T10:16:07Z</time>
      </trkpt>
      <trkpt lat="46.06107" lon="4.71394">
        <ele>193</ele>
        <time>2016-09-10T10:16:08Z</time>
      </trkpt>
      <trkpt lat="46.06106" lon="4.71388">
        <ele>193</ele>
        <time>2016-09-10T10:16:09Z</time>
      </trkpt>
      <trkpt lat="46.06104" lon="4.71381">
        <ele>193</ele>
        <time>2016-09-10T10:16:10Z</time>
      </trkpt>
      <trkpt lat="46.06102" lon="4.71375">
        <ele>193</ele>
        <time>2016-09-10T10:16:11Z</time>
      </trkpt>
      <trkpt lat="46.061" lon="4.71368">
        <ele>193</ele>
        <time>2016-09-10T10:16:12Z</time>
      </trkpt>
      <trkpt lat="46.06098" lon="4.71361">
        <ele>193</ele>
        <time>2016-09-10T10:16:13Z</time>
      </trkpt>
      <trkpt lat="46.06096" lon="4.71355">
        <ele>193</ele>
        <time>2016-09-10T10:16:14Z</time>
      </trkpt>
      <trkpt lat="46.06094" lon="4.71349">
        <ele>193</ele>
        <time>2016-09-10T10:16:15Z</time>
      </trkpt>
      <trkpt lat="46.06092" lon="4.71343">
        <ele>193</ele>
        <time>2016-09-10T10:16:16Z</time>
      </trkpt>
      <trkpt lat="46.0609" lon="4.71336">
        <ele>193</ele>
        <time>2016-09-10T10:16:17Z</time>
      </trkpt>
      <trkpt lat="46.06087" lon="4.71329">
        <ele>193</ele>
        <time>2016-09-10T10:16:18Z</time>
      </trkpt>
      <trkpt lat="46.06084" lon="4.71322">
        <ele>193</ele>
        <time>2016-09-10T10:16:19Z</time>
      </trkpt>
      <trkpt lat="46.06081" lon="4.71314">
        <ele>193</ele>
        <time>2016-09-10T10:16:20Z</time>
      </trkpt>
      <trkpt lat="46.06079" lon="4.71306">
        <ele>193</ele>
        <time>2016-09-10T10:16:21Z</time>
      </trkpt>
      <trkpt lat="46.06076" lon="4.71298">
        <ele>193</ele>
        <time>2016-09-10T10:16:22Z</time>
      </trkpt>
      <trkpt lat="46.06074" lon="4.7129">
        <ele>193</ele>
        <time>2016-09-10T10:16:23Z</time>
      </trkpt>
      <trkpt lat="46.06072" lon="4.71283">
        <ele>193</ele>
        <time>2016-09-10T10:16:24Z</time>
      </trkpt>
      <trkpt lat="46.0607" lon="4.71276">
        <ele>193</ele>
        <time>2016-09-10T10:16:25Z</time>
      </trkpt>
      <trkpt lat="46.06068" lon="4.7127">
        <ele>193</ele>
        <time>2016-09-10T10:16:26Z</time>
      </trkpt>
      <trkpt lat="46.06065" lon="4.71263">
        <ele>193</ele>
        <time>2016-09-10T10:16:27Z</time>
      </trkpt>
      <trkpt lat="46.06063" lon="4.71256">
        <ele>193</ele>
        <time>2016-09-10T10:16:28Z</time>
      </trkpt>
      <trkpt lat="46.0606" lon="4.7125">
        <ele>193</ele>
        <time>2016-09-10T10:16:29Z</time>
      </trkpt>
      <trkpt lat="46.06057" lon="4.71243">
        <ele>193</ele>
        <time>2016-09-10T10:16:30Z</time>
      </trkpt>
      <trkpt lat="46.06055" lon="4.71237">
        <ele>193</ele>
        <time>2016-09-10T10:16:31Z</time>
      </trkpt>
      <trkpt lat="46.06052" lon="4.71231">
        <ele>193</ele>
        <time>2016-09-10T10:16:32Z</time>
      </trkpt>
      <trkpt lat="46.0605" lon="4.71224">
        <ele>193</ele>
        <time>2016-09-10T10:16:33Z</time>
      </trkpt>
      <trkpt lat="46.06048" lon="4.71219">
        <ele>193</ele>
        <time>2016-09-10T10:16:34Z</time>
      </trkpt>
      <trkpt lat="46.06045" lon="4.71212">
        <ele>193</ele>
        <time>2016-09-10T10:16:35Z</time>
      </trkpt>
      <trkpt lat="46.06043" lon="4.71206">
        <ele>193</ele>
        <time>2016-09-10T10:16:36Z</time>
      </trkpt>
      <trkpt lat="46.06041" lon="4.71199">
        <ele>193</ele>
        <time>2016-09-10T10:16:37Z</time>
      </trkpt>
      <trkpt lat="46.06038" lon="4.71192">
        <ele>193</ele>
        <time>2016-09-10T10:16:38Z</time>
      </trkpt>
      <trkpt lat="46.06035" lon="4.71185">
        <ele>193</ele>
        <time>2016-09-10T10:16:39Z</time>
      </trkpt>
      <trkpt lat="46.06033" lon="4.71177">
        <ele>193</ele>
        <time>2016-09-10T10:16:40Z</time>
      </trkpt>
      <trkpt lat="46.0603" lon="4.7117">
        <ele>193</ele>
        <time>2016-09-10T10:16:41Z</time>
      </trkpt>
      <trkpt lat="46.06027" lon="4.71162">
        <ele>193</ele>
        <time>2016-09-10T10:16:42Z</time>
      </trkpt>
      <trkpt lat="46.06024" lon="4.71155">
        <ele>193</ele>
        <time>2016-09-10T10:16:43Z</time>
      </trkpt>
      <trkpt lat="46.06021" lon="4.71147">
        <ele>193</ele>
        <time>2016-09-10T10:16:44Z</time>
      </trkpt>
      <trkpt lat="46.06018" lon="4.71139">
        <ele>193</ele>
        <time>2016-09-10T10:16:45Z</time>
      </trkpt>
      <trkpt lat="46.06015" lon="4.71132">
        <ele>193</ele>
        <time>2016-09-10T10:16:46Z</time>
      </trkpt>
      <trkpt lat="46.06012" lon="4.71124">
        <ele>193</ele>
        <time>2016-09-10T10:16:47Z</time>
      </trkpt>
      <trkpt lat="46.06009" lon="4.71116">
        <ele>193</ele>
        <time>2016-09-10T10:16:48Z</time>
      </trkpt>
      <trkpt lat="46.06006" lon="4.71109">
        <ele>193</ele>
        <time>2016-09-10T10:16:49Z</time>
      </trkpt>
      <trkpt lat="46.06003" lon="4.71101">
        <ele>193</ele>
        <time>2016-09-10T10:16:50Z</time>
      </trkpt>
      <trkpt lat="46.06" lon="4.71093">
        <ele>193</ele>
        <time>2016-09-10T10:16:51Z</time>
      </trkpt>
      <trkpt lat="46.05997" lon="4.71086">
        <ele>193</ele>
        <time>2016-09-10T10:16:52Z</time>
      </trkpt>
      <trkpt lat="46.05994" lon="4.7108">
        <ele>193</ele>
        <time>2016-09-10T10:16:53Z</time>
      </trkpt>
      <trkpt lat="46.05991" lon="4.71074">
        <ele>193</ele>
        <time>2016-09-10T10:16:54Z</time>
      </trkpt>
      <trkpt lat="46.05989" lon="4.71067">
        <ele>193</ele>
        <time>2016-09-10T10:16:55Z</time>
      </trkpt>
      <trkpt lat="46.05985" lon="4.7106">
        <ele>193</ele>
        <time>2016-09-10T10:16:56Z</time>
      </trkpt>
      <trkpt lat="46.05982" lon="4.71053">
        <ele>193</ele>
        <time>2016-09-10T10:16:57Z</time>
      </trkpt>
      <trkpt lat="46.05978" lon="4.71045">
        <ele>193</ele>
        <time>2016-09-10T10:16:58Z</time>
      </trkpt>
      <trkpt lat="46.05975" lon="4.71037">
        <ele>192</ele>
        <time>2016-09-10T10:16:59Z</time>
      </trkpt>
      <trkpt lat="46.05971" lon="4.71029">
        <ele>193</ele>
        <time>2016-09-10T10:17:00Z</time>
      </trkpt>
      <trkpt lat="46.05968" lon="4.7102">
        <ele>193</ele>
        <time>2016-09-10T10:17:01Z</time>
      </trkpt>
      <trkpt lat="46.05965" lon="4.71012">
        <ele>193</ele>
        <time>2016-09-10T10:17:02Z</time>
      </trkpt>
      <trkpt lat="46.05962" lon="4.71003">
        <ele>193</ele>
        <time>2016-09-10T10:17:03Z</time>
      </trkpt>
      <trkpt lat="46.05959" lon="4.70995">
        <ele>193</ele>
        <time>2016-09-10T10:17:04Z</time>
      </trkpt>
      <trkpt lat="46.05957" lon="4.70987">
        <ele>193</ele>
        <time>2016-09-10T10:17:05Z</time>
      </trkpt>
      <trkpt lat="46.05955" lon="4.70979">
        <ele>193</ele>
        <time>2016-09-10T10:17:06Z</time>
      </trkpt>
      <trkpt lat="46.05952" lon="4.7097">
        <ele>193</ele>
        <time>2016-09-10T10:17:07Z</time>
      </trkpt>
      <trkpt lat="46.0595" lon="4.70962">
        <ele>193</ele>
        <time>2016-09-10T10:17:08Z</time>
      </trkpt>
      <trkpt lat="46.05948" lon="4.70953">
        <ele>193</ele>
        <time>2016-09-10T10:17:09Z</time>
      </trkpt>
      <trkpt lat="46.05946" lon="4.70943">
        <ele>193</ele>
        <time>2016-09-10T10:17:10Z</time>
      </trkpt>
      <trkpt lat="46.05944" lon="4.70934">
        <ele>193</ele>
        <time>2016-09-10T10:17:11Z</time>
      </trkpt>
      <trkpt lat="46.05942" lon="4.70925">
        <ele>194</ele>
        <time>2016-09-10T10:17:12Z</time>
      </trkpt>
      <trkpt lat="46.0594" lon="4.70916">
        <ele>194</ele>
        <time>2016-09-10T10:17:13Z</time>
      </trkpt>
      <trkpt lat="46.05939" lon="4.70908">
        <ele>194</ele>
        <time>2016-09-10T10:17:14Z</time>
      </trkpt>
      <trkpt lat="46.05938" lon="4.709">
        <ele>194</ele>
        <time>2016-09-10T10:17:15Z</time>
      </trkpt>
      <trkpt lat="46.05938" lon="4.70892">
        <ele>194</ele>
        <time>2016-09-10T10:17:16Z</time>
      </trkpt>
      <trkpt lat="46.05937" lon="4.70884">
        <ele>194</ele>
        <time>2016-09-10T10:17:17Z</time>
      </trkpt>
      <trkpt lat="46.05937" lon="4.70877">
        <ele>194</ele>
        <time>2016-09-10T10:17:18Z</time>
      </trkpt>
      <trkpt lat="46.05936" lon="4.70869">
        <ele>194</ele>
        <time>2016-09-10T10:17:19Z</time>
      </trkpt>
      <trkpt lat="46.05936" lon="4.70862">
        <ele>194</ele>
        <time>2016-09-10T10:17:20Z</time>
      </trkpt>
      <trkpt lat="46.05936" lon="4.70854">
        <ele>194</ele>
        <time>2016-09-10T10:17:21Z</time>
      </trkpt>
      <trkpt lat="46.05936" lon="4.70847">
        <ele>194</ele>
        <time>2016-09-10T10:17:22Z</time>
      </trkpt>
      <trkpt lat="46.05935" lon="4.70838">
        <ele>194</ele>
        <time>2016-09-10T10:17:23Z</time>
      </trkpt>
      <trkpt lat="46.05934" lon="4.7083">
        <ele>194</ele>
        <time>2016-09-10T10:17:24Z</time>
      </trkpt>
      <trkpt lat="46.05933" lon="4.70822">
        <ele>194</ele>
        <time>2016-09-10T10:17:25Z</time>
      </trkpt>
      <trkpt lat="46.05932" lon="4.70813">
        <ele>194</ele>
        <time>2016-09-10T10:17:26Z</time>
      </trkpt>
      <trkpt lat="46.05931" lon="4.70804">
        <ele>194</ele>
        <time>2016-09-10T10:17:27Z</time>
      </trkpt>
      <trkpt lat="46.0593" lon="4.70797">
        <ele>194</ele>
        <time>2016-09-10T10:17:28Z</time>
      </trkpt>
      <trkpt lat="46.05928" lon="4.70789">
        <ele>194</ele>
        <time>2016-09-10T10:17:29Z</time>
      </trkpt>
      <trkpt lat="46.05927" lon="4.70781">
        <ele>194</ele>
        <time>2016-09-10T10:17:30Z</time>
      </trkpt>
      <trkpt lat="46.05925" lon="4.70772">
        <ele>194</ele>
        <time>2016-09-10T10:17:31Z</time>
      </trkpt>
      <trkpt lat="46.05924" lon="4.70764">
        <ele>194</ele>
        <time>2016-09-10T10:17:32Z</time>
      </trkpt>
      <trkpt lat="46.05923" lon="4.70756">
        <ele>194</ele>
        <time>2016-09-10T10:17:33Z</time>
      </trkpt>
      <trkpt lat="46.05921" lon="4.70749">
        <ele>194</ele>
        <time>2016-09-10T10:17:34Z</time>
      </trkpt>
      <trkpt lat="46.0592" lon="4.70741">
        <ele>194</ele>
        <time>2016-09-10T10:17:35Z</time>
      </trkpt>
      <trkpt lat="46.05919" lon="4.70733">
        <ele>194</ele>
        <time>2016-09-10T10:17:36Z</time>
      </trkpt>
      <trkpt lat="46.05918" lon="4.70726">
        <ele>194</ele>
        <time>2016-09-10T10:17:37Z</time>
      </trkpt>
      <trkpt lat="46.05916" lon="4.70719">
        <ele>194</ele>
        <time>2016-09-10T10:17:38Z</time>
      </trkpt>
      <trkpt lat="46.05914" lon="4.70711">
        <ele>194</ele>
        <time>2016-09-10T10:17:39Z</time>
      </trkpt>
      <trkpt lat="46.05913" lon="4.70704">
        <ele>194</ele>
        <time>2016-09-10T10:17:40Z</time>
      </trkpt>
      <trkpt lat="46.05912" lon="4.70697">
        <ele>194</ele>
        <time>2016-09-10T10:17:41Z</time>
      </trkpt>
      <trkpt lat="46.05912" lon="4.7069">
        <ele>194</ele>
        <time>2016-09-10T10:17:42Z</time>
      </trkpt>
      <trkpt lat="46.05911" lon="4.70682">
        <ele>194</ele>
        <time>2016-09-10T10:17:43Z</time>
      </trkpt>
      <trkpt lat="46.0591" lon="4.70674">
        <ele>194</ele>
        <time>2016-09-10T10:17:44Z</time>
      </trkpt>
      <trkpt lat="46.05909" lon="4.70665">
        <ele>194</ele>
        <time>2016-09-10T10:17:45Z</time>
      </trkpt>
      <trkpt lat="46.05909" lon="4.70657">
        <ele>194</ele>
        <time>2016-09-10T10:17:46Z</time>
      </trkpt>
      <trkpt lat="46.05909" lon="4.70648">
        <ele>194</ele>
        <time>2016-09-10T10:17:47Z</time>
      </trkpt>
      <trkpt lat="46.05909" lon="4.7064">
        <ele>194</ele>
        <time>2016-09-10T10:17:48Z</time>
      </trkpt>
      <trkpt lat="46.0591" lon="4.70631">
        <ele>194</ele>
        <time>2016-09-10T10:17:49Z</time>
      </trkpt>
      <trkpt lat="46.0591" lon="4.70623">
        <ele>194</ele>
        <time>2016-09-10T10:17:50Z</time>
      </trkpt>
      <trkpt lat="46.0591" lon="4.70614">
        <ele>194</ele>
        <time>2016-09-10T10:17:51Z</time>
      </trkpt>
      <trkpt lat="46.05911" lon="4.70606">
        <ele>194</ele>
        <time>2016-09-10T10:17:52Z</time>
      </trkpt>
      <trkpt lat="46.05912" lon="4.70598">
        <ele>194</ele>
        <time>2016-09-10T10:17:53Z</time>
      </trkpt>
      <trkpt lat="46.05913" lon="4.7059">
        <ele>195</ele>
        <time>2016-09-10T10:17:54Z</time>
      </trkpt>
      <trkpt lat="46.05915" lon="4.70583">
        <ele>195</ele>
        <time>2016-09-10T10:17:55Z</time>
      </trkpt>
      <trkpt lat="46.05919" lon="4.70572">
        <ele>195</ele>
        <time>2016-09-10T10:17:57Z</time>
      </trkpt>
      <trkpt lat="46.05921" lon="4.70565">
        <ele>195</ele>
        <time>2016-09-10T10:17:58Z</time>
      </trkpt>
      <trkpt lat="46.05924" lon="4.70558">
        <ele>195</ele>
        <time>2016-09-10T10:17:59Z</time>
      </trkpt>
      <trkpt lat="46.05926" lon="4.70551">
        <ele>195</ele>
        <time>2016-09-10T10:18:00Z</time>
      </trkpt>
      <trkpt lat="46.05929" lon="4.70543">
        <ele>195</ele>
        <time>2016-09-10T10:18:01Z</time>
      </trkpt>
      <trkpt lat="46.05931" lon="4.70536">
        <ele>195</ele>
        <time>2016-09-10T10:18:02Z</time>
      </trkpt>
      <trkpt lat="46.05933" lon="4.70528">
        <ele>195</ele>
        <time>2016-09-10T10:18:03Z</time>
      </trkpt>
      <trkpt lat="46.05934" lon="4.70519">
        <ele>195</ele>
        <time>2016-09-10T10:18:04Z</time>
      </trkpt>
      <trkpt lat="46.05935" lon="4.7051">
        <ele>195</ele>
        <time>2016-09-10T10:18:05Z</time>
      </trkpt>
      <trkpt lat="46.05936" lon="4.70502">
        <ele>195</ele>
        <time>2016-09-10T10:18:06Z</time>
      </trkpt>
      <trkpt lat="46.05935" lon="4.70493">
        <ele>195</ele>
        <time>2016-09-10T10:18:07Z</time>
      </trkpt>
      <trkpt lat="46.05933" lon="4.70485">
        <ele>195</ele>
        <time>2016-09-10T10:18:08Z</time>
      </trkpt>
      <trkpt lat="46.0593" lon="4.70478">
        <ele>195</ele>
        <time>2016-09-10T10:18:09Z</time>
      </trkpt>
      <trkpt lat="46.05927" lon="4.70471">
        <ele>195</ele>
        <time>2016-09-10T10:18:10Z</time>
      </trkpt>
      <trkpt lat="46.05923" lon="4.70465">
        <ele>195</ele>
        <time>2016-09-10T10:18:11Z</time>
      </trkpt>
      <trkpt lat="46.0592" lon="4.70459">
        <ele>195</ele>
        <time>2016-09-10T10:18:12Z</time>
      </trkpt>
      <trkpt lat="46.05917" lon="4.70453">
        <ele>195</ele>
        <time>2016-09-10T10:18:13Z</time>
      </trkpt>
      <trkpt lat="46.05914" lon="4.70446">
        <ele>195</ele>
        <time>2016-09-10T10:18:14Z</time>
      </trkpt>
      <trkpt lat="46.05911" lon="4.7044">
        <ele>195</ele>
        <time>2016-09-10T10:18:15Z</time>
      </trkpt>
      <trkpt lat="46.05908" lon="4.70434">
        <ele>195</ele>
        <time>2016-09-10T10:18:16Z</time>
      </trkpt>
      <trkpt lat="46.05904" lon="4.70428">
        <ele>195</ele>
        <time>2016-09-10T10:18:17Z</time>
      </trkpt>
      <trkpt lat="46.059" lon="4.70422">
        <ele>195</ele>
        <time>2016-09-10T10:18:18Z</time>
      </trkpt>
      <trkpt lat="46.05896" lon="4.70416">
        <ele>196</ele>
        <time>2016-09-10T10:18:19Z</time>
      </trkpt>
      <trkpt lat="46.05892" lon="4.7041">
        <ele>196</ele>
        <time>2016-09-10T10:18:20Z</time>
      </trkpt>
      <trkpt lat="46.05889" lon="4.70404">
        <ele>196</ele>
        <time>2016-09-10T10:18:21Z</time>
      </trkpt>
      <trkpt lat="46.05886" lon="4.70399">
        <ele>196</ele>
        <time>2016-09-10T10:18:22Z</time>
      </trkpt>
      <trkpt lat="46.05883" lon="4.70393">
        <ele>196</ele>
        <time>2016-09-10T10:18:23Z</time>
      </trkpt>
      <trkpt lat="46.05879" lon="4.70386">
        <ele>196</ele>
        <time>2016-09-10T10:18:24Z</time>
      </trkpt>
      <trkpt lat="46.05876" lon="4.70381">
        <ele>196</ele>
        <time>2016-09-10T10:18:25Z</time>
      </trkpt>
      <trkpt lat="46.05873" lon="4.70375">
        <ele>196</ele>
        <time>2016-09-10T10:18:26Z</time>
      </trkpt>
      <trkpt lat="46.05869" lon="4.7037">
        <ele>196</ele>
        <time>2016-09-10T10:18:27Z</time>
      </trkpt>
      <trkpt lat="46.05866" lon="4.70364">
        <ele>196</ele>
        <time>2016-09-10T10:18:28Z</time>
      </trkpt>
      <trkpt lat="46.05861" lon="4.70357">
        <ele>196</ele>
        <time>2016-09-10T10:18:29Z</time>
      </trkpt>
      <trkpt lat="46.05857" lon="4.7035">
        <ele>196</ele>
        <time>2016-09-10T10:18:30Z</time>
      </trkpt>
      <trkpt lat="46.05852" lon="4.70343">
        <ele>196</ele>
        <time>2016-09-10T10:18:31Z</time>
      </trkpt>
      <trkpt lat="46.05848" lon="4.70337">
        <ele>197</ele>
        <time>2016-09-10T10:18:32Z</time>
      </trkpt>
      <trkpt lat="46.05844" lon="4.70331">
        <ele>197</ele>
        <time>2016-09-10T10:18:33Z</time>
      </trkpt>
      <trkpt lat="46.0584" lon="4.70324">
        <ele>197</ele>
        <time>2016-09-10T10:18:34Z</time>
      </trkpt>
      <trkpt lat="46.05835" lon="4.70319">
        <ele>197</ele>
        <time>2016-09-10T10:18:35Z</time>
      </trkpt>
      <trkpt lat="46.0583" lon="4.70313">
        <ele>197</ele>
        <time>2016-09-10T10:18:36Z</time>
      </trkpt>
      <trkpt lat="46.05826" lon="4.70307">
        <ele>197</ele>
        <time>2016-09-10T10:18:37Z</time>
      </trkpt>
      <trkpt lat="46.05823" lon="4.70301">
        <ele>197</ele>
        <time>2016-09-10T10:18:38Z</time>
      </trkpt>
      <trkpt lat="46.05819" lon="4.70296">
        <ele>197</ele>
        <time>2016-09-10T10:18:39Z</time>
      </trkpt>
      <trkpt lat="46.05816" lon="4.70291">
        <ele>197</ele>
        <time>2016-09-10T10:18:40Z</time>
      </trkpt>
      <trkpt lat="46.05812" lon="4.70285">
        <ele>197</ele>
        <time>2016-09-10T10:18:41Z</time>
      </trkpt>
      <trkpt lat="46.05809" lon="4.7028">
        <ele>197</ele>
        <time>2016-09-10T10:18:42Z</time>
      </trkpt>
      <trkpt lat="46.05805" lon="4.70274">
        <ele>197</ele>
        <time>2016-09-10T10:18:43Z</time>
      </trkpt>
      <trkpt lat="46.05801" lon="4.70269">
        <ele>197</ele>
        <time>2016-09-10T10:18:44Z</time>
      </trkpt>
      <trkpt lat="46.05798" lon="4.70263">
        <ele>197</ele>
        <time>2016-09-10T10:18:45Z</time>
      </trkpt>
      <trkpt lat="46.05794" lon="4.70257">
        <ele>197</ele>
        <time>2016-09-10T10:18:46Z</time>
      </trkpt>
      <trkpt lat="46.0579" lon="4.70251">
        <ele>198</ele>
        <time>2016-09-10T10:18:47Z</time>
      </trkpt>
      <trkpt lat="46.05787" lon="4.70246">
        <ele>198</ele>
        <time>2016-09-10T10:18:48Z</time>
      </trkpt>
      <trkpt lat="46.05783" lon="4.7024">
        <ele>198</ele>
        <time>2016-09-10T10:18:49Z</time>
      </trkpt>
      <trkpt lat="46.05779" lon="4.70233">
        <ele>198</ele>
        <time>2016-09-10T10:18:50Z</time>
      </trkpt>
      <trkpt lat="46.05775" lon="4.70227">
        <ele>198</ele>
        <time>2016-09-10T10:18:51Z</time>
      </trkpt>
      <trkpt lat="46.05771" lon="4.7022">
        <ele>198</ele>
        <time>2016-09-10T10:18:52Z</time>
      </trkpt>
      <trkpt lat="46.05767" lon="4.70214">
        <ele>198</ele>
        <time>2016-09-10T10:18:53Z</time>
      </trkpt>
      <trkpt lat="46.05763" lon="4.70208">
        <ele>198</ele>
        <time>2016-09-10T10:18:54Z</time>
      </trkpt>
      <trkpt lat="46.05759" lon="4.70202">
        <ele>198</ele>
        <time>2016-09-10T10:18:55Z</time>
      </trkpt>
      <trkpt lat="46.05755" lon="4.70196">
        <ele>198</ele>
        <time>2016-09-10T10:18:56Z</time>
      </trkpt>
      <trkpt lat="46.05752" lon="4.70191">
        <ele>198</ele>
        <time>2016-09-10T10:18:57Z</time>
      </trkpt>
      <trkpt lat="46.05749" lon="4.70185">
        <ele>198</ele>
        <time>2016-09-10T10:18:58Z</time>
      </trkpt>
      <trkpt lat="46.05746" lon="4.7018">
        <ele>198</ele>
        <time>2016-09-10T10:18:59Z</time>
      </trkpt>
      <trkpt lat="46.05743" lon="4.70173">
        <ele>198</ele>
        <time>2016-09-10T10:19:00Z</time>
      </trkpt>
      <trkpt lat="46.0574" lon="4.70167">
        <ele>198</ele>
        <time>2016-09-10T10:19:01Z</time>
      </trkpt>
      <trkpt lat="46.05736" lon="4.7016">
        <ele>199</ele>
        <time>2016-09-10T10:19:02Z</time>
      </trkpt>
      <trkpt lat="46.05733" lon="4.70154">
        <ele>198</ele>
        <time>2016-09-10T10:19:03Z</time>
      </trkpt>
      <trkpt lat="46.0573" lon="4.70147">
        <ele>198</ele>
        <time>2016-09-10T10:19:04Z</time>
      </trkpt>
      <trkpt lat="46.05726" lon="4.70139">
        <ele>198</ele>
        <time>2016-09-10T10:19:05Z</time>
      </trkpt>
      <trkpt lat="46.05722" lon="4.70132">
        <ele>198</ele>
        <time>2016-09-10T10:19:06Z</time>
      </trkpt>
      <trkpt lat="46.05719" lon="4.70125">
        <ele>198</ele>
        <time>2016-09-10T10:19:07Z</time>
      </trkpt>
      <trkpt lat="46.05716" lon="4.70117">
        <ele>198</ele>
        <time>2016-09-10T10:19:08Z</time>
      </trkpt>
      <trkpt lat="46.05713" lon="4.7011">
        <ele>198</ele>
        <time>2016-09-10T10:19:09Z</time>
      </trkpt>
      <trkpt lat="46.05709" lon="4.70104">
        <ele>198</ele>
        <time>2016-09-10T10:19:10Z</time>
      </trkpt>
      <trkpt lat="46.05706" lon="4.70097">
        <ele>198</ele>
        <time>2016-09-10T10:19:11Z</time>
      </trkpt>
      <trkpt lat="46.05702" lon="4.70091">
        <ele>198</ele>
        <time>2016-09-10T10:19:12Z</time>
      </trkpt>
      <trkpt lat="46.057" lon="4.70086">
        <ele>198</ele>
        <time>2016-09-10T10:19:13Z</time>
      </trkpt>
      <trkpt lat="46.05697" lon="4.7008">
        <ele>199</ele>
        <time>2016-09-10T10:19:14Z</time>
      </trkpt>
      <trkpt lat="46.05694" lon="4.70074">
        <ele>199</ele>
        <time>2016-09-10T10:19:15Z</time>
      </trkpt>
      <trkpt lat="46.05691" lon="4.70068">
        <ele>199</ele>
        <time>2016-09-10T10:19:16Z</time>
      </trkpt>
      <trkpt lat="46.05688" lon="4.70062">
        <ele>199</ele>
        <time>2016-09-10T10:19:17Z</time>
      </trkpt>
      <trkpt lat="46.05685" lon="4.70056">
        <ele>199</ele>
        <time>2016-09-10T10:19:18Z</time>
      </trkpt>
      <trkpt lat="46.05682" lon="4.7005">
        <ele>199</ele>
        <time>2016-09-10T10:19:19Z</time>
      </trkpt>
      <trkpt lat="46.05679" lon="4.70045">
        <ele>199</ele>
        <time>2016-09-10T10:19:20Z</time>
      </trkpt>
      <trkpt lat="46.05676" lon="4.70039">
        <ele>199</ele>
        <time>2016-09-10T10:19:21Z</time>
      </trkpt>
      <trkpt lat="46.05673" lon="4.70033">
        <ele>199</ele>
        <time>2016-09-10T10:19:22Z</time>
      </trkpt>
      <trkpt lat="46.0567" lon="4.70027">
        <ele>199</ele>
        <time>2016-09-10T10:19:23Z</time>
      </trkpt>
      <trkpt lat="46.05667" lon="4.70021">
        <ele>200</ele>
        <time>2016-09-10T10:19:24Z</time>
      </trkpt>
      <trkpt lat="46.05665" lon="4.70014">
        <ele>200</ele>
        <time>2016-09-10T10:19:25Z</time>
      </trkpt>
      <trkpt lat="46.05661" lon="4.70008">
        <ele>200</ele>
        <time>2016-09-10T10:19:26Z</time>
      </trkpt>
      <trkpt lat="46.05659" lon="4.70002">
        <ele>200</ele>
        <time>2016-09-10T10:19:27Z</time>
      </trkpt>
      <trkpt lat="46.05656" lon="4.69997">
        <ele>200</ele>
        <time>2016-09-10T10:19:28Z</time>
      </trkpt>
      <trkpt lat="46.05651" lon="4.69987">
        <ele>200</ele>
        <time>2016-09-10T10:19:30Z</time>
      </trkpt>
      <trkpt lat="46.05648" lon="4.69981">
        <ele>200</ele>
        <time>2016-09-10T10:19:31Z</time>
      </trkpt>
      <trkpt lat="46.05645" lon="4.69975">
        <ele>200</ele>
        <time>2016-09-10T10:19:32Z</time>
      </trkpt>
      <trkpt lat="46.05642" lon="4.69969">
        <ele>200</ele>
        <time>2016-09-10T10:19:33Z</time>
      </trkpt>
      <trkpt lat="46.05639" lon="4.69963">
        <ele>200</ele>
        <time>2016-09-10T10:19:34Z</time>
      </trkpt>
      <trkpt lat="46.05635" lon="4.69956">
        <ele>200</ele>
        <time>2016-09-10T10:19:35Z</time>
      </trkpt>
      <trkpt lat="46.05631" lon="4.6995">
        <ele>200</ele>
        <time>2016-09-10T10:19:36Z</time>
      </trkpt>
      <trkpt lat="46.05628" lon="4.69944">
        <ele>200</ele>
        <time>2016-09-10T10:19:37Z</time>
      </trkpt>
      <trkpt lat="46.05625" lon="4.69937">
        <ele>200</ele>
        <time>2016-09-10T10:19:38Z</time>
      </trkpt>
      <trkpt lat="46.05621" lon="4.69931">
        <ele>200</ele>
        <time>2016-09-10T10:19:39Z</time>
      </trkpt>
      <trkpt lat="46.05618" lon="4.69926">
        <ele>200</ele>
        <time>2016-09-10T10:19:40Z</time>
      </trkpt>
      <trkpt lat="46.05615" lon="4.6992">
        <ele>200</ele>
        <time>2016-09-10T10:19:41Z</time>
      </trkpt>
      <trkpt lat="46.05612" lon="4.69914">
        <ele>200</ele>
        <time>2016-09-10T10:19:42Z</time>
      </trkpt>
      <trkpt lat="46.05609" lon="4.69908">
        <ele>200</ele>
        <time>2016-09-10T10:19:43Z</time>
      </trkpt>
      <trkpt lat="46.05605" lon="4.69901">
        <ele>200</ele>
        <time>2016-09-10T10:19:44Z</time>
      </trkpt>
      <trkpt lat="46.05601" lon="4.69895">
        <ele>200</ele>
        <time>2016-09-10T10:19:45Z</time>
      </trkpt>
      <trkpt lat="46.05597" lon="4.69889">
        <ele>200</ele>
        <time>2016-09-10T10:19:46Z</time>
      </trkpt>
      <trkpt lat="46.05593" lon="4.69883">
        <ele>201</ele>
        <time>2016-09-10T10:19:47Z</time>
      </trkpt>
      <trkpt lat="46.05589" lon="4.69876">
        <ele>201</ele>
        <time>2016-09-10T10:19:48Z</time>
      </trkpt>
      <trkpt lat="46.05585" lon="4.69869">
        <ele>201</ele>
        <time>2016-09-10T10:19:49Z</time>
      </trkpt>
      <trkpt lat="46.05581" lon="4.69862">
        <ele>200</ele>
        <time>2016-09-10T10:19:50Z</time>
      </trkpt>
      <trkpt lat="46.05576" lon="4.69857">
        <ele>200</ele>
        <time>2016-09-10T10:19:51Z</time>
      </trkpt>
      <trkpt lat="46.05572" lon="4.69854">
        <ele>200</ele>
        <time>2016-09-10T10:19:52Z</time>
      </trkpt>
      <trkpt lat="46.05566" lon="4.69852">
        <ele>200</ele>
        <time>2016-09-10T10:19:53Z</time>
      </trkpt>
      <trkpt lat="46.05561" lon="4.69853">
        <ele>200</ele>
        <time>2016-09-10T10:19:54Z</time>
      </trkpt>
      <trkpt lat="46.05556" lon="4.69857">
        <ele>200</ele>
        <time>2016-09-10T10:19:55Z</time>
      </trkpt>
      <trkpt lat="46.0555" lon="4.69861">
        <ele>200</ele>
        <time>2016-09-10T10:19:56Z</time>
      </trkpt>
      <trkpt lat="46.05545" lon="4.69863">
        <ele>200</ele>
        <time>2016-09-10T10:19:57Z</time>
      </trkpt>
      <trkpt lat="46.0554" lon="4.69867">
        <ele>200</ele>
        <time>2016-09-10T10:19:58Z</time>
      </trkpt>
      <trkpt lat="46.05534" lon="4.69868">
        <ele>200</ele>
        <time>2016-09-10T10:19:59Z</time>
      </trkpt>
      <trkpt lat="46.05529" lon="4.69871">
        <ele>200</ele>
        <time>2016-09-10T10:20:00Z</time>
      </trkpt>
      <trkpt lat="46.05524" lon="4.69872">
        <ele>200</ele>
        <time>2016-09-10T10:20:01Z</time>
      </trkpt>
      <trkpt lat="46.05519" lon="4.69875">
        <ele>199</ele>
        <time>2016-09-10T10:20:02Z</time>
      </trkpt>
      <trkpt lat="46.05514" lon="4.69877">
        <ele>199</ele>
        <time>2016-09-10T10:20:03Z</time>
      </trkpt>
      <trkpt lat="46.05509" lon="4.69878">
        <ele>199</ele>
        <time>2016-09-10T10:20:04Z</time>
      </trkpt>
      <trkpt lat="46.05504" lon="4.6988">
        <ele>199</ele>
        <time>2016-09-10T10:20:05Z</time>
      </trkpt>
      <trkpt lat="46.05499" lon="4.69882">
        <ele>199</ele>
        <time>2016-09-10T10:20:06Z</time>
      </trkpt>
      <trkpt lat="46.05494" lon="4.69883">
        <ele>199</ele>
        <time>2016-09-10T10:20:07Z</time>
      </trkpt>
      <trkpt lat="46.05488" lon="4.69885">
        <ele>199</ele>
        <time>2016-09-10T10:20:08Z</time>
      </trkpt>
      <trkpt lat="46.05482" lon="4.69887">
        <ele>199</ele>
        <time>2016-09-10T10:20:09Z</time>
      </trkpt>
      <trkpt lat="46.05476" lon="4.6989">
        <ele>199</ele>
        <time>2016-09-10T10:20:10Z</time>
      </trkpt>
      <trkpt lat="46.05469" lon="4.69893">
        <ele>199</ele>
        <time>2016-09-10T10:20:11Z</time>
      </trkpt>
      <trkpt lat="46.05463" lon="4.69895">
        <ele>199</ele>
        <time>2016-09-10T10:20:12Z</time>
      </trkpt>
      <trkpt lat="46.05457" lon="4.69897">
        <ele>199</ele>
        <time>2016-09-10T10:20:13Z</time>
      </trkpt>
      <trkpt lat="46.0545" lon="4.69899">
        <ele>199</ele>
        <time>2016-09-10T10:20:14Z</time>
      </trkpt>
      <trkpt lat="46.05444" lon="4.69901">
        <ele>199</ele>
        <time>2016-09-10T10:20:15Z</time>
      </trkpt>
      <trkpt lat="46.05437" lon="4.69902">
        <ele>199</ele>
        <time>2016-09-10T10:20:16Z</time>
      </trkpt>
      <trkpt lat="46.05431" lon="4.69904">
        <ele>199</ele>
        <time>2016-09-10T10:20:17Z</time>
      </trkpt>
      <trkpt lat="46.05424" lon="4.69905">
        <ele>199</ele>
        <time>2016-09-10T10:20:18Z</time>
      </trkpt>
      <trkpt lat="46.05417" lon="4.69907">
        <ele>199</ele>
        <time>2016-09-10T10:20:19Z</time>
      </trkpt>
      <trkpt lat="46.05411" lon="4.69908">
        <ele>199</ele>
        <time>2016-09-10T10:20:20Z</time>
      </trkpt>
      <trkpt lat="46.05405" lon="4.69908">
        <ele>199</ele>
        <time>2016-09-10T10:20:21Z</time>
      </trkpt>
      <trkpt lat="46.05399" lon="4.69906">
        <ele>199</ele>
        <time>2016-09-10T10:20:22Z</time>
      </trkpt>
      <trkpt lat="46.05394" lon="4.69903">
        <ele>199</ele>
        <time>2016-09-10T10:20:23Z</time>
      </trkpt>
      <trkpt lat="46.05388" lon="4.69901">
        <ele>199</ele>
        <time>2016-09-10T10:20:24Z</time>
      </trkpt>
      <trkpt lat="46.05383" lon="4.69899">
        <ele>199</ele>
        <time>2016-09-10T10:20:25Z</time>
      </trkpt>
      <trkpt lat="46.05377" lon="4.69897">
        <ele>199</ele>
        <time>2016-09-10T10:20:26Z</time>
      </trkpt>
      <trkpt lat="46.05372" lon="4.69894">
        <ele>199</ele>
        <time>2016-09-10T10:20:27Z</time>
      </trkpt>
      <trkpt lat="46.05365" lon="4.69892">
        <ele>199</ele>
        <time>2016-09-10T10:20:28Z</time>
      </trkpt>
      <trkpt lat="46.05359" lon="4.6989">
        <ele>199</ele>
        <time>2016-09-10T10:20:29Z</time>
      </trkpt>
      <trkpt lat="46.05352" lon="4.69888">
        <ele>199</ele>
        <time>2016-09-10T10:20:30Z</time>
      </trkpt>
      <trkpt lat="46.05346" lon="4.69886">
        <ele>199</ele>
        <time>2016-09-10T10:20:31Z</time>
      </trkpt>
      <trkpt lat="46.05339" lon="4.69885">
        <ele>199</ele>
        <time>2016-09-10T10:20:32Z</time>
      </trkpt>
      <trkpt lat="46.05332" lon="4.69883">
        <ele>199</ele>
        <time>2016-09-10T10:20:33Z</time>
      </trkpt>
      <trkpt lat="46.05325" lon="4.69881">
        <ele>199</ele>
        <time>2016-09-10T10:20:34Z</time>
      </trkpt>
      <trkpt lat="46.05319" lon="4.6988">
        <ele>199</ele>
        <time>2016-09-10T10:20:35Z</time>
      </trkpt>
      <trkpt lat="46.05313" lon="4.69879">
        <ele>199</ele>
        <time>2016-09-10T10:20:36Z</time>
      </trkpt>
      <trkpt lat="46.05307" lon="4.69878">
        <ele>199</ele>
        <time>2016-09-10T10:20:37Z</time>
      </trkpt>
      <trkpt lat="46.05301" lon="4.69877">
        <ele>199</ele>
        <time>2016-09-10T10:20:38Z</time>
      </trkpt>
      <trkpt lat="46.05295" lon="4.69876">
        <ele>199</ele>
        <time>2016-09-10T10:20:39Z</time>
      </trkpt>
      <trkpt lat="46.05289" lon="4.69875">
        <ele>199</ele>
        <time>2016-09-10T10:20:40Z</time>
      </trkpt>
      <trkpt lat="46.05283" lon="4.69873">
        <ele>199</ele>
        <time>2016-09-10T10:20:41Z</time>
      </trkpt>
      <trkpt lat="46.05277" lon="4.69872">
        <ele>199</ele>
        <time>2016-09-10T10:20:42Z</time>
      </trkpt>
      <trkpt lat="46.05272" lon="4.69871">
        <ele>199</ele>
        <time>2016-09-10T10:20:43Z</time>
      </trkpt>
      <trkpt lat="46.05265" lon="4.69869">
        <ele>199</ele>
        <time>2016-09-10T10:20:44Z</time>
      </trkpt>
      <trkpt lat="46.05259" lon="4.69866">
        <ele>199</ele>
        <time>2016-09-10T10:20:45Z</time>
      </trkpt>
      <trkpt lat="46.05253" lon="4.69864">
        <ele>199</ele>
        <time>2016-09-10T10:20:46Z</time>
      </trkpt>
      <trkpt lat="46.05247" lon="4.69862">
        <ele>201</ele>
        <time>2016-09-10T10:20:47Z</time>
      </trkpt>
      <trkpt lat="46.0524" lon="4.6986">
        <ele>201</ele>
        <time>2016-09-10T10:20:48Z</time>
      </trkpt>
      <trkpt lat="46.05234" lon="4.69858">
        <ele>201</ele>
        <time>2016-09-10T10:20:49Z</time>
      </trkpt>
      <trkpt lat="46.05228" lon="4.69857">
        <ele>201</ele>
        <time>2016-09-10T10:20:50Z</time>
      </trkpt>
      <trkpt lat="46.05222" lon="4.69855">
        <ele>201</ele>
        <time>2016-09-10T10:20:51Z</time>
      </trkpt>
      <trkpt lat="46.05216" lon="4.69853">
        <ele>201</ele>
        <time>2016-09-10T10:20:52Z</time>
      </trkpt>
      <trkpt lat="46.05211" lon="4.69851">
        <ele>201</ele>
        <time>2016-09-10T10:20:53Z</time>
      </trkpt>
      <trkpt lat="46.05207" lon="4.69849">
        <ele>201</ele>
        <time>2016-09-10T10:20:54Z</time>
      </trkpt>
      <trkpt lat="46.05203" lon="4.69847">
        <ele>201</ele>
        <time>2016-09-10T10:20:55Z</time>
      </trkpt>
      <trkpt lat="46.05198" lon="4.69846">
        <ele>201</ele>
        <time>2016-09-10T10:20:56Z</time>
      </trkpt>
      <trkpt lat="46.05193" lon="4.69844">
        <ele>202</ele>
        <time>2016-09-10T10:20:57Z</time>
      </trkpt>
      <trkpt lat="46.05189" lon="4.69842">
        <ele>202</ele>
        <time>2016-09-10T10:20:58Z</time>
      </trkpt>
      <trkpt lat="46.05184" lon="4.6984">
        <ele>202</ele>
        <time>2016-09-10T10:20:59Z</time>
      </trkpt>
      <trkpt lat="46.0518" lon="4.69838">
        <ele>202</ele>
        <time>2016-09-10T10:21:00Z</time>
      </trkpt>
      <trkpt lat="46.05175" lon="4.69837">
        <ele>202</ele>
        <time>2016-09-10T10:21:01Z</time>
      </trkpt>
      <trkpt lat="46.0517" lon="4.69835">
        <ele>203</ele>
        <time>2016-09-10T10:21:02Z</time>
      </trkpt>
      <trkpt lat="46.05165" lon="4.69833">
        <ele>203</ele>
        <time>2016-09-10T10:21:03Z</time>
      </trkpt>
      <trkpt lat="46.0516" lon="4.69832">
        <ele>203</ele>
        <time>2016-09-10T10:21:04Z</time>
      </trkpt>
      <trkpt lat="46.05155" lon="4.69831">
        <ele>203</ele>
        <time>2016-09-10T10:21:05Z</time>
      </trkpt>
      <trkpt lat="46.0515" lon="4.69829">
        <ele>204</ele>
        <time>2016-09-10T10:21:06Z</time>
      </trkpt>
      <trkpt lat="46.05146" lon="4.69828">
        <ele>204</ele>
        <time>2016-09-10T10:21:07Z</time>
      </trkpt>
      <trkpt lat="46.05138" lon="4.69825">
        <ele>204</ele>
        <time>2016-09-10T10:21:09Z</time>
      </trkpt>
      <trkpt lat="46.05135" lon="4.69825">
        <ele>204</ele>
        <time>2016-09-10T10:21:10Z</time>
      </trkpt>
      <trkpt lat="46.05128" lon="4.69829">
        <ele>204</ele>
        <time>2016-09-10T10:21:12Z</time>
      </trkpt>
      <trkpt lat="46.05126" lon="4.69834">
        <ele>204</ele>
        <time>2016-09-10T10:21:13Z</time>
      </trkpt>
      <trkpt lat="46.05124" lon="4.69839">
        <ele>204</ele>
        <time>2016-09-10T10:21:14Z</time>
      </trkpt>
      <trkpt lat="46.05123" lon="4.69846">
        <ele>204</ele>
        <time>2016-09-10T10:21:15Z</time>
      </trkpt>
      <trkpt lat="46.05122" lon="4.69854">
        <ele>204</ele>
        <time>2016-09-10T10:21:16Z</time>
      </trkpt>
      <trkpt lat="46.05121" lon="4.69862">
        <ele>204</ele>
        <time>2016-09-10T10:21:17Z</time>
      </trkpt>
      <trkpt lat="46.0512" lon="4.69869">
        <ele>204</ele>
        <time>2016-09-10T10:21:18Z</time>
      </trkpt>
      <trkpt lat="46.05119" lon="4.69877">
        <ele>204</ele>
        <time>2016-09-10T10:21:19Z</time>
      </trkpt>
      <trkpt lat="46.05118" lon="4.69885">
        <ele>204</ele>
        <time>2016-09-10T10:21:20Z</time>
      </trkpt>
      <trkpt lat="46.05116" lon="4.69893">
        <ele>204</ele>
        <time>2016-09-10T10:21:21Z</time>
      </trkpt>
      <trkpt lat="46.05115" lon="4.69901">
        <ele>204</ele>
        <time>2016-09-10T10:21:22Z</time>
      </trkpt>
      <trkpt lat="46.05114" lon="4.69909">
        <ele>204</ele>
        <time>2016-09-10T10:21:23Z</time>
      </trkpt>
      <trkpt lat="46.05112" lon="4.69917">
        <ele>203</ele>
        <time>2016-09-10T10:21:24Z</time>
      </trkpt>
      <trkpt lat="46.05111" lon="4.69925">
        <ele>203</ele>
        <time>2016-09-10T10:21:25Z</time>
      </trkpt>
      <trkpt lat="46.0511" lon="4.69933">
        <ele>203</ele>
        <time>2016-09-10T10:21:26Z</time>
      </trkpt>
      <trkpt lat="46.05108" lon="4.6994">
        <ele>203</ele>
        <time>2016-09-10T10:21:27Z</time>
      </trkpt>
      <trkpt lat="46.05108" lon="4.69948">
        <ele>203</ele>
        <time>2016-09-10T10:21:28Z</time>
      </trkpt>
      <trkpt lat="46.05107" lon="4.69955">
        <ele>203</ele>
        <time>2016-09-10T10:21:29Z</time>
      </trkpt>
      <trkpt lat="46.05106" lon="4.69962">
        <ele>203</ele>
        <time>2016-09-10T10:21:30Z</time>
      </trkpt>
      <trkpt lat="46.05106" lon="4.69969">
        <ele>203</ele>
        <time>2016-09-10T10:21:31Z</time>
      </trkpt>
      <trkpt lat="46.05104" lon="4.69975">
        <ele>203</ele>
        <time>2016-09-10T10:21:32Z</time>
      </trkpt>
      <trkpt lat="46.05103" lon="4.69982">
        <ele>203</ele>
        <time>2016-09-10T10:21:33Z</time>
      </trkpt>
      <trkpt lat="46.05102" lon="4.69989">
        <ele>204</ele>
        <time>2016-09-10T10:21:34Z</time>
      </trkpt>
      <trkpt lat="46.051" lon="4.69995">
        <ele>204</ele>
        <time>2016-09-10T10:21:35Z</time>
      </trkpt>
      <trkpt lat="46.05098" lon="4.70002">
        <ele>204</ele>
        <time>2016-09-10T10:21:36Z</time>
      </trkpt>
      <trkpt lat="46.05096" lon="4.70009">
        <ele>204</ele>
        <time>2016-09-10T10:21:37Z</time>
      </trkpt>
      <trkpt lat="46.05095" lon="4.70015">
        <ele>203</ele>
        <time>2016-09-10T10:21:38Z</time>
      </trkpt>
      <trkpt lat="46.05092" lon="4.70021">
        <ele>203</ele>
        <time>2016-09-10T10:21:39Z</time>
      </trkpt>
      <trkpt lat="46.05086" lon="4.7003">
        <ele>203</ele>
        <time>2016-09-10T10:21:41Z</time>
      </trkpt>
      <trkpt lat="46.05083" lon="4.70034">
        <ele>204</ele>
        <time>2016-09-10T10:21:42Z</time>
      </trkpt>
      <trkpt lat="46.05074" lon="4.70036">
        <ele>204</ele>
        <time>2016-09-10T10:21:44Z</time>
      </trkpt>
      <trkpt lat="46.0507" lon="4.70036">
        <ele>204</ele>
        <time>2016-09-10T10:21:45Z</time>
      </trkpt>
      <trkpt lat="46.05061" lon="4.70033">
        <ele>204</ele>
        <time>2016-09-10T10:21:47Z</time>
      </trkpt>
      <trkpt lat="46.05057" lon="4.70031">
        <ele>204</ele>
        <time>2016-09-10T10:21:48Z</time>
      </trkpt>
      <trkpt lat="46.0505" lon="4.70026">
        <ele>204</ele>
        <time>2016-09-10T10:21:50Z</time>
      </trkpt>
      <trkpt lat="46.05046" lon="4.70023">
        <ele>204</ele>
        <time>2016-09-10T10:21:51Z</time>
      </trkpt>
      <trkpt lat="46.05039" lon="4.70016">
        <ele>204</ele>
        <time>2016-09-10T10:21:53Z</time>
      </trkpt>
      <trkpt lat="46.05036" lon="4.70013">
        <ele>204</ele>
        <time>2016-09-10T10:21:54Z</time>
      </trkpt>
      <trkpt lat="46.05032" lon="4.70009">
        <ele>204</ele>
        <time>2016-09-10T10:21:55Z</time>
      </trkpt>
      <trkpt lat="46.05028" lon="4.70005">
        <ele>204</ele>
        <time>2016-09-10T10:21:56Z</time>
      </trkpt>
      <trkpt lat="46.05024" lon="4.70001">
        <ele>204</ele>
        <time>2016-09-10T10:21:57Z</time>
      </trkpt>
      <trkpt lat="46.0502" lon="4.69996">
        <ele>205</ele>
        <time>2016-09-10T10:21:58Z</time>
      </trkpt>
      <trkpt lat="46.05016" lon="4.6999">
        <ele>205</ele>
        <time>2016-09-10T10:21:59Z</time>
      </trkpt>
      <trkpt lat="46.05012" lon="4.69984">
        <ele>205</ele>
        <time>2016-09-10T10:22:00Z</time>
      </trkpt>
      <trkpt lat="46.05008" lon="4.69977">
        <ele>205</ele>
        <time>2016-09-10T10:22:01Z</time>
      </trkpt>
      <trkpt lat="46.05004" lon="4.69971">
        <ele>205</ele>
        <time>2016-09-10T10:22:02Z</time>
      </trkpt>
      <trkpt lat="46.05" lon="4.69965">
        <ele>205</ele>
        <time>2016-09-10T10:22:03Z</time>
      </trkpt>
      <trkpt lat="46.04996" lon="4.69958">
        <ele>206</ele>
        <time>2016-09-10T10:22:04Z</time>
      </trkpt>
      <trkpt lat="46.04993" lon="4.69952">
        <ele>206</ele>
        <time>2016-09-10T10:22:05Z</time>
      </trkpt>
      <trkpt lat="46.04988" lon="4.69946">
        <ele>206</ele>
        <time>2016-09-10T10:22:06Z</time>
      </trkpt>
      <trkpt lat="46.04984" lon="4.6994">
        <ele>206</ele>
        <time>2016-09-10T10:22:07Z</time>
      </trkpt>
      <trkpt lat="46.0498" lon="4.69935">
        <ele>206</ele>
        <time>2016-09-10T10:22:08Z</time>
      </trkpt>
      <trkpt lat="46.04977" lon="4.6993">
        <ele>206</ele>
        <time>2016-09-10T10:22:09Z</time>
      </trkpt>
      <trkpt lat="46.04974" lon="4.69924">
        <ele>206</ele>
        <time>2016-09-10T10:22:10Z</time>
      </trkpt>
      <trkpt lat="46.04971" lon="4.6992">
        <ele>206</ele>
        <time>2016-09-10T10:22:11Z</time>
      </trkpt>
      <trkpt lat="46.04968" lon="4.69915">
        <ele>206</ele>
        <time>2016-09-10T10:22:12Z</time>
      </trkpt>
      <trkpt lat="46.04961" lon="4.69906">
        <ele>206</ele>
        <time>2016-09-10T10:22:14Z</time>
      </trkpt>
      <trkpt lat="46.04958" lon="4.69902">
        <ele>207</ele>
        <time>2016-09-10T10:22:15Z</time>
      </trkpt>
      <trkpt lat="46.04953" lon="4.69898">
        <ele>207</ele>
        <time>2016-09-10T10:22:16Z</time>
      </trkpt>
      <trkpt lat="46.0495" lon="4.69892">
        <ele>207</ele>
        <time>2016-09-10T10:22:17Z</time>
      </trkpt>
      <trkpt lat="46.04946" lon="4.69887">
        <ele>207</ele>
        <time>2016-09-10T10:22:18Z</time>
      </trkpt>
      <trkpt lat="46.04942" lon="4.69883">
        <ele>207</ele>
        <time>2016-09-10T10:22:19Z</time>
      </trkpt>
      <trkpt lat="46.04937" lon="4.69878">
        <ele>207</ele>
        <time>2016-09-10T10:22:20Z</time>
      </trkpt>
      <trkpt lat="46.04932" lon="4.69874">
        <ele>207</ele>
        <time>2016-09-10T10:22:21Z</time>
      </trkpt>
      <trkpt lat="46.04927" lon="4.69872">
        <ele>207</ele>
        <time>2016-09-10T10:22:22Z</time>
      </trkpt>
      <trkpt lat="46.04922" lon="4.69869">
        <ele>207</ele>
        <time>2016-09-10T10:22:23Z</time>
      </trkpt>
      <trkpt lat="46.04918" lon="4.69867">
        <ele>207</ele>
        <time>2016-09-10T10:22:24Z</time>
      </trkpt>
      <trkpt lat="46.04913" lon="4.69864">
        <ele>206</ele>
        <time>2016-09-10T10:22:25Z</time>
      </trkpt>
      <trkpt lat="46.04908" lon="4.69861">
        <ele>206</ele>
        <time>2016-09-10T10:22:26Z</time>
      </trkpt>
      <trkpt lat="46.04903" lon="4.69858">
        <ele>206</ele>
        <time>2016-09-10T10:22:27Z</time>
      </trkpt>
      <trkpt lat="46.04899" lon="4.69855">
        <ele>206</ele>
        <time>2016-09-10T10:22:28Z</time>
      </trkpt>
      <trkpt lat="46.04895" lon="4.69851">
        <ele>206</ele>
        <time>2016-09-10T10:22:29Z</time>
      </trkpt>
      <trkpt lat="46.04891" lon="4.69848">
        <ele>206</ele>
        <time>2016-09-10T10:22:30Z</time>
      </trkpt>
      <trkpt lat="46.04885" lon="4.69847">
        <ele>206</ele>
        <time>2016-09-10T10:22:31Z</time>
      </trkpt>
      <trkpt lat="46.0488" lon="4.69845">
        <ele>206</ele>
        <time>2016-09-10T10:22:32Z</time>
      </trkpt>
      <trkpt lat="46.04876" lon="4.69843">
        <ele>206</ele>
        <time>2016-09-10T10:22:33Z</time>
      </trkpt>
      <trkpt lat="46.04872" lon="4.69841">
        <ele>206</ele>
        <time>2016-09-10T10:22:34Z</time>
      </trkpt>
      <trkpt lat="46.04868" lon="4.69839">
        <ele>206</ele>
        <time>2016-09-10T10:22:35Z</time>
      </trkpt>
      <trkpt lat="46.04859" lon="4.69837">
        <ele>206</ele>
        <time>2016-09-10T10:22:37Z</time>
      </trkpt>
      <trkpt lat="46.04856" lon="4.69835">
        <ele>206</ele>
        <time>2016-09-10T10:22:38Z</time>
      </trkpt>
      <trkpt lat="46.04849" lon="4.69832">
        <ele>207</ele>
        <time>2016-09-10T10:22:40Z</time>
      </trkpt>
      <trkpt lat="46.04845" lon="4.69829">
        <ele>207</ele>
        <time>2016-09-10T10:22:41Z</time>
      </trkpt>
      <trkpt lat="46.04837" lon="4.69825">
        <ele>207</ele>
        <time>2016-09-10T10:22:43Z</time>
      </trkpt>
      <trkpt lat="46.04833" lon="4.69824">
        <ele>207</ele>
        <time>2016-09-10T10:22:44Z</time>
      </trkpt>
      <trkpt lat="46.04826" lon="4.6982">
        <ele>207</ele>
        <time>2016-09-10T10:22:46Z</time>
      </trkpt>
      <trkpt lat="46.04822" lon="4.69818">
        <ele>207</ele>
        <time>2016-09-10T10:22:47Z</time>
      </trkpt>
      <trkpt lat="46.04815" lon="4.69815">
        <ele>207</ele>
        <time>2016-09-10T10:22:49Z</time>
      </trkpt>
      <trkpt lat="46.04811" lon="4.69814">
        <ele>206</ele>
        <time>2016-09-10T10:22:50Z</time>
      </trkpt>
      <trkpt lat="46.04805" lon="4.69819">
        <ele>206</ele>
        <time>2016-09-10T10:22:52Z</time>
      </trkpt>
      <trkpt lat="46.04802" lon="4.69823">
        <ele>206</ele>
        <time>2016-09-10T10:22:53Z</time>
      </trkpt>
      <trkpt lat="46.04799" lon="4.69828">
        <ele>206</ele>
        <time>2016-09-10T10:22:54Z</time>
      </trkpt>
      <trkpt lat="46.04794" lon="4.69832">
        <ele>206</ele>
        <time>2016-09-10T10:22:55Z</time>
      </trkpt>
      <trkpt lat="46.0479" lon="4.69836">
        <ele>205</ele>
        <time>2016-09-10T10:22:56Z</time>
      </trkpt>
      <trkpt lat="46.04785" lon="4.69838">
        <ele>205</ele>
        <time>2016-09-10T10:22:57Z</time>
      </trkpt>
      <trkpt lat="46.0478" lon="4.69841">
        <ele>205</ele>
        <time>2016-09-10T10:22:58Z</time>
      </trkpt>
      <trkpt lat="46.04773" lon="4.69842">
        <ele>205</ele>
        <time>2016-09-10T10:22:59Z</time>
      </trkpt>
      <trkpt lat="46.04767" lon="4.69842">
        <ele>205</ele>
        <time>2016-09-10T10:23:00Z</time>
      </trkpt>
      <trkpt lat="46.0476" lon="4.69843">
        <ele>205</ele>
        <time>2016-09-10T10:23:01Z</time>
      </trkpt>
      <trkpt lat="46.04753" lon="4.69842">
        <ele>205</ele>
        <time>2016-09-10T10:23:02Z</time>
      </trkpt>
      <trkpt lat="46.04748" lon="4.69843">
        <ele>204</ele>
        <time>2016-09-10T10:23:03Z</time>
      </trkpt>
      <trkpt lat="46.04741" lon="4.69845">
        <ele>204</ele>
        <time>2016-09-10T10:23:04Z</time>
      </trkpt>
      <trkpt lat="46.04734" lon="4.69846">
        <ele>203</ele>
        <time>2016-09-10T10:23:05Z</time>
      </trkpt>
      <trkpt lat="46.04728" lon="4.69845">
        <ele>203</ele>
        <time>2016-09-10T10:23:06Z</time>
      </trkpt>
      <trkpt lat="46.04722" lon="4.69845">
        <ele>203</ele>
        <time>2016-09-10T10:23:07Z</time>
      </trkpt>
      <trkpt lat="46.04717" lon="4.69846">
        <ele>203</ele>
        <time>2016-09-10T10:23:08Z</time>
      </trkpt>
      <trkpt lat="46.04711" lon="4.69846">
        <ele>202</ele>
        <time>2016-09-10T10:23:09Z</time>
      </trkpt>
      <trkpt lat="46.04705" lon="4.69845">
        <ele>202</ele>
        <time>2016-09-10T10:23:10Z</time>
      </trkpt>
      <trkpt lat="46.04699" lon="4.69843">
        <ele>202</ele>
        <time>2016-09-10T10:23:11Z</time>
      </trkpt>
      <trkpt lat="46.04693" lon="4.69842">
        <ele>202</ele>
        <time>2016-09-10T10:23:12Z</time>
      </trkpt>
      <trkpt lat="46.04687" lon="4.69841">
        <ele>202</ele>
        <time>2016-09-10T10:23:13Z</time>
      </trkpt>
      <trkpt lat="46.0468" lon="4.69839">
        <ele>202</ele>
        <time>2016-09-10T10:23:14Z</time>
      </trkpt>
      <trkpt lat="46.04674" lon="4.69837">
        <ele>203</ele>
        <time>2016-09-10T10:23:15Z</time>
      </trkpt>
      <trkpt lat="46.04667" lon="4.69834">
        <ele>203</ele>
        <time>2016-09-10T10:23:16Z</time>
      </trkpt>
      <trkpt lat="46.0466" lon="4.69831">
        <ele>203</ele>
        <time>2016-09-10T10:23:17Z</time>
      </trkpt>
      <trkpt lat="46.04653" lon="4.69828">
        <ele>202</ele>
        <time>2016-09-10T10:23:18Z</time>
      </trkpt>
      <trkpt lat="46.04646" lon="4.69825">
        <ele>202</ele>
        <time>2016-09-10T10:23:19Z</time>
      </trkpt>
      <trkpt lat="46.0464" lon="4.69822">
        <ele>202</ele>
        <time>2016-09-10T10:23:20Z</time>
      </trkpt>
      <trkpt lat="46.04633" lon="4.69819">
        <ele>202</ele>
        <time>2016-09-10T10:23:21Z</time>
      </trkpt>
      <trkpt lat="46.04626" lon="4.69816">
        <ele>202</ele>
        <time>2016-09-10T10:23:22Z</time>
      </trkpt>
      <trkpt lat="46.0462" lon="4.69814">
        <ele>202</ele>
        <time>2016-09-10T10:23:23Z</time>
      </trkpt>
      <trkpt lat="46.04614" lon="4.69812">
        <ele>201</ele>
        <time>2016-09-10T10:23:24Z</time>
      </trkpt>
      <trkpt lat="46.04608" lon="4.6981">
        <ele>201</ele>
        <time>2016-09-10T10:23:25Z</time>
      </trkpt>
      <trkpt lat="46.04601" lon="4.69808">
        <ele>201</ele>
        <time>2016-09-10T10:23:26Z</time>
      </trkpt>
      <trkpt lat="46.04595" lon="4.69806">
        <ele>201</ele>
        <time>2016-09-10T10:23:27Z</time>
      </trkpt>
      <trkpt lat="46.04589" lon="4.69804">
        <ele>201</ele>
        <time>2016-09-10T10:23:28Z</time>
      </trkpt>
      <trkpt lat="46.04583" lon="4.69802">
        <ele>200</ele>
        <time>2016-09-10T10:23:29Z</time>
      </trkpt>
      <trkpt lat="46.04576" lon="4.698">
        <ele>200</ele>
        <time>2016-09-10T10:23:30Z</time>
      </trkpt>
      <trkpt lat="46.04569" lon="4.69798">
        <ele>200</ele>
        <time>2016-09-10T10:23:31Z</time>
      </trkpt>
      <trkpt lat="46.04563" lon="4.69797">
        <ele>200</ele>
        <time>2016-09-10T10:23:32Z</time>
      </trkpt>
      <trkpt lat="46.04556" lon="4.69795">
        <ele>199</ele>
        <time>2016-09-10T10:23:33Z</time>
      </trkpt>
      <trkpt lat="46.0455" lon="4.69794">
        <ele>199</ele>
        <time>2016-09-10T10:23:34Z</time>
      </trkpt>
      <trkpt lat="46.04543" lon="4.69794">
        <ele>199</ele>
        <time>2016-09-10T10:23:35Z</time>
      </trkpt>
      <trkpt lat="46.04536" lon="4.69793">
        <ele>199</ele>
        <time>2016-09-10T10:23:36Z</time>
      </trkpt>
      <trkpt lat="46.04529" lon="4.69792">
        <ele>199</ele>
        <time>2016-09-10T10:23:37Z</time>
      </trkpt>
      <trkpt lat="46.04522" lon="4.69791">
        <ele>199</ele>
        <time>2016-09-10T10:23:38Z</time>
      </trkpt>
      <trkpt lat="46.04514" lon="4.69791">
        <ele>199</ele>
        <time>2016-09-10T10:23:39Z</time>
      </trkpt>
      <trkpt lat="46.04507" lon="4.69791">
        <ele>199</ele>
        <time>2016-09-10T10:23:40Z</time>
      </trkpt>
      <trkpt lat="46.04499" lon="4.69793">
        <ele>197</ele>
        <time>2016-09-10T10:23:41Z</time>
      </trkpt>
      <trkpt lat="46.04491" lon="4.69794">
        <ele>197</ele>
        <time>2016-09-10T10:23:42Z</time>
      </trkpt>
      <trkpt lat="46.04484" lon="4.69796">
        <ele>197</ele>
        <time>2016-09-10T10:23:43Z</time>
      </trkpt>
      <trkpt lat="46.04477" lon="4.69798">
        <ele>197</ele>
        <time>2016-09-10T10:23:44Z</time>
      </trkpt>
      <trkpt lat="46.04469" lon="4.698">
        <ele>197</ele>
        <time>2016-09-10T10:23:45Z</time>
      </trkpt>
      <trkpt lat="46.04461" lon="4.69802">
        <ele>197</ele>
        <time>2016-09-10T10:23:46Z</time>
      </trkpt>
      <trkpt lat="46.04454" lon="4.69805">
        <ele>196</ele>
        <time>2016-09-10T10:23:47Z</time>
      </trkpt>
      <trkpt lat="46.04446" lon="4.69807">
        <ele>196</ele>
        <time>2016-09-10T10:23:48Z</time>
      </trkpt>
      <trkpt lat="46.04437" lon="4.69809">
        <ele>196</ele>
        <time>2016-09-10T10:23:49Z</time>
      </trkpt>
      <trkpt lat="46.04429" lon="4.69812">
        <ele>196</ele>
        <time>2016-09-10T10:23:50Z</time>
      </trkpt>
      <trkpt lat="46.04421" lon="4.69814">
        <ele>196</ele>
        <time>2016-09-10T10:23:51Z</time>
      </trkpt>
      <trkpt lat="46.04413" lon="4.69816">
        <ele>194</ele>
        <time>2016-09-10T10:23:52Z</time>
      </trkpt>
      <trkpt lat="46.04404" lon="4.69818">
        <ele>194</ele>
        <time>2016-09-10T10:23:53Z</time>
      </trkpt>
      <trkpt lat="46.04396" lon="4.69821">
        <ele>194</ele>
        <time>2016-09-10T10:23:54Z</time>
      </trkpt>
      <trkpt lat="46.04388" lon="4.69824">
        <ele>194</ele>
        <time>2016-09-10T10:23:55Z</time>
      </trkpt>
      <trkpt lat="46.04379" lon="4.69827">
        <ele>194</ele>
        <time>2016-09-10T10:23:56Z</time>
      </trkpt>
      <trkpt lat="46.04371" lon="4.69832">
        <ele>194</ele>
        <time>2016-09-10T10:23:57Z</time>
      </trkpt>
      <trkpt lat="46.04363" lon="4.69836">
        <ele>193</ele>
        <time>2016-09-10T10:23:58Z</time>
      </trkpt>
      <trkpt lat="46.04355" lon="4.69841">
        <ele>193</ele>
        <time>2016-09-10T10:23:59Z</time>
      </trkpt>
      <trkpt lat="46.04347" lon="4.69847">
        <ele>193</ele>
        <time>2016-09-10T10:24:00Z</time>
      </trkpt>
      <trkpt lat="46.0434" lon="4.69854">
        <ele>192</ele>
        <time>2016-09-10T10:24:01Z</time>
      </trkpt>
      <trkpt lat="46.04334" lon="4.69862">
        <ele>192</ele>
        <time>2016-09-10T10:24:02Z</time>
      </trkpt>
      <trkpt lat="46.04328" lon="4.69871">
        <ele>191</ele>
        <time>2016-09-10T10:24:03Z</time>
      </trkpt>
      <trkpt lat="46.04322" lon="4.69881">
        <ele>190</ele>
        <time>2016-09-10T10:24:04Z</time>
      </trkpt>
      <trkpt lat="46.04317" lon="4.6989">
        <ele>190</ele>
        <time>2016-09-10T10:24:05Z</time>
      </trkpt>
      <trkpt lat="46.04311" lon="4.69899">
        <ele>190</ele>
        <time>2016-09-10T10:24:06Z</time>
      </trkpt>
      <trkpt lat="46.04305" lon="4.69907">
        <ele>190</ele>
        <time>2016-09-10T10:24:07Z</time>
      </trkpt>
      <trkpt lat="46.04299" lon="4.69915">
        <ele>190</ele>
        <time>2016-09-10T10:24:08Z</time>
      </trkpt>
      <trkpt lat="46.04293" lon="4.69922">
        <ele>189</ele>
        <time>2016-09-10T10:24:09Z</time>
      </trkpt>
      <trkpt lat="46.04287" lon="4.69929">
        <ele>189</ele>
        <time>2016-09-10T10:24:10Z</time>
      </trkpt>
      <trkpt lat="46.04281" lon="4.69936">
        <ele>189</ele>
        <time>2016-09-10T10:24:11Z</time>
      </trkpt>
      <trkpt lat="46.04275" lon="4.69942">
        <ele>189</ele>
        <time>2016-09-10T10:24:12Z</time>
      </trkpt>
      <trkpt lat="46.04269" lon="4.69948">
        <ele>189</ele>
        <time>2016-09-10T10:24:13Z</time>
      </trkpt>
      <trkpt lat="46.04264" lon="4.69954">
        <ele>188</ele>
        <time>2016-09-10T10:24:14Z</time>
      </trkpt>
      <trkpt lat="46.04258" lon="4.6996">
        <ele>188</ele>
        <time>2016-09-10T10:24:15Z</time>
      </trkpt>
      <trkpt lat="46.04252" lon="4.69966">
        <ele>188</ele>
        <time>2016-09-10T10:24:16Z</time>
      </trkpt>
      <trkpt lat="46.04247" lon="4.69972">
        <ele>188</ele>
        <time>2016-09-10T10:24:17Z</time>
      </trkpt>
      <trkpt lat="46.04242" lon="4.69977">
        <ele>188</ele>
        <time>2016-09-10T10:24:18Z</time>
      </trkpt>
      <trkpt lat="46.04236" lon="4.69982">
        <ele>188</ele>
        <time>2016-09-10T10:24:19Z</time>
      </trkpt>
      <trkpt lat="46.04231" lon="4.69988">
        <ele>188</ele>
        <time>2016-09-10T10:24:20Z</time>
      </trkpt>
      <trkpt lat="46.04226" lon="4.69993">
        <ele>188</ele>
        <time>2016-09-10T10:24:21Z</time>
      </trkpt>
      <trkpt lat="46.04221" lon="4.69997">
        <ele>188</ele>
        <time>2016-09-10T10:24:22Z</time>
      </trkpt>
      <trkpt lat="46.04216" lon="4.70002">
        <ele>188</ele>
        <time>2016-09-10T10:24:23Z</time>
      </trkpt>
      <trkpt lat="46.04211" lon="4.70007">
        <ele>188</ele>
        <time>2016-09-10T10:24:24Z</time>
      </trkpt>
      <trkpt lat="46.04205" lon="4.70012">
        <ele>188</ele>
        <time>2016-09-10T10:24:25Z</time>
      </trkpt>
      <trkpt lat="46.04199" lon="4.70017">
        <ele>188</ele>
        <time>2016-09-10T10:24:26Z</time>
      </trkpt>
      <trkpt lat="46.04193" lon="4.70021">
        <ele>188</ele>
        <time>2016-09-10T10:24:27Z</time>
      </trkpt>
      <trkpt lat="46.04187" lon="4.70025">
        <ele>189</ele>
        <time>2016-09-10T10:24:28Z</time>
      </trkpt>
      <trkpt lat="46.04181" lon="4.70028">
        <ele>189</ele>
        <time>2016-09-10T10:24:29Z</time>
      </trkpt>
      <trkpt lat="46.04175" lon="4.70031">
        <ele>189</ele>
        <time>2016-09-10T10:24:30Z</time>
      </trkpt>
      <trkpt lat="46.0417" lon="4.70035">
        <ele>189</ele>
        <time>2016-09-10T10:24:31Z</time>
      </trkpt>
      <trkpt lat="46.04165" lon="4.70038">
        <ele>191</ele>
        <time>2016-09-10T10:24:32Z</time>
      </trkpt>
      <trkpt lat="46.0416" lon="4.70041">
        <ele>191</ele>
        <time>2016-09-10T10:24:33Z</time>
      </trkpt>
      <trkpt lat="46.04154" lon="4.70043">
        <ele>191</ele>
        <time>2016-09-10T10:24:34Z</time>
      </trkpt>
      <trkpt lat="46.04149" lon="4.70047">
        <ele>191</ele>
        <time>2016-09-10T10:24:35Z</time>
      </trkpt>
      <trkpt lat="46.04145" lon="4.7005">
        <ele>191</ele>
        <time>2016-09-10T10:24:36Z</time>
      </trkpt>
      <trkpt lat="46.0414" lon="4.70053">
        <ele>192</ele>
        <time>2016-09-10T10:24:37Z</time>
      </trkpt>
      <trkpt lat="46.04137" lon="4.70055">
        <ele>192</ele>
        <time>2016-09-10T10:24:38Z</time>
      </trkpt>
      <trkpt lat="46.04132" lon="4.70058">
        <ele>192</ele>
        <time>2016-09-10T10:24:39Z</time>
      </trkpt>
      <trkpt lat="46.04124" lon="4.70061">
        <ele>192</ele>
        <time>2016-09-10T10:24:40Z</time>
      </trkpt>
      <trkpt lat="46.04117" lon="4.70063">
        <ele>192</ele>
        <time>2016-09-10T10:24:41Z</time>
      </trkpt>
      <trkpt lat="46.04109" lon="4.70065">
        <ele>193</ele>
        <time>2016-09-10T10:24:42Z</time>
      </trkpt>
      <trkpt lat="46.04103" lon="4.70067">
        <ele>193</ele>
        <time>2016-09-10T10:24:43Z</time>
      </trkpt>
      <trkpt lat="46.04096" lon="4.70069">
        <ele>193</ele>
        <time>2016-09-10T10:24:44Z</time>
      </trkpt>
      <trkpt lat="46.04091" lon="4.70069">
        <ele>193</ele>
        <time>2016-09-10T10:24:45Z</time>
      </trkpt>
      <trkpt lat="46.04083" lon="4.7007">
        <ele>194</ele>
        <time>2016-09-10T10:24:46Z</time>
      </trkpt>
      <trkpt lat="46.04074" lon="4.7007">
        <ele>194</ele>
        <time>2016-09-10T10:24:47Z</time>
      </trkpt>
      <trkpt lat="46.04067" lon="4.70071">
        <ele>194</ele>
        <time>2016-09-10T10:24:48Z</time>
      </trkpt>
      <trkpt lat="46.04062" lon="4.70072">
        <ele>194</ele>
        <time>2016-09-10T10:24:49Z</time>
      </trkpt>
      <trkpt lat="46.04056" lon="4.70072">
        <ele>194</ele>
        <time>2016-09-10T10:24:50Z</time>
      </trkpt>
      <trkpt lat="46.0405" lon="4.70072">
        <ele>194</ele>
        <time>2016-09-10T10:24:51Z</time>
      </trkpt>
      <trkpt lat="46.04044" lon="4.70071">
        <ele>194</ele>
        <time>2016-09-10T10:24:52Z</time>
      </trkpt>
      <trkpt lat="46.04038" lon="4.70072">
        <ele>195</ele>
        <time>2016-09-10T10:24:53Z</time>
      </trkpt>
      <trkpt lat="46.04033" lon="4.70071">
        <ele>195</ele>
        <time>2016-09-10T10:24:54Z</time>
      </trkpt>
      <trkpt lat="46.04028" lon="4.70073">
        <ele>195</ele>
        <time>2016-09-10T10:24:55Z</time>
      </trkpt>
      <trkpt lat="46.04021" lon="4.70076">
        <ele>195</ele>
        <time>2016-09-10T10:24:56Z</time>
      </trkpt>
      <trkpt lat="46.04015" lon="4.70077">
        <ele>195</ele>
        <time>2016-09-10T10:24:57Z</time>
      </trkpt>
      <trkpt lat="46.04009" lon="4.70078">
        <ele>195</ele>
        <time>2016-09-10T10:24:58Z</time>
      </trkpt>
      <trkpt lat="46.04002" lon="4.70079">
        <ele>196</ele>
        <time>2016-09-10T10:24:59Z</time>
      </trkpt>
      <trkpt lat="46.03995" lon="4.7008">
        <ele>195</ele>
        <time>2016-09-10T10:25:00Z</time>
      </trkpt>
      <trkpt lat="46.03989" lon="4.70081">
        <ele>195</ele>
        <time>2016-09-10T10:25:01Z</time>
      </trkpt>
      <trkpt lat="46.03984" lon="4.70082">
        <ele>195</ele>
        <time>2016-09-10T10:25:02Z</time>
      </trkpt>
      <trkpt lat="46.03978" lon="4.70084">
        <ele>196</ele>
        <time>2016-09-10T10:25:03Z</time>
      </trkpt>
      <trkpt lat="46.03973" lon="4.70085">
        <ele>196</ele>
        <time>2016-09-10T10:25:04Z</time>
      </trkpt>
      <trkpt lat="46.03968" lon="4.70086">
        <ele>196</ele>
        <time>2016-09-10T10:25:05Z</time>
      </trkpt>
      <trkpt lat="46.03959" lon="4.70089">
        <ele>196</ele>
        <time>2016-09-10T10:25:07Z</time>
      </trkpt>
      <trkpt lat="46.03954" lon="4.70091">
        <ele>196</ele>
        <time>2016-09-10T10:25:08Z</time>
      </trkpt>
      <trkpt lat="46.03947" lon="4.70093">
        <ele>196</ele>
        <time>2016-09-10T10:25:09Z</time>
      </trkpt>
      <trkpt lat="46.03941" lon="4.70095">
        <ele>196</ele>
        <time>2016-09-10T10:25:10Z</time>
      </trkpt>
      <trkpt lat="46.03934" lon="4.70097">
        <ele>195</ele>
        <time>2016-09-10T10:25:11Z</time>
      </trkpt>
      <trkpt lat="46.03926" lon="4.701">
        <ele>195</ele>
        <time>2016-09-10T10:25:12Z</time>
      </trkpt>
      <trkpt lat="46.03919" lon="4.70102">
        <ele>195</ele>
        <time>2016-09-10T10:25:13Z</time>
      </trkpt>
      <trkpt lat="46.03912" lon="4.70105">
        <ele>194</ele>
        <time>2016-09-10T10:25:14Z</time>
      </trkpt>
      <trkpt lat="46.03905" lon="4.70107">
        <ele>194</ele>
        <time>2016-09-10T10:25:15Z</time>
      </trkpt>
      <trkpt lat="46.03898" lon="4.70109">
        <ele>194</ele>
        <time>2016-09-10T10:25:16Z</time>
      </trkpt>
      <trkpt lat="46.03891" lon="4.70112">
        <ele>193</ele>
        <time>2016-09-10T10:25:17Z</time>
      </trkpt>
      <trkpt lat="46.03884" lon="4.70114">
        <ele>193</ele>
        <time>2016-09-10T10:25:18Z</time>
      </trkpt>
      <trkpt lat="46.03877" lon="4.70117">
        <ele>193</ele>
        <time>2016-09-10T10:25:19Z</time>
      </trkpt>
      <trkpt lat="46.0387" lon="4.70118">
        <ele>193</ele>
        <time>2016-09-10T10:25:20Z</time>
      </trkpt>
      <trkpt lat="46.03863" lon="4.7012">
        <ele>193</ele>
        <time>2016-09-10T10:25:21Z</time>
      </trkpt>
      <trkpt lat="46.03855" lon="4.70123">
        <ele>192</ele>
        <time>2016-09-10T10:25:22Z</time>
      </trkpt>
      <trkpt lat="46.03848" lon="4.70126">
        <ele>192</ele>
        <time>2016-09-10T10:25:23Z</time>
      </trkpt>
      <trkpt lat="46.03841" lon="4.70128">
        <ele>192</ele>
        <time>2016-09-10T10:25:24Z</time>
      </trkpt>
      <trkpt lat="46.03834" lon="4.7013">
        <ele>192</ele>
        <time>2016-09-10T10:25:25Z</time>
      </trkpt>
      <trkpt lat="46.03827" lon="4.70132">
        <ele>190</ele>
        <time>2016-09-10T10:25:26Z</time>
      </trkpt>
      <trkpt lat="46.0382" lon="4.70134">
        <ele>190</ele>
        <time>2016-09-10T10:25:27Z</time>
      </trkpt>
      <trkpt lat="46.03813" lon="4.70137">
        <ele>190</ele>
        <time>2016-09-10T10:25:28Z</time>
      </trkpt>
      <trkpt lat="46.03807" lon="4.70139">
        <ele>189</ele>
        <time>2016-09-10T10:25:29Z</time>
      </trkpt>
      <trkpt lat="46.03801" lon="4.70142">
        <ele>189</ele>
        <time>2016-09-10T10:25:30Z</time>
      </trkpt>
      <trkpt lat="46.03794" lon="4.70144">
        <ele>189</ele>
        <time>2016-09-10T10:25:31Z</time>
      </trkpt>
      <trkpt lat="46.03787" lon="4.70147">
        <ele>189</ele>
        <time>2016-09-10T10:25:32Z</time>
      </trkpt>
      <trkpt lat="46.0378" lon="4.70149">
        <ele>189</ele>
        <time>2016-09-10T10:25:33Z</time>
      </trkpt>
      <trkpt lat="46.03775" lon="4.70153">
        <ele>189</ele>
        <time>2016-09-10T10:25:34Z</time>
      </trkpt>
      <trkpt lat="46.03769" lon="4.70157">
        <ele>188</ele>
        <time>2016-09-10T10:25:35Z</time>
      </trkpt>
      <trkpt lat="46.03763" lon="4.7016">
        <ele>188</ele>
        <time>2016-09-10T10:25:36Z</time>
      </trkpt>
      <trkpt lat="46.03755" lon="4.70162">
        <ele>188</ele>
        <time>2016-09-10T10:25:37Z</time>
      </trkpt>
      <trkpt lat="46.0375" lon="4.70163">
        <ele>187</ele>
        <time>2016-09-10T10:25:38Z</time>
      </trkpt>
      <trkpt lat="46.03745" lon="4.70166">
        <ele>188</ele>
        <time>2016-09-10T10:25:39Z</time>
      </trkpt>
      <trkpt lat="46.03739" lon="4.70167">
        <ele>188</ele>
        <time>2016-09-10T10:25:40Z</time>
      </trkpt>
      <trkpt lat="46.03734" lon="4.70169">
        <ele>188</ele>
        <time>2016-09-10T10:25:41Z</time>
      </trkpt>
      <trkpt lat="46.03729" lon="4.70171">
        <ele>188</ele>
        <time>2016-09-10T10:25:42Z</time>
      </trkpt>
      <trkpt lat="46.03724" lon="4.70173">
        <ele>188</ele>
        <time>2016-09-10T10:25:43Z</time>
      </trkpt>
      <trkpt lat="46.03719" lon="4.70175">
        <ele>188</ele>
        <time>2016-09-10T10:25:44Z</time>
      </trkpt>
      <trkpt lat="46.03713" lon="4.70177">
        <ele>188</ele>
        <time>2016-09-10T10:25:45Z</time>
      </trkpt>
      <trkpt lat="46.03709" lon="4.70179">
        <ele>189</ele>
        <time>2016-09-10T10:25:46Z</time>
      </trkpt>
      <trkpt lat="46.03703" lon="4.70181">
        <ele>189</ele>
        <time>2016-09-10T10:25:47Z</time>
      </trkpt>
      <trkpt lat="46.03697" lon="4.70184">
        <ele>189</ele>
        <time>2016-09-10T10:25:48Z</time>
      </trkpt>
      <trkpt lat="46.03692" lon="4.70186">
        <ele>189</ele>
        <time>2016-09-10T10:25:49Z</time>
      </trkpt>
      <trkpt lat="46.03687" lon="4.70189">
        <ele>189</ele>
        <time>2016-09-10T10:25:50Z</time>
      </trkpt>
      <trkpt lat="46.03682" lon="4.70192">
        <ele>189</ele>
        <time>2016-09-10T10:25:51Z</time>
      </trkpt>
      <trkpt lat="46.03677" lon="4.70194">
        <ele>189</ele>
        <time>2016-09-10T10:25:52Z</time>
      </trkpt>
      <trkpt lat="46.03672" lon="4.70195">
        <ele>189</ele>
        <time>2016-09-10T10:25:53Z</time>
      </trkpt>
      <trkpt lat="46.03667" lon="4.70197">
        <ele>191</ele>
        <time>2016-09-10T10:25:54Z</time>
      </trkpt>
      <trkpt lat="46.03662" lon="4.70199">
        <ele>191</ele>
        <time>2016-09-10T10:25:55Z</time>
      </trkpt>
      <trkpt lat="46.03658" lon="4.70202">
        <ele>191</ele>
        <time>2016-09-10T10:25:56Z</time>
      </trkpt>
      <trkpt lat="46.03653" lon="4.70205">
        <ele>190</ele>
        <time>2016-09-10T10:25:57Z</time>
      </trkpt>
      <trkpt lat="46.03648" lon="4.70207">
        <ele>190</ele>
        <time>2016-09-10T10:25:58Z</time>
      </trkpt>
      <trkpt lat="46.03643" lon="4.70209">
        <ele>190</ele>
        <time>2016-09-10T10:25:59Z</time>
      </trkpt>
      <trkpt lat="46.03638" lon="4.70212">
        <ele>190</ele>
        <time>2016-09-10T10:26:00Z</time>
      </trkpt>
      <trkpt lat="46.03629" lon="4.70215">
        <ele>190</ele>
        <time>2016-09-10T10:26:02Z</time>
      </trkpt>
      <trkpt lat="46.03624" lon="4.70217">
        <ele>190</ele>
        <time>2016-09-10T10:26:03Z</time>
      </trkpt>
      <trkpt lat="46.03619" lon="4.70219">
        <ele>190</ele>
        <time>2016-09-10T10:26:04Z</time>
      </trkpt>
      <trkpt lat="46.03615" lon="4.70221">
        <ele>190</ele>
        <time>2016-09-10T10:26:05Z</time>
      </trkpt>
      <trkpt lat="46.03606" lon="4.70225">
        <ele>190</ele>
        <time>2016-09-10T10:26:07Z</time>
      </trkpt>
      <trkpt lat="46.03602" lon="4.70226">
        <ele>190</ele>
        <time>2016-09-10T10:26:08Z</time>
      </trkpt>
      <trkpt lat="46.03598" lon="4.70228">
        <ele>190</ele>
        <time>2016-09-10T10:26:09Z</time>
      </trkpt>
      <trkpt lat="46.03593" lon="4.7023">
        <ele>190</ele>
        <time>2016-09-10T10:26:10Z</time>
      </trkpt>
      <trkpt lat="46.03589" lon="4.70232">
        <ele>190</ele>
        <time>2016-09-10T10:26:11Z</time>
      </trkpt>
      <trkpt lat="46.03584" lon="4.70235">
        <ele>190</ele>
        <time>2016-09-10T10:26:12Z</time>
      </trkpt>
      <trkpt lat="46.03579" lon="4.70237">
        <ele>190</ele>
        <time>2016-09-10T10:26:13Z</time>
      </trkpt>
      <trkpt lat="46.03573" lon="4.70239">
        <ele>190</ele>
        <time>2016-09-10T10:26:14Z</time>
      </trkpt>
      <trkpt lat="46.03568" lon="4.70241">
        <ele>190</ele>
        <time>2016-09-10T10:26:15Z</time>
      </trkpt>
      <trkpt lat="46.03563" lon="4.70243">
        <ele>190</ele>
        <time>2016-09-10T10:26:16Z</time>
      </trkpt>
      <trkpt lat="46.03558" lon="4.70245">
        <ele>190</ele>
        <time>2016-09-10T10:26:17Z</time>
      </trkpt>
      <trkpt lat="46.03552" lon="4.70247">
        <ele>190</ele>
        <time>2016-09-10T10:26:18Z</time>
      </trkpt>
      <trkpt lat="46.03547" lon="4.70249">
        <ele>189</ele>
        <time>2016-09-10T10:26:19Z</time>
      </trkpt>
      <trkpt lat="46.03541" lon="4.70251">
        <ele>188</ele>
        <time>2016-09-10T10:26:20Z</time>
      </trkpt>
      <trkpt lat="46.03536" lon="4.70254">
        <ele>188</ele>
        <time>2016-09-10T10:26:21Z</time>
      </trkpt>
      <trkpt lat="46.0353" lon="4.70256">
        <ele>187</ele>
        <time>2016-09-10T10:26:22Z</time>
      </trkpt>
      <trkpt lat="46.03524" lon="4.70258">
        <ele>187</ele>
        <time>2016-09-10T10:26:23Z</time>
      </trkpt>
      <trkpt lat="46.03518" lon="4.7026">
        <ele>187</ele>
        <time>2016-09-10T10:26:24Z</time>
      </trkpt>
      <trkpt lat="46.03512" lon="4.70263">
        <ele>187</ele>
        <time>2016-09-10T10:26:25Z</time>
      </trkpt>
      <trkpt lat="46.03506" lon="4.70265">
        <ele>187</ele>
        <time>2016-09-10T10:26:26Z</time>
      </trkpt>
      <trkpt lat="46.03499" lon="4.70266">
        <ele>187</ele>
        <time>2016-09-10T10:26:27Z</time>
      </trkpt>
      <trkpt lat="46.03493" lon="4.70269">
        <ele>188</ele>
        <time>2016-09-10T10:26:28Z</time>
      </trkpt>
      <trkpt lat="46.03487" lon="4.70271">
        <ele>188</ele>
        <time>2016-09-10T10:26:29Z</time>
      </trkpt>
      <trkpt lat="46.03481" lon="4.70274">
        <ele>188</ele>
        <time>2016-09-10T10:26:30Z</time>
      </trkpt>
      <trkpt lat="46.03476" lon="4.70276">
        <ele>188</ele>
        <time>2016-09-10T10:26:31Z</time>
      </trkpt>
      <trkpt lat="46.03471" lon="4.70278">
        <ele>188</ele>
        <time>2016-09-10T10:26:32Z</time>
      </trkpt>
      <trkpt lat="46.03463" lon="4.70281">
        <ele>188</ele>
        <time>2016-09-10T10:26:34Z</time>
      </trkpt>
      <trkpt lat="46.03457" lon="4.70285">
        <ele>188</ele>
        <time>2016-09-10T10:26:35Z</time>
      </trkpt>
      <trkpt lat="46.03451" lon="4.70287">
        <ele>188</ele>
        <time>2016-09-10T10:26:36Z</time>
      </trkpt>
      <trkpt lat="46.03446" lon="4.70289">
        <ele>188</ele>
        <time>2016-09-10T10:26:37Z</time>
      </trkpt>
      <trkpt lat="46.03441" lon="4.70292">
        <ele>188</ele>
        <time>2016-09-10T10:26:38Z</time>
      </trkpt>
      <trkpt lat="46.03436" lon="4.70294">
        <ele>188</ele>
        <time>2016-09-10T10:26:39Z</time>
      </trkpt>
      <trkpt lat="46.03431" lon="4.70296">
        <ele>188</ele>
        <time>2016-09-10T10:26:40Z</time>
      </trkpt>
      <trkpt lat="46.03425" lon="4.70298">
        <ele>188</ele>
        <time>2016-09-10T10:26:41Z</time>
      </trkpt>
      <trkpt lat="46.0342" lon="4.70301">
        <ele>188</ele>
        <time>2016-09-10T10:26:42Z</time>
      </trkpt>
      <trkpt lat="46.03414" lon="4.70303">
        <ele>190</ele>
        <time>2016-09-10T10:26:43Z</time>
      </trkpt>
      <trkpt lat="46.03408" lon="4.70305">
        <ele>190</ele>
        <time>2016-09-10T10:26:44Z</time>
      </trkpt>
      <trkpt lat="46.03403" lon="4.70307">
        <ele>190</ele>
        <time>2016-09-10T10:26:45Z</time>
      </trkpt>
      <trkpt lat="46.03397" lon="4.70309">
        <ele>190</ele>
        <time>2016-09-10T10:26:46Z</time>
      </trkpt>
      <trkpt lat="46.03391" lon="4.70311">
        <ele>190</ele>
        <time>2016-09-10T10:26:47Z</time>
      </trkpt>
      <trkpt lat="46.03385" lon="4.70313">
        <ele>191</ele>
        <time>2016-09-10T10:26:48Z</time>
      </trkpt>
      <trkpt lat="46.0338" lon="4.70316">
        <ele>191</ele>
        <time>2016-09-10T10:26:49Z</time>
      </trkpt>
      <trkpt lat="46.03375" lon="4.70318">
        <ele>191</ele>
        <time>2016-09-10T10:26:50Z</time>
      </trkpt>
      <trkpt lat="46.0337" lon="4.7032">
        <ele>191</ele>
        <time>2016-09-10T10:26:51Z</time>
      </trkpt>
      <trkpt lat="46.03365" lon="4.70322">
        <ele>191</ele>
        <time>2016-09-10T10:26:52Z</time>
      </trkpt>
      <trkpt lat="46.03359" lon="4.70324">
        <ele>191</ele>
        <time>2016-09-10T10:26:53Z</time>
      </trkpt>
      <trkpt lat="46.03354" lon="4.70326">
        <ele>191</ele>
        <time>2016-09-10T10:26:54Z</time>
      </trkpt>
      <trkpt lat="46.03349" lon="4.70328">
        <ele>191</ele>
        <time>2016-09-10T10:26:55Z</time>
      </trkpt>
      <trkpt lat="46.03345" lon="4.7033">
        <ele>191</ele>
        <time>2016-09-10T10:26:56Z</time>
      </trkpt>
      <trkpt lat="46.0334" lon="4.70331">
        <ele>191</ele>
        <time>2016-09-10T10:26:57Z</time>
      </trkpt>
      <trkpt lat="46.03335" lon="4.70331">
        <ele>191</ele>
        <time>2016-09-10T10:26:58Z</time>
      </trkpt>
      <trkpt lat="46.0333" lon="4.70332">
        <ele>191</ele>
        <time>2016-09-10T10:26:59Z</time>
      </trkpt>
      <trkpt lat="46.03325" lon="4.70334">
        <ele>191</ele>
        <time>2016-09-10T10:27:00Z</time>
      </trkpt>
      <trkpt lat="46.0332" lon="4.70336">
        <ele>191</ele>
        <time>2016-09-10T10:27:01Z</time>
      </trkpt>
      <trkpt lat="46.03315" lon="4.70338">
        <ele>191</ele>
        <time>2016-09-10T10:27:02Z</time>
      </trkpt>
      <trkpt lat="46.0331" lon="4.7034">
        <ele>191</ele>
        <time>2016-09-10T10:27:03Z</time>
      </trkpt>
      <trkpt lat="46.03305" lon="4.70342">
        <ele>191</ele>
        <time>2016-09-10T10:27:04Z</time>
      </trkpt>
      <trkpt lat="46.03299" lon="4.70343">
        <ele>191</ele>
        <time>2016-09-10T10:27:05Z</time>
      </trkpt>
      <trkpt lat="46.03294" lon="4.70345">
        <ele>191</ele>
        <time>2016-09-10T10:27:06Z</time>
      </trkpt>
      <trkpt lat="46.03289" lon="4.70347">
        <ele>191</ele>
        <time>2016-09-10T10:27:07Z</time>
      </trkpt>
      <trkpt lat="46.03284" lon="4.70349">
        <ele>191</ele>
        <time>2016-09-10T10:27:08Z</time>
      </trkpt>
      <trkpt lat="46.0328" lon="4.7035">
        <ele>191</ele>
        <time>2016-09-10T10:27:09Z</time>
      </trkpt>
      <trkpt lat="46.03271" lon="4.70353">
        <ele>191</ele>
        <time>2016-09-10T10:27:11Z</time>
      </trkpt>
      <trkpt lat="46.03267" lon="4.70355">
        <ele>191</ele>
        <time>2016-09-10T10:27:12Z</time>
      </trkpt>
      <trkpt lat="46.03259" lon="4.7036">
        <ele>191</ele>
        <time>2016-09-10T10:27:14Z</time>
      </trkpt>
      <trkpt lat="46.03255" lon="4.70362">
        <ele>191</ele>
        <time>2016-09-10T10:27:15Z</time>
      </trkpt>
      <trkpt lat="46.03247" lon="4.70367">
        <ele>192</ele>
        <time>2016-09-10T10:27:17Z</time>
      </trkpt>
      <trkpt lat="46.03243" lon="4.70369">
        <ele>192</ele>
        <time>2016-09-10T10:27:18Z</time>
      </trkpt>
      <trkpt lat="46.03235" lon="4.70373">
        <ele>192</ele>
        <time>2016-09-10T10:27:20Z</time>
      </trkpt>
      <trkpt lat="46.03231" lon="4.70374">
        <ele>192</ele>
        <time>2016-09-10T10:27:21Z</time>
      </trkpt>
      <trkpt lat="46.03227" lon="4.70377">
        <ele>192</ele>
        <time>2016-09-10T10:27:22Z</time>
      </trkpt>
      <trkpt lat="46.03222" lon="4.70379">
        <ele>192</ele>
        <time>2016-09-10T10:27:23Z</time>
      </trkpt>
      <trkpt lat="46.03217" lon="4.70381">
        <ele>192</ele>
        <time>2016-09-10T10:27:24Z</time>
      </trkpt>
      <trkpt lat="46.03213" lon="4.70383">
        <ele>192</ele>
        <time>2016-09-10T10:27:25Z</time>
      </trkpt>
      <trkpt lat="46.03207" lon="4.70386">
        <ele>192</ele>
        <time>2016-09-10T10:27:26Z</time>
      </trkpt>
      <trkpt lat="46.03203" lon="4.70388">
        <ele>192</ele>
        <time>2016-09-10T10:27:27Z</time>
      </trkpt>
      <trkpt lat="46.03198" lon="4.7039">
        <ele>192</ele>
        <time>2016-09-10T10:27:28Z</time>
      </trkpt>
      <trkpt lat="46.03193" lon="4.70392">
        <ele>192</ele>
        <time>2016-09-10T10:27:29Z</time>
      </trkpt>
      <trkpt lat="46.03188" lon="4.70395">
        <ele>192</ele>
        <time>2016-09-10T10:27:30Z</time>
      </trkpt>
      <trkpt lat="46.03183" lon="4.70397">
        <ele>192</ele>
        <time>2016-09-10T10:27:31Z</time>
      </trkpt>
      <trkpt lat="46.03175" lon="4.70401">
        <ele>192</ele>
        <time>2016-09-10T10:27:33Z</time>
      </trkpt>
      <trkpt lat="46.03171" lon="4.70402">
        <ele>192</ele>
        <time>2016-09-10T10:27:34Z</time>
      </trkpt>
      <trkpt lat="46.03162" lon="4.70406">
        <ele>192</ele>
        <time>2016-09-10T10:27:36Z</time>
      </trkpt>
      <trkpt lat="46.03158" lon="4.70407">
        <ele>192</ele>
        <time>2016-09-10T10:27:37Z</time>
      </trkpt>
      <trkpt lat="46.03153" lon="4.70409">
        <ele>192</ele>
        <time>2016-09-10T10:27:38Z</time>
      </trkpt>
      <trkpt lat="46.03148" lon="4.70412">
        <ele>192</ele>
        <time>2016-09-10T10:27:39Z</time>
      </trkpt>
      <trkpt lat="46.03143" lon="4.70414">
        <ele>192</ele>
        <time>2016-09-10T10:27:40Z</time>
      </trkpt>
      <trkpt lat="46.03137" lon="4.70417">
        <ele>192</ele>
        <time>2016-09-10T10:27:41Z</time>
      </trkpt>
      <trkpt lat="46.03132" lon="4.7042">
        <ele>192</ele>
        <time>2016-09-10T10:27:42Z</time>
      </trkpt>
      <trkpt lat="46.03127" lon="4.70422">
        <ele>192</ele>
        <time>2016-09-10T10:27:43Z</time>
      </trkpt>
      <trkpt lat="46.03123" lon="4.70424">
        <ele>192</ele>
        <time>2016-09-10T10:27:44Z</time>
      </trkpt>
      <trkpt lat="46.03118" lon="4.70426">
        <ele>192</ele>
        <time>2016-09-10T10:27:45Z</time>
      </trkpt>
      <trkpt lat="46.03113" lon="4.70429">
        <ele>192</ele>
        <time>2016-09-10T10:27:46Z</time>
      </trkpt>
      <trkpt lat="46.03109" lon="4.70431">
        <ele>192</ele>
        <time>2016-09-10T10:27:47Z</time>
      </trkpt>
      <trkpt lat="46.03104" lon="4.70433">
        <ele>192</ele>
        <time>2016-09-10T10:27:48Z</time>
      </trkpt>
      <trkpt lat="46.031" lon="4.70436">
        <ele>192</ele>
        <time>2016-09-10T10:27:49Z</time>
      </trkpt>
      <trkpt lat="46.03096" lon="4.70438">
        <ele>192</ele>
        <time>2016-09-10T10:27:50Z</time>
      </trkpt>
      <trkpt lat="46.03092" lon="4.7044">
        <ele>192</ele>
        <time>2016-09-10T10:27:51Z</time>
      </trkpt>
      <trkpt lat="46.03087" lon="4.70442">
        <ele>192</ele>
        <time>2016-09-10T10:27:52Z</time>
      </trkpt>
      <trkpt lat="46.03083" lon="4.70444">
        <ele>191</ele>
        <time>2016-09-10T10:27:53Z</time>
      </trkpt>
      <trkpt lat="46.03078" lon="4.70447">
        <ele>191</ele>
        <time>2016-09-10T10:27:54Z</time>
      </trkpt>
      <trkpt lat="46.03073" lon="4.7045">
        <ele>191</ele>
        <time>2016-09-10T10:27:55Z</time>
      </trkpt>
      <trkpt lat="46.03068" lon="4.70453">
        <ele>191</ele>
        <time>2016-09-10T10:27:56Z</time>
      </trkpt>
      <trkpt lat="46.03063" lon="4.70457">
        <ele>191</ele>
        <time>2016-09-10T10:27:57Z</time>
      </trkpt>
      <trkpt lat="46.03059" lon="4.70462">
        <ele>191</ele>
        <time>2016-09-10T10:27:58Z</time>
      </trkpt>
      <trkpt lat="46.03055" lon="4.70466">
        <ele>191</ele>
        <time>2016-09-10T10:27:59Z</time>
      </trkpt>
      <trkpt lat="46.0305" lon="4.7047">
        <ele>191</ele>
        <time>2016-09-10T10:28:00Z</time>
      </trkpt>
      <trkpt lat="46.03045" lon="4.70474">
        <ele>191</ele>
        <time>2016-09-10T10:28:01Z</time>
      </trkpt>
      <trkpt lat="46.0304" lon="4.70479">
        <ele>191</ele>
        <time>2016-09-10T10:28:02Z</time>
      </trkpt>
      <trkpt lat="46.03035" lon="4.70484">
        <ele>191</ele>
        <time>2016-09-10T10:28:03Z</time>
      </trkpt>
      <trkpt lat="46.0303" lon="4.70489">
        <ele>191</ele>
        <time>2016-09-10T10:28:04Z</time>
      </trkpt>
      <trkpt lat="46.03024" lon="4.70495">
        <ele>191</ele>
        <time>2016-09-10T10:28:05Z</time>
      </trkpt>
      <trkpt lat="46.03019" lon="4.70499">
        <ele>191</ele>
        <time>2016-09-10T10:28:06Z</time>
      </trkpt>
      <trkpt lat="46.03014" lon="4.70504">
        <ele>191</ele>
        <time>2016-09-10T10:28:07Z</time>
      </trkpt>
      <trkpt lat="46.03008" lon="4.7051">
        <ele>191</ele>
        <time>2016-09-10T10:28:08Z</time>
      </trkpt>
      <trkpt lat="46.03003" lon="4.70514">
        <ele>191</ele>
        <time>2016-09-10T10:28:09Z</time>
      </trkpt>
      <trkpt lat="46.02998" lon="4.70519">
        <ele>191</ele>
        <time>2016-09-10T10:28:10Z</time>
      </trkpt>
      <trkpt lat="46.02993" lon="4.70524">
        <ele>191</ele>
        <time>2016-09-10T10:28:11Z</time>
      </trkpt>
      <trkpt lat="46.02989" lon="4.70529">
        <ele>191</ele>
        <time>2016-09-10T10:28:12Z</time>
      </trkpt>
      <trkpt lat="46.02984" lon="4.70533">
        <ele>191</ele>
        <time>2016-09-10T10:28:13Z</time>
      </trkpt>
      <trkpt lat="46.02979" lon="4.70538">
        <ele>191</ele>
        <time>2016-09-10T10:28:14Z</time>
      </trkpt>
      <trkpt lat="46.02974" lon="4.70542">
        <ele>191</ele>
        <time>2016-09-10T10:28:15Z</time>
      </trkpt>
      <trkpt lat="46.02969" lon="4.70547">
        <ele>191</ele>
        <time>2016-09-10T10:28:16Z</time>
      </trkpt>
      <trkpt lat="46.02964" lon="4.70552">
        <ele>191</ele>
        <time>2016-09-10T10:28:17Z</time>
      </trkpt>
      <trkpt lat="46.02959" lon="4.70559">
        <ele>191</ele>
        <time>2016-09-10T10:28:18Z</time>
      </trkpt>
      <trkpt lat="46.02955" lon="4.70566">
        <ele>191</ele>
        <time>2016-09-10T10:28:19Z</time>
      </trkpt>
      <trkpt lat="46.02952" lon="4.70574">
        <ele>191</ele>
        <time>2016-09-10T10:28:20Z</time>
      </trkpt>
      <trkpt lat="46.02949" lon="4.70582">
        <ele>191</ele>
        <time>2016-09-10T10:28:21Z</time>
      </trkpt>
      <trkpt lat="46.02946" lon="4.70589">
        <ele>192</ele>
        <time>2016-09-10T10:28:22Z</time>
      </trkpt>
      <trkpt lat="46.02943" lon="4.70595">
        <ele>192</ele>
        <time>2016-09-10T10:28:23Z</time>
      </trkpt>
      <trkpt lat="46.02941" lon="4.70602">
        <ele>192</ele>
        <time>2016-09-10T10:28:24Z</time>
      </trkpt>
      <trkpt lat="46.02939" lon="4.70609">
        <ele>192</ele>
        <time>2016-09-10T10:28:25Z</time>
      </trkpt>
      <trkpt lat="46.02936" lon="4.70615">
        <ele>192</ele>
        <time>2016-09-10T10:28:26Z</time>
      </trkpt>
      <trkpt lat="46.02935" lon="4.70621">
        <ele>192</ele>
        <time>2016-09-10T10:28:27Z</time>
      </trkpt>
      <trkpt lat="46.02933" lon="4.70628">
        <ele>192</ele>
        <time>2016-09-10T10:28:28Z</time>
      </trkpt>
      <trkpt lat="46.02931" lon="4.70634">
        <ele>192</ele>
        <time>2016-09-10T10:28:29Z</time>
      </trkpt>
      <trkpt lat="46.02929" lon="4.70641">
        <ele>192</ele>
        <time>2016-09-10T10:28:30Z</time>
      </trkpt>
      <trkpt lat="46.02926" lon="4.70648">
        <ele>192</ele>
        <time>2016-09-10T10:28:31Z</time>
      </trkpt>
      <trkpt lat="46.02923" lon="4.70654">
        <ele>191</ele>
        <time>2016-09-10T10:28:32Z</time>
      </trkpt>
      <trkpt lat="46.0292" lon="4.7066">
        <ele>191</ele>
        <time>2016-09-10T10:28:33Z</time>
      </trkpt>
      <trkpt lat="46.02915" lon="4.70664">
        <ele>191</ele>
        <time>2016-09-10T10:28:34Z</time>
      </trkpt>
      <trkpt lat="46.0291" lon="4.70665">
        <ele>191</ele>
        <time>2016-09-10T10:28:35Z</time>
      </trkpt>
      <trkpt lat="46.02906" lon="4.70665">
        <ele>191</ele>
        <time>2016-09-10T10:28:36Z</time>
      </trkpt>
      <trkpt lat="46.029" lon="4.70665">
        <ele>191</ele>
        <time>2016-09-10T10:28:37Z</time>
      </trkpt>
      <trkpt lat="46.02895" lon="4.70665">
        <ele>190</ele>
        <time>2016-09-10T10:28:38Z</time>
      </trkpt>
      <trkpt lat="46.02889" lon="4.70663">
        <ele>190</ele>
        <time>2016-09-10T10:28:39Z</time>
      </trkpt>
      <trkpt lat="46.02883" lon="4.70663">
        <ele>190</ele>
        <time>2016-09-10T10:28:40Z</time>
      </trkpt>
      <trkpt lat="46.02878" lon="4.70662">
        <ele>190</ele>
        <time>2016-09-10T10:28:41Z</time>
      </trkpt>
      <trkpt lat="46.02871" lon="4.70662">
        <ele>190</ele>
        <time>2016-09-10T10:28:42Z</time>
      </trkpt>
      <trkpt lat="46.02865" lon="4.70663">
        <ele>190</ele>
        <time>2016-09-10T10:28:43Z</time>
      </trkpt>
      <trkpt lat="46.02859" lon="4.70664">
        <ele>190</ele>
        <time>2016-09-10T10:28:44Z</time>
      </trkpt>
      <trkpt lat="46.02852" lon="4.70665">
        <ele>190</ele>
        <time>2016-09-10T10:28:45Z</time>
      </trkpt>
      <trkpt lat="46.02846" lon="4.70666">
        <ele>190</ele>
        <time>2016-09-10T10:28:46Z</time>
      </trkpt>
      <trkpt lat="46.0284" lon="4.70667">
        <ele>189</ele>
        <time>2016-09-10T10:28:47Z</time>
      </trkpt>
      <trkpt lat="46.02834" lon="4.70668">
        <ele>189</ele>
        <time>2016-09-10T10:28:48Z</time>
      </trkpt>
      <trkpt lat="46.02828" lon="4.70669">
        <ele>189</ele>
        <time>2016-09-10T10:28:49Z</time>
      </trkpt>
      <trkpt lat="46.02822" lon="4.7067">
        <ele>189</ele>
        <time>2016-09-10T10:28:50Z</time>
      </trkpt>
      <trkpt lat="46.02816" lon="4.70671">
        <ele>189</ele>
        <time>2016-09-10T10:28:51Z</time>
      </trkpt>
      <trkpt lat="46.02811" lon="4.70672">
        <ele>189</ele>
        <time>2016-09-10T10:28:52Z</time>
      </trkpt>
      <trkpt lat="46.02805" lon="4.70673">
        <ele>189</ele>
        <time>2016-09-10T10:28:53Z</time>
      </trkpt>
      <trkpt lat="46.028" lon="4.70674">
        <ele>189</ele>
        <time>2016-09-10T10:28:54Z</time>
      </trkpt>
      <trkpt lat="46.02794" lon="4.70675">
        <ele>189</ele>
        <time>2016-09-10T10:28:55Z</time>
      </trkpt>
      <trkpt lat="46.02789" lon="4.70674">
        <ele>189</ele>
        <time>2016-09-10T10:28:56Z</time>
      </trkpt>
      <trkpt lat="46.02782" lon="4.70674">
        <ele>189</ele>
        <time>2016-09-10T10:28:57Z</time>
      </trkpt>
      <trkpt lat="46.02776" lon="4.70674">
        <ele>189</ele>
        <time>2016-09-10T10:28:58Z</time>
      </trkpt>
      <trkpt lat="46.0277" lon="4.70674">
        <ele>189</ele>
        <time>2016-09-10T10:28:59Z</time>
      </trkpt>
      <trkpt lat="46.02764" lon="4.70674">
        <ele>189</ele>
        <time>2016-09-10T10:29:00Z</time>
      </trkpt>
      <trkpt lat="46.02758" lon="4.70673">
        <ele>189</ele>
        <time>2016-09-10T10:29:01Z</time>
      </trkpt>
      <trkpt lat="46.02752" lon="4.70672">
        <ele>189</ele>
        <time>2016-09-10T10:29:02Z</time>
      </trkpt>
      <trkpt lat="46.02747" lon="4.70671">
        <ele>189</ele>
        <time>2016-09-10T10:29:03Z</time>
      </trkpt>
      <trkpt lat="46.02741" lon="4.7067">
        <ele>189</ele>
        <time>2016-09-10T10:29:04Z</time>
      </trkpt>
      <trkpt lat="46.02736" lon="4.70669">
        <ele>189</ele>
        <time>2016-09-10T10:29:05Z</time>
      </trkpt>
      <trkpt lat="46.0273" lon="4.70668">
        <ele>189</ele>
        <time>2016-09-10T10:29:06Z</time>
      </trkpt>
      <trkpt lat="46.02725" lon="4.70667">
        <ele>189</ele>
        <time>2016-09-10T10:29:07Z</time>
      </trkpt>
      <trkpt lat="46.0272" lon="4.70666">
        <ele>189</ele>
        <time>2016-09-10T10:29:08Z</time>
      </trkpt>
      <trkpt lat="46.02715" lon="4.70665">
        <ele>189</ele>
        <time>2016-09-10T10:29:09Z</time>
      </trkpt>
      <trkpt lat="46.02709" lon="4.70665">
        <ele>189</ele>
        <time>2016-09-10T10:29:10Z</time>
      </trkpt>
      <trkpt lat="46.02704" lon="4.70664">
        <ele>189</ele>
        <time>2016-09-10T10:29:11Z</time>
      </trkpt>
      <trkpt lat="46.02698" lon="4.70663">
        <ele>189</ele>
        <time>2016-09-10T10:29:12Z</time>
      </trkpt>
      <trkpt lat="46.02693" lon="4.70663">
        <ele>189</ele>
        <time>2016-09-10T10:29:13Z</time>
      </trkpt>
      <trkpt lat="46.02688" lon="4.70662">
        <ele>190</ele>
        <time>2016-09-10T10:29:14Z</time>
      </trkpt>
      <trkpt lat="46.02683" lon="4.70662">
        <ele>190</ele>
        <time>2016-09-10T10:29:15Z</time>
      </trkpt>
      <trkpt lat="46.02678" lon="4.70661">
        <ele>190</ele>
        <time>2016-09-10T10:29:16Z</time>
      </trkpt>
      <trkpt lat="46.02673" lon="4.7066">
        <ele>190</ele>
        <time>2016-09-10T10:29:17Z</time>
      </trkpt>
      <trkpt lat="46.02668" lon="4.7066">
        <ele>190</ele>
        <time>2016-09-10T10:29:18Z</time>
      </trkpt>
      <trkpt lat="46.02663" lon="4.70659">
        <ele>190</ele>
        <time>2016-09-10T10:29:19Z</time>
      </trkpt>
      <trkpt lat="46.02657" lon="4.70659">
        <ele>190</ele>
        <time>2016-09-10T10:29:20Z</time>
      </trkpt>
      <trkpt lat="46.02652" lon="4.70659">
        <ele>190</ele>
        <time>2016-09-10T10:29:21Z</time>
      </trkpt>
      <trkpt lat="46.02647" lon="4.70658">
        <ele>190</ele>
        <time>2016-09-10T10:29:22Z</time>
      </trkpt>
      <trkpt lat="46.02641" lon="4.70657">
        <ele>190</ele>
        <time>2016-09-10T10:29:23Z</time>
      </trkpt>
      <trkpt lat="46.02636" lon="4.70656">
        <ele>190</ele>
        <time>2016-09-10T10:29:24Z</time>
      </trkpt>
      <trkpt lat="46.02631" lon="4.70655">
        <ele>190</ele>
        <time>2016-09-10T10:29:25Z</time>
      </trkpt>
      <trkpt lat="46.02625" lon="4.70654">
        <ele>190</ele>
        <time>2016-09-10T10:29:26Z</time>
      </trkpt>
      <trkpt lat="46.0262" lon="4.70654">
        <ele>190</ele>
        <time>2016-09-10T10:29:27Z</time>
      </trkpt>
      <trkpt lat="46.02614" lon="4.70653">
        <ele>190</ele>
        <time>2016-09-10T10:29:28Z</time>
      </trkpt>
      <trkpt lat="46.02608" lon="4.70652">
        <ele>190</ele>
        <time>2016-09-10T10:29:29Z</time>
      </trkpt>
      <trkpt lat="46.02602" lon="4.7065">
        <ele>190</ele>
        <time>2016-09-10T10:29:30Z</time>
      </trkpt>
      <trkpt lat="46.02596" lon="4.7065">
        <ele>190</ele>
        <time>2016-09-10T10:29:31Z</time>
      </trkpt>
      <trkpt lat="46.0259" lon="4.70648">
        <ele>190</ele>
        <time>2016-09-10T10:29:32Z</time>
      </trkpt>
      <trkpt lat="46.02584" lon="4.70647">
        <ele>190</ele>
        <time>2016-09-10T10:29:33Z</time>
      </trkpt>
      <trkpt lat="46.02578" lon="4.70645">
        <ele>190</ele>
        <time>2016-09-10T10:29:34Z</time>
      </trkpt>
      <trkpt lat="46.02572" lon="4.70644">
        <ele>190</ele>
        <time>2016-09-10T10:29:35Z</time>
      </trkpt>
      <trkpt lat="46.02567" lon="4.70643">
        <ele>189</ele>
        <time>2016-09-10T10:29:36Z</time>
      </trkpt>
      <trkpt lat="46.02561" lon="4.70641">
        <ele>189</ele>
        <time>2016-09-10T10:29:37Z</time>
      </trkpt>
      <trkpt lat="46.02556" lon="4.70639">
        <ele>189</ele>
        <time>2016-09-10T10:29:38Z</time>
      </trkpt>
      <trkpt lat="46.0255" lon="4.70638">
        <ele>189</ele>
        <time>2016-09-10T10:29:39Z</time>
      </trkpt>
      <trkpt lat="46.02545" lon="4.70636">
        <ele>189</ele>
        <time>2016-09-10T10:29:40Z</time>
      </trkpt>
      <trkpt lat="46.02538" lon="4.70633">
        <ele>189</ele>
        <time>2016-09-10T10:29:41Z</time>
      </trkpt>
      <trkpt lat="46.02533" lon="4.7063">
        <ele>189</ele>
        <time>2016-09-10T10:29:42Z</time>
      </trkpt>
      <trkpt lat="46.02528" lon="4.70628">
        <ele>189</ele>
        <time>2016-09-10T10:29:43Z</time>
      </trkpt>
      <trkpt lat="46.02523" lon="4.70626">
        <ele>189</ele>
        <time>2016-09-10T10:29:44Z</time>
      </trkpt>
      <trkpt lat="46.02518" lon="4.70624">
        <ele>189</ele>
        <time>2016-09-10T10:29:45Z</time>
      </trkpt>
      <trkpt lat="46.02512" lon="4.70624">
        <ele>189</ele>
        <time>2016-09-10T10:29:46Z</time>
      </trkpt>
      <trkpt lat="46.02506" lon="4.70623">
        <ele>189</ele>
        <time>2016-09-10T10:29:47Z</time>
      </trkpt>
      <trkpt lat="46.02497" lon="4.70621">
        <ele>188</ele>
        <time>2016-09-10T10:29:49Z</time>
      </trkpt>
      <trkpt lat="46.02495" lon="4.7062">
        <ele>188</ele>
        <time>2016-09-10T10:29:50Z</time>
      </trkpt>
      <trkpt lat="46.02489" lon="4.70618">
        <ele>188</ele>
        <time>2016-09-10T10:29:52Z</time>
      </trkpt>
      <trkpt lat="46.02485" lon="4.70617">
        <ele>188</ele>
        <time>2016-09-10T10:29:53Z</time>
      </trkpt>
      <trkpt lat="46.0248" lon="4.70621">
        <ele>188</ele>
        <time>2016-09-10T10:29:55Z</time>
      </trkpt>
      <trkpt lat="46.02478" lon="4.70626">
        <ele>188</ele>
        <time>2016-09-10T10:29:56Z</time>
      </trkpt>
      <trkpt lat="46.02475" lon="4.70636">
        <ele>188</ele>
        <time>2016-09-10T10:29:58Z</time>
      </trkpt>
      <trkpt lat="46.02473" lon="4.70643">
        <ele>189</ele>
        <time>2016-09-10T10:29:59Z</time>
      </trkpt>
      <trkpt lat="46.02472" lon="4.70651">
        <ele>189</ele>
        <time>2016-09-10T10:30:00Z</time>
      </trkpt>
      <trkpt lat="46.0247" lon="4.70658">
        <ele>189</ele>
        <time>2016-09-10T10:30:01Z</time>
      </trkpt>
      <trkpt lat="46.02468" lon="4.70665">
        <ele>189</ele>
        <time>2016-09-10T10:30:02Z</time>
      </trkpt>
      <trkpt lat="46.02466" lon="4.70673">
        <ele>190</ele>
        <time>2016-09-10T10:30:03Z</time>
      </trkpt>
      <trkpt lat="46.02465" lon="4.70681">
        <ele>190</ele>
        <time>2016-09-10T10:30:04Z</time>
      </trkpt>
      <trkpt lat="46.02462" lon="4.70689">
        <ele>190</ele>
        <time>2016-09-10T10:30:05Z</time>
      </trkpt>
      <trkpt lat="46.02459" lon="4.70696">
        <ele>190</ele>
        <time>2016-09-10T10:30:06Z</time>
      </trkpt>
      <trkpt lat="46.02457" lon="4.70703">
        <ele>190</ele>
        <time>2016-09-10T10:30:07Z</time>
      </trkpt>
      <trkpt lat="46.02454" lon="4.7071">
        <ele>190</ele>
        <time>2016-09-10T10:30:08Z</time>
      </trkpt>
      <trkpt lat="46.02452" lon="4.70717">
        <ele>190</ele>
        <time>2016-09-10T10:30:09Z</time>
      </trkpt>
      <trkpt lat="46.02449" lon="4.70723">
        <ele>190</ele>
        <time>2016-09-10T10:30:10Z</time>
      </trkpt>
      <trkpt lat="46.02447" lon="4.70729">
        <ele>190</ele>
        <time>2016-09-10T10:30:11Z</time>
      </trkpt>
      <trkpt lat="46.02444" lon="4.70736">
        <ele>190</ele>
        <time>2016-09-10T10:30:12Z</time>
      </trkpt>
      <trkpt lat="46.0244" lon="4.70742">
        <ele>189</ele>
        <time>2016-09-10T10:30:13Z</time>
      </trkpt>
      <trkpt lat="46.02436" lon="4.70747">
        <ele>189</ele>
        <time>2016-09-10T10:30:14Z</time>
      </trkpt>
      <trkpt lat="46.02432" lon="4.70752">
        <ele>189</ele>
        <time>2016-09-10T10:30:15Z</time>
      </trkpt>
      <trkpt lat="46.02428" lon="4.70756">
        <ele>189</ele>
        <time>2016-09-10T10:30:16Z</time>
      </trkpt>
      <trkpt lat="46.02422" lon="4.70761">
        <ele>189</ele>
        <time>2016-09-10T10:30:17Z</time>
      </trkpt>
      <trkpt lat="46.02417" lon="4.70768">
        <ele>189</ele>
        <time>2016-09-10T10:30:18Z</time>
      </trkpt>
      <trkpt lat="46.02412" lon="4.70772">
        <ele>186</ele>
        <time>2016-09-10T10:30:19Z</time>
      </trkpt>
      <trkpt lat="46.02406" lon="4.70775">
        <ele>185</ele>
        <time>2016-09-10T10:30:20Z</time>
      </trkpt>
      <trkpt lat="46.024" lon="4.70777">
        <ele>185</ele>
        <time>2016-09-10T10:30:21Z</time>
      </trkpt>
      <trkpt lat="46.02394" lon="4.70777">
        <ele>185</ele>
        <time>2016-09-10T10:30:22Z</time>
      </trkpt>
      <trkpt lat="46.02387" lon="4.70777">
        <ele>184</ele>
        <time>2016-09-10T10:30:23Z</time>
      </trkpt>
      <trkpt lat="46.02381" lon="4.70776">
        <ele>184</ele>
        <time>2016-09-10T10:30:24Z</time>
      </trkpt>
      <trkpt lat="46.02373" lon="4.70775">
        <ele>184</ele>
        <time>2016-09-10T10:30:25Z</time>
      </trkpt>
      <trkpt lat="46.02366" lon="4.70774">
        <ele>183</ele>
        <time>2016-09-10T10:30:26Z</time>
      </trkpt>
      <trkpt lat="46.02359" lon="4.70774">
        <ele>183</ele>
        <time>2016-09-10T10:30:27Z</time>
      </trkpt>
      <trkpt lat="46.02352" lon="4.70773">
        <ele>183</ele>
        <time>2016-09-10T10:30:28Z</time>
      </trkpt>
      <trkpt lat="46.02345" lon="4.70772">
        <ele>182</ele>
        <time>2016-09-10T10:30:29Z</time>
      </trkpt>
      <trkpt lat="46.02337" lon="4.70771">
        <ele>182</ele>
        <time>2016-09-10T10:30:30Z</time>
      </trkpt>
      <trkpt lat="46.0233" lon="4.70769">
        <ele>180</ele>
        <time>2016-09-10T10:30:31Z</time>
      </trkpt>
      <trkpt lat="46.02322" lon="4.70768">
        <ele>180</ele>
        <time>2016-09-10T10:30:32Z</time>
      </trkpt>
      <trkpt lat="46.02315" lon="4.70767">
        <ele>180</ele>
        <time>2016-09-10T10:30:33Z</time>
      </trkpt>
      <trkpt lat="46.02307" lon="4.70766">
        <ele>180</ele>
        <time>2016-09-10T10:30:34Z</time>
      </trkpt>
      <trkpt lat="46.023" lon="4.70764">
        <ele>180</ele>
        <time>2016-09-10T10:30:35Z</time>
      </trkpt>
      <trkpt lat="46.02293" lon="4.70763">
        <ele>180</ele>
        <time>2016-09-10T10:30:36Z</time>
      </trkpt>
      <trkpt lat="46.02286" lon="4.70763">
        <ele>181</ele>
        <time>2016-09-10T10:30:37Z</time>
      </trkpt>
      <trkpt lat="46.02279" lon="4.70762">
        <ele>181</ele>
        <time>2016-09-10T10:30:38Z</time>
      </trkpt>
      <trkpt lat="46.02272" lon="4.7076">
        <ele>181</ele>
        <time>2016-09-10T10:30:39Z</time>
      </trkpt>
      <trkpt lat="46.02265" lon="4.70759">
        <ele>181</ele>
        <time>2016-09-10T10:30:40Z</time>
      </trkpt>
      <trkpt lat="46.02258" lon="4.70758">
        <ele>181</ele>
        <time>2016-09-10T10:30:41Z</time>
      </trkpt>
      <trkpt lat="46.02251" lon="4.70757">
        <ele>181</ele>
        <time>2016-09-10T10:30:42Z</time>
      </trkpt>
      <trkpt lat="46.02245" lon="4.70756">
        <ele>181</ele>
        <time>2016-09-10T10:30:43Z</time>
      </trkpt>
      <trkpt lat="46.02238" lon="4.70754">
        <ele>180</ele>
        <time>2016-09-10T10:30:44Z</time>
      </trkpt>
      <trkpt lat="46.02232" lon="4.70753">
        <ele>180</ele>
        <time>2016-09-10T10:30:45Z</time>
      </trkpt>
      <trkpt lat="46.02226" lon="4.70752">
        <ele>180</ele>
        <time>2016-09-10T10:30:46Z</time>
      </trkpt>
      <trkpt lat="46.02219" lon="4.70751">
        <ele>180</ele>
        <time>2016-09-10T10:30:47Z</time>
      </trkpt>
      <trkpt lat="46.02212" lon="4.70749">
        <ele>180</ele>
        <time>2016-09-10T10:30:48Z</time>
      </trkpt>
      <trkpt lat="46.02206" lon="4.70747">
        <ele>180</ele>
        <time>2016-09-10T10:30:49Z</time>
      </trkpt>
      <trkpt lat="46.02199" lon="4.70746">
        <ele>180</ele>
        <time>2016-09-10T10:30:50Z</time>
      </trkpt>
      <trkpt lat="46.02192" lon="4.70744">
        <ele>180</ele>
        <time>2016-09-10T10:30:51Z</time>
      </trkpt>
      <trkpt lat="46.02186" lon="4.70743">
        <ele>180</ele>
        <time>2016-09-10T10:30:52Z</time>
      </trkpt>
      <trkpt lat="46.02179" lon="4.70741">
        <ele>180</ele>
        <time>2016-09-10T10:30:53Z</time>
      </trkpt>
      <trkpt lat="46.02172" lon="4.70739">
        <ele>180</ele>
        <time>2016-09-10T10:30:54Z</time>
      </trkpt>
      <trkpt lat="46.02165" lon="4.70737">
        <ele>179</ele>
        <time>2016-09-10T10:30:55Z</time>
      </trkpt>
      <trkpt lat="46.02158" lon="4.70736">
        <ele>179</ele>
        <time>2016-09-10T10:30:56Z</time>
      </trkpt>
      <trkpt lat="46.0215" lon="4.70735">
        <ele>179</ele>
        <time>2016-09-10T10:30:57Z</time>
      </trkpt>
      <trkpt lat="46.02144" lon="4.70734">
        <ele>179</ele>
        <time>2016-09-10T10:30:58Z</time>
      </trkpt>
      <trkpt lat="46.02137" lon="4.70733">
        <ele>179</ele>
        <time>2016-09-10T10:30:59Z</time>
      </trkpt>
      <trkpt lat="46.0213" lon="4.70731">
        <ele>179</ele>
        <time>2016-09-10T10:31:00Z</time>
      </trkpt>
      <trkpt lat="46.02123" lon="4.7073">
        <ele>179</ele>
        <time>2016-09-10T10:31:01Z</time>
      </trkpt>
      <trkpt lat="46.02117" lon="4.70729">
        <ele>179</ele>
        <time>2016-09-10T10:31:02Z</time>
      </trkpt>
      <trkpt lat="46.02111" lon="4.70728">
        <ele>179</ele>
        <time>2016-09-10T10:31:03Z</time>
      </trkpt>
      <trkpt lat="46.02105" lon="4.70727">
        <ele>179</ele>
        <time>2016-09-10T10:31:04Z</time>
      </trkpt>
      <trkpt lat="46.02099" lon="4.70726">
        <ele>178</ele>
        <time>2016-09-10T10:31:05Z</time>
      </trkpt>
      <trkpt lat="46.02094" lon="4.70725">
        <ele>178</ele>
        <time>2016-09-10T10:31:06Z</time>
      </trkpt>
      <trkpt lat="46.02089" lon="4.70724">
        <ele>178</ele>
        <time>2016-09-10T10:31:07Z</time>
      </trkpt>
      <trkpt lat="46.02083" lon="4.70723">
        <ele>178</ele>
        <time>2016-09-10T10:31:08Z</time>
      </trkpt>
      <trkpt lat="46.02078" lon="4.70722">
        <ele>178</ele>
        <time>2016-09-10T10:31:09Z</time>
      </trkpt>
      <trkpt lat="46.02072" lon="4.7072">
        <ele>179</ele>
        <time>2016-09-10T10:31:10Z</time>
      </trkpt>
      <trkpt lat="46.02066" lon="4.70719">
        <ele>179</ele>
        <time>2016-09-10T10:31:11Z</time>
      </trkpt>
      <trkpt lat="46.02061" lon="4.70718">
        <ele>179</ele>
        <time>2016-09-10T10:31:12Z</time>
      </trkpt>
      <trkpt lat="46.02055" lon="4.70717">
        <ele>179</ele>
        <time>2016-09-10T10:31:13Z</time>
      </trkpt>
      <trkpt lat="46.02049" lon="4.70716">
        <ele>179</ele>
        <time>2016-09-10T10:31:14Z</time>
      </trkpt>
      <trkpt lat="46.02042" lon="4.70715">
        <ele>179</ele>
        <time>2016-09-10T10:31:15Z</time>
      </trkpt>
      <trkpt lat="46.02036" lon="4.70714">
        <ele>179</ele>
        <time>2016-09-10T10:31:16Z</time>
      </trkpt>
      <trkpt lat="46.0203" lon="4.70713">
        <ele>179</ele>
        <time>2016-09-10T10:31:17Z</time>
      </trkpt>
      <trkpt lat="46.02024" lon="4.70711">
        <ele>179</ele>
        <time>2016-09-10T10:31:18Z</time>
      </trkpt>
      <trkpt lat="46.02019" lon="4.70711">
        <ele>179</ele>
        <time>2016-09-10T10:31:19Z</time>
      </trkpt>
      <trkpt lat="46.02014" lon="4.70709">
        <ele>179</ele>
        <time>2016-09-10T10:31:20Z</time>
      </trkpt>
      <trkpt lat="46.02009" lon="4.70708">
        <ele>179</ele>
        <time>2016-09-10T10:31:21Z</time>
      </trkpt>
      <trkpt lat="46.02005" lon="4.70706">
        <ele>179</ele>
        <time>2016-09-10T10:31:22Z</time>
      </trkpt>
      <trkpt lat="46.02" lon="4.70705">
        <ele>181</ele>
        <time>2016-09-10T10:31:23Z</time>
      </trkpt>
      <trkpt lat="46.01995" lon="4.70703">
        <ele>181</ele>
        <time>2016-09-10T10:31:24Z</time>
      </trkpt>
      <trkpt lat="46.01991" lon="4.70703">
        <ele>181</ele>
        <time>2016-09-10T10:31:25Z</time>
      </trkpt>
      <trkpt lat="46.01985" lon="4.70702">
        <ele>181</ele>
        <time>2016-09-10T10:31:26Z</time>
      </trkpt>
      <trkpt lat="46.0198" lon="4.70701">
        <ele>181</ele>
        <time>2016-09-10T10:31:27Z</time>
      </trkpt>
      <trkpt lat="46.01975" lon="4.707">
        <ele>181</ele>
        <time>2016-09-10T10:31:28Z</time>
      </trkpt>
      <trkpt lat="46.01969" lon="4.70699">
        <ele>181</ele>
        <time>2016-09-10T10:31:29Z</time>
      </trkpt>
      <trkpt lat="46.01964" lon="4.70697">
        <ele>181</ele>
        <time>2016-09-10T10:31:30Z</time>
      </trkpt>
      <trkpt lat="46.01958" lon="4.70697">
        <ele>181</ele>
        <time>2016-09-10T10:31:31Z</time>
      </trkpt>
      <trkpt lat="46.01952" lon="4.70696">
        <ele>181</ele>
        <time>2016-09-10T10:31:32Z</time>
      </trkpt>
      <trkpt lat="46.01946" lon="4.70696">
        <ele>182</ele>
        <time>2016-09-10T10:31:33Z</time>
      </trkpt>
      <trkpt lat="46.01938" lon="4.70695">
        <ele>182</ele>
        <time>2016-09-10T10:31:35Z</time>
      </trkpt>
      <trkpt lat="46.01933" lon="4.70694">
        <ele>182</ele>
        <time>2016-09-10T10:31:36Z</time>
      </trkpt>
      <trkpt lat="46.01928" lon="4.70693">
        <ele>182</ele>
        <time>2016-09-10T10:31:37Z</time>
      </trkpt>
      <trkpt lat="46.01923" lon="4.70693">
        <ele>182</ele>
        <time>2016-09-10T10:31:38Z</time>
      </trkpt>
      <trkpt lat="46.01917" lon="4.70692">
        <ele>182</ele>
        <time>2016-09-10T10:31:39Z</time>
      </trkpt>
      <trkpt lat="46.01912" lon="4.70691">
        <ele>184</ele>
        <time>2016-09-10T10:31:40Z</time>
      </trkpt>
      <trkpt lat="46.01907" lon="4.70691">
        <ele>184</ele>
        <time>2016-09-10T10:31:41Z</time>
      </trkpt>
      <trkpt lat="46.01902" lon="4.70691">
        <ele>184</ele>
        <time>2016-09-10T10:31:42Z</time>
      </trkpt>
      <trkpt lat="46.01897" lon="4.70691">
        <ele>184</ele>
        <time>2016-09-10T10:31:43Z</time>
      </trkpt>
      <trkpt lat="46.01891" lon="4.70691">
        <ele>184</ele>
        <time>2016-09-10T10:31:44Z</time>
      </trkpt>
      <trkpt lat="46.01885" lon="4.70691">
        <ele>185</ele>
        <time>2016-09-10T10:31:45Z</time>
      </trkpt>
      <trkpt lat="46.0188" lon="4.70691">
        <ele>185</ele>
        <time>2016-09-10T10:31:46Z</time>
      </trkpt>
      <trkpt lat="46.01874" lon="4.70692">
        <ele>185</ele>
        <time>2016-09-10T10:31:47Z</time>
      </trkpt>
      <trkpt lat="46.01869" lon="4.70693">
        <ele>185</ele>
        <time>2016-09-10T10:31:48Z</time>
      </trkpt>
      <trkpt lat="46.01865" lon="4.70694">
        <ele>185</ele>
        <time>2016-09-10T10:31:49Z</time>
      </trkpt>
      <trkpt lat="46.0186" lon="4.70695">
        <ele>185</ele>
        <time>2016-09-10T10:31:50Z</time>
      </trkpt>
      <trkpt lat="46.01854" lon="4.70695">
        <ele>185</ele>
        <time>2016-09-10T10:31:51Z</time>
      </trkpt>
      <trkpt lat="46.01849" lon="4.70696">
        <ele>185</ele>
        <time>2016-09-10T10:31:52Z</time>
      </trkpt>
      <trkpt lat="46.01844" lon="4.70696">
        <ele>185</ele>
        <time>2016-09-10T10:31:53Z</time>
      </trkpt>
      <trkpt lat="46.01839" lon="4.70696">
        <ele>185</ele>
        <time>2016-09-10T10:31:54Z</time>
      </trkpt>
      <trkpt lat="46.01834" lon="4.70696">
        <ele>185</ele>
        <time>2016-09-10T10:31:55Z</time>
      </trkpt>
      <trkpt lat="46.01829" lon="4.70697">
        <ele>187</ele>
        <time>2016-09-10T10:31:56Z</time>
      </trkpt>
      <trkpt lat="46.01824" lon="4.70698">
        <ele>187</ele>
        <time>2016-09-10T10:31:57Z</time>
      </trkpt>
      <trkpt lat="46.01819" lon="4.70699">
        <ele>187</ele>
        <time>2016-09-10T10:31:58Z</time>
      </trkpt>
      <trkpt lat="46.01813" lon="4.707">
        <ele>187</ele>
        <time>2016-09-10T10:31:59Z</time>
      </trkpt>
      <trkpt lat="46.01808" lon="4.707">
        <ele>187</ele>
        <time>2016-09-10T10:32:00Z</time>
      </trkpt>
      <trkpt lat="46.01802" lon="4.707">
        <ele>187</ele>
        <time>2016-09-10T10:32:01Z</time>
      </trkpt>
      <trkpt lat="46.01796" lon="4.707">
        <ele>187</ele>
        <time>2016-09-10T10:32:02Z</time>
      </trkpt>
      <trkpt lat="46.01791" lon="4.70701">
        <ele>187</ele>
        <time>2016-09-10T10:32:03Z</time>
      </trkpt>
      <trkpt lat="46.01786" lon="4.70701">
        <ele>187</ele>
        <time>2016-09-10T10:32:04Z</time>
      </trkpt>
      <trkpt lat="46.01781" lon="4.70701">
        <ele>187</ele>
        <time>2016-09-10T10:32:05Z</time>
      </trkpt>
      <trkpt lat="46.01776" lon="4.70702">
        <ele>187</ele>
        <time>2016-09-10T10:32:06Z</time>
      </trkpt>
      <trkpt lat="46.01771" lon="4.70703">
        <ele>187</ele>
        <time>2016-09-10T10:32:07Z</time>
      </trkpt>
      <trkpt lat="46.01766" lon="4.70703">
        <ele>187</ele>
        <time>2016-09-10T10:32:08Z</time>
      </trkpt>
      <trkpt lat="46.01761" lon="4.70703">
        <ele>187</ele>
        <time>2016-09-10T10:32:09Z</time>
      </trkpt>
      <trkpt lat="46.01756" lon="4.70703">
        <ele>187</ele>
        <time>2016-09-10T10:32:10Z</time>
      </trkpt>
      <trkpt lat="46.01751" lon="4.70704">
        <ele>187</ele>
        <time>2016-09-10T10:32:11Z</time>
      </trkpt>
      <trkpt lat="46.01746" lon="4.70705">
        <ele>188</ele>
        <time>2016-09-10T10:32:12Z</time>
      </trkpt>
      <trkpt lat="46.01741" lon="4.70705">
        <ele>188</ele>
        <time>2016-09-10T10:32:13Z</time>
      </trkpt>
      <trkpt lat="46.01735" lon="4.70705">
        <ele>188</ele>
        <time>2016-09-10T10:32:14Z</time>
      </trkpt>
      <trkpt lat="46.0173" lon="4.70705">
        <ele>188</ele>
        <time>2016-09-10T10:32:15Z</time>
      </trkpt>
      <trkpt lat="46.01724" lon="4.70705">
        <ele>188</ele>
        <time>2016-09-10T10:32:16Z</time>
      </trkpt>
      <trkpt lat="46.01719" lon="4.70705">
        <ele>188</ele>
        <time>2016-09-10T10:32:17Z</time>
      </trkpt>
      <trkpt lat="46.01713" lon="4.70707">
        <ele>188</ele>
        <time>2016-09-10T10:32:18Z</time>
      </trkpt>
      <trkpt lat="46.01708" lon="4.70708">
        <ele>189</ele>
        <time>2016-09-10T10:32:19Z</time>
      </trkpt>
      <trkpt lat="46.01703" lon="4.70709">
        <ele>189</ele>
        <time>2016-09-10T10:32:20Z</time>
      </trkpt>
      <trkpt lat="46.01699" lon="4.7071">
        <ele>189</ele>
        <time>2016-09-10T10:32:21Z</time>
      </trkpt>
      <trkpt lat="46.01693" lon="4.7071">
        <ele>189</ele>
        <time>2016-09-10T10:32:22Z</time>
      </trkpt>
      <trkpt lat="46.01688" lon="4.7071">
        <ele>189</ele>
        <time>2016-09-10T10:32:23Z</time>
      </trkpt>
      <trkpt lat="46.01683" lon="4.70711">
        <ele>189</ele>
        <time>2016-09-10T10:32:24Z</time>
      </trkpt>
      <trkpt lat="46.01677" lon="4.70711">
        <ele>189</ele>
        <time>2016-09-10T10:32:25Z</time>
      </trkpt>
      <trkpt lat="46.01672" lon="4.70711">
        <ele>189</ele>
        <time>2016-09-10T10:32:26Z</time>
      </trkpt>
      <trkpt lat="46.01667" lon="4.70712">
        <ele>189</ele>
        <time>2016-09-10T10:32:27Z</time>
      </trkpt>
      <trkpt lat="46.01662" lon="4.70712">
        <ele>190</ele>
        <time>2016-09-10T10:32:28Z</time>
      </trkpt>
      <trkpt lat="46.01657" lon="4.70712">
        <ele>190</ele>
        <time>2016-09-10T10:32:29Z</time>
      </trkpt>
      <trkpt lat="46.01651" lon="4.70713">
        <ele>190</ele>
        <time>2016-09-10T10:32:30Z</time>
      </trkpt>
      <trkpt lat="46.01646" lon="4.70714">
        <ele>190</ele>
        <time>2016-09-10T10:32:31Z</time>
      </trkpt>
      <trkpt lat="46.01641" lon="4.70714">
        <ele>190</ele>
        <time>2016-09-10T10:32:32Z</time>
      </trkpt>
      <trkpt lat="46.01636" lon="4.70714">
        <ele>190</ele>
        <time>2016-09-10T10:32:33Z</time>
      </trkpt>
      <trkpt lat="46.01631" lon="4.70715">
        <ele>190</ele>
        <time>2016-09-10T10:32:34Z</time>
      </trkpt>
      <trkpt lat="46.01626" lon="4.70715">
        <ele>190</ele>
        <time>2016-09-10T10:32:35Z</time>
      </trkpt>
      <trkpt lat="46.0162" lon="4.70716">
        <ele>190</ele>
        <time>2016-09-10T10:32:36Z</time>
      </trkpt>
      <trkpt lat="46.01615" lon="4.70716">
        <ele>190</ele>
        <time>2016-09-10T10:32:37Z</time>
      </trkpt>
      <trkpt lat="46.0161" lon="4.70717">
        <ele>190</ele>
        <time>2016-09-10T10:32:38Z</time>
      </trkpt>
      <trkpt lat="46.01605" lon="4.70717">
        <ele>190</ele>
        <time>2016-09-10T10:32:39Z</time>
      </trkpt>
      <trkpt lat="46.016" lon="4.70718">
        <ele>190</ele>
        <time>2016-09-10T10:32:40Z</time>
      </trkpt>
      <trkpt lat="46.01595" lon="4.70718">
        <ele>190</ele>
        <time>2016-09-10T10:32:41Z</time>
      </trkpt>
      <trkpt lat="46.0159" lon="4.70719">
        <ele>190</ele>
        <time>2016-09-10T10:32:42Z</time>
      </trkpt>
      <trkpt lat="46.01585" lon="4.70719">
        <ele>190</ele>
        <time>2016-09-10T10:32:43Z</time>
      </trkpt>
      <trkpt lat="46.0158" lon="4.7072">
        <ele>190</ele>
        <time>2016-09-10T10:32:44Z</time>
      </trkpt>
      <trkpt lat="46.01575" lon="4.70721">
        <ele>190</ele>
        <time>2016-09-10T10:32:45Z</time>
      </trkpt>
      <trkpt lat="46.0157" lon="4.70722">
        <ele>190</ele>
        <time>2016-09-10T10:32:46Z</time>
      </trkpt>
      <trkpt lat="46.01564" lon="4.70723">
        <ele>190</ele>
        <time>2016-09-10T10:32:47Z</time>
      </trkpt>
      <trkpt lat="46.01559" lon="4.70724">
        <ele>190</ele>
        <time>2016-09-10T10:32:48Z</time>
      </trkpt>
      <trkpt lat="46.01554" lon="4.70726">
        <ele>190</ele>
        <time>2016-09-10T10:32:49Z</time>
      </trkpt>
      <trkpt lat="46.01548" lon="4.70727">
        <ele>190</ele>
        <time>2016-09-10T10:32:50Z</time>
      </trkpt>
      <trkpt lat="46.01542" lon="4.70728">
        <ele>190</ele>
        <time>2016-09-10T10:32:51Z</time>
      </trkpt>
      <trkpt lat="46.01536" lon="4.70729">
        <ele>190</ele>
        <time>2016-09-10T10:32:52Z</time>
      </trkpt>
      <trkpt lat="46.01531" lon="4.70728">
        <ele>190</ele>
        <time>2016-09-10T10:32:53Z</time>
      </trkpt>
      <trkpt lat="46.01526" lon="4.70729">
        <ele>190</ele>
        <time>2016-09-10T10:32:54Z</time>
      </trkpt>
      <trkpt lat="46.0152" lon="4.70729">
        <ele>190</ele>
        <time>2016-09-10T10:32:55Z</time>
      </trkpt>
      <trkpt lat="46.01515" lon="4.7073">
        <ele>190</ele>
        <time>2016-09-10T10:32:56Z</time>
      </trkpt>
      <trkpt lat="46.01509" lon="4.70731">
        <ele>190</ele>
        <time>2016-09-10T10:32:57Z</time>
      </trkpt>
      <trkpt lat="46.01504" lon="4.70732">
        <ele>190</ele>
        <time>2016-09-10T10:32:58Z</time>
      </trkpt>
      <trkpt lat="46.01498" lon="4.70732">
        <ele>190</ele>
        <time>2016-09-10T10:32:59Z</time>
      </trkpt>
      <trkpt lat="46.01492" lon="4.70732">
        <ele>190</ele>
        <time>2016-09-10T10:33:00Z</time>
      </trkpt>
      <trkpt lat="46.01486" lon="4.70733">
        <ele>190</ele>
        <time>2016-09-10T10:33:01Z</time>
      </trkpt>
      <trkpt lat="46.0148" lon="4.70733">
        <ele>190</ele>
        <time>2016-09-10T10:33:02Z</time>
      </trkpt>
      <trkpt lat="46.01475" lon="4.70733">
        <ele>190</ele>
        <time>2016-09-10T10:33:03Z</time>
      </trkpt>
      <trkpt lat="46.01469" lon="4.70734">
        <ele>190</ele>
        <time>2016-09-10T10:33:04Z</time>
      </trkpt>
      <trkpt lat="46.01463" lon="4.70734">
        <ele>190</ele>
        <time>2016-09-10T10:33:05Z</time>
      </trkpt>
      <trkpt lat="46.01457" lon="4.70734">
        <ele>189</ele>
        <time>2016-09-10T10:33:06Z</time>
      </trkpt>
      <trkpt lat="46.01451" lon="4.70734">
        <ele>189</ele>
        <time>2016-09-10T10:33:07Z</time>
      </trkpt>
      <trkpt lat="46.01445" lon="4.70735">
        <ele>189</ele>
        <time>2016-09-10T10:33:08Z</time>
      </trkpt>
      <trkpt lat="46.01439" lon="4.70735">
        <ele>189</ele>
        <time>2016-09-10T10:33:09Z</time>
      </trkpt>
      <trkpt lat="46.01433" lon="4.70736">
        <ele>189</ele>
        <time>2016-09-10T10:33:10Z</time>
      </trkpt>
      <trkpt lat="46.01427" lon="4.70736">
        <ele>189</ele>
        <time>2016-09-10T10:33:11Z</time>
      </trkpt>
      <trkpt lat="46.01421" lon="4.70737">
        <ele>189</ele>
        <time>2016-09-10T10:33:12Z</time>
      </trkpt>
      <trkpt lat="46.01416" lon="4.70737">
        <ele>189</ele>
        <time>2016-09-10T10:33:13Z</time>
      </trkpt>
      <trkpt lat="46.0141" lon="4.70738">
        <ele>189</ele>
        <time>2016-09-10T10:33:14Z</time>
      </trkpt>
      <trkpt lat="46.01404" lon="4.70738">
        <ele>189</ele>
        <time>2016-09-10T10:33:15Z</time>
      </trkpt>
      <trkpt lat="46.01399" lon="4.70739">
        <ele>189</ele>
        <time>2016-09-10T10:33:16Z</time>
      </trkpt>
      <trkpt lat="46.01393" lon="4.70739">
        <ele>189</ele>
        <time>2016-09-10T10:33:17Z</time>
      </trkpt>
      <trkpt lat="46.01388" lon="4.7074">
        <ele>189</ele>
        <time>2016-09-10T10:33:18Z</time>
      </trkpt>
      <trkpt lat="46.01383" lon="4.7074">
        <ele>189</ele>
        <time>2016-09-10T10:33:19Z</time>
      </trkpt>
      <trkpt lat="46.01377" lon="4.70741">
        <ele>189</ele>
        <time>2016-09-10T10:33:20Z</time>
      </trkpt>
      <trkpt lat="46.01372" lon="4.70741">
        <ele>189</ele>
        <time>2016-09-10T10:33:21Z</time>
      </trkpt>
      <trkpt lat="46.01366" lon="4.70741">
        <ele>189</ele>
        <time>2016-09-10T10:33:22Z</time>
      </trkpt>
      <trkpt lat="46.01361" lon="4.70741">
        <ele>189</ele>
        <time>2016-09-10T10:33:23Z</time>
      </trkpt>
      <trkpt lat="46.01355" lon="4.70741">
        <ele>189</ele>
        <time>2016-09-10T10:33:24Z</time>
      </trkpt>
      <trkpt lat="46.0135" lon="4.70741">
        <ele>189</ele>
        <time>2016-09-10T10:33:25Z</time>
      </trkpt>
      <trkpt lat="46.01344" lon="4.70741">
        <ele>189</ele>
        <time>2016-09-10T10:33:26Z</time>
      </trkpt>
      <trkpt lat="46.01339" lon="4.7074">
        <ele>189</ele>
        <time>2016-09-10T10:33:27Z</time>
      </trkpt>
      <trkpt lat="46.01334" lon="4.7074">
        <ele>189</ele>
        <time>2016-09-10T10:33:28Z</time>
      </trkpt>
      <trkpt lat="46.01329" lon="4.70739">
        <ele>190</ele>
        <time>2016-09-10T10:33:29Z</time>
      </trkpt>
      <trkpt lat="46.01323" lon="4.70739">
        <ele>190</ele>
        <time>2016-09-10T10:33:30Z</time>
      </trkpt>
      <trkpt lat="46.01317" lon="4.70738">
        <ele>190</ele>
        <time>2016-09-10T10:33:31Z</time>
      </trkpt>
      <trkpt lat="46.01312" lon="4.70738">
        <ele>190</ele>
        <time>2016-09-10T10:33:32Z</time>
      </trkpt>
      <trkpt lat="46.01306" lon="4.70737">
        <ele>191</ele>
        <time>2016-09-10T10:33:33Z</time>
      </trkpt>
      <trkpt lat="46.01301" lon="4.70737">
        <ele>191</ele>
        <time>2016-09-10T10:33:34Z</time>
      </trkpt>
      <trkpt lat="46.01295" lon="4.70736">
        <ele>191</ele>
        <time>2016-09-10T10:33:35Z</time>
      </trkpt>
      <trkpt lat="46.0129" lon="4.70735">
        <ele>191</ele>
        <time>2016-09-10T10:33:36Z</time>
      </trkpt>
      <trkpt lat="46.01285" lon="4.70735">
        <ele>191</ele>
        <time>2016-09-10T10:33:37Z</time>
      </trkpt>
      <trkpt lat="46.0128" lon="4.70734">
        <ele>192</ele>
        <time>2016-09-10T10:33:38Z</time>
      </trkpt>
      <trkpt lat="46.01275" lon="4.70733">
        <ele>192</ele>
        <time>2016-09-10T10:33:39Z</time>
      </trkpt>
      <trkpt lat="46.0127" lon="4.70732">
        <ele>192</ele>
        <time>2016-09-10T10:33:40Z</time>
      </trkpt>
      <trkpt lat="46.01265" lon="4.7073">
        <ele>192</ele>
        <time>2016-09-10T10:33:41Z</time>
      </trkpt>
      <trkpt lat="46.01259" lon="4.70728">
        <ele>192</ele>
        <time>2016-09-10T10:33:42Z</time>
      </trkpt>
      <trkpt lat="46.01255" lon="4.70726">
        <ele>192</ele>
        <time>2016-09-10T10:33:43Z</time>
      </trkpt>
      <trkpt lat="46.0125" lon="4.70724">
        <ele>193</ele>
        <time>2016-09-10T10:33:44Z</time>
      </trkpt>
      <trkpt lat="46.01245" lon="4.70722">
        <ele>193</ele>
        <time>2016-09-10T10:33:45Z</time>
      </trkpt>
      <trkpt lat="46.0124" lon="4.7072">
        <ele>193</ele>
        <time>2016-09-10T10:33:46Z</time>
      </trkpt>
      <trkpt lat="46.01235" lon="4.70718">
        <ele>194</ele>
        <time>2016-09-10T10:33:47Z</time>
      </trkpt>
      <trkpt lat="46.0123" lon="4.70717">
        <ele>194</ele>
        <time>2016-09-10T10:33:48Z</time>
      </trkpt>
      <trkpt lat="46.01225" lon="4.70714">
        <ele>194</ele>
        <time>2016-09-10T10:33:49Z</time>
      </trkpt>
      <trkpt lat="46.01219" lon="4.70712">
        <ele>194</ele>
        <time>2016-09-10T10:33:50Z</time>
      </trkpt>
      <trkpt lat="46.01214" lon="4.7071">
        <ele>194</ele>
        <time>2016-09-10T10:33:51Z</time>
      </trkpt>
      <trkpt lat="46.01208" lon="4.70708">
        <ele>194</ele>
        <time>2016-09-10T10:33:52Z</time>
      </trkpt>
      <trkpt lat="46.01202" lon="4.70706">
        <ele>194</ele>
        <time>2016-09-10T10:33:53Z</time>
      </trkpt>
      <trkpt lat="46.01197" lon="4.70704">
        <ele>194</ele>
        <time>2016-09-10T10:33:54Z</time>
      </trkpt>
      <trkpt lat="46.01192" lon="4.70701">
        <ele>194</ele>
        <time>2016-09-10T10:33:55Z</time>
      </trkpt>
      <trkpt lat="46.01187" lon="4.70699">
        <ele>194</ele>
        <time>2016-09-10T10:33:56Z</time>
      </trkpt>
      <trkpt lat="46.01181" lon="4.70696">
        <ele>194</ele>
        <time>2016-09-10T10:33:57Z</time>
      </trkpt>
      <trkpt lat="46.01176" lon="4.70694">
        <ele>194</ele>
        <time>2016-09-10T10:33:58Z</time>
      </trkpt>
      <trkpt lat="46.01172" lon="4.70692">
        <ele>194</ele>
        <time>2016-09-10T10:33:59Z</time>
      </trkpt>
      <trkpt lat="46.01167" lon="4.70689">
        <ele>194</ele>
        <time>2016-09-10T10:34:00Z</time>
      </trkpt>
      <trkpt lat="46.01162" lon="4.70686">
        <ele>194</ele>
        <time>2016-09-10T10:34:01Z</time>
      </trkpt>
      <trkpt lat="46.01157" lon="4.70684">
        <ele>194</ele>
        <time>2016-09-10T10:34:02Z</time>
      </trkpt>
      <trkpt lat="46.01151" lon="4.70682">
        <ele>194</ele>
        <time>2016-09-10T10:34:03Z</time>
      </trkpt>
      <trkpt lat="46.01146" lon="4.70679">
        <ele>194</ele>
        <time>2016-09-10T10:34:04Z</time>
      </trkpt>
      <trkpt lat="46.0114" lon="4.70676">
        <ele>194</ele>
        <time>2016-09-10T10:34:05Z</time>
      </trkpt>
      <trkpt lat="46.01134" lon="4.70673">
        <ele>194</ele>
        <time>2016-09-10T10:34:06Z</time>
      </trkpt>
      <trkpt lat="46.01129" lon="4.7067">
        <ele>194</ele>
        <time>2016-09-10T10:34:07Z</time>
      </trkpt>
      <trkpt lat="46.01124" lon="4.70668">
        <ele>195</ele>
        <time>2016-09-10T10:34:08Z</time>
      </trkpt>
      <trkpt lat="46.01119" lon="4.70665">
        <ele>194</ele>
        <time>2016-09-10T10:34:09Z</time>
      </trkpt>
      <trkpt lat="46.01114" lon="4.70663">
        <ele>194</ele>
        <time>2016-09-10T10:34:10Z</time>
      </trkpt>
      <trkpt lat="46.01109" lon="4.7066">
        <ele>194</ele>
        <time>2016-09-10T10:34:11Z</time>
      </trkpt>
      <trkpt lat="46.01104" lon="4.70658">
        <ele>195</ele>
        <time>2016-09-10T10:34:12Z</time>
      </trkpt>
      <trkpt lat="46.01098" lon="4.70655">
        <ele>195</ele>
        <time>2016-09-10T10:34:13Z</time>
      </trkpt>
      <trkpt lat="46.01093" lon="4.70653">
        <ele>195</ele>
        <time>2016-09-10T10:34:14Z</time>
      </trkpt>
      <trkpt lat="46.01087" lon="4.7065">
        <ele>195</ele>
        <time>2016-09-10T10:34:15Z</time>
      </trkpt>
      <trkpt lat="46.01082" lon="4.70648">
        <ele>195</ele>
        <time>2016-09-10T10:34:16Z</time>
      </trkpt>
      <trkpt lat="46.01076" lon="4.70645">
        <ele>195</ele>
        <time>2016-09-10T10:34:17Z</time>
      </trkpt>
      <trkpt lat="46.0107" lon="4.70643">
        <ele>195</ele>
        <time>2016-09-10T10:34:18Z</time>
      </trkpt>
      <trkpt lat="46.01065" lon="4.70641">
        <ele>195</ele>
        <time>2016-09-10T10:34:19Z</time>
      </trkpt>
      <trkpt lat="46.0106" lon="4.7064">
        <ele>195</ele>
        <time>2016-09-10T10:34:20Z</time>
      </trkpt>
      <trkpt lat="46.01055" lon="4.70638">
        <ele>195</ele>
        <time>2016-09-10T10:34:21Z</time>
      </trkpt>
      <trkpt lat="46.01051" lon="4.70636">
        <ele>195</ele>
        <time>2016-09-10T10:34:22Z</time>
      </trkpt>
      <trkpt lat="46.01046" lon="4.70634">
        <ele>195</ele>
        <time>2016-09-10T10:34:23Z</time>
      </trkpt>
      <trkpt lat="46.0104" lon="4.70632">
        <ele>196</ele>
        <time>2016-09-10T10:34:24Z</time>
      </trkpt>
      <trkpt lat="46.01035" lon="4.7063">
        <ele>196</ele>
        <time>2016-09-10T10:34:25Z</time>
      </trkpt>
      <trkpt lat="46.01029" lon="4.70627">
        <ele>196</ele>
        <time>2016-09-10T10:34:26Z</time>
      </trkpt>
      <trkpt lat="46.01024" lon="4.70625">
        <ele>196</ele>
        <time>2016-09-10T10:34:27Z</time>
      </trkpt>
      <trkpt lat="46.01018" lon="4.70622">
        <ele>196</ele>
        <time>2016-09-10T10:34:28Z</time>
      </trkpt>
      <trkpt lat="46.01013" lon="4.7062">
        <ele>196</ele>
        <time>2016-09-10T10:34:29Z</time>
      </trkpt>
      <trkpt lat="46.01008" lon="4.70618">
        <ele>196</ele>
        <time>2016-09-10T10:34:30Z</time>
      </trkpt>
      <trkpt lat="46.01003" lon="4.70615">
        <ele>196</ele>
        <time>2016-09-10T10:34:31Z</time>
      </trkpt>
      <trkpt lat="46.00998" lon="4.70613">
        <ele>197</ele>
        <time>2016-09-10T10:34:32Z</time>
      </trkpt>
      <trkpt lat="46.00993" lon="4.70612">
        <ele>197</ele>
        <time>2016-09-10T10:34:33Z</time>
      </trkpt>
      <trkpt lat="46.00989" lon="4.70609">
        <ele>197</ele>
        <time>2016-09-10T10:34:34Z</time>
      </trkpt>
      <trkpt lat="46.00984" lon="4.70607">
        <ele>197</ele>
        <time>2016-09-10T10:34:35Z</time>
      </trkpt>
      <trkpt lat="46.00979" lon="4.70605">
        <ele>197</ele>
        <time>2016-09-10T10:34:36Z</time>
      </trkpt>
      <trkpt lat="46.00974" lon="4.70603">
        <ele>197</ele>
        <time>2016-09-10T10:34:37Z</time>
      </trkpt>
      <trkpt lat="46.00969" lon="4.706">
        <ele>197</ele>
        <time>2016-09-10T10:34:38Z</time>
      </trkpt>
      <trkpt lat="46.00964" lon="4.70598">
        <ele>197</ele>
        <time>2016-09-10T10:34:39Z</time>
      </trkpt>
      <trkpt lat="46.00959" lon="4.70596">
        <ele>197</ele>
        <time>2016-09-10T10:34:40Z</time>
      </trkpt>
      <trkpt lat="46.00954" lon="4.70594">
        <ele>197</ele>
        <time>2016-09-10T10:34:41Z</time>
      </trkpt>
      <trkpt lat="46.00949" lon="4.70592">
        <ele>197</ele>
        <time>2016-09-10T10:34:42Z</time>
      </trkpt>
      <trkpt lat="46.00944" lon="4.7059">
        <ele>197</ele>
        <time>2016-09-10T10:34:43Z</time>
      </trkpt>
      <trkpt lat="46.00939" lon="4.70587">
        <ele>198</ele>
        <time>2016-09-10T10:34:44Z</time>
      </trkpt>
      <trkpt lat="46.00934" lon="4.70585">
        <ele>198</ele>
        <time>2016-09-10T10:34:45Z</time>
      </trkpt>
      <trkpt lat="46.00929" lon="4.70583">
        <ele>198</ele>
        <time>2016-09-10T10:34:46Z</time>
      </trkpt>
      <trkpt lat="46.00924" lon="4.70581">
        <ele>198</ele>
        <time>2016-09-10T10:34:47Z</time>
      </trkpt>
      <trkpt lat="46.00919" lon="4.70579">
        <ele>198</ele>
        <time>2016-09-10T10:34:48Z</time>
      </trkpt>
      <trkpt lat="46.00915" lon="4.70577">
        <ele>199</ele>
        <time>2016-09-10T10:34:49Z</time>
      </trkpt>
      <trkpt lat="46.0091" lon="4.70574">
        <ele>199</ele>
        <time>2016-09-10T10:34:50Z</time>
      </trkpt>
      <trkpt lat="46.00904" lon="4.70572">
        <ele>199</ele>
        <time>2016-09-10T10:34:51Z</time>
      </trkpt>
      <trkpt lat="46.00899" lon="4.7057">
        <ele>200</ele>
        <time>2016-09-10T10:34:52Z</time>
      </trkpt>
      <trkpt lat="46.00894" lon="4.70567">
        <ele>200</ele>
        <time>2016-09-10T10:34:53Z</time>
      </trkpt>
      <trkpt lat="46.00889" lon="4.70565">
        <ele>200</ele>
        <time>2016-09-10T10:34:54Z</time>
      </trkpt>
      <trkpt lat="46.00884" lon="4.70563">
        <ele>200</ele>
        <time>2016-09-10T10:34:55Z</time>
      </trkpt>
      <trkpt lat="46.00879" lon="4.70561">
        <ele>200</ele>
        <time>2016-09-10T10:34:56Z</time>
      </trkpt>
      <trkpt lat="46.00874" lon="4.70559">
        <ele>201</ele>
        <time>2016-09-10T10:34:57Z</time>
      </trkpt>
      <trkpt lat="46.0087" lon="4.70557">
        <ele>201</ele>
        <time>2016-09-10T10:34:58Z</time>
      </trkpt>
      <trkpt lat="46.00865" lon="4.70554">
        <ele>201</ele>
        <time>2016-09-10T10:34:59Z</time>
      </trkpt>
      <trkpt lat="46.0086" lon="4.70552">
        <ele>201</ele>
        <time>2016-09-10T10:35:00Z</time>
      </trkpt>
      <trkpt lat="46.00856" lon="4.7055">
        <ele>201</ele>
        <time>2016-09-10T10:35:01Z</time>
      </trkpt>
      <trkpt lat="46.00851" lon="4.70547">
        <ele>201</ele>
        <time>2016-09-10T10:35:02Z</time>
      </trkpt>
      <trkpt lat="46.00847" lon="4.70545">
        <ele>201</ele>
        <time>2016-09-10T10:35:03Z</time>
      </trkpt>
      <trkpt lat="46.00842" lon="4.70542">
        <ele>202</ele>
        <time>2016-09-10T10:35:04Z</time>
      </trkpt>
      <trkpt lat="46.00837" lon="4.70539">
        <ele>202</ele>
        <time>2016-09-10T10:35:05Z</time>
      </trkpt>
      <trkpt lat="46.00832" lon="4.70537">
        <ele>203</ele>
        <time>2016-09-10T10:35:06Z</time>
      </trkpt>
      <trkpt lat="46.00828" lon="4.70535">
        <ele>203</ele>
        <time>2016-09-10T10:35:07Z</time>
      </trkpt>
      <trkpt lat="46.00823" lon="4.70532">
        <ele>204</ele>
        <time>2016-09-10T10:35:08Z</time>
      </trkpt>
      <trkpt lat="46.00818" lon="4.7053">
        <ele>204</ele>
        <time>2016-09-10T10:35:09Z</time>
      </trkpt>
      <trkpt lat="46.00813" lon="4.70528">
        <ele>204</ele>
        <time>2016-09-10T10:35:10Z</time>
      </trkpt>
      <trkpt lat="46.00808" lon="4.70525">
        <ele>204</ele>
        <time>2016-09-10T10:35:11Z</time>
      </trkpt>
      <trkpt lat="46.00803" lon="4.70522">
        <ele>204</ele>
        <time>2016-09-10T10:35:12Z</time>
      </trkpt>
      <trkpt lat="46.00797" lon="4.7052">
        <ele>204</ele>
        <time>2016-09-10T10:35:13Z</time>
      </trkpt>
      <trkpt lat="46.00792" lon="4.70517">
        <ele>204</ele>
        <time>2016-09-10T10:35:14Z</time>
      </trkpt>
      <trkpt lat="46.00787" lon="4.70514">
        <ele>205</ele>
        <time>2016-09-10T10:35:15Z</time>
      </trkpt>
      <trkpt lat="46.00782" lon="4.70511">
        <ele>205</ele>
        <time>2016-09-10T10:35:16Z</time>
      </trkpt>
      <trkpt lat="46.00777" lon="4.70509">
        <ele>205</ele>
        <time>2016-09-10T10:35:17Z</time>
      </trkpt>
      <trkpt lat="46.00772" lon="4.70506">
        <ele>205</ele>
        <time>2016-09-10T10:35:18Z</time>
      </trkpt>
      <trkpt lat="46.00767" lon="4.70504">
        <ele>206</ele>
        <time>2016-09-10T10:35:19Z</time>
      </trkpt>
      <trkpt lat="46.00763" lon="4.70503">
        <ele>206</ele>
        <time>2016-09-10T10:35:20Z</time>
      </trkpt>
      <trkpt lat="46.00754" lon="4.70502">
        <ele>207</ele>
        <time>2016-09-10T10:35:22Z</time>
      </trkpt>
      <trkpt lat="46.00749" lon="4.70501">
        <ele>208</ele>
        <time>2016-09-10T10:35:23Z</time>
      </trkpt>
      <trkpt lat="46.00744" lon="4.70499">
        <ele>209</ele>
        <time>2016-09-10T10:35:24Z</time>
      </trkpt>
      <trkpt lat="46.00739" lon="4.70498">
        <ele>209</ele>
        <time>2016-09-10T10:35:25Z</time>
      </trkpt>
      <trkpt lat="46.00733" lon="4.70498">
        <ele>209</ele>
        <time>2016-09-10T10:35:26Z</time>
      </trkpt>
      <trkpt lat="46.00727" lon="4.70497">
        <ele>210</ele>
        <time>2016-09-10T10:35:27Z</time>
      </trkpt>
      <trkpt lat="46.00722" lon="4.70496">
        <ele>210</ele>
        <time>2016-09-10T10:35:28Z</time>
      </trkpt>
      <trkpt lat="46.00716" lon="4.70495">
        <ele>210</ele>
        <time>2016-09-10T10:35:29Z</time>
      </trkpt>
      <trkpt lat="46.0071" lon="4.70495">
        <ele>210</ele>
        <time>2016-09-10T10:35:30Z</time>
      </trkpt>
      <trkpt lat="46.00705" lon="4.70495">
        <ele>211</ele>
        <time>2016-09-10T10:35:31Z</time>
      </trkpt>
      <trkpt lat="46.007" lon="4.70494">
        <ele>211</ele>
        <time>2016-09-10T10:35:32Z</time>
      </trkpt>
      <trkpt lat="46.00694" lon="4.70494">
        <ele>211</ele>
        <time>2016-09-10T10:35:33Z</time>
      </trkpt>
      <trkpt lat="46.00689" lon="4.70495">
        <ele>211</ele>
        <time>2016-09-10T10:35:34Z</time>
      </trkpt>
      <trkpt lat="46.00684" lon="4.70496">
        <ele>211</ele>
        <time>2016-09-10T10:35:35Z</time>
      </trkpt>
      <trkpt lat="46.00679" lon="4.70495">
        <ele>211</ele>
        <time>2016-09-10T10:35:36Z</time>
      </trkpt>
      <trkpt lat="46.00674" lon="4.70496">
        <ele>212</ele>
        <time>2016-09-10T10:35:37Z</time>
      </trkpt>
      <trkpt lat="46.00669" lon="4.70496">
        <ele>212</ele>
        <time>2016-09-10T10:35:38Z</time>
      </trkpt>
      <trkpt lat="46.00663" lon="4.70497">
        <ele>212</ele>
        <time>2016-09-10T10:35:39Z</time>
      </trkpt>
      <trkpt lat="46.00657" lon="4.70499">
        <ele>212</ele>
        <time>2016-09-10T10:35:40Z</time>
      </trkpt>
      <trkpt lat="46.00652" lon="4.705">
        <ele>211</ele>
        <time>2016-09-10T10:35:41Z</time>
      </trkpt>
      <trkpt lat="46.00646" lon="4.70501">
        <ele>209</ele>
        <time>2016-09-10T10:35:42Z</time>
      </trkpt>
      <trkpt lat="46.0064" lon="4.70502">
        <ele>208</ele>
        <time>2016-09-10T10:35:43Z</time>
      </trkpt>
      <trkpt lat="46.00634" lon="4.70503">
        <ele>208</ele>
        <time>2016-09-10T10:35:44Z</time>
      </trkpt>
      <trkpt lat="46.00628" lon="4.70504">
        <ele>207</ele>
        <time>2016-09-10T10:35:45Z</time>
      </trkpt>
      <trkpt lat="46.00621" lon="4.70506">
        <ele>207</ele>
        <time>2016-09-10T10:35:46Z</time>
      </trkpt>
      <trkpt lat="46.00615" lon="4.70507">
        <ele>207</ele>
        <time>2016-09-10T10:35:47Z</time>
      </trkpt>
      <trkpt lat="46.00608" lon="4.70509">
        <ele>207</ele>
        <time>2016-09-10T10:35:48Z</time>
      </trkpt>
      <trkpt lat="46.00602" lon="4.7051">
        <ele>207</ele>
        <time>2016-09-10T10:35:49Z</time>
      </trkpt>
      <trkpt lat="46.00596" lon="4.70512">
        <ele>207</ele>
        <time>2016-09-10T10:35:50Z</time>
      </trkpt>
      <trkpt lat="46.00589" lon="4.70513">
        <ele>207</ele>
        <time>2016-09-10T10:35:51Z</time>
      </trkpt>
      <trkpt lat="46.00583" lon="4.70515">
        <ele>205</ele>
        <time>2016-09-10T10:35:52Z</time>
      </trkpt>
      <trkpt lat="46.00577" lon="4.70517">
        <ele>205</ele>
        <time>2016-09-10T10:35:53Z</time>
      </trkpt>
      <trkpt lat="46.0057" lon="4.70519">
        <ele>205</ele>
        <time>2016-09-10T10:35:54Z</time>
      </trkpt>
      <trkpt lat="46.00563" lon="4.70521">
        <ele>204</ele>
        <time>2016-09-10T10:35:55Z</time>
      </trkpt>
      <trkpt lat="46.00556" lon="4.70521">
        <ele>204</ele>
        <time>2016-09-10T10:35:56Z</time>
      </trkpt>
      <trkpt lat="46.00549" lon="4.70521">
        <ele>204</ele>
        <time>2016-09-10T10:35:57Z</time>
      </trkpt>
      <trkpt lat="46.00542" lon="4.7052">
        <ele>204</ele>
        <time>2016-09-10T10:35:58Z</time>
      </trkpt>
      <trkpt lat="46.00534" lon="4.70518">
        <ele>204</ele>
        <time>2016-09-10T10:35:59Z</time>
      </trkpt>
      <trkpt lat="46.00527" lon="4.70517">
        <ele>204</ele>
        <time>2016-09-10T10:36:00Z</time>
      </trkpt>
      <trkpt lat="46.0052" lon="4.70516">
        <ele>204</ele>
        <time>2016-09-10T10:36:01Z</time>
      </trkpt>
      <trkpt lat="46.00513" lon="4.70516">
        <ele>204</ele>
        <time>2016-09-10T10:36:02Z</time>
      </trkpt>
      <trkpt lat="46.00505" lon="4.70515">
        <ele>204</ele>
        <time>2016-09-10T10:36:03Z</time>
      </trkpt>
      <trkpt lat="46.005" lon="4.70514">
        <ele>202</ele>
        <time>2016-09-10T10:36:04Z</time>
      </trkpt>
      <trkpt lat="46.00494" lon="4.70512">
        <ele>202</ele>
        <time>2016-09-10T10:36:05Z</time>
      </trkpt>
      <trkpt lat="46.00487" lon="4.70511">
        <ele>202</ele>
        <time>2016-09-10T10:36:06Z</time>
      </trkpt>
      <trkpt lat="46.0048" lon="4.7051">
        <ele>202</ele>
        <time>2016-09-10T10:36:07Z</time>
      </trkpt>
      <trkpt lat="46.00473" lon="4.70508">
        <ele>201</ele>
        <time>2016-09-10T10:36:08Z</time>
      </trkpt>
      <trkpt lat="46.00466" lon="4.70505">
        <ele>201</ele>
        <time>2016-09-10T10:36:09Z</time>
      </trkpt>
      <trkpt lat="46.00459" lon="4.70501">
        <ele>201</ele>
        <time>2016-09-10T10:36:10Z</time>
      </trkpt>
      <trkpt lat="46.00452" lon="4.70499">
        <ele>203</ele>
        <time>2016-09-10T10:36:11Z</time>
      </trkpt>
      <trkpt lat="46.00445" lon="4.70497">
        <ele>202</ele>
        <time>2016-09-10T10:36:12Z</time>
      </trkpt>
      <trkpt lat="46.00437" lon="4.70495">
        <ele>202</ele>
        <time>2016-09-10T10:36:13Z</time>
      </trkpt>
      <trkpt lat="46.0043" lon="4.70495">
        <ele>201</ele>
        <time>2016-09-10T10:36:14Z</time>
      </trkpt>
      <trkpt lat="46.00423" lon="4.70494">
        <ele>201</ele>
        <time>2016-09-10T10:36:15Z</time>
      </trkpt>
      <trkpt lat="46.00417" lon="4.70494">
        <ele>200</ele>
        <time>2016-09-10T10:36:16Z</time>
      </trkpt>
      <trkpt lat="46.0041" lon="4.70493">
        <ele>200</ele>
        <time>2016-09-10T10:36:17Z</time>
      </trkpt>
      <trkpt lat="46.00403" lon="4.70493">
        <ele>200</ele>
        <time>2016-09-10T10:36:18Z</time>
      </trkpt>
      <trkpt lat="46.00396" lon="4.70493">
        <ele>200</ele>
        <time>2016-09-10T10:36:19Z</time>
      </trkpt>
      <trkpt lat="46.00389" lon="4.70493">
        <ele>200</ele>
        <time>2016-09-10T10:36:20Z</time>
      </trkpt>
      <trkpt lat="46.00383" lon="4.70494">
        <ele>200</ele>
        <time>2016-09-10T10:36:21Z</time>
      </trkpt>
      <trkpt lat="46.00376" lon="4.70495">
        <ele>200</ele>
        <time>2016-09-10T10:36:22Z</time>
      </trkpt>
      <trkpt lat="46.0037" lon="4.70497">
        <ele>200</ele>
        <time>2016-09-10T10:36:23Z</time>
      </trkpt>
      <trkpt lat="46.00363" lon="4.70498">
        <ele>200</ele>
        <time>2016-09-10T10:36:24Z</time>
      </trkpt>
      <trkpt lat="46.00355" lon="4.705">
        <ele>200</ele>
        <time>2016-09-10T10:36:25Z</time>
      </trkpt>
      <trkpt lat="46.00348" lon="4.70501">
        <ele>198</ele>
        <time>2016-09-10T10:36:26Z</time>
      </trkpt>
      <trkpt lat="46.00341" lon="4.70503">
        <ele>198</ele>
        <time>2016-09-10T10:36:27Z</time>
      </trkpt>
      <trkpt lat="46.00334" lon="4.70504">
        <ele>198</ele>
        <time>2016-09-10T10:36:28Z</time>
      </trkpt>
      <trkpt lat="46.00327" lon="4.70506">
        <ele>198</ele>
        <time>2016-09-10T10:36:29Z</time>
      </trkpt>
      <trkpt lat="46.0032" lon="4.70507">
        <ele>198</ele>
        <time>2016-09-10T10:36:30Z</time>
      </trkpt>
      <trkpt lat="46.00313" lon="4.70508">
        <ele>197</ele>
        <time>2016-09-10T10:36:31Z</time>
      </trkpt>
      <trkpt lat="46.00305" lon="4.70509">
        <ele>197</ele>
        <time>2016-09-10T10:36:32Z</time>
      </trkpt>
      <trkpt lat="46.00299" lon="4.70511">
        <ele>197</ele>
        <time>2016-09-10T10:36:33Z</time>
      </trkpt>
      <trkpt lat="46.00292" lon="4.70512">
        <ele>197</ele>
        <time>2016-09-10T10:36:34Z</time>
      </trkpt>
      <trkpt lat="46.00286" lon="4.70514">
        <ele>197</ele>
        <time>2016-09-10T10:36:35Z</time>
      </trkpt>
      <trkpt lat="46.00279" lon="4.70515">
        <ele>197</ele>
        <time>2016-09-10T10:36:36Z</time>
      </trkpt>
      <trkpt lat="46.00273" lon="4.70517">
        <ele>197</ele>
        <time>2016-09-10T10:36:37Z</time>
      </trkpt>
      <trkpt lat="46.00266" lon="4.70518">
        <ele>197</ele>
        <time>2016-09-10T10:36:38Z</time>
      </trkpt>
      <trkpt lat="46.0026" lon="4.7052">
        <ele>197</ele>
        <time>2016-09-10T10:36:39Z</time>
      </trkpt>
      <trkpt lat="46.00254" lon="4.70521">
        <ele>197</ele>
        <time>2016-09-10T10:36:40Z</time>
      </trkpt>
      <trkpt lat="46.00248" lon="4.70522">
        <ele>198</ele>
        <time>2016-09-10T10:36:41Z</time>
      </trkpt>
      <trkpt lat="46.00242" lon="4.70524">
        <ele>198</ele>
        <time>2016-09-10T10:36:42Z</time>
      </trkpt>
      <trkpt lat="46.00236" lon="4.70526">
        <ele>198</ele>
        <time>2016-09-10T10:36:43Z</time>
      </trkpt>
      <trkpt lat="46.0023" lon="4.70528">
        <ele>198</ele>
        <time>2016-09-10T10:36:44Z</time>
      </trkpt>
      <trkpt lat="46.00225" lon="4.70529">
        <ele>198</ele>
        <time>2016-09-10T10:36:45Z</time>
      </trkpt>
      <trkpt lat="46.00218" lon="4.70531">
        <ele>198</ele>
        <time>2016-09-10T10:36:46Z</time>
      </trkpt>
      <trkpt lat="46.00212" lon="4.70532">
        <ele>198</ele>
        <time>2016-09-10T10:36:47Z</time>
      </trkpt>
      <trkpt lat="46.00206" lon="4.70534">
        <ele>198</ele>
        <time>2016-09-10T10:36:48Z</time>
      </trkpt>
      <trkpt lat="46.002" lon="4.70535">
        <ele>198</ele>
        <time>2016-09-10T10:36:49Z</time>
      </trkpt>
      <trkpt lat="46.00195" lon="4.70535">
        <ele>198</ele>
        <time>2016-09-10T10:36:50Z</time>
      </trkpt>
      <trkpt lat="46.00189" lon="4.70535">
        <ele>198</ele>
        <time>2016-09-10T10:36:51Z</time>
      </trkpt>
      <trkpt lat="46.00183" lon="4.70535">
        <ele>198</ele>
        <time>2016-09-10T10:36:52Z</time>
      </trkpt>
      <trkpt lat="46.00177" lon="4.70535">
        <ele>198</ele>
        <time>2016-09-10T10:36:53Z</time>
      </trkpt>
      <trkpt lat="46.00172" lon="4.70532">
        <ele>198</ele>
        <time>2016-09-10T10:36:54Z</time>
      </trkpt>
      <trkpt lat="46.00166" lon="4.70528">
        <ele>198</ele>
        <time>2016-09-10T10:36:55Z</time>
      </trkpt>
      <trkpt lat="46.00162" lon="4.70524">
        <ele>198</ele>
        <time>2016-09-10T10:36:56Z</time>
      </trkpt>
      <trkpt lat="46.00156" lon="4.70521">
        <ele>198</ele>
        <time>2016-09-10T10:36:57Z</time>
      </trkpt>
      <trkpt lat="46.00149" lon="4.70522">
        <ele>198</ele>
        <time>2016-09-10T10:36:58Z</time>
      </trkpt>
      <trkpt lat="46.00143" lon="4.70525">
        <ele>198</ele>
        <time>2016-09-10T10:36:59Z</time>
      </trkpt>
      <trkpt lat="46.00139" lon="4.70532">
        <ele>198</ele>
        <time>2016-09-10T10:37:00Z</time>
      </trkpt>
      <trkpt lat="46.00136" lon="4.7054">
        <ele>198</ele>
        <time>2016-09-10T10:37:01Z</time>
      </trkpt>
      <trkpt lat="46.00134" lon="4.70549">
        <ele>198</ele>
        <time>2016-09-10T10:37:02Z</time>
      </trkpt>
      <trkpt lat="46.00131" lon="4.70557">
        <ele>198</ele>
        <time>2016-09-10T10:37:03Z</time>
      </trkpt>
      <trkpt lat="46.00127" lon="4.70564">
        <ele>198</ele>
        <time>2016-09-10T10:37:04Z</time>
      </trkpt>
      <trkpt lat="46.00122" lon="4.70569">
        <ele>198</ele>
        <time>2016-09-10T10:37:05Z</time>
      </trkpt>
      <trkpt lat="46.00117" lon="4.70572">
        <ele>198</ele>
        <time>2016-09-10T10:37:06Z</time>
      </trkpt>
      <trkpt lat="46.00112" lon="4.70575">
        <ele>198</ele>
        <time>2016-09-10T10:37:07Z</time>
      </trkpt>
      <trkpt lat="46.00107" lon="4.70577">
        <ele>198</ele>
        <time>2016-09-10T10:37:08Z</time>
      </trkpt>
      <trkpt lat="46.00102" lon="4.70581">
        <ele>198</ele>
        <time>2016-09-10T10:37:09Z</time>
      </trkpt>
      <trkpt lat="46.00098" lon="4.70584">
        <ele>198</ele>
        <time>2016-09-10T10:37:10Z</time>
      </trkpt>
      <trkpt lat="46.00093" lon="4.70587">
        <ele>198</ele>
        <time>2016-09-10T10:37:11Z</time>
      </trkpt>
      <trkpt lat="46.00088" lon="4.7059">
        <ele>198</ele>
        <time>2016-09-10T10:37:12Z</time>
      </trkpt>
      <trkpt lat="46.00083" lon="4.70593">
        <ele>198</ele>
        <time>2016-09-10T10:37:13Z</time>
      </trkpt>
      <trkpt lat="46.00077" lon="4.70597">
        <ele>198</ele>
        <time>2016-09-10T10:37:14Z</time>
      </trkpt>
      <trkpt lat="46.00071" lon="4.706">
        <ele>198</ele>
        <time>2016-09-10T10:37:15Z</time>
      </trkpt>
      <trkpt lat="46.00066" lon="4.70602">
        <ele>198</ele>
        <time>2016-09-10T10:37:16Z</time>
      </trkpt>
      <trkpt lat="46.0006" lon="4.70603">
        <ele>198</ele>
        <time>2016-09-10T10:37:17Z</time>
      </trkpt>
      <trkpt lat="46.00054" lon="4.70605">
        <ele>198</ele>
        <time>2016-09-10T10:37:18Z</time>
      </trkpt>
      <trkpt lat="46.00049" lon="4.70606">
        <ele>198</ele>
        <time>2016-09-10T10:37:19Z</time>
      </trkpt>
      <trkpt lat="46.00043" lon="4.70607">
        <ele>198</ele>
        <time>2016-09-10T10:37:20Z</time>
      </trkpt>
      <trkpt lat="46.00037" lon="4.70609">
        <ele>199</ele>
        <time>2016-09-10T10:37:21Z</time>
      </trkpt>
      <trkpt lat="46.00033" lon="4.7061">
        <ele>199</ele>
        <time>2016-09-10T10:37:22Z</time>
      </trkpt>
      <trkpt lat="46.00028" lon="4.70612">
        <ele>199</ele>
        <time>2016-09-10T10:37:23Z</time>
      </trkpt>
      <trkpt lat="46.00023" lon="4.70613">
        <ele>199</ele>
        <time>2016-09-10T10:37:24Z</time>
      </trkpt>
      <trkpt lat="46.00017" lon="4.70613">
        <ele>199</ele>
        <time>2016-09-10T10:37:25Z</time>
      </trkpt>
      <trkpt lat="46.00011" lon="4.70614">
        <ele>199</ele>
        <time>2016-09-10T10:37:26Z</time>
      </trkpt>
      <trkpt lat="46.00006" lon="4.70614">
        <ele>199</ele>
        <time>2016-09-10T10:37:27Z</time>
      </trkpt>
      <trkpt lat="45.99999" lon="4.70615">
        <ele>199</ele>
        <time>2016-09-10T10:37:28Z</time>
      </trkpt>
      <trkpt lat="45.99993" lon="4.70616">
        <ele>199</ele>
        <time>2016-09-10T10:37:29Z</time>
      </trkpt>
      <trkpt lat="45.99987" lon="4.70617">
        <ele>199</ele>
        <time>2016-09-10T10:37:30Z</time>
      </trkpt>
      <trkpt lat="45.99981" lon="4.70618">
        <ele>199</ele>
        <time>2016-09-10T10:37:31Z</time>
      </trkpt>
      <trkpt lat="45.99976" lon="4.70619">
        <ele>199</ele>
        <time>2016-09-10T10:37:32Z</time>
      </trkpt>
      <trkpt lat="45.9997" lon="4.70621">
        <ele>199</ele>
        <time>2016-09-10T10:37:33Z</time>
      </trkpt>
      <trkpt lat="45.99965" lon="4.70622">
        <ele>199</ele>
        <time>2016-09-10T10:37:34Z</time>
      </trkpt>
      <trkpt lat="45.99959" lon="4.70623">
        <ele>199</ele>
        <time>2016-09-10T10:37:35Z</time>
      </trkpt>
      <trkpt lat="45.99954" lon="4.70624">
        <ele>199</ele>
        <time>2016-09-10T10:37:36Z</time>
      </trkpt>
      <trkpt lat="45.99949" lon="4.70625">
        <ele>199</ele>
        <time>2016-09-10T10:37:37Z</time>
      </trkpt>
      <trkpt lat="45.99944" lon="4.70625">
        <ele>199</ele>
        <time>2016-09-10T10:37:38Z</time>
      </trkpt>
      <trkpt lat="45.9994" lon="4.70625">
        <ele>199</ele>
        <time>2016-09-10T10:37:39Z</time>
      </trkpt>
      <trkpt lat="45.99935" lon="4.70625">
        <ele>199</ele>
        <time>2016-09-10T10:37:40Z</time>
      </trkpt>
      <trkpt lat="45.9993" lon="4.70626">
        <ele>199</ele>
        <time>2016-09-10T10:37:41Z</time>
      </trkpt>
      <trkpt lat="45.99921" lon="4.70628">
        <ele>199</ele>
        <time>2016-09-10T10:37:43Z</time>
      </trkpt>
      <trkpt lat="45.99916" lon="4.70628">
        <ele>200</ele>
        <time>2016-09-10T10:37:44Z</time>
      </trkpt>
      <trkpt lat="45.99908" lon="4.7063">
        <ele>200</ele>
        <time>2016-09-10T10:37:46Z</time>
      </trkpt>
      <trkpt lat="45.99904" lon="4.7063">
        <ele>200</ele>
        <time>2016-09-10T10:37:47Z</time>
      </trkpt>
      <trkpt lat="45.99896" lon="4.7063">
        <ele>200</ele>
        <time>2016-09-10T10:37:49Z</time>
      </trkpt>
      <trkpt lat="45.99893" lon="4.7063">
        <ele>200</ele>
        <time>2016-09-10T10:37:50Z</time>
      </trkpt>
      <trkpt lat="45.99884" lon="4.70631">
        <ele>201</ele>
        <time>2016-09-10T10:37:52Z</time>
      </trkpt>
      <trkpt lat="45.99879" lon="4.70632">
        <ele>201</ele>
        <time>2016-09-10T10:37:53Z</time>
      </trkpt>
      <trkpt lat="45.99874" lon="4.70633">
        <ele>201</ele>
        <time>2016-09-10T10:37:54Z</time>
      </trkpt>
      <trkpt lat="45.99869" lon="4.70634">
        <ele>201</ele>
        <time>2016-09-10T10:37:55Z</time>
      </trkpt>
      <trkpt lat="45.99863" lon="4.70634">
        <ele>201</ele>
        <time>2016-09-10T10:37:56Z</time>
      </trkpt>
      <trkpt lat="45.99856" lon="4.70635">
        <ele>201</ele>
        <time>2016-09-10T10:37:57Z</time>
      </trkpt>
      <trkpt lat="45.9985" lon="4.70637">
        <ele>201</ele>
        <time>2016-09-10T10:37:58Z</time>
      </trkpt>
      <trkpt lat="45.99844" lon="4.70638">
        <ele>201</ele>
        <time>2016-09-10T10:37:59Z</time>
      </trkpt>
      <trkpt lat="45.99838" lon="4.70639">
        <ele>201</ele>
        <time>2016-09-10T10:38:00Z</time>
      </trkpt>
      <trkpt lat="45.99833" lon="4.7064">
        <ele>202</ele>
        <time>2016-09-10T10:38:01Z</time>
      </trkpt>
      <trkpt lat="45.99827" lon="4.70642">
        <ele>202</ele>
        <time>2016-09-10T10:38:02Z</time>
      </trkpt>
      <trkpt lat="45.99821" lon="4.70644">
        <ele>202</ele>
        <time>2016-09-10T10:38:03Z</time>
      </trkpt>
      <trkpt lat="45.99815" lon="4.70645">
        <ele>202</ele>
        <time>2016-09-10T10:38:04Z</time>
      </trkpt>
      <trkpt lat="45.99809" lon="4.70647">
        <ele>202</ele>
        <time>2016-09-10T10:38:05Z</time>
      </trkpt>
      <trkpt lat="45.99803" lon="4.70648">
        <ele>202</ele>
        <time>2016-09-10T10:38:06Z</time>
      </trkpt>
      <trkpt lat="45.99798" lon="4.7065">
        <ele>202</ele>
        <time>2016-09-10T10:38:07Z</time>
      </trkpt>
      <trkpt lat="45.99792" lon="4.70652">
        <ele>202</ele>
        <time>2016-09-10T10:38:08Z</time>
      </trkpt>
      <trkpt lat="45.99787" lon="4.70654">
        <ele>202</ele>
        <time>2016-09-10T10:38:09Z</time>
      </trkpt>
      <trkpt lat="45.99781" lon="4.70656">
        <ele>202</ele>
        <time>2016-09-10T10:38:10Z</time>
      </trkpt>
      <trkpt lat="45.99776" lon="4.70658">
        <ele>202</ele>
        <time>2016-09-10T10:38:11Z</time>
      </trkpt>
      <trkpt lat="45.9977" lon="4.70659">
        <ele>202</ele>
        <time>2016-09-10T10:38:12Z</time>
      </trkpt>
      <trkpt lat="45.99764" lon="4.70661">
        <ele>202</ele>
        <time>2016-09-10T10:38:13Z</time>
      </trkpt>
      <trkpt lat="45.99758" lon="4.70662">
        <ele>202</ele>
        <time>2016-09-10T10:38:14Z</time>
      </trkpt>
      <trkpt lat="45.99752" lon="4.70664">
        <ele>202</ele>
        <time>2016-09-10T10:38:15Z</time>
      </trkpt>
      <trkpt lat="45.99747" lon="4.70665">
        <ele>202</ele>
        <time>2016-09-10T10:38:16Z</time>
      </trkpt>
      <trkpt lat="45.99741" lon="4.70666">
        <ele>202</ele>
        <time>2016-09-10T10:38:17Z</time>
      </trkpt>
      <trkpt lat="45.99735" lon="4.70668">
        <ele>202</ele>
        <time>2016-09-10T10:38:18Z</time>
      </trkpt>
      <trkpt lat="45.99729" lon="4.70669">
        <ele>202</ele>
        <time>2016-09-10T10:38:19Z</time>
      </trkpt>
      <trkpt lat="45.99723" lon="4.70671">
        <ele>202</ele>
        <time>2016-09-10T10:38:20Z</time>
      </trkpt>
      <trkpt lat="45.99717" lon="4.70672">
        <ele>201</ele>
        <time>2016-09-10T10:38:21Z</time>
      </trkpt>
      <trkpt lat="45.99712" lon="4.70674">
        <ele>201</ele>
        <time>2016-09-10T10:38:22Z</time>
      </trkpt>
      <trkpt lat="45.99706" lon="4.70676">
        <ele>201</ele>
        <time>2016-09-10T10:38:23Z</time>
      </trkpt>
      <trkpt lat="45.997" lon="4.70677">
        <ele>201</ele>
        <time>2016-09-10T10:38:24Z</time>
      </trkpt>
      <trkpt lat="45.99695" lon="4.70678">
        <ele>201</ele>
        <time>2016-09-10T10:38:25Z</time>
      </trkpt>
      <trkpt lat="45.99689" lon="4.70679">
        <ele>201</ele>
        <time>2016-09-10T10:38:26Z</time>
      </trkpt>
      <trkpt lat="45.99685" lon="4.7068">
        <ele>201</ele>
        <time>2016-09-10T10:38:27Z</time>
      </trkpt>
      <trkpt lat="45.9968" lon="4.70682">
        <ele>201</ele>
        <time>2016-09-10T10:38:28Z</time>
      </trkpt>
      <trkpt lat="45.99674" lon="4.70683">
        <ele>201</ele>
        <time>2016-09-10T10:38:29Z</time>
      </trkpt>
      <trkpt lat="45.99669" lon="4.70684">
        <ele>201</ele>
        <time>2016-09-10T10:38:30Z</time>
      </trkpt>
      <trkpt lat="45.99663" lon="4.70685">
        <ele>201</ele>
        <time>2016-09-10T10:38:31Z</time>
      </trkpt>
      <trkpt lat="45.99657" lon="4.70686">
        <ele>201</ele>
        <time>2016-09-10T10:38:32Z</time>
      </trkpt>
      <trkpt lat="45.99651" lon="4.70687">
        <ele>201</ele>
        <time>2016-09-10T10:38:33Z</time>
      </trkpt>
      <trkpt lat="45.99647" lon="4.70688">
        <ele>200</ele>
        <time>2016-09-10T10:38:34Z</time>
      </trkpt>
      <trkpt lat="45.99641" lon="4.70689">
        <ele>200</ele>
        <time>2016-09-10T10:38:35Z</time>
      </trkpt>
      <trkpt lat="45.99636" lon="4.7069">
        <ele>200</ele>
        <time>2016-09-10T10:38:36Z</time>
      </trkpt>
      <trkpt lat="45.9963" lon="4.70691">
        <ele>200</ele>
        <time>2016-09-10T10:38:37Z</time>
      </trkpt>
      <trkpt lat="45.99625" lon="4.70693">
        <ele>200</ele>
        <time>2016-09-10T10:38:38Z</time>
      </trkpt>
      <trkpt lat="45.9962" lon="4.70694">
        <ele>200</ele>
        <time>2016-09-10T10:38:39Z</time>
      </trkpt>
      <trkpt lat="45.99614" lon="4.70696">
        <ele>200</ele>
        <time>2016-09-10T10:38:40Z</time>
      </trkpt>
      <trkpt lat="45.99608" lon="4.70697">
        <ele>200</ele>
        <time>2016-09-10T10:38:41Z</time>
      </trkpt>
      <trkpt lat="45.99603" lon="4.70699">
        <ele>200</ele>
        <time>2016-09-10T10:38:42Z</time>
      </trkpt>
      <trkpt lat="45.99597" lon="4.707">
        <ele>200</ele>
        <time>2016-09-10T10:38:43Z</time>
      </trkpt>
      <trkpt lat="45.99592" lon="4.70701">
        <ele>200</ele>
        <time>2016-09-10T10:38:44Z</time>
      </trkpt>
      <trkpt lat="45.99586" lon="4.70703">
        <ele>200</ele>
        <time>2016-09-10T10:38:45Z</time>
      </trkpt>
      <trkpt lat="45.9958" lon="4.70704">
        <ele>200</ele>
        <time>2016-09-10T10:38:46Z</time>
      </trkpt>
      <trkpt lat="45.99574" lon="4.70706">
        <ele>200</ele>
        <time>2016-09-10T10:38:47Z</time>
      </trkpt>
      <trkpt lat="45.99568" lon="4.70707">
        <ele>200</ele>
        <time>2016-09-10T10:38:48Z</time>
      </trkpt>
      <trkpt lat="45.99562" lon="4.70708">
        <ele>200</ele>
        <time>2016-09-10T10:38:49Z</time>
      </trkpt>
      <trkpt lat="45.99556" lon="4.70709">
        <ele>200</ele>
        <time>2016-09-10T10:38:50Z</time>
      </trkpt>
      <trkpt lat="45.99549" lon="4.70711">
        <ele>200</ele>
        <time>2016-09-10T10:38:51Z</time>
      </trkpt>
      <trkpt lat="45.99543" lon="4.70712">
        <ele>199</ele>
        <time>2016-09-10T10:38:52Z</time>
      </trkpt>
      <trkpt lat="45.99537" lon="4.70714">
        <ele>199</ele>
        <time>2016-09-10T10:38:53Z</time>
      </trkpt>
      <trkpt lat="45.99531" lon="4.70715">
        <ele>199</ele>
        <time>2016-09-10T10:38:54Z</time>
      </trkpt>
      <trkpt lat="45.99525" lon="4.70716">
        <ele>199</ele>
        <time>2016-09-10T10:38:55Z</time>
      </trkpt>
      <trkpt lat="45.99519" lon="4.70718">
        <ele>199</ele>
        <time>2016-09-10T10:38:56Z</time>
      </trkpt>
      <trkpt lat="45.99513" lon="4.70719">
        <ele>199</ele>
        <time>2016-09-10T10:38:57Z</time>
      </trkpt>
      <trkpt lat="45.99506" lon="4.70721">
        <ele>199</ele>
        <time>2016-09-10T10:38:58Z</time>
      </trkpt>
      <trkpt lat="45.995" lon="4.70722">
        <ele>199</ele>
        <time>2016-09-10T10:38:59Z</time>
      </trkpt>
      <trkpt lat="45.99494" lon="4.70723">
        <ele>199</ele>
        <time>2016-09-10T10:39:00Z</time>
      </trkpt>
      <trkpt lat="45.99488" lon="4.70724">
        <ele>199</ele>
        <time>2016-09-10T10:39:01Z</time>
      </trkpt>
      <trkpt lat="45.99482" lon="4.70724">
        <ele>199</ele>
        <time>2016-09-10T10:39:02Z</time>
      </trkpt>
      <trkpt lat="45.99476" lon="4.70724">
        <ele>199</ele>
        <time>2016-09-10T10:39:03Z</time>
      </trkpt>
      <trkpt lat="45.9947" lon="4.70724">
        <ele>200</ele>
        <time>2016-09-10T10:39:04Z</time>
      </trkpt>
      <trkpt lat="45.99465" lon="4.70724">
        <ele>200</ele>
        <time>2016-09-10T10:39:05Z</time>
      </trkpt>
      <trkpt lat="45.99459" lon="4.70724">
        <ele>200</ele>
        <time>2016-09-10T10:39:06Z</time>
      </trkpt>
      <trkpt lat="45.99454" lon="4.70723">
        <ele>200</ele>
        <time>2016-09-10T10:39:07Z</time>
      </trkpt>
      <trkpt lat="45.99448" lon="4.70722">
        <ele>200</ele>
        <time>2016-09-10T10:39:08Z</time>
      </trkpt>
      <trkpt lat="45.99442" lon="4.70721">
        <ele>200</ele>
        <time>2016-09-10T10:39:09Z</time>
      </trkpt>
      <trkpt lat="45.99437" lon="4.7072">
        <ele>200</ele>
        <time>2016-09-10T10:39:10Z</time>
      </trkpt>
      <trkpt lat="45.99431" lon="4.7072">
        <ele>200</ele>
        <time>2016-09-10T10:39:11Z</time>
      </trkpt>
      <trkpt lat="45.99426" lon="4.7072">
        <ele>200</ele>
        <time>2016-09-10T10:39:12Z</time>
      </trkpt>
      <trkpt lat="45.9942" lon="4.7072">
        <ele>200</ele>
        <time>2016-09-10T10:39:13Z</time>
      </trkpt>
      <trkpt lat="45.99414" lon="4.7072">
        <ele>199</ele>
        <time>2016-09-10T10:39:14Z</time>
      </trkpt>
      <trkpt lat="45.99408" lon="4.7072">
        <ele>199</ele>
        <time>2016-09-10T10:39:15Z</time>
      </trkpt>
      <trkpt lat="45.99402" lon="4.7072">
        <ele>199</ele>
        <time>2016-09-10T10:39:16Z</time>
      </trkpt>
      <trkpt lat="45.99395" lon="4.7072">
        <ele>199</ele>
        <time>2016-09-10T10:39:17Z</time>
      </trkpt>
      <trkpt lat="45.99389" lon="4.7072">
        <ele>199</ele>
        <time>2016-09-10T10:39:18Z</time>
      </trkpt>
      <trkpt lat="45.99382" lon="4.70721">
        <ele>198</ele>
        <time>2016-09-10T10:39:19Z</time>
      </trkpt>
      <trkpt lat="45.99376" lon="4.70721">
        <ele>198</ele>
        <time>2016-09-10T10:39:20Z</time>
      </trkpt>
      <trkpt lat="45.9937" lon="4.70721">
        <ele>198</ele>
        <time>2016-09-10T10:39:21Z</time>
      </trkpt>
      <trkpt lat="45.99364" lon="4.7072">
        <ele>198</ele>
        <time>2016-09-10T10:39:22Z</time>
      </trkpt>
      <trkpt lat="45.99358" lon="4.7072">
        <ele>198</ele>
        <time>2016-09-10T10:39:23Z</time>
      </trkpt>
      <trkpt lat="45.99351" lon="4.7072">
        <ele>197</ele>
        <time>2016-09-10T10:39:24Z</time>
      </trkpt>
      <trkpt lat="45.99346" lon="4.7072">
        <ele>197</ele>
        <time>2016-09-10T10:39:25Z</time>
      </trkpt>
      <trkpt lat="45.9934" lon="4.7072">
        <ele>197</ele>
        <time>2016-09-10T10:39:26Z</time>
      </trkpt>
      <trkpt lat="45.99334" lon="4.70719">
        <ele>197</ele>
        <time>2016-09-10T10:39:27Z</time>
      </trkpt>
      <trkpt lat="45.99329" lon="4.7072">
        <ele>196</ele>
        <time>2016-09-10T10:39:28Z</time>
      </trkpt>
      <trkpt lat="45.99323" lon="4.70719">
        <ele>196</ele>
        <time>2016-09-10T10:39:29Z</time>
      </trkpt>
      <trkpt lat="45.99317" lon="4.7072">
        <ele>196</ele>
        <time>2016-09-10T10:39:30Z</time>
      </trkpt>
      <trkpt lat="45.99312" lon="4.70714">
        <ele>196</ele>
        <time>2016-09-10T10:39:31Z</time>
      </trkpt>
      <trkpt lat="45.99305" lon="4.70714">
        <ele>196</ele>
        <time>2016-09-10T10:39:32Z</time>
      </trkpt>
      <trkpt lat="45.993" lon="4.70713">
        <ele>196</ele>
        <time>2016-09-10T10:39:33Z</time>
      </trkpt>
      <trkpt lat="45.99294" lon="4.70713">
        <ele>196</ele>
        <time>2016-09-10T10:39:34Z</time>
      </trkpt>
      <trkpt lat="45.99289" lon="4.70713">
        <ele>196</ele>
        <time>2016-09-10T10:39:35Z</time>
      </trkpt>
      <trkpt lat="45.99284" lon="4.70715">
        <ele>196</ele>
        <time>2016-09-10T10:39:36Z</time>
      </trkpt>
      <trkpt lat="45.99278" lon="4.70716">
        <ele>196</ele>
        <time>2016-09-10T10:39:37Z</time>
      </trkpt>
      <trkpt lat="45.99273" lon="4.70716">
        <ele>196</ele>
        <time>2016-09-10T10:39:38Z</time>
      </trkpt>
      <trkpt lat="45.99267" lon="4.70716">
        <ele>196</ele>
        <time>2016-09-10T10:39:39Z</time>
      </trkpt>
      <trkpt lat="45.99261" lon="4.70715">
        <ele>196</ele>
        <time>2016-09-10T10:39:40Z</time>
      </trkpt>
      <trkpt lat="45.99255" lon="4.70715">
        <ele>196</ele>
        <time>2016-09-10T10:39:41Z</time>
      </trkpt>
      <trkpt lat="45.99249" lon="4.70714">
        <ele>196</ele>
        <time>2016-09-10T10:39:42Z</time>
      </trkpt>
      <trkpt lat="45.99242" lon="4.70714">
        <ele>196</ele>
        <time>2016-09-10T10:39:43Z</time>
      </trkpt>
      <trkpt lat="45.99236" lon="4.70714">
        <ele>196</ele>
        <time>2016-09-10T10:39:44Z</time>
      </trkpt>
      <trkpt lat="45.99229" lon="4.70714">
        <ele>196</ele>
        <time>2016-09-10T10:39:45Z</time>
      </trkpt>
      <trkpt lat="45.99223" lon="4.70714">
        <ele>196</ele>
        <time>2016-09-10T10:39:46Z</time>
      </trkpt>
      <trkpt lat="45.99216" lon="4.70714">
        <ele>196</ele>
        <time>2016-09-10T10:39:47Z</time>
      </trkpt>
      <trkpt lat="45.9921" lon="4.70714">
        <ele>196</ele>
        <time>2016-09-10T10:39:48Z</time>
      </trkpt>
      <trkpt lat="45.99203" lon="4.70714">
        <ele>196</ele>
        <time>2016-09-10T10:39:49Z</time>
      </trkpt>
      <trkpt lat="45.99197" lon="4.70715">
        <ele>196</ele>
        <time>2016-09-10T10:39:50Z</time>
      </trkpt>
      <trkpt lat="45.9919" lon="4.70715">
        <ele>196</ele>
        <time>2016-09-10T10:39:51Z</time>
      </trkpt>
      <trkpt lat="45.99183" lon="4.70715">
        <ele>196</ele>
        <time>2016-09-10T10:39:52Z</time>
      </trkpt>
      <trkpt lat="45.99177" lon="4.70714">
        <ele>196</ele>
        <time>2016-09-10T10:39:53Z</time>
      </trkpt>
      <trkpt lat="45.9917" lon="4.70712">
        <ele>196</ele>
        <time>2016-09-10T10:39:54Z</time>
      </trkpt>
      <trkpt lat="45.99164" lon="4.70712">
        <ele>195</ele>
        <time>2016-09-10T10:39:55Z</time>
      </trkpt>
      <trkpt lat="45.99158" lon="4.70712">
        <ele>195</ele>
        <time>2016-09-10T10:39:56Z</time>
      </trkpt>
      <trkpt lat="45.99151" lon="4.70712">
        <ele>195</ele>
        <time>2016-09-10T10:39:57Z</time>
      </trkpt>
      <trkpt lat="45.99145" lon="4.70712">
        <ele>195</ele>
        <time>2016-09-10T10:39:58Z</time>
      </trkpt>
      <trkpt lat="45.99138" lon="4.70712">
        <ele>195</ele>
        <time>2016-09-10T10:39:59Z</time>
      </trkpt>
      <trkpt lat="45.9913" lon="4.70712">
        <ele>195</ele>
        <time>2016-09-10T10:40:00Z</time>
      </trkpt>
      <trkpt lat="45.99122" lon="4.70711">
        <ele>195</ele>
        <time>2016-09-10T10:40:01Z</time>
      </trkpt>
      <trkpt lat="45.99115" lon="4.70711">
        <ele>195</ele>
        <time>2016-09-10T10:40:02Z</time>
      </trkpt>
      <trkpt lat="45.99108" lon="4.70711">
        <ele>195</ele>
        <time>2016-09-10T10:40:03Z</time>
      </trkpt>
      <trkpt lat="45.99101" lon="4.70711">
        <ele>195</ele>
        <time>2016-09-10T10:40:04Z</time>
      </trkpt>
      <trkpt lat="45.99094" lon="4.70711">
        <ele>194</ele>
        <time>2016-09-10T10:40:05Z</time>
      </trkpt>
      <trkpt lat="45.99088" lon="4.7071">
        <ele>194</ele>
        <time>2016-09-10T10:40:06Z</time>
      </trkpt>
      <trkpt lat="45.99081" lon="4.70709">
        <ele>193</ele>
        <time>2016-09-10T10:40:07Z</time>
      </trkpt>
      <trkpt lat="45.99076" lon="4.70709">
        <ele>193</ele>
        <time>2016-09-10T10:40:08Z</time>
      </trkpt>
      <trkpt lat="45.9907" lon="4.70709">
        <ele>193</ele>
        <time>2016-09-10T10:40:09Z</time>
      </trkpt>
      <trkpt lat="45.99065" lon="4.7071">
        <ele>193</ele>
        <time>2016-09-10T10:40:10Z</time>
      </trkpt>
      <trkpt lat="45.9906" lon="4.7071">
        <ele>193</ele>
        <time>2016-09-10T10:40:11Z</time>
      </trkpt>
      <trkpt lat="45.99053" lon="4.70709">
        <ele>193</ele>
        <time>2016-09-10T10:40:13Z</time>
      </trkpt>
      <trkpt lat="45.9905" lon="4.70708">
        <ele>193</ele>
        <time>2016-09-10T10:40:14Z</time>
      </trkpt>
      <trkpt lat="45.99049" lon="4.70708">
        <ele>193</ele>
        <time>2016-09-10T10:40:15Z</time>
      </trkpt>
      <trkpt lat="45.99049" lon="4.70709">
        <ele>193</ele>
        <time>2016-09-10T10:40:16Z</time>
      </trkpt>
      <trkpt lat="45.99048" lon="4.70709">
        <ele>193</ele>
        <time>2016-09-10T10:40:28Z</time>
      </trkpt>
      <trkpt lat="45.99047" lon="4.70709">
        <ele>193</ele>
        <time>2016-09-10T10:40:29Z</time>
      </trkpt>
      <trkpt lat="45.99042" lon="4.70709">
        <ele>192</ele>
        <time>2016-09-10T10:40:31Z</time>
      </trkpt>
      <trkpt lat="45.99036" lon="4.70709">
        <ele>192</ele>
        <time>2016-09-10T10:40:32Z</time>
      </trkpt>
      <trkpt lat="45.9903" lon="4.7071">
        <ele>192</ele>
        <time>2016-09-10T10:40:33Z</time>
      </trkpt>
      <trkpt lat="45.99024" lon="4.70709">
        <ele>192</ele>
        <time>2016-09-10T10:40:34Z</time>
      </trkpt>
      <trkpt lat="45.99017" lon="4.70708">
        <ele>192</ele>
        <time>2016-09-10T10:40:35Z</time>
      </trkpt>
      <trkpt lat="45.9901" lon="4.70709">
        <ele>192</ele>
        <time>2016-09-10T10:40:36Z</time>
      </trkpt>
      <trkpt lat="45.99003" lon="4.70711">
        <ele>192</ele>
        <time>2016-09-10T10:40:37Z</time>
      </trkpt>
      <trkpt lat="45.98996" lon="4.70714">
        <ele>191</ele>
        <time>2016-09-10T10:40:38Z</time>
      </trkpt>
      <trkpt lat="45.98988" lon="4.70716">
        <ele>191</ele>
        <time>2016-09-10T10:40:39Z</time>
      </trkpt>
      <trkpt lat="45.98981" lon="4.7072">
        <ele>191</ele>
        <time>2016-09-10T10:40:40Z</time>
      </trkpt>
      <trkpt lat="45.98975" lon="4.70727">
        <ele>191</ele>
        <time>2016-09-10T10:40:41Z</time>
      </trkpt>
      <trkpt lat="45.98969" lon="4.70735">
        <ele>191</ele>
        <time>2016-09-10T10:40:42Z</time>
      </trkpt>
      <trkpt lat="45.98965" lon="4.70744">
        <ele>190</ele>
        <time>2016-09-10T10:40:43Z</time>
      </trkpt>
      <trkpt lat="45.98961" lon="4.70753">
        <ele>189</ele>
        <time>2016-09-10T10:40:44Z</time>
      </trkpt>
      <trkpt lat="45.98956" lon="4.70763">
        <ele>189</ele>
        <time>2016-09-10T10:40:45Z</time>
      </trkpt>
      <trkpt lat="45.98951" lon="4.70771">
        <ele>189</ele>
        <time>2016-09-10T10:40:46Z</time>
      </trkpt>
      <trkpt lat="45.98946" lon="4.70779">
        <ele>189</ele>
        <time>2016-09-10T10:40:47Z</time>
      </trkpt>
      <trkpt lat="45.98941" lon="4.70788">
        <ele>189</ele>
        <time>2016-09-10T10:40:48Z</time>
      </trkpt>
      <trkpt lat="45.98936" lon="4.70797">
        <ele>189</ele>
        <time>2016-09-10T10:40:49Z</time>
      </trkpt>
      <trkpt lat="45.98932" lon="4.70805">
        <ele>188</ele>
        <time>2016-09-10T10:40:50Z</time>
      </trkpt>
      <trkpt lat="45.98927" lon="4.70813">
        <ele>188</ele>
        <time>2016-09-10T10:40:51Z</time>
      </trkpt>
      <trkpt lat="45.98921" lon="4.70821">
        <ele>188</ele>
        <time>2016-09-10T10:40:52Z</time>
      </trkpt>
      <trkpt lat="45.98916" lon="4.70829">
        <ele>187</ele>
        <time>2016-09-10T10:40:53Z</time>
      </trkpt>
      <trkpt lat="45.98912" lon="4.70837">
        <ele>187</ele>
        <time>2016-09-10T10:40:54Z</time>
      </trkpt>
      <trkpt lat="45.98907" lon="4.70846">
        <ele>187</ele>
        <time>2016-09-10T10:40:55Z</time>
      </trkpt>
      <trkpt lat="45.98903" lon="4.70854">
        <ele>186</ele>
        <time>2016-09-10T10:40:56Z</time>
      </trkpt>
      <trkpt lat="45.98898" lon="4.70862">
        <ele>186</ele>
        <time>2016-09-10T10:40:57Z</time>
      </trkpt>
      <trkpt lat="45.98894" lon="4.7087">
        <ele>186</ele>
        <time>2016-09-10T10:40:58Z</time>
      </trkpt>
      <trkpt lat="45.98889" lon="4.70878">
        <ele>186</ele>
        <time>2016-09-10T10:40:59Z</time>
      </trkpt>
      <trkpt lat="45.98886" lon="4.70886">
        <ele>186</ele>
        <time>2016-09-10T10:41:00Z</time>
      </trkpt>
      <trkpt lat="45.98882" lon="4.70893">
        <ele>186</ele>
        <time>2016-09-10T10:41:01Z</time>
      </trkpt>
      <trkpt lat="45.98878" lon="4.70901">
        <ele>186</ele>
        <time>2016-09-10T10:41:02Z</time>
      </trkpt>
      <trkpt lat="45.98875" lon="4.7091">
        <ele>186</ele>
        <time>2016-09-10T10:41:03Z</time>
      </trkpt>
      <trkpt lat="45.98871" lon="4.70918">
        <ele>185</ele>
        <time>2016-09-10T10:41:04Z</time>
      </trkpt>
      <trkpt lat="45.98867" lon="4.70926">
        <ele>185</ele>
        <time>2016-09-10T10:41:05Z</time>
      </trkpt>
      <trkpt lat="45.98864" lon="4.70934">
        <ele>185</ele>
        <time>2016-09-10T10:41:06Z</time>
      </trkpt>
      <trkpt lat="45.9886" lon="4.70942">
        <ele>185</ele>
        <time>2016-09-10T10:41:07Z</time>
      </trkpt>
      <trkpt lat="45.98858" lon="4.70951">
        <ele>185</ele>
        <time>2016-09-10T10:41:08Z</time>
      </trkpt>
      <trkpt lat="45.98856" lon="4.7096">
        <ele>185</ele>
        <time>2016-09-10T10:41:09Z</time>
      </trkpt>
      <trkpt lat="45.98853" lon="4.70969">
        <ele>185</ele>
        <time>2016-09-10T10:41:10Z</time>
      </trkpt>
      <trkpt lat="45.9885" lon="4.70978">
        <ele>185</ele>
        <time>2016-09-10T10:41:11Z</time>
      </trkpt>
      <trkpt lat="45.98847" lon="4.70987">
        <ele>185</ele>
        <time>2016-09-10T10:41:12Z</time>
      </trkpt>
      <trkpt lat="45.98844" lon="4.70996">
        <ele>185</ele>
        <time>2016-09-10T10:41:13Z</time>
      </trkpt>
      <trkpt lat="45.98841" lon="4.71004">
        <ele>185</ele>
        <time>2016-09-10T10:41:14Z</time>
      </trkpt>
      <trkpt lat="45.98838" lon="4.71012">
        <ele>185</ele>
        <time>2016-09-10T10:41:15Z</time>
      </trkpt>
      <trkpt lat="45.98835" lon="4.7102">
        <ele>185</ele>
        <time>2016-09-10T10:41:16Z</time>
      </trkpt>
      <trkpt lat="45.98832" lon="4.71028">
        <ele>186</ele>
        <time>2016-09-10T10:41:17Z</time>
      </trkpt>
      <trkpt lat="45.9883" lon="4.71035">
        <ele>186</ele>
        <time>2016-09-10T10:41:18Z</time>
      </trkpt>
      <trkpt lat="45.98827" lon="4.71042">
        <ele>187</ele>
        <time>2016-09-10T10:41:19Z</time>
      </trkpt>
      <trkpt lat="45.98825" lon="4.7105">
        <ele>187</ele>
        <time>2016-09-10T10:41:20Z</time>
      </trkpt>
      <trkpt lat="45.98823" lon="4.71057">
        <ele>187</ele>
        <time>2016-09-10T10:41:21Z</time>
      </trkpt>
      <trkpt lat="45.9882" lon="4.71065">
        <ele>187</ele>
        <time>2016-09-10T10:41:22Z</time>
      </trkpt>
      <trkpt lat="45.98818" lon="4.71073">
        <ele>187</ele>
        <time>2016-09-10T10:41:23Z</time>
      </trkpt>
      <trkpt lat="45.98815" lon="4.7108">
        <ele>187</ele>
        <time>2016-09-10T10:41:24Z</time>
      </trkpt>
      <trkpt lat="45.98813" lon="4.71087">
        <ele>188</ele>
        <time>2016-09-10T10:41:25Z</time>
      </trkpt>
      <trkpt lat="45.98811" lon="4.71096">
        <ele>188</ele>
        <time>2016-09-10T10:41:26Z</time>
      </trkpt>
      <trkpt lat="45.98809" lon="4.71103">
        <ele>187</ele>
        <time>2016-09-10T10:41:27Z</time>
      </trkpt>
      <trkpt lat="45.98805" lon="4.71108">
        <ele>187</ele>
        <time>2016-09-10T10:41:28Z</time>
      </trkpt>
      <trkpt lat="45.98803" lon="4.71114">
        <ele>187</ele>
        <time>2016-09-10T10:41:29Z</time>
      </trkpt>
      <trkpt lat="45.988" lon="4.71121">
        <ele>187</ele>
        <time>2016-09-10T10:41:30Z</time>
      </trkpt>
      <trkpt lat="45.98797" lon="4.71128">
        <ele>187</ele>
        <time>2016-09-10T10:41:31Z</time>
      </trkpt>
      <trkpt lat="45.98794" lon="4.71135">
        <ele>187</ele>
        <time>2016-09-10T10:41:32Z</time>
      </trkpt>
      <trkpt lat="45.98791" lon="4.71142">
        <ele>187</ele>
        <time>2016-09-10T10:41:33Z</time>
      </trkpt>
      <trkpt lat="45.98789" lon="4.71149">
        <ele>187</ele>
        <time>2016-09-10T10:41:34Z</time>
      </trkpt>
      <trkpt lat="45.98786" lon="4.71157">
        <ele>187</ele>
        <time>2016-09-10T10:41:35Z</time>
      </trkpt>
      <trkpt lat="45.98783" lon="4.71165">
        <ele>187</ele>
        <time>2016-09-10T10:41:36Z</time>
      </trkpt>
      <trkpt lat="45.98781" lon="4.71174">
        <ele>186</ele>
        <time>2016-09-10T10:41:37Z</time>
      </trkpt>
      <trkpt lat="45.98777" lon="4.71181">
        <ele>186</ele>
        <time>2016-09-10T10:41:38Z</time>
      </trkpt>
      <trkpt lat="45.98775" lon="4.71189">
        <ele>186</ele>
        <time>2016-09-10T10:41:39Z</time>
      </trkpt>
      <trkpt lat="45.98773" lon="4.71197">
        <ele>186</ele>
        <time>2016-09-10T10:41:40Z</time>
      </trkpt>
      <trkpt lat="45.98772" lon="4.71205">
        <ele>186</ele>
        <time>2016-09-10T10:41:41Z</time>
      </trkpt>
      <trkpt lat="45.98771" lon="4.71212">
        <ele>186</ele>
        <time>2016-09-10T10:41:42Z</time>
      </trkpt>
      <trkpt lat="45.98769" lon="4.71218">
        <ele>186</ele>
        <time>2016-09-10T10:41:43Z</time>
      </trkpt>
      <trkpt lat="45.98768" lon="4.71225">
        <ele>186</ele>
        <time>2016-09-10T10:41:44Z</time>
      </trkpt>
      <trkpt lat="45.98766" lon="4.71232">
        <ele>186</ele>
        <time>2016-09-10T10:41:45Z</time>
      </trkpt>
      <trkpt lat="45.98764" lon="4.71239">
        <ele>186</ele>
        <time>2016-09-10T10:41:46Z</time>
      </trkpt>
      <trkpt lat="45.98762" lon="4.71247">
        <ele>187</ele>
        <time>2016-09-10T10:41:47Z</time>
      </trkpt>
      <trkpt lat="45.98759" lon="4.71254">
        <ele>186</ele>
        <time>2016-09-10T10:41:48Z</time>
      </trkpt>
      <trkpt lat="45.98758" lon="4.71262">
        <ele>186</ele>
        <time>2016-09-10T10:41:49Z</time>
      </trkpt>
      <trkpt lat="45.98755" lon="4.7127">
        <ele>186</ele>
        <time>2016-09-10T10:41:50Z</time>
      </trkpt>
      <trkpt lat="45.98753" lon="4.71278">
        <ele>186</ele>
        <time>2016-09-10T10:41:51Z</time>
      </trkpt>
      <trkpt lat="45.98751" lon="4.71286">
        <ele>185</ele>
        <time>2016-09-10T10:41:52Z</time>
      </trkpt>
      <trkpt lat="45.98748" lon="4.71294">
        <ele>188</ele>
        <time>2016-09-10T10:41:53Z</time>
      </trkpt>
      <trkpt lat="45.98746" lon="4.71303">
        <ele>188</ele>
        <time>2016-09-10T10:41:54Z</time>
      </trkpt>
      <trkpt lat="45.98744" lon="4.71311">
        <ele>188</ele>
        <time>2016-09-10T10:41:55Z</time>
      </trkpt>
      <trkpt lat="45.98742" lon="4.7132">
        <ele>187</ele>
        <time>2016-09-10T10:41:56Z</time>
      </trkpt>
      <trkpt lat="45.9874" lon="4.71328">
        <ele>187</ele>
        <time>2016-09-10T10:41:57Z</time>
      </trkpt>
      <trkpt lat="45.98738" lon="4.71337">
        <ele>187</ele>
        <time>2016-09-10T10:41:58Z</time>
      </trkpt>
      <trkpt lat="45.98738" lon="4.71345">
        <ele>187</ele>
        <time>2016-09-10T10:41:59Z</time>
      </trkpt>
      <trkpt lat="45.98735" lon="4.71353">
        <ele>187</ele>
        <time>2016-09-10T10:42:00Z</time>
      </trkpt>
      <trkpt lat="45.98733" lon="4.71361">
        <ele>187</ele>
        <time>2016-09-10T10:42:01Z</time>
      </trkpt>
      <trkpt lat="45.98731" lon="4.71368">
        <ele>187</ele>
        <time>2016-09-10T10:42:02Z</time>
      </trkpt>
      <trkpt lat="45.98725" lon="4.71371">
        <ele>187</ele>
        <time>2016-09-10T10:42:03Z</time>
      </trkpt>
      <trkpt lat="45.98721" lon="4.71377">
        <ele>187</ele>
        <time>2016-09-10T10:42:04Z</time>
      </trkpt>
      <trkpt lat="45.98717" lon="4.71381">
        <ele>187</ele>
        <time>2016-09-10T10:42:05Z</time>
      </trkpt>
      <trkpt lat="45.98715" lon="4.71387">
        <ele>187</ele>
        <time>2016-09-10T10:42:06Z</time>
      </trkpt>
      <trkpt lat="45.9871" lon="4.71397">
        <ele>187</ele>
        <time>2016-09-10T10:42:08Z</time>
      </trkpt>
      <trkpt lat="45.98707" lon="4.71401">
        <ele>187</ele>
        <time>2016-09-10T10:42:09Z</time>
      </trkpt>
      <trkpt lat="45.98704" lon="4.71411">
        <ele>187</ele>
        <time>2016-09-10T10:42:11Z</time>
      </trkpt>
      <trkpt lat="45.98702" lon="4.71415">
        <ele>187</ele>
        <time>2016-09-10T10:42:12Z</time>
      </trkpt>
      <trkpt lat="45.98698" lon="4.71422">
        <ele>187</ele>
        <time>2016-09-10T10:42:14Z</time>
      </trkpt>
      <trkpt lat="45.98696" lon="4.71425">
        <ele>187</ele>
        <time>2016-09-10T10:42:15Z</time>
      </trkpt>
      <trkpt lat="45.98695" lon="4.71437">
        <ele>187</ele>
        <time>2016-09-10T10:42:36Z</time>
      </trkpt>
      <trkpt lat="45.98695" lon="4.7144">
        <ele>187</ele>
        <time>2016-09-10T10:42:37Z</time>
      </trkpt>
      <trkpt lat="45.98692" lon="4.71449">
        <ele>187</ele>
        <time>2016-09-10T10:42:39Z</time>
      </trkpt>
      <trkpt lat="45.98691" lon="4.71453">
        <ele>187</ele>
        <time>2016-09-10T10:42:40Z</time>
      </trkpt>
      <trkpt lat="45.98695" lon="4.71463">
        <ele>187</ele>
        <time>2016-09-10T10:42:42Z</time>
      </trkpt>
      <trkpt lat="45.98698" lon="4.7147">
        <ele>187</ele>
        <time>2016-09-10T10:42:43Z</time>
      </trkpt>
      <trkpt lat="45.98697" lon="4.71481">
        <ele>187</ele>
        <time>2016-09-10T10:42:45Z</time>
      </trkpt>
      <trkpt lat="45.98695" lon="4.71485">
        <ele>187</ele>
        <time>2016-09-10T10:42:46Z</time>
      </trkpt>
      <trkpt lat="45.98687" lon="4.71485">
        <ele>187</ele>
        <time>2016-09-10T10:42:48Z</time>
      </trkpt>
      <trkpt lat="45.98683" lon="4.71485">
        <ele>188</ele>
        <time>2016-09-10T10:42:49Z</time>
      </trkpt>
      <trkpt lat="45.98676" lon="4.71484">
        <ele>188</ele>
        <time>2016-09-10T10:42:51Z</time>
      </trkpt>
      <trkpt lat="45.98672" lon="4.71484">
        <ele>188</ele>
        <time>2016-09-10T10:42:52Z</time>
      </trkpt>
      <trkpt lat="45.98664" lon="4.71485">
        <ele>190</ele>
        <time>2016-09-10T10:42:54Z</time>
      </trkpt>
      <trkpt lat="45.98661" lon="4.71487">
        <ele>190</ele>
        <time>2016-09-10T10:42:55Z</time>
      </trkpt>
      <trkpt lat="45.98654" lon="4.71489">
        <ele>190</ele>
        <time>2016-09-10T10:42:57Z</time>
      </trkpt>
      <trkpt lat="45.9865" lon="4.7149">
        <ele>190</ele>
        <time>2016-09-10T10:42:58Z</time>
      </trkpt>
      <trkpt lat="45.98643" lon="4.71489">
        <ele>190</ele>
        <time>2016-09-10T10:43:00Z</time>
      </trkpt>
      <trkpt lat="45.9864" lon="4.71489">
        <ele>190</ele>
        <time>2016-09-10T10:43:01Z</time>
      </trkpt>
      <trkpt lat="45.98633" lon="4.7149">
        <ele>190</ele>
        <time>2016-09-10T10:43:03Z</time>
      </trkpt>
      <trkpt lat="45.98629" lon="4.7149">
        <ele>190</ele>
        <time>2016-09-10T10:43:04Z</time>
      </trkpt>
      <trkpt lat="45.98622" lon="4.71491">
        <ele>190</ele>
        <time>2016-09-10T10:43:06Z</time>
      </trkpt>
      <trkpt lat="45.98619" lon="4.71491">
        <ele>190</ele>
        <time>2016-09-10T10:43:07Z</time>
      </trkpt>
      <trkpt lat="45.98612" lon="4.7149">
        <ele>191</ele>
        <time>2016-09-10T10:43:09Z</time>
      </trkpt>
      <trkpt lat="45.98606" lon="4.71495">
        <ele>191</ele>
        <time>2016-09-10T10:43:10Z</time>
      </trkpt>
      <trkpt lat="45.98601" lon="4.71496">
        <ele>191</ele>
        <time>2016-09-10T10:43:11Z</time>
      </trkpt>
      <trkpt lat="45.98596" lon="4.71497">
        <ele>191</ele>
        <time>2016-09-10T10:43:12Z</time>
      </trkpt>
      <trkpt lat="45.98587" lon="4.71497">
        <ele>192</ele>
        <time>2016-09-10T10:43:14Z</time>
      </trkpt>
      <trkpt lat="45.98583" lon="4.71497">
        <ele>192</ele>
        <time>2016-09-10T10:43:15Z</time>
      </trkpt>
      <trkpt lat="45.98577" lon="4.71499">
        <ele>192</ele>
        <time>2016-09-10T10:43:17Z</time>
      </trkpt>
      <trkpt lat="45.98574" lon="4.715">
        <ele>193</ele>
        <time>2016-09-10T10:43:18Z</time>
      </trkpt>
      <trkpt lat="45.98565" lon="4.71502">
        <ele>193</ele>
        <time>2016-09-10T10:43:22Z</time>
      </trkpt>
      <trkpt lat="45.98562" lon="4.71502">
        <ele>193</ele>
        <time>2016-09-10T10:43:23Z</time>
      </trkpt>
      <trkpt lat="45.98556" lon="4.71503">
        <ele>194</ele>
        <time>2016-09-10T10:43:25Z</time>
      </trkpt>
      <trkpt lat="45.98553" lon="4.71505">
        <ele>194</ele>
        <time>2016-09-10T10:43:26Z</time>
      </trkpt>
      <trkpt lat="45.98546" lon="4.71506">
        <ele>194</ele>
        <time>2016-09-10T10:43:28Z</time>
      </trkpt>
      <trkpt lat="45.98543" lon="4.71507">
        <ele>194</ele>
        <time>2016-09-10T10:43:29Z</time>
      </trkpt>
      <trkpt lat="45.98537" lon="4.71509">
        <ele>194</ele>
        <time>2016-09-10T10:43:31Z</time>
      </trkpt>
      <trkpt lat="45.98534" lon="4.7151">
        <ele>194</ele>
        <time>2016-09-10T10:43:32Z</time>
      </trkpt>
      <trkpt lat="45.98527" lon="4.71511">
        <ele>194</ele>
        <time>2016-09-10T10:43:34Z</time>
      </trkpt>
      <trkpt lat="45.98523" lon="4.71512">
        <ele>194</ele>
        <time>2016-09-10T10:43:35Z</time>
      </trkpt>
      <trkpt lat="45.98516" lon="4.71514">
        <ele>195</ele>
        <time>2016-09-10T10:43:37Z</time>
      </trkpt>
      <trkpt lat="45.98512" lon="4.71515">
        <ele>195</ele>
        <time>2016-09-10T10:43:38Z</time>
      </trkpt>
      <trkpt lat="45.98508" lon="4.71517">
        <ele>195</ele>
        <time>2016-09-10T10:43:39Z</time>
      </trkpt>
      <trkpt lat="45.98502" lon="4.71518">
        <ele>195</ele>
        <time>2016-09-10T10:43:40Z</time>
      </trkpt>
      <trkpt lat="45.98497" lon="4.71519">
        <ele>196</ele>
        <time>2016-09-10T10:43:41Z</time>
      </trkpt>
      <trkpt lat="45.98493" lon="4.71521">
        <ele>196</ele>
        <time>2016-09-10T10:43:42Z</time>
      </trkpt>
      <trkpt lat="45.98488" lon="4.71522">
        <ele>196</ele>
        <time>2016-09-10T10:43:43Z</time>
      </trkpt>
      <trkpt lat="45.98484" lon="4.71523">
        <ele>196</ele>
        <time>2016-09-10T10:43:44Z</time>
      </trkpt>
      <trkpt lat="45.98479" lon="4.71524">
        <ele>196</ele>
        <time>2016-09-10T10:43:45Z</time>
      </trkpt>
      <trkpt lat="45.98474" lon="4.71526">
        <ele>196</ele>
        <time>2016-09-10T10:43:46Z</time>
      </trkpt>
      <trkpt lat="45.98469" lon="4.71527">
        <ele>197</ele>
        <time>2016-09-10T10:43:47Z</time>
      </trkpt>
      <trkpt lat="45.98464" lon="4.71529">
        <ele>197</ele>
        <time>2016-09-10T10:43:48Z</time>
      </trkpt>
      <trkpt lat="45.98459" lon="4.7153">
        <ele>197</ele>
        <time>2016-09-10T10:43:49Z</time>
      </trkpt>
      <trkpt lat="45.98454" lon="4.71532">
        <ele>197</ele>
        <time>2016-09-10T10:43:50Z</time>
      </trkpt>
      <trkpt lat="45.9845" lon="4.71533">
        <ele>197</ele>
        <time>2016-09-10T10:43:51Z</time>
      </trkpt>
      <trkpt lat="45.98445" lon="4.71534">
        <ele>197</ele>
        <time>2016-09-10T10:43:52Z</time>
      </trkpt>
      <trkpt lat="45.98437" lon="4.71535">
        <ele>197</ele>
        <time>2016-09-10T10:43:54Z</time>
      </trkpt>
      <trkpt lat="45.98433" lon="4.71536">
        <ele>197</ele>
        <time>2016-09-10T10:43:55Z</time>
      </trkpt>
      <trkpt lat="45.98426" lon="4.71538">
        <ele>197</ele>
        <time>2016-09-10T10:43:57Z</time>
      </trkpt>
      <trkpt lat="45.98421" lon="4.71539">
        <ele>197</ele>
        <time>2016-09-10T10:43:58Z</time>
      </trkpt>
      <trkpt lat="45.98415" lon="4.71542">
        <ele>198</ele>
        <time>2016-09-10T10:44:00Z</time>
      </trkpt>
      <trkpt lat="45.98412" lon="4.71544">
        <ele>198</ele>
        <time>2016-09-10T10:44:01Z</time>
      </trkpt>
      <trkpt lat="45.98405" lon="4.71547">
        <ele>198</ele>
        <time>2016-09-10T10:44:06Z</time>
      </trkpt>
      <trkpt lat="45.98404" lon="4.71548">
        <ele>198</ele>
        <time>2016-09-10T10:44:07Z</time>
      </trkpt>
      <trkpt lat="45.98402" lon="4.71557">
        <ele>198</ele>
        <time>2016-09-10T10:44:13Z</time>
      </trkpt>
      <trkpt lat="45.984" lon="4.71559">
        <ele>198</ele>
        <time>2016-09-10T10:44:14Z</time>
      </trkpt>
      <trkpt lat="45.98398" lon="4.7156">
        <ele>198</ele>
        <time>2016-09-10T10:44:15Z</time>
      </trkpt>
      <trkpt lat="45.98393" lon="4.71565">
        <ele>198</ele>
        <time>2016-09-10T10:44:17Z</time>
      </trkpt>
      <trkpt lat="45.98389" lon="4.71569">
        <ele>198</ele>
        <time>2016-09-10T10:44:18Z</time>
      </trkpt>
      <trkpt lat="45.98385" lon="4.71573">
        <ele>198</ele>
        <time>2016-09-10T10:44:19Z</time>
      </trkpt>
      <trkpt lat="45.98381" lon="4.71578">
        <ele>198</ele>
        <time>2016-09-10T10:44:20Z</time>
      </trkpt>
      <trkpt lat="45.98377" lon="4.71582">
        <ele>198</ele>
        <time>2016-09-10T10:44:21Z</time>
      </trkpt>
      <trkpt lat="45.98372" lon="4.71584">
        <ele>198</ele>
        <time>2016-09-10T10:44:22Z</time>
      </trkpt>
      <trkpt lat="45.98367" lon="4.71585">
        <ele>198</ele>
        <time>2016-09-10T10:44:23Z</time>
      </trkpt>
      <trkpt lat="45.98363" lon="4.71584">
        <ele>198</ele>
        <time>2016-09-10T10:44:24Z</time>
      </trkpt>
      <trkpt lat="45.98357" lon="4.71582">
        <ele>199</ele>
        <time>2016-09-10T10:44:25Z</time>
      </trkpt>
      <trkpt lat="45.98352" lon="4.71579">
        <ele>199</ele>
        <time>2016-09-10T10:44:26Z</time>
      </trkpt>
      <trkpt lat="45.98347" lon="4.71577">
        <ele>199</ele>
        <time>2016-09-10T10:44:27Z</time>
      </trkpt>
      <trkpt lat="45.98343" lon="4.71574">
        <ele>199</ele>
        <time>2016-09-10T10:44:28Z</time>
      </trkpt>
      <trkpt lat="45.98338" lon="4.71571">
        <ele>199</ele>
        <time>2016-09-10T10:44:29Z</time>
      </trkpt>
      <trkpt lat="45.98333" lon="4.71568">
        <ele>198</ele>
        <time>2016-09-10T10:44:30Z</time>
      </trkpt>
      <trkpt lat="45.98329" lon="4.71564">
        <ele>198</ele>
        <time>2016-09-10T10:44:31Z</time>
      </trkpt>
      <trkpt lat="45.98323" lon="4.71561">
        <ele>198</ele>
        <time>2016-09-10T10:44:32Z</time>
      </trkpt>
      <trkpt lat="45.98318" lon="4.71559">
        <ele>198</ele>
        <time>2016-09-10T10:44:33Z</time>
      </trkpt>
      <trkpt lat="45.98313" lon="4.71556">
        <ele>198</ele>
        <time>2016-09-10T10:44:34Z</time>
      </trkpt>
      <trkpt lat="45.98307" lon="4.71552">
        <ele>198</ele>
        <time>2016-09-10T10:44:35Z</time>
      </trkpt>
      <trkpt lat="45.98302" lon="4.71549">
        <ele>198</ele>
        <time>2016-09-10T10:44:36Z</time>
      </trkpt>
      <trkpt lat="45.98297" lon="4.71546">
        <ele>198</ele>
        <time>2016-09-10T10:44:37Z</time>
      </trkpt>
      <trkpt lat="45.98292" lon="4.71544">
        <ele>198</ele>
        <time>2016-09-10T10:44:38Z</time>
      </trkpt>
      <trkpt lat="45.98287" lon="4.71541">
        <ele>198</ele>
        <time>2016-09-10T10:44:39Z</time>
      </trkpt>
      <trkpt lat="45.98283" lon="4.71539">
        <ele>198</ele>
        <time>2016-09-10T10:44:40Z</time>
      </trkpt>
      <trkpt lat="45.98277" lon="4.71538">
        <ele>198</ele>
        <time>2016-09-10T10:44:41Z</time>
      </trkpt>
      <trkpt lat="45.98272" lon="4.71536">
        <ele>197</ele>
        <time>2016-09-10T10:44:42Z</time>
      </trkpt>
      <trkpt lat="45.98266" lon="4.71534">
        <ele>197</ele>
        <time>2016-09-10T10:44:43Z</time>
      </trkpt>
      <trkpt lat="45.98261" lon="4.71531">
        <ele>197</ele>
        <time>2016-09-10T10:44:44Z</time>
      </trkpt>
      <trkpt lat="45.98256" lon="4.71528">
        <ele>197</ele>
        <time>2016-09-10T10:44:45Z</time>
      </trkpt>
      <trkpt lat="45.98251" lon="4.71525">
        <ele>197</ele>
        <time>2016-09-10T10:44:46Z</time>
      </trkpt>
      <trkpt lat="45.98246" lon="4.71521">
        <ele>196</ele>
        <time>2016-09-10T10:44:47Z</time>
      </trkpt>
      <trkpt lat="45.98241" lon="4.71517">
        <ele>196</ele>
        <time>2016-09-10T10:44:48Z</time>
      </trkpt>
      <trkpt lat="45.98236" lon="4.71515">
        <ele>196</ele>
        <time>2016-09-10T10:44:49Z</time>
      </trkpt>
      <trkpt lat="45.98231" lon="4.71511">
        <ele>196</ele>
        <time>2016-09-10T10:44:50Z</time>
      </trkpt>
      <trkpt lat="45.98226" lon="4.71508">
        <ele>196</ele>
        <time>2016-09-10T10:44:51Z</time>
      </trkpt>
      <trkpt lat="45.9822" lon="4.71505">
        <ele>196</ele>
        <time>2016-09-10T10:44:52Z</time>
      </trkpt>
      <trkpt lat="45.98214" lon="4.71502">
        <ele>196</ele>
        <time>2016-09-10T10:44:53Z</time>
      </trkpt>
      <trkpt lat="45.98208" lon="4.71499">
        <ele>197</ele>
        <time>2016-09-10T10:44:54Z</time>
      </trkpt>
      <trkpt lat="45.98201" lon="4.71497">
        <ele>197</ele>
        <time>2016-09-10T10:44:55Z</time>
      </trkpt>
      <trkpt lat="45.98194" lon="4.71496">
        <ele>197</ele>
        <time>2016-09-10T10:44:56Z</time>
      </trkpt>
      <trkpt lat="45.98188" lon="4.71496">
        <ele>197</ele>
        <time>2016-09-10T10:44:57Z</time>
      </trkpt>
      <trkpt lat="45.98182" lon="4.71496">
        <ele>197</ele>
        <time>2016-09-10T10:44:58Z</time>
      </trkpt>
      <trkpt lat="45.98176" lon="4.71497">
        <ele>197</ele>
        <time>2016-09-10T10:44:59Z</time>
      </trkpt>
      <trkpt lat="45.9817" lon="4.71499">
        <ele>197</ele>
        <time>2016-09-10T10:45:00Z</time>
      </trkpt>
      <trkpt lat="45.98165" lon="4.71502">
        <ele>197</ele>
        <time>2016-09-10T10:45:01Z</time>
      </trkpt>
      <trkpt lat="45.9816" lon="4.71505">
        <ele>197</ele>
        <time>2016-09-10T10:45:02Z</time>
      </trkpt>
      <trkpt lat="45.98155" lon="4.71508">
        <ele>197</ele>
        <time>2016-09-10T10:45:03Z</time>
      </trkpt>
      <trkpt lat="45.98149" lon="4.71511">
        <ele>197</ele>
        <time>2016-09-10T10:45:04Z</time>
      </trkpt>
      <trkpt lat="45.98144" lon="4.71515">
        <ele>197</ele>
        <time>2016-09-10T10:45:05Z</time>
      </trkpt>
      <trkpt lat="45.98139" lon="4.71518">
        <ele>197</ele>
        <time>2016-09-10T10:45:06Z</time>
      </trkpt>
      <trkpt lat="45.98134" lon="4.71522">
        <ele>197</ele>
        <time>2016-09-10T10:45:07Z</time>
      </trkpt>
      <trkpt lat="45.98129" lon="4.71525">
        <ele>197</ele>
        <time>2016-09-10T10:45:08Z</time>
      </trkpt>
      <trkpt lat="45.98124" lon="4.71529">
        <ele>197</ele>
        <time>2016-09-10T10:45:09Z</time>
      </trkpt>
      <trkpt lat="45.98119" lon="4.71532">
        <ele>197</ele>
        <time>2016-09-10T10:45:10Z</time>
      </trkpt>
      <trkpt lat="45.98114" lon="4.71535">
        <ele>197</ele>
        <time>2016-09-10T10:45:11Z</time>
      </trkpt>
      <trkpt lat="45.9811" lon="4.71539">
        <ele>197</ele>
        <time>2016-09-10T10:45:12Z</time>
      </trkpt>
      <trkpt lat="45.98105" lon="4.71543">
        <ele>197</ele>
        <time>2016-09-10T10:45:13Z</time>
      </trkpt>
      <trkpt lat="45.98101" lon="4.71546">
        <ele>197</ele>
        <time>2016-09-10T10:45:14Z</time>
      </trkpt>
      <trkpt lat="45.98096" lon="4.71549">
        <ele>197</ele>
        <time>2016-09-10T10:45:15Z</time>
      </trkpt>
      <trkpt lat="45.98091" lon="4.71552">
        <ele>198</ele>
        <time>2016-09-10T10:45:16Z</time>
      </trkpt>
      <trkpt lat="45.98086" lon="4.71555">
        <ele>198</ele>
        <time>2016-09-10T10:45:17Z</time>
      </trkpt>
      <trkpt lat="45.9808" lon="4.71558">
        <ele>198</ele>
        <time>2016-09-10T10:45:18Z</time>
      </trkpt>
      <trkpt lat="45.98075" lon="4.71561">
        <ele>198</ele>
        <time>2016-09-10T10:45:19Z</time>
      </trkpt>
      <trkpt lat="45.9807" lon="4.71565">
        <ele>198</ele>
        <time>2016-09-10T10:45:20Z</time>
      </trkpt>
      <trkpt lat="45.98065" lon="4.71568">
        <ele>198</ele>
        <time>2016-09-10T10:45:21Z</time>
      </trkpt>
      <trkpt lat="45.9806" lon="4.71572">
        <ele>198</ele>
        <time>2016-09-10T10:45:22Z</time>
      </trkpt>
      <trkpt lat="45.98055" lon="4.71575">
        <ele>198</ele>
        <time>2016-09-10T10:45:23Z</time>
      </trkpt>
      <trkpt lat="45.9805" lon="4.71579">
        <ele>198</ele>
        <time>2016-09-10T10:45:24Z</time>
      </trkpt>
      <trkpt lat="45.98045" lon="4.71582">
        <ele>198</ele>
        <time>2016-09-10T10:45:25Z</time>
      </trkpt>
      <trkpt lat="45.98041" lon="4.71585">
        <ele>198</ele>
        <time>2016-09-10T10:45:26Z</time>
      </trkpt>
      <trkpt lat="45.98036" lon="4.71588">
        <ele>198</ele>
        <time>2016-09-10T10:45:27Z</time>
      </trkpt>
      <trkpt lat="45.98032" lon="4.71592">
        <ele>198</ele>
        <time>2016-09-10T10:45:28Z</time>
      </trkpt>
      <trkpt lat="45.98027" lon="4.71596">
        <ele>198</ele>
        <time>2016-09-10T10:45:29Z</time>
      </trkpt>
      <trkpt lat="45.98022" lon="4.716">
        <ele>198</ele>
        <time>2016-09-10T10:45:30Z</time>
      </trkpt>
      <trkpt lat="45.98017" lon="4.71604">
        <ele>198</ele>
        <time>2016-09-10T10:45:31Z</time>
      </trkpt>
      <trkpt lat="45.98012" lon="4.71608">
        <ele>198</ele>
        <time>2016-09-10T10:45:32Z</time>
      </trkpt>
      <trkpt lat="45.98006" lon="4.71613">
        <ele>198</ele>
        <time>2016-09-10T10:45:33Z</time>
      </trkpt>
      <trkpt lat="45.98001" lon="4.71617">
        <ele>198</ele>
        <time>2016-09-10T10:45:34Z</time>
      </trkpt>
      <trkpt lat="45.97995" lon="4.71621">
        <ele>198</ele>
        <time>2016-09-10T10:45:35Z</time>
      </trkpt>
      <trkpt lat="45.9799" lon="4.71626">
        <ele>197</ele>
        <time>2016-09-10T10:45:36Z</time>
      </trkpt>
      <trkpt lat="45.97984" lon="4.7163">
        <ele>197</ele>
        <time>2016-09-10T10:45:37Z</time>
      </trkpt>
      <trkpt lat="45.97979" lon="4.71634">
        <ele>197</ele>
        <time>2016-09-10T10:45:38Z</time>
      </trkpt>
      <trkpt lat="45.97973" lon="4.71638">
        <ele>197</ele>
        <time>2016-09-10T10:45:39Z</time>
      </trkpt>
      <trkpt lat="45.97968" lon="4.71642">
        <ele>197</ele>
        <time>2016-09-10T10:45:40Z</time>
      </trkpt>
      <trkpt lat="45.97963" lon="4.71646">
        <ele>197</ele>
        <time>2016-09-10T10:45:41Z</time>
      </trkpt>
      <trkpt lat="45.97958" lon="4.7165">
        <ele>197</ele>
        <time>2016-09-10T10:45:42Z</time>
      </trkpt>
      <trkpt lat="45.97952" lon="4.71654">
        <ele>197</ele>
        <time>2016-09-10T10:45:43Z</time>
      </trkpt>
      <trkpt lat="45.97947" lon="4.71658">
        <ele>197</ele>
        <time>2016-09-10T10:45:44Z</time>
      </trkpt>
      <trkpt lat="45.97942" lon="4.71661">
        <ele>197</ele>
        <time>2016-09-10T10:45:45Z</time>
      </trkpt>
      <trkpt lat="45.97937" lon="4.71663">
        <ele>197</ele>
        <time>2016-09-10T10:45:46Z</time>
      </trkpt>
      <trkpt lat="45.97932" lon="4.71667">
        <ele>197</ele>
        <time>2016-09-10T10:45:47Z</time>
      </trkpt>
      <trkpt lat="45.97926" lon="4.71672">
        <ele>197</ele>
        <time>2016-09-10T10:45:48Z</time>
      </trkpt>
      <trkpt lat="45.97921" lon="4.71676">
        <ele>197</ele>
        <time>2016-09-10T10:45:49Z</time>
      </trkpt>
      <trkpt lat="45.97917" lon="4.7168">
        <ele>197</ele>
        <time>2016-09-10T10:45:50Z</time>
      </trkpt>
      <trkpt lat="45.97912" lon="4.71684">
        <ele>196</ele>
        <time>2016-09-10T10:45:51Z</time>
      </trkpt>
      <trkpt lat="45.97907" lon="4.71688">
        <ele>196</ele>
        <time>2016-09-10T10:45:52Z</time>
      </trkpt>
      <trkpt lat="45.97904" lon="4.71693">
        <ele>196</ele>
        <time>2016-09-10T10:45:53Z</time>
      </trkpt>
      <trkpt lat="45.979" lon="4.71699">
        <ele>196</ele>
        <time>2016-09-10T10:45:54Z</time>
      </trkpt>
      <trkpt lat="45.97894" lon="4.71706">
        <ele>196</ele>
        <time>2016-09-10T10:45:56Z</time>
      </trkpt>
      <trkpt lat="45.97891" lon="4.71708">
        <ele>196</ele>
        <time>2016-09-10T10:45:57Z</time>
      </trkpt>
      <trkpt lat="45.97883" lon="4.71707">
        <ele>196</ele>
        <time>2016-09-10T10:45:59Z</time>
      </trkpt>
      <trkpt lat="45.97879" lon="4.71706">
        <ele>196</ele>
        <time>2016-09-10T10:46:00Z</time>
      </trkpt>
      <trkpt lat="45.97873" lon="4.71706">
        <ele>196</ele>
        <time>2016-09-10T10:46:01Z</time>
      </trkpt>
      <trkpt lat="45.97868" lon="4.71708">
        <ele>196</ele>
        <time>2016-09-10T10:46:02Z</time>
      </trkpt>
      <trkpt lat="45.97863" lon="4.71712">
        <ele>196</ele>
        <time>2016-09-10T10:46:03Z</time>
      </trkpt>
      <trkpt lat="45.97858" lon="4.71717">
        <ele>196</ele>
        <time>2016-09-10T10:46:04Z</time>
      </trkpt>
      <trkpt lat="45.97853" lon="4.71724">
        <ele>196</ele>
        <time>2016-09-10T10:46:05Z</time>
      </trkpt>
      <trkpt lat="45.97848" lon="4.71731">
        <ele>196</ele>
        <time>2016-09-10T10:46:06Z</time>
      </trkpt>
      <trkpt lat="45.97843" lon="4.71737">
        <ele>195</ele>
        <time>2016-09-10T10:46:07Z</time>
      </trkpt>
      <trkpt lat="45.97838" lon="4.71741">
        <ele>195</ele>
        <time>2016-09-10T10:46:08Z</time>
      </trkpt>
      <trkpt lat="45.97832" lon="4.71743">
        <ele>195</ele>
        <time>2016-09-10T10:46:09Z</time>
      </trkpt>
      <trkpt lat="45.97826" lon="4.71743">
        <ele>196</ele>
        <time>2016-09-10T10:46:10Z</time>
      </trkpt>
      <trkpt lat="45.9782" lon="4.71744">
        <ele>196</ele>
        <time>2016-09-10T10:46:11Z</time>
      </trkpt>
      <trkpt lat="45.97814" lon="4.71744">
        <ele>196</ele>
        <time>2016-09-10T10:46:12Z</time>
      </trkpt>
      <trkpt lat="45.97808" lon="4.71744">
        <ele>196</ele>
        <time>2016-09-10T10:46:13Z</time>
      </trkpt>
      <trkpt lat="45.97802" lon="4.71744">
        <ele>196</ele>
        <time>2016-09-10T10:46:14Z</time>
      </trkpt>
      <trkpt lat="45.97796" lon="4.71743">
        <ele>196</ele>
        <time>2016-09-10T10:46:15Z</time>
      </trkpt>
      <trkpt lat="45.97791" lon="4.71744">
        <ele>196</ele>
        <time>2016-09-10T10:46:16Z</time>
      </trkpt>
      <trkpt lat="45.97785" lon="4.71743">
        <ele>196</ele>
        <time>2016-09-10T10:46:17Z</time>
      </trkpt>
      <trkpt lat="45.9778" lon="4.71743">
        <ele>196</ele>
        <time>2016-09-10T10:46:18Z</time>
      </trkpt>
      <trkpt lat="45.97774" lon="4.71743">
        <ele>196</ele>
        <time>2016-09-10T10:46:19Z</time>
      </trkpt>
      <trkpt lat="45.97768" lon="4.71742">
        <ele>196</ele>
        <time>2016-09-10T10:46:20Z</time>
      </trkpt>
      <trkpt lat="45.97762" lon="4.71741">
        <ele>196</ele>
        <time>2016-09-10T10:46:21Z</time>
      </trkpt>
      <trkpt lat="45.97755" lon="4.71741">
        <ele>196</ele>
        <time>2016-09-10T10:46:22Z</time>
      </trkpt>
      <trkpt lat="45.97749" lon="4.71741">
        <ele>196</ele>
        <time>2016-09-10T10:46:23Z</time>
      </trkpt>
      <trkpt lat="45.97742" lon="4.7174">
        <ele>196</ele>
        <time>2016-09-10T10:46:24Z</time>
      </trkpt>
      <trkpt lat="45.97735" lon="4.71739">
        <ele>196</ele>
        <time>2016-09-10T10:46:25Z</time>
      </trkpt>
      <trkpt lat="45.97728" lon="4.71738">
        <ele>196</ele>
        <time>2016-09-10T10:46:26Z</time>
      </trkpt>
      <trkpt lat="45.97721" lon="4.71737">
        <ele>196</ele>
        <time>2016-09-10T10:46:27Z</time>
      </trkpt>
      <trkpt lat="45.97715" lon="4.71737">
        <ele>196</ele>
        <time>2016-09-10T10:46:28Z</time>
      </trkpt>
      <trkpt lat="45.97708" lon="4.71737">
        <ele>196</ele>
        <time>2016-09-10T10:46:29Z</time>
      </trkpt>
      <trkpt lat="45.97702" lon="4.71736">
        <ele>196</ele>
        <time>2016-09-10T10:46:30Z</time>
      </trkpt>
      <trkpt lat="45.97696" lon="4.71736">
        <ele>196</ele>
        <time>2016-09-10T10:46:31Z</time>
      </trkpt>
      <trkpt lat="45.9769" lon="4.71735">
        <ele>196</ele>
        <time>2016-09-10T10:46:32Z</time>
      </trkpt>
      <trkpt lat="45.97684" lon="4.71735">
        <ele>196</ele>
        <time>2016-09-10T10:46:33Z</time>
      </trkpt>
      <trkpt lat="45.97678" lon="4.71735">
        <ele>196</ele>
        <time>2016-09-10T10:46:34Z</time>
      </trkpt>
      <trkpt lat="45.97672" lon="4.71735">
        <ele>195</ele>
        <time>2016-09-10T10:46:35Z</time>
      </trkpt>
      <trkpt lat="45.97666" lon="4.71734">
        <ele>195</ele>
        <time>2016-09-10T10:46:36Z</time>
      </trkpt>
      <trkpt lat="45.9766" lon="4.71734">
        <ele>196</ele>
        <time>2016-09-10T10:46:37Z</time>
      </trkpt>
      <trkpt lat="45.97655" lon="4.71734">
        <ele>196</ele>
        <time>2016-09-10T10:46:38Z</time>
      </trkpt>
      <trkpt lat="45.9765" lon="4.71734">
        <ele>196</ele>
        <time>2016-09-10T10:46:39Z</time>
      </trkpt>
      <trkpt lat="45.97644" lon="4.71733">
        <ele>196</ele>
        <time>2016-09-10T10:46:40Z</time>
      </trkpt>
      <trkpt lat="45.9764" lon="4.71731">
        <ele>196</ele>
        <time>2016-09-10T10:46:41Z</time>
      </trkpt>
      <trkpt lat="45.97636" lon="4.71726">
        <ele>196</ele>
        <time>2016-09-10T10:46:42Z</time>
      </trkpt>
      <trkpt lat="45.97631" lon="4.71724">
        <ele>197</ele>
        <time>2016-09-10T10:46:43Z</time>
      </trkpt>
      <trkpt lat="45.97626" lon="4.7172">
        <ele>197</ele>
        <time>2016-09-10T10:46:44Z</time>
      </trkpt>
      <trkpt lat="45.97618" lon="4.7172">
        <ele>197</ele>
        <time>2016-09-10T10:46:45Z</time>
      </trkpt>
      <trkpt lat="45.97612" lon="4.7172">
        <ele>197</ele>
        <time>2016-09-10T10:46:46Z</time>
      </trkpt>
      <trkpt lat="45.97606" lon="4.71721">
        <ele>197</ele>
        <time>2016-09-10T10:46:47Z</time>
      </trkpt>
      <trkpt lat="45.976" lon="4.71724">
        <ele>197</ele>
        <time>2016-09-10T10:46:48Z</time>
      </trkpt>
      <trkpt lat="45.97594" lon="4.71726">
        <ele>196</ele>
        <time>2016-09-10T10:46:49Z</time>
      </trkpt>
      <trkpt lat="45.97588" lon="4.71729">
        <ele>196</ele>
        <time>2016-09-10T10:46:50Z</time>
      </trkpt>
      <trkpt lat="45.97581" lon="4.71729">
        <ele>197</ele>
        <time>2016-09-10T10:46:51Z</time>
      </trkpt>
      <trkpt lat="45.97575" lon="4.71729">
        <ele>197</ele>
        <time>2016-09-10T10:46:52Z</time>
      </trkpt>
      <trkpt lat="45.97568" lon="4.71728">
        <ele>197</ele>
        <time>2016-09-10T10:46:53Z</time>
      </trkpt>
      <trkpt lat="45.97562" lon="4.71727">
        <ele>197</ele>
        <time>2016-09-10T10:46:54Z</time>
      </trkpt>
      <trkpt lat="45.97556" lon="4.71727">
        <ele>198</ele>
        <time>2016-09-10T10:46:55Z</time>
      </trkpt>
      <trkpt lat="45.9755" lon="4.71727">
        <ele>198</ele>
        <time>2016-09-10T10:46:56Z</time>
      </trkpt>
      <trkpt lat="45.97543" lon="4.71726">
        <ele>198</ele>
        <time>2016-09-10T10:46:57Z</time>
      </trkpt>
      <trkpt lat="45.97537" lon="4.71726">
        <ele>198</ele>
        <time>2016-09-10T10:46:58Z</time>
      </trkpt>
      <trkpt lat="45.97531" lon="4.71726">
        <ele>198</ele>
        <time>2016-09-10T10:46:59Z</time>
      </trkpt>
      <trkpt lat="45.97525" lon="4.71725">
        <ele>198</ele>
        <time>2016-09-10T10:47:00Z</time>
      </trkpt>
      <trkpt lat="45.97519" lon="4.71724">
        <ele>198</ele>
        <time>2016-09-10T10:47:01Z</time>
      </trkpt>
      <trkpt lat="45.97513" lon="4.71724">
        <ele>198</ele>
        <time>2016-09-10T10:47:02Z</time>
      </trkpt>
      <trkpt lat="45.97507" lon="4.71723">
        <ele>198</ele>
        <time>2016-09-10T10:47:03Z</time>
      </trkpt>
      <trkpt lat="45.975" lon="4.71723">
        <ele>198</ele>
        <time>2016-09-10T10:47:04Z</time>
      </trkpt>
      <trkpt lat="45.97493" lon="4.71722">
        <ele>197</ele>
        <time>2016-09-10T10:47:05Z</time>
      </trkpt>
      <trkpt lat="45.97487" lon="4.71722">
        <ele>197</ele>
        <time>2016-09-10T10:47:06Z</time>
      </trkpt>
      <trkpt lat="45.97481" lon="4.71722">
        <ele>197</ele>
        <time>2016-09-10T10:47:07Z</time>
      </trkpt>
      <trkpt lat="45.97475" lon="4.71721">
        <ele>197</ele>
        <time>2016-09-10T10:47:08Z</time>
      </trkpt>
      <trkpt lat="45.97469" lon="4.7172">
        <ele>197</ele>
        <time>2016-09-10T10:47:09Z</time>
      </trkpt>
      <trkpt lat="45.97463" lon="4.71719">
        <ele>197</ele>
        <time>2016-09-10T10:47:10Z</time>
      </trkpt>
      <trkpt lat="45.97457" lon="4.71717">
        <ele>197</ele>
        <time>2016-09-10T10:47:11Z</time>
      </trkpt>
      <trkpt lat="45.97451" lon="4.71716">
        <ele>197</ele>
        <time>2016-09-10T10:47:12Z</time>
      </trkpt>
      <trkpt lat="45.97445" lon="4.71715">
        <ele>197</ele>
        <time>2016-09-10T10:47:13Z</time>
      </trkpt>
      <trkpt lat="45.97439" lon="4.71714">
        <ele>197</ele>
        <time>2016-09-10T10:47:14Z</time>
      </trkpt>
      <trkpt lat="45.97433" lon="4.71714">
        <ele>196</ele>
        <time>2016-09-10T10:47:15Z</time>
      </trkpt>
      <trkpt lat="45.97427" lon="4.71714">
        <ele>196</ele>
        <time>2016-09-10T10:47:16Z</time>
      </trkpt>
      <trkpt lat="45.97421" lon="4.71713">
        <ele>196</ele>
        <time>2016-09-10T10:47:17Z</time>
      </trkpt>
      <trkpt lat="45.97415" lon="4.71713">
        <ele>195</ele>
        <time>2016-09-10T10:47:18Z</time>
      </trkpt>
      <trkpt lat="45.97408" lon="4.71713">
        <ele>195</ele>
        <time>2016-09-10T10:47:19Z</time>
      </trkpt>
      <trkpt lat="45.97402" lon="4.71713">
        <ele>195</ele>
        <time>2016-09-10T10:47:20Z</time>
      </trkpt>
      <trkpt lat="45.97395" lon="4.71713">
        <ele>195</ele>
        <time>2016-09-10T10:47:21Z</time>
      </trkpt>
      <trkpt lat="45.97388" lon="4.71712">
        <ele>195</ele>
        <time>2016-09-10T10:47:22Z</time>
      </trkpt>
      <trkpt lat="45.97381" lon="4.71711">
        <ele>195</ele>
        <time>2016-09-10T10:47:23Z</time>
      </trkpt>
      <trkpt lat="45.97374" lon="4.71711">
        <ele>195</ele>
        <time>2016-09-10T10:47:24Z</time>
      </trkpt>
      <trkpt lat="45.97368" lon="4.7171">
        <ele>195</ele>
        <time>2016-09-10T10:47:25Z</time>
      </trkpt>
      <trkpt lat="45.97361" lon="4.71709">
        <ele>195</ele>
        <time>2016-09-10T10:47:26Z</time>
      </trkpt>
      <trkpt lat="45.97355" lon="4.71708">
        <ele>195</ele>
        <time>2016-09-10T10:47:27Z</time>
      </trkpt>
      <trkpt lat="45.97348" lon="4.71708">
        <ele>195</ele>
        <time>2016-09-10T10:47:28Z</time>
      </trkpt>
      <trkpt lat="45.97343" lon="4.71708">
        <ele>195</ele>
        <time>2016-09-10T10:47:29Z</time>
      </trkpt>
      <trkpt lat="45.97336" lon="4.71707">
        <ele>195</ele>
        <time>2016-09-10T10:47:30Z</time>
      </trkpt>
      <trkpt lat="45.9733" lon="4.71706">
        <ele>196</ele>
        <time>2016-09-10T10:47:31Z</time>
      </trkpt>
      <trkpt lat="45.97325" lon="4.71704">
        <ele>196</ele>
        <time>2016-09-10T10:47:32Z</time>
      </trkpt>
      <trkpt lat="45.97319" lon="4.717">
        <ele>196</ele>
        <time>2016-09-10T10:47:33Z</time>
      </trkpt>
      <trkpt lat="45.97314" lon="4.71698">
        <ele>196</ele>
        <time>2016-09-10T10:47:34Z</time>
      </trkpt>
      <trkpt lat="45.97307" lon="4.71697">
        <ele>196</ele>
        <time>2016-09-10T10:47:35Z</time>
      </trkpt>
      <trkpt lat="45.973" lon="4.71698">
        <ele>196</ele>
        <time>2016-09-10T10:47:36Z</time>
      </trkpt>
      <trkpt lat="45.97294" lon="4.71701">
        <ele>196</ele>
        <time>2016-09-10T10:47:37Z</time>
      </trkpt>
      <trkpt lat="45.97287" lon="4.71703">
        <ele>196</ele>
        <time>2016-09-10T10:47:38Z</time>
      </trkpt>
      <trkpt lat="45.97279" lon="4.71703">
        <ele>196</ele>
        <time>2016-09-10T10:47:39Z</time>
      </trkpt>
      <trkpt lat="45.97272" lon="4.71701">
        <ele>197</ele>
        <time>2016-09-10T10:47:40Z</time>
      </trkpt>
      <trkpt lat="45.97265" lon="4.717">
        <ele>197</ele>
        <time>2016-09-10T10:47:41Z</time>
      </trkpt>
      <trkpt lat="45.97257" lon="4.71698">
        <ele>197</ele>
        <time>2016-09-10T10:47:42Z</time>
      </trkpt>
      <trkpt lat="45.9725" lon="4.71697">
        <ele>197</ele>
        <time>2016-09-10T10:47:43Z</time>
      </trkpt>
      <trkpt lat="45.97242" lon="4.71697">
        <ele>197</ele>
        <time>2016-09-10T10:47:44Z</time>
      </trkpt>
      <trkpt lat="45.97235" lon="4.71696">
        <ele>197</ele>
        <time>2016-09-10T10:47:45Z</time>
      </trkpt>
      <trkpt lat="45.97227" lon="4.71695">
        <ele>197</ele>
        <time>2016-09-10T10:47:46Z</time>
      </trkpt>
      <trkpt lat="45.9722" lon="4.71695">
        <ele>197</ele>
        <time>2016-09-10T10:47:47Z</time>
      </trkpt>
      <trkpt lat="45.97213" lon="4.71694">
        <ele>197</ele>
        <time>2016-09-10T10:47:48Z</time>
      </trkpt>
      <trkpt lat="45.97206" lon="4.71694">
        <ele>197</ele>
        <time>2016-09-10T10:47:49Z</time>
      </trkpt>
      <trkpt lat="45.97199" lon="4.71693">
        <ele>197</ele>
        <time>2016-09-10T10:47:50Z</time>
      </trkpt>
      <trkpt lat="45.97192" lon="4.71692">
        <ele>197</ele>
        <time>2016-09-10T10:47:51Z</time>
      </trkpt>
      <trkpt lat="45.97185" lon="4.71691">
        <ele>197</ele>
        <time>2016-09-10T10:47:52Z</time>
      </trkpt>
      <trkpt lat="45.97178" lon="4.71691">
        <ele>197</ele>
        <time>2016-09-10T10:47:53Z</time>
      </trkpt>
      <trkpt lat="45.97171" lon="4.7169">
        <ele>197</ele>
        <time>2016-09-10T10:47:54Z</time>
      </trkpt>
      <trkpt lat="45.97165" lon="4.71689">
        <ele>196</ele>
        <time>2016-09-10T10:47:55Z</time>
      </trkpt>
      <trkpt lat="45.97158" lon="4.71688">
        <ele>196</ele>
        <time>2016-09-10T10:47:56Z</time>
      </trkpt>
      <trkpt lat="45.97152" lon="4.71687">
        <ele>195</ele>
        <time>2016-09-10T10:47:57Z</time>
      </trkpt>
      <trkpt lat="45.97145" lon="4.71685">
        <ele>195</ele>
        <time>2016-09-10T10:47:58Z</time>
      </trkpt>
      <trkpt lat="45.97139" lon="4.71686">
        <ele>195</ele>
        <time>2016-09-10T10:47:59Z</time>
      </trkpt>
      <trkpt lat="45.97132" lon="4.71689">
        <ele>195</ele>
        <time>2016-09-10T10:48:00Z</time>
      </trkpt>
      <trkpt lat="45.97125" lon="4.7169">
        <ele>195</ele>
        <time>2016-09-10T10:48:01Z</time>
      </trkpt>
      <trkpt lat="45.97118" lon="4.71689">
        <ele>194</ele>
        <time>2016-09-10T10:48:02Z</time>
      </trkpt>
      <trkpt lat="45.97111" lon="4.71689">
        <ele>194</ele>
        <time>2016-09-10T10:48:03Z</time>
      </trkpt>
      <trkpt lat="45.97104" lon="4.71688">
        <ele>194</ele>
        <time>2016-09-10T10:48:04Z</time>
      </trkpt>
      <trkpt lat="45.97097" lon="4.71688">
        <ele>194</ele>
        <time>2016-09-10T10:48:05Z</time>
      </trkpt>
      <trkpt lat="45.9709" lon="4.71687">
        <ele>194</ele>
        <time>2016-09-10T10:48:06Z</time>
      </trkpt>
      <trkpt lat="45.97082" lon="4.71686">
        <ele>193</ele>
        <time>2016-09-10T10:48:07Z</time>
      </trkpt>
      <trkpt lat="45.97074" lon="4.71684">
        <ele>193</ele>
        <time>2016-09-10T10:48:08Z</time>
      </trkpt>
      <trkpt lat="45.97067" lon="4.71682">
        <ele>193</ele>
        <time>2016-09-10T10:48:09Z</time>
      </trkpt>
      <trkpt lat="45.9706" lon="4.71681">
        <ele>193</ele>
        <time>2016-09-10T10:48:10Z</time>
      </trkpt>
      <trkpt lat="45.97052" lon="4.7168">
        <ele>193</ele>
        <time>2016-09-10T10:48:11Z</time>
      </trkpt>
      <trkpt lat="45.97045" lon="4.71679">
        <ele>193</ele>
        <time>2016-09-10T10:48:12Z</time>
      </trkpt>
      <trkpt lat="45.97038" lon="4.71678">
        <ele>193</ele>
        <time>2016-09-10T10:48:13Z</time>
      </trkpt>
      <trkpt lat="45.9703" lon="4.71677">
        <ele>193</ele>
        <time>2016-09-10T10:48:14Z</time>
      </trkpt>
      <trkpt lat="45.97023" lon="4.71677">
        <ele>193</ele>
        <time>2016-09-10T10:48:15Z</time>
      </trkpt>
      <trkpt lat="45.97016" lon="4.71677">
        <ele>193</ele>
        <time>2016-09-10T10:48:16Z</time>
      </trkpt>
      <trkpt lat="45.97009" lon="4.71677">
        <ele>193</ele>
        <time>2016-09-10T10:48:17Z</time>
      </trkpt>
      <trkpt lat="45.97002" lon="4.71677">
        <ele>193</ele>
        <time>2016-09-10T10:48:18Z</time>
      </trkpt>
      <trkpt lat="45.96995" lon="4.71676">
        <ele>193</ele>
        <time>2016-09-10T10:48:19Z</time>
      </trkpt>
      <trkpt lat="45.96988" lon="4.71676">
        <ele>193</ele>
        <time>2016-09-10T10:48:20Z</time>
      </trkpt>
      <trkpt lat="45.96981" lon="4.71677">
        <ele>192</ele>
        <time>2016-09-10T10:48:21Z</time>
      </trkpt>
      <trkpt lat="45.96975" lon="4.71676">
        <ele>192</ele>
        <time>2016-09-10T10:48:22Z</time>
      </trkpt>
      <trkpt lat="45.96969" lon="4.71675">
        <ele>192</ele>
        <time>2016-09-10T10:48:23Z</time>
      </trkpt>
      <trkpt lat="45.96963" lon="4.71675">
        <ele>192</ele>
        <time>2016-09-10T10:48:24Z</time>
      </trkpt>
      <trkpt lat="45.96956" lon="4.71674">
        <ele>192</ele>
        <time>2016-09-10T10:48:25Z</time>
      </trkpt>
      <trkpt lat="45.9695" lon="4.71673">
        <ele>192</ele>
        <time>2016-09-10T10:48:26Z</time>
      </trkpt>
      <trkpt lat="45.96942" lon="4.71673">
        <ele>192</ele>
        <time>2016-09-10T10:48:27Z</time>
      </trkpt>
      <trkpt lat="45.96935" lon="4.71672">
        <ele>193</ele>
        <time>2016-09-10T10:48:28Z</time>
      </trkpt>
      <trkpt lat="45.96928" lon="4.71671">
        <ele>193</ele>
        <time>2016-09-10T10:48:29Z</time>
      </trkpt>
      <trkpt lat="45.96921" lon="4.71671">
        <ele>194</ele>
        <time>2016-09-10T10:48:30Z</time>
      </trkpt>
      <trkpt lat="45.96915" lon="4.7167">
        <ele>194</ele>
        <time>2016-09-10T10:48:31Z</time>
      </trkpt>
      <trkpt lat="45.96908" lon="4.71669">
        <ele>193</ele>
        <time>2016-09-10T10:48:32Z</time>
      </trkpt>
      <trkpt lat="45.96901" lon="4.71669">
        <ele>192</ele>
        <time>2016-09-10T10:48:33Z</time>
      </trkpt>
      <trkpt lat="45.96894" lon="4.71668">
        <ele>191</ele>
        <time>2016-09-10T10:48:34Z</time>
      </trkpt>
      <trkpt lat="45.96887" lon="4.71667">
        <ele>191</ele>
        <time>2016-09-10T10:48:35Z</time>
      </trkpt>
      <trkpt lat="45.9688" lon="4.71666">
        <ele>195</ele>
        <time>2016-09-10T10:48:36Z</time>
      </trkpt>
      <trkpt lat="45.96873" lon="4.71666">
        <ele>195</ele>
        <time>2016-09-10T10:48:37Z</time>
      </trkpt>
      <trkpt lat="45.96867" lon="4.71665">
        <ele>195</ele>
        <time>2016-09-10T10:48:38Z</time>
      </trkpt>
      <trkpt lat="45.9686" lon="4.71664">
        <ele>194</ele>
        <time>2016-09-10T10:48:39Z</time>
      </trkpt>
      <trkpt lat="45.96853" lon="4.71664">
        <ele>194</ele>
        <time>2016-09-10T10:48:40Z</time>
      </trkpt>
      <trkpt lat="45.96847" lon="4.71663">
        <ele>194</ele>
        <time>2016-09-10T10:48:41Z</time>
      </trkpt>
      <trkpt lat="45.9684" lon="4.71662">
        <ele>193</ele>
        <time>2016-09-10T10:48:42Z</time>
      </trkpt>
      <trkpt lat="45.96832" lon="4.71661">
        <ele>192</ele>
        <time>2016-09-10T10:48:43Z</time>
      </trkpt>
      <trkpt lat="45.96825" lon="4.71661">
        <ele>192</ele>
        <time>2016-09-10T10:48:44Z</time>
      </trkpt>
      <trkpt lat="45.96818" lon="4.7166">
        <ele>193</ele>
        <time>2016-09-10T10:48:45Z</time>
      </trkpt>
      <trkpt lat="45.9681" lon="4.71659">
        <ele>193</ele>
        <time>2016-09-10T10:48:46Z</time>
      </trkpt>
      <trkpt lat="45.96803" lon="4.71657">
        <ele>193</ele>
        <time>2016-09-10T10:48:47Z</time>
      </trkpt>
      <trkpt lat="45.96796" lon="4.71656">
        <ele>192</ele>
        <time>2016-09-10T10:48:48Z</time>
      </trkpt>
      <trkpt lat="45.96788" lon="4.71654">
        <ele>192</ele>
        <time>2016-09-10T10:48:49Z</time>
      </trkpt>
      <trkpt lat="45.9678" lon="4.71652">
        <ele>192</ele>
        <time>2016-09-10T10:48:50Z</time>
      </trkpt>
      <trkpt lat="45.96773" lon="4.7165">
        <ele>192</ele>
        <time>2016-09-10T10:48:51Z</time>
      </trkpt>
      <trkpt lat="45.96765" lon="4.71649">
        <ele>192</ele>
        <time>2016-09-10T10:48:52Z</time>
      </trkpt>
      <trkpt lat="45.96758" lon="4.71648">
        <ele>191</ele>
        <time>2016-09-10T10:48:53Z</time>
      </trkpt>
      <trkpt lat="45.9675" lon="4.71647">
        <ele>191</ele>
        <time>2016-09-10T10:48:54Z</time>
      </trkpt>
      <trkpt lat="45.96743" lon="4.71646">
        <ele>190</ele>
        <time>2016-09-10T10:48:55Z</time>
      </trkpt>
      <trkpt lat="45.96735" lon="4.71646">
        <ele>190</ele>
        <time>2016-09-10T10:48:56Z</time>
      </trkpt>
      <trkpt lat="45.96728" lon="4.71645">
        <ele>190</ele>
        <time>2016-09-10T10:48:57Z</time>
      </trkpt>
      <trkpt lat="45.9672" lon="4.71643">
        <ele>190</ele>
        <time>2016-09-10T10:48:58Z</time>
      </trkpt>
      <trkpt lat="45.96713" lon="4.71642">
        <ele>190</ele>
        <time>2016-09-10T10:48:59Z</time>
      </trkpt>
      <trkpt lat="45.96706" lon="4.71641">
        <ele>190</ele>
        <time>2016-09-10T10:49:00Z</time>
      </trkpt>
      <trkpt lat="45.96698" lon="4.71639">
        <ele>190</ele>
        <time>2016-09-10T10:49:01Z</time>
      </trkpt>
      <trkpt lat="45.96691" lon="4.71638">
        <ele>190</ele>
        <time>2016-09-10T10:49:02Z</time>
      </trkpt>
      <trkpt lat="45.96685" lon="4.71637">
        <ele>190</ele>
        <time>2016-09-10T10:49:03Z</time>
      </trkpt>
      <trkpt lat="45.96677" lon="4.71636">
        <ele>190</ele>
        <time>2016-09-10T10:49:04Z</time>
      </trkpt>
      <trkpt lat="45.9667" lon="4.71635">
        <ele>190</ele>
        <time>2016-09-10T10:49:05Z</time>
      </trkpt>
      <trkpt lat="45.96663" lon="4.71634">
        <ele>188</ele>
        <time>2016-09-10T10:49:06Z</time>
      </trkpt>
      <trkpt lat="45.96657" lon="4.71633">
        <ele>188</ele>
        <time>2016-09-10T10:49:07Z</time>
      </trkpt>
      <trkpt lat="45.9665" lon="4.71632">
        <ele>188</ele>
        <time>2016-09-10T10:49:08Z</time>
      </trkpt>
      <trkpt lat="45.96643" lon="4.71631">
        <ele>188</ele>
        <time>2016-09-10T10:49:09Z</time>
      </trkpt>
      <trkpt lat="45.96636" lon="4.7163">
        <ele>188</ele>
        <time>2016-09-10T10:49:10Z</time>
      </trkpt>
      <trkpt lat="45.96629" lon="4.7163">
        <ele>188</ele>
        <time>2016-09-10T10:49:11Z</time>
      </trkpt>
      <trkpt lat="45.96622" lon="4.71629">
        <ele>188</ele>
        <time>2016-09-10T10:49:12Z</time>
      </trkpt>
      <trkpt lat="45.96615" lon="4.71628">
        <ele>187</ele>
        <time>2016-09-10T10:49:13Z</time>
      </trkpt>
      <trkpt lat="45.96609" lon="4.71627">
        <ele>187</ele>
        <time>2016-09-10T10:49:14Z</time>
      </trkpt>
      <trkpt lat="45.96602" lon="4.71626">
        <ele>187</ele>
        <time>2016-09-10T10:49:15Z</time>
      </trkpt>
      <trkpt lat="45.96595" lon="4.71624">
        <ele>187</ele>
        <time>2016-09-10T10:49:16Z</time>
      </trkpt>
      <trkpt lat="45.96588" lon="4.71624">
        <ele>187</ele>
        <time>2016-09-10T10:49:17Z</time>
      </trkpt>
      <trkpt lat="45.96582" lon="4.71623">
        <ele>185</ele>
        <time>2016-09-10T10:49:18Z</time>
      </trkpt>
      <trkpt lat="45.96575" lon="4.71622">
        <ele>185</ele>
        <time>2016-09-10T10:49:19Z</time>
      </trkpt>
      <trkpt lat="45.96568" lon="4.7162">
        <ele>185</ele>
        <time>2016-09-10T10:49:20Z</time>
      </trkpt>
      <trkpt lat="45.9656" lon="4.71619">
        <ele>185</ele>
        <time>2016-09-10T10:49:21Z</time>
      </trkpt>
      <trkpt lat="45.96554" lon="4.71617">
        <ele>185</ele>
        <time>2016-09-10T10:49:22Z</time>
      </trkpt>
      <trkpt lat="45.96548" lon="4.71615">
        <ele>185</ele>
        <time>2016-09-10T10:49:23Z</time>
      </trkpt>
      <trkpt lat="45.96543" lon="4.71611">
        <ele>185</ele>
        <time>2016-09-10T10:49:24Z</time>
      </trkpt>
      <trkpt lat="45.96537" lon="4.71607">
        <ele>185</ele>
        <time>2016-09-10T10:49:25Z</time>
      </trkpt>
      <trkpt lat="45.96532" lon="4.71604">
        <ele>185</ele>
        <time>2016-09-10T10:49:26Z</time>
      </trkpt>
      <trkpt lat="45.96525" lon="4.71604">
        <ele>185</ele>
        <time>2016-09-10T10:49:27Z</time>
      </trkpt>
      <trkpt lat="45.96518" lon="4.71606">
        <ele>184</ele>
        <time>2016-09-10T10:49:28Z</time>
      </trkpt>
      <trkpt lat="45.96512" lon="4.71608">
        <ele>184</ele>
        <time>2016-09-10T10:49:29Z</time>
      </trkpt>
      <trkpt lat="45.96504" lon="4.7161">
        <ele>184</ele>
        <time>2016-09-10T10:49:30Z</time>
      </trkpt>
      <trkpt lat="45.96497" lon="4.71609">
        <ele>183</ele>
        <time>2016-09-10T10:49:31Z</time>
      </trkpt>
      <trkpt lat="45.96489" lon="4.71608">
        <ele>183</ele>
        <time>2016-09-10T10:49:32Z</time>
      </trkpt>
      <trkpt lat="45.96482" lon="4.71607">
        <ele>183</ele>
        <time>2016-09-10T10:49:33Z</time>
      </trkpt>
      <trkpt lat="45.96476" lon="4.71605">
        <ele>183</ele>
        <time>2016-09-10T10:49:34Z</time>
      </trkpt>
      <trkpt lat="45.96469" lon="4.71604">
        <ele>183</ele>
        <time>2016-09-10T10:49:35Z</time>
      </trkpt>
      <trkpt lat="45.96462" lon="4.71603">
        <ele>183</ele>
        <time>2016-09-10T10:49:36Z</time>
      </trkpt>
      <trkpt lat="45.96455" lon="4.71602">
        <ele>183</ele>
        <time>2016-09-10T10:49:37Z</time>
      </trkpt>
      <trkpt lat="45.96449" lon="4.71601">
        <ele>183</ele>
        <time>2016-09-10T10:49:38Z</time>
      </trkpt>
      <trkpt lat="45.96442" lon="4.716">
        <ele>183</ele>
        <time>2016-09-10T10:49:39Z</time>
      </trkpt>
      <trkpt lat="45.96435" lon="4.71599">
        <ele>183</ele>
        <time>2016-09-10T10:49:40Z</time>
      </trkpt>
      <trkpt lat="45.96429" lon="4.71598">
        <ele>184</ele>
        <time>2016-09-10T10:49:41Z</time>
      </trkpt>
      <trkpt lat="45.96422" lon="4.71597">
        <ele>184</ele>
        <time>2016-09-10T10:49:42Z</time>
      </trkpt>
      <trkpt lat="45.96415" lon="4.71597">
        <ele>184</ele>
        <time>2016-09-10T10:49:43Z</time>
      </trkpt>
      <trkpt lat="45.96409" lon="4.71595">
        <ele>183</ele>
        <time>2016-09-10T10:49:44Z</time>
      </trkpt>
      <trkpt lat="45.96402" lon="4.71594">
        <ele>183</ele>
        <time>2016-09-10T10:49:45Z</time>
      </trkpt>
      <trkpt lat="45.96395" lon="4.71593">
        <ele>183</ele>
        <time>2016-09-10T10:49:46Z</time>
      </trkpt>
      <trkpt lat="45.96388" lon="4.71592">
        <ele>183</ele>
        <time>2016-09-10T10:49:47Z</time>
      </trkpt>
      <trkpt lat="45.96381" lon="4.7159">
        <ele>182</ele>
        <time>2016-09-10T10:49:48Z</time>
      </trkpt>
      <trkpt lat="45.96374" lon="4.71589">
        <ele>182</ele>
        <time>2016-09-10T10:49:49Z</time>
      </trkpt>
      <trkpt lat="45.96367" lon="4.71588">
        <ele>182</ele>
        <time>2016-09-10T10:49:50Z</time>
      </trkpt>
      <trkpt lat="45.96359" lon="4.71587">
        <ele>182</ele>
        <time>2016-09-10T10:49:51Z</time>
      </trkpt>
      <trkpt lat="45.96352" lon="4.71586">
        <ele>182</ele>
        <time>2016-09-10T10:49:52Z</time>
      </trkpt>
      <trkpt lat="45.96345" lon="4.71584">
        <ele>183</ele>
        <time>2016-09-10T10:49:53Z</time>
      </trkpt>
      <trkpt lat="45.96337" lon="4.71583">
        <ele>184</ele>
        <time>2016-09-10T10:49:54Z</time>
      </trkpt>
      <trkpt lat="45.9633" lon="4.71582">
        <ele>183</ele>
        <time>2016-09-10T10:49:55Z</time>
      </trkpt>
      <trkpt lat="45.96323" lon="4.71581">
        <ele>184</ele>
        <time>2016-09-10T10:49:56Z</time>
      </trkpt>
      <trkpt lat="45.96316" lon="4.7158">
        <ele>184</ele>
        <time>2016-09-10T10:49:57Z</time>
      </trkpt>
      <trkpt lat="45.96309" lon="4.71579">
        <ele>184</ele>
        <time>2016-09-10T10:49:58Z</time>
      </trkpt>
      <trkpt lat="45.96302" lon="4.71578">
        <ele>184</ele>
        <time>2016-09-10T10:49:59Z</time>
      </trkpt>
      <trkpt lat="45.96295" lon="4.71577">
        <ele>184</ele>
        <time>2016-09-10T10:50:00Z</time>
      </trkpt>
      <trkpt lat="45.96288" lon="4.71576">
        <ele>184</ele>
        <time>2016-09-10T10:50:01Z</time>
      </trkpt>
      <trkpt lat="45.96281" lon="4.71574">
        <ele>184</ele>
        <time>2016-09-10T10:50:02Z</time>
      </trkpt>
      <trkpt lat="45.96274" lon="4.71573">
        <ele>184</ele>
        <time>2016-09-10T10:50:03Z</time>
      </trkpt>
      <trkpt lat="45.96268" lon="4.71571">
        <ele>183</ele>
        <time>2016-09-10T10:50:04Z</time>
      </trkpt>
      <trkpt lat="45.96261" lon="4.7157">
        <ele>183</ele>
        <time>2016-09-10T10:50:05Z</time>
      </trkpt>
      <trkpt lat="45.96254" lon="4.71569">
        <ele>183</ele>
        <time>2016-09-10T10:50:06Z</time>
      </trkpt>
      <trkpt lat="45.96247" lon="4.71568">
        <ele>183</ele>
        <time>2016-09-10T10:50:07Z</time>
      </trkpt>
      <trkpt lat="45.9624" lon="4.71567">
        <ele>183</ele>
        <time>2016-09-10T10:50:08Z</time>
      </trkpt>
      <trkpt lat="45.96233" lon="4.71566">
        <ele>183</ele>
        <time>2016-09-10T10:50:09Z</time>
      </trkpt>
      <trkpt lat="45.96226" lon="4.71564">
        <ele>183</ele>
        <time>2016-09-10T10:50:10Z</time>
      </trkpt>
      <trkpt lat="45.96219" lon="4.71563">
        <ele>183</ele>
        <time>2016-09-10T10:50:11Z</time>
      </trkpt>
      <trkpt lat="45.96212" lon="4.71562">
        <ele>183</ele>
        <time>2016-09-10T10:50:12Z</time>
      </trkpt>
      <trkpt lat="45.96205" lon="4.7156">
        <ele>183</ele>
        <time>2016-09-10T10:50:13Z</time>
      </trkpt>
      <trkpt lat="45.96197" lon="4.71559">
        <ele>183</ele>
        <time>2016-09-10T10:50:14Z</time>
      </trkpt>
      <trkpt lat="45.9619" lon="4.71557">
        <ele>183</ele>
        <time>2016-09-10T10:50:15Z</time>
      </trkpt>
      <trkpt lat="45.96184" lon="4.71556">
        <ele>183</ele>
        <time>2016-09-10T10:50:16Z</time>
      </trkpt>
      <trkpt lat="45.96177" lon="4.71555">
        <ele>183</ele>
        <time>2016-09-10T10:50:17Z</time>
      </trkpt>
      <trkpt lat="45.96171" lon="4.71554">
        <ele>183</ele>
        <time>2016-09-10T10:50:18Z</time>
      </trkpt>
      <trkpt lat="45.96165" lon="4.71554">
        <ele>184</ele>
        <time>2016-09-10T10:50:19Z</time>
      </trkpt>
      <trkpt lat="45.96159" lon="4.71553">
        <ele>184</ele>
        <time>2016-09-10T10:50:20Z</time>
      </trkpt>
      <trkpt lat="45.96153" lon="4.71552">
        <ele>184</ele>
        <time>2016-09-10T10:50:21Z</time>
      </trkpt>
      <trkpt lat="45.96148" lon="4.71551">
        <ele>184</ele>
        <time>2016-09-10T10:50:22Z</time>
      </trkpt>
      <trkpt lat="45.96142" lon="4.71549">
        <ele>184</ele>
        <time>2016-09-10T10:50:23Z</time>
      </trkpt>
      <trkpt lat="45.96136" lon="4.71548">
        <ele>184</ele>
        <time>2016-09-10T10:50:24Z</time>
      </trkpt>
      <trkpt lat="45.96129" lon="4.71546">
        <ele>185</ele>
        <time>2016-09-10T10:50:25Z</time>
      </trkpt>
      <trkpt lat="45.96122" lon="4.71545">
        <ele>185</ele>
        <time>2016-09-10T10:50:26Z</time>
      </trkpt>
      <trkpt lat="45.96116" lon="4.71545">
        <ele>185</ele>
        <time>2016-09-10T10:50:27Z</time>
      </trkpt>
      <trkpt lat="45.9611" lon="4.71544">
        <ele>185</ele>
        <time>2016-09-10T10:50:28Z</time>
      </trkpt>
      <trkpt lat="45.96103" lon="4.71543">
        <ele>185</ele>
        <time>2016-09-10T10:50:29Z</time>
      </trkpt>
      <trkpt lat="45.96096" lon="4.71542">
        <ele>185</ele>
        <time>2016-09-10T10:50:30Z</time>
      </trkpt>
      <trkpt lat="45.9609" lon="4.71541">
        <ele>185</ele>
        <time>2016-09-10T10:50:31Z</time>
      </trkpt>
      <trkpt lat="45.96084" lon="4.7154">
        <ele>185</ele>
        <time>2016-09-10T10:50:32Z</time>
      </trkpt>
      <trkpt lat="45.96078" lon="4.71539">
        <ele>185</ele>
        <time>2016-09-10T10:50:33Z</time>
      </trkpt>
      <trkpt lat="45.96072" lon="4.71537">
        <ele>186</ele>
        <time>2016-09-10T10:50:34Z</time>
      </trkpt>
      <trkpt lat="45.96067" lon="4.71536">
        <ele>186</ele>
        <time>2016-09-10T10:50:35Z</time>
      </trkpt>
      <trkpt lat="45.96061" lon="4.71535">
        <ele>186</ele>
        <time>2016-09-10T10:50:36Z</time>
      </trkpt>
      <trkpt lat="45.96056" lon="4.71534">
        <ele>186</ele>
        <time>2016-09-10T10:50:37Z</time>
      </trkpt>
      <trkpt lat="45.9605" lon="4.71532">
        <ele>186</ele>
        <time>2016-09-10T10:50:38Z</time>
      </trkpt>
      <trkpt lat="45.96045" lon="4.71531">
        <ele>186</ele>
        <time>2016-09-10T10:50:39Z</time>
      </trkpt>
      <trkpt lat="45.96039" lon="4.7153">
        <ele>186</ele>
        <time>2016-09-10T10:50:40Z</time>
      </trkpt>
      <trkpt lat="45.96033" lon="4.71529">
        <ele>186</ele>
        <time>2016-09-10T10:50:41Z</time>
      </trkpt>
      <trkpt lat="45.96027" lon="4.71528">
        <ele>186</ele>
        <time>2016-09-10T10:50:42Z</time>
      </trkpt>
      <trkpt lat="45.96021" lon="4.71527">
        <ele>186</ele>
        <time>2016-09-10T10:50:43Z</time>
      </trkpt>
      <trkpt lat="45.96016" lon="4.71525">
        <ele>186</ele>
        <time>2016-09-10T10:50:44Z</time>
      </trkpt>
      <trkpt lat="45.9601" lon="4.71524">
        <ele>186</ele>
        <time>2016-09-10T10:50:45Z</time>
      </trkpt>
      <trkpt lat="45.96005" lon="4.71522">
        <ele>186</ele>
        <time>2016-09-10T10:50:46Z</time>
      </trkpt>
      <trkpt lat="45.96" lon="4.71519">
        <ele>185</ele>
        <time>2016-09-10T10:50:47Z</time>
      </trkpt>
      <trkpt lat="45.95995" lon="4.71516">
        <ele>186</ele>
        <time>2016-09-10T10:50:48Z</time>
      </trkpt>
      <trkpt lat="45.9599" lon="4.71514">
        <ele>186</ele>
        <time>2016-09-10T10:50:49Z</time>
      </trkpt>
      <trkpt lat="45.95985" lon="4.71512">
        <ele>185</ele>
        <time>2016-09-10T10:50:50Z</time>
      </trkpt>
      <trkpt lat="45.95979" lon="4.71513">
        <ele>185</ele>
        <time>2016-09-10T10:50:51Z</time>
      </trkpt>
      <trkpt lat="45.95973" lon="4.71515">
        <ele>185</ele>
        <time>2016-09-10T10:50:52Z</time>
      </trkpt>
      <trkpt lat="45.95968" lon="4.71519">
        <ele>184</ele>
        <time>2016-09-10T10:50:53Z</time>
      </trkpt>
      <trkpt lat="45.95963" lon="4.71522">
        <ele>184</ele>
        <time>2016-09-10T10:50:54Z</time>
      </trkpt>
      <trkpt lat="45.95957" lon="4.71524">
        <ele>184</ele>
        <time>2016-09-10T10:50:55Z</time>
      </trkpt>
      <trkpt lat="45.95951" lon="4.71525">
        <ele>184</ele>
        <time>2016-09-10T10:50:56Z</time>
      </trkpt>
      <trkpt lat="45.95945" lon="4.71525">
        <ele>184</ele>
        <time>2016-09-10T10:50:57Z</time>
      </trkpt>
      <trkpt lat="45.95938" lon="4.71524">
        <ele>184</ele>
        <time>2016-09-10T10:50:58Z</time>
      </trkpt>
      <trkpt lat="45.95931" lon="4.71524">
        <ele>184</ele>
        <time>2016-09-10T10:50:59Z</time>
      </trkpt>
      <trkpt lat="45.95924" lon="4.71524">
        <ele>184</ele>
        <time>2016-09-10T10:51:00Z</time>
      </trkpt>
      <trkpt lat="45.95918" lon="4.71524">
        <ele>184</ele>
        <time>2016-09-10T10:51:01Z</time>
      </trkpt>
      <trkpt lat="45.95911" lon="4.71523">
        <ele>183</ele>
        <time>2016-09-10T10:51:02Z</time>
      </trkpt>
      <trkpt lat="45.95904" lon="4.71523">
        <ele>182</ele>
        <time>2016-09-10T10:51:03Z</time>
      </trkpt>
      <trkpt lat="45.95897" lon="4.71523">
        <ele>182</ele>
        <time>2016-09-10T10:51:04Z</time>
      </trkpt>
      <trkpt lat="45.9589" lon="4.71523">
        <ele>182</ele>
        <time>2016-09-10T10:51:05Z</time>
      </trkpt>
      <trkpt lat="45.95883" lon="4.71523">
        <ele>182</ele>
        <time>2016-09-10T10:51:06Z</time>
      </trkpt>
      <trkpt lat="45.95877" lon="4.71522">
        <ele>182</ele>
        <time>2016-09-10T10:51:07Z</time>
      </trkpt>
      <trkpt lat="45.95869" lon="4.71523">
        <ele>182</ele>
        <time>2016-09-10T10:51:08Z</time>
      </trkpt>
      <trkpt lat="45.95862" lon="4.71522">
        <ele>182</ele>
        <time>2016-09-10T10:51:09Z</time>
      </trkpt>
      <trkpt lat="45.95856" lon="4.71522">
        <ele>182</ele>
        <time>2016-09-10T10:51:10Z</time>
      </trkpt>
      <trkpt lat="45.95849" lon="4.71522">
        <ele>182</ele>
        <time>2016-09-10T10:51:11Z</time>
      </trkpt>
      <trkpt lat="45.95842" lon="4.71521">
        <ele>182</ele>
        <time>2016-09-10T10:51:12Z</time>
      </trkpt>
      <trkpt lat="45.95835" lon="4.71521">
        <ele>182</ele>
        <time>2016-09-10T10:51:13Z</time>
      </trkpt>
      <trkpt lat="45.95828" lon="4.71521">
        <ele>182</ele>
        <time>2016-09-10T10:51:14Z</time>
      </trkpt>
      <trkpt lat="45.95821" lon="4.7152">
        <ele>182</ele>
        <time>2016-09-10T10:51:15Z</time>
      </trkpt>
      <trkpt lat="45.95814" lon="4.7152">
        <ele>181</ele>
        <time>2016-09-10T10:51:16Z</time>
      </trkpt>
      <trkpt lat="45.95807" lon="4.7152">
        <ele>181</ele>
        <time>2016-09-10T10:51:17Z</time>
      </trkpt>
      <trkpt lat="45.958" lon="4.71519">
        <ele>181</ele>
        <time>2016-09-10T10:51:18Z</time>
      </trkpt>
      <trkpt lat="45.95793" lon="4.71519">
        <ele>181</ele>
        <time>2016-09-10T10:51:19Z</time>
      </trkpt>
      <trkpt lat="45.95786" lon="4.71518">
        <ele>181</ele>
        <time>2016-09-10T10:51:20Z</time>
      </trkpt>
      <trkpt lat="45.95779" lon="4.71518">
        <ele>181</ele>
        <time>2016-09-10T10:51:21Z</time>
      </trkpt>
      <trkpt lat="45.95771" lon="4.71518">
        <ele>181</ele>
        <time>2016-09-10T10:51:22Z</time>
      </trkpt>
      <trkpt lat="45.95764" lon="4.71517">
        <ele>181</ele>
        <time>2016-09-10T10:51:23Z</time>
      </trkpt>
      <trkpt lat="45.95756" lon="4.71517">
        <ele>181</ele>
        <time>2016-09-10T10:51:24Z</time>
      </trkpt>
      <trkpt lat="45.95748" lon="4.71516">
        <ele>181</ele>
        <time>2016-09-10T10:51:25Z</time>
      </trkpt>
      <trkpt lat="45.9574" lon="4.71516">
        <ele>181</ele>
        <time>2016-09-10T10:51:26Z</time>
      </trkpt>
      <trkpt lat="45.95732" lon="4.71515">
        <ele>181</ele>
        <time>2016-09-10T10:51:27Z</time>
      </trkpt>
      <trkpt lat="45.95724" lon="4.71514">
        <ele>180</ele>
        <time>2016-09-10T10:51:28Z</time>
      </trkpt>
      <trkpt lat="45.95716" lon="4.71513">
        <ele>180</ele>
        <time>2016-09-10T10:51:29Z</time>
      </trkpt>
      <trkpt lat="45.95708" lon="4.71513">
        <ele>180</ele>
        <time>2016-09-10T10:51:30Z</time>
      </trkpt>
      <trkpt lat="45.957" lon="4.71512">
        <ele>180</ele>
        <time>2016-09-10T10:51:31Z</time>
      </trkpt>
      <trkpt lat="45.95693" lon="4.71512">
        <ele>180</ele>
        <time>2016-09-10T10:51:32Z</time>
      </trkpt>
      <trkpt lat="45.95685" lon="4.71511">
        <ele>181</ele>
        <time>2016-09-10T10:51:33Z</time>
      </trkpt>
      <trkpt lat="45.95677" lon="4.71511">
        <ele>181</ele>
        <time>2016-09-10T10:51:34Z</time>
      </trkpt>
      <trkpt lat="45.9567" lon="4.7151">
        <ele>181</ele>
        <time>2016-09-10T10:51:35Z</time>
      </trkpt>
      <trkpt lat="45.95662" lon="4.71509">
        <ele>181</ele>
        <time>2016-09-10T10:51:36Z</time>
      </trkpt>
      <trkpt lat="45.95654" lon="4.71509">
        <ele>180</ele>
        <time>2016-09-10T10:51:37Z</time>
      </trkpt>
      <trkpt lat="45.95646" lon="4.71509">
        <ele>180</ele>
        <time>2016-09-10T10:51:38Z</time>
      </trkpt>
      <trkpt lat="45.95639" lon="4.71508">
        <ele>180</ele>
        <time>2016-09-10T10:51:39Z</time>
      </trkpt>
      <trkpt lat="45.95631" lon="4.71507">
        <ele>180</ele>
        <time>2016-09-10T10:51:40Z</time>
      </trkpt>
      <trkpt lat="45.95623" lon="4.71506">
        <ele>180</ele>
        <time>2016-09-10T10:51:41Z</time>
      </trkpt>
      <trkpt lat="45.95615" lon="4.71505">
        <ele>179</ele>
        <time>2016-09-10T10:51:42Z</time>
      </trkpt>
      <trkpt lat="45.95607" lon="4.71505">
        <ele>179</ele>
        <time>2016-09-10T10:51:43Z</time>
      </trkpt>
      <trkpt lat="45.95599" lon="4.71504">
        <ele>180</ele>
        <time>2016-09-10T10:51:44Z</time>
      </trkpt>
      <trkpt lat="45.95591" lon="4.71504">
        <ele>180</ele>
        <time>2016-09-10T10:51:45Z</time>
      </trkpt>
      <trkpt lat="45.95583" lon="4.71503">
        <ele>180</ele>
        <time>2016-09-10T10:51:46Z</time>
      </trkpt>
      <trkpt lat="45.95576" lon="4.71503">
        <ele>179</ele>
        <time>2016-09-10T10:51:47Z</time>
      </trkpt>
      <trkpt lat="45.95568" lon="4.71502">
        <ele>179</ele>
        <time>2016-09-10T10:51:48Z</time>
      </trkpt>
      <trkpt lat="45.9556" lon="4.71502">
        <ele>178</ele>
        <time>2016-09-10T10:51:49Z</time>
      </trkpt>
      <trkpt lat="45.95553" lon="4.71502">
        <ele>178</ele>
        <time>2016-09-10T10:51:50Z</time>
      </trkpt>
      <trkpt lat="45.95545" lon="4.71501">
        <ele>178</ele>
        <time>2016-09-10T10:51:51Z</time>
      </trkpt>
      <trkpt lat="45.95537" lon="4.715">
        <ele>179</ele>
        <time>2016-09-10T10:51:52Z</time>
      </trkpt>
      <trkpt lat="45.95529" lon="4.71499">
        <ele>178</ele>
        <time>2016-09-10T10:51:53Z</time>
      </trkpt>
      <trkpt lat="45.95521" lon="4.71499">
        <ele>178</ele>
        <time>2016-09-10T10:51:54Z</time>
      </trkpt>
      <trkpt lat="45.95514" lon="4.71498">
        <ele>178</ele>
        <time>2016-09-10T10:51:55Z</time>
      </trkpt>
      <trkpt lat="45.95506" lon="4.71497">
        <ele>177</ele>
        <time>2016-09-10T10:51:56Z</time>
      </trkpt>
      <trkpt lat="45.95497" lon="4.71497">
        <ele>177</ele>
        <time>2016-09-10T10:51:57Z</time>
      </trkpt>
      <trkpt lat="45.9549" lon="4.71496">
        <ele>177</ele>
        <time>2016-09-10T10:51:58Z</time>
      </trkpt>
      <trkpt lat="45.95482" lon="4.71496">
        <ele>177</ele>
        <time>2016-09-10T10:51:59Z</time>
      </trkpt>
      <trkpt lat="45.95475" lon="4.71495">
        <ele>176</ele>
        <time>2016-09-10T10:52:00Z</time>
      </trkpt>
      <trkpt lat="45.95468" lon="4.71495">
        <ele>176</ele>
        <time>2016-09-10T10:52:01Z</time>
      </trkpt>
      <trkpt lat="45.9546" lon="4.71495">
        <ele>176</ele>
        <time>2016-09-10T10:52:02Z</time>
      </trkpt>
      <trkpt lat="45.95453" lon="4.71494">
        <ele>176</ele>
        <time>2016-09-10T10:52:03Z</time>
      </trkpt>
      <trkpt lat="45.95445" lon="4.71494">
        <ele>176</ele>
        <time>2016-09-10T10:52:04Z</time>
      </trkpt>
      <trkpt lat="45.95438" lon="4.71493">
        <ele>175</ele>
        <time>2016-09-10T10:52:05Z</time>
      </trkpt>
      <trkpt lat="45.9543" lon="4.71493">
        <ele>175</ele>
        <time>2016-09-10T10:52:06Z</time>
      </trkpt>
      <trkpt lat="45.95423" lon="4.71492">
        <ele>175</ele>
        <time>2016-09-10T10:52:07Z</time>
      </trkpt>
      <trkpt lat="45.95415" lon="4.71492">
        <ele>174</ele>
        <time>2016-09-10T10:52:08Z</time>
      </trkpt>
      <trkpt lat="45.95408" lon="4.71491">
        <ele>175</ele>
        <time>2016-09-10T10:52:09Z</time>
      </trkpt>
      <trkpt lat="45.95401" lon="4.71491">
        <ele>175</ele>
        <time>2016-09-10T10:52:10Z</time>
      </trkpt>
      <trkpt lat="45.95394" lon="4.7149">
        <ele>175</ele>
        <time>2016-09-10T10:52:11Z</time>
      </trkpt>
      <trkpt lat="45.95387" lon="4.71489">
        <ele>175</ele>
        <time>2016-09-10T10:52:12Z</time>
      </trkpt>
      <trkpt lat="45.9538" lon="4.71488">
        <ele>175</ele>
        <time>2016-09-10T10:52:13Z</time>
      </trkpt>
      <trkpt lat="45.95373" lon="4.71488">
        <ele>175</ele>
        <time>2016-09-10T10:52:14Z</time>
      </trkpt>
      <trkpt lat="45.95366" lon="4.71488">
        <ele>175</ele>
        <time>2016-09-10T10:52:15Z</time>
      </trkpt>
      <trkpt lat="45.95359" lon="4.71487">
        <ele>175</ele>
        <time>2016-09-10T10:52:16Z</time>
      </trkpt>
      <trkpt lat="45.95352" lon="4.71487">
        <ele>175</ele>
        <time>2016-09-10T10:52:17Z</time>
      </trkpt>
      <trkpt lat="45.95345" lon="4.71486">
        <ele>175</ele>
        <time>2016-09-10T10:52:18Z</time>
      </trkpt>
      <trkpt lat="45.95338" lon="4.71485">
        <ele>175</ele>
        <time>2016-09-10T10:52:19Z</time>
      </trkpt>
      <trkpt lat="45.95331" lon="4.71485">
        <ele>175</ele>
        <time>2016-09-10T10:52:20Z</time>
      </trkpt>
      <trkpt lat="45.95324" lon="4.71484">
        <ele>175</ele>
        <time>2016-09-10T10:52:21Z</time>
      </trkpt>
      <trkpt lat="45.95317" lon="4.71484">
        <ele>175</ele>
        <time>2016-09-10T10:52:22Z</time>
      </trkpt>
      <trkpt lat="45.9531" lon="4.71483">
        <ele>175</ele>
        <time>2016-09-10T10:52:23Z</time>
      </trkpt>
      <trkpt lat="45.95303" lon="4.71483">
        <ele>175</ele>
        <time>2016-09-10T10:52:24Z</time>
      </trkpt>
      <trkpt lat="45.95296" lon="4.71482">
        <ele>176</ele>
        <time>2016-09-10T10:52:25Z</time>
      </trkpt>
      <trkpt lat="45.95289" lon="4.71482">
        <ele>176</ele>
        <time>2016-09-10T10:52:26Z</time>
      </trkpt>
      <trkpt lat="45.95282" lon="4.71482">
        <ele>176</ele>
        <time>2016-09-10T10:52:27Z</time>
      </trkpt>
      <trkpt lat="45.95275" lon="4.71481">
        <ele>176</ele>
        <time>2016-09-10T10:52:28Z</time>
      </trkpt>
      <trkpt lat="45.95268" lon="4.7148">
        <ele>176</ele>
        <time>2016-09-10T10:52:29Z</time>
      </trkpt>
      <trkpt lat="45.95261" lon="4.7148">
        <ele>176</ele>
        <time>2016-09-10T10:52:30Z</time>
      </trkpt>
      <trkpt lat="45.95254" lon="4.71479">
        <ele>176</ele>
        <time>2016-09-10T10:52:31Z</time>
      </trkpt>
      <trkpt lat="45.95248" lon="4.71479">
        <ele>177</ele>
        <time>2016-09-10T10:52:32Z</time>
      </trkpt>
      <trkpt lat="45.95241" lon="4.71479">
        <ele>177</ele>
        <time>2016-09-10T10:52:33Z</time>
      </trkpt>
      <trkpt lat="45.95235" lon="4.71479">
        <ele>177</ele>
        <time>2016-09-10T10:52:34Z</time>
      </trkpt>
      <trkpt lat="45.95228" lon="4.71479">
        <ele>177</ele>
        <time>2016-09-10T10:52:35Z</time>
      </trkpt>
      <trkpt lat="45.95222" lon="4.71478">
        <ele>177</ele>
        <time>2016-09-10T10:52:36Z</time>
      </trkpt>
      <trkpt lat="45.95216" lon="4.71478">
        <ele>177</ele>
        <time>2016-09-10T10:52:37Z</time>
      </trkpt>
      <trkpt lat="45.9521" lon="4.71477">
        <ele>177</ele>
        <time>2016-09-10T10:52:38Z</time>
      </trkpt>
      <trkpt lat="45.95203" lon="4.71477">
        <ele>177</ele>
        <time>2016-09-10T10:52:39Z</time>
      </trkpt>
      <trkpt lat="45.95197" lon="4.71476">
        <ele>177</ele>
        <time>2016-09-10T10:52:40Z</time>
      </trkpt>
      <trkpt lat="45.95191" lon="4.71476">
        <ele>177</ele>
        <time>2016-09-10T10:52:41Z</time>
      </trkpt>
      <trkpt lat="45.95184" lon="4.71476">
        <ele>177</ele>
        <time>2016-09-10T10:52:42Z</time>
      </trkpt>
      <trkpt lat="45.95177" lon="4.71475">
        <ele>177</ele>
        <time>2016-09-10T10:52:43Z</time>
      </trkpt>
      <trkpt lat="45.95171" lon="4.71475">
        <ele>177</ele>
        <time>2016-09-10T10:52:44Z</time>
      </trkpt>
      <trkpt lat="45.95165" lon="4.71474">
        <ele>178</ele>
        <time>2016-09-10T10:52:45Z</time>
      </trkpt>
      <trkpt lat="45.95159" lon="4.71473">
        <ele>178</ele>
        <time>2016-09-10T10:52:46Z</time>
      </trkpt>
      <trkpt lat="45.95154" lon="4.71473">
        <ele>178</ele>
        <time>2016-09-10T10:52:47Z</time>
      </trkpt>
      <trkpt lat="45.95148" lon="4.71472">
        <ele>178</ele>
        <time>2016-09-10T10:52:48Z</time>
      </trkpt>
      <trkpt lat="45.95142" lon="4.71472">
        <ele>178</ele>
        <time>2016-09-10T10:52:49Z</time>
      </trkpt>
      <trkpt lat="45.95136" lon="4.71472">
        <ele>178</ele>
        <time>2016-09-10T10:52:50Z</time>
      </trkpt>
      <trkpt lat="45.95131" lon="4.71471">
        <ele>178</ele>
        <time>2016-09-10T10:52:51Z</time>
      </trkpt>
      <trkpt lat="45.95125" lon="4.71471">
        <ele>178</ele>
        <time>2016-09-10T10:52:52Z</time>
      </trkpt>
      <trkpt lat="45.95119" lon="4.71471">
        <ele>179</ele>
        <time>2016-09-10T10:52:53Z</time>
      </trkpt>
      <trkpt lat="45.95113" lon="4.7147">
        <ele>179</ele>
        <time>2016-09-10T10:52:54Z</time>
      </trkpt>
      <trkpt lat="45.95108" lon="4.71469">
        <ele>179</ele>
        <time>2016-09-10T10:52:55Z</time>
      </trkpt>
      <trkpt lat="45.95102" lon="4.71469">
        <ele>179</ele>
        <time>2016-09-10T10:52:56Z</time>
      </trkpt>
      <trkpt lat="45.95095" lon="4.71468">
        <ele>179</ele>
        <time>2016-09-10T10:52:57Z</time>
      </trkpt>
      <trkpt lat="45.9509" lon="4.71468">
        <ele>179</ele>
        <time>2016-09-10T10:52:58Z</time>
      </trkpt>
      <trkpt lat="45.95084" lon="4.71468">
        <ele>179</ele>
        <time>2016-09-10T10:52:59Z</time>
      </trkpt>
      <trkpt lat="45.95078" lon="4.71468">
        <ele>181</ele>
        <time>2016-09-10T10:53:00Z</time>
      </trkpt>
      <trkpt lat="45.95073" lon="4.71467">
        <ele>181</ele>
        <time>2016-09-10T10:53:01Z</time>
      </trkpt>
      <trkpt lat="45.95067" lon="4.71467">
        <ele>181</ele>
        <time>2016-09-10T10:53:02Z</time>
      </trkpt>
      <trkpt lat="45.95062" lon="4.71467">
        <ele>181</ele>
        <time>2016-09-10T10:53:03Z</time>
      </trkpt>
      <trkpt lat="45.95058" lon="4.71466">
        <ele>181</ele>
        <time>2016-09-10T10:53:04Z</time>
      </trkpt>
      <trkpt lat="45.95053" lon="4.71466">
        <ele>181</ele>
        <time>2016-09-10T10:53:05Z</time>
      </trkpt>
      <trkpt lat="45.95048" lon="4.71466">
        <ele>181</ele>
        <time>2016-09-10T10:53:06Z</time>
      </trkpt>
      <trkpt lat="45.95043" lon="4.71466">
        <ele>182</ele>
        <time>2016-09-10T10:53:07Z</time>
      </trkpt>
      <trkpt lat="45.95038" lon="4.71467">
        <ele>182</ele>
        <time>2016-09-10T10:53:08Z</time>
      </trkpt>
      <trkpt lat="45.95033" lon="4.71467">
        <ele>182</ele>
        <time>2016-09-10T10:53:09Z</time>
      </trkpt>
      <trkpt lat="45.95029" lon="4.71466">
        <ele>182</ele>
        <time>2016-09-10T10:53:10Z</time>
      </trkpt>
      <trkpt lat="45.95023" lon="4.71465">
        <ele>182</ele>
        <time>2016-09-10T10:53:11Z</time>
      </trkpt>
      <trkpt lat="45.95018" lon="4.71465">
        <ele>182</ele>
        <time>2016-09-10T10:53:12Z</time>
      </trkpt>
      <trkpt lat="45.95013" lon="4.71464">
        <ele>182</ele>
        <time>2016-09-10T10:53:13Z</time>
      </trkpt>
      <trkpt lat="45.95008" lon="4.71463">
        <ele>182</ele>
        <time>2016-09-10T10:53:14Z</time>
      </trkpt>
      <trkpt lat="45.95003" lon="4.71462">
        <ele>182</ele>
        <time>2016-09-10T10:53:15Z</time>
      </trkpt>
      <trkpt lat="45.94999" lon="4.71459">
        <ele>183</ele>
        <time>2016-09-10T10:53:16Z</time>
      </trkpt>
      <trkpt lat="45.94995" lon="4.71455">
        <ele>184</ele>
        <time>2016-09-10T10:53:17Z</time>
      </trkpt>
      <trkpt lat="45.94991" lon="4.7145">
        <ele>184</ele>
        <time>2016-09-10T10:53:18Z</time>
      </trkpt>
      <trkpt lat="45.94987" lon="4.71445">
        <ele>184</ele>
        <time>2016-09-10T10:53:19Z</time>
      </trkpt>
      <trkpt lat="45.94983" lon="4.71441">
        <ele>184</ele>
        <time>2016-09-10T10:53:20Z</time>
      </trkpt>
      <trkpt lat="45.94978" lon="4.71438">
        <ele>185</ele>
        <time>2016-09-10T10:53:21Z</time>
      </trkpt>
      <trkpt lat="45.94972" lon="4.71437">
        <ele>184</ele>
        <time>2016-09-10T10:53:22Z</time>
      </trkpt>
      <trkpt lat="45.94966" lon="4.71439">
        <ele>184</ele>
        <time>2016-09-10T10:53:23Z</time>
      </trkpt>
      <trkpt lat="45.94961" lon="4.71443">
        <ele>184</ele>
        <time>2016-09-10T10:53:24Z</time>
      </trkpt>
      <trkpt lat="45.94955" lon="4.71448">
        <ele>184</ele>
        <time>2016-09-10T10:53:25Z</time>
      </trkpt>
      <trkpt lat="45.94949" lon="4.71452">
        <ele>184</ele>
        <time>2016-09-10T10:53:26Z</time>
      </trkpt>
      <trkpt lat="45.94944" lon="4.71456">
        <ele>184</ele>
        <time>2016-09-10T10:53:27Z</time>
      </trkpt>
      <trkpt lat="45.94938" lon="4.71459">
        <ele>183</ele>
        <time>2016-09-10T10:53:28Z</time>
      </trkpt>
      <trkpt lat="45.94931" lon="4.71459">
        <ele>183</ele>
        <time>2016-09-10T10:53:29Z</time>
      </trkpt>
      <trkpt lat="45.94925" lon="4.71459">
        <ele>183</ele>
        <time>2016-09-10T10:53:30Z</time>
      </trkpt>
      <trkpt lat="45.94919" lon="4.71458">
        <ele>184</ele>
        <time>2016-09-10T10:53:31Z</time>
      </trkpt>
      <trkpt lat="45.94913" lon="4.71458">
        <ele>184</ele>
        <time>2016-09-10T10:53:32Z</time>
      </trkpt>
      <trkpt lat="45.94907" lon="4.71457">
        <ele>184</ele>
        <time>2016-09-10T10:53:33Z</time>
      </trkpt>
      <trkpt lat="45.94901" lon="4.71457">
        <ele>184</ele>
        <time>2016-09-10T10:53:34Z</time>
      </trkpt>
      <trkpt lat="45.94894" lon="4.71457">
        <ele>184</ele>
        <time>2016-09-10T10:53:35Z</time>
      </trkpt>
      <trkpt lat="45.94888" lon="4.71456">
        <ele>184</ele>
        <time>2016-09-10T10:53:36Z</time>
      </trkpt>
      <trkpt lat="45.94881" lon="4.71456">
        <ele>184</ele>
        <time>2016-09-10T10:53:37Z</time>
      </trkpt>
      <trkpt lat="45.94875" lon="4.71455">
        <ele>184</ele>
        <time>2016-09-10T10:53:38Z</time>
      </trkpt>
      <trkpt lat="45.94868" lon="4.71455">
        <ele>184</ele>
        <time>2016-09-10T10:53:39Z</time>
      </trkpt>
      <trkpt lat="45.94862" lon="4.71455">
        <ele>184</ele>
        <time>2016-09-10T10:53:40Z</time>
      </trkpt>
      <trkpt lat="45.94856" lon="4.71454">
        <ele>184</ele>
        <time>2016-09-10T10:53:41Z</time>
      </trkpt>
      <trkpt lat="45.9485" lon="4.71454">
        <ele>184</ele>
        <time>2016-09-10T10:53:42Z</time>
      </trkpt>
      <trkpt lat="45.94844" lon="4.71453">
        <ele>184</ele>
        <time>2016-09-10T10:53:43Z</time>
      </trkpt>
      <trkpt lat="45.94838" lon="4.71453">
        <ele>184</ele>
        <time>2016-09-10T10:53:44Z</time>
      </trkpt>
      <trkpt lat="45.94832" lon="4.71452">
        <ele>183</ele>
        <time>2016-09-10T10:53:45Z</time>
      </trkpt>
      <trkpt lat="45.94827" lon="4.71452">
        <ele>183</ele>
        <time>2016-09-10T10:53:46Z</time>
      </trkpt>
      <trkpt lat="45.94822" lon="4.71452">
        <ele>183</ele>
        <time>2016-09-10T10:53:47Z</time>
      </trkpt>
      <trkpt lat="45.94817" lon="4.71452">
        <ele>183</ele>
        <time>2016-09-10T10:53:48Z</time>
      </trkpt>
      <trkpt lat="45.94812" lon="4.71452">
        <ele>183</ele>
        <time>2016-09-10T10:53:49Z</time>
      </trkpt>
      <trkpt lat="45.94807" lon="4.71451">
        <ele>183</ele>
        <time>2016-09-10T10:53:50Z</time>
      </trkpt>
      <trkpt lat="45.94802" lon="4.7145">
        <ele>183</ele>
        <time>2016-09-10T10:53:51Z</time>
      </trkpt>
      <trkpt lat="45.94797" lon="4.71449">
        <ele>183</ele>
        <time>2016-09-10T10:53:52Z</time>
      </trkpt>
      <trkpt lat="45.94791" lon="4.71448">
        <ele>183</ele>
        <time>2016-09-10T10:53:53Z</time>
      </trkpt>
      <trkpt lat="45.94786" lon="4.71449">
        <ele>183</ele>
        <time>2016-09-10T10:53:54Z</time>
      </trkpt>
      <trkpt lat="45.9478" lon="4.71449">
        <ele>183</ele>
        <time>2016-09-10T10:53:55Z</time>
      </trkpt>
      <trkpt lat="45.94774" lon="4.71448">
        <ele>183</ele>
        <time>2016-09-10T10:53:56Z</time>
      </trkpt>
      <trkpt lat="45.94768" lon="4.71447">
        <ele>183</ele>
        <time>2016-09-10T10:53:57Z</time>
      </trkpt>
      <trkpt lat="45.94762" lon="4.71446">
        <ele>184</ele>
        <time>2016-09-10T10:53:58Z</time>
      </trkpt>
      <trkpt lat="45.94755" lon="4.71446">
        <ele>184</ele>
        <time>2016-09-10T10:53:59Z</time>
      </trkpt>
      <trkpt lat="45.94748" lon="4.71445">
        <ele>183</ele>
        <time>2016-09-10T10:54:00Z</time>
      </trkpt>
      <trkpt lat="45.94741" lon="4.71445">
        <ele>183</ele>
        <time>2016-09-10T10:54:01Z</time>
      </trkpt>
      <trkpt lat="45.94735" lon="4.71444">
        <ele>183</ele>
        <time>2016-09-10T10:54:02Z</time>
      </trkpt>
      <trkpt lat="45.94728" lon="4.71444">
        <ele>182</ele>
        <time>2016-09-10T10:54:03Z</time>
      </trkpt>
      <trkpt lat="45.94723" lon="4.71443">
        <ele>182</ele>
        <time>2016-09-10T10:54:04Z</time>
      </trkpt>
      <trkpt lat="45.94717" lon="4.71443">
        <ele>182</ele>
        <time>2016-09-10T10:54:05Z</time>
      </trkpt>
      <trkpt lat="45.94712" lon="4.71442">
        <ele>182</ele>
        <time>2016-09-10T10:54:06Z</time>
      </trkpt>
      <trkpt lat="45.94706" lon="4.71441">
        <ele>182</ele>
        <time>2016-09-10T10:54:07Z</time>
      </trkpt>
      <trkpt lat="45.94701" lon="4.71441">
        <ele>182</ele>
        <time>2016-09-10T10:54:08Z</time>
      </trkpt>
      <trkpt lat="45.94696" lon="4.7144">
        <ele>182</ele>
        <time>2016-09-10T10:54:09Z</time>
      </trkpt>
      <trkpt lat="45.9469" lon="4.71441">
        <ele>182</ele>
        <time>2016-09-10T10:54:10Z</time>
      </trkpt>
      <trkpt lat="45.94684" lon="4.71441">
        <ele>182</ele>
        <time>2016-09-10T10:54:11Z</time>
      </trkpt>
      <trkpt lat="45.94679" lon="4.71441">
        <ele>182</ele>
        <time>2016-09-10T10:54:12Z</time>
      </trkpt>
      <trkpt lat="45.94674" lon="4.71441">
        <ele>182</ele>
        <time>2016-09-10T10:54:13Z</time>
      </trkpt>
      <trkpt lat="45.94669" lon="4.7144">
        <ele>182</ele>
        <time>2016-09-10T10:54:14Z</time>
      </trkpt>
      <trkpt lat="45.94663" lon="4.7144">
        <ele>182</ele>
        <time>2016-09-10T10:54:15Z</time>
      </trkpt>
      <trkpt lat="45.94657" lon="4.71439">
        <ele>182</ele>
        <time>2016-09-10T10:54:16Z</time>
      </trkpt>
      <trkpt lat="45.94652" lon="4.71439">
        <ele>182</ele>
        <time>2016-09-10T10:54:17Z</time>
      </trkpt>
      <trkpt lat="45.94646" lon="4.71438">
        <ele>182</ele>
        <time>2016-09-10T10:54:18Z</time>
      </trkpt>
      <trkpt lat="45.9464" lon="4.71438">
        <ele>181</ele>
        <time>2016-09-10T10:54:19Z</time>
      </trkpt>
      <trkpt lat="45.94634" lon="4.71438">
        <ele>181</ele>
        <time>2016-09-10T10:54:20Z</time>
      </trkpt>
      <trkpt lat="45.94629" lon="4.71438">
        <ele>181</ele>
        <time>2016-09-10T10:54:21Z</time>
      </trkpt>
      <trkpt lat="45.94623" lon="4.71438">
        <ele>181</ele>
        <time>2016-09-10T10:54:22Z</time>
      </trkpt>
      <trkpt lat="45.94617" lon="4.71437">
        <ele>182</ele>
        <time>2016-09-10T10:54:23Z</time>
      </trkpt>
      <trkpt lat="45.94611" lon="4.71437">
        <ele>182</ele>
        <time>2016-09-10T10:54:24Z</time>
      </trkpt>
      <trkpt lat="45.94606" lon="4.71436">
        <ele>182</ele>
        <time>2016-09-10T10:54:25Z</time>
      </trkpt>
      <trkpt lat="45.946" lon="4.71436">
        <ele>182</ele>
        <time>2016-09-10T10:54:26Z</time>
      </trkpt>
      <trkpt lat="45.94594" lon="4.71436">
        <ele>182</ele>
        <time>2016-09-10T10:54:27Z</time>
      </trkpt>
      <trkpt lat="45.94588" lon="4.71436">
        <ele>182</ele>
        <time>2016-09-10T10:54:28Z</time>
      </trkpt>
      <trkpt lat="45.94582" lon="4.71437">
        <ele>182</ele>
        <time>2016-09-10T10:54:29Z</time>
      </trkpt>
      <trkpt lat="45.94575" lon="4.71438">
        <ele>182</ele>
        <time>2016-09-10T10:54:30Z</time>
      </trkpt>
      <trkpt lat="45.9457" lon="4.71439">
        <ele>182</ele>
        <time>2016-09-10T10:54:31Z</time>
      </trkpt>
      <trkpt lat="45.94564" lon="4.71439">
        <ele>181</ele>
        <time>2016-09-10T10:54:32Z</time>
      </trkpt>
      <trkpt lat="45.94558" lon="4.71441">
        <ele>181</ele>
        <time>2016-09-10T10:54:33Z</time>
      </trkpt>
      <trkpt lat="45.94552" lon="4.71443">
        <ele>181</ele>
        <time>2016-09-10T10:54:34Z</time>
      </trkpt>
      <trkpt lat="45.94546" lon="4.71445">
        <ele>181</ele>
        <time>2016-09-10T10:54:35Z</time>
      </trkpt>
      <trkpt lat="45.9454" lon="4.71448">
        <ele>180</ele>
        <time>2016-09-10T10:54:36Z</time>
      </trkpt>
      <trkpt lat="45.94533" lon="4.71451">
        <ele>180</ele>
        <time>2016-09-10T10:54:37Z</time>
      </trkpt>
      <trkpt lat="45.94526" lon="4.71454">
        <ele>180</ele>
        <time>2016-09-10T10:54:38Z</time>
      </trkpt>
      <trkpt lat="45.94519" lon="4.71457">
        <ele>180</ele>
        <time>2016-09-10T10:54:39Z</time>
      </trkpt>
      <trkpt lat="45.94512" lon="4.7146">
        <ele>180</ele>
        <time>2016-09-10T10:54:40Z</time>
      </trkpt>
      <trkpt lat="45.94505" lon="4.71463">
        <ele>180</ele>
        <time>2016-09-10T10:54:41Z</time>
      </trkpt>
      <trkpt lat="45.94497" lon="4.71465">
        <ele>179</ele>
        <time>2016-09-10T10:54:42Z</time>
      </trkpt>
      <trkpt lat="45.94489" lon="4.71467">
        <ele>179</ele>
        <time>2016-09-10T10:54:43Z</time>
      </trkpt>
      <trkpt lat="45.94482" lon="4.7147">
        <ele>179</ele>
        <time>2016-09-10T10:54:44Z</time>
      </trkpt>
      <trkpt lat="45.94474" lon="4.71473">
        <ele>179</ele>
        <time>2016-09-10T10:54:45Z</time>
      </trkpt>
      <trkpt lat="45.94466" lon="4.71475">
        <ele>179</ele>
        <time>2016-09-10T10:54:46Z</time>
      </trkpt>
      <trkpt lat="45.94459" lon="4.71478">
        <ele>179</ele>
        <time>2016-09-10T10:54:47Z</time>
      </trkpt>
      <trkpt lat="45.94451" lon="4.71482">
        <ele>179</ele>
        <time>2016-09-10T10:54:48Z</time>
      </trkpt>
      <trkpt lat="45.94443" lon="4.71484">
        <ele>179</ele>
        <time>2016-09-10T10:54:49Z</time>
      </trkpt>
      <trkpt lat="45.94435" lon="4.71487">
        <ele>178</ele>
        <time>2016-09-10T10:54:50Z</time>
      </trkpt>
      <trkpt lat="45.94428" lon="4.7149">
        <ele>178</ele>
        <time>2016-09-10T10:54:51Z</time>
      </trkpt>
      <trkpt lat="45.94421" lon="4.71493">
        <ele>178</ele>
        <time>2016-09-10T10:54:52Z</time>
      </trkpt>
      <trkpt lat="45.94413" lon="4.71496">
        <ele>178</ele>
        <time>2016-09-10T10:54:53Z</time>
      </trkpt>
      <trkpt lat="45.94406" lon="4.71499">
        <ele>178</ele>
        <time>2016-09-10T10:54:54Z</time>
      </trkpt>
      <trkpt lat="45.94398" lon="4.71501">
        <ele>177</ele>
        <time>2016-09-10T10:54:55Z</time>
      </trkpt>
      <trkpt lat="45.94391" lon="4.71504">
        <ele>177</ele>
        <time>2016-09-10T10:54:56Z</time>
      </trkpt>
      <trkpt lat="45.94384" lon="4.71507">
        <ele>177</ele>
        <time>2016-09-10T10:54:57Z</time>
      </trkpt>
      <trkpt lat="45.94376" lon="4.71509">
        <ele>177</ele>
        <time>2016-09-10T10:54:58Z</time>
      </trkpt>
      <trkpt lat="45.94369" lon="4.71512">
        <ele>176</ele>
        <time>2016-09-10T10:54:59Z</time>
      </trkpt>
      <trkpt lat="45.94362" lon="4.71515">
        <ele>176</ele>
        <time>2016-09-10T10:55:00Z</time>
      </trkpt>
      <trkpt lat="45.94354" lon="4.71518">
        <ele>176</ele>
        <time>2016-09-10T10:55:01Z</time>
      </trkpt>
      <trkpt lat="45.94347" lon="4.71522">
        <ele>176</ele>
        <time>2016-09-10T10:55:02Z</time>
      </trkpt>
      <trkpt lat="45.9434" lon="4.71524">
        <ele>176</ele>
        <time>2016-09-10T10:55:03Z</time>
      </trkpt>
      <trkpt lat="45.94333" lon="4.71527">
        <ele>176</ele>
        <time>2016-09-10T10:55:04Z</time>
      </trkpt>
      <trkpt lat="45.94326" lon="4.7153">
        <ele>176</ele>
        <time>2016-09-10T10:55:05Z</time>
      </trkpt>
      <trkpt lat="45.94319" lon="4.71533">
        <ele>175</ele>
        <time>2016-09-10T10:55:06Z</time>
      </trkpt>
      <trkpt lat="45.94311" lon="4.71535">
        <ele>175</ele>
        <time>2016-09-10T10:55:07Z</time>
      </trkpt>
      <trkpt lat="45.94304" lon="4.71539">
        <ele>175</ele>
        <time>2016-09-10T10:55:08Z</time>
      </trkpt>
      <trkpt lat="45.94297" lon="4.71542">
        <ele>175</ele>
        <time>2016-09-10T10:55:09Z</time>
      </trkpt>
      <trkpt lat="45.94289" lon="4.71545">
        <ele>175</ele>
        <time>2016-09-10T10:55:10Z</time>
      </trkpt>
      <trkpt lat="45.94281" lon="4.71548">
        <ele>175</ele>
        <time>2016-09-10T10:55:11Z</time>
      </trkpt>
      <trkpt lat="45.94274" lon="4.71551">
        <ele>175</ele>
        <time>2016-09-10T10:55:12Z</time>
      </trkpt>
      <trkpt lat="45.94267" lon="4.71554">
        <ele>175</ele>
        <time>2016-09-10T10:55:13Z</time>
      </trkpt>
      <trkpt lat="45.9426" lon="4.71556">
        <ele>175</ele>
        <time>2016-09-10T10:55:14Z</time>
      </trkpt>
      <trkpt lat="45.94253" lon="4.71558">
        <ele>175</ele>
        <time>2016-09-10T10:55:15Z</time>
      </trkpt>
      <trkpt lat="45.94247" lon="4.71561">
        <ele>174</ele>
        <time>2016-09-10T10:55:16Z</time>
      </trkpt>
      <trkpt lat="45.9424" lon="4.71563">
        <ele>174</ele>
        <time>2016-09-10T10:55:17Z</time>
      </trkpt>
      <trkpt lat="45.94234" lon="4.71566">
        <ele>174</ele>
        <time>2016-09-10T10:55:18Z</time>
      </trkpt>
      <trkpt lat="45.94227" lon="4.71568">
        <ele>174</ele>
        <time>2016-09-10T10:55:19Z</time>
      </trkpt>
      <trkpt lat="45.94221" lon="4.7157">
        <ele>174</ele>
        <time>2016-09-10T10:55:20Z</time>
      </trkpt>
      <trkpt lat="45.94215" lon="4.71573">
        <ele>174</ele>
        <time>2016-09-10T10:55:21Z</time>
      </trkpt>
      <trkpt lat="45.94209" lon="4.71575">
        <ele>174</ele>
        <time>2016-09-10T10:55:22Z</time>
      </trkpt>
      <trkpt lat="45.94203" lon="4.71578">
        <ele>174</ele>
        <time>2016-09-10T10:55:23Z</time>
      </trkpt>
      <trkpt lat="45.94197" lon="4.71581">
        <ele>174</ele>
        <time>2016-09-10T10:55:24Z</time>
      </trkpt>
      <trkpt lat="45.94191" lon="4.71583">
        <ele>174</ele>
        <time>2016-09-10T10:55:25Z</time>
      </trkpt>
      <trkpt lat="45.94184" lon="4.71586">
        <ele>173</ele>
        <time>2016-09-10T10:55:26Z</time>
      </trkpt>
      <trkpt lat="45.94178" lon="4.71589">
        <ele>174</ele>
        <time>2016-09-10T10:55:27Z</time>
      </trkpt>
      <trkpt lat="45.94172" lon="4.71592">
        <ele>174</ele>
        <time>2016-09-10T10:55:28Z</time>
      </trkpt>
      <trkpt lat="45.94165" lon="4.71594">
        <ele>174</ele>
        <time>2016-09-10T10:55:29Z</time>
      </trkpt>
      <trkpt lat="45.94158" lon="4.71596">
        <ele>173</ele>
        <time>2016-09-10T10:55:30Z</time>
      </trkpt>
      <trkpt lat="45.94151" lon="4.71599">
        <ele>173</ele>
        <time>2016-09-10T10:55:31Z</time>
      </trkpt>
      <trkpt lat="45.94145" lon="4.71602">
        <ele>173</ele>
        <time>2016-09-10T10:55:32Z</time>
      </trkpt>
      <trkpt lat="45.94138" lon="4.71604">
        <ele>173</ele>
        <time>2016-09-10T10:55:33Z</time>
      </trkpt>
      <trkpt lat="45.94131" lon="4.71606">
        <ele>173</ele>
        <time>2016-09-10T10:55:34Z</time>
      </trkpt>
      <trkpt lat="45.94125" lon="4.71608">
        <ele>173</ele>
        <time>2016-09-10T10:55:35Z</time>
      </trkpt>
      <trkpt lat="45.94118" lon="4.7161">
        <ele>173</ele>
        <time>2016-09-10T10:55:36Z</time>
      </trkpt>
      <trkpt lat="45.94111" lon="4.71613">
        <ele>173</ele>
        <time>2016-09-10T10:55:37Z</time>
      </trkpt>
      <trkpt lat="45.94105" lon="4.71615">
        <ele>173</ele>
        <time>2016-09-10T10:55:38Z</time>
      </trkpt>
      <trkpt lat="45.94099" lon="4.71617">
        <ele>173</ele>
        <time>2016-09-10T10:55:39Z</time>
      </trkpt>
      <trkpt lat="45.94092" lon="4.7162">
        <ele>173</ele>
        <time>2016-09-10T10:55:40Z</time>
      </trkpt>
      <trkpt lat="45.94085" lon="4.71622">
        <ele>173</ele>
        <time>2016-09-10T10:55:41Z</time>
      </trkpt>
      <trkpt lat="45.94079" lon="4.71625">
        <ele>174</ele>
        <time>2016-09-10T10:55:42Z</time>
      </trkpt>
      <trkpt lat="45.94073" lon="4.71627">
        <ele>174</ele>
        <time>2016-09-10T10:55:43Z</time>
      </trkpt>
      <trkpt lat="45.94067" lon="4.71629">
        <ele>174</ele>
        <time>2016-09-10T10:55:44Z</time>
      </trkpt>
      <trkpt lat="45.94061" lon="4.71631">
        <ele>174</ele>
        <time>2016-09-10T10:55:45Z</time>
      </trkpt>
      <trkpt lat="45.94055" lon="4.71634">
        <ele>174</ele>
        <time>2016-09-10T10:55:46Z</time>
      </trkpt>
      <trkpt lat="45.94049" lon="4.71636">
        <ele>175</ele>
        <time>2016-09-10T10:55:47Z</time>
      </trkpt>
      <trkpt lat="45.94043" lon="4.71639">
        <ele>175</ele>
        <time>2016-09-10T10:55:48Z</time>
      </trkpt>
      <trkpt lat="45.94037" lon="4.71642">
        <ele>175</ele>
        <time>2016-09-10T10:55:49Z</time>
      </trkpt>
      <trkpt lat="45.94031" lon="4.71645">
        <ele>175</ele>
        <time>2016-09-10T10:55:50Z</time>
      </trkpt>
      <trkpt lat="45.94025" lon="4.71647">
        <ele>175</ele>
        <time>2016-09-10T10:55:51Z</time>
      </trkpt>
      <trkpt lat="45.9402" lon="4.71651">
        <ele>176</ele>
        <time>2016-09-10T10:55:52Z</time>
      </trkpt>
      <trkpt lat="45.94015" lon="4.71653">
        <ele>176</ele>
        <time>2016-09-10T10:55:53Z</time>
      </trkpt>
      <trkpt lat="45.9401" lon="4.71656">
        <ele>176</ele>
        <time>2016-09-10T10:55:54Z</time>
      </trkpt>
      <trkpt lat="45.94006" lon="4.71658">
        <ele>176</ele>
        <time>2016-09-10T10:55:55Z</time>
      </trkpt>
      <trkpt lat="45.94001" lon="4.7166">
        <ele>176</ele>
        <time>2016-09-10T10:55:56Z</time>
      </trkpt>
      <trkpt lat="45.93995" lon="4.71661">
        <ele>177</ele>
        <time>2016-09-10T10:55:57Z</time>
      </trkpt>
      <trkpt lat="45.9399" lon="4.71662">
        <ele>177</ele>
        <time>2016-09-10T10:55:58Z</time>
      </trkpt>
      <trkpt lat="45.93984" lon="4.71662">
        <ele>177</ele>
        <time>2016-09-10T10:55:59Z</time>
      </trkpt>
      <trkpt lat="45.93978" lon="4.71664">
        <ele>177</ele>
        <time>2016-09-10T10:56:00Z</time>
      </trkpt>
      <trkpt lat="45.93971" lon="4.71666">
        <ele>177</ele>
        <time>2016-09-10T10:56:01Z</time>
      </trkpt>
      <trkpt lat="45.93965" lon="4.71667">
        <ele>175</ele>
        <time>2016-09-10T10:56:02Z</time>
      </trkpt>
      <trkpt lat="45.93958" lon="4.7167">
        <ele>175</ele>
        <time>2016-09-10T10:56:03Z</time>
      </trkpt>
      <trkpt lat="45.93952" lon="4.71672">
        <ele>175</ele>
        <time>2016-09-10T10:56:04Z</time>
      </trkpt>
      <trkpt lat="45.93945" lon="4.71674">
        <ele>175</ele>
        <time>2016-09-10T10:56:05Z</time>
      </trkpt>
      <trkpt lat="45.93939" lon="4.71676">
        <ele>175</ele>
        <time>2016-09-10T10:56:06Z</time>
      </trkpt>
      <trkpt lat="45.93933" lon="4.71678">
        <ele>175</ele>
        <time>2016-09-10T10:56:07Z</time>
      </trkpt>
      <trkpt lat="45.93927" lon="4.7168">
        <ele>175</ele>
        <time>2016-09-10T10:56:08Z</time>
      </trkpt>
      <trkpt lat="45.93922" lon="4.71683">
        <ele>175</ele>
        <time>2016-09-10T10:56:09Z</time>
      </trkpt>
      <trkpt lat="45.93916" lon="4.71685">
        <ele>174</ele>
        <time>2016-09-10T10:56:10Z</time>
      </trkpt>
      <trkpt lat="45.93912" lon="4.71688">
        <ele>174</ele>
        <time>2016-09-10T10:56:11Z</time>
      </trkpt>
      <trkpt lat="45.93906" lon="4.7169">
        <ele>174</ele>
        <time>2016-09-10T10:56:12Z</time>
      </trkpt>
      <trkpt lat="45.939" lon="4.71692">
        <ele>174</ele>
        <time>2016-09-10T10:56:13Z</time>
      </trkpt>
      <trkpt lat="45.93895" lon="4.71694">
        <ele>174</ele>
        <time>2016-09-10T10:56:14Z</time>
      </trkpt>
      <trkpt lat="45.93889" lon="4.71696">
        <ele>174</ele>
        <time>2016-09-10T10:56:15Z</time>
      </trkpt>
      <trkpt lat="45.93883" lon="4.71698">
        <ele>174</ele>
        <time>2016-09-10T10:56:16Z</time>
      </trkpt>
      <trkpt lat="45.93877" lon="4.717">
        <ele>174</ele>
        <time>2016-09-10T10:56:17Z</time>
      </trkpt>
      <trkpt lat="45.9387" lon="4.71702">
        <ele>174</ele>
        <time>2016-09-10T10:56:18Z</time>
      </trkpt>
      <trkpt lat="45.93863" lon="4.71705">
        <ele>174</ele>
        <time>2016-09-10T10:56:19Z</time>
      </trkpt>
      <trkpt lat="45.93857" lon="4.71709">
        <ele>174</ele>
        <time>2016-09-10T10:56:20Z</time>
      </trkpt>
      <trkpt lat="45.93851" lon="4.71712">
        <ele>174</ele>
        <time>2016-09-10T10:56:21Z</time>
      </trkpt>
      <trkpt lat="45.93844" lon="4.71715">
        <ele>174</ele>
        <time>2016-09-10T10:56:22Z</time>
      </trkpt>
      <trkpt lat="45.93838" lon="4.71718">
        <ele>175</ele>
        <time>2016-09-10T10:56:23Z</time>
      </trkpt>
      <trkpt lat="45.93832" lon="4.7172">
        <ele>175</ele>
        <time>2016-09-10T10:56:24Z</time>
      </trkpt>
      <trkpt lat="45.93825" lon="4.71722">
        <ele>175</ele>
        <time>2016-09-10T10:56:25Z</time>
      </trkpt>
      <trkpt lat="45.93818" lon="4.71724">
        <ele>175</ele>
        <time>2016-09-10T10:56:26Z</time>
      </trkpt>
      <trkpt lat="45.93812" lon="4.71726">
        <ele>175</ele>
        <time>2016-09-10T10:56:27Z</time>
      </trkpt>
      <trkpt lat="45.93805" lon="4.71729">
        <ele>175</ele>
        <time>2016-09-10T10:56:28Z</time>
      </trkpt>
      <trkpt lat="45.93799" lon="4.71731">
        <ele>175</ele>
        <time>2016-09-10T10:56:29Z</time>
      </trkpt>
      <trkpt lat="45.93792" lon="4.71733">
        <ele>175</ele>
        <time>2016-09-10T10:56:30Z</time>
      </trkpt>
      <trkpt lat="45.93786" lon="4.71736">
        <ele>175</ele>
        <time>2016-09-10T10:56:31Z</time>
      </trkpt>
      <trkpt lat="45.93779" lon="4.71738">
        <ele>175</ele>
        <time>2016-09-10T10:56:32Z</time>
      </trkpt>
      <trkpt lat="45.93773" lon="4.7174">
        <ele>175</ele>
        <time>2016-09-10T10:56:33Z</time>
      </trkpt>
      <trkpt lat="45.93767" lon="4.71742">
        <ele>175</ele>
        <time>2016-09-10T10:56:34Z</time>
      </trkpt>
      <trkpt lat="45.93761" lon="4.71744">
        <ele>175</ele>
        <time>2016-09-10T10:56:35Z</time>
      </trkpt>
      <trkpt lat="45.93755" lon="4.71747">
        <ele>175</ele>
        <time>2016-09-10T10:56:36Z</time>
      </trkpt>
      <trkpt lat="45.93749" lon="4.7175">
        <ele>175</ele>
        <time>2016-09-10T10:56:37Z</time>
      </trkpt>
      <trkpt lat="45.93743" lon="4.71752">
        <ele>175</ele>
        <time>2016-09-10T10:56:38Z</time>
      </trkpt>
      <trkpt lat="45.93738" lon="4.71754">
        <ele>176</ele>
        <time>2016-09-10T10:56:39Z</time>
      </trkpt>
      <trkpt lat="45.93733" lon="4.71756">
        <ele>176</ele>
        <time>2016-09-10T10:56:40Z</time>
      </trkpt>
      <trkpt lat="45.93725" lon="4.71761">
        <ele>176</ele>
        <time>2016-09-10T10:56:42Z</time>
      </trkpt>
      <trkpt lat="45.93722" lon="4.71763">
        <ele>176</ele>
        <time>2016-09-10T10:56:43Z</time>
      </trkpt>
      <trkpt lat="45.93716" lon="4.71769">
        <ele>176</ele>
        <time>2016-09-10T10:56:46Z</time>
      </trkpt>
      <trkpt lat="45.93716" lon="4.7177">
        <ele>176</ele>
        <time>2016-09-10T10:56:47Z</time>
      </trkpt>
      <trkpt lat="45.93715" lon="4.7177">
        <ele>176</ele>
        <time>2016-09-10T10:56:57Z</time>
      </trkpt>
      <trkpt lat="45.93714" lon="4.71772">
        <ele>176</ele>
        <time>2016-09-10T10:56:58Z</time>
      </trkpt>
      <trkpt lat="45.9371" lon="4.71783">
        <ele>176</ele>
        <time>2016-09-10T10:57:01Z</time>
      </trkpt>
      <trkpt lat="45.93708" lon="4.71788">
        <ele>176</ele>
        <time>2016-09-10T10:57:02Z</time>
      </trkpt>
      <trkpt lat="45.93706" lon="4.71793">
        <ele>176</ele>
        <time>2016-09-10T10:57:03Z</time>
      </trkpt>
      <trkpt lat="45.93705" lon="4.718">
        <ele>176</ele>
        <time>2016-09-10T10:57:04Z</time>
      </trkpt>
      <trkpt lat="45.93703" lon="4.71809">
        <ele>176</ele>
        <time>2016-09-10T10:57:05Z</time>
      </trkpt>
      <trkpt lat="45.93702" lon="4.71816">
        <ele>176</ele>
        <time>2016-09-10T10:57:06Z</time>
      </trkpt>
      <trkpt lat="45.937" lon="4.71823">
        <ele>176</ele>
        <time>2016-09-10T10:57:07Z</time>
      </trkpt>
      <trkpt lat="45.93698" lon="4.71832">
        <ele>176</ele>
        <time>2016-09-10T10:57:08Z</time>
      </trkpt>
      <trkpt lat="45.93695" lon="4.7184">
        <ele>175</ele>
        <time>2016-09-10T10:57:09Z</time>
      </trkpt>
      <trkpt lat="45.93693" lon="4.71848">
        <ele>175</ele>
        <time>2016-09-10T10:57:10Z</time>
      </trkpt>
      <trkpt lat="45.9369" lon="4.71856">
        <ele>175</ele>
        <time>2016-09-10T10:57:11Z</time>
      </trkpt>
      <trkpt lat="45.93687" lon="4.71864">
        <ele>175</ele>
        <time>2016-09-10T10:57:12Z</time>
      </trkpt>
      <trkpt lat="45.93685" lon="4.71871">
        <ele>175</ele>
        <time>2016-09-10T10:57:13Z</time>
      </trkpt>
      <trkpt lat="45.93683" lon="4.71878">
        <ele>175</ele>
        <time>2016-09-10T10:57:14Z</time>
      </trkpt>
      <trkpt lat="45.93681" lon="4.71885">
        <ele>175</ele>
        <time>2016-09-10T10:57:15Z</time>
      </trkpt>
      <trkpt lat="45.93679" lon="4.71892">
        <ele>175</ele>
        <time>2016-09-10T10:57:16Z</time>
      </trkpt>
      <trkpt lat="45.93676" lon="4.719">
        <ele>175</ele>
        <time>2016-09-10T10:57:17Z</time>
      </trkpt>
      <trkpt lat="45.93674" lon="4.71908">
        <ele>175</ele>
        <time>2016-09-10T10:57:18Z</time>
      </trkpt>
      <trkpt lat="45.93671" lon="4.71917">
        <ele>175</ele>
        <time>2016-09-10T10:57:19Z</time>
      </trkpt>
      <trkpt lat="45.93667" lon="4.71926">
        <ele>174</ele>
        <time>2016-09-10T10:57:20Z</time>
      </trkpt>
      <trkpt lat="45.93664" lon="4.71933">
        <ele>175</ele>
        <time>2016-09-10T10:57:21Z</time>
      </trkpt>
      <trkpt lat="45.93661" lon="4.71941">
        <ele>175</ele>
        <time>2016-09-10T10:57:22Z</time>
      </trkpt>
      <trkpt lat="45.93658" lon="4.71948">
        <ele>175</ele>
        <time>2016-09-10T10:57:23Z</time>
      </trkpt>
      <trkpt lat="45.93656" lon="4.71955">
        <ele>175</ele>
        <time>2016-09-10T10:57:24Z</time>
      </trkpt>
      <trkpt lat="45.93653" lon="4.71962">
        <ele>175</ele>
        <time>2016-09-10T10:57:25Z</time>
      </trkpt>
      <trkpt lat="45.9365" lon="4.71969">
        <ele>175</ele>
        <time>2016-09-10T10:57:26Z</time>
      </trkpt>
      <trkpt lat="45.93646" lon="4.71976">
        <ele>175</ele>
        <time>2016-09-10T10:57:27Z</time>
      </trkpt>
      <trkpt lat="45.93643" lon="4.71983">
        <ele>175</ele>
        <time>2016-09-10T10:57:28Z</time>
      </trkpt>
      <trkpt lat="45.9364" lon="4.7199">
        <ele>175</ele>
        <time>2016-09-10T10:57:29Z</time>
      </trkpt>
      <trkpt lat="45.93637" lon="4.71996">
        <ele>175</ele>
        <time>2016-09-10T10:57:30Z</time>
      </trkpt>
      <trkpt lat="45.93633" lon="4.72003">
        <ele>174</ele>
        <time>2016-09-10T10:57:31Z</time>
      </trkpt>
      <trkpt lat="45.93631" lon="4.72011">
        <ele>174</ele>
        <time>2016-09-10T10:57:32Z</time>
      </trkpt>
      <trkpt lat="45.93628" lon="4.72019">
        <ele>175</ele>
        <time>2016-09-10T10:57:33Z</time>
      </trkpt>
      <trkpt lat="45.93625" lon="4.72026">
        <ele>175</ele>
        <time>2016-09-10T10:57:34Z</time>
      </trkpt>
      <trkpt lat="45.93622" lon="4.72033">
        <ele>175</ele>
        <time>2016-09-10T10:57:35Z</time>
      </trkpt>
      <trkpt lat="45.93618" lon="4.72041">
        <ele>175</ele>
        <time>2016-09-10T10:57:36Z</time>
      </trkpt>
      <trkpt lat="45.93615" lon="4.72048">
        <ele>175</ele>
        <time>2016-09-10T10:57:37Z</time>
      </trkpt>
      <trkpt lat="45.93611" lon="4.72055">
        <ele>175</ele>
        <time>2016-09-10T10:57:38Z</time>
      </trkpt>
      <trkpt lat="45.93607" lon="4.72063">
        <ele>175</ele>
        <time>2016-09-10T10:57:39Z</time>
      </trkpt>
      <trkpt lat="45.93604" lon="4.72073">
        <ele>175</ele>
        <time>2016-09-10T10:57:40Z</time>
      </trkpt>
      <trkpt lat="45.936" lon="4.72082">
        <ele>175</ele>
        <time>2016-09-10T10:57:41Z</time>
      </trkpt>
      <trkpt lat="45.93596" lon="4.72091">
        <ele>175</ele>
        <time>2016-09-10T10:57:42Z</time>
      </trkpt>
      <trkpt lat="45.93592" lon="4.72098">
        <ele>175</ele>
        <time>2016-09-10T10:57:43Z</time>
      </trkpt>
      <trkpt lat="45.93589" lon="4.72106">
        <ele>174</ele>
        <time>2016-09-10T10:57:44Z</time>
      </trkpt>
      <trkpt lat="45.93586" lon="4.72113">
        <ele>174</ele>
        <time>2016-09-10T10:57:45Z</time>
      </trkpt>
      <trkpt lat="45.93583" lon="4.7212">
        <ele>175</ele>
        <time>2016-09-10T10:57:46Z</time>
      </trkpt>
      <trkpt lat="45.93581" lon="4.72128">
        <ele>174</ele>
        <time>2016-09-10T10:57:47Z</time>
      </trkpt>
      <trkpt lat="45.93579" lon="4.72136">
        <ele>174</ele>
        <time>2016-09-10T10:57:48Z</time>
      </trkpt>
      <trkpt lat="45.93576" lon="4.72143">
        <ele>174</ele>
        <time>2016-09-10T10:57:49Z</time>
      </trkpt>
      <trkpt lat="45.93573" lon="4.72151">
        <ele>174</ele>
        <time>2016-09-10T10:57:50Z</time>
      </trkpt>
      <trkpt lat="45.93571" lon="4.72159">
        <ele>174</ele>
        <time>2016-09-10T10:57:51Z</time>
      </trkpt>
      <trkpt lat="45.93568" lon="4.72167">
        <ele>173</ele>
        <time>2016-09-10T10:57:52Z</time>
      </trkpt>
      <trkpt lat="45.93565" lon="4.72176">
        <ele>173</ele>
        <time>2016-09-10T10:57:53Z</time>
      </trkpt>
      <trkpt lat="45.93562" lon="4.72184">
        <ele>173</ele>
        <time>2016-09-10T10:57:54Z</time>
      </trkpt>
      <trkpt lat="45.93558" lon="4.72191">
        <ele>173</ele>
        <time>2016-09-10T10:57:55Z</time>
      </trkpt>
      <trkpt lat="45.93555" lon="4.72199">
        <ele>173</ele>
        <time>2016-09-10T10:57:56Z</time>
      </trkpt>
      <trkpt lat="45.93552" lon="4.72207">
        <ele>173</ele>
        <time>2016-09-10T10:57:57Z</time>
      </trkpt>
      <trkpt lat="45.93549" lon="4.72215">
        <ele>173</ele>
        <time>2016-09-10T10:57:58Z</time>
      </trkpt>
      <trkpt lat="45.93546" lon="4.72224">
        <ele>172</ele>
        <time>2016-09-10T10:57:59Z</time>
      </trkpt>
      <trkpt lat="45.93543" lon="4.72232">
        <ele>172</ele>
        <time>2016-09-10T10:58:00Z</time>
      </trkpt>
      <trkpt lat="45.93541" lon="4.72239">
        <ele>172</ele>
        <time>2016-09-10T10:58:01Z</time>
      </trkpt>
      <trkpt lat="45.93538" lon="4.72246">
        <ele>172</ele>
        <time>2016-09-10T10:58:02Z</time>
      </trkpt>
      <trkpt lat="45.93535" lon="4.72254">
        <ele>172</ele>
        <time>2016-09-10T10:58:03Z</time>
      </trkpt>
      <trkpt lat="45.93533" lon="4.7226">
        <ele>172</ele>
        <time>2016-09-10T10:58:04Z</time>
      </trkpt>
      <trkpt lat="45.9353" lon="4.72267">
        <ele>172</ele>
        <time>2016-09-10T10:58:05Z</time>
      </trkpt>
      <trkpt lat="45.93528" lon="4.72273">
        <ele>172</ele>
        <time>2016-09-10T10:58:06Z</time>
      </trkpt>
      <trkpt lat="45.93526" lon="4.72279">
        <ele>172</ele>
        <time>2016-09-10T10:58:07Z</time>
      </trkpt>
      <trkpt lat="45.93524" lon="4.72286">
        <ele>172</ele>
        <time>2016-09-10T10:58:08Z</time>
      </trkpt>
      <trkpt lat="45.9352" lon="4.72293">
        <ele>172</ele>
        <time>2016-09-10T10:58:09Z</time>
      </trkpt>
      <trkpt lat="45.93517" lon="4.72299">
        <ele>172</ele>
        <time>2016-09-10T10:58:10Z</time>
      </trkpt>
      <trkpt lat="45.93513" lon="4.72306">
        <ele>173</ele>
        <time>2016-09-10T10:58:11Z</time>
      </trkpt>
      <trkpt lat="45.93508" lon="4.72312">
        <ele>173</ele>
        <time>2016-09-10T10:58:12Z</time>
      </trkpt>
      <trkpt lat="45.93504" lon="4.72318">
        <ele>173</ele>
        <time>2016-09-10T10:58:13Z</time>
      </trkpt>
      <trkpt lat="45.93499" lon="4.72325">
        <ele>173</ele>
        <time>2016-09-10T10:58:14Z</time>
      </trkpt>
      <trkpt lat="45.93495" lon="4.72332">
        <ele>173</ele>
        <time>2016-09-10T10:58:15Z</time>
      </trkpt>
      <trkpt lat="45.93491" lon="4.72338">
        <ele>173</ele>
        <time>2016-09-10T10:58:16Z</time>
      </trkpt>
      <trkpt lat="45.93486" lon="4.72344">
        <ele>173</ele>
        <time>2016-09-10T10:58:17Z</time>
      </trkpt>
      <trkpt lat="45.93482" lon="4.72351">
        <ele>173</ele>
        <time>2016-09-10T10:58:18Z</time>
      </trkpt>
      <trkpt lat="45.93477" lon="4.72357">
        <ele>173</ele>
        <time>2016-09-10T10:58:19Z</time>
      </trkpt>
      <trkpt lat="45.93472" lon="4.72363">
        <ele>173</ele>
        <time>2016-09-10T10:58:20Z</time>
      </trkpt>
      <trkpt lat="45.93468" lon="4.72369">
        <ele>173</ele>
        <time>2016-09-10T10:58:21Z</time>
      </trkpt>
      <trkpt lat="45.93463" lon="4.72375">
        <ele>173</ele>
        <time>2016-09-10T10:58:22Z</time>
      </trkpt>
      <trkpt lat="45.93458" lon="4.7238">
        <ele>173</ele>
        <time>2016-09-10T10:58:23Z</time>
      </trkpt>
      <trkpt lat="45.93452" lon="4.72385">
        <ele>173</ele>
        <time>2016-09-10T10:58:24Z</time>
      </trkpt>
      <trkpt lat="45.93447" lon="4.7239">
        <ele>173</ele>
        <time>2016-09-10T10:58:25Z</time>
      </trkpt>
      <trkpt lat="45.93442" lon="4.72394">
        <ele>173</ele>
        <time>2016-09-10T10:58:26Z</time>
      </trkpt>
      <trkpt lat="45.93437" lon="4.72398">
        <ele>173</ele>
        <time>2016-09-10T10:58:27Z</time>
      </trkpt>
      <trkpt lat="45.93432" lon="4.724">
        <ele>174</ele>
        <time>2016-09-10T10:58:28Z</time>
      </trkpt>
      <trkpt lat="45.93427" lon="4.72403">
        <ele>174</ele>
        <time>2016-09-10T10:58:29Z</time>
      </trkpt>
      <trkpt lat="45.93422" lon="4.72404">
        <ele>174</ele>
        <time>2016-09-10T10:58:30Z</time>
      </trkpt>
      <trkpt lat="45.93417" lon="4.72407">
        <ele>174</ele>
        <time>2016-09-10T10:58:31Z</time>
      </trkpt>
      <trkpt lat="45.93412" lon="4.72407">
        <ele>174</ele>
        <time>2016-09-10T10:58:32Z</time>
      </trkpt>
      <trkpt lat="45.93407" lon="4.72407">
        <ele>174</ele>
        <time>2016-09-10T10:58:33Z</time>
      </trkpt>
      <trkpt lat="45.93402" lon="4.72407">
        <ele>174</ele>
        <time>2016-09-10T10:58:34Z</time>
      </trkpt>
      <trkpt lat="45.93397" lon="4.72407">
        <ele>174</ele>
        <time>2016-09-10T10:58:35Z</time>
      </trkpt>
      <trkpt lat="45.93391" lon="4.72409">
        <ele>174</ele>
        <time>2016-09-10T10:58:36Z</time>
      </trkpt>
      <trkpt lat="45.93388" lon="4.72414">
        <ele>174</ele>
        <time>2016-09-10T10:58:37Z</time>
      </trkpt>
      <trkpt lat="45.93385" lon="4.72422">
        <ele>173</ele>
        <time>2016-09-10T10:58:38Z</time>
      </trkpt>
      <trkpt lat="45.93385" lon="4.7243">
        <ele>173</ele>
        <time>2016-09-10T10:58:39Z</time>
      </trkpt>
      <trkpt lat="45.93387" lon="4.72438">
        <ele>173</ele>
        <time>2016-09-10T10:58:40Z</time>
      </trkpt>
      <trkpt lat="45.93391" lon="4.72445">
        <ele>173</ele>
        <time>2016-09-10T10:58:41Z</time>
      </trkpt>
      <trkpt lat="45.93393" lon="4.72452">
        <ele>173</ele>
        <time>2016-09-10T10:58:42Z</time>
      </trkpt>
      <trkpt lat="45.93393" lon="4.7246">
        <ele>173</ele>
        <time>2016-09-10T10:58:43Z</time>
      </trkpt>
      <trkpt lat="45.93392" lon="4.72467">
        <ele>173</ele>
        <time>2016-09-10T10:58:44Z</time>
      </trkpt>
      <trkpt lat="45.93388" lon="4.72473">
        <ele>173</ele>
        <time>2016-09-10T10:58:45Z</time>
      </trkpt>
      <trkpt lat="45.93385" lon="4.72478">
        <ele>173</ele>
        <time>2016-09-10T10:58:46Z</time>
      </trkpt>
      <trkpt lat="45.9338" lon="4.72483">
        <ele>173</ele>
        <time>2016-09-10T10:58:47Z</time>
      </trkpt>
      <trkpt lat="45.93376" lon="4.72488">
        <ele>173</ele>
        <time>2016-09-10T10:58:48Z</time>
      </trkpt>
      <trkpt lat="45.93371" lon="4.72493">
        <ele>173</ele>
        <time>2016-09-10T10:58:49Z</time>
      </trkpt>
      <trkpt lat="45.93365" lon="4.72499">
        <ele>173</ele>
        <time>2016-09-10T10:58:50Z</time>
      </trkpt>
      <trkpt lat="45.93361" lon="4.72505">
        <ele>172</ele>
        <time>2016-09-10T10:58:51Z</time>
      </trkpt>
      <trkpt lat="45.93355" lon="4.72509">
        <ele>172</ele>
        <time>2016-09-10T10:58:52Z</time>
      </trkpt>
      <trkpt lat="45.9335" lon="4.72514">
        <ele>172</ele>
        <time>2016-09-10T10:58:53Z</time>
      </trkpt>
      <trkpt lat="45.93345" lon="4.72519">
        <ele>172</ele>
        <time>2016-09-10T10:58:54Z</time>
      </trkpt>
      <trkpt lat="45.9334" lon="4.72525">
        <ele>172</ele>
        <time>2016-09-10T10:58:55Z</time>
      </trkpt>
      <trkpt lat="45.93336" lon="4.7253">
        <ele>172</ele>
        <time>2016-09-10T10:58:56Z</time>
      </trkpt>
      <trkpt lat="45.93332" lon="4.72535">
        <ele>172</ele>
        <time>2016-09-10T10:58:57Z</time>
      </trkpt>
      <trkpt lat="45.93327" lon="4.72539">
        <ele>172</ele>
        <time>2016-09-10T10:58:58Z</time>
      </trkpt>
      <trkpt lat="45.93323" lon="4.72544">
        <ele>172</ele>
        <time>2016-09-10T10:58:59Z</time>
      </trkpt>
      <trkpt lat="45.93318" lon="4.7255">
        <ele>172</ele>
        <time>2016-09-10T10:59:00Z</time>
      </trkpt>
      <trkpt lat="45.93314" lon="4.72555">
        <ele>172</ele>
        <time>2016-09-10T10:59:01Z</time>
      </trkpt>
      <trkpt lat="45.93309" lon="4.72559">
        <ele>172</ele>
        <time>2016-09-10T10:59:02Z</time>
      </trkpt>
      <trkpt lat="45.93304" lon="4.72565">
        <ele>171</ele>
        <time>2016-09-10T10:59:03Z</time>
      </trkpt>
      <trkpt lat="45.93299" lon="4.7257">
        <ele>171</ele>
        <time>2016-09-10T10:59:04Z</time>
      </trkpt>
      <trkpt lat="45.93294" lon="4.72576">
        <ele>171</ele>
        <time>2016-09-10T10:59:05Z</time>
      </trkpt>
      <trkpt lat="45.93289" lon="4.72582">
        <ele>171</ele>
        <time>2016-09-10T10:59:06Z</time>
      </trkpt>
      <trkpt lat="45.93284" lon="4.72587">
        <ele>170</ele>
        <time>2016-09-10T10:59:07Z</time>
      </trkpt>
      <trkpt lat="45.9328" lon="4.72593">
        <ele>170</ele>
        <time>2016-09-10T10:59:08Z</time>
      </trkpt>
      <trkpt lat="45.93275" lon="4.72598">
        <ele>170</ele>
        <time>2016-09-10T10:59:09Z</time>
      </trkpt>
      <trkpt lat="45.93271" lon="4.72603">
        <ele>170</ele>
        <time>2016-09-10T10:59:10Z</time>
      </trkpt>
      <trkpt lat="45.93266" lon="4.72608">
        <ele>170</ele>
        <time>2016-09-10T10:59:11Z</time>
      </trkpt>
      <trkpt lat="45.93261" lon="4.72613">
        <ele>170</ele>
        <time>2016-09-10T10:59:12Z</time>
      </trkpt>
      <trkpt lat="45.93256" lon="4.72618">
        <ele>170</ele>
        <time>2016-09-10T10:59:13Z</time>
      </trkpt>
      <trkpt lat="45.93251" lon="4.72624">
        <ele>170</ele>
        <time>2016-09-10T10:59:14Z</time>
      </trkpt>
      <trkpt lat="45.93247" lon="4.7263">
        <ele>170</ele>
        <time>2016-09-10T10:59:15Z</time>
      </trkpt>
      <trkpt lat="45.93241" lon="4.72636">
        <ele>170</ele>
        <time>2016-09-10T10:59:16Z</time>
      </trkpt>
      <trkpt lat="45.93237" lon="4.72642">
        <ele>170</ele>
        <time>2016-09-10T10:59:17Z</time>
      </trkpt>
      <trkpt lat="45.93232" lon="4.72647">
        <ele>170</ele>
        <time>2016-09-10T10:59:18Z</time>
      </trkpt>
      <trkpt lat="45.93227" lon="4.72653">
        <ele>170</ele>
        <time>2016-09-10T10:59:19Z</time>
      </trkpt>
      <trkpt lat="45.93223" lon="4.72659">
        <ele>170</ele>
        <time>2016-09-10T10:59:20Z</time>
      </trkpt>
      <trkpt lat="45.93218" lon="4.72664">
        <ele>170</ele>
        <time>2016-09-10T10:59:21Z</time>
      </trkpt>
      <trkpt lat="45.93214" lon="4.72669">
        <ele>169</ele>
        <time>2016-09-10T10:59:22Z</time>
      </trkpt>
      <trkpt lat="45.9321" lon="4.72674">
        <ele>169</ele>
        <time>2016-09-10T10:59:23Z</time>
      </trkpt>
      <trkpt lat="45.93205" lon="4.72679">
        <ele>169</ele>
        <time>2016-09-10T10:59:24Z</time>
      </trkpt>
      <trkpt lat="45.93201" lon="4.72684">
        <ele>169</ele>
        <time>2016-09-10T10:59:25Z</time>
      </trkpt>
      <trkpt lat="45.93196" lon="4.7269">
        <ele>169</ele>
        <time>2016-09-10T10:59:26Z</time>
      </trkpt>
      <trkpt lat="45.93192" lon="4.72695">
        <ele>169</ele>
        <time>2016-09-10T10:59:27Z</time>
      </trkpt>
      <trkpt lat="45.93188" lon="4.72701">
        <ele>169</ele>
        <time>2016-09-10T10:59:28Z</time>
      </trkpt>
      <trkpt lat="45.93184" lon="4.72707">
        <ele>169</ele>
        <time>2016-09-10T10:59:29Z</time>
      </trkpt>
      <trkpt lat="45.93179" lon="4.72712">
        <ele>169</ele>
        <time>2016-09-10T10:59:30Z</time>
      </trkpt>
      <trkpt lat="45.93174" lon="4.72718">
        <ele>170</ele>
        <time>2016-09-10T10:59:31Z</time>
      </trkpt>
      <trkpt lat="45.93169" lon="4.72724">
        <ele>170</ele>
        <time>2016-09-10T10:59:32Z</time>
      </trkpt>
      <trkpt lat="45.93164" lon="4.7273">
        <ele>170</ele>
        <time>2016-09-10T10:59:33Z</time>
      </trkpt>
      <trkpt lat="45.93159" lon="4.72735">
        <ele>170</ele>
        <time>2016-09-10T10:59:34Z</time>
      </trkpt>
      <trkpt lat="45.93154" lon="4.72741">
        <ele>170</ele>
        <time>2016-09-10T10:59:35Z</time>
      </trkpt>
      <trkpt lat="45.93149" lon="4.72746">
        <ele>170</ele>
        <time>2016-09-10T10:59:36Z</time>
      </trkpt>
      <trkpt lat="45.93144" lon="4.72751">
        <ele>171</ele>
        <time>2016-09-10T10:59:37Z</time>
      </trkpt>
      <trkpt lat="45.9314" lon="4.72757">
        <ele>171</ele>
        <time>2016-09-10T10:59:38Z</time>
      </trkpt>
      <trkpt lat="45.93135" lon="4.72762">
        <ele>171</ele>
        <time>2016-09-10T10:59:39Z</time>
      </trkpt>
      <trkpt lat="45.93131" lon="4.72768">
        <ele>171</ele>
        <time>2016-09-10T10:59:40Z</time>
      </trkpt>
      <trkpt lat="45.93127" lon="4.72774">
        <ele>171</ele>
        <time>2016-09-10T10:59:41Z</time>
      </trkpt>
      <trkpt lat="45.93123" lon="4.7278">
        <ele>171</ele>
        <time>2016-09-10T10:59:42Z</time>
      </trkpt>
      <trkpt lat="45.93119" lon="4.72786">
        <ele>171</ele>
        <time>2016-09-10T10:59:43Z</time>
      </trkpt>
      <trkpt lat="45.93114" lon="4.72791">
        <ele>171</ele>
        <time>2016-09-10T10:59:44Z</time>
      </trkpt>
      <trkpt lat="45.9311" lon="4.72796">
        <ele>171</ele>
        <time>2016-09-10T10:59:45Z</time>
      </trkpt>
      <trkpt lat="45.93106" lon="4.72802">
        <ele>171</ele>
        <time>2016-09-10T10:59:46Z</time>
      </trkpt>
      <trkpt lat="45.93101" lon="4.72807">
        <ele>171</ele>
        <time>2016-09-10T10:59:47Z</time>
      </trkpt>
      <trkpt lat="45.93096" lon="4.72812">
        <ele>172</ele>
        <time>2016-09-10T10:59:48Z</time>
      </trkpt>
      <trkpt lat="45.93091" lon="4.72817">
        <ele>172</ele>
        <time>2016-09-10T10:59:49Z</time>
      </trkpt>
      <trkpt lat="45.93086" lon="4.72822">
        <ele>172</ele>
        <time>2016-09-10T10:59:50Z</time>
      </trkpt>
      <trkpt lat="45.93082" lon="4.72827">
        <ele>173</ele>
        <time>2016-09-10T10:59:51Z</time>
      </trkpt>
      <trkpt lat="45.93077" lon="4.72831">
        <ele>173</ele>
        <time>2016-09-10T10:59:52Z</time>
      </trkpt>
      <trkpt lat="45.93073" lon="4.72836">
        <ele>173</ele>
        <time>2016-09-10T10:59:53Z</time>
      </trkpt>
      <trkpt lat="45.93069" lon="4.7284">
        <ele>173</ele>
        <time>2016-09-10T10:59:54Z</time>
      </trkpt>
      <trkpt lat="45.93065" lon="4.72843">
        <ele>172</ele>
        <time>2016-09-10T10:59:55Z</time>
      </trkpt>
      <trkpt lat="45.93062" lon="4.72851">
        <ele>172</ele>
        <time>2016-09-10T10:59:56Z</time>
      </trkpt>
      <trkpt lat="45.93057" lon="4.72857">
        <ele>172</ele>
        <time>2016-09-10T10:59:57Z</time>
      </trkpt>
      <trkpt lat="45.93051" lon="4.72861">
        <ele>172</ele>
        <time>2016-09-10T10:59:58Z</time>
      </trkpt>
      <trkpt lat="45.93046" lon="4.72866">
        <ele>172</ele>
        <time>2016-09-10T10:59:59Z</time>
      </trkpt>
      <trkpt lat="45.93041" lon="4.72872">
        <ele>172</ele>
        <time>2016-09-10T11:00:00Z</time>
      </trkpt>
      <trkpt lat="45.93037" lon="4.72877">
        <ele>172</ele>
        <time>2016-09-10T11:00:01Z</time>
      </trkpt>
      <trkpt lat="45.93032" lon="4.72882">
        <ele>172</ele>
        <time>2016-09-10T11:00:02Z</time>
      </trkpt>
      <trkpt lat="45.93028" lon="4.72887">
        <ele>172</ele>
        <time>2016-09-10T11:00:03Z</time>
      </trkpt>
      <trkpt lat="45.93024" lon="4.72892">
        <ele>172</ele>
        <time>2016-09-10T11:00:04Z</time>
      </trkpt>
      <trkpt lat="45.9302" lon="4.72897">
        <ele>172</ele>
        <time>2016-09-10T11:00:05Z</time>
      </trkpt>
      <trkpt lat="45.93015" lon="4.72902">
        <ele>172</ele>
        <time>2016-09-10T11:00:06Z</time>
      </trkpt>
      <trkpt lat="45.9301" lon="4.72907">
        <ele>171</ele>
        <time>2016-09-10T11:00:07Z</time>
      </trkpt>
      <trkpt lat="45.93006" lon="4.72913">
        <ele>171</ele>
        <time>2016-09-10T11:00:08Z</time>
      </trkpt>
      <trkpt lat="45.93001" lon="4.72918">
        <ele>171</ele>
        <time>2016-09-10T11:00:09Z</time>
      </trkpt>
      <trkpt lat="45.92996" lon="4.72923">
        <ele>171</ele>
        <time>2016-09-10T11:00:10Z</time>
      </trkpt>
      <trkpt lat="45.92991" lon="4.72929">
        <ele>171</ele>
        <time>2016-09-10T11:00:11Z</time>
      </trkpt>
      <trkpt lat="45.92986" lon="4.72934">
        <ele>171</ele>
        <time>2016-09-10T11:00:12Z</time>
      </trkpt>
      <trkpt lat="45.92981" lon="4.7294">
        <ele>171</ele>
        <time>2016-09-10T11:00:13Z</time>
      </trkpt>
      <trkpt lat="45.92976" lon="4.72947">
        <ele>171</ele>
        <time>2016-09-10T11:00:14Z</time>
      </trkpt>
      <trkpt lat="45.92971" lon="4.72953">
        <ele>171</ele>
        <time>2016-09-10T11:00:15Z</time>
      </trkpt>
      <trkpt lat="45.92967" lon="4.72959">
        <ele>171</ele>
        <time>2016-09-10T11:00:16Z</time>
      </trkpt>
      <trkpt lat="45.92962" lon="4.72965">
        <ele>171</ele>
        <time>2016-09-10T11:00:17Z</time>
      </trkpt>
      <trkpt lat="45.92958" lon="4.72971">
        <ele>171</ele>
        <time>2016-09-10T11:00:18Z</time>
      </trkpt>
      <trkpt lat="45.92953" lon="4.72976">
        <ele>171</ele>
        <time>2016-09-10T11:00:19Z</time>
      </trkpt>
      <trkpt lat="45.92948" lon="4.72981">
        <ele>171</ele>
        <time>2016-09-10T11:00:20Z</time>
      </trkpt>
      <trkpt lat="45.92944" lon="4.72985">
        <ele>171</ele>
        <time>2016-09-10T11:00:21Z</time>
      </trkpt>
      <trkpt lat="45.9294" lon="4.72989">
        <ele>171</ele>
        <time>2016-09-10T11:00:22Z</time>
      </trkpt>
      <trkpt lat="45.92935" lon="4.72995">
        <ele>172</ele>
        <time>2016-09-10T11:00:23Z</time>
      </trkpt>
      <trkpt lat="45.92931" lon="4.73">
        <ele>172</ele>
        <time>2016-09-10T11:00:24Z</time>
      </trkpt>
      <trkpt lat="45.92927" lon="4.73005">
        <ele>172</ele>
        <time>2016-09-10T11:00:25Z</time>
      </trkpt>
      <trkpt lat="45.92923" lon="4.73011">
        <ele>172</ele>
        <time>2016-09-10T11:00:26Z</time>
      </trkpt>
      <trkpt lat="45.92919" lon="4.73016">
        <ele>172</ele>
        <time>2016-09-10T11:00:27Z</time>
      </trkpt>
      <trkpt lat="45.92915" lon="4.73021">
        <ele>172</ele>
        <time>2016-09-10T11:00:28Z</time>
      </trkpt>
      <trkpt lat="45.92911" lon="4.73027">
        <ele>172</ele>
        <time>2016-09-10T11:00:29Z</time>
      </trkpt>
      <trkpt lat="45.92907" lon="4.73032">
        <ele>172</ele>
        <time>2016-09-10T11:00:30Z</time>
      </trkpt>
      <trkpt lat="45.92904" lon="4.73037">
        <ele>172</ele>
        <time>2016-09-10T11:00:31Z</time>
      </trkpt>
      <trkpt lat="45.929" lon="4.73043">
        <ele>172</ele>
        <time>2016-09-10T11:00:32Z</time>
      </trkpt>
      <trkpt lat="45.92896" lon="4.73049">
        <ele>172</ele>
        <time>2016-09-10T11:00:33Z</time>
      </trkpt>
      <trkpt lat="45.92893" lon="4.73054">
        <ele>172</ele>
        <time>2016-09-10T11:00:34Z</time>
      </trkpt>
      <trkpt lat="45.92889" lon="4.7306">
        <ele>172</ele>
        <time>2016-09-10T11:00:35Z</time>
      </trkpt>
      <trkpt lat="45.92886" lon="4.73067">
        <ele>172</ele>
        <time>2016-09-10T11:00:36Z</time>
      </trkpt>
      <trkpt lat="45.92883" lon="4.73074">
        <ele>172</ele>
        <time>2016-09-10T11:00:37Z</time>
      </trkpt>
      <trkpt lat="45.92881" lon="4.73082">
        <ele>172</ele>
        <time>2016-09-10T11:00:38Z</time>
      </trkpt>
      <trkpt lat="45.92878" lon="4.7309">
        <ele>172</ele>
        <time>2016-09-10T11:00:39Z</time>
      </trkpt>
      <trkpt lat="45.92876" lon="4.73097">
        <ele>172</ele>
        <time>2016-09-10T11:00:40Z</time>
      </trkpt>
      <trkpt lat="45.92874" lon="4.73106">
        <ele>172</ele>
        <time>2016-09-10T11:00:41Z</time>
      </trkpt>
      <trkpt lat="45.92872" lon="4.73115">
        <ele>172</ele>
        <time>2016-09-10T11:00:42Z</time>
      </trkpt>
      <trkpt lat="45.9287" lon="4.73124">
        <ele>171</ele>
        <time>2016-09-10T11:00:43Z</time>
      </trkpt>
      <trkpt lat="45.92869" lon="4.73133">
        <ele>171</ele>
        <time>2016-09-10T11:00:44Z</time>
      </trkpt>
      <trkpt lat="45.92867" lon="4.73142">
        <ele>171</ele>
        <time>2016-09-10T11:00:45Z</time>
      </trkpt>
      <trkpt lat="45.92866" lon="4.73151">
        <ele>171</ele>
        <time>2016-09-10T11:00:46Z</time>
      </trkpt>
      <trkpt lat="45.92865" lon="4.7316">
        <ele>171</ele>
        <time>2016-09-10T11:00:47Z</time>
      </trkpt>
      <trkpt lat="45.92864" lon="4.73169">
        <ele>171</ele>
        <time>2016-09-10T11:00:48Z</time>
      </trkpt>
      <trkpt lat="45.92863" lon="4.73177">
        <ele>171</ele>
        <time>2016-09-10T11:00:49Z</time>
      </trkpt>
      <trkpt lat="45.92862" lon="4.73185">
        <ele>171</ele>
        <time>2016-09-10T11:00:50Z</time>
      </trkpt>
      <trkpt lat="45.92862" lon="4.73194">
        <ele>171</ele>
        <time>2016-09-10T11:00:51Z</time>
      </trkpt>
      <trkpt lat="45.92861" lon="4.73203">
        <ele>171</ele>
        <time>2016-09-10T11:00:52Z</time>
      </trkpt>
      <trkpt lat="45.92861" lon="4.73211">
        <ele>171</ele>
        <time>2016-09-10T11:00:53Z</time>
      </trkpt>
      <trkpt lat="45.9286" lon="4.73219">
        <ele>171</ele>
        <time>2016-09-10T11:00:54Z</time>
      </trkpt>
      <trkpt lat="45.92859" lon="4.73228">
        <ele>171</ele>
        <time>2016-09-10T11:00:55Z</time>
      </trkpt>
      <trkpt lat="45.92858" lon="4.73237">
        <ele>171</ele>
        <time>2016-09-10T11:00:56Z</time>
      </trkpt>
      <trkpt lat="45.92857" lon="4.73246">
        <ele>171</ele>
        <time>2016-09-10T11:00:57Z</time>
      </trkpt>
      <trkpt lat="45.92856" lon="4.73255">
        <ele>171</ele>
        <time>2016-09-10T11:00:58Z</time>
      </trkpt>
      <trkpt lat="45.92854" lon="4.73265">
        <ele>171</ele>
        <time>2016-09-10T11:00:59Z</time>
      </trkpt>
      <trkpt lat="45.92853" lon="4.73274">
        <ele>171</ele>
        <time>2016-09-10T11:01:00Z</time>
      </trkpt>
      <trkpt lat="45.92852" lon="4.73283">
        <ele>171</ele>
        <time>2016-09-10T11:01:01Z</time>
      </trkpt>
      <trkpt lat="45.92851" lon="4.73292">
        <ele>171</ele>
        <time>2016-09-10T11:01:02Z</time>
      </trkpt>
      <trkpt lat="45.92851" lon="4.733">
        <ele>171</ele>
        <time>2016-09-10T11:01:03Z</time>
      </trkpt>
      <trkpt lat="45.9285" lon="4.73308">
        <ele>171</ele>
        <time>2016-09-10T11:01:04Z</time>
      </trkpt>
      <trkpt lat="45.92849" lon="4.73316">
        <ele>171</ele>
        <time>2016-09-10T11:01:05Z</time>
      </trkpt>
      <trkpt lat="45.92847" lon="4.73323">
        <ele>171</ele>
        <time>2016-09-10T11:01:06Z</time>
      </trkpt>
      <trkpt lat="45.92846" lon="4.73331">
        <ele>171</ele>
        <time>2016-09-10T11:01:07Z</time>
      </trkpt>
      <trkpt lat="45.92845" lon="4.73339">
        <ele>171</ele>
        <time>2016-09-10T11:01:08Z</time>
      </trkpt>
      <trkpt lat="45.92844" lon="4.73347">
        <ele>171</ele>
        <time>2016-09-10T11:01:09Z</time>
      </trkpt>
      <trkpt lat="45.92843" lon="4.73355">
        <ele>171</ele>
        <time>2016-09-10T11:01:10Z</time>
      </trkpt>
      <trkpt lat="45.92842" lon="4.73363">
        <ele>171</ele>
        <time>2016-09-10T11:01:11Z</time>
      </trkpt>
      <trkpt lat="45.92841" lon="4.73371">
        <ele>171</ele>
        <time>2016-09-10T11:01:12Z</time>
      </trkpt>
      <trkpt lat="45.9284" lon="4.73379">
        <ele>172</ele>
        <time>2016-09-10T11:01:13Z</time>
      </trkpt>
      <trkpt lat="45.92839" lon="4.73387">
        <ele>172</ele>
        <time>2016-09-10T11:01:14Z</time>
      </trkpt>
      <trkpt lat="45.92838" lon="4.73395">
        <ele>172</ele>
        <time>2016-09-10T11:01:15Z</time>
      </trkpt>
      <trkpt lat="45.92836" lon="4.73402">
        <ele>172</ele>
        <time>2016-09-10T11:01:16Z</time>
      </trkpt>
      <trkpt lat="45.92835" lon="4.7341">
        <ele>172</ele>
        <time>2016-09-10T11:01:17Z</time>
      </trkpt>
      <trkpt lat="45.92834" lon="4.73418">
        <ele>172</ele>
        <time>2016-09-10T11:01:18Z</time>
      </trkpt>
      <trkpt lat="45.92833" lon="4.73426">
        <ele>172</ele>
        <time>2016-09-10T11:01:19Z</time>
      </trkpt>
      <trkpt lat="45.92833" lon="4.73434">
        <ele>172</ele>
        <time>2016-09-10T11:01:20Z</time>
      </trkpt>
      <trkpt lat="45.92832" lon="4.73441">
        <ele>172</ele>
        <time>2016-09-10T11:01:21Z</time>
      </trkpt>
      <trkpt lat="45.9283" lon="4.7345">
        <ele>172</ele>
        <time>2016-09-10T11:01:22Z</time>
      </trkpt>
      <trkpt lat="45.92829" lon="4.73458">
        <ele>172</ele>
        <time>2016-09-10T11:01:23Z</time>
      </trkpt>
      <trkpt lat="45.92828" lon="4.73467">
        <ele>172</ele>
        <time>2016-09-10T11:01:24Z</time>
      </trkpt>
      <trkpt lat="45.92827" lon="4.73475">
        <ele>172</ele>
        <time>2016-09-10T11:01:25Z</time>
      </trkpt>
      <trkpt lat="45.92826" lon="4.73483">
        <ele>172</ele>
        <time>2016-09-10T11:01:26Z</time>
      </trkpt>
      <trkpt lat="45.92825" lon="4.73491">
        <ele>172</ele>
        <time>2016-09-10T11:01:27Z</time>
      </trkpt>
      <trkpt lat="45.92824" lon="4.73499">
        <ele>172</ele>
        <time>2016-09-10T11:01:28Z</time>
      </trkpt>
      <trkpt lat="45.92823" lon="4.73507">
        <ele>172</ele>
        <time>2016-09-10T11:01:29Z</time>
      </trkpt>
      <trkpt lat="45.92822" lon="4.73516">
        <ele>172</ele>
        <time>2016-09-10T11:01:30Z</time>
      </trkpt>
      <trkpt lat="45.92821" lon="4.73524">
        <ele>172</ele>
        <time>2016-09-10T11:01:31Z</time>
      </trkpt>
      <trkpt lat="45.9282" lon="4.73533">
        <ele>172</ele>
        <time>2016-09-10T11:01:32Z</time>
      </trkpt>
      <trkpt lat="45.9282" lon="4.73541">
        <ele>172</ele>
        <time>2016-09-10T11:01:33Z</time>
      </trkpt>
      <trkpt lat="45.92819" lon="4.73549">
        <ele>171</ele>
        <time>2016-09-10T11:01:34Z</time>
      </trkpt>
      <trkpt lat="45.92818" lon="4.73559">
        <ele>171</ele>
        <time>2016-09-10T11:01:35Z</time>
      </trkpt>
      <trkpt lat="45.92818" lon="4.73568">
        <ele>171</ele>
        <time>2016-09-10T11:01:36Z</time>
      </trkpt>
      <trkpt lat="45.92817" lon="4.73578">
        <ele>171</ele>
        <time>2016-09-10T11:01:37Z</time>
      </trkpt>
      <trkpt lat="45.92817" lon="4.73587">
        <ele>171</ele>
        <time>2016-09-10T11:01:38Z</time>
      </trkpt>
      <trkpt lat="45.92817" lon="4.73596">
        <ele>171</ele>
        <time>2016-09-10T11:01:39Z</time>
      </trkpt>
      <trkpt lat="45.92817" lon="4.73604">
        <ele>172</ele>
        <time>2016-09-10T11:01:40Z</time>
      </trkpt>
      <trkpt lat="45.92817" lon="4.73612">
        <ele>172</ele>
        <time>2016-09-10T11:01:41Z</time>
      </trkpt>
      <trkpt lat="45.92816" lon="4.7362">
        <ele>172</ele>
        <time>2016-09-10T11:01:42Z</time>
      </trkpt>
      <trkpt lat="45.92814" lon="4.73627">
        <ele>172</ele>
        <time>2016-09-10T11:01:43Z</time>
      </trkpt>
      <trkpt lat="45.92811" lon="4.73634">
        <ele>172</ele>
        <time>2016-09-10T11:01:44Z</time>
      </trkpt>
      <trkpt lat="45.92807" lon="4.73639">
        <ele>172</ele>
        <time>2016-09-10T11:01:45Z</time>
      </trkpt>
      <trkpt lat="45.92804" lon="4.73645">
        <ele>172</ele>
        <time>2016-09-10T11:01:46Z</time>
      </trkpt>
      <trkpt lat="45.92801" lon="4.73651">
        <ele>172</ele>
        <time>2016-09-10T11:01:47Z</time>
      </trkpt>
      <trkpt lat="45.92799" lon="4.73656">
        <ele>172</ele>
        <time>2016-09-10T11:01:48Z</time>
      </trkpt>
      <trkpt lat="45.92797" lon="4.73663">
        <ele>172</ele>
        <time>2016-09-10T11:01:49Z</time>
      </trkpt>
      <trkpt lat="45.92795" lon="4.73669">
        <ele>172</ele>
        <time>2016-09-10T11:01:50Z</time>
      </trkpt>
      <trkpt lat="45.92794" lon="4.73676">
        <ele>172</ele>
        <time>2016-09-10T11:01:51Z</time>
      </trkpt>
      <trkpt lat="45.92792" lon="4.73683">
        <ele>172</ele>
        <time>2016-09-10T11:01:52Z</time>
      </trkpt>
      <trkpt lat="45.9279" lon="4.7369">
        <ele>172</ele>
        <time>2016-09-10T11:01:53Z</time>
      </trkpt>
      <trkpt lat="45.92789" lon="4.73697">
        <ele>172</ele>
        <time>2016-09-10T11:01:54Z</time>
      </trkpt>
      <trkpt lat="45.92788" lon="4.73704">
        <ele>172</ele>
        <time>2016-09-10T11:01:55Z</time>
      </trkpt>
      <trkpt lat="45.92787" lon="4.73712">
        <ele>172</ele>
        <time>2016-09-10T11:01:56Z</time>
      </trkpt>
      <trkpt lat="45.92786" lon="4.73718">
        <ele>172</ele>
        <time>2016-09-10T11:01:57Z</time>
      </trkpt>
      <trkpt lat="45.92785" lon="4.73725">
        <ele>172</ele>
        <time>2016-09-10T11:01:58Z</time>
      </trkpt>
      <trkpt lat="45.92779" lon="4.73733">
        <ele>172</ele>
        <time>2016-09-10T11:02:00Z</time>
      </trkpt>
      <trkpt lat="45.92776" lon="4.73734">
        <ele>172</ele>
        <time>2016-09-10T11:02:01Z</time>
      </trkpt>
      <trkpt lat="45.92767" lon="4.73732">
        <ele>172</ele>
        <time>2016-09-10T11:02:03Z</time>
      </trkpt>
      <trkpt lat="45.92762" lon="4.7373">
        <ele>172</ele>
        <time>2016-09-10T11:02:04Z</time>
      </trkpt>
      <trkpt lat="45.92757" lon="4.73728">
        <ele>172</ele>
        <time>2016-09-10T11:02:05Z</time>
      </trkpt>
      <trkpt lat="45.92751" lon="4.73726">
        <ele>172</ele>
        <time>2016-09-10T11:02:06Z</time>
      </trkpt>
      <trkpt lat="45.92745" lon="4.73725">
        <ele>173</ele>
        <time>2016-09-10T11:02:07Z</time>
      </trkpt>
      <trkpt lat="45.9274" lon="4.73723">
        <ele>173</ele>
        <time>2016-09-10T11:02:08Z</time>
      </trkpt>
      <trkpt lat="45.92734" lon="4.73721">
        <ele>173</ele>
        <time>2016-09-10T11:02:09Z</time>
      </trkpt>
      <trkpt lat="45.92728" lon="4.73719">
        <ele>173</ele>
        <time>2016-09-10T11:02:10Z</time>
      </trkpt>
      <trkpt lat="45.92722" lon="4.73716">
        <ele>173</ele>
        <time>2016-09-10T11:02:11Z</time>
      </trkpt>
      <trkpt lat="45.92716" lon="4.73714">
        <ele>173</ele>
        <time>2016-09-10T11:02:12Z</time>
      </trkpt>
      <trkpt lat="45.92711" lon="4.73713">
        <ele>173</ele>
        <time>2016-09-10T11:02:13Z</time>
      </trkpt>
      <trkpt lat="45.92705" lon="4.73711">
        <ele>173</ele>
        <time>2016-09-10T11:02:14Z</time>
      </trkpt>
      <trkpt lat="45.92699" lon="4.7371">
        <ele>173</ele>
        <time>2016-09-10T11:02:15Z</time>
      </trkpt>
      <trkpt lat="45.92694" lon="4.7371">
        <ele>173</ele>
        <time>2016-09-10T11:02:16Z</time>
      </trkpt>
      <trkpt lat="45.92689" lon="4.7371">
        <ele>173</ele>
        <time>2016-09-10T11:02:17Z</time>
      </trkpt>
      <trkpt lat="45.92684" lon="4.73709">
        <ele>173</ele>
        <time>2016-09-10T11:02:18Z</time>
      </trkpt>
      <trkpt lat="45.92679" lon="4.73707">
        <ele>173</ele>
        <time>2016-09-10T11:02:19Z</time>
      </trkpt>
      <trkpt lat="45.92675" lon="4.73705">
        <ele>174</ele>
        <time>2016-09-10T11:02:20Z</time>
      </trkpt>
      <trkpt lat="45.92667" lon="4.737">
        <ele>173</ele>
        <time>2016-09-10T11:02:22Z</time>
      </trkpt>
      <trkpt lat="45.92663" lon="4.73697">
        <ele>173</ele>
        <time>2016-09-10T11:02:23Z</time>
      </trkpt>
      <trkpt lat="45.92656" lon="4.7369">
        <ele>173</ele>
        <time>2016-09-10T11:02:25Z</time>
      </trkpt>
      <trkpt lat="45.92652" lon="4.73686">
        <ele>173</ele>
        <time>2016-09-10T11:02:26Z</time>
      </trkpt>
      <trkpt lat="45.92648" lon="4.73682">
        <ele>173</ele>
        <time>2016-09-10T11:02:27Z</time>
      </trkpt>
      <trkpt lat="45.92645" lon="4.73677">
        <ele>173</ele>
        <time>2016-09-10T11:02:28Z</time>
      </trkpt>
      <trkpt lat="45.92641" lon="4.73672">
        <ele>173</ele>
        <time>2016-09-10T11:02:29Z</time>
      </trkpt>
      <trkpt lat="45.92638" lon="4.73665">
        <ele>173</ele>
        <time>2016-09-10T11:02:30Z</time>
      </trkpt>
      <trkpt lat="45.92635" lon="4.73658">
        <ele>173</ele>
        <time>2016-09-10T11:02:31Z</time>
      </trkpt>
      <trkpt lat="45.92632" lon="4.7365">
        <ele>173</ele>
        <time>2016-09-10T11:02:32Z</time>
      </trkpt>
      <trkpt lat="45.92629" lon="4.73644">
        <ele>173</ele>
        <time>2016-09-10T11:02:33Z</time>
      </trkpt>
      <trkpt lat="45.92625" lon="4.73637">
        <ele>173</ele>
        <time>2016-09-10T11:02:34Z</time>
      </trkpt>
      <trkpt lat="45.92621" lon="4.73632">
        <ele>173</ele>
        <time>2016-09-10T11:02:35Z</time>
      </trkpt>
      <trkpt lat="45.92616" lon="4.73628">
        <ele>173</ele>
        <time>2016-09-10T11:02:36Z</time>
      </trkpt>
      <trkpt lat="45.92611" lon="4.73625">
        <ele>173</ele>
        <time>2016-09-10T11:02:37Z</time>
      </trkpt>
      <trkpt lat="45.92605" lon="4.73624">
        <ele>173</ele>
        <time>2016-09-10T11:02:38Z</time>
      </trkpt>
      <trkpt lat="45.926" lon="4.73623">
        <ele>173</ele>
        <time>2016-09-10T11:02:39Z</time>
      </trkpt>
      <trkpt lat="45.92594" lon="4.73624">
        <ele>173</ele>
        <time>2016-09-10T11:02:40Z</time>
      </trkpt>
      <trkpt lat="45.92589" lon="4.73625">
        <ele>172</ele>
        <time>2016-09-10T11:02:41Z</time>
      </trkpt>
      <trkpt lat="45.92584" lon="4.73626">
        <ele>172</ele>
        <time>2016-09-10T11:02:42Z</time>
      </trkpt>
      <trkpt lat="45.92579" lon="4.73627">
        <ele>173</ele>
        <time>2016-09-10T11:02:43Z</time>
      </trkpt>
      <trkpt lat="45.92573" lon="4.73627">
        <ele>173</ele>
        <time>2016-09-10T11:02:44Z</time>
      </trkpt>
      <trkpt lat="45.92568" lon="4.73628">
        <ele>173</ele>
        <time>2016-09-10T11:02:45Z</time>
      </trkpt>
      <trkpt lat="45.92562" lon="4.73629">
        <ele>173</ele>
        <time>2016-09-10T11:02:46Z</time>
      </trkpt>
      <trkpt lat="45.92558" lon="4.73631">
        <ele>173</ele>
        <time>2016-09-10T11:02:47Z</time>
      </trkpt>
      <trkpt lat="45.92553" lon="4.73633">
        <ele>173</ele>
        <time>2016-09-10T11:02:48Z</time>
      </trkpt>
      <trkpt lat="45.92548" lon="4.73634">
        <ele>173</ele>
        <time>2016-09-10T11:02:49Z</time>
      </trkpt>
      <trkpt lat="45.92543" lon="4.73636">
        <ele>173</ele>
        <time>2016-09-10T11:02:50Z</time>
      </trkpt>
      <trkpt lat="45.92538" lon="4.73638">
        <ele>173</ele>
        <time>2016-09-10T11:02:51Z</time>
      </trkpt>
      <trkpt lat="45.92533" lon="4.73638">
        <ele>173</ele>
        <time>2016-09-10T11:02:52Z</time>
      </trkpt>
      <trkpt lat="45.92528" lon="4.73639">
        <ele>173</ele>
        <time>2016-09-10T11:02:53Z</time>
      </trkpt>
      <trkpt lat="45.92523" lon="4.7364">
        <ele>173</ele>
        <time>2016-09-10T11:02:54Z</time>
      </trkpt>
      <trkpt lat="45.92514" lon="4.73641">
        <ele>174</ele>
        <time>2016-09-10T11:02:56Z</time>
      </trkpt>
      <trkpt lat="45.9251" lon="4.73641">
        <ele>174</ele>
        <time>2016-09-10T11:02:57Z</time>
      </trkpt>
      <trkpt lat="45.92501" lon="4.7364">
        <ele>174</ele>
        <time>2016-09-10T11:02:59Z</time>
      </trkpt>
      <trkpt lat="45.92498" lon="4.7364">
        <ele>174</ele>
        <time>2016-09-10T11:03:00Z</time>
      </trkpt>
      <trkpt lat="45.92489" lon="4.73639">
        <ele>174</ele>
        <time>2016-09-10T11:03:02Z</time>
      </trkpt>
      <trkpt lat="45.92485" lon="4.73639">
        <ele>174</ele>
        <time>2016-09-10T11:03:03Z</time>
      </trkpt>
      <trkpt lat="45.92476" lon="4.7364">
        <ele>174</ele>
        <time>2016-09-10T11:03:05Z</time>
      </trkpt>
      <trkpt lat="45.92472" lon="4.73643">
        <ele>174</ele>
        <time>2016-09-10T11:03:06Z</time>
      </trkpt>
      <trkpt lat="45.9247" lon="4.73651">
        <ele>174</ele>
        <time>2016-09-10T11:03:08Z</time>
      </trkpt>
      <trkpt lat="45.92469" lon="4.73656">
        <ele>174</ele>
        <time>2016-09-10T11:03:09Z</time>
      </trkpt>
      <trkpt lat="45.92468" lon="4.73666">
        <ele>174</ele>
        <time>2016-09-10T11:03:11Z</time>
      </trkpt>
      <trkpt lat="45.92467" lon="4.73672">
        <ele>174</ele>
        <time>2016-09-10T11:03:12Z</time>
      </trkpt>
      <trkpt lat="45.92466" lon="4.73681">
        <ele>174</ele>
        <time>2016-09-10T11:03:14Z</time>
      </trkpt>
      <trkpt lat="45.92466" lon="4.73687">
        <ele>174</ele>
        <time>2016-09-10T11:03:15Z</time>
      </trkpt>
      <trkpt lat="45.92464" lon="4.73696">
        <ele>174</ele>
        <time>2016-09-10T11:03:17Z</time>
      </trkpt>
      <trkpt lat="45.92463" lon="4.737">
        <ele>174</ele>
        <time>2016-09-10T11:03:18Z</time>
      </trkpt>
      <trkpt lat="45.92461" lon="4.73706">
        <ele>174</ele>
        <time>2016-09-10T11:03:20Z</time>
      </trkpt>
      <trkpt lat="45.92461" lon="4.73708">
        <ele>174</ele>
        <time>2016-09-10T11:03:21Z</time>
      </trkpt>
      <trkpt lat="45.92462" lon="4.7371">
        <ele>174</ele>
        <time>2016-09-10T11:03:32Z</time>
      </trkpt>
      <trkpt lat="45.92462" lon="4.7371">
        <ele>174</ele>
        <time>2016-09-10T11:03:33Z</time>
      </trkpt>
      <trkpt lat="45.9246" lon="4.73709">
        <ele>174</ele>
        <time>2016-09-10T11:03:53.107Z</time>
      </trkpt>
    </trkseg>
  </trk>
</gpx>